<?xml version="1.0" encoding="UTF-8"?>
<gpx xmlns="http://www.topografix.com/GPX/1/1" creator="GPSies http://www.gpsies.com - Cupra_090606" version="1.1" xmlns:xsi="http://www.w3.org/2001/XMLSchema-instance" xsi:schemaLocation="http://www.topografix.com/GPX/1/1 http://www.topografix.com/GPX/1/1/gpx.xsd">
  <metadata>
    <name>Cupra_090606</name>
    <copyright author="GPSies.com" />
    <link href="http://www.gpsies.com/map.do?fileId=rfoaytfvttduwzyy">
      <text>Cupra_090606 on GPSies.com</text>
    </link>
    <time>2009-07-31T10:23:10Z</time>
  </metadata>
  <trk>
    <name>Cupra_090606 on GPSies.com</name>
    <link href="http://www.gpsies.com/map.do?fileId=rfoaytfvttduwzyy" />
    <trkseg>
      <trkpt lat="43.40477200" lon="12.99809950">
        <ele>679.00000</ele>
        <time>2009-07-31T10:23:10Z</time>
      </trkpt>
      <trkpt lat="43.40475320" lon="12.99817980">
        <ele>679.00000</ele>
        <time>2009-07-31T10:23:12Z</time>
      </trkpt>
      <trkpt lat="43.40476380" lon="12.99819510">
        <ele>679.00000</ele>
        <time>2009-07-31T10:23:13Z</time>
      </trkpt>
      <trkpt lat="43.40477890" lon="12.99820070">
        <ele>679.00000</ele>
        <time>2009-07-31T10:23:14Z</time>
      </trkpt>
      <trkpt lat="43.40480050" lon="12.99821750">
        <ele>679.00000</ele>
        <time>2009-07-31T10:23:15Z</time>
      </trkpt>
      <trkpt lat="43.40480820" lon="12.99822710">
        <ele>679.00000</ele>
        <time>2009-07-31T10:23:15Z</time>
      </trkpt>
      <trkpt lat="43.40481250" lon="12.99822840">
        <ele>679.00000</ele>
        <time>2009-07-31T10:23:15Z</time>
      </trkpt>
      <trkpt lat="43.40481650" lon="12.99822970">
        <ele>679.00000</ele>
        <time>2009-07-31T10:23:15Z</time>
      </trkpt>
      <trkpt lat="43.40481560" lon="12.99823010">
        <ele>679.00000</ele>
        <time>2009-07-31T10:23:15Z</time>
      </trkpt>
      <trkpt lat="43.40481910" lon="12.99822900">
        <ele>679.00000</ele>
        <time>2009-07-31T10:23:16Z</time>
      </trkpt>
      <trkpt lat="43.40481380" lon="12.99823980">
        <ele>679.00000</ele>
        <time>2009-07-31T10:23:16Z</time>
      </trkpt>
      <trkpt lat="43.40481350" lon="12.99824420">
        <ele>679.00000</ele>
        <time>2009-07-31T10:23:16Z</time>
      </trkpt>
      <trkpt lat="43.40481790" lon="12.99825200">
        <ele>679.00000</ele>
        <time>2009-07-31T10:23:16Z</time>
      </trkpt>
      <trkpt lat="43.40483040" lon="12.99826100">
        <ele>679.00000</ele>
        <time>2009-07-31T10:23:17Z</time>
      </trkpt>
      <trkpt lat="43.40484200" lon="12.99826210">
        <ele>679.00000</ele>
        <time>2009-07-31T10:23:17Z</time>
      </trkpt>
      <trkpt lat="43.40486160" lon="12.99826060">
        <ele>679.00000</ele>
        <time>2009-07-31T10:23:18Z</time>
      </trkpt>
      <trkpt lat="43.40486590" lon="12.99828700">
        <ele>679.00000</ele>
        <time>2009-07-31T10:23:19Z</time>
      </trkpt>
      <trkpt lat="43.40487170" lon="12.99830120">
        <ele>679.00000</ele>
        <time>2009-07-31T10:23:19Z</time>
      </trkpt>
      <trkpt lat="43.40486960" lon="12.99832180">
        <ele>679.00000</ele>
        <time>2009-07-31T10:23:20Z</time>
      </trkpt>
      <trkpt lat="43.40486590" lon="12.99832940">
        <ele>679.00000</ele>
        <time>2009-07-31T10:23:20Z</time>
      </trkpt>
      <trkpt lat="43.40487000" lon="12.99833160">
        <ele>679.00000</ele>
        <time>2009-07-31T10:23:20Z</time>
      </trkpt>
      <trkpt lat="43.40487450" lon="12.99831690">
        <ele>679.00000</ele>
        <time>2009-07-31T10:23:21Z</time>
      </trkpt>
      <trkpt lat="43.40487450" lon="12.99831840">
        <ele>679.00000</ele>
        <time>2009-07-31T10:23:21Z</time>
      </trkpt>
      <trkpt lat="43.40487160" lon="12.99831600">
        <ele>679.00000</ele>
        <time>2009-07-31T10:23:21Z</time>
      </trkpt>
      <trkpt lat="43.40487050" lon="12.99831820">
        <ele>679.00000</ele>
        <time>2009-07-31T10:23:21Z</time>
      </trkpt>
      <trkpt lat="43.40486850" lon="12.99832000">
        <ele>679.00000</ele>
        <time>2009-07-31T10:23:21Z</time>
      </trkpt>
      <trkpt lat="43.40486800" lon="12.99832120">
        <ele>679.00000</ele>
        <time>2009-07-31T10:23:21Z</time>
      </trkpt>
      <trkpt lat="43.40486830" lon="12.99832190">
        <ele>679.00000</ele>
        <time>2009-07-31T10:23:21Z</time>
      </trkpt>
      <trkpt lat="43.40486760" lon="12.99832320">
        <ele>679.00000</ele>
        <time>2009-07-31T10:23:21Z</time>
      </trkpt>
      <trkpt lat="43.40487540" lon="12.99831700">
        <ele>679.00000</ele>
        <time>2009-07-31T10:23:22Z</time>
      </trkpt>
      <trkpt lat="43.40487270" lon="12.99832040">
        <ele>679.00000</ele>
        <time>2009-07-31T10:23:22Z</time>
      </trkpt>
      <trkpt lat="43.40487020" lon="12.99832400">
        <ele>679.00000</ele>
        <time>2009-07-31T10:23:22Z</time>
      </trkpt>
      <trkpt lat="43.40486700" lon="12.99832750">
        <ele>679.00000</ele>
        <time>2009-07-31T10:23:22Z</time>
      </trkpt>
      <trkpt lat="43.40486620" lon="12.99835380">
        <ele>679.00000</ele>
        <time>2009-07-31T10:23:23Z</time>
      </trkpt>
      <trkpt lat="43.40486340" lon="12.99836530">
        <ele>679.00000</ele>
        <time>2009-07-31T10:23:23Z</time>
      </trkpt>
      <trkpt lat="43.40486070" lon="12.99837320">
        <ele>679.00000</ele>
        <time>2009-07-31T10:23:23Z</time>
      </trkpt>
      <trkpt lat="43.40490000" lon="12.99832580">
        <ele>679.00000</ele>
        <time>2009-07-31T10:23:26Z</time>
      </trkpt>
      <trkpt lat="43.40490410" lon="12.99831420">
        <ele>679.00000</ele>
        <time>2009-07-31T10:23:26Z</time>
      </trkpt>
      <trkpt lat="43.40490350" lon="12.99831720">
        <ele>679.00000</ele>
        <time>2009-07-31T10:23:26Z</time>
      </trkpt>
      <trkpt lat="43.40490430" lon="12.99831470">
        <ele>679.00000</ele>
        <time>2009-07-31T10:23:26Z</time>
      </trkpt>
      <trkpt lat="43.40490750" lon="12.99831320">
        <ele>679.00000</ele>
        <time>2009-07-31T10:23:26Z</time>
      </trkpt>
      <trkpt lat="43.40491130" lon="12.99831180">
        <ele>679.00000</ele>
        <time>2009-07-31T10:23:26Z</time>
      </trkpt>
      <trkpt lat="43.40491580" lon="12.99831120">
        <ele>679.00000</ele>
        <time>2009-07-31T10:23:27Z</time>
      </trkpt>
      <trkpt lat="43.40492030" lon="12.99830980">
        <ele>679.00000</ele>
        <time>2009-07-31T10:23:27Z</time>
      </trkpt>
      <trkpt lat="43.40492400" lon="12.99830800">
        <ele>679.00000</ele>
        <time>2009-07-31T10:23:27Z</time>
      </trkpt>
      <trkpt lat="43.40492680" lon="12.99830680">
        <ele>679.00000</ele>
        <time>2009-07-31T10:23:27Z</time>
      </trkpt>
      <trkpt lat="43.40492940" lon="12.99830610">
        <ele>679.00000</ele>
        <time>2009-07-31T10:23:27Z</time>
      </trkpt>
      <trkpt lat="43.40493210" lon="12.99830480">
        <ele>679.00000</ele>
        <time>2009-07-31T10:23:27Z</time>
      </trkpt>
      <trkpt lat="43.40493590" lon="12.99830150">
        <ele>679.00000</ele>
        <time>2009-07-31T10:23:27Z</time>
      </trkpt>
      <trkpt lat="43.40493970" lon="12.99829690">
        <ele>679.00000</ele>
        <time>2009-07-31T10:23:28Z</time>
      </trkpt>
      <trkpt lat="43.40494400" lon="12.99830230">
        <ele>679.00000</ele>
        <time>2009-07-31T10:23:28Z</time>
      </trkpt>
      <trkpt lat="43.40494710" lon="12.99829560">
        <ele>679.00000</ele>
        <time>2009-07-31T10:23:28Z</time>
      </trkpt>
      <trkpt lat="43.40493680" lon="12.99824040">
        <ele>679.00000</ele>
        <time>2009-07-31T10:23:30Z</time>
      </trkpt>
      <trkpt lat="43.40494490" lon="12.99825300">
        <ele>679.00000</ele>
        <time>2009-07-31T10:23:30Z</time>
      </trkpt>
      <trkpt lat="43.40494760" lon="12.99824880">
        <ele>679.00000</ele>
        <time>2009-07-31T10:23:30Z</time>
      </trkpt>
      <trkpt lat="43.40495070" lon="12.99825360">
        <ele>679.00000</ele>
        <time>2009-07-31T10:23:31Z</time>
      </trkpt>
      <trkpt lat="43.40495200" lon="12.99825560">
        <ele>679.00000</ele>
        <time>2009-07-31T10:23:31Z</time>
      </trkpt>
      <trkpt lat="43.40495140" lon="12.99825740">
        <ele>679.00000</ele>
        <time>2009-07-31T10:23:31Z</time>
      </trkpt>
      <trkpt lat="43.40495020" lon="12.99825890">
        <ele>679.00000</ele>
        <time>2009-07-31T10:23:31Z</time>
      </trkpt>
      <trkpt lat="43.40494880" lon="12.99825930">
        <ele>679.00000</ele>
        <time>2009-07-31T10:23:31Z</time>
      </trkpt>
      <trkpt lat="43.40494710" lon="12.99825860">
        <ele>679.00000</ele>
        <time>2009-07-31T10:23:31Z</time>
      </trkpt>
      <trkpt lat="43.40494590" lon="12.99825930">
        <ele>679.00000</ele>
        <time>2009-07-31T10:23:31Z</time>
      </trkpt>
      <trkpt lat="43.40494490" lon="12.99826090">
        <ele>679.00000</ele>
        <time>2009-07-31T10:23:31Z</time>
      </trkpt>
      <trkpt lat="43.40494410" lon="12.99826330">
        <ele>679.00000</ele>
        <time>2009-07-31T10:23:31Z</time>
      </trkpt>
      <trkpt lat="43.40494410" lon="12.99826510">
        <ele>679.00000</ele>
        <time>2009-07-31T10:23:31Z</time>
      </trkpt>
      <trkpt lat="43.40494510" lon="12.99826760">
        <ele>679.00000</ele>
        <time>2009-07-31T10:23:31Z</time>
      </trkpt>
      <trkpt lat="43.40494660" lon="12.99827280">
        <ele>679.00000</ele>
        <time>2009-07-31T10:23:31Z</time>
      </trkpt>
      <trkpt lat="43.40494850" lon="12.99827820">
        <ele>679.00000</ele>
        <time>2009-07-31T10:23:32Z</time>
      </trkpt>
      <trkpt lat="43.40494910" lon="12.99828160">
        <ele>679.00000</ele>
        <time>2009-07-31T10:23:32Z</time>
      </trkpt>
      <trkpt lat="43.40494790" lon="12.99828540">
        <ele>679.00000</ele>
        <time>2009-07-31T10:23:32Z</time>
      </trkpt>
      <trkpt lat="43.40494560" lon="12.99828920">
        <ele>679.00000</ele>
        <time>2009-07-31T10:23:32Z</time>
      </trkpt>
      <trkpt lat="43.40494250" lon="12.99829220">
        <ele>679.00000</ele>
        <time>2009-07-31T10:23:32Z</time>
      </trkpt>
      <trkpt lat="43.40493880" lon="12.99829570">
        <ele>679.00000</ele>
        <time>2009-07-31T10:23:32Z</time>
      </trkpt>
      <trkpt lat="43.40493290" lon="12.99830280">
        <ele>679.00000</ele>
        <time>2009-07-31T10:23:33Z</time>
      </trkpt>
      <trkpt lat="43.40492610" lon="12.99831490">
        <ele>679.00000</ele>
        <time>2009-07-31T10:23:33Z</time>
      </trkpt>
      <trkpt lat="43.40491840" lon="12.99832080">
        <ele>679.00000</ele>
        <time>2009-07-31T10:23:33Z</time>
      </trkpt>
      <trkpt lat="43.40489930" lon="12.99832420">
        <ele>679.00000</ele>
        <time>2009-07-31T10:23:34Z</time>
      </trkpt>
      <trkpt lat="43.40490600" lon="12.99832780">
        <ele>679.00000</ele>
        <time>2009-07-31T10:23:34Z</time>
      </trkpt>
      <trkpt lat="43.40489880" lon="12.99834260">
        <ele>679.00000</ele>
        <time>2009-07-31T10:23:35Z</time>
      </trkpt>
      <trkpt lat="43.40489540" lon="12.99834330">
        <ele>679.00000</ele>
        <time>2009-07-31T10:23:35Z</time>
      </trkpt>
      <trkpt lat="43.40489480" lon="12.99834810">
        <ele>679.00000</ele>
        <time>2009-07-31T10:23:35Z</time>
      </trkpt>
      <trkpt lat="43.40489460" lon="12.99835390">
        <ele>679.00000</ele>
        <time>2009-07-31T10:23:35Z</time>
      </trkpt>
      <trkpt lat="43.40489410" lon="12.99835690">
        <ele>679.00000</ele>
        <time>2009-07-31T10:23:36Z</time>
      </trkpt>
      <trkpt lat="43.40489380" lon="12.99835870">
        <ele>679.00000</ele>
        <time>2009-07-31T10:23:36Z</time>
      </trkpt>
      <trkpt lat="43.40489420" lon="12.99836050">
        <ele>679.00000</ele>
        <time>2009-07-31T10:23:36Z</time>
      </trkpt>
      <trkpt lat="43.40489450" lon="12.99836180">
        <ele>679.00000</ele>
        <time>2009-07-31T10:23:36Z</time>
      </trkpt>
      <trkpt lat="43.40489490" lon="12.99836090">
        <ele>679.00000</ele>
        <time>2009-07-31T10:23:36Z</time>
      </trkpt>
      <trkpt lat="43.40488120" lon="12.99833620">
        <ele>679.00000</ele>
        <time>2009-07-31T10:23:37Z</time>
      </trkpt>
      <trkpt lat="43.40487830" lon="12.99834160">
        <ele>679.00000</ele>
        <time>2009-07-31T10:23:37Z</time>
      </trkpt>
      <trkpt lat="43.40487820" lon="12.99834260">
        <ele>679.00000</ele>
        <time>2009-07-31T10:23:37Z</time>
      </trkpt>
      <trkpt lat="43.40487790" lon="12.99834590">
        <ele>679.00000</ele>
        <time>2009-07-31T10:23:37Z</time>
      </trkpt>
      <trkpt lat="43.40487920" lon="12.99834530">
        <ele>679.00000</ele>
        <time>2009-07-31T10:23:37Z</time>
      </trkpt>
      <trkpt lat="43.40487940" lon="12.99834440">
        <ele>679.00000</ele>
        <time>2009-07-31T10:23:37Z</time>
      </trkpt>
      <trkpt lat="43.40487950" lon="12.99834350">
        <ele>679.00000</ele>
        <time>2009-07-31T10:23:37Z</time>
      </trkpt>
      <trkpt lat="43.40488010" lon="12.99834300">
        <ele>679.00000</ele>
        <time>2009-07-31T10:23:37Z</time>
      </trkpt>
      <trkpt lat="43.40488110" lon="12.99834280">
        <ele>679.00000</ele>
        <time>2009-07-31T10:23:37Z</time>
      </trkpt>
      <trkpt lat="43.40487310" lon="12.99834340">
        <ele>679.00000</ele>
        <time>2009-07-31T10:23:37Z</time>
      </trkpt>
      <trkpt lat="43.40486160" lon="12.99835220">
        <ele>679.00000</ele>
        <time>2009-07-31T10:23:38Z</time>
      </trkpt>
      <trkpt lat="43.40485930" lon="12.99835120">
        <ele>679.00000</ele>
        <time>2009-07-31T10:23:38Z</time>
      </trkpt>
      <trkpt lat="43.40485800" lon="12.99834320">
        <ele>679.00000</ele>
        <time>2009-07-31T10:23:38Z</time>
      </trkpt>
      <trkpt lat="43.40485680" lon="12.99833650">
        <ele>679.00000</ele>
        <time>2009-07-31T10:23:38Z</time>
      </trkpt>
      <trkpt lat="43.40485820" lon="12.99832820">
        <ele>679.00000</ele>
        <time>2009-07-31T10:23:39Z</time>
      </trkpt>
      <trkpt lat="43.40485660" lon="12.99832060">
        <ele>679.00000</ele>
        <time>2009-07-31T10:23:39Z</time>
      </trkpt>
      <trkpt lat="43.40485530" lon="12.99831270">
        <ele>679.00000</ele>
        <time>2009-07-31T10:23:39Z</time>
      </trkpt>
      <trkpt lat="43.40485430" lon="12.99830580">
        <ele>679.00000</ele>
        <time>2009-07-31T10:23:39Z</time>
      </trkpt>
      <trkpt lat="43.40485530" lon="12.99829980">
        <ele>679.00000</ele>
        <time>2009-07-31T10:23:40Z</time>
      </trkpt>
      <trkpt lat="43.40485830" lon="12.99829660">
        <ele>679.00000</ele>
        <time>2009-07-31T10:23:40Z</time>
      </trkpt>
      <trkpt lat="43.40485920" lon="12.99829340">
        <ele>679.00000</ele>
        <time>2009-07-31T10:23:40Z</time>
      </trkpt>
      <trkpt lat="43.40485890" lon="12.99828930">
        <ele>679.00000</ele>
        <time>2009-07-31T10:23:40Z</time>
      </trkpt>
      <trkpt lat="43.40485890" lon="12.99828320">
        <ele>679.00000</ele>
        <time>2009-07-31T10:23:40Z</time>
      </trkpt>
      <trkpt lat="43.40485890" lon="12.99827760">
        <ele>679.00000</ele>
        <time>2009-07-31T10:23:40Z</time>
      </trkpt>
      <trkpt lat="43.40485920" lon="12.99827330">
        <ele>679.00000</ele>
        <time>2009-07-31T10:23:40Z</time>
      </trkpt>
      <trkpt lat="43.40485990" lon="12.99827040">
        <ele>679.00000</ele>
        <time>2009-07-31T10:23:40Z</time>
      </trkpt>
      <trkpt lat="43.40486100" lon="12.99826860">
        <ele>679.00000</ele>
        <time>2009-07-31T10:23:41Z</time>
      </trkpt>
      <trkpt lat="43.40486270" lon="12.99826800">
        <ele>679.00000</ele>
        <time>2009-07-31T10:23:41Z</time>
      </trkpt>
      <trkpt lat="43.40486460" lon="12.99826840">
        <ele>679.00000</ele>
        <time>2009-07-31T10:23:41Z</time>
      </trkpt>
      <trkpt lat="43.40486670" lon="12.99826930">
        <ele>679.00000</ele>
        <time>2009-07-31T10:23:41Z</time>
      </trkpt>
      <trkpt lat="43.40486920" lon="12.99827000">
        <ele>679.00000</ele>
        <time>2009-07-31T10:23:41Z</time>
      </trkpt>
      <trkpt lat="43.40487210" lon="12.99827050">
        <ele>679.00000</ele>
        <time>2009-07-31T10:23:41Z</time>
      </trkpt>
      <trkpt lat="43.40487500" lon="12.99827210">
        <ele>679.00000</ele>
        <time>2009-07-31T10:23:41Z</time>
      </trkpt>
      <trkpt lat="43.40487690" lon="12.99827570">
        <ele>679.00000</ele>
        <time>2009-07-31T10:23:41Z</time>
      </trkpt>
      <trkpt lat="43.40487580" lon="12.99827980">
        <ele>679.00000</ele>
        <time>2009-07-31T10:23:41Z</time>
      </trkpt>
      <trkpt lat="43.40487480" lon="12.99828200">
        <ele>679.00000</ele>
        <time>2009-07-31T10:23:41Z</time>
      </trkpt>
      <trkpt lat="43.40487360" lon="12.99828440">
        <ele>679.00000</ele>
        <time>2009-07-31T10:23:42Z</time>
      </trkpt>
      <trkpt lat="43.40487230" lon="12.99828700">
        <ele>679.00000</ele>
        <time>2009-07-31T10:23:42Z</time>
      </trkpt>
      <trkpt lat="43.40487080" lon="12.99828970">
        <ele>679.00000</ele>
        <time>2009-07-31T10:23:42Z</time>
      </trkpt>
      <trkpt lat="43.40486940" lon="12.99829220">
        <ele>679.00000</ele>
        <time>2009-07-31T10:23:42Z</time>
      </trkpt>
      <trkpt lat="43.40486730" lon="12.99829460">
        <ele>679.00000</ele>
        <time>2009-07-31T10:23:42Z</time>
      </trkpt>
      <trkpt lat="43.40486460" lon="12.99829730">
        <ele>679.00000</ele>
        <time>2009-07-31T10:23:42Z</time>
      </trkpt>
      <trkpt lat="43.40486180" lon="12.99829920">
        <ele>679.00000</ele>
        <time>2009-07-31T10:23:42Z</time>
      </trkpt>
      <trkpt lat="43.40485880" lon="12.99830000">
        <ele>679.00000</ele>
        <time>2009-07-31T10:23:42Z</time>
      </trkpt>
      <trkpt lat="43.40485560" lon="12.99830020">
        <ele>679.00000</ele>
        <time>2009-07-31T10:23:42Z</time>
      </trkpt>
      <trkpt lat="43.40485270" lon="12.99830000">
        <ele>679.00000</ele>
        <time>2009-07-31T10:23:43Z</time>
      </trkpt>
      <trkpt lat="43.40485140" lon="12.99830200">
        <ele>679.00000</ele>
        <time>2009-07-31T10:23:43Z</time>
      </trkpt>
      <trkpt lat="43.40485080" lon="12.99830440">
        <ele>679.00000</ele>
        <time>2009-07-31T10:23:43Z</time>
      </trkpt>
      <trkpt lat="43.40485120" lon="12.99830620">
        <ele>679.00000</ele>
        <time>2009-07-31T10:23:43Z</time>
      </trkpt>
      <trkpt lat="43.40485320" lon="12.99830750">
        <ele>679.00000</ele>
        <time>2009-07-31T10:23:43Z</time>
      </trkpt>
      <trkpt lat="43.40485690" lon="12.99830770">
        <ele>679.00000</ele>
        <time>2009-07-31T10:23:43Z</time>
      </trkpt>
      <trkpt lat="43.40485990" lon="12.99830970">
        <ele>679.00000</ele>
        <time>2009-07-31T10:23:43Z</time>
      </trkpt>
      <trkpt lat="43.40486190" lon="12.99831130">
        <ele>679.00000</ele>
        <time>2009-07-31T10:23:43Z</time>
      </trkpt>
      <trkpt lat="43.40486310" lon="12.99831180">
        <ele>679.00000</ele>
        <time>2009-07-31T10:23:43Z</time>
      </trkpt>
      <trkpt lat="43.40486340" lon="12.99831310">
        <ele>679.00000</ele>
        <time>2009-07-31T10:23:43Z</time>
      </trkpt>
      <trkpt lat="43.40485140" lon="12.99832450">
        <ele>679.00000</ele>
        <time>2009-07-31T10:23:44Z</time>
      </trkpt>
      <trkpt lat="43.40486220" lon="12.99831670">
        <ele>679.00000</ele>
        <time>2009-07-31T10:23:44Z</time>
      </trkpt>
      <trkpt lat="43.40486300" lon="12.99830930">
        <ele>679.00000</ele>
        <time>2009-07-31T10:23:45Z</time>
      </trkpt>
      <trkpt lat="43.40486350" lon="12.99830580">
        <ele>679.00000</ele>
        <time>2009-07-31T10:23:45Z</time>
      </trkpt>
      <trkpt lat="43.40486200" lon="12.99830310">
        <ele>679.00000</ele>
        <time>2009-07-31T10:23:45Z</time>
      </trkpt>
      <trkpt lat="43.40486110" lon="12.99830240">
        <ele>679.00000</ele>
        <time>2009-07-31T10:23:45Z</time>
      </trkpt>
      <trkpt lat="43.40485990" lon="12.99830170">
        <ele>679.00000</ele>
        <time>2009-07-31T10:23:45Z</time>
      </trkpt>
      <trkpt lat="43.40486630" lon="12.99827360">
        <ele>679.00000</ele>
        <time>2009-07-31T10:23:46Z</time>
      </trkpt>
      <trkpt lat="43.40487520" lon="12.99827450">
        <ele>679.00000</ele>
        <time>2009-07-31T10:23:46Z</time>
      </trkpt>
      <trkpt lat="43.40488170" lon="12.99826810">
        <ele>679.00000</ele>
        <time>2009-07-31T10:23:46Z</time>
      </trkpt>
      <trkpt lat="43.40488240" lon="12.99826690">
        <ele>679.00000</ele>
        <time>2009-07-31T10:23:46Z</time>
      </trkpt>
      <trkpt lat="43.40488350" lon="12.99826550">
        <ele>679.00000</ele>
        <time>2009-07-31T10:23:47Z</time>
      </trkpt>
      <trkpt lat="43.40488630" lon="12.99826610">
        <ele>679.00000</ele>
        <time>2009-07-31T10:23:47Z</time>
      </trkpt>
      <trkpt lat="43.40488810" lon="12.99826390">
        <ele>679.00000</ele>
        <time>2009-07-31T10:23:47Z</time>
      </trkpt>
      <trkpt lat="43.40488950" lon="12.99826010">
        <ele>679.00000</ele>
        <time>2009-07-31T10:23:47Z</time>
      </trkpt>
      <trkpt lat="43.40489070" lon="12.99825760">
        <ele>679.00000</ele>
        <time>2009-07-31T10:23:47Z</time>
      </trkpt>
      <trkpt lat="43.40489240" lon="12.99825450">
        <ele>679.00000</ele>
        <time>2009-07-31T10:23:47Z</time>
      </trkpt>
      <trkpt lat="43.40489260" lon="12.99825520">
        <ele>679.00000</ele>
        <time>2009-07-31T10:23:47Z</time>
      </trkpt>
      <trkpt lat="43.40489140" lon="12.99825610">
        <ele>679.00000</ele>
        <time>2009-07-31T10:23:47Z</time>
      </trkpt>
      <trkpt lat="43.40488970" lon="12.99825950">
        <ele>679.00000</ele>
        <time>2009-07-31T10:23:47Z</time>
      </trkpt>
      <trkpt lat="43.40488690" lon="12.99826300">
        <ele>679.00000</ele>
        <time>2009-07-31T10:23:47Z</time>
      </trkpt>
      <trkpt lat="43.40488450" lon="12.99826560">
        <ele>679.00000</ele>
        <time>2009-07-31T10:23:48Z</time>
      </trkpt>
      <trkpt lat="43.40488270" lon="12.99826740">
        <ele>679.00000</ele>
        <time>2009-07-31T10:23:48Z</time>
      </trkpt>
      <trkpt lat="43.40488220" lon="12.99826820">
        <ele>679.00000</ele>
        <time>2009-07-31T10:23:48Z</time>
      </trkpt>
      <trkpt lat="43.40488480" lon="12.99826680">
        <ele>679.00000</ele>
        <time>2009-07-31T10:23:48Z</time>
      </trkpt>
      <trkpt lat="43.40485780" lon="12.99829330">
        <ele>679.00000</ele>
        <time>2009-07-31T10:23:49Z</time>
      </trkpt>
      <trkpt lat="43.40485200" lon="12.99830040">
        <ele>679.00000</ele>
        <time>2009-07-31T10:23:49Z</time>
      </trkpt>
      <trkpt lat="43.40485000" lon="12.99830270">
        <ele>679.00000</ele>
        <time>2009-07-31T10:23:50Z</time>
      </trkpt>
      <trkpt lat="43.40485040" lon="12.99830400">
        <ele>679.00000</ele>
        <time>2009-07-31T10:23:50Z</time>
      </trkpt>
      <trkpt lat="43.40484920" lon="12.99830380">
        <ele>679.00000</ele>
        <time>2009-07-31T10:23:50Z</time>
      </trkpt>
      <trkpt lat="43.40484850" lon="12.99830170">
        <ele>679.00000</ele>
        <time>2009-07-31T10:23:50Z</time>
      </trkpt>
      <trkpt lat="43.40484020" lon="12.99830130">
        <ele>679.00000</ele>
        <time>2009-07-31T10:23:50Z</time>
      </trkpt>
      <trkpt lat="43.40484030" lon="12.99828660">
        <ele>679.00000</ele>
        <time>2009-07-31T10:23:50Z</time>
      </trkpt>
      <trkpt lat="43.40483810" lon="12.99827730">
        <ele>679.00000</ele>
        <time>2009-07-31T10:23:51Z</time>
      </trkpt>
      <trkpt lat="43.40483460" lon="12.99827550">
        <ele>679.00000</ele>
        <time>2009-07-31T10:23:51Z</time>
      </trkpt>
      <trkpt lat="43.40482930" lon="12.99825480">
        <ele>679.00000</ele>
        <time>2009-07-31T10:23:52Z</time>
      </trkpt>
      <trkpt lat="43.40482000" lon="12.99823070">
        <ele>679.00000</ele>
        <time>2009-07-31T10:23:52Z</time>
      </trkpt>
      <trkpt lat="43.40483070" lon="12.99818470">
        <ele>679.00000</ele>
        <time>2009-07-31T10:23:54Z</time>
      </trkpt>
      <trkpt lat="43.40482530" lon="12.99815380">
        <ele>679.00000</ele>
        <time>2009-07-31T10:23:55Z</time>
      </trkpt>
      <trkpt lat="43.40481770" lon="12.99811920">
        <ele>679.00000</ele>
        <time>2009-07-31T10:23:56Z</time>
      </trkpt>
      <trkpt lat="43.40480400" lon="12.99809170">
        <ele>679.00000</ele>
        <time>2009-07-31T10:23:57Z</time>
      </trkpt>
      <trkpt lat="43.40480230" lon="12.99804880">
        <ele>679.00000</ele>
        <time>2009-07-31T10:23:58Z</time>
      </trkpt>
      <trkpt lat="43.40478770" lon="12.99802100">
        <ele>679.00000</ele>
        <time>2009-07-31T10:23:59Z</time>
      </trkpt>
      <trkpt lat="43.40476870" lon="12.99798630">
        <ele>679.00000</ele>
        <time>2009-07-31T10:24:00Z</time>
      </trkpt>
      <trkpt lat="43.40475990" lon="12.99795580">
        <ele>679.00000</ele>
        <time>2009-07-31T10:24:01Z</time>
      </trkpt>
      <trkpt lat="43.40475860" lon="12.99793080">
        <ele>679.00000</ele>
        <time>2009-07-31T10:24:02Z</time>
      </trkpt>
      <trkpt lat="43.40476110" lon="12.99791000">
        <ele>674.00000</ele>
        <time>2009-07-31T10:24:02Z</time>
      </trkpt>
      <trkpt lat="43.40477110" lon="12.99787650">
        <ele>674.00000</ele>
        <time>2009-07-31T10:24:04Z</time>
      </trkpt>
      <trkpt lat="43.40475580" lon="12.99784200">
        <ele>674.00000</ele>
        <time>2009-07-31T10:24:05Z</time>
      </trkpt>
      <trkpt lat="43.40471730" lon="12.99785360">
        <ele>674.00000</ele>
        <time>2009-07-31T10:24:06Z</time>
      </trkpt>
      <trkpt lat="43.40470030" lon="12.99783450">
        <ele>674.00000</ele>
        <time>2009-07-31T10:24:07Z</time>
      </trkpt>
      <trkpt lat="43.40468120" lon="12.99783060">
        <ele>674.00000</ele>
        <time>2009-07-31T10:24:08Z</time>
      </trkpt>
      <trkpt lat="43.40465960" lon="12.99784500">
        <ele>674.00000</ele>
        <time>2009-07-31T10:24:09Z</time>
      </trkpt>
      <trkpt lat="43.40463870" lon="12.99784320">
        <ele>674.00000</ele>
        <time>2009-07-31T10:24:10Z</time>
      </trkpt>
      <trkpt lat="43.40461700" lon="12.99784140">
        <ele>674.00000</ele>
        <time>2009-07-31T10:24:11Z</time>
      </trkpt>
      <trkpt lat="43.40459080" lon="12.99782780">
        <ele>674.00000</ele>
        <time>2009-07-31T10:24:12Z</time>
      </trkpt>
      <trkpt lat="43.40456410" lon="12.99781930">
        <ele>675.00000</ele>
        <time>2009-07-31T10:24:13Z</time>
      </trkpt>
      <trkpt lat="43.40452910" lon="12.99782410">
        <ele>675.00000</ele>
        <time>2009-07-31T10:24:14Z</time>
      </trkpt>
      <trkpt lat="43.40449370" lon="12.99784750">
        <ele>675.00000</ele>
        <time>2009-07-31T10:24:16Z</time>
      </trkpt>
      <trkpt lat="43.40445950" lon="12.99786010">
        <ele>675.00000</ele>
        <time>2009-07-31T10:24:17Z</time>
      </trkpt>
      <trkpt lat="43.40442660" lon="12.99787520">
        <ele>675.00000</ele>
        <time>2009-07-31T10:24:19Z</time>
      </trkpt>
      <trkpt lat="43.40440310" lon="12.99788230">
        <ele>675.00000</ele>
        <time>2009-07-31T10:24:20Z</time>
      </trkpt>
      <trkpt lat="43.40438330" lon="12.99787890">
        <ele>675.00000</ele>
        <time>2009-07-31T10:24:20Z</time>
      </trkpt>
      <trkpt lat="43.40436050" lon="12.99787890">
        <ele>675.00000</ele>
        <time>2009-07-31T10:24:21Z</time>
      </trkpt>
      <trkpt lat="43.40433580" lon="12.99788100">
        <ele>675.00000</ele>
        <time>2009-07-31T10:24:22Z</time>
      </trkpt>
      <trkpt lat="43.40430920" lon="12.99788940">
        <ele>675.00000</ele>
        <time>2009-07-31T10:24:23Z</time>
      </trkpt>
      <trkpt lat="43.40429970" lon="12.99789360">
        <ele>675.00000</ele>
        <time>2009-07-31T10:24:24Z</time>
      </trkpt>
      <trkpt lat="43.40427460" lon="12.99789980">
        <ele>675.00000</ele>
        <time>2009-07-31T10:24:25Z</time>
      </trkpt>
      <trkpt lat="43.40424880" lon="12.99791000">
        <ele>675.00000</ele>
        <time>2009-07-31T10:24:26Z</time>
      </trkpt>
      <trkpt lat="43.40422080" lon="12.99791170">
        <ele>675.00000</ele>
        <time>2009-07-31T10:24:27Z</time>
      </trkpt>
      <trkpt lat="43.40420910" lon="12.99792710">
        <ele>681.00000</ele>
        <time>2009-07-31T10:24:28Z</time>
      </trkpt>
      <trkpt lat="43.40417860" lon="12.99793510">
        <ele>681.00000</ele>
        <time>2009-07-31T10:24:29Z</time>
      </trkpt>
      <trkpt lat="43.40413840" lon="12.99795690">
        <ele>681.00000</ele>
        <time>2009-07-31T10:24:31Z</time>
      </trkpt>
      <trkpt lat="43.40410900" lon="12.99796900">
        <ele>681.00000</ele>
        <time>2009-07-31T10:24:32Z</time>
      </trkpt>
      <trkpt lat="43.40408530" lon="12.99796960">
        <ele>681.00000</ele>
        <time>2009-07-31T10:24:33Z</time>
      </trkpt>
      <trkpt lat="43.40406500" lon="12.99796810">
        <ele>681.00000</ele>
        <time>2009-07-31T10:24:34Z</time>
      </trkpt>
      <trkpt lat="43.40403580" lon="12.99795380">
        <ele>681.00000</ele>
        <time>2009-07-31T10:24:35Z</time>
      </trkpt>
      <trkpt lat="43.40401020" lon="12.99795440">
        <ele>681.00000</ele>
        <time>2009-07-31T10:24:36Z</time>
      </trkpt>
      <trkpt lat="43.40397550" lon="12.99796170">
        <ele>681.00000</ele>
        <time>2009-07-31T10:24:37Z</time>
      </trkpt>
      <trkpt lat="43.40395560" lon="12.99796950">
        <ele>681.00000</ele>
        <time>2009-07-31T10:24:38Z</time>
      </trkpt>
      <trkpt lat="43.40392980" lon="12.99797050">
        <ele>681.00000</ele>
        <time>2009-07-31T10:24:39Z</time>
      </trkpt>
      <trkpt lat="43.40390480" lon="12.99797490">
        <ele>681.00000</ele>
        <time>2009-07-31T10:24:40Z</time>
      </trkpt>
      <trkpt lat="43.40388580" lon="12.99798340">
        <ele>681.00000</ele>
        <time>2009-07-31T10:24:41Z</time>
      </trkpt>
      <trkpt lat="43.40385450" lon="12.99800460">
        <ele>681.00000</ele>
        <time>2009-07-31T10:24:42Z</time>
      </trkpt>
      <trkpt lat="43.40383260" lon="12.99800740">
        <ele>681.00000</ele>
        <time>2009-07-31T10:24:43Z</time>
      </trkpt>
      <trkpt lat="43.40379100" lon="12.99804740">
        <ele>681.00000</ele>
        <time>2009-07-31T10:24:45Z</time>
      </trkpt>
      <trkpt lat="43.40377950" lon="12.99806100">
        <ele>681.00000</ele>
        <time>2009-07-31T10:24:46Z</time>
      </trkpt>
      <trkpt lat="43.40375450" lon="12.99808890">
        <ele>681.00000</ele>
        <time>2009-07-31T10:24:47Z</time>
      </trkpt>
      <trkpt lat="43.40372700" lon="12.99811860">
        <ele>677.00000</ele>
        <time>2009-07-31T10:24:49Z</time>
      </trkpt>
      <trkpt lat="43.40370520" lon="12.99814380">
        <ele>677.00000</ele>
        <time>2009-07-31T10:24:50Z</time>
      </trkpt>
      <trkpt lat="43.40369120" lon="12.99815930">
        <ele>677.00000</ele>
        <time>2009-07-31T10:24:50Z</time>
      </trkpt>
      <trkpt lat="43.40366900" lon="12.99819530">
        <ele>677.00000</ele>
        <time>2009-07-31T10:24:52Z</time>
      </trkpt>
      <trkpt lat="43.40364920" lon="12.99822070">
        <ele>677.00000</ele>
        <time>2009-07-31T10:24:53Z</time>
      </trkpt>
      <trkpt lat="43.40361990" lon="12.99825260">
        <ele>677.00000</ele>
        <time>2009-07-31T10:24:54Z</time>
      </trkpt>
      <trkpt lat="43.40359620" lon="12.99827650">
        <ele>677.00000</ele>
        <time>2009-07-31T10:24:56Z</time>
      </trkpt>
      <trkpt lat="43.40358590" lon="12.99829480">
        <ele>677.00000</ele>
        <time>2009-07-31T10:24:56Z</time>
      </trkpt>
      <trkpt lat="43.40355250" lon="12.99832680">
        <ele>677.00000</ele>
        <time>2009-07-31T10:24:58Z</time>
      </trkpt>
      <trkpt lat="43.40353000" lon="12.99835600">
        <ele>677.00000</ele>
        <time>2009-07-31T10:24:59Z</time>
      </trkpt>
      <trkpt lat="43.40351240" lon="12.99837680">
        <ele>677.00000</ele>
        <time>2009-07-31T10:25:00Z</time>
      </trkpt>
      <trkpt lat="43.40349020" lon="12.99840200">
        <ele>677.00000</ele>
        <time>2009-07-31T10:25:01Z</time>
      </trkpt>
      <trkpt lat="43.40348140" lon="12.99842260">
        <ele>677.00000</ele>
        <time>2009-07-31T10:25:02Z</time>
      </trkpt>
      <trkpt lat="43.40346590" lon="12.99845330">
        <ele>677.00000</ele>
        <time>2009-07-31T10:25:03Z</time>
      </trkpt>
      <trkpt lat="43.40345530" lon="12.99849250">
        <ele>677.00000</ele>
        <time>2009-07-31T10:25:04Z</time>
      </trkpt>
      <trkpt lat="43.40346790" lon="12.99850940">
        <ele>677.00000</ele>
        <time>2009-07-31T10:25:05Z</time>
      </trkpt>
      <trkpt lat="43.40347100" lon="12.99855000">
        <ele>677.00000</ele>
        <time>2009-07-31T10:25:06Z</time>
      </trkpt>
      <trkpt lat="43.40347880" lon="12.99858740">
        <ele>677.00000</ele>
        <time>2009-07-31T10:25:07Z</time>
      </trkpt>
      <trkpt lat="43.40347840" lon="12.99861260">
        <ele>677.00000</ele>
        <time>2009-07-31T10:25:08Z</time>
      </trkpt>
      <trkpt lat="43.40347160" lon="12.99864330">
        <ele>677.00000</ele>
        <time>2009-07-31T10:25:09Z</time>
      </trkpt>
      <trkpt lat="43.40348190" lon="12.99868650">
        <ele>677.00000</ele>
        <time>2009-07-31T10:25:10Z</time>
      </trkpt>
      <trkpt lat="43.40348420" lon="12.99872020">
        <ele>677.00000</ele>
        <time>2009-07-31T10:25:11Z</time>
      </trkpt>
      <trkpt lat="43.40349190" lon="12.99874720">
        <ele>677.00000</ele>
        <time>2009-07-31T10:25:12Z</time>
      </trkpt>
      <trkpt lat="43.40349560" lon="12.99877510">
        <ele>684.00000</ele>
        <time>2009-07-31T10:25:13Z</time>
      </trkpt>
      <trkpt lat="43.40350290" lon="12.99881030">
        <ele>684.00000</ele>
        <time>2009-07-31T10:25:14Z</time>
      </trkpt>
      <trkpt lat="43.40350630" lon="12.99884120">
        <ele>684.00000</ele>
        <time>2009-07-31T10:25:15Z</time>
      </trkpt>
      <trkpt lat="43.40351940" lon="12.99887240">
        <ele>684.00000</ele>
        <time>2009-07-31T10:25:16Z</time>
      </trkpt>
      <trkpt lat="43.40353100" lon="12.99891860">
        <ele>684.00000</ele>
        <time>2009-07-31T10:25:17Z</time>
      </trkpt>
      <trkpt lat="43.40354400" lon="12.99894490">
        <ele>684.00000</ele>
        <time>2009-07-31T10:25:18Z</time>
      </trkpt>
      <trkpt lat="43.40356570" lon="12.99897510">
        <ele>684.00000</ele>
        <time>2009-07-31T10:25:19Z</time>
      </trkpt>
      <trkpt lat="43.40359290" lon="12.99900360">
        <ele>684.00000</ele>
        <time>2009-07-31T10:25:21Z</time>
      </trkpt>
      <trkpt lat="43.40360690" lon="12.99904080">
        <ele>684.00000</ele>
        <time>2009-07-31T10:25:22Z</time>
      </trkpt>
      <trkpt lat="43.40362210" lon="12.99907690">
        <ele>684.00000</ele>
        <time>2009-07-31T10:25:23Z</time>
      </trkpt>
      <trkpt lat="43.40363270" lon="12.99911300">
        <ele>684.00000</ele>
        <time>2009-07-31T10:25:24Z</time>
      </trkpt>
      <trkpt lat="43.40363790" lon="12.99915280">
        <ele>684.00000</ele>
        <time>2009-07-31T10:25:26Z</time>
      </trkpt>
      <trkpt lat="43.40364920" lon="12.99918660">
        <ele>684.00000</ele>
        <time>2009-07-31T10:25:27Z</time>
      </trkpt>
      <trkpt lat="43.40366110" lon="12.99923050">
        <ele>684.00000</ele>
        <time>2009-07-31T10:25:28Z</time>
      </trkpt>
      <trkpt lat="43.40366980" lon="12.99927380">
        <ele>684.00000</ele>
        <time>2009-07-31T10:25:29Z</time>
      </trkpt>
      <trkpt lat="43.40367930" lon="12.99930550">
        <ele>684.00000</ele>
        <time>2009-07-31T10:25:30Z</time>
      </trkpt>
      <trkpt lat="43.40369230" lon="12.99933530">
        <ele>684.00000</ele>
        <time>2009-07-31T10:25:31Z</time>
      </trkpt>
      <trkpt lat="43.40370180" lon="12.99937690">
        <ele>684.00000</ele>
        <time>2009-07-31T10:25:33Z</time>
      </trkpt>
      <trkpt lat="43.40371030" lon="12.99941670">
        <ele>684.00000</ele>
        <time>2009-07-31T10:25:34Z</time>
      </trkpt>
      <trkpt lat="43.40373810" lon="12.99943770">
        <ele>684.00000</ele>
        <time>2009-07-31T10:25:35Z</time>
      </trkpt>
      <trkpt lat="43.40373250" lon="12.99947490">
        <ele>684.00000</ele>
        <time>2009-07-31T10:25:36Z</time>
      </trkpt>
      <trkpt lat="43.40372750" lon="12.99952200">
        <ele>684.00000</ele>
        <time>2009-07-31T10:25:38Z</time>
      </trkpt>
      <trkpt lat="43.40372870" lon="12.99956390">
        <ele>684.00000</ele>
        <time>2009-07-31T10:25:39Z</time>
      </trkpt>
      <trkpt lat="43.40373440" lon="12.99959750">
        <ele>686.00000</ele>
        <time>2009-07-31T10:25:40Z</time>
      </trkpt>
      <trkpt lat="43.40373800" lon="12.99963670">
        <ele>686.00000</ele>
        <time>2009-07-31T10:25:41Z</time>
      </trkpt>
      <trkpt lat="43.40371500" lon="12.99967110">
        <ele>686.00000</ele>
        <time>2009-07-31T10:25:42Z</time>
      </trkpt>
      <trkpt lat="43.40370720" lon="12.99971350">
        <ele>686.00000</ele>
        <time>2009-07-31T10:25:44Z</time>
      </trkpt>
      <trkpt lat="43.40369640" lon="12.99974210">
        <ele>686.00000</ele>
        <time>2009-07-31T10:25:44Z</time>
      </trkpt>
      <trkpt lat="43.40366270" lon="12.99978130">
        <ele>686.00000</ele>
        <time>2009-07-31T10:25:46Z</time>
      </trkpt>
      <trkpt lat="43.40363000" lon="12.99982390">
        <ele>686.00000</ele>
        <time>2009-07-31T10:25:48Z</time>
      </trkpt>
      <trkpt lat="43.40360560" lon="12.99985240">
        <ele>686.00000</ele>
        <time>2009-07-31T10:25:49Z</time>
      </trkpt>
      <trkpt lat="43.40358420" lon="12.99986330">
        <ele>686.00000</ele>
        <time>2009-07-31T10:25:50Z</time>
      </trkpt>
      <trkpt lat="43.40355830" lon="12.99986290">
        <ele>686.00000</ele>
        <time>2009-07-31T10:25:51Z</time>
      </trkpt>
      <trkpt lat="43.40353530" lon="12.99986650">
        <ele>686.00000</ele>
        <time>2009-07-31T10:25:52Z</time>
      </trkpt>
      <trkpt lat="43.40351250" lon="12.99986820">
        <ele>686.00000</ele>
        <time>2009-07-31T10:25:53Z</time>
      </trkpt>
      <trkpt lat="43.40349120" lon="12.99986090">
        <ele>686.00000</ele>
        <time>2009-07-31T10:25:54Z</time>
      </trkpt>
      <trkpt lat="43.40347220" lon="12.99986340">
        <ele>686.00000</ele>
        <time>2009-07-31T10:25:55Z</time>
      </trkpt>
      <trkpt lat="43.40344990" lon="12.99986810">
        <ele>686.00000</ele>
        <time>2009-07-31T10:25:56Z</time>
      </trkpt>
      <trkpt lat="43.40341420" lon="12.99986680">
        <ele>686.00000</ele>
        <time>2009-07-31T10:25:57Z</time>
      </trkpt>
      <trkpt lat="43.40338650" lon="12.99988190">
        <ele>686.00000</ele>
        <time>2009-07-31T10:25:58Z</time>
      </trkpt>
      <trkpt lat="43.40337120" lon="12.99989260">
        <ele>686.00000</ele>
        <time>2009-07-31T10:25:59Z</time>
      </trkpt>
      <trkpt lat="43.40335150" lon="12.99988800">
        <ele>686.00000</ele>
        <time>2009-07-31T10:26:00Z</time>
      </trkpt>
      <trkpt lat="43.40331520" lon="12.99988710">
        <ele>686.00000</ele>
        <time>2009-07-31T10:26:01Z</time>
      </trkpt>
      <trkpt lat="43.40328830" lon="12.99987470">
        <ele>686.00000</ele>
        <time>2009-07-31T10:26:02Z</time>
      </trkpt>
      <trkpt lat="43.40326440" lon="12.99988350">
        <ele>686.00000</ele>
        <time>2009-07-31T10:26:03Z</time>
      </trkpt>
      <trkpt lat="43.40323770" lon="12.99990020">
        <ele>686.00000</ele>
        <time>2009-07-31T10:26:05Z</time>
      </trkpt>
      <trkpt lat="43.40320830" lon="12.99990220">
        <ele>686.00000</ele>
        <time>2009-07-31T10:26:06Z</time>
      </trkpt>
      <trkpt lat="43.40317550" lon="12.99991180">
        <ele>686.00000</ele>
        <time>2009-07-31T10:26:07Z</time>
      </trkpt>
      <trkpt lat="43.40314720" lon="12.99992420">
        <ele>686.00000</ele>
        <time>2009-07-31T10:26:08Z</time>
      </trkpt>
      <trkpt lat="43.40312560" lon="12.99992190">
        <ele>686.00000</ele>
        <time>2009-07-31T10:26:09Z</time>
      </trkpt>
      <trkpt lat="43.40310520" lon="12.99992530">
        <ele>686.00000</ele>
        <time>2009-07-31T10:26:10Z</time>
      </trkpt>
      <trkpt lat="43.40307970" lon="12.99993450">
        <ele>686.00000</ele>
        <time>2009-07-31T10:26:11Z</time>
      </trkpt>
      <trkpt lat="43.40305200" lon="12.99994740">
        <ele>686.00000</ele>
        <time>2009-07-31T10:26:12Z</time>
      </trkpt>
      <trkpt lat="43.40303270" lon="12.99993780">
        <ele>686.00000</ele>
        <time>2009-07-31T10:26:13Z</time>
      </trkpt>
      <trkpt lat="43.40300790" lon="12.99993740">
        <ele>686.00000</ele>
        <time>2009-07-31T10:26:14Z</time>
      </trkpt>
      <trkpt lat="43.40298410" lon="12.99993130">
        <ele>686.00000</ele>
        <time>2009-07-31T10:26:15Z</time>
      </trkpt>
      <trkpt lat="43.40295800" lon="12.99993660">
        <ele>686.00000</ele>
        <time>2009-07-31T10:26:16Z</time>
      </trkpt>
      <trkpt lat="43.40293690" lon="12.99994090">
        <ele>686.00000</ele>
        <time>2009-07-31T10:26:17Z</time>
      </trkpt>
      <trkpt lat="43.40289980" lon="12.99995920">
        <ele>692.00000</ele>
        <time>2009-07-31T10:26:18Z</time>
      </trkpt>
      <trkpt lat="43.40288090" lon="12.99995770">
        <ele>692.00000</ele>
        <time>2009-07-31T10:26:19Z</time>
      </trkpt>
      <trkpt lat="43.40284990" lon="12.99995510">
        <ele>692.00000</ele>
        <time>2009-07-31T10:26:20Z</time>
      </trkpt>
      <trkpt lat="43.40281830" lon="12.99995650">
        <ele>692.00000</ele>
        <time>2009-07-31T10:26:22Z</time>
      </trkpt>
      <trkpt lat="43.40278880" lon="12.99997370">
        <ele>692.00000</ele>
        <time>2009-07-31T10:26:23Z</time>
      </trkpt>
      <trkpt lat="43.40275590" lon="12.99997780">
        <ele>692.00000</ele>
        <time>2009-07-31T10:26:24Z</time>
      </trkpt>
      <trkpt lat="43.40273030" lon="12.99998690">
        <ele>692.00000</ele>
        <time>2009-07-31T10:26:25Z</time>
      </trkpt>
      <trkpt lat="43.40271030" lon="12.99999410">
        <ele>692.00000</ele>
        <time>2009-07-31T10:26:26Z</time>
      </trkpt>
      <trkpt lat="43.40268350" lon="12.99999720">
        <ele>692.00000</ele>
        <time>2009-07-31T10:26:27Z</time>
      </trkpt>
      <trkpt lat="43.40265030" lon="13.00000890">
        <ele>692.00000</ele>
        <time>2009-07-31T10:26:29Z</time>
      </trkpt>
      <trkpt lat="43.40261750" lon="13.00000860">
        <ele>692.00000</ele>
        <time>2009-07-31T10:26:30Z</time>
      </trkpt>
      <trkpt lat="43.40260080" lon="13.00000970">
        <ele>692.00000</ele>
        <time>2009-07-31T10:26:31Z</time>
      </trkpt>
      <trkpt lat="43.40257220" lon="13.00000030">
        <ele>692.00000</ele>
        <time>2009-07-31T10:26:32Z</time>
      </trkpt>
      <trkpt lat="43.40254610" lon="13.00000770">
        <ele>692.00000</ele>
        <time>2009-07-31T10:26:33Z</time>
      </trkpt>
      <trkpt lat="43.40252880" lon="13.00000310">
        <ele>692.00000</ele>
        <time>2009-07-31T10:26:34Z</time>
      </trkpt>
      <trkpt lat="43.40250370" lon="13.00000190">
        <ele>692.00000</ele>
        <time>2009-07-31T10:26:35Z</time>
      </trkpt>
      <trkpt lat="43.40247220" lon="13.00000710">
        <ele>692.00000</ele>
        <time>2009-07-31T10:26:36Z</time>
      </trkpt>
      <trkpt lat="43.40245920" lon="13.00000830">
        <ele>692.00000</ele>
        <time>2009-07-31T10:26:36Z</time>
      </trkpt>
      <trkpt lat="43.40243080" lon="13.00000430">
        <ele>692.00000</ele>
        <time>2009-07-31T10:26:37Z</time>
      </trkpt>
      <trkpt lat="43.40240290" lon="13.00000170">
        <ele>692.00000</ele>
        <time>2009-07-31T10:26:39Z</time>
      </trkpt>
      <trkpt lat="43.40239110" lon="12.99998920">
        <ele>692.00000</ele>
        <time>2009-07-31T10:26:39Z</time>
      </trkpt>
      <trkpt lat="43.40236490" lon="12.99999540">
        <ele>692.00000</ele>
        <time>2009-07-31T10:26:40Z</time>
      </trkpt>
      <trkpt lat="43.40234470" lon="12.99999500">
        <ele>692.00000</ele>
        <time>2009-07-31T10:26:41Z</time>
      </trkpt>
      <trkpt lat="43.40233100" lon="12.99998840">
        <ele>692.00000</ele>
        <time>2009-07-31T10:26:42Z</time>
      </trkpt>
      <trkpt lat="43.40230650" lon="12.99998630">
        <ele>692.00000</ele>
        <time>2009-07-31T10:26:43Z</time>
      </trkpt>
      <trkpt lat="43.40228580" lon="12.99999190">
        <ele>692.00000</ele>
        <time>2009-07-31T10:26:43Z</time>
      </trkpt>
      <trkpt lat="43.40227010" lon="12.99997210">
        <ele>692.00000</ele>
        <time>2009-07-31T10:26:44Z</time>
      </trkpt>
      <trkpt lat="43.40223860" lon="12.99996640">
        <ele>692.00000</ele>
        <time>2009-07-31T10:26:46Z</time>
      </trkpt>
      <trkpt lat="43.40220910" lon="12.99998080">
        <ele>692.00000</ele>
        <time>2009-07-31T10:26:47Z</time>
      </trkpt>
      <trkpt lat="43.40218930" lon="12.99997150">
        <ele>692.00000</ele>
        <time>2009-07-31T10:26:48Z</time>
      </trkpt>
      <trkpt lat="43.40216190" lon="12.99997150">
        <ele>692.00000</ele>
        <time>2009-07-31T10:26:49Z</time>
      </trkpt>
      <trkpt lat="43.40214380" lon="12.99996840">
        <ele>692.00000</ele>
        <time>2009-07-31T10:26:50Z</time>
      </trkpt>
      <trkpt lat="43.40210910" lon="12.99996970">
        <ele>692.00000</ele>
        <time>2009-07-31T10:26:51Z</time>
      </trkpt>
      <trkpt lat="43.40208730" lon="12.99997620">
        <ele>692.00000</ele>
        <time>2009-07-31T10:26:52Z</time>
      </trkpt>
      <trkpt lat="43.40207870" lon="12.99996740">
        <ele>701.00000</ele>
        <time>2009-07-31T10:26:52Z</time>
      </trkpt>
      <trkpt lat="43.40205160" lon="12.99997920">
        <ele>701.00000</ele>
        <time>2009-07-31T10:26:53Z</time>
      </trkpt>
      <trkpt lat="43.40202530" lon="12.99999450">
        <ele>701.00000</ele>
        <time>2009-07-31T10:26:55Z</time>
      </trkpt>
      <trkpt lat="43.40200890" lon="12.99998800">
        <ele>701.00000</ele>
        <time>2009-07-31T10:26:55Z</time>
      </trkpt>
      <trkpt lat="43.40198810" lon="12.99998630">
        <ele>701.00000</ele>
        <time>2009-07-31T10:26:56Z</time>
      </trkpt>
      <trkpt lat="43.40196860" lon="12.99997790">
        <ele>701.00000</ele>
        <time>2009-07-31T10:26:57Z</time>
      </trkpt>
      <trkpt lat="43.40194540" lon="12.99997510">
        <ele>701.00000</ele>
        <time>2009-07-31T10:26:58Z</time>
      </trkpt>
      <trkpt lat="43.40191780" lon="12.99998220">
        <ele>701.00000</ele>
        <time>2009-07-31T10:26:59Z</time>
      </trkpt>
      <trkpt lat="43.40190250" lon="12.99997280">
        <ele>701.00000</ele>
        <time>2009-07-31T10:27:00Z</time>
      </trkpt>
      <trkpt lat="43.40187740" lon="12.99997660">
        <ele>701.00000</ele>
        <time>2009-07-31T10:27:01Z</time>
      </trkpt>
      <trkpt lat="43.40185880" lon="12.99997580">
        <ele>701.00000</ele>
        <time>2009-07-31T10:27:01Z</time>
      </trkpt>
      <trkpt lat="43.40184400" lon="12.99997290">
        <ele>701.00000</ele>
        <time>2009-07-31T10:27:02Z</time>
      </trkpt>
      <trkpt lat="43.40181220" lon="12.99998520">
        <ele>701.00000</ele>
        <time>2009-07-31T10:27:03Z</time>
      </trkpt>
      <trkpt lat="43.40177510" lon="12.99999730">
        <ele>701.00000</ele>
        <time>2009-07-31T10:27:05Z</time>
      </trkpt>
      <trkpt lat="43.40175200" lon="13.00000780">
        <ele>701.00000</ele>
        <time>2009-07-31T10:27:06Z</time>
      </trkpt>
      <trkpt lat="43.40172380" lon="13.00000920">
        <ele>701.00000</ele>
        <time>2009-07-31T10:27:07Z</time>
      </trkpt>
      <trkpt lat="43.40170310" lon="13.00000460">
        <ele>701.00000</ele>
        <time>2009-07-31T10:27:08Z</time>
      </trkpt>
      <trkpt lat="43.40167950" lon="13.00000740">
        <ele>701.00000</ele>
        <time>2009-07-31T10:27:09Z</time>
      </trkpt>
      <trkpt lat="43.40165100" lon="13.00001070">
        <ele>701.00000</ele>
        <time>2009-07-31T10:27:10Z</time>
      </trkpt>
      <trkpt lat="43.40163540" lon="13.00000590">
        <ele>701.00000</ele>
        <time>2009-07-31T10:27:10Z</time>
      </trkpt>
      <trkpt lat="43.40161090" lon="12.99999990">
        <ele>701.00000</ele>
        <time>2009-07-31T10:27:11Z</time>
      </trkpt>
      <trkpt lat="43.40158340" lon="13.00001000">
        <ele>701.00000</ele>
        <time>2009-07-31T10:27:13Z</time>
      </trkpt>
      <trkpt lat="43.40156070" lon="12.99999930">
        <ele>701.00000</ele>
        <time>2009-07-31T10:27:14Z</time>
      </trkpt>
      <trkpt lat="43.40154080" lon="12.99999430">
        <ele>701.00000</ele>
        <time>2009-07-31T10:27:14Z</time>
      </trkpt>
      <trkpt lat="43.40151290" lon="12.99999280">
        <ele>701.00000</ele>
        <time>2009-07-31T10:27:15Z</time>
      </trkpt>
      <trkpt lat="43.40149570" lon="12.99999790">
        <ele>701.00000</ele>
        <time>2009-07-31T10:27:16Z</time>
      </trkpt>
      <trkpt lat="43.40148120" lon="12.99999710">
        <ele>701.00000</ele>
        <time>2009-07-31T10:27:17Z</time>
      </trkpt>
      <trkpt lat="43.40146080" lon="12.99998960">
        <ele>701.00000</ele>
        <time>2009-07-31T10:27:18Z</time>
      </trkpt>
      <trkpt lat="43.40144300" lon="12.99997960">
        <ele>701.00000</ele>
        <time>2009-07-31T10:27:18Z</time>
      </trkpt>
      <trkpt lat="43.40141610" lon="12.99997660">
        <ele>701.00000</ele>
        <time>2009-07-31T10:27:19Z</time>
      </trkpt>
      <trkpt lat="43.40139570" lon="12.99997410">
        <ele>701.00000</ele>
        <time>2009-07-31T10:27:20Z</time>
      </trkpt>
      <trkpt lat="43.40138330" lon="12.99996750">
        <ele>701.00000</ele>
        <time>2009-07-31T10:27:21Z</time>
      </trkpt>
      <trkpt lat="43.40135440" lon="12.99995300">
        <ele>701.00000</ele>
        <time>2009-07-31T10:27:22Z</time>
      </trkpt>
      <trkpt lat="43.40133280" lon="12.99994390">
        <ele>701.00000</ele>
        <time>2009-07-31T10:27:23Z</time>
      </trkpt>
      <trkpt lat="43.40130750" lon="12.99994580">
        <ele>701.00000</ele>
        <time>2009-07-31T10:27:24Z</time>
      </trkpt>
      <trkpt lat="43.40127380" lon="12.99994600">
        <ele>701.00000</ele>
        <time>2009-07-31T10:27:25Z</time>
      </trkpt>
      <trkpt lat="43.40125100" lon="12.99994610">
        <ele>701.00000</ele>
        <time>2009-07-31T10:27:26Z</time>
      </trkpt>
      <trkpt lat="43.40122820" lon="12.99994610">
        <ele>711.00000</ele>
        <time>2009-07-31T10:27:27Z</time>
      </trkpt>
      <trkpt lat="43.40120840" lon="12.99993260">
        <ele>711.00000</ele>
        <time>2009-07-31T10:27:28Z</time>
      </trkpt>
      <trkpt lat="43.40118850" lon="12.99992240">
        <ele>711.00000</ele>
        <time>2009-07-31T10:27:29Z</time>
      </trkpt>
      <trkpt lat="43.40118190" lon="12.99990990">
        <ele>711.00000</ele>
        <time>2009-07-31T10:27:29Z</time>
      </trkpt>
      <trkpt lat="43.40117540" lon="12.99990370">
        <ele>711.00000</ele>
        <time>2009-07-31T10:27:30Z</time>
      </trkpt>
      <trkpt lat="43.40115070" lon="12.99990070">
        <ele>711.00000</ele>
        <time>2009-07-31T10:27:31Z</time>
      </trkpt>
      <trkpt lat="43.40112530" lon="12.99988410">
        <ele>711.00000</ele>
        <time>2009-07-31T10:27:32Z</time>
      </trkpt>
      <trkpt lat="43.40109740" lon="12.99986800">
        <ele>711.00000</ele>
        <time>2009-07-31T10:27:33Z</time>
      </trkpt>
      <trkpt lat="43.40108040" lon="12.99986280">
        <ele>711.00000</ele>
        <time>2009-07-31T10:27:34Z</time>
      </trkpt>
      <trkpt lat="43.40106360" lon="12.99984120">
        <ele>711.00000</ele>
        <time>2009-07-31T10:27:35Z</time>
      </trkpt>
      <trkpt lat="43.40104220" lon="12.99981490">
        <ele>711.00000</ele>
        <time>2009-07-31T10:27:36Z</time>
      </trkpt>
      <trkpt lat="43.40101730" lon="12.99980140">
        <ele>711.00000</ele>
        <time>2009-07-31T10:27:37Z</time>
      </trkpt>
      <trkpt lat="43.40100100" lon="12.99979510">
        <ele>711.00000</ele>
        <time>2009-07-31T10:27:37Z</time>
      </trkpt>
      <trkpt lat="43.40099330" lon="12.99979800">
        <ele>711.00000</ele>
        <time>2009-07-31T10:27:38Z</time>
      </trkpt>
      <trkpt lat="43.40097520" lon="12.99980730">
        <ele>711.00000</ele>
        <time>2009-07-31T10:27:39Z</time>
      </trkpt>
      <trkpt lat="43.40096560" lon="12.99980390">
        <ele>711.00000</ele>
        <time>2009-07-31T10:27:39Z</time>
      </trkpt>
      <trkpt lat="43.40096750" lon="12.99979750">
        <ele>711.00000</ele>
        <time>2009-07-31T10:27:39Z</time>
      </trkpt>
      <trkpt lat="43.40096480" lon="12.99979840">
        <ele>711.00000</ele>
        <time>2009-07-31T10:27:39Z</time>
      </trkpt>
      <trkpt lat="43.40096520" lon="12.99979730">
        <ele>711.00000</ele>
        <time>2009-07-31T10:27:39Z</time>
      </trkpt>
      <trkpt lat="43.40095580" lon="12.99978820">
        <ele>711.00000</ele>
        <time>2009-07-31T10:27:40Z</time>
      </trkpt>
      <trkpt lat="43.40092960" lon="12.99977730">
        <ele>711.00000</ele>
        <time>2009-07-31T10:27:41Z</time>
      </trkpt>
      <trkpt lat="43.40090840" lon="12.99975370">
        <ele>711.00000</ele>
        <time>2009-07-31T10:27:42Z</time>
      </trkpt>
      <trkpt lat="43.40087680" lon="12.99974080">
        <ele>711.00000</ele>
        <time>2009-07-31T10:27:43Z</time>
      </trkpt>
      <trkpt lat="43.40084530" lon="12.99973200">
        <ele>711.00000</ele>
        <time>2009-07-31T10:27:45Z</time>
      </trkpt>
      <trkpt lat="43.40082160" lon="12.99971740">
        <ele>711.00000</ele>
        <time>2009-07-31T10:27:46Z</time>
      </trkpt>
      <trkpt lat="43.40079790" lon="12.99970150">
        <ele>711.00000</ele>
        <time>2009-07-31T10:27:47Z</time>
      </trkpt>
      <trkpt lat="43.40076410" lon="12.99969720">
        <ele>711.00000</ele>
        <time>2009-07-31T10:27:48Z</time>
      </trkpt>
      <trkpt lat="43.40073340" lon="12.99968440">
        <ele>711.00000</ele>
        <time>2009-07-31T10:27:49Z</time>
      </trkpt>
      <trkpt lat="43.40070790" lon="12.99967480">
        <ele>711.00000</ele>
        <time>2009-07-31T10:27:50Z</time>
      </trkpt>
      <trkpt lat="43.40068350" lon="12.99966700">
        <ele>711.00000</ele>
        <time>2009-07-31T10:27:51Z</time>
      </trkpt>
      <trkpt lat="43.40065080" lon="12.99966100">
        <ele>711.00000</ele>
        <time>2009-07-31T10:27:53Z</time>
      </trkpt>
      <trkpt lat="43.40062570" lon="12.99965110">
        <ele>711.00000</ele>
        <time>2009-07-31T10:27:54Z</time>
      </trkpt>
      <trkpt lat="43.40059680" lon="12.99964690">
        <ele>711.00000</ele>
        <time>2009-07-31T10:27:55Z</time>
      </trkpt>
      <trkpt lat="43.40057220" lon="12.99963330">
        <ele>711.00000</ele>
        <time>2009-07-31T10:27:56Z</time>
      </trkpt>
      <trkpt lat="43.40054370" lon="12.99962140">
        <ele>711.00000</ele>
        <time>2009-07-31T10:27:57Z</time>
      </trkpt>
      <trkpt lat="43.40051310" lon="12.99959880">
        <ele>711.00000</ele>
        <time>2009-07-31T10:27:59Z</time>
      </trkpt>
      <trkpt lat="43.40048790" lon="12.99958160">
        <ele>701.00000</ele>
        <time>2009-07-31T10:28:00Z</time>
      </trkpt>
      <trkpt lat="43.40046000" lon="12.99957190">
        <ele>701.00000</ele>
        <time>2009-07-31T10:28:01Z</time>
      </trkpt>
      <trkpt lat="43.40043570" lon="12.99956750">
        <ele>701.00000</ele>
        <time>2009-07-31T10:28:02Z</time>
      </trkpt>
      <trkpt lat="43.40041070" lon="12.99955640">
        <ele>708.00000</ele>
        <time>2009-07-31T10:28:03Z</time>
      </trkpt>
      <trkpt lat="43.40038520" lon="12.99953650">
        <ele>708.00000</ele>
        <time>2009-07-31T10:28:04Z</time>
      </trkpt>
      <trkpt lat="43.40035110" lon="12.99951590">
        <ele>708.00000</ele>
        <time>2009-07-31T10:28:06Z</time>
      </trkpt>
      <trkpt lat="43.40031670" lon="12.99951180">
        <ele>708.00000</ele>
        <time>2009-07-31T10:28:07Z</time>
      </trkpt>
      <trkpt lat="43.40029230" lon="12.99950480">
        <ele>708.00000</ele>
        <time>2009-07-31T10:28:08Z</time>
      </trkpt>
      <trkpt lat="43.40027350" lon="12.99947880">
        <ele>708.00000</ele>
        <time>2009-07-31T10:28:09Z</time>
      </trkpt>
      <trkpt lat="43.40025090" lon="12.99944520">
        <ele>708.00000</ele>
        <time>2009-07-31T10:28:10Z</time>
      </trkpt>
      <trkpt lat="43.40022140" lon="12.99942760">
        <ele>708.00000</ele>
        <time>2009-07-31T10:28:12Z</time>
      </trkpt>
      <trkpt lat="43.40019840" lon="12.99941290">
        <ele>708.00000</ele>
        <time>2009-07-31T10:28:13Z</time>
      </trkpt>
      <trkpt lat="43.40017390" lon="12.99940760">
        <ele>708.00000</ele>
        <time>2009-07-31T10:28:14Z</time>
      </trkpt>
      <trkpt lat="43.40014160" lon="12.99940690">
        <ele>708.00000</ele>
        <time>2009-07-31T10:28:15Z</time>
      </trkpt>
      <trkpt lat="43.40011540" lon="12.99939150">
        <ele>708.00000</ele>
        <time>2009-07-31T10:28:16Z</time>
      </trkpt>
      <trkpt lat="43.40008480" lon="12.99937530">
        <ele>708.00000</ele>
        <time>2009-07-31T10:28:17Z</time>
      </trkpt>
      <trkpt lat="43.40004840" lon="12.99937210">
        <ele>708.00000</ele>
        <time>2009-07-31T10:28:19Z</time>
      </trkpt>
      <trkpt lat="43.40002230" lon="12.99936760">
        <ele>708.00000</ele>
        <time>2009-07-31T10:28:20Z</time>
      </trkpt>
      <trkpt lat="43.39999540" lon="12.99935920">
        <ele>708.00000</ele>
        <time>2009-07-31T10:28:21Z</time>
      </trkpt>
      <trkpt lat="43.39996630" lon="12.99934910">
        <ele>708.00000</ele>
        <time>2009-07-31T10:28:22Z</time>
      </trkpt>
      <trkpt lat="43.39993380" lon="12.99934040">
        <ele>708.00000</ele>
        <time>2009-07-31T10:28:23Z</time>
      </trkpt>
      <trkpt lat="43.39991850" lon="12.99931740">
        <ele>708.00000</ele>
        <time>2009-07-31T10:28:24Z</time>
      </trkpt>
      <trkpt lat="43.39989390" lon="12.99931120">
        <ele>708.00000</ele>
        <time>2009-07-31T10:28:25Z</time>
      </trkpt>
      <trkpt lat="43.39986870" lon="12.99930480">
        <ele>708.00000</ele>
        <time>2009-07-31T10:28:26Z</time>
      </trkpt>
      <trkpt lat="43.39983810" lon="12.99929480">
        <ele>708.00000</ele>
        <time>2009-07-31T10:28:28Z</time>
      </trkpt>
      <trkpt lat="43.39981470" lon="12.99927020">
        <ele>708.00000</ele>
        <time>2009-07-31T10:28:29Z</time>
      </trkpt>
      <trkpt lat="43.39978530" lon="12.99925750">
        <ele>708.00000</ele>
        <time>2009-07-31T10:28:30Z</time>
      </trkpt>
      <trkpt lat="43.39975890" lon="12.99924920">
        <ele>708.00000</ele>
        <time>2009-07-31T10:28:31Z</time>
      </trkpt>
      <trkpt lat="43.39972150" lon="12.99925000">
        <ele>708.00000</ele>
        <time>2009-07-31T10:28:33Z</time>
      </trkpt>
      <trkpt lat="43.39969050" lon="12.99923530">
        <ele>708.00000</ele>
        <time>2009-07-31T10:28:34Z</time>
      </trkpt>
      <trkpt lat="43.39964950" lon="12.99924120">
        <ele>708.00000</ele>
        <time>2009-07-31T10:28:36Z</time>
      </trkpt>
      <trkpt lat="43.39961590" lon="12.99924550">
        <ele>708.00000</ele>
        <time>2009-07-31T10:28:37Z</time>
      </trkpt>
      <trkpt lat="43.39959200" lon="12.99922830">
        <ele>708.00000</ele>
        <time>2009-07-31T10:28:38Z</time>
      </trkpt>
      <trkpt lat="43.39956250" lon="12.99922070">
        <ele>715.00000</ele>
        <time>2009-07-31T10:28:39Z</time>
      </trkpt>
      <trkpt lat="43.39954000" lon="12.99920840">
        <ele>715.00000</ele>
        <time>2009-07-31T10:28:40Z</time>
      </trkpt>
      <trkpt lat="43.39950960" lon="12.99919350">
        <ele>715.00000</ele>
        <time>2009-07-31T10:28:42Z</time>
      </trkpt>
      <trkpt lat="43.39948410" lon="12.99916910">
        <ele>715.00000</ele>
        <time>2009-07-31T10:28:43Z</time>
      </trkpt>
      <trkpt lat="43.39945060" lon="12.99916110">
        <ele>715.00000</ele>
        <time>2009-07-31T10:28:44Z</time>
      </trkpt>
      <trkpt lat="43.39941650" lon="12.99916000">
        <ele>715.00000</ele>
        <time>2009-07-31T10:28:45Z</time>
      </trkpt>
      <trkpt lat="43.39939890" lon="12.99913970">
        <ele>715.00000</ele>
        <time>2009-07-31T10:28:46Z</time>
      </trkpt>
      <trkpt lat="43.39936590" lon="12.99913390">
        <ele>715.00000</ele>
        <time>2009-07-31T10:28:48Z</time>
      </trkpt>
      <trkpt lat="43.39932680" lon="12.99913850">
        <ele>715.00000</ele>
        <time>2009-07-31T10:28:49Z</time>
      </trkpt>
      <trkpt lat="43.39928530" lon="12.99914370">
        <ele>715.00000</ele>
        <time>2009-07-31T10:28:51Z</time>
      </trkpt>
      <trkpt lat="43.39925440" lon="12.99913880">
        <ele>715.00000</ele>
        <time>2009-07-31T10:28:52Z</time>
      </trkpt>
      <trkpt lat="43.39923450" lon="12.99912420">
        <ele>715.00000</ele>
        <time>2009-07-31T10:28:53Z</time>
      </trkpt>
      <trkpt lat="43.39921120" lon="12.99911350">
        <ele>715.00000</ele>
        <time>2009-07-31T10:28:54Z</time>
      </trkpt>
      <trkpt lat="43.39918680" lon="12.99911140">
        <ele>715.00000</ele>
        <time>2009-07-31T10:28:55Z</time>
      </trkpt>
      <trkpt lat="43.39914550" lon="12.99911660">
        <ele>715.00000</ele>
        <time>2009-07-31T10:28:57Z</time>
      </trkpt>
      <trkpt lat="43.39911320" lon="12.99911220">
        <ele>715.00000</ele>
        <time>2009-07-31T10:28:58Z</time>
      </trkpt>
      <trkpt lat="43.39908320" lon="12.99909900">
        <ele>715.00000</ele>
        <time>2009-07-31T10:28:59Z</time>
      </trkpt>
      <trkpt lat="43.39905840" lon="12.99909870">
        <ele>715.00000</ele>
        <time>2009-07-31T10:29:00Z</time>
      </trkpt>
      <trkpt lat="43.39902820" lon="12.99909350">
        <ele>715.00000</ele>
        <time>2009-07-31T10:29:02Z</time>
      </trkpt>
      <trkpt lat="43.39899330" lon="12.99908450">
        <ele>715.00000</ele>
        <time>2009-07-31T10:29:03Z</time>
      </trkpt>
      <trkpt lat="43.39896160" lon="12.99908820">
        <ele>715.00000</ele>
        <time>2009-07-31T10:29:04Z</time>
      </trkpt>
      <trkpt lat="43.39893000" lon="12.99905910">
        <ele>715.00000</ele>
        <time>2009-07-31T10:29:06Z</time>
      </trkpt>
      <trkpt lat="43.39889430" lon="12.99907370">
        <ele>715.00000</ele>
        <time>2009-07-31T10:29:07Z</time>
      </trkpt>
      <trkpt lat="43.39886790" lon="12.99904600">
        <ele>715.00000</ele>
        <time>2009-07-31T10:29:09Z</time>
      </trkpt>
      <trkpt lat="43.39885460" lon="12.99900910">
        <ele>715.00000</ele>
        <time>2009-07-31T10:29:10Z</time>
      </trkpt>
      <trkpt lat="43.39883000" lon="12.99898670">
        <ele>715.00000</ele>
        <time>2009-07-31T10:29:11Z</time>
      </trkpt>
      <trkpt lat="43.39880400" lon="12.99896560">
        <ele>715.00000</ele>
        <time>2009-07-31T10:29:12Z</time>
      </trkpt>
      <trkpt lat="43.39875220" lon="12.99897060">
        <ele>715.00000</ele>
        <time>2009-07-31T10:29:14Z</time>
      </trkpt>
      <trkpt lat="43.39873020" lon="12.99894290">
        <ele>718.00000</ele>
        <time>2009-07-31T10:29:15Z</time>
      </trkpt>
      <trkpt lat="43.39870290" lon="12.99891560">
        <ele>718.00000</ele>
        <time>2009-07-31T10:29:17Z</time>
      </trkpt>
      <trkpt lat="43.39868300" lon="12.99889300">
        <ele>718.00000</ele>
        <time>2009-07-31T10:29:18Z</time>
      </trkpt>
      <trkpt lat="43.39866230" lon="12.99886280">
        <ele>718.00000</ele>
        <time>2009-07-31T10:29:19Z</time>
      </trkpt>
      <trkpt lat="43.39864050" lon="12.99883480">
        <ele>718.00000</ele>
        <time>2009-07-31T10:29:20Z</time>
      </trkpt>
      <trkpt lat="43.39861350" lon="12.99881410">
        <ele>718.00000</ele>
        <time>2009-07-31T10:29:21Z</time>
      </trkpt>
      <trkpt lat="43.39858940" lon="12.99879630">
        <ele>718.00000</ele>
        <time>2009-07-31T10:29:23Z</time>
      </trkpt>
      <trkpt lat="43.39857570" lon="12.99878150">
        <ele>718.00000</ele>
        <time>2009-07-31T10:29:23Z</time>
      </trkpt>
      <trkpt lat="43.39855100" lon="12.99876600">
        <ele>718.00000</ele>
        <time>2009-07-31T10:29:24Z</time>
      </trkpt>
      <trkpt lat="43.39851230" lon="12.99876340">
        <ele>718.00000</ele>
        <time>2009-07-31T10:29:26Z</time>
      </trkpt>
      <trkpt lat="43.39848210" lon="12.99876820">
        <ele>718.00000</ele>
        <time>2009-07-31T10:29:27Z</time>
      </trkpt>
      <trkpt lat="43.39845640" lon="12.99874650">
        <ele>708.00000</ele>
        <time>2009-07-31T10:29:28Z</time>
      </trkpt>
      <trkpt lat="43.39843660" lon="12.99872730">
        <ele>708.00000</ele>
        <time>2009-07-31T10:29:29Z</time>
      </trkpt>
      <trkpt lat="43.39841560" lon="12.99870460">
        <ele>708.00000</ele>
        <time>2009-07-31T10:29:30Z</time>
      </trkpt>
      <trkpt lat="43.39840090" lon="12.99867040">
        <ele>708.00000</ele>
        <time>2009-07-31T10:29:31Z</time>
      </trkpt>
      <trkpt lat="43.39837820" lon="12.99864530">
        <ele>708.00000</ele>
        <time>2009-07-31T10:29:33Z</time>
      </trkpt>
      <trkpt lat="43.39835960" lon="12.99862750">
        <ele>708.00000</ele>
        <time>2009-07-31T10:29:34Z</time>
      </trkpt>
      <trkpt lat="43.39833150" lon="12.99860870">
        <ele>708.00000</ele>
        <time>2009-07-31T10:29:35Z</time>
      </trkpt>
      <trkpt lat="43.39830630" lon="12.99859490">
        <ele>708.00000</ele>
        <time>2009-07-31T10:29:36Z</time>
      </trkpt>
      <trkpt lat="43.39828710" lon="12.99858430">
        <ele>708.00000</ele>
        <time>2009-07-31T10:29:37Z</time>
      </trkpt>
      <trkpt lat="43.39826270" lon="12.99856940">
        <ele>708.00000</ele>
        <time>2009-07-31T10:29:38Z</time>
      </trkpt>
      <trkpt lat="43.39822730" lon="12.99856520">
        <ele>708.00000</ele>
        <time>2009-07-31T10:29:39Z</time>
      </trkpt>
      <trkpt lat="43.39820960" lon="12.99854590">
        <ele>708.00000</ele>
        <time>2009-07-31T10:29:40Z</time>
      </trkpt>
      <trkpt lat="43.39818630" lon="12.99852420">
        <ele>708.00000</ele>
        <time>2009-07-31T10:29:41Z</time>
      </trkpt>
      <trkpt lat="43.39816130" lon="12.99851890">
        <ele>708.00000</ele>
        <time>2009-07-31T10:29:42Z</time>
      </trkpt>
      <trkpt lat="43.39814340" lon="12.99849780">
        <ele>708.00000</ele>
        <time>2009-07-31T10:29:43Z</time>
      </trkpt>
      <trkpt lat="43.39812430" lon="12.99848500">
        <ele>708.00000</ele>
        <time>2009-07-31T10:29:44Z</time>
      </trkpt>
      <trkpt lat="43.39809690" lon="12.99845920">
        <ele>708.00000</ele>
        <time>2009-07-31T10:29:45Z</time>
      </trkpt>
      <trkpt lat="43.39807890" lon="12.99843630">
        <ele>708.00000</ele>
        <time>2009-07-31T10:29:46Z</time>
      </trkpt>
      <trkpt lat="43.39803710" lon="12.99845040">
        <ele>708.00000</ele>
        <time>2009-07-31T10:29:48Z</time>
      </trkpt>
      <trkpt lat="43.39801420" lon="12.99843790">
        <ele>708.00000</ele>
        <time>2009-07-31T10:29:49Z</time>
      </trkpt>
      <trkpt lat="43.39800280" lon="12.99841610">
        <ele>708.00000</ele>
        <time>2009-07-31T10:29:50Z</time>
      </trkpt>
      <trkpt lat="43.39798240" lon="12.99839080">
        <ele>708.00000</ele>
        <time>2009-07-31T10:29:51Z</time>
      </trkpt>
      <trkpt lat="43.39795450" lon="12.99836830">
        <ele>708.00000</ele>
        <time>2009-07-31T10:29:52Z</time>
      </trkpt>
      <trkpt lat="43.39793410" lon="12.99833700">
        <ele>708.00000</ele>
        <time>2009-07-31T10:29:53Z</time>
      </trkpt>
      <trkpt lat="43.39787440" lon="12.99836030">
        <ele>711.00000</ele>
        <time>2009-07-31T10:29:56Z</time>
      </trkpt>
      <trkpt lat="43.39785960" lon="12.99833440">
        <ele>711.00000</ele>
        <time>2009-07-31T10:29:57Z</time>
      </trkpt>
      <trkpt lat="43.39782820" lon="12.99830870">
        <ele>711.00000</ele>
        <time>2009-07-31T10:29:58Z</time>
      </trkpt>
      <trkpt lat="43.39781470" lon="12.99826890">
        <ele>711.00000</ele>
        <time>2009-07-31T10:30:00Z</time>
      </trkpt>
      <trkpt lat="43.39778520" lon="12.99827090">
        <ele>711.00000</ele>
        <time>2009-07-31T10:30:01Z</time>
      </trkpt>
      <trkpt lat="43.39776400" lon="12.99824020">
        <ele>711.00000</ele>
        <time>2009-07-31T10:30:02Z</time>
      </trkpt>
      <trkpt lat="43.39774030" lon="12.99821800">
        <ele>711.00000</ele>
        <time>2009-07-31T10:30:03Z</time>
      </trkpt>
      <trkpt lat="43.39771480" lon="12.99819900">
        <ele>711.00000</ele>
        <time>2009-07-31T10:30:04Z</time>
      </trkpt>
      <trkpt lat="43.39766910" lon="12.99818840">
        <ele>711.00000</ele>
        <time>2009-07-31T10:30:06Z</time>
      </trkpt>
      <trkpt lat="43.39763840" lon="12.99820420">
        <ele>711.00000</ele>
        <time>2009-07-31T10:30:08Z</time>
      </trkpt>
      <trkpt lat="43.39761240" lon="12.99818710">
        <ele>711.00000</ele>
        <time>2009-07-31T10:30:09Z</time>
      </trkpt>
      <trkpt lat="43.39759740" lon="12.99817320">
        <ele>711.00000</ele>
        <time>2009-07-31T10:30:09Z</time>
      </trkpt>
      <trkpt lat="43.39757340" lon="12.99815760">
        <ele>711.00000</ele>
        <time>2009-07-31T10:30:10Z</time>
      </trkpt>
      <trkpt lat="43.39754480" lon="12.99813870">
        <ele>711.00000</ele>
        <time>2009-07-31T10:30:12Z</time>
      </trkpt>
      <trkpt lat="43.39752310" lon="12.99812600">
        <ele>711.00000</ele>
        <time>2009-07-31T10:30:13Z</time>
      </trkpt>
      <trkpt lat="43.39750270" lon="12.99811500">
        <ele>711.00000</ele>
        <time>2009-07-31T10:30:14Z</time>
      </trkpt>
      <trkpt lat="43.39746510" lon="12.99810820">
        <ele>711.00000</ele>
        <time>2009-07-31T10:30:15Z</time>
      </trkpt>
      <trkpt lat="43.39742870" lon="12.99810660">
        <ele>711.00000</ele>
        <time>2009-07-31T10:30:17Z</time>
      </trkpt>
      <trkpt lat="43.39740460" lon="12.99809380">
        <ele>711.00000</ele>
        <time>2009-07-31T10:30:18Z</time>
      </trkpt>
      <trkpt lat="43.39737700" lon="12.99807410">
        <ele>711.00000</ele>
        <time>2009-07-31T10:30:19Z</time>
      </trkpt>
      <trkpt lat="43.39735450" lon="12.99807850">
        <ele>711.00000</ele>
        <time>2009-07-31T10:30:20Z</time>
      </trkpt>
      <trkpt lat="43.39733020" lon="12.99805980">
        <ele>711.00000</ele>
        <time>2009-07-31T10:30:21Z</time>
      </trkpt>
      <trkpt lat="43.39730980" lon="12.99805450">
        <ele>711.00000</ele>
        <time>2009-07-31T10:30:22Z</time>
      </trkpt>
      <trkpt lat="43.39728120" lon="12.99804930">
        <ele>711.00000</ele>
        <time>2009-07-31T10:30:23Z</time>
      </trkpt>
      <trkpt lat="43.39724340" lon="12.99806170">
        <ele>711.00000</ele>
        <time>2009-07-31T10:30:24Z</time>
      </trkpt>
      <trkpt lat="43.39720910" lon="12.99806240">
        <ele>711.00000</ele>
        <time>2009-07-31T10:30:26Z</time>
      </trkpt>
      <trkpt lat="43.39718240" lon="12.99804800">
        <ele>711.00000</ele>
        <time>2009-07-31T10:30:27Z</time>
      </trkpt>
      <trkpt lat="43.39716690" lon="12.99805210">
        <ele>711.00000</ele>
        <time>2009-07-31T10:30:28Z</time>
      </trkpt>
      <trkpt lat="43.39716860" lon="12.99805740">
        <ele>711.00000</ele>
        <time>2009-07-31T10:30:28Z</time>
      </trkpt>
      <trkpt lat="43.39713680" lon="12.99805010">
        <ele>711.00000</ele>
        <time>2009-07-31T10:30:29Z</time>
      </trkpt>
      <trkpt lat="43.39708190" lon="12.99805540">
        <ele>708.00000</ele>
        <time>2009-07-31T10:30:31Z</time>
      </trkpt>
      <trkpt lat="43.39704680" lon="12.99806260">
        <ele>708.00000</ele>
        <time>2009-07-31T10:30:33Z</time>
      </trkpt>
      <trkpt lat="43.39701840" lon="12.99806580">
        <ele>708.00000</ele>
        <time>2009-07-31T10:30:34Z</time>
      </trkpt>
      <trkpt lat="43.39699000" lon="12.99807010">
        <ele>708.00000</ele>
        <time>2009-07-31T10:30:35Z</time>
      </trkpt>
      <trkpt lat="43.39694800" lon="12.99808740">
        <ele>708.00000</ele>
        <time>2009-07-31T10:30:37Z</time>
      </trkpt>
      <trkpt lat="43.39692130" lon="12.99809090">
        <ele>708.00000</ele>
        <time>2009-07-31T10:30:38Z</time>
      </trkpt>
      <trkpt lat="43.39689650" lon="12.99809950">
        <ele>708.00000</ele>
        <time>2009-07-31T10:30:39Z</time>
      </trkpt>
      <trkpt lat="43.39688460" lon="12.99807720">
        <ele>708.00000</ele>
        <time>2009-07-31T10:30:40Z</time>
      </trkpt>
      <trkpt lat="43.39687050" lon="12.99806790">
        <ele>708.00000</ele>
        <time>2009-07-31T10:30:40Z</time>
      </trkpt>
      <trkpt lat="43.39682930" lon="12.99807850">
        <ele>708.00000</ele>
        <time>2009-07-31T10:30:42Z</time>
      </trkpt>
      <trkpt lat="43.39678790" lon="12.99809280">
        <ele>708.00000</ele>
        <time>2009-07-31T10:30:44Z</time>
      </trkpt>
      <trkpt lat="43.39675780" lon="12.99810370">
        <ele>708.00000</ele>
        <time>2009-07-31T10:30:45Z</time>
      </trkpt>
      <trkpt lat="43.39673470" lon="12.99810260">
        <ele>708.00000</ele>
        <time>2009-07-31T10:30:46Z</time>
      </trkpt>
      <trkpt lat="43.39669580" lon="12.99812210">
        <ele>708.00000</ele>
        <time>2009-07-31T10:30:47Z</time>
      </trkpt>
      <trkpt lat="43.39664770" lon="12.99815100">
        <ele>708.00000</ele>
        <time>2009-07-31T10:30:50Z</time>
      </trkpt>
      <trkpt lat="43.39661830" lon="12.99816460">
        <ele>708.00000</ele>
        <time>2009-07-31T10:30:51Z</time>
      </trkpt>
      <trkpt lat="43.39659220" lon="12.99817130">
        <ele>708.00000</ele>
        <time>2009-07-31T10:30:52Z</time>
      </trkpt>
      <trkpt lat="43.39657520" lon="12.99819030">
        <ele>708.00000</ele>
        <time>2009-07-31T10:30:53Z</time>
      </trkpt>
      <trkpt lat="43.39655030" lon="12.99818230">
        <ele>708.00000</ele>
        <time>2009-07-31T10:30:54Z</time>
      </trkpt>
      <trkpt lat="43.39651520" lon="12.99817620">
        <ele>708.00000</ele>
        <time>2009-07-31T10:30:55Z</time>
      </trkpt>
      <trkpt lat="43.39648970" lon="12.99818380">
        <ele>708.00000</ele>
        <time>2009-07-31T10:30:56Z</time>
      </trkpt>
      <trkpt lat="43.39646200" lon="12.99819230">
        <ele>708.00000</ele>
        <time>2009-07-31T10:30:57Z</time>
      </trkpt>
      <trkpt lat="43.39644150" lon="12.99818590">
        <ele>708.00000</ele>
        <time>2009-07-31T10:30:58Z</time>
      </trkpt>
      <trkpt lat="43.39642320" lon="12.99818020">
        <ele>708.00000</ele>
        <time>2009-07-31T10:30:59Z</time>
      </trkpt>
      <trkpt lat="43.39637390" lon="12.99818690">
        <ele>708.00000</ele>
        <time>2009-07-31T10:31:01Z</time>
      </trkpt>
      <trkpt lat="43.39634480" lon="12.99819200">
        <ele>708.00000</ele>
        <time>2009-07-31T10:31:02Z</time>
      </trkpt>
      <trkpt lat="43.39629940" lon="12.99820710">
        <ele>708.00000</ele>
        <time>2009-07-31T10:31:04Z</time>
      </trkpt>
      <trkpt lat="43.39628340" lon="12.99820760">
        <ele>708.00000</ele>
        <time>2009-07-31T10:31:05Z</time>
      </trkpt>
      <trkpt lat="43.39625910" lon="12.99820740">
        <ele>708.00000</ele>
        <time>2009-07-31T10:31:06Z</time>
      </trkpt>
      <trkpt lat="43.39623300" lon="12.99821340">
        <ele>712.00000</ele>
        <time>2009-07-31T10:31:07Z</time>
      </trkpt>
      <trkpt lat="43.39619940" lon="12.99825100">
        <ele>712.00000</ele>
        <time>2009-07-31T10:31:08Z</time>
      </trkpt>
      <trkpt lat="43.39617980" lon="12.99824520">
        <ele>712.00000</ele>
        <time>2009-07-31T10:31:09Z</time>
      </trkpt>
      <trkpt lat="43.39615280" lon="12.99825010">
        <ele>712.00000</ele>
        <time>2009-07-31T10:31:10Z</time>
      </trkpt>
      <trkpt lat="43.39612200" lon="12.99825720">
        <ele>712.00000</ele>
        <time>2009-07-31T10:31:11Z</time>
      </trkpt>
      <trkpt lat="43.39610520" lon="12.99824980">
        <ele>712.00000</ele>
        <time>2009-07-31T10:31:12Z</time>
      </trkpt>
      <trkpt lat="43.39607630" lon="12.99824880">
        <ele>712.00000</ele>
        <time>2009-07-31T10:31:13Z</time>
      </trkpt>
      <trkpt lat="43.39606050" lon="12.99824220">
        <ele>712.00000</ele>
        <time>2009-07-31T10:31:14Z</time>
      </trkpt>
      <trkpt lat="43.39604280" lon="12.99824880">
        <ele>712.00000</ele>
        <time>2009-07-31T10:31:15Z</time>
      </trkpt>
      <trkpt lat="43.39601250" lon="12.99825180">
        <ele>712.00000</ele>
        <time>2009-07-31T10:31:16Z</time>
      </trkpt>
      <trkpt lat="43.39598820" lon="12.99825650">
        <ele>712.00000</ele>
        <time>2009-07-31T10:31:17Z</time>
      </trkpt>
      <trkpt lat="43.39595500" lon="12.99827350">
        <ele>712.00000</ele>
        <time>2009-07-31T10:31:18Z</time>
      </trkpt>
      <trkpt lat="43.39593120" lon="12.99827800">
        <ele>712.00000</ele>
        <time>2009-07-31T10:31:19Z</time>
      </trkpt>
      <trkpt lat="43.39591550" lon="12.99827390">
        <ele>712.00000</ele>
        <time>2009-07-31T10:31:20Z</time>
      </trkpt>
      <trkpt lat="43.39588270" lon="12.99828940">
        <ele>712.00000</ele>
        <time>2009-07-31T10:31:21Z</time>
      </trkpt>
      <trkpt lat="43.39585500" lon="12.99829860">
        <ele>712.00000</ele>
        <time>2009-07-31T10:31:22Z</time>
      </trkpt>
      <trkpt lat="43.39583310" lon="12.99831140">
        <ele>712.00000</ele>
        <time>2009-07-31T10:31:23Z</time>
      </trkpt>
      <trkpt lat="43.39581600" lon="12.99830190">
        <ele>712.00000</ele>
        <time>2009-07-31T10:31:24Z</time>
      </trkpt>
      <trkpt lat="43.39579200" lon="12.99829790">
        <ele>712.00000</ele>
        <time>2009-07-31T10:31:25Z</time>
      </trkpt>
      <trkpt lat="43.39577100" lon="12.99830050">
        <ele>712.00000</ele>
        <time>2009-07-31T10:31:26Z</time>
      </trkpt>
      <trkpt lat="43.39574140" lon="12.99830370">
        <ele>712.00000</ele>
        <time>2009-07-31T10:31:27Z</time>
      </trkpt>
      <trkpt lat="43.39571860" lon="12.99829840">
        <ele>712.00000</ele>
        <time>2009-07-31T10:31:28Z</time>
      </trkpt>
      <trkpt lat="43.39569920" lon="12.99829570">
        <ele>712.00000</ele>
        <time>2009-07-31T10:31:29Z</time>
      </trkpt>
      <trkpt lat="43.39567250" lon="12.99829680">
        <ele>712.00000</ele>
        <time>2009-07-31T10:31:30Z</time>
      </trkpt>
      <trkpt lat="43.39565870" lon="12.99829080">
        <ele>712.00000</ele>
        <time>2009-07-31T10:31:31Z</time>
      </trkpt>
      <trkpt lat="43.39563910" lon="12.99828730">
        <ele>712.00000</ele>
        <time>2009-07-31T10:31:31Z</time>
      </trkpt>
      <trkpt lat="43.39564870" lon="12.99822590">
        <ele>712.00000</ele>
        <time>2009-07-31T10:31:33Z</time>
      </trkpt>
      <trkpt lat="43.39562180" lon="12.99822590">
        <ele>712.00000</ele>
        <time>2009-07-31T10:31:34Z</time>
      </trkpt>
      <trkpt lat="43.39559380" lon="12.99821090">
        <ele>712.00000</ele>
        <time>2009-07-31T10:31:35Z</time>
      </trkpt>
      <trkpt lat="43.39557130" lon="12.99820350">
        <ele>712.00000</ele>
        <time>2009-07-31T10:31:36Z</time>
      </trkpt>
      <trkpt lat="43.39555360" lon="12.99818500">
        <ele>712.00000</ele>
        <time>2009-07-31T10:31:37Z</time>
      </trkpt>
      <trkpt lat="43.39553990" lon="12.99815870">
        <ele>712.00000</ele>
        <time>2009-07-31T10:31:38Z</time>
      </trkpt>
      <trkpt lat="43.39551890" lon="12.99813900">
        <ele>712.00000</ele>
        <time>2009-07-31T10:31:39Z</time>
      </trkpt>
      <trkpt lat="43.39549680" lon="12.99812600">
        <ele>712.00000</ele>
        <time>2009-07-31T10:31:40Z</time>
      </trkpt>
      <trkpt lat="43.39548160" lon="12.99810580">
        <ele>712.00000</ele>
        <time>2009-07-31T10:31:41Z</time>
      </trkpt>
      <trkpt lat="43.39547610" lon="12.99808500">
        <ele>712.00000</ele>
        <time>2009-07-31T10:31:42Z</time>
      </trkpt>
      <trkpt lat="43.39545880" lon="12.99807350">
        <ele>712.00000</ele>
        <time>2009-07-31T10:31:42Z</time>
      </trkpt>
      <trkpt lat="43.39544710" lon="12.99804820">
        <ele>712.00000</ele>
        <time>2009-07-31T10:31:43Z</time>
      </trkpt>
      <trkpt lat="43.39544240" lon="12.99803280">
        <ele>712.00000</ele>
        <time>2009-07-31T10:31:44Z</time>
      </trkpt>
      <trkpt lat="43.39542990" lon="12.99801910">
        <ele>712.00000</ele>
        <time>2009-07-31T10:31:44Z</time>
      </trkpt>
      <trkpt lat="43.39540270" lon="12.99802760">
        <ele>729.00000</ele>
        <time>2009-07-31T10:31:46Z</time>
      </trkpt>
      <trkpt lat="43.39538920" lon="12.99801590">
        <ele>729.00000</ele>
        <time>2009-07-31T10:31:46Z</time>
      </trkpt>
      <trkpt lat="43.39537430" lon="12.99799940">
        <ele>729.00000</ele>
        <time>2009-07-31T10:31:47Z</time>
      </trkpt>
      <trkpt lat="43.39534980" lon="12.99799120">
        <ele>729.00000</ele>
        <time>2009-07-31T10:31:48Z</time>
      </trkpt>
      <trkpt lat="43.39532920" lon="12.99797520">
        <ele>729.00000</ele>
        <time>2009-07-31T10:31:49Z</time>
      </trkpt>
      <trkpt lat="43.39532210" lon="12.99796480">
        <ele>729.00000</ele>
        <time>2009-07-31T10:31:49Z</time>
      </trkpt>
      <trkpt lat="43.39531490" lon="12.99795010">
        <ele>729.00000</ele>
        <time>2009-07-31T10:31:50Z</time>
      </trkpt>
      <trkpt lat="43.39530890" lon="12.99794070">
        <ele>729.00000</ele>
        <time>2009-07-31T10:31:50Z</time>
      </trkpt>
      <trkpt lat="43.39529320" lon="12.99792470">
        <ele>729.00000</ele>
        <time>2009-07-31T10:31:51Z</time>
      </trkpt>
      <trkpt lat="43.39528550" lon="12.99790870">
        <ele>723.00000</ele>
        <time>2009-07-31T10:31:52Z</time>
      </trkpt>
      <trkpt lat="43.39527020" lon="12.99789910">
        <ele>723.00000</ele>
        <time>2009-07-31T10:31:52Z</time>
      </trkpt>
      <trkpt lat="43.39525950" lon="12.99787890">
        <ele>723.00000</ele>
        <time>2009-07-31T10:31:53Z</time>
      </trkpt>
      <trkpt lat="43.39524690" lon="12.99786540">
        <ele>723.00000</ele>
        <time>2009-07-31T10:31:54Z</time>
      </trkpt>
      <trkpt lat="43.39523170" lon="12.99784770">
        <ele>723.00000</ele>
        <time>2009-07-31T10:31:54Z</time>
      </trkpt>
      <trkpt lat="43.39520860" lon="12.99783860">
        <ele>723.00000</ele>
        <time>2009-07-31T10:31:55Z</time>
      </trkpt>
      <trkpt lat="43.39519480" lon="12.99783180">
        <ele>723.00000</ele>
        <time>2009-07-31T10:31:56Z</time>
      </trkpt>
      <trkpt lat="43.39518130" lon="12.99782860">
        <ele>723.00000</ele>
        <time>2009-07-31T10:31:56Z</time>
      </trkpt>
      <trkpt lat="43.39515650" lon="12.99783180">
        <ele>723.00000</ele>
        <time>2009-07-31T10:31:57Z</time>
      </trkpt>
      <trkpt lat="43.39514620" lon="12.99781380">
        <ele>723.00000</ele>
        <time>2009-07-31T10:31:58Z</time>
      </trkpt>
      <trkpt lat="43.39512190" lon="12.99780630">
        <ele>723.00000</ele>
        <time>2009-07-31T10:31:59Z</time>
      </trkpt>
      <trkpt lat="43.39511100" lon="12.99778920">
        <ele>723.00000</ele>
        <time>2009-07-31T10:32:00Z</time>
      </trkpt>
      <trkpt lat="43.39509520" lon="12.99777010">
        <ele>723.00000</ele>
        <time>2009-07-31T10:32:01Z</time>
      </trkpt>
      <trkpt lat="43.39508810" lon="12.99774020">
        <ele>723.00000</ele>
        <time>2009-07-31T10:32:02Z</time>
      </trkpt>
      <trkpt lat="43.39506520" lon="12.99772440">
        <ele>723.00000</ele>
        <time>2009-07-31T10:32:03Z</time>
      </trkpt>
      <trkpt lat="43.39504840" lon="12.99770710">
        <ele>723.00000</ele>
        <time>2009-07-31T10:32:03Z</time>
      </trkpt>
      <trkpt lat="43.39501730" lon="12.99769850">
        <ele>723.00000</ele>
        <time>2009-07-31T10:32:05Z</time>
      </trkpt>
      <trkpt lat="43.39499110" lon="12.99768950">
        <ele>723.00000</ele>
        <time>2009-07-31T10:32:06Z</time>
      </trkpt>
      <trkpt lat="43.39497510" lon="12.99767340">
        <ele>723.00000</ele>
        <time>2009-07-31T10:32:07Z</time>
      </trkpt>
      <trkpt lat="43.39495760" lon="12.99765960">
        <ele>723.00000</ele>
        <time>2009-07-31T10:32:07Z</time>
      </trkpt>
      <trkpt lat="43.39494410" lon="12.99765720">
        <ele>723.00000</ele>
        <time>2009-07-31T10:32:08Z</time>
      </trkpt>
      <trkpt lat="43.39493520" lon="12.99764040">
        <ele>723.00000</ele>
        <time>2009-07-31T10:32:09Z</time>
      </trkpt>
      <trkpt lat="43.39491500" lon="12.99763290">
        <ele>723.00000</ele>
        <time>2009-07-31T10:32:09Z</time>
      </trkpt>
      <trkpt lat="43.39489280" lon="12.99761560">
        <ele>723.00000</ele>
        <time>2009-07-31T10:32:10Z</time>
      </trkpt>
      <trkpt lat="43.39487260" lon="12.99760030">
        <ele>723.00000</ele>
        <time>2009-07-31T10:32:11Z</time>
      </trkpt>
      <trkpt lat="43.39485620" lon="12.99757930">
        <ele>723.00000</ele>
        <time>2009-07-31T10:32:12Z</time>
      </trkpt>
      <trkpt lat="43.39484560" lon="12.99754510">
        <ele>723.00000</ele>
        <time>2009-07-31T10:32:13Z</time>
      </trkpt>
      <trkpt lat="43.39483320" lon="12.99752920">
        <ele>723.00000</ele>
        <time>2009-07-31T10:32:14Z</time>
      </trkpt>
      <trkpt lat="43.39481950" lon="12.99751330">
        <ele>723.00000</ele>
        <time>2009-07-31T10:32:15Z</time>
      </trkpt>
      <trkpt lat="43.39479870" lon="12.99751180">
        <ele>723.00000</ele>
        <time>2009-07-31T10:32:16Z</time>
      </trkpt>
      <trkpt lat="43.39478100" lon="12.99749650">
        <ele>723.00000</ele>
        <time>2009-07-31T10:32:16Z</time>
      </trkpt>
      <trkpt lat="43.39476890" lon="12.99748780">
        <ele>723.00000</ele>
        <time>2009-07-31T10:32:17Z</time>
      </trkpt>
      <trkpt lat="43.39476140" lon="12.99746700">
        <ele>723.00000</ele>
        <time>2009-07-31T10:32:18Z</time>
      </trkpt>
      <trkpt lat="43.39474710" lon="12.99746700">
        <ele>723.00000</ele>
        <time>2009-07-31T10:32:18Z</time>
      </trkpt>
      <trkpt lat="43.39471680" lon="12.99746760">
        <ele>723.00000</ele>
        <time>2009-07-31T10:32:19Z</time>
      </trkpt>
      <trkpt lat="43.39470490" lon="12.99743970">
        <ele>723.00000</ele>
        <time>2009-07-31T10:32:20Z</time>
      </trkpt>
      <trkpt lat="43.39469040" lon="12.99741980">
        <ele>723.00000</ele>
        <time>2009-07-31T10:32:21Z</time>
      </trkpt>
      <trkpt lat="43.39467470" lon="12.99741660">
        <ele>723.00000</ele>
        <time>2009-07-31T10:32:22Z</time>
      </trkpt>
      <trkpt lat="43.39465320" lon="12.99739660">
        <ele>723.00000</ele>
        <time>2009-07-31T10:32:23Z</time>
      </trkpt>
      <trkpt lat="43.39464030" lon="12.99738460">
        <ele>723.00000</ele>
        <time>2009-07-31T10:32:23Z</time>
      </trkpt>
      <trkpt lat="43.39462350" lon="12.99736660">
        <ele>723.00000</ele>
        <time>2009-07-31T10:32:24Z</time>
      </trkpt>
      <trkpt lat="43.39460450" lon="12.99735010">
        <ele>723.00000</ele>
        <time>2009-07-31T10:32:25Z</time>
      </trkpt>
      <trkpt lat="43.39458470" lon="12.99733810">
        <ele>723.00000</ele>
        <time>2009-07-31T10:32:26Z</time>
      </trkpt>
      <trkpt lat="43.39455520" lon="12.99731880">
        <ele>739.00000</ele>
        <time>2009-07-31T10:32:27Z</time>
      </trkpt>
      <trkpt lat="43.39453040" lon="12.99731400">
        <ele>739.00000</ele>
        <time>2009-07-31T10:32:28Z</time>
      </trkpt>
      <trkpt lat="43.39451270" lon="12.99729070">
        <ele>739.00000</ele>
        <time>2009-07-31T10:32:29Z</time>
      </trkpt>
      <trkpt lat="43.39449930" lon="12.99727200">
        <ele>739.00000</ele>
        <time>2009-07-31T10:32:30Z</time>
      </trkpt>
      <trkpt lat="43.39448610" lon="12.99725360">
        <ele>739.00000</ele>
        <time>2009-07-31T10:32:31Z</time>
      </trkpt>
      <trkpt lat="43.39446070" lon="12.99724650">
        <ele>739.00000</ele>
        <time>2009-07-31T10:32:32Z</time>
      </trkpt>
      <trkpt lat="43.39444650" lon="12.99723960">
        <ele>739.00000</ele>
        <time>2009-07-31T10:32:32Z</time>
      </trkpt>
      <trkpt lat="43.39443200" lon="12.99722680">
        <ele>739.00000</ele>
        <time>2009-07-31T10:32:33Z</time>
      </trkpt>
      <trkpt lat="43.39439980" lon="12.99721990">
        <ele>739.00000</ele>
        <time>2009-07-31T10:32:34Z</time>
      </trkpt>
      <trkpt lat="43.39437110" lon="12.99720990">
        <ele>739.00000</ele>
        <time>2009-07-31T10:32:36Z</time>
      </trkpt>
      <trkpt lat="43.39434560" lon="12.99721150">
        <ele>739.00000</ele>
        <time>2009-07-31T10:32:37Z</time>
      </trkpt>
      <trkpt lat="43.39432790" lon="12.99719360">
        <ele>739.00000</ele>
        <time>2009-07-31T10:32:38Z</time>
      </trkpt>
      <trkpt lat="43.39430430" lon="12.99718700">
        <ele>739.00000</ele>
        <time>2009-07-31T10:32:39Z</time>
      </trkpt>
      <trkpt lat="43.39428250" lon="12.99718420">
        <ele>739.00000</ele>
        <time>2009-07-31T10:32:39Z</time>
      </trkpt>
      <trkpt lat="43.39426300" lon="12.99717010">
        <ele>739.00000</ele>
        <time>2009-07-31T10:32:40Z</time>
      </trkpt>
      <trkpt lat="43.39423990" lon="12.99715630">
        <ele>739.00000</ele>
        <time>2009-07-31T10:32:41Z</time>
      </trkpt>
      <trkpt lat="43.39421400" lon="12.99714740">
        <ele>739.00000</ele>
        <time>2009-07-31T10:32:42Z</time>
      </trkpt>
      <trkpt lat="43.39418590" lon="12.99714530">
        <ele>739.00000</ele>
        <time>2009-07-31T10:32:43Z</time>
      </trkpt>
      <trkpt lat="43.39417490" lon="12.99712550">
        <ele>739.00000</ele>
        <time>2009-07-31T10:32:44Z</time>
      </trkpt>
      <trkpt lat="43.39415130" lon="12.99712100">
        <ele>739.00000</ele>
        <time>2009-07-31T10:32:45Z</time>
      </trkpt>
      <trkpt lat="43.39412780" lon="12.99711040">
        <ele>739.00000</ele>
        <time>2009-07-31T10:32:46Z</time>
      </trkpt>
      <trkpt lat="43.39410940" lon="12.99709480">
        <ele>739.00000</ele>
        <time>2009-07-31T10:32:47Z</time>
      </trkpt>
      <trkpt lat="43.39407830" lon="12.99711980">
        <ele>739.00000</ele>
        <time>2009-07-31T10:32:48Z</time>
      </trkpt>
      <trkpt lat="43.39405510" lon="12.99710810">
        <ele>739.00000</ele>
        <time>2009-07-31T10:32:49Z</time>
      </trkpt>
      <trkpt lat="43.39402960" lon="12.99710200">
        <ele>739.00000</ele>
        <time>2009-07-31T10:32:50Z</time>
      </trkpt>
      <trkpt lat="43.39400700" lon="12.99709270">
        <ele>739.00000</ele>
        <time>2009-07-31T10:32:51Z</time>
      </trkpt>
      <trkpt lat="43.39398340" lon="12.99708420">
        <ele>739.00000</ele>
        <time>2009-07-31T10:32:52Z</time>
      </trkpt>
      <trkpt lat="43.39396160" lon="12.99707260">
        <ele>728.00000</ele>
        <time>2009-07-31T10:32:53Z</time>
      </trkpt>
      <trkpt lat="43.39394480" lon="12.99706200">
        <ele>728.00000</ele>
        <time>2009-07-31T10:32:54Z</time>
      </trkpt>
      <trkpt lat="43.39393210" lon="12.99704740">
        <ele>728.00000</ele>
        <time>2009-07-31T10:32:55Z</time>
      </trkpt>
      <trkpt lat="43.39390750" lon="12.99704200">
        <ele>728.00000</ele>
        <time>2009-07-31T10:32:56Z</time>
      </trkpt>
      <trkpt lat="43.39387360" lon="12.99705170">
        <ele>728.00000</ele>
        <time>2009-07-31T10:32:57Z</time>
      </trkpt>
      <trkpt lat="43.39384470" lon="12.99704020">
        <ele>728.00000</ele>
        <time>2009-07-31T10:32:58Z</time>
      </trkpt>
      <trkpt lat="43.39382350" lon="12.99702690">
        <ele>728.00000</ele>
        <time>2009-07-31T10:32:59Z</time>
      </trkpt>
      <trkpt lat="43.39379830" lon="12.99702790">
        <ele>728.00000</ele>
        <time>2009-07-31T10:33:00Z</time>
      </trkpt>
      <trkpt lat="43.39380040" lon="12.99702050">
        <ele>728.00000</ele>
        <time>2009-07-31T10:33:00Z</time>
      </trkpt>
      <trkpt lat="43.39379380" lon="12.99700950">
        <ele>728.00000</ele>
        <time>2009-07-31T10:33:01Z</time>
      </trkpt>
      <trkpt lat="43.39378090" lon="12.99700970">
        <ele>728.00000</ele>
        <time>2009-07-31T10:33:01Z</time>
      </trkpt>
      <trkpt lat="43.39376470" lon="12.99699500">
        <ele>728.00000</ele>
        <time>2009-07-31T10:33:02Z</time>
      </trkpt>
      <trkpt lat="43.39373390" lon="12.99699430">
        <ele>744.00000</ele>
        <time>2009-07-31T10:33:03Z</time>
      </trkpt>
      <trkpt lat="43.39371140" lon="12.99698580">
        <ele>744.00000</ele>
        <time>2009-07-31T10:33:04Z</time>
      </trkpt>
      <trkpt lat="43.39369040" lon="12.99696630">
        <ele>744.00000</ele>
        <time>2009-07-31T10:33:05Z</time>
      </trkpt>
      <trkpt lat="43.39367160" lon="12.99696130">
        <ele>744.00000</ele>
        <time>2009-07-31T10:33:06Z</time>
      </trkpt>
      <trkpt lat="43.39365090" lon="12.99696790">
        <ele>744.00000</ele>
        <time>2009-07-31T10:33:07Z</time>
      </trkpt>
      <trkpt lat="43.39363640" lon="12.99695640">
        <ele>744.00000</ele>
        <time>2009-07-31T10:33:08Z</time>
      </trkpt>
      <trkpt lat="43.39361560" lon="12.99694660">
        <ele>744.00000</ele>
        <time>2009-07-31T10:33:09Z</time>
      </trkpt>
      <trkpt lat="43.39358890" lon="12.99693430">
        <ele>744.00000</ele>
        <time>2009-07-31T10:33:10Z</time>
      </trkpt>
      <trkpt lat="43.39356500" lon="12.99691870">
        <ele>744.00000</ele>
        <time>2009-07-31T10:33:11Z</time>
      </trkpt>
      <trkpt lat="43.39353750" lon="12.99690530">
        <ele>744.00000</ele>
        <time>2009-07-31T10:33:12Z</time>
      </trkpt>
      <trkpt lat="43.39351380" lon="12.99690310">
        <ele>744.00000</ele>
        <time>2009-07-31T10:33:13Z</time>
      </trkpt>
      <trkpt lat="43.39349340" lon="12.99689140">
        <ele>744.00000</ele>
        <time>2009-07-31T10:33:14Z</time>
      </trkpt>
      <trkpt lat="43.39347660" lon="12.99687330">
        <ele>744.00000</ele>
        <time>2009-07-31T10:33:15Z</time>
      </trkpt>
      <trkpt lat="43.39345090" lon="12.99686580">
        <ele>744.00000</ele>
        <time>2009-07-31T10:33:16Z</time>
      </trkpt>
      <trkpt lat="43.39343130" lon="12.99686370">
        <ele>744.00000</ele>
        <time>2009-07-31T10:33:16Z</time>
      </trkpt>
      <trkpt lat="43.39341020" lon="12.99685270">
        <ele>744.00000</ele>
        <time>2009-07-31T10:33:17Z</time>
      </trkpt>
      <trkpt lat="43.39338230" lon="12.99684250">
        <ele>744.00000</ele>
        <time>2009-07-31T10:33:18Z</time>
      </trkpt>
      <trkpt lat="43.39336330" lon="12.99682890">
        <ele>744.00000</ele>
        <time>2009-07-31T10:33:19Z</time>
      </trkpt>
      <trkpt lat="43.39333890" lon="12.99680560">
        <ele>744.00000</ele>
        <time>2009-07-31T10:33:21Z</time>
      </trkpt>
      <trkpt lat="43.39331720" lon="12.99678790">
        <ele>744.00000</ele>
        <time>2009-07-31T10:33:22Z</time>
      </trkpt>
      <trkpt lat="43.39329940" lon="12.99676650">
        <ele>744.00000</ele>
        <time>2009-07-31T10:33:22Z</time>
      </trkpt>
      <trkpt lat="43.39328690" lon="12.99673320">
        <ele>744.00000</ele>
        <time>2009-07-31T10:33:24Z</time>
      </trkpt>
      <trkpt lat="43.39326910" lon="12.99671290">
        <ele>744.00000</ele>
        <time>2009-07-31T10:33:25Z</time>
      </trkpt>
      <trkpt lat="43.39325340" lon="12.99669340">
        <ele>744.00000</ele>
        <time>2009-07-31T10:33:25Z</time>
      </trkpt>
      <trkpt lat="43.39323590" lon="12.99667570">
        <ele>744.00000</ele>
        <time>2009-07-31T10:33:26Z</time>
      </trkpt>
      <trkpt lat="43.39320510" lon="12.99666040">
        <ele>744.00000</ele>
        <time>2009-07-31T10:33:28Z</time>
      </trkpt>
      <trkpt lat="43.39318550" lon="12.99664850">
        <ele>744.00000</ele>
        <time>2009-07-31T10:33:28Z</time>
      </trkpt>
      <trkpt lat="43.39317100" lon="12.99662620">
        <ele>744.00000</ele>
        <time>2009-07-31T10:33:29Z</time>
      </trkpt>
      <trkpt lat="43.39315270" lon="12.99660530">
        <ele>744.00000</ele>
        <time>2009-07-31T10:33:30Z</time>
      </trkpt>
      <trkpt lat="43.39313840" lon="12.99658610">
        <ele>744.00000</ele>
        <time>2009-07-31T10:33:31Z</time>
      </trkpt>
      <trkpt lat="43.39312170" lon="12.99656650">
        <ele>744.00000</ele>
        <time>2009-07-31T10:33:32Z</time>
      </trkpt>
      <trkpt lat="43.39309840" lon="12.99655180">
        <ele>744.00000</ele>
        <time>2009-07-31T10:33:33Z</time>
      </trkpt>
      <trkpt lat="43.39307960" lon="12.99652730">
        <ele>744.00000</ele>
        <time>2009-07-31T10:33:34Z</time>
      </trkpt>
      <trkpt lat="43.39306760" lon="12.99651540">
        <ele>744.00000</ele>
        <time>2009-07-31T10:33:35Z</time>
      </trkpt>
      <trkpt lat="43.39304810" lon="12.99650290">
        <ele>744.00000</ele>
        <time>2009-07-31T10:33:35Z</time>
      </trkpt>
      <trkpt lat="43.39303960" lon="12.99647830">
        <ele>744.00000</ele>
        <time>2009-07-31T10:33:36Z</time>
      </trkpt>
      <trkpt lat="43.39302680" lon="12.99645870">
        <ele>744.00000</ele>
        <time>2009-07-31T10:33:37Z</time>
      </trkpt>
      <trkpt lat="43.39300400" lon="12.99643610">
        <ele>744.00000</ele>
        <time>2009-07-31T10:33:38Z</time>
      </trkpt>
      <trkpt lat="43.39298280" lon="12.99642110">
        <ele>744.00000</ele>
        <time>2009-07-31T10:33:39Z</time>
      </trkpt>
      <trkpt lat="43.39295470" lon="12.99640550">
        <ele>744.00000</ele>
        <time>2009-07-31T10:33:40Z</time>
      </trkpt>
      <trkpt lat="43.39292810" lon="12.99639350">
        <ele>744.00000</ele>
        <time>2009-07-31T10:33:41Z</time>
      </trkpt>
      <trkpt lat="43.39291390" lon="12.99636960">
        <ele>766.00000</ele>
        <time>2009-07-31T10:33:42Z</time>
      </trkpt>
      <trkpt lat="43.39289630" lon="12.99634000">
        <ele>766.00000</ele>
        <time>2009-07-31T10:33:43Z</time>
      </trkpt>
      <trkpt lat="43.39288720" lon="12.99630580">
        <ele>766.00000</ele>
        <time>2009-07-31T10:33:44Z</time>
      </trkpt>
      <trkpt lat="43.39287070" lon="12.99626740">
        <ele>766.00000</ele>
        <time>2009-07-31T10:33:46Z</time>
      </trkpt>
      <trkpt lat="43.39285130" lon="12.99623280">
        <ele>749.00000</ele>
        <time>2009-07-31T10:33:47Z</time>
      </trkpt>
      <trkpt lat="43.39282030" lon="12.99622090">
        <ele>749.00000</ele>
        <time>2009-07-31T10:33:48Z</time>
      </trkpt>
      <trkpt lat="43.39280350" lon="12.99620120">
        <ele>749.00000</ele>
        <time>2009-07-31T10:33:49Z</time>
      </trkpt>
      <trkpt lat="43.39278760" lon="12.99617250">
        <ele>749.00000</ele>
        <time>2009-07-31T10:33:50Z</time>
      </trkpt>
      <trkpt lat="43.39276370" lon="12.99614610">
        <ele>749.00000</ele>
        <time>2009-07-31T10:33:51Z</time>
      </trkpt>
      <trkpt lat="43.39273740" lon="12.99612950">
        <ele>749.00000</ele>
        <time>2009-07-31T10:33:53Z</time>
      </trkpt>
      <trkpt lat="43.39272700" lon="12.99609600">
        <ele>749.00000</ele>
        <time>2009-07-31T10:33:54Z</time>
      </trkpt>
      <trkpt lat="43.39270790" lon="12.99607270">
        <ele>749.00000</ele>
        <time>2009-07-31T10:33:55Z</time>
      </trkpt>
      <trkpt lat="43.39267610" lon="12.99605520">
        <ele>749.00000</ele>
        <time>2009-07-31T10:33:56Z</time>
      </trkpt>
      <trkpt lat="43.39265830" lon="12.99604740">
        <ele>749.00000</ele>
        <time>2009-07-31T10:33:57Z</time>
      </trkpt>
      <trkpt lat="43.39262920" lon="12.99603500">
        <ele>749.00000</ele>
        <time>2009-07-31T10:33:58Z</time>
      </trkpt>
      <trkpt lat="43.39261350" lon="12.99601230">
        <ele>749.00000</ele>
        <time>2009-07-31T10:33:59Z</time>
      </trkpt>
      <trkpt lat="43.39259210" lon="12.99600300">
        <ele>749.00000</ele>
        <time>2009-07-31T10:34:00Z</time>
      </trkpt>
      <trkpt lat="43.39257770" lon="12.99598370">
        <ele>749.00000</ele>
        <time>2009-07-31T10:34:01Z</time>
      </trkpt>
      <trkpt lat="43.39255080" lon="12.99596920">
        <ele>749.00000</ele>
        <time>2009-07-31T10:34:02Z</time>
      </trkpt>
      <trkpt lat="43.39252480" lon="12.99596340">
        <ele>749.00000</ele>
        <time>2009-07-31T10:34:03Z</time>
      </trkpt>
      <trkpt lat="43.39251460" lon="12.99596920">
        <ele>749.00000</ele>
        <time>2009-07-31T10:34:03Z</time>
      </trkpt>
      <trkpt lat="43.39250570" lon="12.99600350">
        <ele>749.00000</ele>
        <time>2009-07-31T10:34:04Z</time>
      </trkpt>
      <trkpt lat="43.39250480" lon="12.99604080">
        <ele>749.00000</ele>
        <time>2009-07-31T10:34:05Z</time>
      </trkpt>
      <trkpt lat="43.39251250" lon="12.99605320">
        <ele>749.00000</ele>
        <time>2009-07-31T10:34:06Z</time>
      </trkpt>
      <trkpt lat="43.39252810" lon="12.99607190">
        <ele>749.00000</ele>
        <time>2009-07-31T10:34:07Z</time>
      </trkpt>
      <trkpt lat="43.39255180" lon="12.99609800">
        <ele>749.00000</ele>
        <time>2009-07-31T10:34:08Z</time>
      </trkpt>
      <trkpt lat="43.39256090" lon="12.99610890">
        <ele>749.00000</ele>
        <time>2009-07-31T10:34:08Z</time>
      </trkpt>
      <trkpt lat="43.39257080" lon="12.99609700">
        <ele>749.00000</ele>
        <time>2009-07-31T10:34:09Z</time>
      </trkpt>
      <trkpt lat="43.39257860" lon="12.99609350">
        <ele>749.00000</ele>
        <time>2009-07-31T10:34:09Z</time>
      </trkpt>
      <trkpt lat="43.39257090" lon="12.99606970">
        <ele>749.00000</ele>
        <time>2009-07-31T10:34:10Z</time>
      </trkpt>
      <trkpt lat="43.39254920" lon="12.99604040">
        <ele>749.00000</ele>
        <time>2009-07-31T10:34:11Z</time>
      </trkpt>
      <trkpt lat="43.39254740" lon="12.99603130">
        <ele>749.00000</ele>
        <time>2009-07-31T10:34:12Z</time>
      </trkpt>
      <trkpt lat="43.39256280" lon="12.99605030">
        <ele>749.00000</ele>
        <time>2009-07-31T10:34:12Z</time>
      </trkpt>
      <trkpt lat="43.39256700" lon="12.99606620">
        <ele>749.00000</ele>
        <time>2009-07-31T10:34:13Z</time>
      </trkpt>
      <trkpt lat="43.39257120" lon="12.99606860">
        <ele>749.00000</ele>
        <time>2009-07-31T10:34:13Z</time>
      </trkpt>
      <trkpt lat="43.39257260" lon="12.99607250">
        <ele>749.00000</ele>
        <time>2009-07-31T10:34:13Z</time>
      </trkpt>
      <trkpt lat="43.39257190" lon="12.99607790">
        <ele>749.00000</ele>
        <time>2009-07-31T10:34:13Z</time>
      </trkpt>
      <trkpt lat="43.39257240" lon="12.99607800">
        <ele>749.00000</ele>
        <time>2009-07-31T10:34:13Z</time>
      </trkpt>
      <trkpt lat="43.39257380" lon="12.99607890">
        <ele>749.00000</ele>
        <time>2009-07-31T10:34:13Z</time>
      </trkpt>
      <trkpt lat="43.39257620" lon="12.99608040">
        <ele>749.00000</ele>
        <time>2009-07-31T10:34:14Z</time>
      </trkpt>
      <trkpt lat="43.39257920" lon="12.99608190">
        <ele>749.00000</ele>
        <time>2009-07-31T10:34:14Z</time>
      </trkpt>
      <trkpt lat="43.39257990" lon="12.99608190">
        <ele>749.00000</ele>
        <time>2009-07-31T10:34:14Z</time>
      </trkpt>
      <trkpt lat="43.39257930" lon="12.99608170">
        <ele>749.00000</ele>
        <time>2009-07-31T10:34:14Z</time>
      </trkpt>
      <trkpt lat="43.39257780" lon="12.99608100">
        <ele>749.00000</ele>
        <time>2009-07-31T10:34:14Z</time>
      </trkpt>
      <trkpt lat="43.39257650" lon="12.99608050">
        <ele>749.00000</ele>
        <time>2009-07-31T10:34:14Z</time>
      </trkpt>
      <trkpt lat="43.39257550" lon="12.99608000">
        <ele>749.00000</ele>
        <time>2009-07-31T10:34:14Z</time>
      </trkpt>
      <trkpt lat="43.39257420" lon="12.99607920">
        <ele>749.00000</ele>
        <time>2009-07-31T10:34:14Z</time>
      </trkpt>
      <trkpt lat="43.39257090" lon="12.99607750">
        <ele>749.00000</ele>
        <time>2009-07-31T10:34:14Z</time>
      </trkpt>
      <trkpt lat="43.39257090" lon="12.99607730">
        <ele>749.00000</ele>
        <time>2009-07-31T10:34:14Z</time>
      </trkpt>
      <trkpt lat="43.39257080" lon="12.99607720">
        <ele>749.00000</ele>
        <time>2009-07-31T10:34:14Z</time>
      </trkpt>
      <trkpt lat="43.39257070" lon="12.99607710">
        <ele>749.00000</ele>
        <time>2009-07-31T10:34:14Z</time>
      </trkpt>
      <trkpt lat="43.39257140" lon="12.99607780">
        <ele>749.00000</ele>
        <time>2009-07-31T10:34:14Z</time>
      </trkpt>
      <trkpt lat="43.39257170" lon="12.99607860">
        <ele>749.00000</ele>
        <time>2009-07-31T10:34:14Z</time>
      </trkpt>
      <trkpt lat="43.39257170" lon="12.99607830">
        <ele>749.00000</ele>
        <time>2009-07-31T10:34:14Z</time>
      </trkpt>
      <trkpt lat="43.39257170" lon="12.99607820">
        <ele>749.00000</ele>
        <time>2009-07-31T10:34:14Z</time>
      </trkpt>
      <trkpt lat="43.39257170" lon="12.99607800">
        <ele>749.00000</ele>
        <time>2009-07-31T10:34:14Z</time>
      </trkpt>
      <trkpt lat="43.39257150" lon="12.99607780">
        <ele>749.00000</ele>
        <time>2009-07-31T10:34:14Z</time>
      </trkpt>
      <trkpt lat="43.39256120" lon="12.99606580">
        <ele>749.00000</ele>
        <time>2009-07-31T10:34:15Z</time>
      </trkpt>
      <trkpt lat="43.39254260" lon="12.99604330">
        <ele>749.00000</ele>
        <time>2009-07-31T10:34:16Z</time>
      </trkpt>
      <trkpt lat="43.39252050" lon="12.99601770">
        <ele>749.00000</ele>
        <time>2009-07-31T10:34:17Z</time>
      </trkpt>
      <trkpt lat="43.39251380" lon="12.99599740">
        <ele>749.00000</ele>
        <time>2009-07-31T10:34:17Z</time>
      </trkpt>
      <trkpt lat="43.39251590" lon="12.99598990">
        <ele>749.00000</ele>
        <time>2009-07-31T10:34:18Z</time>
      </trkpt>
      <trkpt lat="43.39251540" lon="12.99600280">
        <ele>749.00000</ele>
        <time>2009-07-31T10:34:18Z</time>
      </trkpt>
      <trkpt lat="43.39252090" lon="12.99602930">
        <ele>749.00000</ele>
        <time>2009-07-31T10:34:19Z</time>
      </trkpt>
      <trkpt lat="43.39253290" lon="12.99605870">
        <ele>749.00000</ele>
        <time>2009-07-31T10:34:20Z</time>
      </trkpt>
      <trkpt lat="43.39254870" lon="12.99608020">
        <ele>749.00000</ele>
        <time>2009-07-31T10:34:21Z</time>
      </trkpt>
      <trkpt lat="43.39256100" lon="12.99610540">
        <ele>749.00000</ele>
        <time>2009-07-31T10:34:22Z</time>
      </trkpt>
      <trkpt lat="43.39257650" lon="12.99612570">
        <ele>749.00000</ele>
        <time>2009-07-31T10:34:22Z</time>
      </trkpt>
      <trkpt lat="43.39259040" lon="12.99614790">
        <ele>749.00000</ele>
        <time>2009-07-31T10:34:23Z</time>
      </trkpt>
      <trkpt lat="43.39260190" lon="12.99616930">
        <ele>749.00000</ele>
        <time>2009-07-31T10:34:24Z</time>
      </trkpt>
      <trkpt lat="43.39260950" lon="12.99619090">
        <ele>749.00000</ele>
        <time>2009-07-31T10:34:25Z</time>
      </trkpt>
      <trkpt lat="43.39262260" lon="12.99621890">
        <ele>749.00000</ele>
        <time>2009-07-31T10:34:26Z</time>
      </trkpt>
      <trkpt lat="43.39263190" lon="12.99624490">
        <ele>749.00000</ele>
        <time>2009-07-31T10:34:27Z</time>
      </trkpt>
      <trkpt lat="43.39265140" lon="12.99625200">
        <ele>766.00000</ele>
        <time>2009-07-31T10:34:27Z</time>
      </trkpt>
      <trkpt lat="43.39265040" lon="12.99626430">
        <ele>766.00000</ele>
        <time>2009-07-31T10:34:28Z</time>
      </trkpt>
      <trkpt lat="43.39265500" lon="12.99628410">
        <ele>766.00000</ele>
        <time>2009-07-31T10:34:28Z</time>
      </trkpt>
      <trkpt lat="43.39264930" lon="12.99630720">
        <ele>766.00000</ele>
        <time>2009-07-31T10:34:29Z</time>
      </trkpt>
      <trkpt lat="43.39265330" lon="12.99631030">
        <ele>766.00000</ele>
        <time>2009-07-31T10:34:29Z</time>
      </trkpt>
      <trkpt lat="43.39265150" lon="12.99630370">
        <ele>766.00000</ele>
        <time>2009-07-31T10:34:29Z</time>
      </trkpt>
      <trkpt lat="43.39265310" lon="12.99630280">
        <ele>766.00000</ele>
        <time>2009-07-31T10:34:30Z</time>
      </trkpt>
      <trkpt lat="43.39265480" lon="12.99630320">
        <ele>766.00000</ele>
        <time>2009-07-31T10:34:30Z</time>
      </trkpt>
      <trkpt lat="43.39265880" lon="12.99630470">
        <ele>766.00000</ele>
        <time>2009-07-31T10:34:30Z</time>
      </trkpt>
      <trkpt lat="43.39266800" lon="12.99631670">
        <ele>766.00000</ele>
        <time>2009-07-31T10:34:30Z</time>
      </trkpt>
      <trkpt lat="43.39268110" lon="12.99634810">
        <ele>766.00000</ele>
        <time>2009-07-31T10:34:31Z</time>
      </trkpt>
      <trkpt lat="43.39268650" lon="12.99637640">
        <ele>766.00000</ele>
        <time>2009-07-31T10:34:32Z</time>
      </trkpt>
      <trkpt lat="43.39268570" lon="12.99640640">
        <ele>766.00000</ele>
        <time>2009-07-31T10:34:33Z</time>
      </trkpt>
      <trkpt lat="43.39267310" lon="12.99644960">
        <ele>766.00000</ele>
        <time>2009-07-31T10:34:34Z</time>
      </trkpt>
      <trkpt lat="43.39267720" lon="12.99649200">
        <ele>766.00000</ele>
        <time>2009-07-31T10:34:36Z</time>
      </trkpt>
      <trkpt lat="43.39267530" lon="12.99652470">
        <ele>766.00000</ele>
        <time>2009-07-31T10:34:37Z</time>
      </trkpt>
      <trkpt lat="43.39267590" lon="12.99655610">
        <ele>766.00000</ele>
        <time>2009-07-31T10:34:38Z</time>
      </trkpt>
      <trkpt lat="43.39268110" lon="12.99660070">
        <ele>766.00000</ele>
        <time>2009-07-31T10:34:39Z</time>
      </trkpt>
      <trkpt lat="43.39267410" lon="12.99663570">
        <ele>766.00000</ele>
        <time>2009-07-31T10:34:40Z</time>
      </trkpt>
      <trkpt lat="43.39267910" lon="12.99666870">
        <ele>766.00000</ele>
        <time>2009-07-31T10:34:41Z</time>
      </trkpt>
      <trkpt lat="43.39267780" lon="12.99670510">
        <ele>766.00000</ele>
        <time>2009-07-31T10:34:42Z</time>
      </trkpt>
      <trkpt lat="43.39268430" lon="12.99673190">
        <ele>766.00000</ele>
        <time>2009-07-31T10:34:43Z</time>
      </trkpt>
      <trkpt lat="43.39270330" lon="12.99676320">
        <ele>766.00000</ele>
        <time>2009-07-31T10:34:44Z</time>
      </trkpt>
      <trkpt lat="43.39269970" lon="12.99678990">
        <ele>766.00000</ele>
        <time>2009-07-31T10:34:45Z</time>
      </trkpt>
      <trkpt lat="43.39270050" lon="12.99682350">
        <ele>766.00000</ele>
        <time>2009-07-31T10:34:46Z</time>
      </trkpt>
      <trkpt lat="43.39269960" lon="12.99685830">
        <ele>766.00000</ele>
        <time>2009-07-31T10:34:47Z</time>
      </trkpt>
      <trkpt lat="43.39268200" lon="12.99689050">
        <ele>766.00000</ele>
        <time>2009-07-31T10:34:48Z</time>
      </trkpt>
      <trkpt lat="43.39267380" lon="12.99691520">
        <ele>766.00000</ele>
        <time>2009-07-31T10:34:49Z</time>
      </trkpt>
      <trkpt lat="43.39266750" lon="12.99694850">
        <ele>766.00000</ele>
        <time>2009-07-31T10:34:50Z</time>
      </trkpt>
      <trkpt lat="43.39266830" lon="12.99698570">
        <ele>766.00000</ele>
        <time>2009-07-31T10:34:51Z</time>
      </trkpt>
      <trkpt lat="43.39267330" lon="12.99701150">
        <ele>766.00000</ele>
        <time>2009-07-31T10:34:52Z</time>
      </trkpt>
      <trkpt lat="43.39266930" lon="12.99704380">
        <ele>766.00000</ele>
        <time>2009-07-31T10:34:52Z</time>
      </trkpt>
      <trkpt lat="43.39266400" lon="12.99707370">
        <ele>766.00000</ele>
        <time>2009-07-31T10:34:53Z</time>
      </trkpt>
      <trkpt lat="43.39267320" lon="12.99711250">
        <ele>769.00000</ele>
        <time>2009-07-31T10:34:55Z</time>
      </trkpt>
      <trkpt lat="43.39267650" lon="12.99715030">
        <ele>769.00000</ele>
        <time>2009-07-31T10:34:56Z</time>
      </trkpt>
      <trkpt lat="43.39267720" lon="12.99717600">
        <ele>769.00000</ele>
        <time>2009-07-31T10:34:56Z</time>
      </trkpt>
      <trkpt lat="43.39267210" lon="12.99721640">
        <ele>769.00000</ele>
        <time>2009-07-31T10:34:58Z</time>
      </trkpt>
      <trkpt lat="43.39267310" lon="12.99725280">
        <ele>769.00000</ele>
        <time>2009-07-31T10:34:59Z</time>
      </trkpt>
      <trkpt lat="43.39267370" lon="12.99728140">
        <ele>769.00000</ele>
        <time>2009-07-31T10:35:00Z</time>
      </trkpt>
      <trkpt lat="43.39266800" lon="12.99731660">
        <ele>769.00000</ele>
        <time>2009-07-31T10:35:01Z</time>
      </trkpt>
      <trkpt lat="43.39266570" lon="12.99735430">
        <ele>769.00000</ele>
        <time>2009-07-31T10:35:02Z</time>
      </trkpt>
      <trkpt lat="43.39266240" lon="12.99738700">
        <ele>769.00000</ele>
        <time>2009-07-31T10:35:03Z</time>
      </trkpt>
      <trkpt lat="43.39266480" lon="12.99742050">
        <ele>769.00000</ele>
        <time>2009-07-31T10:35:04Z</time>
      </trkpt>
      <trkpt lat="43.39265160" lon="12.99746460">
        <ele>769.00000</ele>
        <time>2009-07-31T10:35:05Z</time>
      </trkpt>
      <trkpt lat="43.39264130" lon="12.99750250">
        <ele>769.00000</ele>
        <time>2009-07-31T10:35:06Z</time>
      </trkpt>
      <trkpt lat="43.39263180" lon="12.99753550">
        <ele>769.00000</ele>
        <time>2009-07-31T10:35:07Z</time>
      </trkpt>
      <trkpt lat="43.39264190" lon="12.99756640">
        <ele>769.00000</ele>
        <time>2009-07-31T10:35:08Z</time>
      </trkpt>
      <trkpt lat="43.39264620" lon="12.99760600">
        <ele>769.00000</ele>
        <time>2009-07-31T10:35:09Z</time>
      </trkpt>
      <trkpt lat="43.39264460" lon="12.99763690">
        <ele>769.00000</ele>
        <time>2009-07-31T10:35:10Z</time>
      </trkpt>
      <trkpt lat="43.39264660" lon="12.99766780">
        <ele>769.00000</ele>
        <time>2009-07-31T10:35:11Z</time>
      </trkpt>
      <trkpt lat="43.39264200" lon="12.99771070">
        <ele>769.00000</ele>
        <time>2009-07-31T10:35:12Z</time>
      </trkpt>
      <trkpt lat="43.39263780" lon="12.99774510">
        <ele>769.00000</ele>
        <time>2009-07-31T10:35:13Z</time>
      </trkpt>
      <trkpt lat="43.39263350" lon="12.99777540">
        <ele>769.00000</ele>
        <time>2009-07-31T10:35:14Z</time>
      </trkpt>
      <trkpt lat="43.39263200" lon="12.99780990">
        <ele>769.00000</ele>
        <time>2009-07-31T10:35:15Z</time>
      </trkpt>
      <trkpt lat="43.39262440" lon="12.99785060">
        <ele>769.00000</ele>
        <time>2009-07-31T10:35:17Z</time>
      </trkpt>
      <trkpt lat="43.39261570" lon="12.99789440">
        <ele>769.00000</ele>
        <time>2009-07-31T10:35:18Z</time>
      </trkpt>
      <trkpt lat="43.39260490" lon="12.99791900">
        <ele>765.00000</ele>
        <time>2009-07-31T10:35:19Z</time>
      </trkpt>
      <trkpt lat="43.39261260" lon="12.99795230">
        <ele>765.00000</ele>
        <time>2009-07-31T10:35:20Z</time>
      </trkpt>
      <trkpt lat="43.39260140" lon="12.99798490">
        <ele>765.00000</ele>
        <time>2009-07-31T10:35:21Z</time>
      </trkpt>
      <trkpt lat="43.39258170" lon="12.99802050">
        <ele>765.00000</ele>
        <time>2009-07-31T10:35:22Z</time>
      </trkpt>
      <trkpt lat="43.39256950" lon="12.99804580">
        <ele>765.00000</ele>
        <time>2009-07-31T10:35:23Z</time>
      </trkpt>
      <trkpt lat="43.39256490" lon="12.99807300">
        <ele>765.00000</ele>
        <time>2009-07-31T10:35:24Z</time>
      </trkpt>
      <trkpt lat="43.39255740" lon="12.99811150">
        <ele>765.00000</ele>
        <time>2009-07-31T10:35:25Z</time>
      </trkpt>
      <trkpt lat="43.39254010" lon="12.99812920">
        <ele>765.00000</ele>
        <time>2009-07-31T10:35:26Z</time>
      </trkpt>
      <trkpt lat="43.39252490" lon="12.99816090">
        <ele>765.00000</ele>
        <time>2009-07-31T10:35:27Z</time>
      </trkpt>
      <trkpt lat="43.39250970" lon="12.99818490">
        <ele>765.00000</ele>
        <time>2009-07-31T10:35:28Z</time>
      </trkpt>
      <trkpt lat="43.39250200" lon="12.99821510">
        <ele>765.00000</ele>
        <time>2009-07-31T10:35:29Z</time>
      </trkpt>
      <trkpt lat="43.39248530" lon="12.99824440">
        <ele>765.00000</ele>
        <time>2009-07-31T10:35:30Z</time>
      </trkpt>
      <trkpt lat="43.39246920" lon="12.99828360">
        <ele>765.00000</ele>
        <time>2009-07-31T10:35:31Z</time>
      </trkpt>
      <trkpt lat="43.39244760" lon="12.99830220">
        <ele>765.00000</ele>
        <time>2009-07-31T10:35:32Z</time>
      </trkpt>
      <trkpt lat="43.39243060" lon="12.99832530">
        <ele>765.00000</ele>
        <time>2009-07-31T10:35:33Z</time>
      </trkpt>
      <trkpt lat="43.39240890" lon="12.99833510">
        <ele>765.00000</ele>
        <time>2009-07-31T10:35:34Z</time>
      </trkpt>
      <trkpt lat="43.39239290" lon="12.99834130">
        <ele>765.00000</ele>
        <time>2009-07-31T10:35:35Z</time>
      </trkpt>
      <trkpt lat="43.39236940" lon="12.99834450">
        <ele>765.00000</ele>
        <time>2009-07-31T10:35:36Z</time>
      </trkpt>
      <trkpt lat="43.39234980" lon="12.99834330">
        <ele>765.00000</ele>
        <time>2009-07-31T10:35:36Z</time>
      </trkpt>
      <trkpt lat="43.39234380" lon="12.99833330">
        <ele>765.00000</ele>
        <time>2009-07-31T10:35:37Z</time>
      </trkpt>
      <trkpt lat="43.39233740" lon="12.99830120">
        <ele>765.00000</ele>
        <time>2009-07-31T10:35:38Z</time>
      </trkpt>
      <trkpt lat="43.39231180" lon="12.99829510">
        <ele>765.00000</ele>
        <time>2009-07-31T10:35:39Z</time>
      </trkpt>
      <trkpt lat="43.39229200" lon="12.99828820">
        <ele>765.00000</ele>
        <time>2009-07-31T10:35:40Z</time>
      </trkpt>
      <trkpt lat="43.39227060" lon="12.99827350">
        <ele>765.00000</ele>
        <time>2009-07-31T10:35:41Z</time>
      </trkpt>
      <trkpt lat="43.39224750" lon="12.99827440">
        <ele>765.00000</ele>
        <time>2009-07-31T10:35:42Z</time>
      </trkpt>
      <trkpt lat="43.39223370" lon="12.99827570">
        <ele>765.00000</ele>
        <time>2009-07-31T10:35:42Z</time>
      </trkpt>
      <trkpt lat="43.39219950" lon="12.99827080">
        <ele>765.00000</ele>
        <time>2009-07-31T10:35:43Z</time>
      </trkpt>
      <trkpt lat="43.39218100" lon="12.99827740">
        <ele>765.00000</ele>
        <time>2009-07-31T10:35:44Z</time>
      </trkpt>
      <trkpt lat="43.39215240" lon="12.99827470">
        <ele>765.00000</ele>
        <time>2009-07-31T10:35:45Z</time>
      </trkpt>
      <trkpt lat="43.39212900" lon="12.99830160">
        <ele>765.00000</ele>
        <time>2009-07-31T10:35:47Z</time>
      </trkpt>
      <trkpt lat="43.39210310" lon="12.99832470">
        <ele>765.00000</ele>
        <time>2009-07-31T10:35:48Z</time>
      </trkpt>
      <trkpt lat="43.39208210" lon="12.99836030">
        <ele>786.00000</ele>
        <time>2009-07-31T10:35:49Z</time>
      </trkpt>
      <trkpt lat="43.39206410" lon="12.99838590">
        <ele>786.00000</ele>
        <time>2009-07-31T10:35:50Z</time>
      </trkpt>
      <trkpt lat="43.39205010" lon="12.99841250">
        <ele>786.00000</ele>
        <time>2009-07-31T10:35:51Z</time>
      </trkpt>
      <trkpt lat="43.39204090" lon="12.99843140">
        <ele>786.00000</ele>
        <time>2009-07-31T10:35:52Z</time>
      </trkpt>
      <trkpt lat="43.39202690" lon="12.99847390">
        <ele>786.00000</ele>
        <time>2009-07-31T10:35:53Z</time>
      </trkpt>
      <trkpt lat="43.39201320" lon="12.99849190">
        <ele>786.00000</ele>
        <time>2009-07-31T10:35:54Z</time>
      </trkpt>
      <trkpt lat="43.39200670" lon="12.99850780">
        <ele>786.00000</ele>
        <time>2009-07-31T10:35:54Z</time>
      </trkpt>
      <trkpt lat="43.39199700" lon="12.99853580">
        <ele>786.00000</ele>
        <time>2009-07-31T10:35:55Z</time>
      </trkpt>
      <trkpt lat="43.39198450" lon="12.99856630">
        <ele>786.00000</ele>
        <time>2009-07-31T10:35:56Z</time>
      </trkpt>
      <trkpt lat="43.39197620" lon="12.99860180">
        <ele>786.00000</ele>
        <time>2009-07-31T10:35:57Z</time>
      </trkpt>
      <trkpt lat="43.39195560" lon="12.99863160">
        <ele>786.00000</ele>
        <time>2009-07-31T10:35:59Z</time>
      </trkpt>
      <trkpt lat="43.39194580" lon="12.99866140">
        <ele>786.00000</ele>
        <time>2009-07-31T10:36:00Z</time>
      </trkpt>
      <trkpt lat="43.39192790" lon="12.99868320">
        <ele>786.00000</ele>
        <time>2009-07-31T10:36:01Z</time>
      </trkpt>
      <trkpt lat="43.39190950" lon="12.99871130">
        <ele>786.00000</ele>
        <time>2009-07-31T10:36:02Z</time>
      </trkpt>
      <trkpt lat="43.39191380" lon="12.99872020">
        <ele>786.00000</ele>
        <time>2009-07-31T10:36:02Z</time>
      </trkpt>
      <trkpt lat="43.39190820" lon="12.99872890">
        <ele>786.00000</ele>
        <time>2009-07-31T10:36:02Z</time>
      </trkpt>
      <trkpt lat="43.39189980" lon="12.99870510">
        <ele>786.00000</ele>
        <time>2009-07-31T10:36:03Z</time>
      </trkpt>
      <trkpt lat="43.39189600" lon="12.99870980">
        <ele>786.00000</ele>
        <time>2009-07-31T10:36:03Z</time>
      </trkpt>
      <trkpt lat="43.39188730" lon="12.99871310">
        <ele>786.00000</ele>
        <time>2009-07-31T10:36:04Z</time>
      </trkpt>
      <trkpt lat="43.39187530" lon="12.99873320">
        <ele>786.00000</ele>
        <time>2009-07-31T10:36:04Z</time>
      </trkpt>
      <trkpt lat="43.39186850" lon="12.99875680">
        <ele>783.00000</ele>
        <time>2009-07-31T10:36:05Z</time>
      </trkpt>
      <trkpt lat="43.39186100" lon="12.99878740">
        <ele>783.00000</ele>
        <time>2009-07-31T10:36:06Z</time>
      </trkpt>
      <trkpt lat="43.39184790" lon="12.99881410">
        <ele>783.00000</ele>
        <time>2009-07-31T10:36:07Z</time>
      </trkpt>
      <trkpt lat="43.39184420" lon="12.99882770">
        <ele>783.00000</ele>
        <time>2009-07-31T10:36:07Z</time>
      </trkpt>
      <trkpt lat="43.39183670" lon="12.99884980">
        <ele>783.00000</ele>
        <time>2009-07-31T10:36:08Z</time>
      </trkpt>
      <trkpt lat="43.39182150" lon="12.99888530">
        <ele>783.00000</ele>
        <time>2009-07-31T10:36:09Z</time>
      </trkpt>
      <trkpt lat="43.39181660" lon="12.99891090">
        <ele>783.00000</ele>
        <time>2009-07-31T10:36:10Z</time>
      </trkpt>
      <trkpt lat="43.39180820" lon="12.99893740">
        <ele>783.00000</ele>
        <time>2009-07-31T10:36:11Z</time>
      </trkpt>
      <trkpt lat="43.39180300" lon="12.99895640">
        <ele>783.00000</ele>
        <time>2009-07-31T10:36:12Z</time>
      </trkpt>
      <trkpt lat="43.39179210" lon="12.99897480">
        <ele>783.00000</ele>
        <time>2009-07-31T10:36:12Z</time>
      </trkpt>
      <trkpt lat="43.39178830" lon="12.99898800">
        <ele>783.00000</ele>
        <time>2009-07-31T10:36:13Z</time>
      </trkpt>
      <trkpt lat="43.39177320" lon="12.99901800">
        <ele>783.00000</ele>
        <time>2009-07-31T10:36:14Z</time>
      </trkpt>
      <trkpt lat="43.39175970" lon="12.99904000">
        <ele>783.00000</ele>
        <time>2009-07-31T10:36:15Z</time>
      </trkpt>
      <trkpt lat="43.39176460" lon="12.99906270">
        <ele>783.00000</ele>
        <time>2009-07-31T10:36:15Z</time>
      </trkpt>
      <trkpt lat="43.39175890" lon="12.99908780">
        <ele>783.00000</ele>
        <time>2009-07-31T10:36:16Z</time>
      </trkpt>
      <trkpt lat="43.39175600" lon="12.99911150">
        <ele>783.00000</ele>
        <time>2009-07-31T10:36:17Z</time>
      </trkpt>
      <trkpt lat="43.39175660" lon="12.99913410">
        <ele>783.00000</ele>
        <time>2009-07-31T10:36:17Z</time>
      </trkpt>
      <trkpt lat="43.39174760" lon="12.99915850">
        <ele>783.00000</ele>
        <time>2009-07-31T10:36:18Z</time>
      </trkpt>
      <trkpt lat="43.39173370" lon="12.99918350">
        <ele>783.00000</ele>
        <time>2009-07-31T10:36:19Z</time>
      </trkpt>
      <trkpt lat="43.39172660" lon="12.99921360">
        <ele>783.00000</ele>
        <time>2009-07-31T10:36:20Z</time>
      </trkpt>
      <trkpt lat="43.39172220" lon="12.99923320">
        <ele>783.00000</ele>
        <time>2009-07-31T10:36:21Z</time>
      </trkpt>
      <trkpt lat="43.39171340" lon="12.99926450">
        <ele>783.00000</ele>
        <time>2009-07-31T10:36:22Z</time>
      </trkpt>
      <trkpt lat="43.39170780" lon="12.99928580">
        <ele>783.00000</ele>
        <time>2009-07-31T10:36:22Z</time>
      </trkpt>
      <trkpt lat="43.39170560" lon="12.99931600">
        <ele>783.00000</ele>
        <time>2009-07-31T10:36:23Z</time>
      </trkpt>
      <trkpt lat="43.39170200" lon="12.99933640">
        <ele>783.00000</ele>
        <time>2009-07-31T10:36:24Z</time>
      </trkpt>
      <trkpt lat="43.39170840" lon="12.99935430">
        <ele>783.00000</ele>
        <time>2009-07-31T10:36:24Z</time>
      </trkpt>
      <trkpt lat="43.39171560" lon="12.99937590">
        <ele>783.00000</ele>
        <time>2009-07-31T10:36:25Z</time>
      </trkpt>
      <trkpt lat="43.39171890" lon="12.99940080">
        <ele>783.00000</ele>
        <time>2009-07-31T10:36:26Z</time>
      </trkpt>
      <trkpt lat="43.39171980" lon="12.99942230">
        <ele>783.00000</ele>
        <time>2009-07-31T10:36:26Z</time>
      </trkpt>
      <trkpt lat="43.39172090" lon="12.99945140">
        <ele>783.00000</ele>
        <time>2009-07-31T10:36:27Z</time>
      </trkpt>
      <trkpt lat="43.39171610" lon="12.99947460">
        <ele>783.00000</ele>
        <time>2009-07-31T10:36:28Z</time>
      </trkpt>
      <trkpt lat="43.39171220" lon="12.99949790">
        <ele>783.00000</ele>
        <time>2009-07-31T10:36:29Z</time>
      </trkpt>
      <trkpt lat="43.39171520" lon="12.99951490">
        <ele>783.00000</ele>
        <time>2009-07-31T10:36:29Z</time>
      </trkpt>
      <trkpt lat="43.39171340" lon="12.99954820">
        <ele>783.00000</ele>
        <time>2009-07-31T10:36:30Z</time>
      </trkpt>
      <trkpt lat="43.39171130" lon="12.99956500">
        <ele>783.00000</ele>
        <time>2009-07-31T10:36:31Z</time>
      </trkpt>
      <trkpt lat="43.39171080" lon="12.99958400">
        <ele>788.00000</ele>
        <time>2009-07-31T10:36:31Z</time>
      </trkpt>
      <trkpt lat="43.39171850" lon="12.99959940">
        <ele>788.00000</ele>
        <time>2009-07-31T10:36:32Z</time>
      </trkpt>
      <trkpt lat="43.39171140" lon="12.99962470">
        <ele>788.00000</ele>
        <time>2009-07-31T10:36:32Z</time>
      </trkpt>
      <trkpt lat="43.39171240" lon="12.99964720">
        <ele>788.00000</ele>
        <time>2009-07-31T10:36:33Z</time>
      </trkpt>
      <trkpt lat="43.39170730" lon="12.99965930">
        <ele>788.00000</ele>
        <time>2009-07-31T10:36:34Z</time>
      </trkpt>
      <trkpt lat="43.39170910" lon="12.99968680">
        <ele>788.00000</ele>
        <time>2009-07-31T10:36:34Z</time>
      </trkpt>
      <trkpt lat="43.39171310" lon="12.99971170">
        <ele>788.00000</ele>
        <time>2009-07-31T10:36:35Z</time>
      </trkpt>
      <trkpt lat="43.39171300" lon="12.99973750">
        <ele>788.00000</ele>
        <time>2009-07-31T10:36:36Z</time>
      </trkpt>
      <trkpt lat="43.39171100" lon="12.99975880">
        <ele>788.00000</ele>
        <time>2009-07-31T10:36:36Z</time>
      </trkpt>
      <trkpt lat="43.39170230" lon="12.99978680">
        <ele>788.00000</ele>
        <time>2009-07-31T10:36:37Z</time>
      </trkpt>
      <trkpt lat="43.39170630" lon="12.99980520">
        <ele>788.00000</ele>
        <time>2009-07-31T10:36:38Z</time>
      </trkpt>
      <trkpt lat="43.39169390" lon="12.99983330">
        <ele>788.00000</ele>
        <time>2009-07-31T10:36:39Z</time>
      </trkpt>
      <trkpt lat="43.39169280" lon="12.99985460">
        <ele>788.00000</ele>
        <time>2009-07-31T10:36:39Z</time>
      </trkpt>
      <trkpt lat="43.39168560" lon="12.99988510">
        <ele>788.00000</ele>
        <time>2009-07-31T10:36:40Z</time>
      </trkpt>
      <trkpt lat="43.39169090" lon="12.99990410">
        <ele>788.00000</ele>
        <time>2009-07-31T10:36:41Z</time>
      </trkpt>
      <trkpt lat="43.39168160" lon="12.99993240">
        <ele>788.00000</ele>
        <time>2009-07-31T10:36:42Z</time>
      </trkpt>
      <trkpt lat="43.39169140" lon="12.99996490">
        <ele>788.00000</ele>
        <time>2009-07-31T10:36:43Z</time>
      </trkpt>
      <trkpt lat="43.39168320" lon="12.99999900">
        <ele>788.00000</ele>
        <time>2009-07-31T10:36:44Z</time>
      </trkpt>
      <trkpt lat="43.39166000" lon="13.00002350">
        <ele>788.00000</ele>
        <time>2009-07-31T10:36:45Z</time>
      </trkpt>
      <trkpt lat="43.39165900" lon="13.00005170">
        <ele>788.00000</ele>
        <time>2009-07-31T10:36:46Z</time>
      </trkpt>
      <trkpt lat="43.39165210" lon="13.00007360">
        <ele>788.00000</ele>
        <time>2009-07-31T10:36:47Z</time>
      </trkpt>
      <trkpt lat="43.39164500" lon="13.00009370">
        <ele>788.00000</ele>
        <time>2009-07-31T10:36:47Z</time>
      </trkpt>
      <trkpt lat="43.39164770" lon="13.00011800">
        <ele>788.00000</ele>
        <time>2009-07-31T10:36:48Z</time>
      </trkpt>
      <trkpt lat="43.39163470" lon="13.00014130">
        <ele>788.00000</ele>
        <time>2009-07-31T10:36:49Z</time>
      </trkpt>
      <trkpt lat="43.39163660" lon="13.00015940">
        <ele>788.00000</ele>
        <time>2009-07-31T10:36:49Z</time>
      </trkpt>
      <trkpt lat="43.39163460" lon="13.00018440">
        <ele>788.00000</ele>
        <time>2009-07-31T10:36:50Z</time>
      </trkpt>
      <trkpt lat="43.39163320" lon="13.00020770">
        <ele>788.00000</ele>
        <time>2009-07-31T10:36:51Z</time>
      </trkpt>
      <trkpt lat="43.39162970" lon="13.00023670">
        <ele>788.00000</ele>
        <time>2009-07-31T10:36:52Z</time>
      </trkpt>
      <trkpt lat="43.39161800" lon="13.00026940">
        <ele>788.00000</ele>
        <time>2009-07-31T10:36:53Z</time>
      </trkpt>
      <trkpt lat="43.39161620" lon="13.00030430">
        <ele>788.00000</ele>
        <time>2009-07-31T10:36:54Z</time>
      </trkpt>
      <trkpt lat="43.39160810" lon="13.00033470">
        <ele>788.00000</ele>
        <time>2009-07-31T10:36:55Z</time>
      </trkpt>
      <trkpt lat="43.39159800" lon="13.00037030">
        <ele>788.00000</ele>
        <time>2009-07-31T10:36:56Z</time>
      </trkpt>
      <trkpt lat="43.39159380" lon="13.00039780">
        <ele>788.00000</ele>
        <time>2009-07-31T10:36:57Z</time>
      </trkpt>
      <trkpt lat="43.39159570" lon="13.00043370">
        <ele>791.00000</ele>
        <time>2009-07-31T10:36:58Z</time>
      </trkpt>
      <trkpt lat="43.39160580" lon="13.00045750">
        <ele>791.00000</ele>
        <time>2009-07-31T10:36:58Z</time>
      </trkpt>
      <trkpt lat="43.39161590" lon="13.00048740">
        <ele>791.00000</ele>
        <time>2009-07-31T10:36:59Z</time>
      </trkpt>
      <trkpt lat="43.39160730" lon="13.00050670">
        <ele>791.00000</ele>
        <time>2009-07-31T10:37:00Z</time>
      </trkpt>
      <trkpt lat="43.39159640" lon="13.00053410">
        <ele>791.00000</ele>
        <time>2009-07-31T10:37:01Z</time>
      </trkpt>
      <trkpt lat="43.39159630" lon="13.00055860">
        <ele>791.00000</ele>
        <time>2009-07-31T10:37:02Z</time>
      </trkpt>
      <trkpt lat="43.39159360" lon="13.00058800">
        <ele>791.00000</ele>
        <time>2009-07-31T10:37:03Z</time>
      </trkpt>
      <trkpt lat="43.39159290" lon="13.00060690">
        <ele>791.00000</ele>
        <time>2009-07-31T10:37:03Z</time>
      </trkpt>
      <trkpt lat="43.39158060" lon="13.00062150">
        <ele>791.00000</ele>
        <time>2009-07-31T10:37:04Z</time>
      </trkpt>
      <trkpt lat="43.39158780" lon="13.00063180">
        <ele>791.00000</ele>
        <time>2009-07-31T10:37:04Z</time>
      </trkpt>
      <trkpt lat="43.39157970" lon="13.00065060">
        <ele>791.00000</ele>
        <time>2009-07-31T10:37:05Z</time>
      </trkpt>
      <trkpt lat="43.39157190" lon="13.00067560">
        <ele>791.00000</ele>
        <time>2009-07-31T10:37:06Z</time>
      </trkpt>
      <trkpt lat="43.39157630" lon="13.00069530">
        <ele>791.00000</ele>
        <time>2009-07-31T10:37:06Z</time>
      </trkpt>
      <trkpt lat="43.39156760" lon="13.00072600">
        <ele>791.00000</ele>
        <time>2009-07-31T10:37:07Z</time>
      </trkpt>
      <trkpt lat="43.39155350" lon="13.00075520">
        <ele>791.00000</ele>
        <time>2009-07-31T10:37:08Z</time>
      </trkpt>
      <trkpt lat="43.39154560" lon="13.00078080">
        <ele>791.00000</ele>
        <time>2009-07-31T10:37:09Z</time>
      </trkpt>
      <trkpt lat="43.39153190" lon="13.00080530">
        <ele>791.00000</ele>
        <time>2009-07-31T10:37:10Z</time>
      </trkpt>
      <trkpt lat="43.39152560" lon="13.00083530">
        <ele>791.00000</ele>
        <time>2009-07-31T10:37:11Z</time>
      </trkpt>
      <trkpt lat="43.39152530" lon="13.00086140">
        <ele>791.00000</ele>
        <time>2009-07-31T10:37:12Z</time>
      </trkpt>
      <trkpt lat="43.39151860" lon="13.00089300">
        <ele>791.00000</ele>
        <time>2009-07-31T10:37:13Z</time>
      </trkpt>
      <trkpt lat="43.39152620" lon="13.00091670">
        <ele>791.00000</ele>
        <time>2009-07-31T10:37:13Z</time>
      </trkpt>
      <trkpt lat="43.39151700" lon="13.00094800">
        <ele>791.00000</ele>
        <time>2009-07-31T10:37:14Z</time>
      </trkpt>
      <trkpt lat="43.39151760" lon="13.00096610">
        <ele>791.00000</ele>
        <time>2009-07-31T10:37:15Z</time>
      </trkpt>
      <trkpt lat="43.39150020" lon="13.00096160">
        <ele>791.00000</ele>
        <time>2009-07-31T10:37:15Z</time>
      </trkpt>
      <trkpt lat="43.39149380" lon="13.00096530">
        <ele>791.00000</ele>
        <time>2009-07-31T10:37:16Z</time>
      </trkpt>
      <trkpt lat="43.39150930" lon="13.00096190">
        <ele>791.00000</ele>
        <time>2009-07-31T10:37:16Z</time>
      </trkpt>
      <trkpt lat="43.39150960" lon="13.00095870">
        <ele>791.00000</ele>
        <time>2009-07-31T10:37:16Z</time>
      </trkpt>
      <trkpt lat="43.39151000" lon="13.00095800">
        <ele>791.00000</ele>
        <time>2009-07-31T10:37:16Z</time>
      </trkpt>
      <trkpt lat="43.39151050" lon="13.00095700">
        <ele>791.00000</ele>
        <time>2009-07-31T10:37:17Z</time>
      </trkpt>
      <trkpt lat="43.39150860" lon="13.00096200">
        <ele>791.00000</ele>
        <time>2009-07-31T10:37:17Z</time>
      </trkpt>
      <trkpt lat="43.39150390" lon="13.00096720">
        <ele>791.00000</ele>
        <time>2009-07-31T10:37:17Z</time>
      </trkpt>
      <trkpt lat="43.39150340" lon="13.00096560">
        <ele>791.00000</ele>
        <time>2009-07-31T10:37:17Z</time>
      </trkpt>
      <trkpt lat="43.39150090" lon="13.00096880">
        <ele>791.00000</ele>
        <time>2009-07-31T10:37:17Z</time>
      </trkpt>
      <trkpt lat="43.39149830" lon="13.00097170">
        <ele>791.00000</ele>
        <time>2009-07-31T10:37:17Z</time>
      </trkpt>
      <trkpt lat="43.39149600" lon="13.00097220">
        <ele>791.00000</ele>
        <time>2009-07-31T10:37:17Z</time>
      </trkpt>
      <trkpt lat="43.39149430" lon="13.00097750">
        <ele>791.00000</ele>
        <time>2009-07-31T10:37:18Z</time>
      </trkpt>
      <trkpt lat="43.39148850" lon="13.00099450">
        <ele>791.00000</ele>
        <time>2009-07-31T10:37:18Z</time>
      </trkpt>
      <trkpt lat="43.39147750" lon="13.00102030">
        <ele>791.00000</ele>
        <time>2009-07-31T10:37:19Z</time>
      </trkpt>
      <trkpt lat="43.39146180" lon="13.00104110">
        <ele>791.00000</ele>
        <time>2009-07-31T10:37:20Z</time>
      </trkpt>
      <trkpt lat="43.39145680" lon="13.00106750">
        <ele>791.00000</ele>
        <time>2009-07-31T10:37:21Z</time>
      </trkpt>
      <trkpt lat="43.39146050" lon="13.00109390">
        <ele>791.00000</ele>
        <time>2009-07-31T10:37:21Z</time>
      </trkpt>
      <trkpt lat="43.39146230" lon="13.00111740">
        <ele>791.00000</ele>
        <time>2009-07-31T10:37:22Z</time>
      </trkpt>
      <trkpt lat="43.39145350" lon="13.00114210">
        <ele>791.00000</ele>
        <time>2009-07-31T10:37:23Z</time>
      </trkpt>
      <trkpt lat="43.39146030" lon="13.00116810">
        <ele>791.00000</ele>
        <time>2009-07-31T10:37:24Z</time>
      </trkpt>
      <trkpt lat="43.39146630" lon="13.00119010">
        <ele>791.00000</ele>
        <time>2009-07-31T10:37:24Z</time>
      </trkpt>
      <trkpt lat="43.39148020" lon="13.00121270">
        <ele>791.00000</ele>
        <time>2009-07-31T10:37:25Z</time>
      </trkpt>
      <trkpt lat="43.39147730" lon="13.00124180">
        <ele>791.00000</ele>
        <time>2009-07-31T10:37:26Z</time>
      </trkpt>
      <trkpt lat="43.39148310" lon="13.00126170">
        <ele>799.00000</ele>
        <time>2009-07-31T10:37:27Z</time>
      </trkpt>
      <trkpt lat="43.39148380" lon="13.00129570">
        <ele>799.00000</ele>
        <time>2009-07-31T10:37:28Z</time>
      </trkpt>
      <trkpt lat="43.39150720" lon="13.00131440">
        <ele>799.00000</ele>
        <time>2009-07-31T10:37:29Z</time>
      </trkpt>
      <trkpt lat="43.39150370" lon="13.00133770">
        <ele>799.00000</ele>
        <time>2009-07-31T10:37:29Z</time>
      </trkpt>
      <trkpt lat="43.39150430" lon="13.00136640">
        <ele>799.00000</ele>
        <time>2009-07-31T10:37:30Z</time>
      </trkpt>
      <trkpt lat="43.39151060" lon="13.00138950">
        <ele>799.00000</ele>
        <time>2009-07-31T10:37:31Z</time>
      </trkpt>
      <trkpt lat="43.39151390" lon="13.00141170">
        <ele>799.00000</ele>
        <time>2009-07-31T10:37:32Z</time>
      </trkpt>
      <trkpt lat="43.39150940" lon="13.00143300">
        <ele>799.00000</ele>
        <time>2009-07-31T10:37:32Z</time>
      </trkpt>
      <trkpt lat="43.39150940" lon="13.00145870">
        <ele>799.00000</ele>
        <time>2009-07-31T10:37:33Z</time>
      </trkpt>
      <trkpt lat="43.39149500" lon="13.00147400">
        <ele>799.00000</ele>
        <time>2009-07-31T10:37:34Z</time>
      </trkpt>
      <trkpt lat="43.39148670" lon="13.00150300">
        <ele>799.00000</ele>
        <time>2009-07-31T10:37:35Z</time>
      </trkpt>
      <trkpt lat="43.39148400" lon="13.00152250">
        <ele>799.00000</ele>
        <time>2009-07-31T10:37:35Z</time>
      </trkpt>
      <trkpt lat="43.39148210" lon="13.00153490">
        <ele>799.00000</ele>
        <time>2009-07-31T10:37:36Z</time>
      </trkpt>
      <trkpt lat="43.39148050" lon="13.00156000">
        <ele>799.00000</ele>
        <time>2009-07-31T10:37:36Z</time>
      </trkpt>
      <trkpt lat="43.39147730" lon="13.00158660">
        <ele>799.00000</ele>
        <time>2009-07-31T10:37:37Z</time>
      </trkpt>
      <trkpt lat="43.39147670" lon="13.00160750">
        <ele>799.00000</ele>
        <time>2009-07-31T10:37:38Z</time>
      </trkpt>
      <trkpt lat="43.39148020" lon="13.00163650">
        <ele>799.00000</ele>
        <time>2009-07-31T10:37:39Z</time>
      </trkpt>
      <trkpt lat="43.39148190" lon="13.00166370">
        <ele>799.00000</ele>
        <time>2009-07-31T10:37:39Z</time>
      </trkpt>
      <trkpt lat="43.39148180" lon="13.00168390">
        <ele>799.00000</ele>
        <time>2009-07-31T10:37:40Z</time>
      </trkpt>
      <trkpt lat="43.39146470" lon="13.00168930">
        <ele>799.00000</ele>
        <time>2009-07-31T10:37:41Z</time>
      </trkpt>
      <trkpt lat="43.39147430" lon="13.00169890">
        <ele>799.00000</ele>
        <time>2009-07-31T10:37:41Z</time>
      </trkpt>
      <trkpt lat="43.39146970" lon="13.00172170">
        <ele>799.00000</ele>
        <time>2009-07-31T10:37:42Z</time>
      </trkpt>
      <trkpt lat="43.39145890" lon="13.00174620">
        <ele>799.00000</ele>
        <time>2009-07-31T10:37:43Z</time>
      </trkpt>
      <trkpt lat="43.39145540" lon="13.00176320">
        <ele>799.00000</ele>
        <time>2009-07-31T10:37:43Z</time>
      </trkpt>
      <trkpt lat="43.39146150" lon="13.00179120">
        <ele>799.00000</ele>
        <time>2009-07-31T10:37:44Z</time>
      </trkpt>
      <trkpt lat="43.39145730" lon="13.00181340">
        <ele>799.00000</ele>
        <time>2009-07-31T10:37:45Z</time>
      </trkpt>
      <trkpt lat="43.39144750" lon="13.00184230">
        <ele>799.00000</ele>
        <time>2009-07-31T10:37:46Z</time>
      </trkpt>
      <trkpt lat="43.39144560" lon="13.00186590">
        <ele>799.00000</ele>
        <time>2009-07-31T10:37:46Z</time>
      </trkpt>
      <trkpt lat="43.39144950" lon="13.00189070">
        <ele>799.00000</ele>
        <time>2009-07-31T10:37:47Z</time>
      </trkpt>
      <trkpt lat="43.39144880" lon="13.00192130">
        <ele>799.00000</ele>
        <time>2009-07-31T10:37:48Z</time>
      </trkpt>
      <trkpt lat="43.39144850" lon="13.00194550">
        <ele>799.00000</ele>
        <time>2009-07-31T10:37:49Z</time>
      </trkpt>
      <trkpt lat="43.39144780" lon="13.00196880">
        <ele>799.00000</ele>
        <time>2009-07-31T10:37:49Z</time>
      </trkpt>
      <trkpt lat="43.39144180" lon="13.00199470">
        <ele>799.00000</ele>
        <time>2009-07-31T10:37:50Z</time>
      </trkpt>
      <trkpt lat="43.39144370" lon="13.00201530">
        <ele>799.00000</ele>
        <time>2009-07-31T10:37:51Z</time>
      </trkpt>
      <trkpt lat="43.39143680" lon="13.00204180">
        <ele>799.00000</ele>
        <time>2009-07-31T10:37:52Z</time>
      </trkpt>
      <trkpt lat="43.39142960" lon="13.00206420">
        <ele>799.00000</ele>
        <time>2009-07-31T10:37:52Z</time>
      </trkpt>
      <trkpt lat="43.39143650" lon="13.00208610">
        <ele>805.00000</ele>
        <time>2009-07-31T10:37:53Z</time>
      </trkpt>
      <trkpt lat="43.39144160" lon="13.00211680">
        <ele>805.00000</ele>
        <time>2009-07-31T10:37:54Z</time>
      </trkpt>
      <trkpt lat="43.39144270" lon="13.00214200">
        <ele>805.00000</ele>
        <time>2009-07-31T10:37:55Z</time>
      </trkpt>
      <trkpt lat="43.39144290" lon="13.00217280">
        <ele>805.00000</ele>
        <time>2009-07-31T10:37:56Z</time>
      </trkpt>
      <trkpt lat="43.39144220" lon="13.00219310">
        <ele>805.00000</ele>
        <time>2009-07-31T10:37:56Z</time>
      </trkpt>
      <trkpt lat="43.39144000" lon="13.00222230">
        <ele>805.00000</ele>
        <time>2009-07-31T10:37:57Z</time>
      </trkpt>
      <trkpt lat="43.39144110" lon="13.00225590">
        <ele>805.00000</ele>
        <time>2009-07-31T10:37:58Z</time>
      </trkpt>
      <trkpt lat="43.39143590" lon="13.00227800">
        <ele>805.00000</ele>
        <time>2009-07-31T10:37:59Z</time>
      </trkpt>
      <trkpt lat="43.39144600" lon="13.00230180">
        <ele>805.00000</ele>
        <time>2009-07-31T10:37:59Z</time>
      </trkpt>
      <trkpt lat="43.39143510" lon="13.00232750">
        <ele>805.00000</ele>
        <time>2009-07-31T10:38:00Z</time>
      </trkpt>
      <trkpt lat="43.39143110" lon="13.00235400">
        <ele>805.00000</ele>
        <time>2009-07-31T10:38:01Z</time>
      </trkpt>
      <trkpt lat="43.39143210" lon="13.00237860">
        <ele>805.00000</ele>
        <time>2009-07-31T10:38:02Z</time>
      </trkpt>
      <trkpt lat="43.39143270" lon="13.00240810">
        <ele>805.00000</ele>
        <time>2009-07-31T10:38:03Z</time>
      </trkpt>
      <trkpt lat="43.39143790" lon="13.00243270">
        <ele>805.00000</ele>
        <time>2009-07-31T10:38:03Z</time>
      </trkpt>
      <trkpt lat="43.39143440" lon="13.00245710">
        <ele>805.00000</ele>
        <time>2009-07-31T10:38:04Z</time>
      </trkpt>
      <trkpt lat="43.39143600" lon="13.00247330">
        <ele>805.00000</ele>
        <time>2009-07-31T10:38:05Z</time>
      </trkpt>
      <trkpt lat="43.39143940" lon="13.00249390">
        <ele>805.00000</ele>
        <time>2009-07-31T10:38:05Z</time>
      </trkpt>
      <trkpt lat="43.39144300" lon="13.00251280">
        <ele>805.00000</ele>
        <time>2009-07-31T10:38:06Z</time>
      </trkpt>
      <trkpt lat="43.39145780" lon="13.00254060">
        <ele>805.00000</ele>
        <time>2009-07-31T10:38:07Z</time>
      </trkpt>
      <trkpt lat="43.39146070" lon="13.00256490">
        <ele>805.00000</ele>
        <time>2009-07-31T10:38:07Z</time>
      </trkpt>
      <trkpt lat="43.39145620" lon="13.00259210">
        <ele>805.00000</ele>
        <time>2009-07-31T10:38:08Z</time>
      </trkpt>
      <trkpt lat="43.39144840" lon="13.00260620">
        <ele>805.00000</ele>
        <time>2009-07-31T10:38:09Z</time>
      </trkpt>
      <trkpt lat="43.39144370" lon="13.00263540">
        <ele>805.00000</ele>
        <time>2009-07-31T10:38:10Z</time>
      </trkpt>
      <trkpt lat="43.39143070" lon="13.00265180">
        <ele>805.00000</ele>
        <time>2009-07-31T10:38:10Z</time>
      </trkpt>
      <trkpt lat="43.39143020" lon="13.00267410">
        <ele>805.00000</ele>
        <time>2009-07-31T10:38:11Z</time>
      </trkpt>
      <trkpt lat="43.39143310" lon="13.00270250">
        <ele>805.00000</ele>
        <time>2009-07-31T10:38:12Z</time>
      </trkpt>
      <trkpt lat="43.39142790" lon="13.00273190">
        <ele>805.00000</ele>
        <time>2009-07-31T10:38:13Z</time>
      </trkpt>
      <trkpt lat="43.39142680" lon="13.00275440">
        <ele>805.00000</ele>
        <time>2009-07-31T10:38:13Z</time>
      </trkpt>
      <trkpt lat="43.39142580" lon="13.00277640">
        <ele>805.00000</ele>
        <time>2009-07-31T10:38:14Z</time>
      </trkpt>
      <trkpt lat="43.39142510" lon="13.00279680">
        <ele>805.00000</ele>
        <time>2009-07-31T10:38:15Z</time>
      </trkpt>
      <trkpt lat="43.39142830" lon="13.00282760">
        <ele>805.00000</ele>
        <time>2009-07-31T10:38:16Z</time>
      </trkpt>
      <trkpt lat="43.39143200" lon="13.00285410">
        <ele>805.00000</ele>
        <time>2009-07-31T10:38:16Z</time>
      </trkpt>
      <trkpt lat="43.39143130" lon="13.00288830">
        <ele>805.00000</ele>
        <time>2009-07-31T10:38:17Z</time>
      </trkpt>
      <trkpt lat="43.39141710" lon="13.00290890">
        <ele>805.00000</ele>
        <time>2009-07-31T10:38:18Z</time>
      </trkpt>
      <trkpt lat="43.39141630" lon="13.00292810">
        <ele>815.00000</ele>
        <time>2009-07-31T10:38:19Z</time>
      </trkpt>
      <trkpt lat="43.39141400" lon="13.00294760">
        <ele>815.00000</ele>
        <time>2009-07-31T10:38:19Z</time>
      </trkpt>
      <trkpt lat="43.39141170" lon="13.00296030">
        <ele>815.00000</ele>
        <time>2009-07-31T10:38:20Z</time>
      </trkpt>
      <trkpt lat="43.39141300" lon="13.00298220">
        <ele>815.00000</ele>
        <time>2009-07-31T10:38:20Z</time>
      </trkpt>
      <trkpt lat="43.39139930" lon="13.00300740">
        <ele>815.00000</ele>
        <time>2009-07-31T10:38:21Z</time>
      </trkpt>
      <trkpt lat="43.39139770" lon="13.00303180">
        <ele>815.00000</ele>
        <time>2009-07-31T10:38:22Z</time>
      </trkpt>
      <trkpt lat="43.39140060" lon="13.00305310">
        <ele>815.00000</ele>
        <time>2009-07-31T10:38:23Z</time>
      </trkpt>
      <trkpt lat="43.39140240" lon="13.00307620">
        <ele>815.00000</ele>
        <time>2009-07-31T10:38:23Z</time>
      </trkpt>
      <trkpt lat="43.39140500" lon="13.00310100">
        <ele>815.00000</ele>
        <time>2009-07-31T10:38:24Z</time>
      </trkpt>
      <trkpt lat="43.39139940" lon="13.00312580">
        <ele>815.00000</ele>
        <time>2009-07-31T10:38:25Z</time>
      </trkpt>
      <trkpt lat="43.39137920" lon="13.00314780">
        <ele>815.00000</ele>
        <time>2009-07-31T10:38:26Z</time>
      </trkpt>
      <trkpt lat="43.39138050" lon="13.00317910">
        <ele>815.00000</ele>
        <time>2009-07-31T10:38:27Z</time>
      </trkpt>
      <trkpt lat="43.39137530" lon="13.00320210">
        <ele>815.00000</ele>
        <time>2009-07-31T10:38:27Z</time>
      </trkpt>
      <trkpt lat="43.39137290" lon="13.00322330">
        <ele>815.00000</ele>
        <time>2009-07-31T10:38:28Z</time>
      </trkpt>
      <trkpt lat="43.39136650" lon="13.00324540">
        <ele>815.00000</ele>
        <time>2009-07-31T10:38:29Z</time>
      </trkpt>
      <trkpt lat="43.39136580" lon="13.00326720">
        <ele>815.00000</ele>
        <time>2009-07-31T10:38:29Z</time>
      </trkpt>
      <trkpt lat="43.39136490" lon="13.00328730">
        <ele>815.00000</ele>
        <time>2009-07-31T10:38:30Z</time>
      </trkpt>
      <trkpt lat="43.39136390" lon="13.00331440">
        <ele>815.00000</ele>
        <time>2009-07-31T10:38:31Z</time>
      </trkpt>
      <trkpt lat="43.39135950" lon="13.00333850">
        <ele>815.00000</ele>
        <time>2009-07-31T10:38:31Z</time>
      </trkpt>
      <trkpt lat="43.39135890" lon="13.00336120">
        <ele>815.00000</ele>
        <time>2009-07-31T10:38:32Z</time>
      </trkpt>
      <trkpt lat="43.39134630" lon="13.00338670">
        <ele>815.00000</ele>
        <time>2009-07-31T10:38:33Z</time>
      </trkpt>
      <trkpt lat="43.39133880" lon="13.00341150">
        <ele>815.00000</ele>
        <time>2009-07-31T10:38:34Z</time>
      </trkpt>
      <trkpt lat="43.39133950" lon="13.00343480">
        <ele>815.00000</ele>
        <time>2009-07-31T10:38:34Z</time>
      </trkpt>
      <trkpt lat="43.39134060" lon="13.00345740">
        <ele>815.00000</ele>
        <time>2009-07-31T10:38:35Z</time>
      </trkpt>
      <trkpt lat="43.39135570" lon="13.00348070">
        <ele>815.00000</ele>
        <time>2009-07-31T10:38:36Z</time>
      </trkpt>
      <trkpt lat="43.39134450" lon="13.00350410">
        <ele>815.00000</ele>
        <time>2009-07-31T10:38:37Z</time>
      </trkpt>
      <trkpt lat="43.39134010" lon="13.00352670">
        <ele>815.00000</ele>
        <time>2009-07-31T10:38:38Z</time>
      </trkpt>
      <trkpt lat="43.39134700" lon="13.00354750">
        <ele>815.00000</ele>
        <time>2009-07-31T10:38:38Z</time>
      </trkpt>
      <trkpt lat="43.39135250" lon="13.00357470">
        <ele>815.00000</ele>
        <time>2009-07-31T10:38:39Z</time>
      </trkpt>
      <trkpt lat="43.39135190" lon="13.00359440">
        <ele>815.00000</ele>
        <time>2009-07-31T10:38:40Z</time>
      </trkpt>
      <trkpt lat="43.39135340" lon="13.00362560">
        <ele>815.00000</ele>
        <time>2009-07-31T10:38:40Z</time>
      </trkpt>
      <trkpt lat="43.39135950" lon="13.00364790">
        <ele>815.00000</ele>
        <time>2009-07-31T10:38:41Z</time>
      </trkpt>
      <trkpt lat="43.39136550" lon="13.00365060">
        <ele>815.00000</ele>
        <time>2009-07-31T10:38:41Z</time>
      </trkpt>
      <trkpt lat="43.39136410" lon="13.00364950">
        <ele>815.00000</ele>
        <time>2009-07-31T10:38:41Z</time>
      </trkpt>
      <trkpt lat="43.39136230" lon="13.00366830">
        <ele>815.00000</ele>
        <time>2009-07-31T10:38:42Z</time>
      </trkpt>
      <trkpt lat="43.39134630" lon="13.00367450">
        <ele>815.00000</ele>
        <time>2009-07-31T10:38:43Z</time>
      </trkpt>
      <trkpt lat="43.39133270" lon="13.00368310">
        <ele>815.00000</ele>
        <time>2009-07-31T10:38:43Z</time>
      </trkpt>
      <trkpt lat="43.39133080" lon="13.00368800">
        <ele>815.00000</ele>
        <time>2009-07-31T10:38:43Z</time>
      </trkpt>
      <trkpt lat="43.39132710" lon="13.00370240">
        <ele>815.00000</ele>
        <time>2009-07-31T10:38:44Z</time>
      </trkpt>
      <trkpt lat="43.39132110" lon="13.00370800">
        <ele>815.00000</ele>
        <time>2009-07-31T10:38:44Z</time>
      </trkpt>
      <trkpt lat="43.39132240" lon="13.00370690">
        <ele>815.00000</ele>
        <time>2009-07-31T10:38:44Z</time>
      </trkpt>
      <trkpt lat="43.39132230" lon="13.00370630">
        <ele>815.00000</ele>
        <time>2009-07-31T10:38:44Z</time>
      </trkpt>
      <trkpt lat="43.39132430" lon="13.00370200">
        <ele>815.00000</ele>
        <time>2009-07-31T10:38:44Z</time>
      </trkpt>
      <trkpt lat="43.39132660" lon="13.00369670">
        <ele>815.00000</ele>
        <time>2009-07-31T10:38:45Z</time>
      </trkpt>
      <trkpt lat="43.39133340" lon="13.00370010">
        <ele>815.00000</ele>
        <time>2009-07-31T10:38:45Z</time>
      </trkpt>
      <trkpt lat="43.39133480" lon="13.00372150">
        <ele>815.00000</ele>
        <time>2009-07-31T10:38:45Z</time>
      </trkpt>
      <trkpt lat="43.39134660" lon="13.00373820">
        <ele>815.00000</ele>
        <time>2009-07-31T10:38:46Z</time>
      </trkpt>
      <trkpt lat="43.39134380" lon="13.00376490">
        <ele>827.00000</ele>
        <time>2009-07-31T10:38:47Z</time>
      </trkpt>
      <trkpt lat="43.39134720" lon="13.00377860">
        <ele>827.00000</ele>
        <time>2009-07-31T10:38:47Z</time>
      </trkpt>
      <trkpt lat="43.39134240" lon="13.00380700">
        <ele>827.00000</ele>
        <time>2009-07-31T10:38:48Z</time>
      </trkpt>
      <trkpt lat="43.39134860" lon="13.00383000">
        <ele>827.00000</ele>
        <time>2009-07-31T10:38:49Z</time>
      </trkpt>
      <trkpt lat="43.39133530" lon="13.00385520">
        <ele>827.00000</ele>
        <time>2009-07-31T10:38:50Z</time>
      </trkpt>
      <trkpt lat="43.39134440" lon="13.00387900">
        <ele>827.00000</ele>
        <time>2009-07-31T10:38:51Z</time>
      </trkpt>
      <trkpt lat="43.39134710" lon="13.00390660">
        <ele>827.00000</ele>
        <time>2009-07-31T10:38:51Z</time>
      </trkpt>
      <trkpt lat="43.39134420" lon="13.00393420">
        <ele>827.00000</ele>
        <time>2009-07-31T10:38:52Z</time>
      </trkpt>
      <trkpt lat="43.39136490" lon="13.00394230">
        <ele>827.00000</ele>
        <time>2009-07-31T10:38:53Z</time>
      </trkpt>
      <trkpt lat="43.39136760" lon="13.00397430">
        <ele>827.00000</ele>
        <time>2009-07-31T10:38:54Z</time>
      </trkpt>
      <trkpt lat="43.39136780" lon="13.00399990">
        <ele>827.00000</ele>
        <time>2009-07-31T10:38:55Z</time>
      </trkpt>
      <trkpt lat="43.39136860" lon="13.00402540">
        <ele>827.00000</ele>
        <time>2009-07-31T10:38:56Z</time>
      </trkpt>
      <trkpt lat="43.39139070" lon="13.00404930">
        <ele>827.00000</ele>
        <time>2009-07-31T10:38:57Z</time>
      </trkpt>
      <trkpt lat="43.39139530" lon="13.00407310">
        <ele>827.00000</ele>
        <time>2009-07-31T10:38:57Z</time>
      </trkpt>
      <trkpt lat="43.39139900" lon="13.00410200">
        <ele>827.00000</ele>
        <time>2009-07-31T10:38:58Z</time>
      </trkpt>
      <trkpt lat="43.39139470" lon="13.00412990">
        <ele>827.00000</ele>
        <time>2009-07-31T10:38:59Z</time>
      </trkpt>
      <trkpt lat="43.39136590" lon="13.00412050">
        <ele>827.00000</ele>
        <time>2009-07-31T10:39:00Z</time>
      </trkpt>
      <trkpt lat="43.39135130" lon="13.00410830">
        <ele>827.00000</ele>
        <time>2009-07-31T10:39:01Z</time>
      </trkpt>
      <trkpt lat="43.39132530" lon="13.00408100">
        <ele>827.00000</ele>
        <time>2009-07-31T10:39:02Z</time>
      </trkpt>
      <trkpt lat="43.39131200" lon="13.00405130">
        <ele>827.00000</ele>
        <time>2009-07-31T10:39:03Z</time>
      </trkpt>
      <trkpt lat="43.39130700" lon="13.00402570">
        <ele>827.00000</ele>
        <time>2009-07-31T10:39:04Z</time>
      </trkpt>
      <trkpt lat="43.39130540" lon="13.00399990">
        <ele>827.00000</ele>
        <time>2009-07-31T10:39:05Z</time>
      </trkpt>
      <trkpt lat="43.39130240" lon="13.00396850">
        <ele>827.00000</ele>
        <time>2009-07-31T10:39:06Z</time>
      </trkpt>
      <trkpt lat="43.39128360" lon="13.00394480">
        <ele>827.00000</ele>
        <time>2009-07-31T10:39:07Z</time>
      </trkpt>
      <trkpt lat="43.39128920" lon="13.00390800">
        <ele>827.00000</ele>
        <time>2009-07-31T10:39:08Z</time>
      </trkpt>
      <trkpt lat="43.39128330" lon="13.00386670">
        <ele>827.00000</ele>
        <time>2009-07-31T10:39:09Z</time>
      </trkpt>
      <trkpt lat="43.39127800" lon="13.00384910">
        <ele>827.00000</ele>
        <time>2009-07-31T10:39:10Z</time>
      </trkpt>
      <trkpt lat="43.39126510" lon="13.00381680">
        <ele>827.00000</ele>
        <time>2009-07-31T10:39:11Z</time>
      </trkpt>
      <trkpt lat="43.39124110" lon="13.00378620">
        <ele>875.00000</ele>
        <time>2009-07-31T10:39:12Z</time>
      </trkpt>
      <trkpt lat="43.39123450" lon="13.00375870">
        <ele>875.00000</ele>
        <time>2009-07-31T10:39:13Z</time>
      </trkpt>
      <trkpt lat="43.39122530" lon="13.00374270">
        <ele>864.00000</ele>
        <time>2009-07-31T10:39:13Z</time>
      </trkpt>
      <trkpt lat="43.39122930" lon="13.00370090">
        <ele>864.00000</ele>
        <time>2009-07-31T10:39:15Z</time>
      </trkpt>
      <trkpt lat="43.39122470" lon="13.00366270">
        <ele>864.00000</ele>
        <time>2009-07-31T10:39:16Z</time>
      </trkpt>
      <trkpt lat="43.39121700" lon="13.00361930">
        <ele>864.00000</ele>
        <time>2009-07-31T10:39:17Z</time>
      </trkpt>
      <trkpt lat="43.39120550" lon="13.00359780">
        <ele>864.00000</ele>
        <time>2009-07-31T10:39:18Z</time>
      </trkpt>
      <trkpt lat="43.39119450" lon="13.00356960">
        <ele>864.00000</ele>
        <time>2009-07-31T10:39:19Z</time>
      </trkpt>
      <trkpt lat="43.39118590" lon="13.00354270">
        <ele>864.00000</ele>
        <time>2009-07-31T10:39:20Z</time>
      </trkpt>
      <trkpt lat="43.39118080" lon="13.00351500">
        <ele>864.00000</ele>
        <time>2009-07-31T10:39:20Z</time>
      </trkpt>
      <trkpt lat="43.39118150" lon="13.00347980">
        <ele>864.00000</ele>
        <time>2009-07-31T10:39:21Z</time>
      </trkpt>
      <trkpt lat="43.39118140" lon="13.00345190">
        <ele>864.00000</ele>
        <time>2009-07-31T10:39:22Z</time>
      </trkpt>
      <trkpt lat="43.39116920" lon="13.00342910">
        <ele>864.00000</ele>
        <time>2009-07-31T10:39:23Z</time>
      </trkpt>
      <trkpt lat="43.39115360" lon="13.00339540">
        <ele>864.00000</ele>
        <time>2009-07-31T10:39:24Z</time>
      </trkpt>
      <trkpt lat="43.39114770" lon="13.00337120">
        <ele>864.00000</ele>
        <time>2009-07-31T10:39:25Z</time>
      </trkpt>
      <trkpt lat="43.39114260" lon="13.00334220">
        <ele>864.00000</ele>
        <time>2009-07-31T10:39:26Z</time>
      </trkpt>
      <trkpt lat="43.39112580" lon="13.00330080">
        <ele>864.00000</ele>
        <time>2009-07-31T10:39:27Z</time>
      </trkpt>
      <trkpt lat="43.39111150" lon="13.00327180">
        <ele>864.00000</ele>
        <time>2009-07-31T10:39:28Z</time>
      </trkpt>
      <trkpt lat="43.39109540" lon="13.00325150">
        <ele>864.00000</ele>
        <time>2009-07-31T10:39:29Z</time>
      </trkpt>
      <trkpt lat="43.39109030" lon="13.00321990">
        <ele>864.00000</ele>
        <time>2009-07-31T10:39:30Z</time>
      </trkpt>
      <trkpt lat="43.39108190" lon="13.00319060">
        <ele>864.00000</ele>
        <time>2009-07-31T10:39:31Z</time>
      </trkpt>
      <trkpt lat="43.39107540" lon="13.00315820">
        <ele>864.00000</ele>
        <time>2009-07-31T10:39:32Z</time>
      </trkpt>
      <trkpt lat="43.39107100" lon="13.00313570">
        <ele>864.00000</ele>
        <time>2009-07-31T10:39:33Z</time>
      </trkpt>
      <trkpt lat="43.39106920" lon="13.00310460">
        <ele>864.00000</ele>
        <time>2009-07-31T10:39:34Z</time>
      </trkpt>
      <trkpt lat="43.39105670" lon="13.00306770">
        <ele>864.00000</ele>
        <time>2009-07-31T10:39:35Z</time>
      </trkpt>
      <trkpt lat="43.39103840" lon="13.00302670">
        <ele>864.00000</ele>
        <time>2009-07-31T10:39:36Z</time>
      </trkpt>
      <trkpt lat="43.39102630" lon="13.00299770">
        <ele>864.00000</ele>
        <time>2009-07-31T10:39:37Z</time>
      </trkpt>
      <trkpt lat="43.39101680" lon="13.00297180">
        <ele>864.00000</ele>
        <time>2009-07-31T10:39:38Z</time>
      </trkpt>
      <trkpt lat="43.39100880" lon="13.00293670">
        <ele>864.00000</ele>
        <time>2009-07-31T10:39:39Z</time>
      </trkpt>
      <trkpt lat="43.39100630" lon="13.00291000">
        <ele>852.00000</ele>
        <time>2009-07-31T10:39:40Z</time>
      </trkpt>
      <trkpt lat="43.39099880" lon="13.00288250">
        <ele>852.00000</ele>
        <time>2009-07-31T10:39:41Z</time>
      </trkpt>
      <trkpt lat="43.39097940" lon="13.00286190">
        <ele>852.00000</ele>
        <time>2009-07-31T10:39:42Z</time>
      </trkpt>
      <trkpt lat="43.39097160" lon="13.00283120">
        <ele>852.00000</ele>
        <time>2009-07-31T10:39:43Z</time>
      </trkpt>
      <trkpt lat="43.39095590" lon="13.00279690">
        <ele>852.00000</ele>
        <time>2009-07-31T10:39:44Z</time>
      </trkpt>
      <trkpt lat="43.39094040" lon="13.00278520">
        <ele>852.00000</ele>
        <time>2009-07-31T10:39:45Z</time>
      </trkpt>
      <trkpt lat="43.39093510" lon="13.00275610">
        <ele>852.00000</ele>
        <time>2009-07-31T10:39:45Z</time>
      </trkpt>
      <trkpt lat="43.39092640" lon="13.00272810">
        <ele>852.00000</ele>
        <time>2009-07-31T10:39:46Z</time>
      </trkpt>
      <trkpt lat="43.39091360" lon="13.00270910">
        <ele>852.00000</ele>
        <time>2009-07-31T10:39:47Z</time>
      </trkpt>
      <trkpt lat="43.39090800" lon="13.00268320">
        <ele>852.00000</ele>
        <time>2009-07-31T10:39:48Z</time>
      </trkpt>
      <trkpt lat="43.39089790" lon="13.00265630">
        <ele>852.00000</ele>
        <time>2009-07-31T10:39:49Z</time>
      </trkpt>
      <trkpt lat="43.39089290" lon="13.00263430">
        <ele>852.00000</ele>
        <time>2009-07-31T10:39:49Z</time>
      </trkpt>
      <trkpt lat="43.39088510" lon="13.00259770">
        <ele>852.00000</ele>
        <time>2009-07-31T10:39:50Z</time>
      </trkpt>
      <trkpt lat="43.39088280" lon="13.00256180">
        <ele>852.00000</ele>
        <time>2009-07-31T10:39:52Z</time>
      </trkpt>
      <trkpt lat="43.39087670" lon="13.00253400">
        <ele>852.00000</ele>
        <time>2009-07-31T10:39:52Z</time>
      </trkpt>
      <trkpt lat="43.39087450" lon="13.00250560">
        <ele>852.00000</ele>
        <time>2009-07-31T10:39:53Z</time>
      </trkpt>
      <trkpt lat="43.39085690" lon="13.00247440">
        <ele>852.00000</ele>
        <time>2009-07-31T10:39:54Z</time>
      </trkpt>
      <trkpt lat="43.39083980" lon="13.00243910">
        <ele>852.00000</ele>
        <time>2009-07-31T10:39:56Z</time>
      </trkpt>
      <trkpt lat="43.39082880" lon="13.00241900">
        <ele>852.00000</ele>
        <time>2009-07-31T10:39:56Z</time>
      </trkpt>
      <trkpt lat="43.39081780" lon="13.00239680">
        <ele>852.00000</ele>
        <time>2009-07-31T10:39:57Z</time>
      </trkpt>
      <trkpt lat="43.39081120" lon="13.00238050">
        <ele>852.00000</ele>
        <time>2009-07-31T10:39:58Z</time>
      </trkpt>
      <trkpt lat="43.39080950" lon="13.00237480">
        <ele>852.00000</ele>
        <time>2009-07-31T10:39:58Z</time>
      </trkpt>
      <trkpt lat="43.39081070" lon="13.00237240">
        <ele>852.00000</ele>
        <time>2009-07-31T10:39:58Z</time>
      </trkpt>
      <trkpt lat="43.39081160" lon="13.00236980">
        <ele>852.00000</ele>
        <time>2009-07-31T10:39:58Z</time>
      </trkpt>
      <trkpt lat="43.39081680" lon="13.00236110">
        <ele>852.00000</ele>
        <time>2009-07-31T10:39:58Z</time>
      </trkpt>
      <trkpt lat="43.39081110" lon="13.00235160">
        <ele>852.00000</ele>
        <time>2009-07-31T10:39:59Z</time>
      </trkpt>
      <trkpt lat="43.39080460" lon="13.00234300">
        <ele>852.00000</ele>
        <time>2009-07-31T10:39:59Z</time>
      </trkpt>
      <trkpt lat="43.39080650" lon="13.00233660">
        <ele>852.00000</ele>
        <time>2009-07-31T10:39:59Z</time>
      </trkpt>
      <trkpt lat="43.39079630" lon="13.00229770">
        <ele>852.00000</ele>
        <time>2009-07-31T10:40:00Z</time>
      </trkpt>
      <trkpt lat="43.39077850" lon="13.00226400">
        <ele>852.00000</ele>
        <time>2009-07-31T10:40:02Z</time>
      </trkpt>
      <trkpt lat="43.39076850" lon="13.00222880">
        <ele>852.00000</ele>
        <time>2009-07-31T10:40:03Z</time>
      </trkpt>
      <trkpt lat="43.39075970" lon="13.00220910">
        <ele>852.00000</ele>
        <time>2009-07-31T10:40:03Z</time>
      </trkpt>
      <trkpt lat="43.39072590" lon="13.00219460">
        <ele>852.00000</ele>
        <time>2009-07-31T10:40:05Z</time>
      </trkpt>
      <trkpt lat="43.39071510" lon="13.00216530">
        <ele>852.00000</ele>
        <time>2009-07-31T10:40:06Z</time>
      </trkpt>
      <trkpt lat="43.39071320" lon="13.00213490">
        <ele>852.00000</ele>
        <time>2009-07-31T10:40:07Z</time>
      </trkpt>
      <trkpt lat="43.39070840" lon="13.00210500">
        <ele>852.00000</ele>
        <time>2009-07-31T10:40:08Z</time>
      </trkpt>
      <trkpt lat="43.39069490" lon="13.00207540">
        <ele>843.00000</ele>
        <time>2009-07-31T10:40:09Z</time>
      </trkpt>
      <trkpt lat="43.39069420" lon="13.00204660">
        <ele>843.00000</ele>
        <time>2009-07-31T10:40:09Z</time>
      </trkpt>
      <trkpt lat="43.39068370" lon="13.00202330">
        <ele>843.00000</ele>
        <time>2009-07-31T10:40:10Z</time>
      </trkpt>
      <trkpt lat="43.39067460" lon="13.00199970">
        <ele>843.00000</ele>
        <time>2009-07-31T10:40:11Z</time>
      </trkpt>
      <trkpt lat="43.39066240" lon="13.00196960">
        <ele>843.00000</ele>
        <time>2009-07-31T10:40:12Z</time>
      </trkpt>
      <trkpt lat="43.39064710" lon="13.00195620">
        <ele>843.00000</ele>
        <time>2009-07-31T10:40:13Z</time>
      </trkpt>
      <trkpt lat="43.39063760" lon="13.00191790">
        <ele>843.00000</ele>
        <time>2009-07-31T10:40:14Z</time>
      </trkpt>
      <trkpt lat="43.39064330" lon="13.00188480">
        <ele>843.00000</ele>
        <time>2009-07-31T10:40:15Z</time>
      </trkpt>
      <trkpt lat="43.39062830" lon="13.00186180">
        <ele>843.00000</ele>
        <time>2009-07-31T10:40:16Z</time>
      </trkpt>
      <trkpt lat="43.39061800" lon="13.00183070">
        <ele>843.00000</ele>
        <time>2009-07-31T10:40:17Z</time>
      </trkpt>
      <trkpt lat="43.39060810" lon="13.00180800">
        <ele>843.00000</ele>
        <time>2009-07-31T10:40:18Z</time>
      </trkpt>
      <trkpt lat="43.39060100" lon="13.00178870">
        <ele>843.00000</ele>
        <time>2009-07-31T10:40:18Z</time>
      </trkpt>
      <trkpt lat="43.39058290" lon="13.00175660">
        <ele>843.00000</ele>
        <time>2009-07-31T10:40:19Z</time>
      </trkpt>
      <trkpt lat="43.39057570" lon="13.00173130">
        <ele>843.00000</ele>
        <time>2009-07-31T10:40:20Z</time>
      </trkpt>
      <trkpt lat="43.39057230" lon="13.00172680">
        <ele>843.00000</ele>
        <time>2009-07-31T10:40:20Z</time>
      </trkpt>
      <trkpt lat="43.39057460" lon="13.00172530">
        <ele>843.00000</ele>
        <time>2009-07-31T10:40:20Z</time>
      </trkpt>
      <trkpt lat="43.39057360" lon="13.00172770">
        <ele>843.00000</ele>
        <time>2009-07-31T10:40:20Z</time>
      </trkpt>
      <trkpt lat="43.39057340" lon="13.00172850">
        <ele>843.00000</ele>
        <time>2009-07-31T10:40:21Z</time>
      </trkpt>
      <trkpt lat="43.39057350" lon="13.00172890">
        <ele>843.00000</ele>
        <time>2009-07-31T10:40:21Z</time>
      </trkpt>
      <trkpt lat="43.39057130" lon="13.00173190">
        <ele>843.00000</ele>
        <time>2009-07-31T10:40:21Z</time>
      </trkpt>
      <trkpt lat="43.39057240" lon="13.00172790">
        <ele>843.00000</ele>
        <time>2009-07-31T10:40:21Z</time>
      </trkpt>
      <trkpt lat="43.39056070" lon="13.00169960">
        <ele>843.00000</ele>
        <time>2009-07-31T10:40:22Z</time>
      </trkpt>
      <trkpt lat="43.39054610" lon="13.00167200">
        <ele>843.00000</ele>
        <time>2009-07-31T10:40:23Z</time>
      </trkpt>
      <trkpt lat="43.39054030" lon="13.00164470">
        <ele>843.00000</ele>
        <time>2009-07-31T10:40:24Z</time>
      </trkpt>
      <trkpt lat="43.39051670" lon="13.00162590">
        <ele>843.00000</ele>
        <time>2009-07-31T10:40:25Z</time>
      </trkpt>
      <trkpt lat="43.39050560" lon="13.00159870">
        <ele>843.00000</ele>
        <time>2009-07-31T10:40:26Z</time>
      </trkpt>
      <trkpt lat="43.39049700" lon="13.00157820">
        <ele>843.00000</ele>
        <time>2009-07-31T10:40:26Z</time>
      </trkpt>
      <trkpt lat="43.39048470" lon="13.00155530">
        <ele>843.00000</ele>
        <time>2009-07-31T10:40:27Z</time>
      </trkpt>
      <trkpt lat="43.39048040" lon="13.00153860">
        <ele>843.00000</ele>
        <time>2009-07-31T10:40:28Z</time>
      </trkpt>
      <trkpt lat="43.39046470" lon="13.00149280">
        <ele>843.00000</ele>
        <time>2009-07-31T10:40:29Z</time>
      </trkpt>
      <trkpt lat="43.39045350" lon="13.00145840">
        <ele>843.00000</ele>
        <time>2009-07-31T10:40:30Z</time>
      </trkpt>
      <trkpt lat="43.39043930" lon="13.00143900">
        <ele>843.00000</ele>
        <time>2009-07-31T10:40:31Z</time>
      </trkpt>
      <trkpt lat="43.39042520" lon="13.00140160">
        <ele>843.00000</ele>
        <time>2009-07-31T10:40:32Z</time>
      </trkpt>
      <trkpt lat="43.39040730" lon="13.00137340">
        <ele>890.00000</ele>
        <time>2009-07-31T10:40:33Z</time>
      </trkpt>
      <trkpt lat="43.39039930" lon="13.00135320">
        <ele>890.00000</ele>
        <time>2009-07-31T10:40:34Z</time>
      </trkpt>
      <trkpt lat="43.39039960" lon="13.00133320">
        <ele>890.00000</ele>
        <time>2009-07-31T10:40:35Z</time>
      </trkpt>
      <trkpt lat="43.39039070" lon="13.00131900">
        <ele>890.00000</ele>
        <time>2009-07-31T10:40:35Z</time>
      </trkpt>
      <trkpt lat="43.39038330" lon="13.00128690">
        <ele>890.00000</ele>
        <time>2009-07-31T10:40:36Z</time>
      </trkpt>
      <trkpt lat="43.39038140" lon="13.00126370">
        <ele>890.00000</ele>
        <time>2009-07-31T10:40:37Z</time>
      </trkpt>
      <trkpt lat="43.39036800" lon="13.00123540">
        <ele>877.00000</ele>
        <time>2009-07-31T10:40:38Z</time>
      </trkpt>
      <trkpt lat="43.39035220" lon="13.00121050">
        <ele>877.00000</ele>
        <time>2009-07-31T10:40:39Z</time>
      </trkpt>
      <trkpt lat="43.39034710" lon="13.00117950">
        <ele>877.00000</ele>
        <time>2009-07-31T10:40:40Z</time>
      </trkpt>
      <trkpt lat="43.39033450" lon="13.00115160">
        <ele>877.00000</ele>
        <time>2009-07-31T10:40:41Z</time>
      </trkpt>
      <trkpt lat="43.39031100" lon="13.00113530">
        <ele>877.00000</ele>
        <time>2009-07-31T10:40:42Z</time>
      </trkpt>
      <trkpt lat="43.39028950" lon="13.00111410">
        <ele>877.00000</ele>
        <time>2009-07-31T10:40:43Z</time>
      </trkpt>
      <trkpt lat="43.39027960" lon="13.00108650">
        <ele>877.00000</ele>
        <time>2009-07-31T10:40:44Z</time>
      </trkpt>
      <trkpt lat="43.39026730" lon="13.00106510">
        <ele>877.00000</ele>
        <time>2009-07-31T10:40:44Z</time>
      </trkpt>
      <trkpt lat="43.39025010" lon="13.00103010">
        <ele>877.00000</ele>
        <time>2009-07-31T10:40:46Z</time>
      </trkpt>
      <trkpt lat="43.39025290" lon="13.00100580">
        <ele>877.00000</ele>
        <time>2009-07-31T10:40:46Z</time>
      </trkpt>
      <trkpt lat="43.39024110" lon="13.00098790">
        <ele>877.00000</ele>
        <time>2009-07-31T10:40:47Z</time>
      </trkpt>
      <trkpt lat="43.39023130" lon="13.00095340">
        <ele>877.00000</ele>
        <time>2009-07-31T10:40:48Z</time>
      </trkpt>
      <trkpt lat="43.39021840" lon="13.00092400">
        <ele>877.00000</ele>
        <time>2009-07-31T10:40:49Z</time>
      </trkpt>
      <trkpt lat="43.39020590" lon="13.00089710">
        <ele>877.00000</ele>
        <time>2009-07-31T10:40:50Z</time>
      </trkpt>
      <trkpt lat="43.39019500" lon="13.00088440">
        <ele>877.00000</ele>
        <time>2009-07-31T10:40:51Z</time>
      </trkpt>
      <trkpt lat="43.39018450" lon="13.00086190">
        <ele>877.00000</ele>
        <time>2009-07-31T10:40:51Z</time>
      </trkpt>
      <trkpt lat="43.39017150" lon="13.00082110">
        <ele>877.00000</ele>
        <time>2009-07-31T10:40:53Z</time>
      </trkpt>
      <trkpt lat="43.39016070" lon="13.00079840">
        <ele>877.00000</ele>
        <time>2009-07-31T10:40:53Z</time>
      </trkpt>
      <trkpt lat="43.39015340" lon="13.00077280">
        <ele>877.00000</ele>
        <time>2009-07-31T10:40:54Z</time>
      </trkpt>
      <trkpt lat="43.39014210" lon="13.00074180">
        <ele>877.00000</ele>
        <time>2009-07-31T10:40:55Z</time>
      </trkpt>
      <trkpt lat="43.39013760" lon="13.00072250">
        <ele>877.00000</ele>
        <time>2009-07-31T10:40:56Z</time>
      </trkpt>
      <trkpt lat="43.39013490" lon="13.00069790">
        <ele>877.00000</ele>
        <time>2009-07-31T10:40:57Z</time>
      </trkpt>
      <trkpt lat="43.39013010" lon="13.00068270">
        <ele>877.00000</ele>
        <time>2009-07-31T10:40:57Z</time>
      </trkpt>
      <trkpt lat="43.39011650" lon="13.00065700">
        <ele>877.00000</ele>
        <time>2009-07-31T10:40:58Z</time>
      </trkpt>
      <trkpt lat="43.39010080" lon="13.00063260">
        <ele>877.00000</ele>
        <time>2009-07-31T10:40:59Z</time>
      </trkpt>
      <trkpt lat="43.39009330" lon="13.00060030">
        <ele>877.00000</ele>
        <time>2009-07-31T10:41:00Z</time>
      </trkpt>
      <trkpt lat="43.39008580" lon="13.00057450">
        <ele>877.00000</ele>
        <time>2009-07-31T10:41:01Z</time>
      </trkpt>
      <trkpt lat="43.39008170" lon="13.00055110">
        <ele>877.00000</ele>
        <time>2009-07-31T10:41:01Z</time>
      </trkpt>
      <trkpt lat="43.39007710" lon="13.00053160">
        <ele>877.00000</ele>
        <time>2009-07-31T10:41:02Z</time>
      </trkpt>
      <trkpt lat="43.39008030" lon="13.00051260">
        <ele>877.00000</ele>
        <time>2009-07-31T10:41:03Z</time>
      </trkpt>
      <trkpt lat="43.39006830" lon="13.00047370">
        <ele>877.00000</ele>
        <time>2009-07-31T10:41:04Z</time>
      </trkpt>
      <trkpt lat="43.39005920" lon="13.00043930">
        <ele>877.00000</ele>
        <time>2009-07-31T10:41:05Z</time>
      </trkpt>
      <trkpt lat="43.39004890" lon="13.00040810">
        <ele>872.00000</ele>
        <time>2009-07-31T10:41:06Z</time>
      </trkpt>
      <trkpt lat="43.39003350" lon="13.00038680">
        <ele>872.00000</ele>
        <time>2009-07-31T10:41:07Z</time>
      </trkpt>
      <trkpt lat="43.39002800" lon="13.00035870">
        <ele>872.00000</ele>
        <time>2009-07-31T10:41:08Z</time>
      </trkpt>
      <trkpt lat="43.39003790" lon="13.00032590">
        <ele>872.00000</ele>
        <time>2009-07-31T10:41:09Z</time>
      </trkpt>
      <trkpt lat="43.39003070" lon="13.00030620">
        <ele>872.00000</ele>
        <time>2009-07-31T10:41:09Z</time>
      </trkpt>
      <trkpt lat="43.39002460" lon="13.00027790">
        <ele>872.00000</ele>
        <time>2009-07-31T10:41:10Z</time>
      </trkpt>
      <trkpt lat="43.39001360" lon="13.00025890">
        <ele>872.00000</ele>
        <time>2009-07-31T10:41:11Z</time>
      </trkpt>
      <trkpt lat="43.39000010" lon="13.00023120">
        <ele>872.00000</ele>
        <time>2009-07-31T10:41:12Z</time>
      </trkpt>
      <trkpt lat="43.38998690" lon="13.00020750">
        <ele>872.00000</ele>
        <time>2009-07-31T10:41:13Z</time>
      </trkpt>
      <trkpt lat="43.38998410" lon="13.00017890">
        <ele>872.00000</ele>
        <time>2009-07-31T10:41:13Z</time>
      </trkpt>
      <trkpt lat="43.38998130" lon="13.00015480">
        <ele>872.00000</ele>
        <time>2009-07-31T10:41:14Z</time>
      </trkpt>
      <trkpt lat="43.38997510" lon="13.00012770">
        <ele>872.00000</ele>
        <time>2009-07-31T10:41:15Z</time>
      </trkpt>
      <trkpt lat="43.38996910" lon="13.00009730">
        <ele>872.00000</ele>
        <time>2009-07-31T10:41:16Z</time>
      </trkpt>
      <trkpt lat="43.38996040" lon="13.00007490">
        <ele>872.00000</ele>
        <time>2009-07-31T10:41:17Z</time>
      </trkpt>
      <trkpt lat="43.38994940" lon="13.00004410">
        <ele>872.00000</ele>
        <time>2009-07-31T10:41:18Z</time>
      </trkpt>
      <trkpt lat="43.38994700" lon="13.00002040">
        <ele>872.00000</ele>
        <time>2009-07-31T10:41:18Z</time>
      </trkpt>
      <trkpt lat="43.38993990" lon="12.99999560">
        <ele>872.00000</ele>
        <time>2009-07-31T10:41:19Z</time>
      </trkpt>
      <trkpt lat="43.38992620" lon="12.99996280">
        <ele>872.00000</ele>
        <time>2009-07-31T10:41:20Z</time>
      </trkpt>
      <trkpt lat="43.38991190" lon="12.99994260">
        <ele>872.00000</ele>
        <time>2009-07-31T10:41:21Z</time>
      </trkpt>
      <trkpt lat="43.38989350" lon="12.99990680">
        <ele>872.00000</ele>
        <time>2009-07-31T10:41:22Z</time>
      </trkpt>
      <trkpt lat="43.38988530" lon="12.99987380">
        <ele>872.00000</ele>
        <time>2009-07-31T10:41:23Z</time>
      </trkpt>
      <trkpt lat="43.38986920" lon="12.99985800">
        <ele>872.00000</ele>
        <time>2009-07-31T10:41:24Z</time>
      </trkpt>
      <trkpt lat="43.38985670" lon="12.99982930">
        <ele>872.00000</ele>
        <time>2009-07-31T10:41:25Z</time>
      </trkpt>
      <trkpt lat="43.38984430" lon="12.99981010">
        <ele>872.00000</ele>
        <time>2009-07-31T10:41:26Z</time>
      </trkpt>
      <trkpt lat="43.38983610" lon="12.99978820">
        <ele>872.00000</ele>
        <time>2009-07-31T10:41:27Z</time>
      </trkpt>
      <trkpt lat="43.38983030" lon="12.99975550">
        <ele>872.00000</ele>
        <time>2009-07-31T10:41:28Z</time>
      </trkpt>
      <trkpt lat="43.38983190" lon="12.99973170">
        <ele>872.00000</ele>
        <time>2009-07-31T10:41:28Z</time>
      </trkpt>
      <trkpt lat="43.38982620" lon="12.99970870">
        <ele>872.00000</ele>
        <time>2009-07-31T10:41:29Z</time>
      </trkpt>
      <trkpt lat="43.38982020" lon="12.99968960">
        <ele>872.00000</ele>
        <time>2009-07-31T10:41:30Z</time>
      </trkpt>
      <trkpt lat="43.38981350" lon="12.99966340">
        <ele>872.00000</ele>
        <time>2009-07-31T10:41:30Z</time>
      </trkpt>
      <trkpt lat="43.38980280" lon="12.99963820">
        <ele>872.00000</ele>
        <time>2009-07-31T10:41:31Z</time>
      </trkpt>
      <trkpt lat="43.38979800" lon="12.99961540">
        <ele>872.00000</ele>
        <time>2009-07-31T10:41:32Z</time>
      </trkpt>
      <trkpt lat="43.38978640" lon="12.99959980">
        <ele>872.00000</ele>
        <time>2009-07-31T10:41:33Z</time>
      </trkpt>
      <trkpt lat="43.38977760" lon="12.99957410">
        <ele>865.00000</ele>
        <time>2009-07-31T10:41:33Z</time>
      </trkpt>
      <trkpt lat="43.38976960" lon="12.99954950">
        <ele>865.00000</ele>
        <time>2009-07-31T10:41:34Z</time>
      </trkpt>
      <trkpt lat="43.38975740" lon="12.99953160">
        <ele>865.00000</ele>
        <time>2009-07-31T10:41:35Z</time>
      </trkpt>
      <trkpt lat="43.38974330" lon="12.99951590">
        <ele>865.00000</ele>
        <time>2009-07-31T10:41:36Z</time>
      </trkpt>
      <trkpt lat="43.38972660" lon="12.99948200">
        <ele>865.00000</ele>
        <time>2009-07-31T10:41:37Z</time>
      </trkpt>
      <trkpt lat="43.38971250" lon="12.99945290">
        <ele>865.00000</ele>
        <time>2009-07-31T10:41:38Z</time>
      </trkpt>
      <trkpt lat="43.38970450" lon="12.99942850">
        <ele>865.00000</ele>
        <time>2009-07-31T10:41:39Z</time>
      </trkpt>
      <trkpt lat="43.38969620" lon="12.99939740">
        <ele>865.00000</ele>
        <time>2009-07-31T10:41:40Z</time>
      </trkpt>
      <trkpt lat="43.38968510" lon="12.99937000">
        <ele>865.00000</ele>
        <time>2009-07-31T10:41:40Z</time>
      </trkpt>
      <trkpt lat="43.38967080" lon="12.99934600">
        <ele>865.00000</ele>
        <time>2009-07-31T10:41:41Z</time>
      </trkpt>
      <trkpt lat="43.38965470" lon="12.99931130">
        <ele>865.00000</ele>
        <time>2009-07-31T10:41:43Z</time>
      </trkpt>
      <trkpt lat="43.38964360" lon="12.99929580">
        <ele>865.00000</ele>
        <time>2009-07-31T10:41:43Z</time>
      </trkpt>
      <trkpt lat="43.38963260" lon="12.99926990">
        <ele>865.00000</ele>
        <time>2009-07-31T10:41:44Z</time>
      </trkpt>
      <trkpt lat="43.38963100" lon="12.99925200">
        <ele>865.00000</ele>
        <time>2009-07-31T10:41:45Z</time>
      </trkpt>
      <trkpt lat="43.38961920" lon="12.99923260">
        <ele>865.00000</ele>
        <time>2009-07-31T10:41:45Z</time>
      </trkpt>
      <trkpt lat="43.38960180" lon="12.99920880">
        <ele>865.00000</ele>
        <time>2009-07-31T10:41:46Z</time>
      </trkpt>
      <trkpt lat="43.38958880" lon="12.99917680">
        <ele>865.00000</ele>
        <time>2009-07-31T10:41:47Z</time>
      </trkpt>
      <trkpt lat="43.38957870" lon="12.99914870">
        <ele>905.00000</ele>
        <time>2009-07-31T10:41:48Z</time>
      </trkpt>
      <trkpt lat="43.38955860" lon="12.99912660">
        <ele>905.00000</ele>
        <time>2009-07-31T10:41:49Z</time>
      </trkpt>
      <trkpt lat="43.38954660" lon="12.99910760">
        <ele>905.00000</ele>
        <time>2009-07-31T10:41:50Z</time>
      </trkpt>
      <trkpt lat="43.38952810" lon="12.99908000">
        <ele>905.00000</ele>
        <time>2009-07-31T10:41:51Z</time>
      </trkpt>
      <trkpt lat="43.38950610" lon="12.99906440">
        <ele>905.00000</ele>
        <time>2009-07-31T10:41:52Z</time>
      </trkpt>
      <trkpt lat="43.38950000" lon="12.99903590">
        <ele>905.00000</ele>
        <time>2009-07-31T10:41:53Z</time>
      </trkpt>
      <trkpt lat="43.38949060" lon="12.99900350">
        <ele>905.00000</ele>
        <time>2009-07-31T10:41:54Z</time>
      </trkpt>
      <trkpt lat="43.38948850" lon="12.99898470">
        <ele>905.00000</ele>
        <time>2009-07-31T10:41:55Z</time>
      </trkpt>
      <trkpt lat="43.38947040" lon="12.99896340">
        <ele>905.00000</ele>
        <time>2009-07-31T10:41:56Z</time>
      </trkpt>
      <trkpt lat="43.38946450" lon="12.99894150">
        <ele>905.00000</ele>
        <time>2009-07-31T10:41:56Z</time>
      </trkpt>
      <trkpt lat="43.38945080" lon="12.99892140">
        <ele>905.00000</ele>
        <time>2009-07-31T10:41:57Z</time>
      </trkpt>
      <trkpt lat="43.38944030" lon="12.99890850">
        <ele>905.00000</ele>
        <time>2009-07-31T10:41:58Z</time>
      </trkpt>
      <trkpt lat="43.38943360" lon="12.99888090">
        <ele>905.00000</ele>
        <time>2009-07-31T10:41:58Z</time>
      </trkpt>
      <trkpt lat="43.38941750" lon="12.99885390">
        <ele>905.00000</ele>
        <time>2009-07-31T10:41:59Z</time>
      </trkpt>
      <trkpt lat="43.38940790" lon="12.99882380">
        <ele>905.00000</ele>
        <time>2009-07-31T10:42:00Z</time>
      </trkpt>
      <trkpt lat="43.38938490" lon="12.99881070">
        <ele>905.00000</ele>
        <time>2009-07-31T10:42:01Z</time>
      </trkpt>
      <trkpt lat="43.38936730" lon="12.99879280">
        <ele>905.00000</ele>
        <time>2009-07-31T10:42:02Z</time>
      </trkpt>
      <trkpt lat="43.38936030" lon="12.99877380">
        <ele>905.00000</ele>
        <time>2009-07-31T10:42:03Z</time>
      </trkpt>
      <trkpt lat="43.38934560" lon="12.99874240">
        <ele>894.00000</ele>
        <time>2009-07-31T10:42:04Z</time>
      </trkpt>
      <trkpt lat="43.38932960" lon="12.99872430">
        <ele>894.00000</ele>
        <time>2009-07-31T10:42:05Z</time>
      </trkpt>
      <trkpt lat="43.38929810" lon="12.99869720">
        <ele>894.00000</ele>
        <time>2009-07-31T10:42:06Z</time>
      </trkpt>
      <trkpt lat="43.38928710" lon="12.99866710">
        <ele>894.00000</ele>
        <time>2009-07-31T10:42:07Z</time>
      </trkpt>
      <trkpt lat="43.38926800" lon="12.99862490">
        <ele>894.00000</ele>
        <time>2009-07-31T10:42:09Z</time>
      </trkpt>
      <trkpt lat="43.38926400" lon="12.99859870">
        <ele>894.00000</ele>
        <time>2009-07-31T10:42:10Z</time>
      </trkpt>
      <trkpt lat="43.38927840" lon="12.99854760">
        <ele>894.00000</ele>
        <time>2009-07-31T10:42:11Z</time>
      </trkpt>
      <trkpt lat="43.38927580" lon="12.99851970">
        <ele>894.00000</ele>
        <time>2009-07-31T10:42:12Z</time>
      </trkpt>
      <trkpt lat="43.38925390" lon="12.99848310">
        <ele>894.00000</ele>
        <time>2009-07-31T10:42:13Z</time>
      </trkpt>
      <trkpt lat="43.38924430" lon="12.99846650">
        <ele>894.00000</ele>
        <time>2009-07-31T10:42:14Z</time>
      </trkpt>
      <trkpt lat="43.38923310" lon="12.99844260">
        <ele>894.00000</ele>
        <time>2009-07-31T10:42:15Z</time>
      </trkpt>
      <trkpt lat="43.38921610" lon="12.99841410">
        <ele>894.00000</ele>
        <time>2009-07-31T10:42:16Z</time>
      </trkpt>
      <trkpt lat="43.38921110" lon="12.99838490">
        <ele>894.00000</ele>
        <time>2009-07-31T10:42:17Z</time>
      </trkpt>
      <trkpt lat="43.38918400" lon="12.99836720">
        <ele>894.00000</ele>
        <time>2009-07-31T10:42:18Z</time>
      </trkpt>
      <trkpt lat="43.38915270" lon="12.99834570">
        <ele>894.00000</ele>
        <time>2009-07-31T10:42:19Z</time>
      </trkpt>
      <trkpt lat="43.38912950" lon="12.99831190">
        <ele>894.00000</ele>
        <time>2009-07-31T10:42:21Z</time>
      </trkpt>
      <trkpt lat="43.38910390" lon="12.99828250">
        <ele>894.00000</ele>
        <time>2009-07-31T10:42:22Z</time>
      </trkpt>
      <trkpt lat="43.38907630" lon="12.99827470">
        <ele>894.00000</ele>
        <time>2009-07-31T10:42:23Z</time>
      </trkpt>
      <trkpt lat="43.38906390" lon="12.99826200">
        <ele>894.00000</ele>
        <time>2009-07-31T10:42:24Z</time>
      </trkpt>
      <trkpt lat="43.38904170" lon="12.99822880">
        <ele>894.00000</ele>
        <time>2009-07-31T10:42:25Z</time>
      </trkpt>
      <trkpt lat="43.38902520" lon="12.99820700">
        <ele>894.00000</ele>
        <time>2009-07-31T10:42:26Z</time>
      </trkpt>
      <trkpt lat="43.38901830" lon="12.99818290">
        <ele>894.00000</ele>
        <time>2009-07-31T10:42:27Z</time>
      </trkpt>
      <trkpt lat="43.38900760" lon="12.99815980">
        <ele>894.00000</ele>
        <time>2009-07-31T10:42:27Z</time>
      </trkpt>
      <trkpt lat="43.38900400" lon="12.99812280">
        <ele>894.00000</ele>
        <time>2009-07-31T10:42:29Z</time>
      </trkpt>
      <trkpt lat="43.38898860" lon="12.99811550">
        <ele>894.00000</ele>
        <time>2009-07-31T10:42:29Z</time>
      </trkpt>
      <trkpt lat="43.38897550" lon="12.99809580">
        <ele>894.00000</ele>
        <time>2009-07-31T10:42:30Z</time>
      </trkpt>
      <trkpt lat="43.38895460" lon="12.99808660">
        <ele>894.00000</ele>
        <time>2009-07-31T10:42:31Z</time>
      </trkpt>
      <trkpt lat="43.38895120" lon="12.99805370">
        <ele>894.00000</ele>
        <time>2009-07-31T10:42:32Z</time>
      </trkpt>
      <trkpt lat="43.38893350" lon="12.99801910">
        <ele>894.00000</ele>
        <time>2009-07-31T10:42:33Z</time>
      </trkpt>
      <trkpt lat="43.38890200" lon="12.99797240">
        <ele>894.00000</ele>
        <time>2009-07-31T10:42:35Z</time>
      </trkpt>
      <trkpt lat="43.38888750" lon="12.99795190">
        <ele>894.00000</ele>
        <time>2009-07-31T10:42:36Z</time>
      </trkpt>
      <trkpt lat="43.38887660" lon="12.99791530">
        <ele>892.00000</ele>
        <time>2009-07-31T10:42:37Z</time>
      </trkpt>
      <trkpt lat="43.38886280" lon="12.99791130">
        <ele>892.00000</ele>
        <time>2009-07-31T10:42:37Z</time>
      </trkpt>
      <trkpt lat="43.38880960" lon="12.99793190">
        <ele>894.00000</ele>
        <time>2009-07-31T10:42:40Z</time>
      </trkpt>
      <trkpt lat="43.38880090" lon="12.99790240">
        <ele>892.00000</ele>
        <time>2009-07-31T10:42:41Z</time>
      </trkpt>
      <trkpt lat="43.38880190" lon="12.99787170">
        <ele>892.00000</ele>
        <time>2009-07-31T10:42:42Z</time>
      </trkpt>
      <trkpt lat="43.38878530" lon="12.99783520">
        <ele>892.00000</ele>
        <time>2009-07-31T10:42:43Z</time>
      </trkpt>
      <trkpt lat="43.38877620" lon="12.99781280">
        <ele>892.00000</ele>
        <time>2009-07-31T10:42:44Z</time>
      </trkpt>
      <trkpt lat="43.38877050" lon="12.99779510">
        <ele>892.00000</ele>
        <time>2009-07-31T10:42:44Z</time>
      </trkpt>
      <trkpt lat="43.38875840" lon="12.99777120">
        <ele>892.00000</ele>
        <time>2009-07-31T10:42:45Z</time>
      </trkpt>
      <trkpt lat="43.38873680" lon="12.99772040">
        <ele>903.00000</ele>
        <time>2009-07-31T10:42:47Z</time>
      </trkpt>
      <trkpt lat="43.38871350" lon="12.99769980">
        <ele>903.00000</ele>
        <time>2009-07-31T10:42:48Z</time>
      </trkpt>
      <trkpt lat="43.38870190" lon="12.99769280">
        <ele>903.00000</ele>
        <time>2009-07-31T10:42:48Z</time>
      </trkpt>
      <trkpt lat="43.38869400" lon="12.99766360">
        <ele>903.00000</ele>
        <time>2009-07-31T10:42:49Z</time>
      </trkpt>
      <trkpt lat="43.38868040" lon="12.99764130">
        <ele>903.00000</ele>
        <time>2009-07-31T10:42:50Z</time>
      </trkpt>
      <trkpt lat="43.38866970" lon="12.99760420">
        <ele>903.00000</ele>
        <time>2009-07-31T10:42:51Z</time>
      </trkpt>
      <trkpt lat="43.38865300" lon="12.99757040">
        <ele>903.00000</ele>
        <time>2009-07-31T10:42:52Z</time>
      </trkpt>
      <trkpt lat="43.38863730" lon="12.99754540">
        <ele>903.00000</ele>
        <time>2009-07-31T10:42:53Z</time>
      </trkpt>
      <trkpt lat="43.38861520" lon="12.99752110">
        <ele>903.00000</ele>
        <time>2009-07-31T10:42:54Z</time>
      </trkpt>
      <trkpt lat="43.38860240" lon="12.99748650">
        <ele>903.00000</ele>
        <time>2009-07-31T10:42:56Z</time>
      </trkpt>
      <trkpt lat="43.38857550" lon="12.99745730">
        <ele>903.00000</ele>
        <time>2009-07-31T10:42:57Z</time>
      </trkpt>
      <trkpt lat="43.38856780" lon="12.99742580">
        <ele>903.00000</ele>
        <time>2009-07-31T10:42:58Z</time>
      </trkpt>
      <trkpt lat="43.38855800" lon="12.99740040">
        <ele>903.00000</ele>
        <time>2009-07-31T10:42:59Z</time>
      </trkpt>
      <trkpt lat="43.38852710" lon="12.99738400">
        <ele>903.00000</ele>
        <time>2009-07-31T10:43:00Z</time>
      </trkpt>
      <trkpt lat="43.38850210" lon="12.99736620">
        <ele>903.00000</ele>
        <time>2009-07-31T10:43:01Z</time>
      </trkpt>
      <trkpt lat="43.38848490" lon="12.99734950">
        <ele>903.00000</ele>
        <time>2009-07-31T10:43:02Z</time>
      </trkpt>
      <trkpt lat="43.38847440" lon="12.99732180">
        <ele>903.00000</ele>
        <time>2009-07-31T10:43:03Z</time>
      </trkpt>
      <trkpt lat="43.38845390" lon="12.99729850">
        <ele>903.00000</ele>
        <time>2009-07-31T10:43:04Z</time>
      </trkpt>
      <trkpt lat="43.38844500" lon="12.99726510">
        <ele>903.00000</ele>
        <time>2009-07-31T10:43:05Z</time>
      </trkpt>
      <trkpt lat="43.38841840" lon="12.99724840">
        <ele>903.00000</ele>
        <time>2009-07-31T10:43:06Z</time>
      </trkpt>
      <trkpt lat="43.38839640" lon="12.99722970">
        <ele>903.00000</ele>
        <time>2009-07-31T10:43:07Z</time>
      </trkpt>
      <trkpt lat="43.38836860" lon="12.99721720">
        <ele>903.00000</ele>
        <time>2009-07-31T10:43:08Z</time>
      </trkpt>
      <trkpt lat="43.38834740" lon="12.99720440">
        <ele>903.00000</ele>
        <time>2009-07-31T10:43:09Z</time>
      </trkpt>
      <trkpt lat="43.38832490" lon="12.99716860">
        <ele>903.00000</ele>
        <time>2009-07-31T10:43:11Z</time>
      </trkpt>
      <trkpt lat="43.38830380" lon="12.99715030">
        <ele>903.00000</ele>
        <time>2009-07-31T10:43:12Z</time>
      </trkpt>
      <trkpt lat="43.38828330" lon="12.99713330">
        <ele>903.00000</ele>
        <time>2009-07-31T10:43:13Z</time>
      </trkpt>
      <trkpt lat="43.38825590" lon="12.99712340">
        <ele>903.00000</ele>
        <time>2009-07-31T10:43:14Z</time>
      </trkpt>
      <trkpt lat="43.38823160" lon="12.99710370">
        <ele>903.00000</ele>
        <time>2009-07-31T10:43:15Z</time>
      </trkpt>
      <trkpt lat="43.38821640" lon="12.99708990">
        <ele>903.00000</ele>
        <time>2009-07-31T10:43:16Z</time>
      </trkpt>
      <trkpt lat="43.38819570" lon="12.99708450">
        <ele>903.00000</ele>
        <time>2009-07-31T10:43:17Z</time>
      </trkpt>
      <trkpt lat="43.38817920" lon="12.99707010">
        <ele>903.00000</ele>
        <time>2009-07-31T10:43:17Z</time>
      </trkpt>
      <trkpt lat="43.38815520" lon="12.99705440">
        <ele>903.00000</ele>
        <time>2009-07-31T10:43:18Z</time>
      </trkpt>
      <trkpt lat="43.38813440" lon="12.99704880">
        <ele>903.00000</ele>
        <time>2009-07-31T10:43:19Z</time>
      </trkpt>
      <trkpt lat="43.38811900" lon="12.99703420">
        <ele>903.00000</ele>
        <time>2009-07-31T10:43:20Z</time>
      </trkpt>
      <trkpt lat="43.38809350" lon="12.99701640">
        <ele>903.00000</ele>
        <time>2009-07-31T10:43:21Z</time>
      </trkpt>
      <trkpt lat="43.38806620" lon="12.99700090">
        <ele>903.00000</ele>
        <time>2009-07-31T10:43:22Z</time>
      </trkpt>
      <trkpt lat="43.38804390" lon="12.99698000">
        <ele>903.00000</ele>
        <time>2009-07-31T10:43:23Z</time>
      </trkpt>
      <trkpt lat="43.38802370" lon="12.99695990">
        <ele>903.00000</ele>
        <time>2009-07-31T10:43:24Z</time>
      </trkpt>
      <trkpt lat="43.38800580" lon="12.99693730">
        <ele>903.00000</ele>
        <time>2009-07-31T10:43:25Z</time>
      </trkpt>
      <trkpt lat="43.38799210" lon="12.99692910">
        <ele>903.00000</ele>
        <time>2009-07-31T10:43:26Z</time>
      </trkpt>
      <trkpt lat="43.38796770" lon="12.99690740">
        <ele>903.00000</ele>
        <time>2009-07-31T10:43:27Z</time>
      </trkpt>
      <trkpt lat="43.38794490" lon="12.99687670">
        <ele>903.00000</ele>
        <time>2009-07-31T10:43:28Z</time>
      </trkpt>
      <trkpt lat="43.38792090" lon="12.99686500">
        <ele>903.00000</ele>
        <time>2009-07-31T10:43:29Z</time>
      </trkpt>
      <trkpt lat="43.38789340" lon="12.99683840">
        <ele>898.00000</ele>
        <time>2009-07-31T10:43:31Z</time>
      </trkpt>
      <trkpt lat="43.38786720" lon="12.99681240">
        <ele>898.00000</ele>
        <time>2009-07-31T10:43:32Z</time>
      </trkpt>
      <trkpt lat="43.38783630" lon="12.99679280">
        <ele>898.00000</ele>
        <time>2009-07-31T10:43:33Z</time>
      </trkpt>
      <trkpt lat="43.38781830" lon="12.99676470">
        <ele>898.00000</ele>
        <time>2009-07-31T10:43:34Z</time>
      </trkpt>
      <trkpt lat="43.38779150" lon="12.99675220">
        <ele>898.00000</ele>
        <time>2009-07-31T10:43:36Z</time>
      </trkpt>
      <trkpt lat="43.38775480" lon="12.99672340">
        <ele>898.00000</ele>
        <time>2009-07-31T10:43:37Z</time>
      </trkpt>
      <trkpt lat="43.38772700" lon="12.99669920">
        <ele>898.00000</ele>
        <time>2009-07-31T10:43:39Z</time>
      </trkpt>
      <trkpt lat="43.38769600" lon="12.99668610">
        <ele>898.00000</ele>
        <time>2009-07-31T10:43:40Z</time>
      </trkpt>
      <trkpt lat="43.38767370" lon="12.99666740">
        <ele>898.00000</ele>
        <time>2009-07-31T10:43:41Z</time>
      </trkpt>
      <trkpt lat="43.38764170" lon="12.99666170">
        <ele>898.00000</ele>
        <time>2009-07-31T10:43:42Z</time>
      </trkpt>
      <trkpt lat="43.38761170" lon="12.99665390">
        <ele>898.00000</ele>
        <time>2009-07-31T10:43:43Z</time>
      </trkpt>
      <trkpt lat="43.38758420" lon="12.99665070">
        <ele>898.00000</ele>
        <time>2009-07-31T10:43:45Z</time>
      </trkpt>
      <trkpt lat="43.38756920" lon="12.99665870">
        <ele>898.00000</ele>
        <time>2009-07-31T10:43:45Z</time>
      </trkpt>
      <trkpt lat="43.38754470" lon="12.99667480">
        <ele>898.00000</ele>
        <time>2009-07-31T10:43:46Z</time>
      </trkpt>
      <trkpt lat="43.38751590" lon="12.99668930">
        <ele>898.00000</ele>
        <time>2009-07-31T10:43:48Z</time>
      </trkpt>
      <trkpt lat="43.38749220" lon="12.99669210">
        <ele>898.00000</ele>
        <time>2009-07-31T10:43:48Z</time>
      </trkpt>
      <trkpt lat="43.38747300" lon="12.99669990">
        <ele>898.00000</ele>
        <time>2009-07-31T10:43:49Z</time>
      </trkpt>
      <trkpt lat="43.38745440" lon="12.99671950">
        <ele>898.00000</ele>
        <time>2009-07-31T10:43:50Z</time>
      </trkpt>
      <trkpt lat="43.38743570" lon="12.99674520">
        <ele>898.00000</ele>
        <time>2009-07-31T10:43:51Z</time>
      </trkpt>
      <trkpt lat="43.38742410" lon="12.99675990">
        <ele>898.00000</ele>
        <time>2009-07-31T10:43:52Z</time>
      </trkpt>
      <trkpt lat="43.38744570" lon="12.99682450">
        <ele>898.00000</ele>
        <time>2009-07-31T10:43:54Z</time>
      </trkpt>
      <trkpt lat="43.38744210" lon="12.99685540">
        <ele>898.00000</ele>
        <time>2009-07-31T10:43:55Z</time>
      </trkpt>
      <trkpt lat="43.38745430" lon="12.99687280">
        <ele>898.00000</ele>
        <time>2009-07-31T10:43:56Z</time>
      </trkpt>
      <trkpt lat="43.38746080" lon="12.99689150">
        <ele>898.00000</ele>
        <time>2009-07-31T10:43:56Z</time>
      </trkpt>
      <trkpt lat="43.38746980" lon="12.99691580">
        <ele>898.00000</ele>
        <time>2009-07-31T10:43:57Z</time>
      </trkpt>
      <trkpt lat="43.38748450" lon="12.99694330">
        <ele>898.00000</ele>
        <time>2009-07-31T10:43:58Z</time>
      </trkpt>
      <trkpt lat="43.38749360" lon="12.99696730">
        <ele>898.00000</ele>
        <time>2009-07-31T10:43:59Z</time>
      </trkpt>
      <trkpt lat="43.38750830" lon="12.99698310">
        <ele>898.00000</ele>
        <time>2009-07-31T10:44:00Z</time>
      </trkpt>
      <trkpt lat="43.38752880" lon="12.99699480">
        <ele>898.00000</ele>
        <time>2009-07-31T10:44:00Z</time>
      </trkpt>
      <trkpt lat="43.38754590" lon="12.99700540">
        <ele>898.00000</ele>
        <time>2009-07-31T10:44:01Z</time>
      </trkpt>
      <trkpt lat="43.38756780" lon="12.99701910">
        <ele>898.00000</ele>
        <time>2009-07-31T10:44:02Z</time>
      </trkpt>
      <trkpt lat="43.38758220" lon="12.99703480">
        <ele>898.00000</ele>
        <time>2009-07-31T10:44:03Z</time>
      </trkpt>
      <trkpt lat="43.38761340" lon="12.99704230">
        <ele>898.00000</ele>
        <time>2009-07-31T10:44:04Z</time>
      </trkpt>
      <trkpt lat="43.38763670" lon="12.99704950">
        <ele>898.00000</ele>
        <time>2009-07-31T10:44:05Z</time>
      </trkpt>
      <trkpt lat="43.38764050" lon="12.99707410">
        <ele>898.00000</ele>
        <time>2009-07-31T10:44:06Z</time>
      </trkpt>
      <trkpt lat="43.38765420" lon="12.99710530">
        <ele>914.00000</ele>
        <time>2009-07-31T10:44:07Z</time>
      </trkpt>
      <trkpt lat="43.38767150" lon="12.99712670">
        <ele>914.00000</ele>
        <time>2009-07-31T10:44:08Z</time>
      </trkpt>
      <trkpt lat="43.38769380" lon="12.99714850">
        <ele>914.00000</ele>
        <time>2009-07-31T10:44:09Z</time>
      </trkpt>
      <trkpt lat="43.38770990" lon="12.99716850">
        <ele>914.00000</ele>
        <time>2009-07-31T10:44:10Z</time>
      </trkpt>
      <trkpt lat="43.38772930" lon="12.99717860">
        <ele>914.00000</ele>
        <time>2009-07-31T10:44:11Z</time>
      </trkpt>
      <trkpt lat="43.38774430" lon="12.99720730">
        <ele>914.00000</ele>
        <time>2009-07-31T10:44:12Z</time>
      </trkpt>
      <trkpt lat="43.38777010" lon="12.99722980">
        <ele>914.00000</ele>
        <time>2009-07-31T10:44:13Z</time>
      </trkpt>
      <trkpt lat="43.38778100" lon="12.99725640">
        <ele>914.00000</ele>
        <time>2009-07-31T10:44:14Z</time>
      </trkpt>
      <trkpt lat="43.38779350" lon="12.99726920">
        <ele>914.00000</ele>
        <time>2009-07-31T10:44:14Z</time>
      </trkpt>
      <trkpt lat="43.38781200" lon="12.99728960">
        <ele>914.00000</ele>
        <time>2009-07-31T10:44:15Z</time>
      </trkpt>
      <trkpt lat="43.38783640" lon="12.99730450">
        <ele>914.00000</ele>
        <time>2009-07-31T10:44:16Z</time>
      </trkpt>
      <trkpt lat="43.38785000" lon="12.99733030">
        <ele>914.00000</ele>
        <time>2009-07-31T10:44:17Z</time>
      </trkpt>
      <trkpt lat="43.38788170" lon="12.99734770">
        <ele>914.00000</ele>
        <time>2009-07-31T10:44:19Z</time>
      </trkpt>
      <trkpt lat="43.38788980" lon="12.99737270">
        <ele>914.00000</ele>
        <time>2009-07-31T10:44:19Z</time>
      </trkpt>
      <trkpt lat="43.38790690" lon="12.99739890">
        <ele>914.00000</ele>
        <time>2009-07-31T10:44:21Z</time>
      </trkpt>
      <trkpt lat="43.38791640" lon="12.99742500">
        <ele>914.00000</ele>
        <time>2009-07-31T10:44:21Z</time>
      </trkpt>
      <trkpt lat="43.38791930" lon="12.99745760">
        <ele>903.00000</ele>
        <time>2009-07-31T10:44:22Z</time>
      </trkpt>
      <trkpt lat="43.38793170" lon="12.99748150">
        <ele>903.00000</ele>
        <time>2009-07-31T10:44:23Z</time>
      </trkpt>
      <trkpt lat="43.38794840" lon="12.99749930">
        <ele>903.00000</ele>
        <time>2009-07-31T10:44:24Z</time>
      </trkpt>
      <trkpt lat="43.38794550" lon="12.99752480">
        <ele>903.00000</ele>
        <time>2009-07-31T10:44:25Z</time>
      </trkpt>
      <trkpt lat="43.38801530" lon="12.99752620">
        <ele>903.00000</ele>
        <time>2009-07-31T10:44:28Z</time>
      </trkpt>
      <trkpt lat="43.38802500" lon="12.99755250">
        <ele>903.00000</ele>
        <time>2009-07-31T10:44:28Z</time>
      </trkpt>
      <trkpt lat="43.38803060" lon="12.99758450">
        <ele>903.00000</ele>
        <time>2009-07-31T10:44:29Z</time>
      </trkpt>
      <trkpt lat="43.38802700" lon="12.99762780">
        <ele>903.00000</ele>
        <time>2009-07-31T10:44:31Z</time>
      </trkpt>
      <trkpt lat="43.38801990" lon="12.99767080">
        <ele>903.00000</ele>
        <time>2009-07-31T10:44:32Z</time>
      </trkpt>
      <trkpt lat="43.38803160" lon="12.99769780">
        <ele>903.00000</ele>
        <time>2009-07-31T10:44:33Z</time>
      </trkpt>
      <trkpt lat="43.38805390" lon="12.99772670">
        <ele>903.00000</ele>
        <time>2009-07-31T10:44:34Z</time>
      </trkpt>
      <trkpt lat="43.38807270" lon="12.99775000">
        <ele>903.00000</ele>
        <time>2009-07-31T10:44:35Z</time>
      </trkpt>
      <trkpt lat="43.38808460" lon="12.99777970">
        <ele>903.00000</ele>
        <time>2009-07-31T10:44:36Z</time>
      </trkpt>
      <trkpt lat="43.38809160" lon="12.99780740">
        <ele>903.00000</ele>
        <time>2009-07-31T10:44:37Z</time>
      </trkpt>
      <trkpt lat="43.38809810" lon="12.99783770">
        <ele>903.00000</ele>
        <time>2009-07-31T10:44:38Z</time>
      </trkpt>
      <trkpt lat="43.38810260" lon="12.99785620">
        <ele>903.00000</ele>
        <time>2009-07-31T10:44:38Z</time>
      </trkpt>
      <trkpt lat="43.38811570" lon="12.99788870">
        <ele>903.00000</ele>
        <time>2009-07-31T10:44:39Z</time>
      </trkpt>
      <trkpt lat="43.38812780" lon="12.99790340">
        <ele>903.00000</ele>
        <time>2009-07-31T10:44:40Z</time>
      </trkpt>
      <trkpt lat="43.38812990" lon="12.99792970">
        <ele>917.00000</ele>
        <time>2009-07-31T10:44:41Z</time>
      </trkpt>
      <trkpt lat="43.38814120" lon="12.99795260">
        <ele>917.00000</ele>
        <time>2009-07-31T10:44:42Z</time>
      </trkpt>
      <trkpt lat="43.38815460" lon="12.99797300">
        <ele>917.00000</ele>
        <time>2009-07-31T10:44:43Z</time>
      </trkpt>
      <trkpt lat="43.38816270" lon="12.99800650">
        <ele>917.00000</ele>
        <time>2009-07-31T10:44:44Z</time>
      </trkpt>
      <trkpt lat="43.38818060" lon="12.99803370">
        <ele>917.00000</ele>
        <time>2009-07-31T10:44:45Z</time>
      </trkpt>
      <trkpt lat="43.38819130" lon="12.99806010">
        <ele>917.00000</ele>
        <time>2009-07-31T10:44:45Z</time>
      </trkpt>
      <trkpt lat="43.38821100" lon="12.99807180">
        <ele>917.00000</ele>
        <time>2009-07-31T10:44:46Z</time>
      </trkpt>
      <trkpt lat="43.38822380" lon="12.99809400">
        <ele>917.00000</ele>
        <time>2009-07-31T10:44:47Z</time>
      </trkpt>
      <trkpt lat="43.38822020" lon="12.99812220">
        <ele>917.00000</ele>
        <time>2009-07-31T10:44:48Z</time>
      </trkpt>
      <trkpt lat="43.38822940" lon="12.99813330">
        <ele>917.00000</ele>
        <time>2009-07-31T10:44:48Z</time>
      </trkpt>
      <trkpt lat="43.38823310" lon="12.99814570">
        <ele>917.00000</ele>
        <time>2009-07-31T10:44:49Z</time>
      </trkpt>
      <trkpt lat="43.38823470" lon="12.99814790">
        <ele>917.00000</ele>
        <time>2009-07-31T10:44:49Z</time>
      </trkpt>
      <trkpt lat="43.38823820" lon="12.99814880">
        <ele>917.00000</ele>
        <time>2009-07-31T10:44:49Z</time>
      </trkpt>
      <trkpt lat="43.38823750" lon="12.99814910">
        <ele>917.00000</ele>
        <time>2009-07-31T10:44:49Z</time>
      </trkpt>
      <trkpt lat="43.38823650" lon="12.99814880">
        <ele>917.00000</ele>
        <time>2009-07-31T10:44:49Z</time>
      </trkpt>
      <trkpt lat="43.38823390" lon="12.99814810">
        <ele>917.00000</ele>
        <time>2009-07-31T10:44:49Z</time>
      </trkpt>
      <trkpt lat="43.38823600" lon="12.99815000">
        <ele>917.00000</ele>
        <time>2009-07-31T10:44:49Z</time>
      </trkpt>
      <trkpt lat="43.38823960" lon="12.99815180">
        <ele>917.00000</ele>
        <time>2009-07-31T10:44:49Z</time>
      </trkpt>
      <trkpt lat="43.38824020" lon="12.99815260">
        <ele>917.00000</ele>
        <time>2009-07-31T10:44:50Z</time>
      </trkpt>
      <trkpt lat="43.38823970" lon="12.99815270">
        <ele>917.00000</ele>
        <time>2009-07-31T10:44:50Z</time>
      </trkpt>
      <trkpt lat="43.38823900" lon="12.99815280">
        <ele>917.00000</ele>
        <time>2009-07-31T10:44:50Z</time>
      </trkpt>
      <trkpt lat="43.38824120" lon="12.99815410">
        <ele>917.00000</ele>
        <time>2009-07-31T10:44:50Z</time>
      </trkpt>
      <trkpt lat="43.38824180" lon="12.99815440">
        <ele>917.00000</ele>
        <time>2009-07-31T10:44:50Z</time>
      </trkpt>
      <trkpt lat="43.38824400" lon="12.99815550">
        <ele>917.00000</ele>
        <time>2009-07-31T10:44:50Z</time>
      </trkpt>
      <trkpt lat="43.38824500" lon="12.99815590">
        <ele>917.00000</ele>
        <time>2009-07-31T10:44:50Z</time>
      </trkpt>
      <trkpt lat="43.38824490" lon="12.99815620">
        <ele>917.00000</ele>
        <time>2009-07-31T10:44:50Z</time>
      </trkpt>
      <trkpt lat="43.38824380" lon="12.99815580">
        <ele>917.00000</ele>
        <time>2009-07-31T10:44:50Z</time>
      </trkpt>
      <trkpt lat="43.38824340" lon="12.99815560">
        <ele>917.00000</ele>
        <time>2009-07-31T10:44:50Z</time>
      </trkpt>
      <trkpt lat="43.38824380" lon="12.99815590">
        <ele>917.00000</ele>
        <time>2009-07-31T10:44:50Z</time>
      </trkpt>
      <trkpt lat="43.38824440" lon="12.99815640">
        <ele>917.00000</ele>
        <time>2009-07-31T10:44:50Z</time>
      </trkpt>
      <trkpt lat="43.38824520" lon="12.99815710">
        <ele>917.00000</ele>
        <time>2009-07-31T10:44:50Z</time>
      </trkpt>
      <trkpt lat="43.38824250" lon="12.99815680">
        <ele>917.00000</ele>
        <time>2009-07-31T10:44:50Z</time>
      </trkpt>
      <trkpt lat="43.38823990" lon="12.99815670">
        <ele>917.00000</ele>
        <time>2009-07-31T10:44:50Z</time>
      </trkpt>
      <trkpt lat="43.38823920" lon="12.99815680">
        <ele>917.00000</ele>
        <time>2009-07-31T10:44:50Z</time>
      </trkpt>
      <trkpt lat="43.38823990" lon="12.99815700">
        <ele>917.00000</ele>
        <time>2009-07-31T10:44:50Z</time>
      </trkpt>
      <trkpt lat="43.38824230" lon="12.99815850">
        <ele>917.00000</ele>
        <time>2009-07-31T10:44:50Z</time>
      </trkpt>
      <trkpt lat="43.38824120" lon="12.99815890">
        <ele>917.00000</ele>
        <time>2009-07-31T10:44:50Z</time>
      </trkpt>
      <trkpt lat="43.38824060" lon="12.99815910">
        <ele>917.00000</ele>
        <time>2009-07-31T10:44:50Z</time>
      </trkpt>
      <trkpt lat="43.38824070" lon="12.99815980">
        <ele>917.00000</ele>
        <time>2009-07-31T10:44:50Z</time>
      </trkpt>
      <trkpt lat="43.38823820" lon="12.99815950">
        <ele>917.00000</ele>
        <time>2009-07-31T10:44:50Z</time>
      </trkpt>
      <trkpt lat="43.38823610" lon="12.99815880">
        <ele>917.00000</ele>
        <time>2009-07-31T10:44:51Z</time>
      </trkpt>
      <trkpt lat="43.38823520" lon="12.99818400">
        <ele>917.00000</ele>
        <time>2009-07-31T10:44:51Z</time>
      </trkpt>
      <trkpt lat="43.38823010" lon="12.99819200">
        <ele>917.00000</ele>
        <time>2009-07-31T10:44:52Z</time>
      </trkpt>
      <trkpt lat="43.38821460" lon="12.99819520">
        <ele>917.00000</ele>
        <time>2009-07-31T10:44:52Z</time>
      </trkpt>
      <trkpt lat="43.38819850" lon="12.99819110">
        <ele>917.00000</ele>
        <time>2009-07-31T10:44:53Z</time>
      </trkpt>
      <trkpt lat="43.38817620" lon="12.99818620">
        <ele>917.00000</ele>
        <time>2009-07-31T10:44:54Z</time>
      </trkpt>
      <trkpt lat="43.38816230" lon="12.99817520">
        <ele>917.00000</ele>
        <time>2009-07-31T10:44:54Z</time>
      </trkpt>
      <trkpt lat="43.38812300" lon="12.99817630">
        <ele>917.00000</ele>
        <time>2009-07-31T10:44:56Z</time>
      </trkpt>
      <trkpt lat="43.38810310" lon="12.99816670">
        <ele>917.00000</ele>
        <time>2009-07-31T10:44:57Z</time>
      </trkpt>
      <trkpt lat="43.38808420" lon="12.99816360">
        <ele>917.00000</ele>
        <time>2009-07-31T10:44:58Z</time>
      </trkpt>
      <trkpt lat="43.38805240" lon="12.99816620">
        <ele>917.00000</ele>
        <time>2009-07-31T10:44:59Z</time>
      </trkpt>
      <trkpt lat="43.38804410" lon="12.99814490">
        <ele>917.00000</ele>
        <time>2009-07-31T10:45:00Z</time>
      </trkpt>
      <trkpt lat="43.38802850" lon="12.99812530">
        <ele>917.00000</ele>
        <time>2009-07-31T10:45:00Z</time>
      </trkpt>
      <trkpt lat="43.38800760" lon="12.99810370">
        <ele>917.00000</ele>
        <time>2009-07-31T10:45:01Z</time>
      </trkpt>
      <trkpt lat="43.38799300" lon="12.99808800">
        <ele>917.00000</ele>
        <time>2009-07-31T10:45:02Z</time>
      </trkpt>
      <trkpt lat="43.38796940" lon="12.99807850">
        <ele>917.00000</ele>
        <time>2009-07-31T10:45:03Z</time>
      </trkpt>
      <trkpt lat="43.38795210" lon="12.99807380">
        <ele>917.00000</ele>
        <time>2009-07-31T10:45:04Z</time>
      </trkpt>
      <trkpt lat="43.38793490" lon="12.99807350">
        <ele>917.00000</ele>
        <time>2009-07-31T10:45:05Z</time>
      </trkpt>
      <trkpt lat="43.38790640" lon="12.99805430">
        <ele>933.00000</ele>
        <time>2009-07-31T10:45:06Z</time>
      </trkpt>
      <trkpt lat="43.38788010" lon="12.99802350">
        <ele>933.00000</ele>
        <time>2009-07-31T10:45:07Z</time>
      </trkpt>
      <trkpt lat="43.38787310" lon="12.99799540">
        <ele>933.00000</ele>
        <time>2009-07-31T10:45:08Z</time>
      </trkpt>
      <trkpt lat="43.38785380" lon="12.99798170">
        <ele>933.00000</ele>
        <time>2009-07-31T10:45:09Z</time>
      </trkpt>
      <trkpt lat="43.38783450" lon="12.99797060">
        <ele>933.00000</ele>
        <time>2009-07-31T10:45:10Z</time>
      </trkpt>
      <trkpt lat="43.38780830" lon="12.99795220">
        <ele>933.00000</ele>
        <time>2009-07-31T10:45:11Z</time>
      </trkpt>
      <trkpt lat="43.38778870" lon="12.99794300">
        <ele>933.00000</ele>
        <time>2009-07-31T10:45:12Z</time>
      </trkpt>
      <trkpt lat="43.38776680" lon="12.99791990">
        <ele>933.00000</ele>
        <time>2009-07-31T10:45:13Z</time>
      </trkpt>
      <trkpt lat="43.38774780" lon="12.99789990">
        <ele>914.00000</ele>
        <time>2009-07-31T10:45:14Z</time>
      </trkpt>
      <trkpt lat="43.38772540" lon="12.99789420">
        <ele>914.00000</ele>
        <time>2009-07-31T10:45:15Z</time>
      </trkpt>
      <trkpt lat="43.38770720" lon="12.99787980">
        <ele>914.00000</ele>
        <time>2009-07-31T10:45:16Z</time>
      </trkpt>
      <trkpt lat="43.38768430" lon="12.99785560">
        <ele>914.00000</ele>
        <time>2009-07-31T10:45:17Z</time>
      </trkpt>
      <trkpt lat="43.38766550" lon="12.99785020">
        <ele>914.00000</ele>
        <time>2009-07-31T10:45:18Z</time>
      </trkpt>
      <trkpt lat="43.38764650" lon="12.99783640">
        <ele>914.00000</ele>
        <time>2009-07-31T10:45:18Z</time>
      </trkpt>
      <trkpt lat="43.38762670" lon="12.99782940">
        <ele>914.00000</ele>
        <time>2009-07-31T10:45:19Z</time>
      </trkpt>
      <trkpt lat="43.38760810" lon="12.99781810">
        <ele>914.00000</ele>
        <time>2009-07-31T10:45:20Z</time>
      </trkpt>
      <trkpt lat="43.38759090" lon="12.99780820">
        <ele>914.00000</ele>
        <time>2009-07-31T10:45:21Z</time>
      </trkpt>
      <trkpt lat="43.38757870" lon="12.99780730">
        <ele>914.00000</ele>
        <time>2009-07-31T10:45:21Z</time>
      </trkpt>
      <trkpt lat="43.38754460" lon="12.99781130">
        <ele>914.00000</ele>
        <time>2009-07-31T10:45:23Z</time>
      </trkpt>
      <trkpt lat="43.38751440" lon="12.99781300">
        <ele>914.00000</ele>
        <time>2009-07-31T10:45:24Z</time>
      </trkpt>
      <trkpt lat="43.38749850" lon="12.99779680">
        <ele>914.00000</ele>
        <time>2009-07-31T10:45:25Z</time>
      </trkpt>
      <trkpt lat="43.38748290" lon="12.99777890">
        <ele>914.00000</ele>
        <time>2009-07-31T10:45:25Z</time>
      </trkpt>
      <trkpt lat="43.38745070" lon="12.99778870">
        <ele>914.00000</ele>
        <time>2009-07-31T10:45:27Z</time>
      </trkpt>
      <trkpt lat="43.38742520" lon="12.99779480">
        <ele>914.00000</ele>
        <time>2009-07-31T10:45:28Z</time>
      </trkpt>
      <trkpt lat="43.38740320" lon="12.99778350">
        <ele>914.00000</ele>
        <time>2009-07-31T10:45:29Z</time>
      </trkpt>
      <trkpt lat="43.38738250" lon="12.99776740">
        <ele>914.00000</ele>
        <time>2009-07-31T10:45:30Z</time>
      </trkpt>
      <trkpt lat="43.38735300" lon="12.99777900">
        <ele>914.00000</ele>
        <time>2009-07-31T10:45:31Z</time>
      </trkpt>
      <trkpt lat="43.38733430" lon="12.99777640">
        <ele>914.00000</ele>
        <time>2009-07-31T10:45:32Z</time>
      </trkpt>
      <trkpt lat="43.38731530" lon="12.99777650">
        <ele>914.00000</ele>
        <time>2009-07-31T10:45:32Z</time>
      </trkpt>
      <trkpt lat="43.38729670" lon="12.99778850">
        <ele>914.00000</ele>
        <time>2009-07-31T10:45:33Z</time>
      </trkpt>
      <trkpt lat="43.38727080" lon="12.99778940">
        <ele>914.00000</ele>
        <time>2009-07-31T10:45:34Z</time>
      </trkpt>
      <trkpt lat="43.38724910" lon="12.99779510">
        <ele>914.00000</ele>
        <time>2009-07-31T10:45:35Z</time>
      </trkpt>
      <trkpt lat="43.38721340" lon="12.99781980">
        <ele>914.00000</ele>
        <time>2009-07-31T10:45:37Z</time>
      </trkpt>
      <trkpt lat="43.38720410" lon="12.99780820">
        <ele>914.00000</ele>
        <time>2009-07-31T10:45:37Z</time>
      </trkpt>
      <trkpt lat="43.38717530" lon="12.99780270">
        <ele>914.00000</ele>
        <time>2009-07-31T10:45:38Z</time>
      </trkpt>
      <trkpt lat="43.38715180" lon="12.99781230">
        <ele>914.00000</ele>
        <time>2009-07-31T10:45:39Z</time>
      </trkpt>
      <trkpt lat="43.38712360" lon="12.99783070">
        <ele>914.00000</ele>
        <time>2009-07-31T10:45:41Z</time>
      </trkpt>
      <trkpt lat="43.38710430" lon="12.99782460">
        <ele>914.00000</ele>
        <time>2009-07-31T10:45:42Z</time>
      </trkpt>
      <trkpt lat="43.38708110" lon="12.99783110">
        <ele>918.00000</ele>
        <time>2009-07-31T10:45:42Z</time>
      </trkpt>
      <trkpt lat="43.38705490" lon="12.99784060">
        <ele>918.00000</ele>
        <time>2009-07-31T10:45:44Z</time>
      </trkpt>
      <trkpt lat="43.38702590" lon="12.99783400">
        <ele>918.00000</ele>
        <time>2009-07-31T10:45:45Z</time>
      </trkpt>
      <trkpt lat="43.38699730" lon="12.99783920">
        <ele>918.00000</ele>
        <time>2009-07-31T10:45:46Z</time>
      </trkpt>
      <trkpt lat="43.38696750" lon="12.99784120">
        <ele>918.00000</ele>
        <time>2009-07-31T10:45:47Z</time>
      </trkpt>
      <trkpt lat="43.38693370" lon="12.99784470">
        <ele>918.00000</ele>
        <time>2009-07-31T10:45:48Z</time>
      </trkpt>
      <trkpt lat="43.38691610" lon="12.99785800">
        <ele>918.00000</ele>
        <time>2009-07-31T10:45:49Z</time>
      </trkpt>
      <trkpt lat="43.38689790" lon="12.99786010">
        <ele>918.00000</ele>
        <time>2009-07-31T10:45:50Z</time>
      </trkpt>
      <trkpt lat="43.38687070" lon="12.99785210">
        <ele>918.00000</ele>
        <time>2009-07-31T10:45:51Z</time>
      </trkpt>
      <trkpt lat="43.38684910" lon="12.99784660">
        <ele>918.00000</ele>
        <time>2009-07-31T10:45:52Z</time>
      </trkpt>
      <trkpt lat="43.38682630" lon="12.99785100">
        <ele>918.00000</ele>
        <time>2009-07-31T10:45:53Z</time>
      </trkpt>
      <trkpt lat="43.38679940" lon="12.99783660">
        <ele>918.00000</ele>
        <time>2009-07-31T10:45:54Z</time>
      </trkpt>
      <trkpt lat="43.38676910" lon="12.99783490">
        <ele>918.00000</ele>
        <time>2009-07-31T10:45:55Z</time>
      </trkpt>
      <trkpt lat="43.38675350" lon="12.99784350">
        <ele>918.00000</ele>
        <time>2009-07-31T10:45:56Z</time>
      </trkpt>
      <trkpt lat="43.38674460" lon="12.99784500">
        <ele>918.00000</ele>
        <time>2009-07-31T10:45:56Z</time>
      </trkpt>
      <trkpt lat="43.38673080" lon="12.99784670">
        <ele>918.00000</ele>
        <time>2009-07-31T10:45:57Z</time>
      </trkpt>
      <trkpt lat="43.38670550" lon="12.99788100">
        <ele>918.00000</ele>
        <time>2009-07-31T10:45:58Z</time>
      </trkpt>
      <trkpt lat="43.38668340" lon="12.99788460">
        <ele>918.00000</ele>
        <time>2009-07-31T10:45:59Z</time>
      </trkpt>
      <trkpt lat="43.38666590" lon="12.99788160">
        <ele>918.00000</ele>
        <time>2009-07-31T10:46:00Z</time>
      </trkpt>
      <trkpt lat="43.38664720" lon="12.99788060">
        <ele>918.00000</ele>
        <time>2009-07-31T10:46:01Z</time>
      </trkpt>
      <trkpt lat="43.38662690" lon="12.99788470">
        <ele>918.00000</ele>
        <time>2009-07-31T10:46:01Z</time>
      </trkpt>
      <trkpt lat="43.38661930" lon="12.99787390">
        <ele>918.00000</ele>
        <time>2009-07-31T10:46:02Z</time>
      </trkpt>
      <trkpt lat="43.38660480" lon="12.99787270">
        <ele>918.00000</ele>
        <time>2009-07-31T10:46:02Z</time>
      </trkpt>
      <trkpt lat="43.38658400" lon="12.99787960">
        <ele>918.00000</ele>
        <time>2009-07-31T10:46:03Z</time>
      </trkpt>
      <trkpt lat="43.38656330" lon="12.99788340">
        <ele>918.00000</ele>
        <time>2009-07-31T10:46:04Z</time>
      </trkpt>
      <trkpt lat="43.38654350" lon="12.99789110">
        <ele>918.00000</ele>
        <time>2009-07-31T10:46:05Z</time>
      </trkpt>
      <trkpt lat="43.38652160" lon="12.99789460">
        <ele>918.00000</ele>
        <time>2009-07-31T10:46:06Z</time>
      </trkpt>
      <trkpt lat="43.38650200" lon="12.99789430">
        <ele>918.00000</ele>
        <time>2009-07-31T10:46:07Z</time>
      </trkpt>
      <trkpt lat="43.38648350" lon="12.99789280">
        <ele>918.00000</ele>
        <time>2009-07-31T10:46:07Z</time>
      </trkpt>
      <trkpt lat="43.38646140" lon="12.99789290">
        <ele>918.00000</ele>
        <time>2009-07-31T10:46:08Z</time>
      </trkpt>
      <trkpt lat="43.38643830" lon="12.99788650">
        <ele>918.00000</ele>
        <time>2009-07-31T10:46:09Z</time>
      </trkpt>
      <trkpt lat="43.38642050" lon="12.99787020">
        <ele>918.00000</ele>
        <time>2009-07-31T10:46:10Z</time>
      </trkpt>
      <trkpt lat="43.38640090" lon="12.99786960">
        <ele>918.00000</ele>
        <time>2009-07-31T10:46:11Z</time>
      </trkpt>
      <trkpt lat="43.38638410" lon="12.99787050">
        <ele>918.00000</ele>
        <time>2009-07-31T10:46:12Z</time>
      </trkpt>
      <trkpt lat="43.38636630" lon="12.99788050">
        <ele>918.00000</ele>
        <time>2009-07-31T10:46:12Z</time>
      </trkpt>
      <trkpt lat="43.38634940" lon="12.99790000">
        <ele>918.00000</ele>
        <time>2009-07-31T10:46:13Z</time>
      </trkpt>
      <trkpt lat="43.38631970" lon="12.99789720">
        <ele>918.00000</ele>
        <time>2009-07-31T10:46:14Z</time>
      </trkpt>
      <trkpt lat="43.38630780" lon="12.99789970">
        <ele>918.00000</ele>
        <time>2009-07-31T10:46:15Z</time>
      </trkpt>
      <trkpt lat="43.38629280" lon="12.99789110">
        <ele>918.00000</ele>
        <time>2009-07-31T10:46:15Z</time>
      </trkpt>
      <trkpt lat="43.38627910" lon="12.99789690">
        <ele>918.00000</ele>
        <time>2009-07-31T10:46:16Z</time>
      </trkpt>
      <trkpt lat="43.38625840" lon="12.99789910">
        <ele>918.00000</ele>
        <time>2009-07-31T10:46:17Z</time>
      </trkpt>
      <trkpt lat="43.38623760" lon="12.99790770">
        <ele>917.00000</ele>
        <time>2009-07-31T10:46:18Z</time>
      </trkpt>
      <trkpt lat="43.38622300" lon="12.99790950">
        <ele>917.00000</ele>
        <time>2009-07-31T10:46:18Z</time>
      </trkpt>
      <trkpt lat="43.38620340" lon="12.99789480">
        <ele>917.00000</ele>
        <time>2009-07-31T10:46:19Z</time>
      </trkpt>
      <trkpt lat="43.38618020" lon="12.99788890">
        <ele>917.00000</ele>
        <time>2009-07-31T10:46:20Z</time>
      </trkpt>
      <trkpt lat="43.38616370" lon="12.99788440">
        <ele>917.00000</ele>
        <time>2009-07-31T10:46:21Z</time>
      </trkpt>
      <trkpt lat="43.38615120" lon="12.99788830">
        <ele>917.00000</ele>
        <time>2009-07-31T10:46:21Z</time>
      </trkpt>
      <trkpt lat="43.38613530" lon="12.99788690">
        <ele>917.00000</ele>
        <time>2009-07-31T10:46:22Z</time>
      </trkpt>
      <trkpt lat="43.38612100" lon="12.99789360">
        <ele>917.00000</ele>
        <time>2009-07-31T10:46:23Z</time>
      </trkpt>
      <trkpt lat="43.38609930" lon="12.99789050">
        <ele>917.00000</ele>
        <time>2009-07-31T10:46:23Z</time>
      </trkpt>
      <trkpt lat="43.38608230" lon="12.99789480">
        <ele>917.00000</ele>
        <time>2009-07-31T10:46:24Z</time>
      </trkpt>
      <trkpt lat="43.38605820" lon="12.99789840">
        <ele>917.00000</ele>
        <time>2009-07-31T10:46:25Z</time>
      </trkpt>
      <trkpt lat="43.38603310" lon="12.99790260">
        <ele>917.00000</ele>
        <time>2009-07-31T10:46:26Z</time>
      </trkpt>
      <trkpt lat="43.38601310" lon="12.99790230">
        <ele>917.00000</ele>
        <time>2009-07-31T10:46:27Z</time>
      </trkpt>
      <trkpt lat="43.38599330" lon="12.99792010">
        <ele>960.00000</ele>
        <time>2009-07-31T10:46:28Z</time>
      </trkpt>
      <trkpt lat="43.38597540" lon="12.99791730">
        <ele>960.00000</ele>
        <time>2009-07-31T10:46:29Z</time>
      </trkpt>
      <trkpt lat="43.38595590" lon="12.99792240">
        <ele>960.00000</ele>
        <time>2009-07-31T10:46:29Z</time>
      </trkpt>
      <trkpt lat="43.38593310" lon="12.99793420">
        <ele>960.00000</ele>
        <time>2009-07-31T10:46:30Z</time>
      </trkpt>
      <trkpt lat="43.38591430" lon="12.99793000">
        <ele>960.00000</ele>
        <time>2009-07-31T10:46:31Z</time>
      </trkpt>
      <trkpt lat="43.38588660" lon="12.99792450">
        <ele>960.00000</ele>
        <time>2009-07-31T10:46:32Z</time>
      </trkpt>
      <trkpt lat="43.38586330" lon="12.99793110">
        <ele>960.00000</ele>
        <time>2009-07-31T10:46:33Z</time>
      </trkpt>
      <trkpt lat="43.38585450" lon="12.99794160">
        <ele>960.00000</ele>
        <time>2009-07-31T10:46:34Z</time>
      </trkpt>
      <trkpt lat="43.38584130" lon="12.99794080">
        <ele>960.00000</ele>
        <time>2009-07-31T10:46:34Z</time>
      </trkpt>
      <trkpt lat="43.38582490" lon="12.99793260">
        <ele>960.00000</ele>
        <time>2009-07-31T10:46:35Z</time>
      </trkpt>
      <trkpt lat="43.38580770" lon="12.99793670">
        <ele>960.00000</ele>
        <time>2009-07-31T10:46:36Z</time>
      </trkpt>
      <trkpt lat="43.38578850" lon="12.99794750">
        <ele>960.00000</ele>
        <time>2009-07-31T10:46:36Z</time>
      </trkpt>
      <trkpt lat="43.38577420" lon="12.99797300">
        <ele>960.00000</ele>
        <time>2009-07-31T10:46:37Z</time>
      </trkpt>
      <trkpt lat="43.38575190" lon="12.99798610">
        <ele>960.00000</ele>
        <time>2009-07-31T10:46:38Z</time>
      </trkpt>
      <trkpt lat="43.38573910" lon="12.99799520">
        <ele>960.00000</ele>
        <time>2009-07-31T10:46:39Z</time>
      </trkpt>
      <trkpt lat="43.38571800" lon="12.99800700">
        <ele>960.00000</ele>
        <time>2009-07-31T10:46:40Z</time>
      </trkpt>
      <trkpt lat="43.38569350" lon="12.99801890">
        <ele>960.00000</ele>
        <time>2009-07-31T10:46:41Z</time>
      </trkpt>
      <trkpt lat="43.38567920" lon="12.99803530">
        <ele>960.00000</ele>
        <time>2009-07-31T10:46:42Z</time>
      </trkpt>
      <trkpt lat="43.38566690" lon="12.99807030">
        <ele>960.00000</ele>
        <time>2009-07-31T10:46:43Z</time>
      </trkpt>
      <trkpt lat="43.38564240" lon="12.99808700">
        <ele>960.00000</ele>
        <time>2009-07-31T10:46:44Z</time>
      </trkpt>
      <trkpt lat="43.38563320" lon="12.99811400">
        <ele>960.00000</ele>
        <time>2009-07-31T10:46:45Z</time>
      </trkpt>
      <trkpt lat="43.38561110" lon="12.99812290">
        <ele>960.00000</ele>
        <time>2009-07-31T10:46:46Z</time>
      </trkpt>
      <trkpt lat="43.38559150" lon="12.99812980">
        <ele>960.00000</ele>
        <time>2009-07-31T10:46:46Z</time>
      </trkpt>
      <trkpt lat="43.38557740" lon="12.99814230">
        <ele>960.00000</ele>
        <time>2009-07-31T10:46:47Z</time>
      </trkpt>
      <trkpt lat="43.38555790" lon="12.99815430">
        <ele>960.00000</ele>
        <time>2009-07-31T10:46:48Z</time>
      </trkpt>
      <trkpt lat="43.38553470" lon="12.99816170">
        <ele>960.00000</ele>
        <time>2009-07-31T10:46:49Z</time>
      </trkpt>
      <trkpt lat="43.38551330" lon="12.99819280">
        <ele>960.00000</ele>
        <time>2009-07-31T10:46:50Z</time>
      </trkpt>
      <trkpt lat="43.38548620" lon="12.99821000">
        <ele>960.00000</ele>
        <time>2009-07-31T10:46:51Z</time>
      </trkpt>
      <trkpt lat="43.38546760" lon="12.99820890">
        <ele>960.00000</ele>
        <time>2009-07-31T10:46:52Z</time>
      </trkpt>
      <trkpt lat="43.38544910" lon="12.99819530">
        <ele>960.00000</ele>
        <time>2009-07-31T10:46:53Z</time>
      </trkpt>
      <trkpt lat="43.38542730" lon="12.99819250">
        <ele>960.00000</ele>
        <time>2009-07-31T10:46:54Z</time>
      </trkpt>
      <trkpt lat="43.38540590" lon="12.99819620">
        <ele>977.00000</ele>
        <time>2009-07-31T10:46:55Z</time>
      </trkpt>
      <trkpt lat="43.38537800" lon="12.99817960">
        <ele>977.00000</ele>
        <time>2009-07-31T10:46:56Z</time>
      </trkpt>
      <trkpt lat="43.38536260" lon="12.99816380">
        <ele>977.00000</ele>
        <time>2009-07-31T10:46:57Z</time>
      </trkpt>
      <trkpt lat="43.38534280" lon="12.99817390">
        <ele>977.00000</ele>
        <time>2009-07-31T10:46:58Z</time>
      </trkpt>
      <trkpt lat="43.38532750" lon="12.99816530">
        <ele>977.00000</ele>
        <time>2009-07-31T10:46:58Z</time>
      </trkpt>
      <trkpt lat="43.38530290" lon="12.99816140">
        <ele>977.00000</ele>
        <time>2009-07-31T10:46:59Z</time>
      </trkpt>
      <trkpt lat="43.38528590" lon="12.99816230">
        <ele>977.00000</ele>
        <time>2009-07-31T10:47:00Z</time>
      </trkpt>
      <trkpt lat="43.38528160" lon="12.99815700">
        <ele>977.00000</ele>
        <time>2009-07-31T10:47:00Z</time>
      </trkpt>
      <trkpt lat="43.38526030" lon="12.99816560">
        <ele>977.00000</ele>
        <time>2009-07-31T10:47:01Z</time>
      </trkpt>
      <trkpt lat="43.38522950" lon="12.99817190">
        <ele>977.00000</ele>
        <time>2009-07-31T10:47:02Z</time>
      </trkpt>
      <trkpt lat="43.38522680" lon="12.99817600">
        <ele>977.00000</ele>
        <time>2009-07-31T10:47:02Z</time>
      </trkpt>
      <trkpt lat="43.38522940" lon="12.99817700">
        <ele>977.00000</ele>
        <time>2009-07-31T10:47:03Z</time>
      </trkpt>
      <trkpt lat="43.38522920" lon="12.99817650">
        <ele>977.00000</ele>
        <time>2009-07-31T10:47:03Z</time>
      </trkpt>
      <trkpt lat="43.38522880" lon="12.99817590">
        <ele>977.00000</ele>
        <time>2009-07-31T10:47:03Z</time>
      </trkpt>
      <trkpt lat="43.38522750" lon="12.99817470">
        <ele>977.00000</ele>
        <time>2009-07-31T10:47:03Z</time>
      </trkpt>
      <trkpt lat="43.38523950" lon="12.99817730">
        <ele>977.00000</ele>
        <time>2009-07-31T10:47:03Z</time>
      </trkpt>
      <trkpt lat="43.38525150" lon="12.99816610">
        <ele>977.00000</ele>
        <time>2009-07-31T10:47:04Z</time>
      </trkpt>
      <trkpt lat="43.38525650" lon="12.99816080">
        <ele>977.00000</ele>
        <time>2009-07-31T10:47:04Z</time>
      </trkpt>
      <trkpt lat="43.38525820" lon="12.99816160">
        <ele>977.00000</ele>
        <time>2009-07-31T10:47:04Z</time>
      </trkpt>
      <trkpt lat="43.38525960" lon="12.99816220">
        <ele>977.00000</ele>
        <time>2009-07-31T10:47:04Z</time>
      </trkpt>
      <trkpt lat="43.38525810" lon="12.99816130">
        <ele>977.00000</ele>
        <time>2009-07-31T10:47:04Z</time>
      </trkpt>
      <trkpt lat="43.38525540" lon="12.99815950">
        <ele>977.00000</ele>
        <time>2009-07-31T10:47:04Z</time>
      </trkpt>
      <trkpt lat="43.38525520" lon="12.99815890">
        <ele>977.00000</ele>
        <time>2009-07-31T10:47:04Z</time>
      </trkpt>
      <trkpt lat="43.38525590" lon="12.99815900">
        <ele>977.00000</ele>
        <time>2009-07-31T10:47:04Z</time>
      </trkpt>
      <trkpt lat="43.38525810" lon="12.99815990">
        <ele>977.00000</ele>
        <time>2009-07-31T10:47:04Z</time>
      </trkpt>
      <trkpt lat="43.38525820" lon="12.99815550">
        <ele>977.00000</ele>
        <time>2009-07-31T10:47:04Z</time>
      </trkpt>
      <trkpt lat="43.38526650" lon="12.99817560">
        <ele>977.00000</ele>
        <time>2009-07-31T10:47:05Z</time>
      </trkpt>
      <trkpt lat="43.38526830" lon="12.99816990">
        <ele>977.00000</ele>
        <time>2009-07-31T10:47:05Z</time>
      </trkpt>
      <trkpt lat="43.38526950" lon="12.99817040">
        <ele>977.00000</ele>
        <time>2009-07-31T10:47:05Z</time>
      </trkpt>
      <trkpt lat="43.38527180" lon="12.99817150">
        <ele>977.00000</ele>
        <time>2009-07-31T10:47:05Z</time>
      </trkpt>
      <trkpt lat="43.38526550" lon="12.99816500">
        <ele>977.00000</ele>
        <time>2009-07-31T10:47:06Z</time>
      </trkpt>
      <trkpt lat="43.38526380" lon="12.99816340">
        <ele>977.00000</ele>
        <time>2009-07-31T10:47:06Z</time>
      </trkpt>
      <trkpt lat="43.38525410" lon="12.99816860">
        <ele>977.00000</ele>
        <time>2009-07-31T10:47:06Z</time>
      </trkpt>
      <trkpt lat="43.38524380" lon="12.99814700">
        <ele>977.00000</ele>
        <time>2009-07-31T10:47:07Z</time>
      </trkpt>
      <trkpt lat="43.38523800" lon="12.99814230">
        <ele>977.00000</ele>
        <time>2009-07-31T10:47:07Z</time>
      </trkpt>
      <trkpt lat="43.38523450" lon="12.99812960">
        <ele>977.00000</ele>
        <time>2009-07-31T10:47:08Z</time>
      </trkpt>
      <trkpt lat="43.38522980" lon="12.99812300">
        <ele>977.00000</ele>
        <time>2009-07-31T10:47:08Z</time>
      </trkpt>
      <trkpt lat="43.38523290" lon="12.99812450">
        <ele>977.00000</ele>
        <time>2009-07-31T10:47:08Z</time>
      </trkpt>
      <trkpt lat="43.38523140" lon="12.99812210">
        <ele>977.00000</ele>
        <time>2009-07-31T10:47:08Z</time>
      </trkpt>
      <trkpt lat="43.38523040" lon="12.99812100">
        <ele>977.00000</ele>
        <time>2009-07-31T10:47:08Z</time>
      </trkpt>
      <trkpt lat="43.38522930" lon="12.99812160">
        <ele>977.00000</ele>
        <time>2009-07-31T10:47:08Z</time>
      </trkpt>
      <trkpt lat="43.38522870" lon="12.99812170">
        <ele>977.00000</ele>
        <time>2009-07-31T10:47:08Z</time>
      </trkpt>
      <trkpt lat="43.38522800" lon="12.99812030">
        <ele>977.00000</ele>
        <time>2009-07-31T10:47:08Z</time>
      </trkpt>
      <trkpt lat="43.38523080" lon="12.99811360">
        <ele>977.00000</ele>
        <time>2009-07-31T10:47:09Z</time>
      </trkpt>
      <trkpt lat="43.38523550" lon="12.99810560">
        <ele>977.00000</ele>
        <time>2009-07-31T10:47:09Z</time>
      </trkpt>
      <trkpt lat="43.38523770" lon="12.99809430">
        <ele>977.00000</ele>
        <time>2009-07-31T10:47:09Z</time>
      </trkpt>
      <trkpt lat="43.38524000" lon="12.99808920">
        <ele>977.00000</ele>
        <time>2009-07-31T10:47:09Z</time>
      </trkpt>
      <trkpt lat="43.38524170" lon="12.99808510">
        <ele>977.00000</ele>
        <time>2009-07-31T10:47:10Z</time>
      </trkpt>
      <trkpt lat="43.38523340" lon="12.99808660">
        <ele>977.00000</ele>
        <time>2009-07-31T10:47:10Z</time>
      </trkpt>
      <trkpt lat="43.38522470" lon="12.99808070">
        <ele>977.00000</ele>
        <time>2009-07-31T10:47:10Z</time>
      </trkpt>
      <trkpt lat="43.38522490" lon="12.99810810">
        <ele>977.00000</ele>
        <time>2009-07-31T10:47:11Z</time>
      </trkpt>
      <trkpt lat="43.38522220" lon="12.99808890">
        <ele>977.00000</ele>
        <time>2009-07-31T10:47:12Z</time>
      </trkpt>
      <trkpt lat="43.38523290" lon="12.99808950">
        <ele>977.00000</ele>
        <time>2009-07-31T10:47:12Z</time>
      </trkpt>
      <trkpt lat="43.38523490" lon="12.99809340">
        <ele>977.00000</ele>
        <time>2009-07-31T10:47:12Z</time>
      </trkpt>
      <trkpt lat="43.38523530" lon="12.99809690">
        <ele>977.00000</ele>
        <time>2009-07-31T10:47:12Z</time>
      </trkpt>
      <trkpt lat="43.38523540" lon="12.99809800">
        <ele>977.00000</ele>
        <time>2009-07-31T10:47:12Z</time>
      </trkpt>
      <trkpt lat="43.38523380" lon="12.99809690">
        <ele>977.00000</ele>
        <time>2009-07-31T10:47:12Z</time>
      </trkpt>
      <trkpt lat="43.38523180" lon="12.99809400">
        <ele>977.00000</ele>
        <time>2009-07-31T10:47:13Z</time>
      </trkpt>
      <trkpt lat="43.38522950" lon="12.99808930">
        <ele>977.00000</ele>
        <time>2009-07-31T10:47:13Z</time>
      </trkpt>
      <trkpt lat="43.38522690" lon="12.99808410">
        <ele>977.00000</ele>
        <time>2009-07-31T10:47:13Z</time>
      </trkpt>
      <trkpt lat="43.38522450" lon="12.99807900">
        <ele>977.00000</ele>
        <time>2009-07-31T10:47:13Z</time>
      </trkpt>
      <trkpt lat="43.38522100" lon="12.99807460">
        <ele>977.00000</ele>
        <time>2009-07-31T10:47:13Z</time>
      </trkpt>
      <trkpt lat="43.38521720" lon="12.99807100">
        <ele>977.00000</ele>
        <time>2009-07-31T10:47:13Z</time>
      </trkpt>
      <trkpt lat="43.38521380" lon="12.99806820">
        <ele>977.00000</ele>
        <time>2009-07-31T10:47:14Z</time>
      </trkpt>
      <trkpt lat="43.38520940" lon="12.99806620">
        <ele>977.00000</ele>
        <time>2009-07-31T10:47:14Z</time>
      </trkpt>
      <trkpt lat="43.38520490" lon="12.99806560">
        <ele>977.00000</ele>
        <time>2009-07-31T10:47:14Z</time>
      </trkpt>
      <trkpt lat="43.38519300" lon="12.99806540">
        <ele>977.00000</ele>
        <time>2009-07-31T10:47:14Z</time>
      </trkpt>
      <trkpt lat="43.38518000" lon="12.99807000">
        <ele>977.00000</ele>
        <time>2009-07-31T10:47:15Z</time>
      </trkpt>
      <trkpt lat="43.38515090" lon="12.99807640">
        <ele>977.00000</ele>
        <time>2009-07-31T10:47:16Z</time>
      </trkpt>
      <trkpt lat="43.38513890" lon="12.99808250">
        <ele>977.00000</ele>
        <time>2009-07-31T10:47:17Z</time>
      </trkpt>
      <trkpt lat="43.38513180" lon="12.99806650">
        <ele>977.00000</ele>
        <time>2009-07-31T10:47:17Z</time>
      </trkpt>
      <trkpt lat="43.38512660" lon="12.99806390">
        <ele>977.00000</ele>
        <time>2009-07-31T10:47:17Z</time>
      </trkpt>
      <trkpt lat="43.38511120" lon="12.99805650">
        <ele>977.00000</ele>
        <time>2009-07-31T10:47:18Z</time>
      </trkpt>
      <trkpt lat="43.38509720" lon="12.99803700">
        <ele>977.00000</ele>
        <time>2009-07-31T10:47:19Z</time>
      </trkpt>
      <trkpt lat="43.38507600" lon="12.99800640">
        <ele>977.00000</ele>
        <time>2009-07-31T10:47:20Z</time>
      </trkpt>
      <trkpt lat="43.38505570" lon="12.99799480">
        <ele>977.00000</ele>
        <time>2009-07-31T10:47:21Z</time>
      </trkpt>
      <trkpt lat="43.38504590" lon="12.99798130">
        <ele>977.00000</ele>
        <time>2009-07-31T10:47:22Z</time>
      </trkpt>
      <trkpt lat="43.38502750" lon="12.99795730">
        <ele>977.00000</ele>
        <time>2009-07-31T10:47:23Z</time>
      </trkpt>
      <trkpt lat="43.38501740" lon="12.99794100">
        <ele>977.00000</ele>
        <time>2009-07-31T10:47:23Z</time>
      </trkpt>
      <trkpt lat="43.38499410" lon="12.99792630">
        <ele>977.00000</ele>
        <time>2009-07-31T10:47:24Z</time>
      </trkpt>
      <trkpt lat="43.38497790" lon="12.99792480">
        <ele>977.00000</ele>
        <time>2009-07-31T10:47:25Z</time>
      </trkpt>
      <trkpt lat="43.38496560" lon="12.99791270">
        <ele>926.00000</ele>
        <time>2009-07-31T10:47:25Z</time>
      </trkpt>
      <trkpt lat="43.38494790" lon="12.99789970">
        <ele>926.00000</ele>
        <time>2009-07-31T10:47:26Z</time>
      </trkpt>
      <trkpt lat="43.38493930" lon="12.99789400">
        <ele>926.00000</ele>
        <time>2009-07-31T10:47:27Z</time>
      </trkpt>
      <trkpt lat="43.38492370" lon="12.99788580">
        <ele>926.00000</ele>
        <time>2009-07-31T10:47:27Z</time>
      </trkpt>
      <trkpt lat="43.38490130" lon="12.99787470">
        <ele>926.00000</ele>
        <time>2009-07-31T10:47:28Z</time>
      </trkpt>
      <trkpt lat="43.38489110" lon="12.99788350">
        <ele>926.00000</ele>
        <time>2009-07-31T10:47:29Z</time>
      </trkpt>
      <trkpt lat="43.38487090" lon="12.99789430">
        <ele>926.00000</ele>
        <time>2009-07-31T10:47:30Z</time>
      </trkpt>
      <trkpt lat="43.38484760" lon="12.99790180">
        <ele>926.00000</ele>
        <time>2009-07-31T10:47:31Z</time>
      </trkpt>
      <trkpt lat="43.38482420" lon="12.99790680">
        <ele>926.00000</ele>
        <time>2009-07-31T10:47:32Z</time>
      </trkpt>
      <trkpt lat="43.38479920" lon="12.99793410">
        <ele>977.00000</ele>
        <time>2009-07-31T10:47:33Z</time>
      </trkpt>
      <trkpt lat="43.38476600" lon="12.99795150">
        <ele>977.00000</ele>
        <time>2009-07-31T10:47:34Z</time>
      </trkpt>
      <trkpt lat="43.38474860" lon="12.99797530">
        <ele>977.00000</ele>
        <time>2009-07-31T10:47:35Z</time>
      </trkpt>
      <trkpt lat="43.38472220" lon="12.99799390">
        <ele>977.00000</ele>
        <time>2009-07-31T10:47:36Z</time>
      </trkpt>
      <trkpt lat="43.38469480" lon="12.99799140">
        <ele>977.00000</ele>
        <time>2009-07-31T10:47:37Z</time>
      </trkpt>
      <trkpt lat="43.38467590" lon="12.99800600">
        <ele>977.00000</ele>
        <time>2009-07-31T10:47:38Z</time>
      </trkpt>
      <trkpt lat="43.38466330" lon="12.99803120">
        <ele>977.00000</ele>
        <time>2009-07-31T10:47:39Z</time>
      </trkpt>
      <trkpt lat="43.38465400" lon="12.99804940">
        <ele>977.00000</ele>
        <time>2009-07-31T10:47:40Z</time>
      </trkpt>
      <trkpt lat="43.38463070" lon="12.99804050">
        <ele>977.00000</ele>
        <time>2009-07-31T10:47:41Z</time>
      </trkpt>
      <trkpt lat="43.38461050" lon="12.99803660">
        <ele>977.00000</ele>
        <time>2009-07-31T10:47:42Z</time>
      </trkpt>
      <trkpt lat="43.38458250" lon="12.99803010">
        <ele>971.00000</ele>
        <time>2009-07-31T10:47:43Z</time>
      </trkpt>
      <trkpt lat="43.38454630" lon="12.99801680">
        <ele>971.00000</ele>
        <time>2009-07-31T10:47:44Z</time>
      </trkpt>
      <trkpt lat="43.38451660" lon="12.99800650">
        <ele>971.00000</ele>
        <time>2009-07-31T10:47:46Z</time>
      </trkpt>
      <trkpt lat="43.38449180" lon="12.99800150">
        <ele>971.00000</ele>
        <time>2009-07-31T10:47:47Z</time>
      </trkpt>
      <trkpt lat="43.38446120" lon="12.99799570">
        <ele>971.00000</ele>
        <time>2009-07-31T10:47:48Z</time>
      </trkpt>
      <trkpt lat="43.38443820" lon="12.99799890">
        <ele>971.00000</ele>
        <time>2009-07-31T10:47:49Z</time>
      </trkpt>
      <trkpt lat="43.38442050" lon="12.99799300">
        <ele>971.00000</ele>
        <time>2009-07-31T10:47:49Z</time>
      </trkpt>
      <trkpt lat="43.38439580" lon="12.99799640">
        <ele>971.00000</ele>
        <time>2009-07-31T10:47:50Z</time>
      </trkpt>
      <trkpt lat="43.38436980" lon="12.99799300">
        <ele>971.00000</ele>
        <time>2009-07-31T10:47:51Z</time>
      </trkpt>
      <trkpt lat="43.38434980" lon="12.99797810">
        <ele>971.00000</ele>
        <time>2009-07-31T10:47:52Z</time>
      </trkpt>
      <trkpt lat="43.38433350" lon="12.99799560">
        <ele>971.00000</ele>
        <time>2009-07-31T10:47:53Z</time>
      </trkpt>
      <trkpt lat="43.38430850" lon="12.99800170">
        <ele>971.00000</ele>
        <time>2009-07-31T10:47:54Z</time>
      </trkpt>
      <trkpt lat="43.38428610" lon="12.99801220">
        <ele>971.00000</ele>
        <time>2009-07-31T10:47:55Z</time>
      </trkpt>
      <trkpt lat="43.38426170" lon="12.99802200">
        <ele>971.00000</ele>
        <time>2009-07-31T10:47:56Z</time>
      </trkpt>
      <trkpt lat="43.38423090" lon="12.99803530">
        <ele>971.00000</ele>
        <time>2009-07-31T10:47:57Z</time>
      </trkpt>
      <trkpt lat="43.38420490" lon="12.99803090">
        <ele>971.00000</ele>
        <time>2009-07-31T10:47:59Z</time>
      </trkpt>
      <trkpt lat="43.38417550" lon="12.99804450">
        <ele>971.00000</ele>
        <time>2009-07-31T10:48:00Z</time>
      </trkpt>
      <trkpt lat="43.38414980" lon="12.99802610">
        <ele>971.00000</ele>
        <time>2009-07-31T10:48:01Z</time>
      </trkpt>
      <trkpt lat="43.38412140" lon="12.99801380">
        <ele>971.00000</ele>
        <time>2009-07-31T10:48:02Z</time>
      </trkpt>
      <trkpt lat="43.38409790" lon="12.99801130">
        <ele>971.00000</ele>
        <time>2009-07-31T10:48:03Z</time>
      </trkpt>
      <trkpt lat="43.38408070" lon="12.99801700">
        <ele>971.00000</ele>
        <time>2009-07-31T10:48:04Z</time>
      </trkpt>
      <trkpt lat="43.38405680" lon="12.99803990">
        <ele>971.00000</ele>
        <time>2009-07-31T10:48:05Z</time>
      </trkpt>
      <trkpt lat="43.38403300" lon="12.99804800">
        <ele>971.00000</ele>
        <time>2009-07-31T10:48:06Z</time>
      </trkpt>
      <trkpt lat="43.38399830" lon="12.99805380">
        <ele>971.00000</ele>
        <time>2009-07-31T10:48:07Z</time>
      </trkpt>
      <trkpt lat="43.38396290" lon="12.99804760">
        <ele>971.00000</ele>
        <time>2009-07-31T10:48:09Z</time>
      </trkpt>
      <trkpt lat="43.38394570" lon="12.99810150">
        <ele>971.00000</ele>
        <time>2009-07-31T10:48:10Z</time>
      </trkpt>
      <trkpt lat="43.38392900" lon="12.99811050">
        <ele>971.00000</ele>
        <time>2009-07-31T10:48:11Z</time>
      </trkpt>
      <trkpt lat="43.38389720" lon="12.99810750">
        <ele>971.00000</ele>
        <time>2009-07-31T10:48:12Z</time>
      </trkpt>
      <trkpt lat="43.38387250" lon="12.99809420">
        <ele>971.00000</ele>
        <time>2009-07-31T10:48:14Z</time>
      </trkpt>
      <trkpt lat="43.38384900" lon="12.99809200">
        <ele>971.00000</ele>
        <time>2009-07-31T10:48:14Z</time>
      </trkpt>
      <trkpt lat="43.38382110" lon="12.99807090">
        <ele>971.00000</ele>
        <time>2009-07-31T10:48:16Z</time>
      </trkpt>
      <trkpt lat="43.38379460" lon="12.99806500">
        <ele>971.00000</ele>
        <time>2009-07-31T10:48:17Z</time>
      </trkpt>
      <trkpt lat="43.38377170" lon="12.99806640">
        <ele>971.00000</ele>
        <time>2009-07-31T10:48:18Z</time>
      </trkpt>
      <trkpt lat="43.38372350" lon="12.99805220">
        <ele>974.00000</ele>
        <time>2009-07-31T10:48:20Z</time>
      </trkpt>
      <trkpt lat="43.38369780" lon="12.99805920">
        <ele>974.00000</ele>
        <time>2009-07-31T10:48:21Z</time>
      </trkpt>
      <trkpt lat="43.38367410" lon="12.99806280">
        <ele>974.00000</ele>
        <time>2009-07-31T10:48:22Z</time>
      </trkpt>
      <trkpt lat="43.38364610" lon="12.99808380">
        <ele>974.00000</ele>
        <time>2009-07-31T10:48:23Z</time>
      </trkpt>
      <trkpt lat="43.38362120" lon="12.99808150">
        <ele>974.00000</ele>
        <time>2009-07-31T10:48:24Z</time>
      </trkpt>
      <trkpt lat="43.38359310" lon="12.99808170">
        <ele>974.00000</ele>
        <time>2009-07-31T10:48:25Z</time>
      </trkpt>
      <trkpt lat="43.38356510" lon="12.99808200">
        <ele>974.00000</ele>
        <time>2009-07-31T10:48:26Z</time>
      </trkpt>
      <trkpt lat="43.38353370" lon="12.99809990">
        <ele>974.00000</ele>
        <time>2009-07-31T10:48:28Z</time>
      </trkpt>
      <trkpt lat="43.38350550" lon="12.99809040">
        <ele>974.00000</ele>
        <time>2009-07-31T10:48:29Z</time>
      </trkpt>
      <trkpt lat="43.38348760" lon="12.99808890">
        <ele>974.00000</ele>
        <time>2009-07-31T10:48:29Z</time>
      </trkpt>
      <trkpt lat="43.38346160" lon="12.99808230">
        <ele>974.00000</ele>
        <time>2009-07-31T10:48:31Z</time>
      </trkpt>
      <trkpt lat="43.38343550" lon="12.99808270">
        <ele>974.00000</ele>
        <time>2009-07-31T10:48:32Z</time>
      </trkpt>
      <trkpt lat="43.38341050" lon="12.99808230">
        <ele>974.00000</ele>
        <time>2009-07-31T10:48:33Z</time>
      </trkpt>
      <trkpt lat="43.38339220" lon="12.99808130">
        <ele>974.00000</ele>
        <time>2009-07-31T10:48:33Z</time>
      </trkpt>
      <trkpt lat="43.38336880" lon="12.99809020">
        <ele>974.00000</ele>
        <time>2009-07-31T10:48:34Z</time>
      </trkpt>
      <trkpt lat="43.38334430" lon="12.99809790">
        <ele>974.00000</ele>
        <time>2009-07-31T10:48:35Z</time>
      </trkpt>
      <trkpt lat="43.38331480" lon="12.99809220">
        <ele>974.00000</ele>
        <time>2009-07-31T10:48:36Z</time>
      </trkpt>
      <trkpt lat="43.38328910" lon="12.99810860">
        <ele>974.00000</ele>
        <time>2009-07-31T10:48:38Z</time>
      </trkpt>
      <trkpt lat="43.38325420" lon="12.99811480">
        <ele>974.00000</ele>
        <time>2009-07-31T10:48:39Z</time>
      </trkpt>
      <trkpt lat="43.38322450" lon="12.99811700">
        <ele>974.00000</ele>
        <time>2009-07-31T10:48:40Z</time>
      </trkpt>
      <trkpt lat="43.38319880" lon="12.99811470">
        <ele>974.00000</ele>
        <time>2009-07-31T10:48:41Z</time>
      </trkpt>
      <trkpt lat="43.38317470" lon="12.99811930">
        <ele>974.00000</ele>
        <time>2009-07-31T10:48:42Z</time>
      </trkpt>
      <trkpt lat="43.38315170" lon="12.99812830">
        <ele>974.00000</ele>
        <time>2009-07-31T10:48:43Z</time>
      </trkpt>
      <trkpt lat="43.38312760" lon="12.99813960">
        <ele>974.00000</ele>
        <time>2009-07-31T10:48:44Z</time>
      </trkpt>
      <trkpt lat="43.38311180" lon="12.99814640">
        <ele>974.00000</ele>
        <time>2009-07-31T10:48:45Z</time>
      </trkpt>
      <trkpt lat="43.38308920" lon="12.99815780">
        <ele>974.00000</ele>
        <time>2009-07-31T10:48:46Z</time>
      </trkpt>
      <trkpt lat="43.38306050" lon="12.99815870">
        <ele>974.00000</ele>
        <time>2009-07-31T10:48:47Z</time>
      </trkpt>
      <trkpt lat="43.38303610" lon="12.99817360">
        <ele>974.00000</ele>
        <time>2009-07-31T10:48:48Z</time>
      </trkpt>
      <trkpt lat="43.38300760" lon="12.99818980">
        <ele>974.00000</ele>
        <time>2009-07-31T10:48:49Z</time>
      </trkpt>
      <trkpt lat="43.38296330" lon="12.99818590">
        <ele>974.00000</ele>
        <time>2009-07-31T10:48:51Z</time>
      </trkpt>
      <trkpt lat="43.38293690" lon="12.99818730">
        <ele>974.00000</ele>
        <time>2009-07-31T10:48:52Z</time>
      </trkpt>
      <trkpt lat="43.38290590" lon="12.99818230">
        <ele>975.00000</ele>
        <time>2009-07-31T10:48:53Z</time>
      </trkpt>
      <trkpt lat="43.38287370" lon="12.99818820">
        <ele>975.00000</ele>
        <time>2009-07-31T10:48:55Z</time>
      </trkpt>
      <trkpt lat="43.38283800" lon="12.99819340">
        <ele>975.00000</ele>
        <time>2009-07-31T10:48:56Z</time>
      </trkpt>
      <trkpt lat="43.38281100" lon="12.99819800">
        <ele>975.00000</ele>
        <time>2009-07-31T10:48:57Z</time>
      </trkpt>
      <trkpt lat="43.38278610" lon="12.99822580">
        <ele>975.00000</ele>
        <time>2009-07-31T10:48:58Z</time>
      </trkpt>
      <trkpt lat="43.38275410" lon="12.99822590">
        <ele>975.00000</ele>
        <time>2009-07-31T10:49:00Z</time>
      </trkpt>
      <trkpt lat="43.38272670" lon="12.99823260">
        <ele>975.00000</ele>
        <time>2009-07-31T10:49:01Z</time>
      </trkpt>
      <trkpt lat="43.38271760" lon="12.99822840">
        <ele>975.00000</ele>
        <time>2009-07-31T10:49:01Z</time>
      </trkpt>
      <trkpt lat="43.38268830" lon="12.99823260">
        <ele>975.00000</ele>
        <time>2009-07-31T10:49:02Z</time>
      </trkpt>
      <trkpt lat="43.38266510" lon="12.99823660">
        <ele>975.00000</ele>
        <time>2009-07-31T10:49:03Z</time>
      </trkpt>
      <trkpt lat="43.38264240" lon="12.99824270">
        <ele>975.00000</ele>
        <time>2009-07-31T10:49:04Z</time>
      </trkpt>
      <trkpt lat="43.38261410" lon="12.99823530">
        <ele>975.00000</ele>
        <time>2009-07-31T10:49:05Z</time>
      </trkpt>
      <trkpt lat="43.38259130" lon="12.99821760">
        <ele>975.00000</ele>
        <time>2009-07-31T10:49:06Z</time>
      </trkpt>
      <trkpt lat="43.38256790" lon="12.99820450">
        <ele>975.00000</ele>
        <time>2009-07-31T10:49:08Z</time>
      </trkpt>
      <trkpt lat="43.38253970" lon="12.99820460">
        <ele>975.00000</ele>
        <time>2009-07-31T10:49:09Z</time>
      </trkpt>
      <trkpt lat="43.38252040" lon="12.99821180">
        <ele>975.00000</ele>
        <time>2009-07-31T10:49:09Z</time>
      </trkpt>
      <trkpt lat="43.38249680" lon="12.99820520">
        <ele>975.00000</ele>
        <time>2009-07-31T10:49:10Z</time>
      </trkpt>
      <trkpt lat="43.38247970" lon="12.99819920">
        <ele>975.00000</ele>
        <time>2009-07-31T10:49:11Z</time>
      </trkpt>
      <trkpt lat="43.38245590" lon="12.99821780">
        <ele>975.00000</ele>
        <time>2009-07-31T10:49:12Z</time>
      </trkpt>
      <trkpt lat="43.38242610" lon="12.99822250">
        <ele>975.00000</ele>
        <time>2009-07-31T10:49:13Z</time>
      </trkpt>
      <trkpt lat="43.38239580" lon="12.99822640">
        <ele>975.00000</ele>
        <time>2009-07-31T10:49:15Z</time>
      </trkpt>
      <trkpt lat="43.38236990" lon="12.99822420">
        <ele>975.00000</ele>
        <time>2009-07-31T10:49:16Z</time>
      </trkpt>
      <trkpt lat="43.38234420" lon="12.99822810">
        <ele>975.00000</ele>
        <time>2009-07-31T10:49:17Z</time>
      </trkpt>
      <trkpt lat="43.38231250" lon="12.99822620">
        <ele>975.00000</ele>
        <time>2009-07-31T10:49:18Z</time>
      </trkpt>
      <trkpt lat="43.38227790" lon="12.99822960">
        <ele>975.00000</ele>
        <time>2009-07-31T10:49:19Z</time>
      </trkpt>
      <trkpt lat="43.38224340" lon="12.99823480">
        <ele>975.00000</ele>
        <time>2009-07-31T10:49:21Z</time>
      </trkpt>
      <trkpt lat="43.38221790" lon="12.99822280">
        <ele>975.00000</ele>
        <time>2009-07-31T10:49:22Z</time>
      </trkpt>
      <trkpt lat="43.38219650" lon="12.99821330">
        <ele>975.00000</ele>
        <time>2009-07-31T10:49:23Z</time>
      </trkpt>
      <trkpt lat="43.38216820" lon="12.99823210">
        <ele>975.00000</ele>
        <time>2009-07-31T10:49:24Z</time>
      </trkpt>
      <trkpt lat="43.38213570" lon="12.99825300">
        <ele>975.00000</ele>
        <time>2009-07-31T10:49:25Z</time>
      </trkpt>
      <trkpt lat="43.38210590" lon="12.99824930">
        <ele>975.00000</ele>
        <time>2009-07-31T10:49:27Z</time>
      </trkpt>
      <trkpt lat="43.38208030" lon="12.99825150">
        <ele>974.00000</ele>
        <time>2009-07-31T10:49:28Z</time>
      </trkpt>
      <trkpt lat="43.38205950" lon="12.99826480">
        <ele>974.00000</ele>
        <time>2009-07-31T10:49:29Z</time>
      </trkpt>
      <trkpt lat="43.38202940" lon="12.99826320">
        <ele>974.00000</ele>
        <time>2009-07-31T10:49:30Z</time>
      </trkpt>
      <trkpt lat="43.38200280" lon="12.99826840">
        <ele>974.00000</ele>
        <time>2009-07-31T10:49:31Z</time>
      </trkpt>
      <trkpt lat="43.38196990" lon="12.99826220">
        <ele>974.00000</ele>
        <time>2009-07-31T10:49:32Z</time>
      </trkpt>
      <trkpt lat="43.38194420" lon="12.99826100">
        <ele>974.00000</ele>
        <time>2009-07-31T10:49:33Z</time>
      </trkpt>
      <trkpt lat="43.38191730" lon="12.99827130">
        <ele>974.00000</ele>
        <time>2009-07-31T10:49:34Z</time>
      </trkpt>
      <trkpt lat="43.38188530" lon="12.99827150">
        <ele>974.00000</ele>
        <time>2009-07-31T10:49:36Z</time>
      </trkpt>
      <trkpt lat="43.38185370" lon="12.99827320">
        <ele>974.00000</ele>
        <time>2009-07-31T10:49:37Z</time>
      </trkpt>
      <trkpt lat="43.38182540" lon="12.99826820">
        <ele>974.00000</ele>
        <time>2009-07-31T10:49:38Z</time>
      </trkpt>
      <trkpt lat="43.38178420" lon="12.99827860">
        <ele>974.00000</ele>
        <time>2009-07-31T10:49:40Z</time>
      </trkpt>
      <trkpt lat="43.38176040" lon="12.99828120">
        <ele>974.00000</ele>
        <time>2009-07-31T10:49:41Z</time>
      </trkpt>
      <trkpt lat="43.38173480" lon="12.99829200">
        <ele>974.00000</ele>
        <time>2009-07-31T10:49:42Z</time>
      </trkpt>
      <trkpt lat="43.38169470" lon="12.99829400">
        <ele>974.00000</ele>
        <time>2009-07-31T10:49:43Z</time>
      </trkpt>
      <trkpt lat="43.38166870" lon="12.99829560">
        <ele>974.00000</ele>
        <time>2009-07-31T10:49:44Z</time>
      </trkpt>
      <trkpt lat="43.38163850" lon="12.99831710">
        <ele>974.00000</ele>
        <time>2009-07-31T10:49:46Z</time>
      </trkpt>
      <trkpt lat="43.38160740" lon="12.99833330">
        <ele>974.00000</ele>
        <time>2009-07-31T10:49:47Z</time>
      </trkpt>
      <trkpt lat="43.38157580" lon="12.99834840">
        <ele>974.00000</ele>
        <time>2009-07-31T10:49:48Z</time>
      </trkpt>
      <trkpt lat="43.38155000" lon="12.99835820">
        <ele>974.00000</ele>
        <time>2009-07-31T10:49:49Z</time>
      </trkpt>
      <trkpt lat="43.38152720" lon="12.99838340">
        <ele>974.00000</ele>
        <time>2009-07-31T10:49:51Z</time>
      </trkpt>
      <trkpt lat="43.38150310" lon="12.99841110">
        <ele>974.00000</ele>
        <time>2009-07-31T10:49:52Z</time>
      </trkpt>
      <trkpt lat="43.38148420" lon="12.99842690">
        <ele>974.00000</ele>
        <time>2009-07-31T10:49:53Z</time>
      </trkpt>
      <trkpt lat="43.38146460" lon="12.99843860">
        <ele>974.00000</ele>
        <time>2009-07-31T10:49:54Z</time>
      </trkpt>
      <trkpt lat="43.38143270" lon="12.99845680">
        <ele>974.00000</ele>
        <time>2009-07-31T10:49:55Z</time>
      </trkpt>
      <trkpt lat="43.38140280" lon="12.99846280">
        <ele>974.00000</ele>
        <time>2009-07-31T10:49:56Z</time>
      </trkpt>
      <trkpt lat="43.38137740" lon="12.99845660">
        <ele>974.00000</ele>
        <time>2009-07-31T10:49:57Z</time>
      </trkpt>
      <trkpt lat="43.38135900" lon="12.99845130">
        <ele>974.00000</ele>
        <time>2009-07-31T10:49:58Z</time>
      </trkpt>
      <trkpt lat="43.38133140" lon="12.99846440">
        <ele>974.00000</ele>
        <time>2009-07-31T10:49:59Z</time>
      </trkpt>
      <trkpt lat="43.38129650" lon="12.99846930">
        <ele>974.00000</ele>
        <time>2009-07-31T10:50:01Z</time>
      </trkpt>
      <trkpt lat="43.38126970" lon="12.99848750">
        <ele>974.00000</ele>
        <time>2009-07-31T10:50:02Z</time>
      </trkpt>
      <trkpt lat="43.38125360" lon="12.99850390">
        <ele>974.00000</ele>
        <time>2009-07-31T10:50:03Z</time>
      </trkpt>
      <trkpt lat="43.38122990" lon="12.99851610">
        <ele>972.00000</ele>
        <time>2009-07-31T10:50:04Z</time>
      </trkpt>
      <trkpt lat="43.38119720" lon="12.99852310">
        <ele>972.00000</ele>
        <time>2009-07-31T10:50:05Z</time>
      </trkpt>
      <trkpt lat="43.38117610" lon="12.99858160">
        <ele>972.00000</ele>
        <time>2009-07-31T10:50:07Z</time>
      </trkpt>
      <trkpt lat="43.38116230" lon="12.99858100">
        <ele>972.00000</ele>
        <time>2009-07-31T10:50:07Z</time>
      </trkpt>
      <trkpt lat="43.38113660" lon="12.99858030">
        <ele>972.00000</ele>
        <time>2009-07-31T10:50:08Z</time>
      </trkpt>
      <trkpt lat="43.38111280" lon="12.99858890">
        <ele>972.00000</ele>
        <time>2009-07-31T10:50:09Z</time>
      </trkpt>
      <trkpt lat="43.38108740" lon="12.99858480">
        <ele>972.00000</ele>
        <time>2009-07-31T10:50:10Z</time>
      </trkpt>
      <trkpt lat="43.38106370" lon="12.99859730">
        <ele>972.00000</ele>
        <time>2009-07-31T10:50:11Z</time>
      </trkpt>
      <trkpt lat="43.38103560" lon="12.99861380">
        <ele>972.00000</ele>
        <time>2009-07-31T10:50:13Z</time>
      </trkpt>
      <trkpt lat="43.38101190" lon="12.99860630">
        <ele>972.00000</ele>
        <time>2009-07-31T10:50:14Z</time>
      </trkpt>
      <trkpt lat="43.38098600" lon="12.99859320">
        <ele>972.00000</ele>
        <time>2009-07-31T10:50:15Z</time>
      </trkpt>
      <trkpt lat="43.38095050" lon="12.99861410">
        <ele>972.00000</ele>
        <time>2009-07-31T10:50:16Z</time>
      </trkpt>
      <trkpt lat="43.38092400" lon="12.99861790">
        <ele>972.00000</ele>
        <time>2009-07-31T10:50:17Z</time>
      </trkpt>
      <trkpt lat="43.38089920" lon="12.99861400">
        <ele>972.00000</ele>
        <time>2009-07-31T10:50:18Z</time>
      </trkpt>
      <trkpt lat="43.38088070" lon="12.99861590">
        <ele>972.00000</ele>
        <time>2009-07-31T10:50:19Z</time>
      </trkpt>
      <trkpt lat="43.38085670" lon="12.99862800">
        <ele>972.00000</ele>
        <time>2009-07-31T10:50:20Z</time>
      </trkpt>
      <trkpt lat="43.38084200" lon="12.99868380">
        <ele>972.00000</ele>
        <time>2009-07-31T10:50:22Z</time>
      </trkpt>
      <trkpt lat="43.38082540" lon="12.99867040">
        <ele>972.00000</ele>
        <time>2009-07-31T10:50:23Z</time>
      </trkpt>
      <trkpt lat="43.38080410" lon="12.99866270">
        <ele>972.00000</ele>
        <time>2009-07-31T10:50:23Z</time>
      </trkpt>
      <trkpt lat="43.38077930" lon="12.99867040">
        <ele>972.00000</ele>
        <time>2009-07-31T10:50:24Z</time>
      </trkpt>
      <trkpt lat="43.38075230" lon="12.99866630">
        <ele>972.00000</ele>
        <time>2009-07-31T10:50:26Z</time>
      </trkpt>
      <trkpt lat="43.38073350" lon="12.99865440">
        <ele>972.00000</ele>
        <time>2009-07-31T10:50:26Z</time>
      </trkpt>
      <trkpt lat="43.38071510" lon="12.99864580">
        <ele>972.00000</ele>
        <time>2009-07-31T10:50:27Z</time>
      </trkpt>
      <trkpt lat="43.38069030" lon="12.99864970">
        <ele>972.00000</ele>
        <time>2009-07-31T10:50:28Z</time>
      </trkpt>
      <trkpt lat="43.38067160" lon="12.99865830">
        <ele>972.00000</ele>
        <time>2009-07-31T10:50:29Z</time>
      </trkpt>
      <trkpt lat="43.38064880" lon="12.99866980">
        <ele>972.00000</ele>
        <time>2009-07-31T10:50:30Z</time>
      </trkpt>
      <trkpt lat="43.38062480" lon="12.99868040">
        <ele>972.00000</ele>
        <time>2009-07-31T10:50:31Z</time>
      </trkpt>
      <trkpt lat="43.38059790" lon="12.99870170">
        <ele>972.00000</ele>
        <time>2009-07-31T10:50:32Z</time>
      </trkpt>
      <trkpt lat="43.38057240" lon="12.99871610">
        <ele>972.00000</ele>
        <time>2009-07-31T10:50:33Z</time>
      </trkpt>
      <trkpt lat="43.38055290" lon="12.99874020">
        <ele>972.00000</ele>
        <time>2009-07-31T10:50:34Z</time>
      </trkpt>
      <trkpt lat="43.38053100" lon="12.99877160">
        <ele>986.00000</ele>
        <time>2009-07-31T10:50:36Z</time>
      </trkpt>
      <trkpt lat="43.38051340" lon="12.99879520">
        <ele>986.00000</ele>
        <time>2009-07-31T10:50:37Z</time>
      </trkpt>
      <trkpt lat="43.38049640" lon="12.99882320">
        <ele>986.00000</ele>
        <time>2009-07-31T10:50:38Z</time>
      </trkpt>
      <trkpt lat="43.38048390" lon="12.99884970">
        <ele>986.00000</ele>
        <time>2009-07-31T10:50:39Z</time>
      </trkpt>
      <trkpt lat="43.38046680" lon="12.99887590">
        <ele>986.00000</ele>
        <time>2009-07-31T10:50:40Z</time>
      </trkpt>
      <trkpt lat="43.38046070" lon="12.99890990">
        <ele>986.00000</ele>
        <time>2009-07-31T10:50:41Z</time>
      </trkpt>
      <trkpt lat="43.38045540" lon="12.99894730">
        <ele>986.00000</ele>
        <time>2009-07-31T10:50:42Z</time>
      </trkpt>
      <trkpt lat="43.38044970" lon="12.99898310">
        <ele>986.00000</ele>
        <time>2009-07-31T10:50:43Z</time>
      </trkpt>
      <trkpt lat="43.38044500" lon="12.99902180">
        <ele>986.00000</ele>
        <time>2009-07-31T10:50:44Z</time>
      </trkpt>
      <trkpt lat="43.38045410" lon="12.99906560">
        <ele>986.00000</ele>
        <time>2009-07-31T10:50:45Z</time>
      </trkpt>
      <trkpt lat="43.38045200" lon="12.99910720">
        <ele>986.00000</ele>
        <time>2009-07-31T10:50:46Z</time>
      </trkpt>
      <trkpt lat="43.38045010" lon="12.99913420">
        <ele>986.00000</ele>
        <time>2009-07-31T10:50:47Z</time>
      </trkpt>
      <trkpt lat="43.38044650" lon="12.99916990">
        <ele>986.00000</ele>
        <time>2009-07-31T10:50:48Z</time>
      </trkpt>
      <trkpt lat="43.38044650" lon="12.99919940">
        <ele>986.00000</ele>
        <time>2009-07-31T10:50:49Z</time>
      </trkpt>
      <trkpt lat="43.38044830" lon="12.99923460">
        <ele>986.00000</ele>
        <time>2009-07-31T10:50:50Z</time>
      </trkpt>
      <trkpt lat="43.38044910" lon="12.99927170">
        <ele>986.00000</ele>
        <time>2009-07-31T10:50:51Z</time>
      </trkpt>
      <trkpt lat="43.38044890" lon="12.99931820">
        <ele>986.00000</ele>
        <time>2009-07-31T10:50:53Z</time>
      </trkpt>
      <trkpt lat="43.38046510" lon="12.99934470">
        <ele>986.00000</ele>
        <time>2009-07-31T10:50:54Z</time>
      </trkpt>
      <trkpt lat="43.38045790" lon="12.99938000">
        <ele>986.00000</ele>
        <time>2009-07-31T10:50:55Z</time>
      </trkpt>
      <trkpt lat="43.38045050" lon="12.99943700">
        <ele>986.00000</ele>
        <time>2009-07-31T10:50:56Z</time>
      </trkpt>
      <trkpt lat="43.38044880" lon="12.99946680">
        <ele>986.00000</ele>
        <time>2009-07-31T10:50:57Z</time>
      </trkpt>
      <trkpt lat="43.38045360" lon="12.99949640">
        <ele>986.00000</ele>
        <time>2009-07-31T10:50:58Z</time>
      </trkpt>
      <trkpt lat="43.38046070" lon="12.99953730">
        <ele>986.00000</ele>
        <time>2009-07-31T10:50:59Z</time>
      </trkpt>
      <trkpt lat="43.38046500" lon="12.99957390">
        <ele>986.00000</ele>
        <time>2009-07-31T10:51:00Z</time>
      </trkpt>
      <trkpt lat="43.38047230" lon="12.99960260">
        <ele>988.00000</ele>
        <time>2009-07-31T10:51:01Z</time>
      </trkpt>
      <trkpt lat="43.38048530" lon="12.99963550">
        <ele>988.00000</ele>
        <time>2009-07-31T10:51:02Z</time>
      </trkpt>
      <trkpt lat="43.38049350" lon="12.99967580">
        <ele>988.00000</ele>
        <time>2009-07-31T10:51:04Z</time>
      </trkpt>
      <trkpt lat="43.38049940" lon="12.99971290">
        <ele>988.00000</ele>
        <time>2009-07-31T10:51:05Z</time>
      </trkpt>
      <trkpt lat="43.38050250" lon="12.99975010">
        <ele>988.00000</ele>
        <time>2009-07-31T10:51:06Z</time>
      </trkpt>
      <trkpt lat="43.38050550" lon="12.99977530">
        <ele>988.00000</ele>
        <time>2009-07-31T10:51:07Z</time>
      </trkpt>
      <trkpt lat="43.38050880" lon="12.99981530">
        <ele>988.00000</ele>
        <time>2009-07-31T10:51:08Z</time>
      </trkpt>
      <trkpt lat="43.38052210" lon="12.99985610">
        <ele>988.00000</ele>
        <time>2009-07-31T10:51:09Z</time>
      </trkpt>
      <trkpt lat="43.38052120" lon="12.99988830">
        <ele>988.00000</ele>
        <time>2009-07-31T10:51:10Z</time>
      </trkpt>
      <trkpt lat="43.38053920" lon="12.99991070">
        <ele>988.00000</ele>
        <time>2009-07-31T10:51:11Z</time>
      </trkpt>
      <trkpt lat="43.38054730" lon="12.99993380">
        <ele>988.00000</ele>
        <time>2009-07-31T10:51:12Z</time>
      </trkpt>
      <trkpt lat="43.38054970" lon="12.99995880">
        <ele>988.00000</ele>
        <time>2009-07-31T10:51:12Z</time>
      </trkpt>
      <trkpt lat="43.38056840" lon="12.99999110">
        <ele>988.00000</ele>
        <time>2009-07-31T10:51:14Z</time>
      </trkpt>
      <trkpt lat="43.38058240" lon="13.00000760">
        <ele>988.00000</ele>
        <time>2009-07-31T10:51:14Z</time>
      </trkpt>
      <trkpt lat="43.38059800" lon="13.00001990">
        <ele>988.00000</ele>
        <time>2009-07-31T10:51:15Z</time>
      </trkpt>
      <trkpt lat="43.38060270" lon="13.00003750">
        <ele>988.00000</ele>
        <time>2009-07-31T10:51:16Z</time>
      </trkpt>
      <trkpt lat="43.38060980" lon="13.00003150">
        <ele>988.00000</ele>
        <time>2009-07-31T10:51:16Z</time>
      </trkpt>
      <trkpt lat="43.38061850" lon="13.00001580">
        <ele>988.00000</ele>
        <time>2009-07-31T10:51:17Z</time>
      </trkpt>
      <trkpt lat="43.38061850" lon="13.00001610">
        <ele>988.00000</ele>
        <time>2009-07-31T10:51:17Z</time>
      </trkpt>
      <trkpt lat="43.38061850" lon="13.00001700">
        <ele>988.00000</ele>
        <time>2009-07-31T10:51:17Z</time>
      </trkpt>
      <trkpt lat="43.38062360" lon="13.00003610">
        <ele>988.00000</ele>
        <time>2009-07-31T10:51:17Z</time>
      </trkpt>
      <trkpt lat="43.38063220" lon="13.00005890">
        <ele>988.00000</ele>
        <time>2009-07-31T10:51:18Z</time>
      </trkpt>
      <trkpt lat="43.38063830" lon="13.00009240">
        <ele>988.00000</ele>
        <time>2009-07-31T10:51:19Z</time>
      </trkpt>
      <trkpt lat="43.38064960" lon="13.00012040">
        <ele>988.00000</ele>
        <time>2009-07-31T10:51:20Z</time>
      </trkpt>
      <trkpt lat="43.38065920" lon="13.00014990">
        <ele>988.00000</ele>
        <time>2009-07-31T10:51:21Z</time>
      </trkpt>
      <trkpt lat="43.38066990" lon="13.00017220">
        <ele>988.00000</ele>
        <time>2009-07-31T10:51:22Z</time>
      </trkpt>
      <trkpt lat="43.38067170" lon="13.00020920">
        <ele>988.00000</ele>
        <time>2009-07-31T10:51:23Z</time>
      </trkpt>
      <trkpt lat="43.38067870" lon="13.00024760">
        <ele>988.00000</ele>
        <time>2009-07-31T10:51:24Z</time>
      </trkpt>
      <trkpt lat="43.38068660" lon="13.00025230">
        <ele>988.00000</ele>
        <time>2009-07-31T10:51:24Z</time>
      </trkpt>
      <trkpt lat="43.38069630" lon="13.00028140">
        <ele>988.00000</ele>
        <time>2009-07-31T10:51:25Z</time>
      </trkpt>
      <trkpt lat="43.38071400" lon="13.00030860">
        <ele>988.00000</ele>
        <time>2009-07-31T10:51:26Z</time>
      </trkpt>
      <trkpt lat="43.38071810" lon="13.00035120">
        <ele>988.00000</ele>
        <time>2009-07-31T10:51:27Z</time>
      </trkpt>
      <trkpt lat="43.38072430" lon="13.00039830">
        <ele>988.00000</ele>
        <time>2009-07-31T10:51:29Z</time>
      </trkpt>
      <trkpt lat="43.38072610" lon="13.00043920">
        <ele>984.00000</ele>
        <time>2009-07-31T10:51:30Z</time>
      </trkpt>
      <trkpt lat="43.38072910" lon="13.00047050">
        <ele>984.00000</ele>
        <time>2009-07-31T10:51:31Z</time>
      </trkpt>
      <trkpt lat="43.38073480" lon="13.00050340">
        <ele>984.00000</ele>
        <time>2009-07-31T10:51:32Z</time>
      </trkpt>
      <trkpt lat="43.38073850" lon="13.00053040">
        <ele>984.00000</ele>
        <time>2009-07-31T10:51:33Z</time>
      </trkpt>
      <trkpt lat="43.38074080" lon="13.00056370">
        <ele>984.00000</ele>
        <time>2009-07-31T10:51:34Z</time>
      </trkpt>
      <trkpt lat="43.38074540" lon="13.00060410">
        <ele>984.00000</ele>
        <time>2009-07-31T10:51:35Z</time>
      </trkpt>
      <trkpt lat="43.38075090" lon="13.00065270">
        <ele>984.00000</ele>
        <time>2009-07-31T10:51:36Z</time>
      </trkpt>
      <trkpt lat="43.38075660" lon="13.00069720">
        <ele>984.00000</ele>
        <time>2009-07-31T10:51:38Z</time>
      </trkpt>
      <trkpt lat="43.38075830" lon="13.00073080">
        <ele>984.00000</ele>
        <time>2009-07-31T10:51:39Z</time>
      </trkpt>
      <trkpt lat="43.38077610" lon="13.00075710">
        <ele>984.00000</ele>
        <time>2009-07-31T10:51:40Z</time>
      </trkpt>
      <trkpt lat="43.38079180" lon="13.00078500">
        <ele>984.00000</ele>
        <time>2009-07-31T10:51:41Z</time>
      </trkpt>
      <trkpt lat="43.38079530" lon="13.00081730">
        <ele>984.00000</ele>
        <time>2009-07-31T10:51:42Z</time>
      </trkpt>
      <trkpt lat="43.38080680" lon="13.00085350">
        <ele>984.00000</ele>
        <time>2009-07-31T10:51:43Z</time>
      </trkpt>
      <trkpt lat="43.38081870" lon="13.00088610">
        <ele>984.00000</ele>
        <time>2009-07-31T10:51:44Z</time>
      </trkpt>
      <trkpt lat="43.38082830" lon="13.00091800">
        <ele>984.00000</ele>
        <time>2009-07-31T10:51:45Z</time>
      </trkpt>
      <trkpt lat="43.38085270" lon="13.00093630">
        <ele>984.00000</ele>
        <time>2009-07-31T10:51:46Z</time>
      </trkpt>
      <trkpt lat="43.38085720" lon="13.00096850">
        <ele>984.00000</ele>
        <time>2009-07-31T10:51:47Z</time>
      </trkpt>
      <trkpt lat="43.38085570" lon="13.00101010">
        <ele>984.00000</ele>
        <time>2009-07-31T10:51:48Z</time>
      </trkpt>
      <trkpt lat="43.38086020" lon="13.00104460">
        <ele>984.00000</ele>
        <time>2009-07-31T10:51:49Z</time>
      </trkpt>
      <trkpt lat="43.38086850" lon="13.00107990">
        <ele>984.00000</ele>
        <time>2009-07-31T10:51:50Z</time>
      </trkpt>
      <trkpt lat="43.38087600" lon="13.00111310">
        <ele>984.00000</ele>
        <time>2009-07-31T10:51:51Z</time>
      </trkpt>
      <trkpt lat="43.38087930" lon="13.00114600">
        <ele>984.00000</ele>
        <time>2009-07-31T10:51:52Z</time>
      </trkpt>
      <trkpt lat="43.38089300" lon="13.00117520">
        <ele>984.00000</ele>
        <time>2009-07-31T10:51:53Z</time>
      </trkpt>
      <trkpt lat="43.38089920" lon="13.00120460">
        <ele>984.00000</ele>
        <time>2009-07-31T10:51:54Z</time>
      </trkpt>
      <trkpt lat="43.38091460" lon="13.00123180">
        <ele>984.00000</ele>
        <time>2009-07-31T10:51:55Z</time>
      </trkpt>
      <trkpt lat="43.38092500" lon="13.00125210">
        <ele>977.00000</ele>
        <time>2009-07-31T10:51:56Z</time>
      </trkpt>
      <trkpt lat="43.38093300" lon="13.00127990">
        <ele>977.00000</ele>
        <time>2009-07-31T10:51:57Z</time>
      </trkpt>
      <trkpt lat="43.38095160" lon="13.00131660">
        <ele>977.00000</ele>
        <time>2009-07-31T10:51:58Z</time>
      </trkpt>
      <trkpt lat="43.38095730" lon="13.00135010">
        <ele>977.00000</ele>
        <time>2009-07-31T10:51:59Z</time>
      </trkpt>
      <trkpt lat="43.38097320" lon="13.00137870">
        <ele>977.00000</ele>
        <time>2009-07-31T10:52:00Z</time>
      </trkpt>
      <trkpt lat="43.38097620" lon="13.00141890">
        <ele>977.00000</ele>
        <time>2009-07-31T10:52:01Z</time>
      </trkpt>
      <trkpt lat="43.38097820" lon="13.00146110">
        <ele>977.00000</ele>
        <time>2009-07-31T10:52:02Z</time>
      </trkpt>
      <trkpt lat="43.38099100" lon="13.00149580">
        <ele>977.00000</ele>
        <time>2009-07-31T10:52:04Z</time>
      </trkpt>
      <trkpt lat="43.38099340" lon="13.00153030">
        <ele>977.00000</ele>
        <time>2009-07-31T10:52:05Z</time>
      </trkpt>
      <trkpt lat="43.38099940" lon="13.00156160">
        <ele>977.00000</ele>
        <time>2009-07-31T10:52:05Z</time>
      </trkpt>
      <trkpt lat="43.38100950" lon="13.00160350">
        <ele>977.00000</ele>
        <time>2009-07-31T10:52:07Z</time>
      </trkpt>
      <trkpt lat="43.38102310" lon="13.00164300">
        <ele>977.00000</ele>
        <time>2009-07-31T10:52:08Z</time>
      </trkpt>
      <trkpt lat="43.38103520" lon="13.00167980">
        <ele>977.00000</ele>
        <time>2009-07-31T10:52:09Z</time>
      </trkpt>
      <trkpt lat="43.38104460" lon="13.00172390">
        <ele>977.00000</ele>
        <time>2009-07-31T10:52:11Z</time>
      </trkpt>
      <trkpt lat="43.38106060" lon="13.00175220">
        <ele>977.00000</ele>
        <time>2009-07-31T10:52:12Z</time>
      </trkpt>
      <trkpt lat="43.38106690" lon="13.00178900">
        <ele>977.00000</ele>
        <time>2009-07-31T10:52:13Z</time>
      </trkpt>
      <trkpt lat="43.38107500" lon="13.00183200">
        <ele>977.00000</ele>
        <time>2009-07-31T10:52:14Z</time>
      </trkpt>
      <trkpt lat="43.38108150" lon="13.00187110">
        <ele>977.00000</ele>
        <time>2009-07-31T10:52:15Z</time>
      </trkpt>
      <trkpt lat="43.38106810" lon="13.00191770">
        <ele>977.00000</ele>
        <time>2009-07-31T10:52:17Z</time>
      </trkpt>
      <trkpt lat="43.38107430" lon="13.00193320">
        <ele>977.00000</ele>
        <time>2009-07-31T10:52:17Z</time>
      </trkpt>
      <trkpt lat="43.38110380" lon="13.00194400">
        <ele>977.00000</ele>
        <time>2009-07-31T10:52:18Z</time>
      </trkpt>
      <trkpt lat="43.38110840" lon="13.00196270">
        <ele>977.00000</ele>
        <time>2009-07-31T10:52:19Z</time>
      </trkpt>
      <trkpt lat="43.38111430" lon="13.00198620">
        <ele>977.00000</ele>
        <time>2009-07-31T10:52:20Z</time>
      </trkpt>
      <trkpt lat="43.38111300" lon="13.00201810">
        <ele>977.00000</ele>
        <time>2009-07-31T10:52:21Z</time>
      </trkpt>
      <trkpt lat="43.38111870" lon="13.00205570">
        <ele>977.00000</ele>
        <time>2009-07-31T10:52:22Z</time>
      </trkpt>
      <trkpt lat="43.38112440" lon="13.00208260">
        <ele>977.00000</ele>
        <time>2009-07-31T10:52:23Z</time>
      </trkpt>
      <trkpt lat="43.38114850" lon="13.00210840">
        <ele>974.00000</ele>
        <time>2009-07-31T10:52:24Z</time>
      </trkpt>
      <trkpt lat="43.38116090" lon="13.00214540">
        <ele>974.00000</ele>
        <time>2009-07-31T10:52:25Z</time>
      </trkpt>
      <trkpt lat="43.38117540" lon="13.00217800">
        <ele>974.00000</ele>
        <time>2009-07-31T10:52:26Z</time>
      </trkpt>
      <trkpt lat="43.38118180" lon="13.00220540">
        <ele>974.00000</ele>
        <time>2009-07-31T10:52:27Z</time>
      </trkpt>
      <trkpt lat="43.38119280" lon="13.00223690">
        <ele>974.00000</ele>
        <time>2009-07-31T10:52:28Z</time>
      </trkpt>
      <trkpt lat="43.38119890" lon="13.00228360">
        <ele>974.00000</ele>
        <time>2009-07-31T10:52:29Z</time>
      </trkpt>
      <trkpt lat="43.38121040" lon="13.00232340">
        <ele>974.00000</ele>
        <time>2009-07-31T10:52:31Z</time>
      </trkpt>
      <trkpt lat="43.38121550" lon="13.00235130">
        <ele>974.00000</ele>
        <time>2009-07-31T10:52:31Z</time>
      </trkpt>
      <trkpt lat="43.38121940" lon="13.00239770">
        <ele>974.00000</ele>
        <time>2009-07-31T10:52:33Z</time>
      </trkpt>
      <trkpt lat="43.38122430" lon="13.00242860">
        <ele>974.00000</ele>
        <time>2009-07-31T10:52:34Z</time>
      </trkpt>
      <trkpt lat="43.38123020" lon="13.00245230">
        <ele>974.00000</ele>
        <time>2009-07-31T10:52:34Z</time>
      </trkpt>
      <trkpt lat="43.38123340" lon="13.00248530">
        <ele>974.00000</ele>
        <time>2009-07-31T10:52:35Z</time>
      </trkpt>
      <trkpt lat="43.38123680" lon="13.00253540">
        <ele>974.00000</ele>
        <time>2009-07-31T10:52:37Z</time>
      </trkpt>
      <trkpt lat="43.38125080" lon="13.00256730">
        <ele>1002.0000</ele>
        <time>2009-07-31T10:52:38Z</time>
      </trkpt>
      <trkpt lat="43.38125180" lon="13.00259740">
        <ele>1002.0000</ele>
        <time>2009-07-31T10:52:39Z</time>
      </trkpt>
      <trkpt lat="43.38124820" lon="13.00264510">
        <ele>974.00000</ele>
        <time>2009-07-31T10:52:40Z</time>
      </trkpt>
      <trkpt lat="43.38124010" lon="13.00270370">
        <ele>974.00000</ele>
        <time>2009-07-31T10:52:42Z</time>
      </trkpt>
      <trkpt lat="43.38124230" lon="13.00274140">
        <ele>974.00000</ele>
        <time>2009-07-31T10:52:43Z</time>
      </trkpt>
      <trkpt lat="43.38124170" lon="13.00277470">
        <ele>974.00000</ele>
        <time>2009-07-31T10:52:44Z</time>
      </trkpt>
      <trkpt lat="43.38124180" lon="13.00282720">
        <ele>974.00000</ele>
        <time>2009-07-31T10:52:45Z</time>
      </trkpt>
      <trkpt lat="43.38125010" lon="13.00285840">
        <ele>974.00000</ele>
        <time>2009-07-31T10:52:46Z</time>
      </trkpt>
      <trkpt lat="43.38126030" lon="13.00288660">
        <ele>1002.0000</ele>
        <time>2009-07-31T10:52:47Z</time>
      </trkpt>
      <trkpt lat="43.38126930" lon="13.00293120">
        <ele>1002.0000</ele>
        <time>2009-07-31T10:52:49Z</time>
      </trkpt>
      <trkpt lat="43.38126620" lon="13.00298010">
        <ele>1002.0000</ele>
        <time>2009-07-31T10:52:50Z</time>
      </trkpt>
      <trkpt lat="43.38127170" lon="13.00301550">
        <ele>1002.0000</ele>
        <time>2009-07-31T10:52:51Z</time>
      </trkpt>
      <trkpt lat="43.38128110" lon="13.00304160">
        <ele>1002.0000</ele>
        <time>2009-07-31T10:52:52Z</time>
      </trkpt>
      <trkpt lat="43.38130660" lon="13.00308450">
        <ele>1002.0000</ele>
        <time>2009-07-31T10:52:54Z</time>
      </trkpt>
      <trkpt lat="43.38130710" lon="13.00312630">
        <ele>1002.0000</ele>
        <time>2009-07-31T10:52:55Z</time>
      </trkpt>
      <trkpt lat="43.38131310" lon="13.00315680">
        <ele>1002.0000</ele>
        <time>2009-07-31T10:52:56Z</time>
      </trkpt>
      <trkpt lat="43.38132610" lon="13.00318720">
        <ele>1002.0000</ele>
        <time>2009-07-31T10:52:57Z</time>
      </trkpt>
      <trkpt lat="43.38132910" lon="13.00324160">
        <ele>1002.0000</ele>
        <time>2009-07-31T10:52:58Z</time>
      </trkpt>
      <trkpt lat="43.38134040" lon="13.00326390">
        <ele>1002.0000</ele>
        <time>2009-07-31T10:52:59Z</time>
      </trkpt>
      <trkpt lat="43.38134970" lon="13.00329350">
        <ele>1002.0000</ele>
        <time>2009-07-31T10:53:00Z</time>
      </trkpt>
      <trkpt lat="43.38134130" lon="13.00333210">
        <ele>1002.0000</ele>
        <time>2009-07-31T10:53:01Z</time>
      </trkpt>
      <trkpt lat="43.38133990" lon="13.00338960">
        <ele>1002.0000</ele>
        <time>2009-07-31T10:53:03Z</time>
      </trkpt>
      <trkpt lat="43.38134100" lon="13.00341730">
        <ele>1002.0000</ele>
        <time>2009-07-31T10:53:04Z</time>
      </trkpt>
      <trkpt lat="43.38134350" lon="13.00344870">
        <ele>1002.0000</ele>
        <time>2009-07-31T10:53:05Z</time>
      </trkpt>
      <trkpt lat="43.38134570" lon="13.00348830">
        <ele>1002.0000</ele>
        <time>2009-07-31T10:53:06Z</time>
      </trkpt>
      <trkpt lat="43.38134490" lon="13.00352150">
        <ele>1002.0000</ele>
        <time>2009-07-31T10:53:07Z</time>
      </trkpt>
      <trkpt lat="43.38133650" lon="13.00355340">
        <ele>1002.0000</ele>
        <time>2009-07-31T10:53:08Z</time>
      </trkpt>
      <trkpt lat="43.38134160" lon="13.00360330">
        <ele>1002.0000</ele>
        <time>2009-07-31T10:53:09Z</time>
      </trkpt>
      <trkpt lat="43.38134810" lon="13.00362910">
        <ele>1002.0000</ele>
        <time>2009-07-31T10:53:10Z</time>
      </trkpt>
      <trkpt lat="43.38135730" lon="13.00366260">
        <ele>1002.0000</ele>
        <time>2009-07-31T10:53:11Z</time>
      </trkpt>
      <trkpt lat="43.38137340" lon="13.00369340">
        <ele>1002.0000</ele>
        <time>2009-07-31T10:53:12Z</time>
      </trkpt>
      <trkpt lat="43.38137550" lon="13.00373790">
        <ele>1002.0000</ele>
        <time>2009-07-31T10:53:14Z</time>
      </trkpt>
      <trkpt lat="43.38138380" lon="13.00378460">
        <ele>999.00000</ele>
        <time>2009-07-31T10:53:15Z</time>
      </trkpt>
      <trkpt lat="43.38139200" lon="13.00381200">
        <ele>999.00000</ele>
        <time>2009-07-31T10:53:16Z</time>
      </trkpt>
      <trkpt lat="43.38139480" lon="13.00384610">
        <ele>999.00000</ele>
        <time>2009-07-31T10:53:17Z</time>
      </trkpt>
      <trkpt lat="43.38139000" lon="13.00388290">
        <ele>999.00000</ele>
        <time>2009-07-31T10:53:18Z</time>
      </trkpt>
      <trkpt lat="43.38140230" lon="13.00391770">
        <ele>999.00000</ele>
        <time>2009-07-31T10:53:19Z</time>
      </trkpt>
      <trkpt lat="43.38143320" lon="13.00394230">
        <ele>999.00000</ele>
        <time>2009-07-31T10:53:20Z</time>
      </trkpt>
      <trkpt lat="43.38144690" lon="13.00398240">
        <ele>999.00000</ele>
        <time>2009-07-31T10:53:22Z</time>
      </trkpt>
      <trkpt lat="43.38145600" lon="13.00402060">
        <ele>999.00000</ele>
        <time>2009-07-31T10:53:23Z</time>
      </trkpt>
      <trkpt lat="43.38146240" lon="13.00406900">
        <ele>999.00000</ele>
        <time>2009-07-31T10:53:24Z</time>
      </trkpt>
      <trkpt lat="43.38146760" lon="13.00409380">
        <ele>999.00000</ele>
        <time>2009-07-31T10:53:25Z</time>
      </trkpt>
      <trkpt lat="43.38146320" lon="13.00414190">
        <ele>999.00000</ele>
        <time>2009-07-31T10:53:26Z</time>
      </trkpt>
      <trkpt lat="43.38146390" lon="13.00418150">
        <ele>999.00000</ele>
        <time>2009-07-31T10:53:28Z</time>
      </trkpt>
      <trkpt lat="43.38147200" lon="13.00422350">
        <ele>999.00000</ele>
        <time>2009-07-31T10:53:29Z</time>
      </trkpt>
      <trkpt lat="43.38148330" lon="13.00425020">
        <ele>999.00000</ele>
        <time>2009-07-31T10:53:30Z</time>
      </trkpt>
      <trkpt lat="43.38149510" lon="13.00428990">
        <ele>999.00000</ele>
        <time>2009-07-31T10:53:31Z</time>
      </trkpt>
      <trkpt lat="43.38149510" lon="13.00432910">
        <ele>999.00000</ele>
        <time>2009-07-31T10:53:32Z</time>
      </trkpt>
      <trkpt lat="43.38150440" lon="13.00435720">
        <ele>999.00000</ele>
        <time>2009-07-31T10:53:33Z</time>
      </trkpt>
      <trkpt lat="43.38151260" lon="13.00438630">
        <ele>999.00000</ele>
        <time>2009-07-31T10:53:34Z</time>
      </trkpt>
      <trkpt lat="43.38150730" lon="13.00443690">
        <ele>999.00000</ele>
        <time>2009-07-31T10:53:35Z</time>
      </trkpt>
      <trkpt lat="43.38151530" lon="13.00447050">
        <ele>999.00000</ele>
        <time>2009-07-31T10:53:36Z</time>
      </trkpt>
      <trkpt lat="43.38153020" lon="13.00450390">
        <ele>999.00000</ele>
        <time>2009-07-31T10:53:38Z</time>
      </trkpt>
      <trkpt lat="43.38154350" lon="13.00453490">
        <ele>999.00000</ele>
        <time>2009-07-31T10:53:39Z</time>
      </trkpt>
      <trkpt lat="43.38154570" lon="13.00458670">
        <ele>994.00000</ele>
        <time>2009-07-31T10:53:40Z</time>
      </trkpt>
      <trkpt lat="43.38154530" lon="13.00463210">
        <ele>994.00000</ele>
        <time>2009-07-31T10:53:42Z</time>
      </trkpt>
      <trkpt lat="43.38155220" lon="13.00465270">
        <ele>994.00000</ele>
        <time>2009-07-31T10:53:42Z</time>
      </trkpt>
      <trkpt lat="43.38156770" lon="13.00468160">
        <ele>994.00000</ele>
        <time>2009-07-31T10:53:43Z</time>
      </trkpt>
      <trkpt lat="43.38156990" lon="13.00472610">
        <ele>994.00000</ele>
        <time>2009-07-31T10:53:45Z</time>
      </trkpt>
      <trkpt lat="43.38158230" lon="13.00476010">
        <ele>994.00000</ele>
        <time>2009-07-31T10:53:46Z</time>
      </trkpt>
      <trkpt lat="43.38160050" lon="13.00480330">
        <ele>994.00000</ele>
        <time>2009-07-31T10:53:47Z</time>
      </trkpt>
      <trkpt lat="43.38161270" lon="13.00484750">
        <ele>994.00000</ele>
        <time>2009-07-31T10:53:48Z</time>
      </trkpt>
      <trkpt lat="43.38161980" lon="13.00488930">
        <ele>994.00000</ele>
        <time>2009-07-31T10:53:50Z</time>
      </trkpt>
      <trkpt lat="43.38162570" lon="13.00493330">
        <ele>994.00000</ele>
        <time>2009-07-31T10:53:51Z</time>
      </trkpt>
      <trkpt lat="43.38162840" lon="13.00496930">
        <ele>994.00000</ele>
        <time>2009-07-31T10:53:52Z</time>
      </trkpt>
      <trkpt lat="43.38165120" lon="13.00499200">
        <ele>994.00000</ele>
        <time>2009-07-31T10:53:53Z</time>
      </trkpt>
      <trkpt lat="43.38168100" lon="13.00501460">
        <ele>994.00000</ele>
        <time>2009-07-31T10:53:55Z</time>
      </trkpt>
      <trkpt lat="43.38169260" lon="13.00504760">
        <ele>994.00000</ele>
        <time>2009-07-31T10:53:56Z</time>
      </trkpt>
      <trkpt lat="43.38169720" lon="13.00508720">
        <ele>994.00000</ele>
        <time>2009-07-31T10:53:57Z</time>
      </trkpt>
      <trkpt lat="43.38168750" lon="13.00512790">
        <ele>994.00000</ele>
        <time>2009-07-31T10:53:58Z</time>
      </trkpt>
      <trkpt lat="43.38170120" lon="13.00516290">
        <ele>994.00000</ele>
        <time>2009-07-31T10:53:59Z</time>
      </trkpt>
      <trkpt lat="43.38170520" lon="13.00518950">
        <ele>994.00000</ele>
        <time>2009-07-31T10:54:00Z</time>
      </trkpt>
      <trkpt lat="43.38170370" lon="13.00522530">
        <ele>994.00000</ele>
        <time>2009-07-31T10:54:01Z</time>
      </trkpt>
      <trkpt lat="43.38169660" lon="13.00525540">
        <ele>994.00000</ele>
        <time>2009-07-31T10:54:02Z</time>
      </trkpt>
      <trkpt lat="43.38171870" lon="13.00528710">
        <ele>994.00000</ele>
        <time>2009-07-31T10:54:03Z</time>
      </trkpt>
      <trkpt lat="43.38172220" lon="13.00532090">
        <ele>994.00000</ele>
        <time>2009-07-31T10:54:04Z</time>
      </trkpt>
      <trkpt lat="43.38173340" lon="13.00535110">
        <ele>994.00000</ele>
        <time>2009-07-31T10:54:05Z</time>
      </trkpt>
      <trkpt lat="43.38172940" lon="13.00538380">
        <ele>994.00000</ele>
        <time>2009-07-31T10:54:06Z</time>
      </trkpt>
      <trkpt lat="43.38173390" lon="13.00541420">
        <ele>994.00000</ele>
        <time>2009-07-31T10:54:07Z</time>
      </trkpt>
      <trkpt lat="43.38175230" lon="13.00546070">
        <ele>991.00000</ele>
        <time>2009-07-31T10:54:09Z</time>
      </trkpt>
      <trkpt lat="43.38176330" lon="13.00548960">
        <ele>991.00000</ele>
        <time>2009-07-31T10:54:10Z</time>
      </trkpt>
      <trkpt lat="43.38178030" lon="13.00550590">
        <ele>991.00000</ele>
        <time>2009-07-31T10:54:10Z</time>
      </trkpt>
      <trkpt lat="43.38178460" lon="13.00553570">
        <ele>991.00000</ele>
        <time>2009-07-31T10:54:11Z</time>
      </trkpt>
      <trkpt lat="43.38178580" lon="13.00558600">
        <ele>991.00000</ele>
        <time>2009-07-31T10:54:13Z</time>
      </trkpt>
      <trkpt lat="43.38179430" lon="13.00561760">
        <ele>991.00000</ele>
        <time>2009-07-31T10:54:14Z</time>
      </trkpt>
      <trkpt lat="43.38180670" lon="13.00564570">
        <ele>991.00000</ele>
        <time>2009-07-31T10:54:15Z</time>
      </trkpt>
      <trkpt lat="43.38181370" lon="13.00567890">
        <ele>991.00000</ele>
        <time>2009-07-31T10:54:16Z</time>
      </trkpt>
      <trkpt lat="43.38181330" lon="13.00571520">
        <ele>991.00000</ele>
        <time>2009-07-31T10:54:17Z</time>
      </trkpt>
      <trkpt lat="43.38182190" lon="13.00574940">
        <ele>991.00000</ele>
        <time>2009-07-31T10:54:18Z</time>
      </trkpt>
      <trkpt lat="43.38184810" lon="13.00575700">
        <ele>991.00000</ele>
        <time>2009-07-31T10:54:19Z</time>
      </trkpt>
      <trkpt lat="43.38184510" lon="13.00578730">
        <ele>991.00000</ele>
        <time>2009-07-31T10:54:20Z</time>
      </trkpt>
      <trkpt lat="43.38184050" lon="13.00583190">
        <ele>991.00000</ele>
        <time>2009-07-31T10:54:21Z</time>
      </trkpt>
      <trkpt lat="43.38183630" lon="13.00588650">
        <ele>991.00000</ele>
        <time>2009-07-31T10:54:23Z</time>
      </trkpt>
      <trkpt lat="43.38184190" lon="13.00591810">
        <ele>991.00000</ele>
        <time>2009-07-31T10:54:24Z</time>
      </trkpt>
      <trkpt lat="43.38184550" lon="13.00594660">
        <ele>991.00000</ele>
        <time>2009-07-31T10:54:24Z</time>
      </trkpt>
      <trkpt lat="43.38184420" lon="13.00599050">
        <ele>991.00000</ele>
        <time>2009-07-31T10:54:26Z</time>
      </trkpt>
      <trkpt lat="43.38184670" lon="13.00603340">
        <ele>991.00000</ele>
        <time>2009-07-31T10:54:27Z</time>
      </trkpt>
      <trkpt lat="43.38188360" lon="13.00605760">
        <ele>991.00000</ele>
        <time>2009-07-31T10:54:29Z</time>
      </trkpt>
      <trkpt lat="43.38189140" lon="13.00609210">
        <ele>991.00000</ele>
        <time>2009-07-31T10:54:30Z</time>
      </trkpt>
      <trkpt lat="43.38188360" lon="13.00613690">
        <ele>991.00000</ele>
        <time>2009-07-31T10:54:31Z</time>
      </trkpt>
      <trkpt lat="43.38191270" lon="13.00617210">
        <ele>991.00000</ele>
        <time>2009-07-31T10:54:33Z</time>
      </trkpt>
      <trkpt lat="43.38194110" lon="13.00619520">
        <ele>991.00000</ele>
        <time>2009-07-31T10:54:34Z</time>
      </trkpt>
      <trkpt lat="43.38195660" lon="13.00622670">
        <ele>991.00000</ele>
        <time>2009-07-31T10:54:35Z</time>
      </trkpt>
      <trkpt lat="43.38197570" lon="13.00626440">
        <ele>991.00000</ele>
        <time>2009-07-31T10:54:36Z</time>
      </trkpt>
      <trkpt lat="43.38198640" lon="13.00630480">
        <ele>991.00000</ele>
        <time>2009-07-31T10:54:38Z</time>
      </trkpt>
      <trkpt lat="43.38199570" lon="13.00635700">
        <ele>991.00000</ele>
        <time>2009-07-31T10:54:39Z</time>
      </trkpt>
      <trkpt lat="43.38200420" lon="13.00639860">
        <ele>991.00000</ele>
        <time>2009-07-31T10:54:40Z</time>
      </trkpt>
      <trkpt lat="43.38200780" lon="13.00644820">
        <ele>991.00000</ele>
        <time>2009-07-31T10:54:42Z</time>
      </trkpt>
      <trkpt lat="43.38201730" lon="13.00649010">
        <ele>991.00000</ele>
        <time>2009-07-31T10:54:43Z</time>
      </trkpt>
      <trkpt lat="43.38200490" lon="13.00653220">
        <ele>991.00000</ele>
        <time>2009-07-31T10:54:44Z</time>
      </trkpt>
      <trkpt lat="43.38200560" lon="13.00657600">
        <ele>991.00000</ele>
        <time>2009-07-31T10:54:46Z</time>
      </trkpt>
      <trkpt lat="43.38201140" lon="13.00661310">
        <ele>991.00000</ele>
        <time>2009-07-31T10:54:47Z</time>
      </trkpt>
      <trkpt lat="43.38201580" lon="13.00664370">
        <ele>991.00000</ele>
        <time>2009-07-31T10:54:48Z</time>
      </trkpt>
      <trkpt lat="43.38202410" lon="13.00667220">
        <ele>991.00000</ele>
        <time>2009-07-31T10:54:49Z</time>
      </trkpt>
      <trkpt lat="43.38202640" lon="13.00671030">
        <ele>991.00000</ele>
        <time>2009-07-31T10:54:50Z</time>
      </trkpt>
      <trkpt lat="43.38202340" lon="13.00675350">
        <ele>991.00000</ele>
        <time>2009-07-31T10:54:51Z</time>
      </trkpt>
      <trkpt lat="43.38202120" lon="13.00678540">
        <ele>991.00000</ele>
        <time>2009-07-31T10:54:52Z</time>
      </trkpt>
      <trkpt lat="43.38200490" lon="13.00681890">
        <ele>991.00000</ele>
        <time>2009-07-31T10:54:53Z</time>
      </trkpt>
      <trkpt lat="43.38200220" lon="13.00686090">
        <ele>991.00000</ele>
        <time>2009-07-31T10:54:54Z</time>
      </trkpt>
      <trkpt lat="43.38200440" lon="13.00690080">
        <ele>991.00000</ele>
        <time>2009-07-31T10:54:55Z</time>
      </trkpt>
      <trkpt lat="43.38201120" lon="13.00692620">
        <ele>991.00000</ele>
        <time>2009-07-31T10:54:56Z</time>
      </trkpt>
      <trkpt lat="43.38201640" lon="13.00696320">
        <ele>991.00000</ele>
        <time>2009-07-31T10:54:57Z</time>
      </trkpt>
      <trkpt lat="43.38200820" lon="13.00700970">
        <ele>991.00000</ele>
        <time>2009-07-31T10:54:59Z</time>
      </trkpt>
      <trkpt lat="43.38201090" lon="13.00704050">
        <ele>991.00000</ele>
        <time>2009-07-31T10:55:00Z</time>
      </trkpt>
      <trkpt lat="43.38201730" lon="13.00707400">
        <ele>991.00000</ele>
        <time>2009-07-31T10:55:01Z</time>
      </trkpt>
      <trkpt lat="43.38201690" lon="13.00712070">
        <ele>996.00000</ele>
        <time>2009-07-31T10:55:02Z</time>
      </trkpt>
      <trkpt lat="43.38201130" lon="13.00715910">
        <ele>996.00000</ele>
        <time>2009-07-31T10:55:03Z</time>
      </trkpt>
      <trkpt lat="43.38201000" lon="13.00718830">
        <ele>996.00000</ele>
        <time>2009-07-31T10:55:04Z</time>
      </trkpt>
      <trkpt lat="43.38200910" lon="13.00722060">
        <ele>996.00000</ele>
        <time>2009-07-31T10:55:05Z</time>
      </trkpt>
      <trkpt lat="43.38200680" lon="13.00725130">
        <ele>996.00000</ele>
        <time>2009-07-31T10:55:06Z</time>
      </trkpt>
      <trkpt lat="43.38200280" lon="13.00727550">
        <ele>996.00000</ele>
        <time>2009-07-31T10:55:07Z</time>
      </trkpt>
      <trkpt lat="43.38200670" lon="13.00730210">
        <ele>996.00000</ele>
        <time>2009-07-31T10:55:07Z</time>
      </trkpt>
      <trkpt lat="43.38201260" lon="13.00733490">
        <ele>996.00000</ele>
        <time>2009-07-31T10:55:08Z</time>
      </trkpt>
      <trkpt lat="43.38201700" lon="13.00736210">
        <ele>996.00000</ele>
        <time>2009-07-31T10:55:09Z</time>
      </trkpt>
      <trkpt lat="43.38202540" lon="13.00739870">
        <ele>996.00000</ele>
        <time>2009-07-31T10:55:10Z</time>
      </trkpt>
      <trkpt lat="43.38203590" lon="13.00743810">
        <ele>996.00000</ele>
        <time>2009-07-31T10:55:11Z</time>
      </trkpt>
      <trkpt lat="43.38204700" lon="13.00746110">
        <ele>996.00000</ele>
        <time>2009-07-31T10:55:12Z</time>
      </trkpt>
      <trkpt lat="43.38205400" lon="13.00749150">
        <ele>996.00000</ele>
        <time>2009-07-31T10:55:13Z</time>
      </trkpt>
      <trkpt lat="43.38206230" lon="13.00753030">
        <ele>996.00000</ele>
        <time>2009-07-31T10:55:14Z</time>
      </trkpt>
      <trkpt lat="43.38206980" lon="13.00755480">
        <ele>996.00000</ele>
        <time>2009-07-31T10:55:15Z</time>
      </trkpt>
      <trkpt lat="43.38207490" lon="13.00758600">
        <ele>996.00000</ele>
        <time>2009-07-31T10:55:16Z</time>
      </trkpt>
      <trkpt lat="43.38207970" lon="13.00761840">
        <ele>996.00000</ele>
        <time>2009-07-31T10:55:17Z</time>
      </trkpt>
      <trkpt lat="43.38208290" lon="13.00764720">
        <ele>1013.0000</ele>
        <time>2009-07-31T10:55:18Z</time>
      </trkpt>
      <trkpt lat="43.38208510" lon="13.00767300">
        <ele>1013.0000</ele>
        <time>2009-07-31T10:55:19Z</time>
      </trkpt>
      <trkpt lat="43.38209220" lon="13.00771000">
        <ele>1013.0000</ele>
        <time>2009-07-31T10:55:20Z</time>
      </trkpt>
      <trkpt lat="43.38209900" lon="13.00773580">
        <ele>1013.0000</ele>
        <time>2009-07-31T10:55:21Z</time>
      </trkpt>
      <trkpt lat="43.38211270" lon="13.00775840">
        <ele>1013.0000</ele>
        <time>2009-07-31T10:55:21Z</time>
      </trkpt>
      <trkpt lat="43.38211570" lon="13.00778510">
        <ele>1013.0000</ele>
        <time>2009-07-31T10:55:22Z</time>
      </trkpt>
      <trkpt lat="43.38211780" lon="13.00781140">
        <ele>1013.0000</ele>
        <time>2009-07-31T10:55:23Z</time>
      </trkpt>
      <trkpt lat="43.38212930" lon="13.00784120">
        <ele>1013.0000</ele>
        <time>2009-07-31T10:55:24Z</time>
      </trkpt>
      <trkpt lat="43.38214580" lon="13.00787190">
        <ele>1013.0000</ele>
        <time>2009-07-31T10:55:25Z</time>
      </trkpt>
      <trkpt lat="43.38215130" lon="13.00789710">
        <ele>1013.0000</ele>
        <time>2009-07-31T10:55:26Z</time>
      </trkpt>
      <trkpt lat="43.38216350" lon="13.00792310">
        <ele>1006.0000</ele>
        <time>2009-07-31T10:55:27Z</time>
      </trkpt>
      <trkpt lat="43.38217010" lon="13.00795540">
        <ele>1006.0000</ele>
        <time>2009-07-31T10:55:28Z</time>
      </trkpt>
      <trkpt lat="43.38218410" lon="13.00798060">
        <ele>1006.0000</ele>
        <time>2009-07-31T10:55:29Z</time>
      </trkpt>
      <trkpt lat="43.38219610" lon="13.00801100">
        <ele>1006.0000</ele>
        <time>2009-07-31T10:55:30Z</time>
      </trkpt>
      <trkpt lat="43.38221150" lon="13.00802950">
        <ele>1006.0000</ele>
        <time>2009-07-31T10:55:30Z</time>
      </trkpt>
      <trkpt lat="43.38222470" lon="13.00804350">
        <ele>1006.0000</ele>
        <time>2009-07-31T10:55:31Z</time>
      </trkpt>
      <trkpt lat="43.38223360" lon="13.00806530">
        <ele>1006.0000</ele>
        <time>2009-07-31T10:55:32Z</time>
      </trkpt>
      <trkpt lat="43.38225120" lon="13.00808960">
        <ele>1006.0000</ele>
        <time>2009-07-31T10:55:33Z</time>
      </trkpt>
      <trkpt lat="43.38225440" lon="13.00812540">
        <ele>1006.0000</ele>
        <time>2009-07-31T10:55:34Z</time>
      </trkpt>
      <trkpt lat="43.38226900" lon="13.00816130">
        <ele>1006.0000</ele>
        <time>2009-07-31T10:55:35Z</time>
      </trkpt>
      <trkpt lat="43.38228270" lon="13.00818680">
        <ele>1006.0000</ele>
        <time>2009-07-31T10:55:36Z</time>
      </trkpt>
      <trkpt lat="43.38229270" lon="13.00822150">
        <ele>1006.0000</ele>
        <time>2009-07-31T10:55:37Z</time>
      </trkpt>
      <trkpt lat="43.38229770" lon="13.00825970">
        <ele>1006.0000</ele>
        <time>2009-07-31T10:55:38Z</time>
      </trkpt>
      <trkpt lat="43.38230390" lon="13.00828880">
        <ele>1006.0000</ele>
        <time>2009-07-31T10:55:39Z</time>
      </trkpt>
      <trkpt lat="43.38231670" lon="13.00831310">
        <ele>1006.0000</ele>
        <time>2009-07-31T10:55:40Z</time>
      </trkpt>
      <trkpt lat="43.38232770" lon="13.00834150">
        <ele>1006.0000</ele>
        <time>2009-07-31T10:55:41Z</time>
      </trkpt>
      <trkpt lat="43.38234570" lon="13.00836850">
        <ele>1006.0000</ele>
        <time>2009-07-31T10:55:42Z</time>
      </trkpt>
      <trkpt lat="43.38236420" lon="13.00839090">
        <ele>1006.0000</ele>
        <time>2009-07-31T10:55:43Z</time>
      </trkpt>
      <trkpt lat="43.38238330" lon="13.00840530">
        <ele>1006.0000</ele>
        <time>2009-07-31T10:55:44Z</time>
      </trkpt>
      <trkpt lat="43.38239860" lon="13.00843870">
        <ele>1006.0000</ele>
        <time>2009-07-31T10:55:45Z</time>
      </trkpt>
      <trkpt lat="43.38240650" lon="13.00847190">
        <ele>1006.0000</ele>
        <time>2009-07-31T10:55:46Z</time>
      </trkpt>
      <trkpt lat="43.38241220" lon="13.00849970">
        <ele>1006.0000</ele>
        <time>2009-07-31T10:55:47Z</time>
      </trkpt>
      <trkpt lat="43.38240690" lon="13.00852900">
        <ele>1006.0000</ele>
        <time>2009-07-31T10:55:48Z</time>
      </trkpt>
      <trkpt lat="43.38241090" lon="13.00855760">
        <ele>1006.0000</ele>
        <time>2009-07-31T10:55:49Z</time>
      </trkpt>
      <trkpt lat="43.38240750" lon="13.00858840">
        <ele>1006.0000</ele>
        <time>2009-07-31T10:55:50Z</time>
      </trkpt>
      <trkpt lat="43.38239650" lon="13.00858990">
        <ele>1006.0000</ele>
        <time>2009-07-31T10:55:50Z</time>
      </trkpt>
      <trkpt lat="43.38239230" lon="13.00859040">
        <ele>1006.0000</ele>
        <time>2009-07-31T10:55:50Z</time>
      </trkpt>
      <trkpt lat="43.38239240" lon="13.00858720">
        <ele>1006.0000</ele>
        <time>2009-07-31T10:55:50Z</time>
      </trkpt>
      <trkpt lat="43.38240740" lon="13.00858700">
        <ele>1006.0000</ele>
        <time>2009-07-31T10:55:51Z</time>
      </trkpt>
      <trkpt lat="43.38241740" lon="13.00859330">
        <ele>1006.0000</ele>
        <time>2009-07-31T10:55:51Z</time>
      </trkpt>
      <trkpt lat="43.38241590" lon="13.00859240">
        <ele>1006.0000</ele>
        <time>2009-07-31T10:55:51Z</time>
      </trkpt>
      <trkpt lat="43.38242260" lon="13.00860090">
        <ele>1006.0000</ele>
        <time>2009-07-31T10:55:52Z</time>
      </trkpt>
      <trkpt lat="43.38242380" lon="13.00859530">
        <ele>1006.0000</ele>
        <time>2009-07-31T10:55:52Z</time>
      </trkpt>
      <trkpt lat="43.38243750" lon="13.00859760">
        <ele>1006.0000</ele>
        <time>2009-07-31T10:55:52Z</time>
      </trkpt>
      <trkpt lat="43.38245600" lon="13.00861660">
        <ele>1006.0000</ele>
        <time>2009-07-31T10:55:53Z</time>
      </trkpt>
      <trkpt lat="43.38243770" lon="13.00861380">
        <ele>1006.0000</ele>
        <time>2009-07-31T10:55:54Z</time>
      </trkpt>
      <trkpt lat="43.38241970" lon="13.00859700">
        <ele>1006.0000</ele>
        <time>2009-07-31T10:55:55Z</time>
      </trkpt>
      <trkpt lat="43.38240610" lon="13.00859560">
        <ele>1006.0000</ele>
        <time>2009-07-31T10:55:55Z</time>
      </trkpt>
      <trkpt lat="43.38238480" lon="13.00858630">
        <ele>1006.0000</ele>
        <time>2009-07-31T10:55:56Z</time>
      </trkpt>
      <trkpt lat="43.38235880" lon="13.00859060">
        <ele>1006.0000</ele>
        <time>2009-07-31T10:55:57Z</time>
      </trkpt>
      <trkpt lat="43.38234010" lon="13.00858270">
        <ele>1006.0000</ele>
        <time>2009-07-31T10:55:58Z</time>
      </trkpt>
      <trkpt lat="43.38232460" lon="13.00858270">
        <ele>1006.0000</ele>
        <time>2009-07-31T10:55:59Z</time>
      </trkpt>
      <trkpt lat="43.38231160" lon="13.00857670">
        <ele>1006.0000</ele>
        <time>2009-07-31T10:55:59Z</time>
      </trkpt>
      <trkpt lat="43.38227830" lon="13.00857560">
        <ele>1006.0000</ele>
        <time>2009-07-31T10:56:01Z</time>
      </trkpt>
      <trkpt lat="43.38222470" lon="13.00858390">
        <ele>1006.0000</ele>
        <time>2009-07-31T10:56:03Z</time>
      </trkpt>
      <trkpt lat="43.38220530" lon="13.00858450">
        <ele>1006.0000</ele>
        <time>2009-07-31T10:56:04Z</time>
      </trkpt>
      <trkpt lat="43.38217770" lon="13.00854070">
        <ele>1006.0000</ele>
        <time>2009-07-31T10:56:05Z</time>
      </trkpt>
      <trkpt lat="43.38216390" lon="13.00853990">
        <ele>1006.0000</ele>
        <time>2009-07-31T10:56:06Z</time>
      </trkpt>
      <trkpt lat="43.38214880" lon="13.00853660">
        <ele>1006.0000</ele>
        <time>2009-07-31T10:56:06Z</time>
      </trkpt>
      <trkpt lat="43.38213310" lon="13.00853430">
        <ele>1006.0000</ele>
        <time>2009-07-31T10:56:07Z</time>
      </trkpt>
      <trkpt lat="43.38212030" lon="13.00853540">
        <ele>1006.0000</ele>
        <time>2009-07-31T10:56:08Z</time>
      </trkpt>
      <trkpt lat="43.38209910" lon="13.00853830">
        <ele>1006.0000</ele>
        <time>2009-07-31T10:56:08Z</time>
      </trkpt>
      <trkpt lat="43.38207450" lon="13.00853490">
        <ele>1008.0000</ele>
        <time>2009-07-31T10:56:09Z</time>
      </trkpt>
      <trkpt lat="43.38205040" lon="13.00853010">
        <ele>1008.0000</ele>
        <time>2009-07-31T10:56:10Z</time>
      </trkpt>
      <trkpt lat="43.38203390" lon="13.00853070">
        <ele>1008.0000</ele>
        <time>2009-07-31T10:56:11Z</time>
      </trkpt>
      <trkpt lat="43.38198460" lon="13.00850840">
        <ele>1008.0000</ele>
        <time>2009-07-31T10:56:13Z</time>
      </trkpt>
      <trkpt lat="43.38196280" lon="13.00849970">
        <ele>1008.0000</ele>
        <time>2009-07-31T10:56:14Z</time>
      </trkpt>
      <trkpt lat="43.38194120" lon="13.00851400">
        <ele>1008.0000</ele>
        <time>2009-07-31T10:56:15Z</time>
      </trkpt>
      <trkpt lat="43.38191400" lon="13.00849190">
        <ele>1008.0000</ele>
        <time>2009-07-31T10:56:16Z</time>
      </trkpt>
      <trkpt lat="43.38189370" lon="13.00848080">
        <ele>1008.0000</ele>
        <time>2009-07-31T10:56:17Z</time>
      </trkpt>
      <trkpt lat="43.38188060" lon="13.00847280">
        <ele>1008.0000</ele>
        <time>2009-07-31T10:56:18Z</time>
      </trkpt>
      <trkpt lat="43.38186360" lon="13.00846730">
        <ele>1008.0000</ele>
        <time>2009-07-31T10:56:18Z</time>
      </trkpt>
      <trkpt lat="43.38184310" lon="13.00846860">
        <ele>1008.0000</ele>
        <time>2009-07-31T10:56:19Z</time>
      </trkpt>
      <trkpt lat="43.38183340" lon="13.00846610">
        <ele>1008.0000</ele>
        <time>2009-07-31T10:56:20Z</time>
      </trkpt>
      <trkpt lat="43.38182980" lon="13.00846230">
        <ele>1008.0000</ele>
        <time>2009-07-31T10:56:20Z</time>
      </trkpt>
      <trkpt lat="43.38182980" lon="13.00845820">
        <ele>1008.0000</ele>
        <time>2009-07-31T10:56:20Z</time>
      </trkpt>
      <trkpt lat="43.38181750" lon="13.00846040">
        <ele>1008.0000</ele>
        <time>2009-07-31T10:56:20Z</time>
      </trkpt>
      <trkpt lat="43.38179810" lon="13.00846150">
        <ele>1008.0000</ele>
        <time>2009-07-31T10:56:21Z</time>
      </trkpt>
      <trkpt lat="43.38179800" lon="13.00845520">
        <ele>1008.0000</ele>
        <time>2009-07-31T10:56:21Z</time>
      </trkpt>
      <trkpt lat="43.38179750" lon="13.00845320">
        <ele>1008.0000</ele>
        <time>2009-07-31T10:56:22Z</time>
      </trkpt>
      <trkpt lat="43.38179720" lon="13.00845000">
        <ele>1008.0000</ele>
        <time>2009-07-31T10:56:22Z</time>
      </trkpt>
      <trkpt lat="43.38179630" lon="13.00844430">
        <ele>1008.0000</ele>
        <time>2009-07-31T10:56:22Z</time>
      </trkpt>
      <trkpt lat="43.38179600" lon="13.00843890">
        <ele>1008.0000</ele>
        <time>2009-07-31T10:56:22Z</time>
      </trkpt>
      <trkpt lat="43.38179590" lon="13.00843330">
        <ele>1008.0000</ele>
        <time>2009-07-31T10:56:22Z</time>
      </trkpt>
      <trkpt lat="43.38177840" lon="13.00842170">
        <ele>1008.0000</ele>
        <time>2009-07-31T10:56:23Z</time>
      </trkpt>
      <trkpt lat="43.38174540" lon="13.00838800">
        <ele>1008.0000</ele>
        <time>2009-07-31T10:56:25Z</time>
      </trkpt>
      <trkpt lat="43.38165300" lon="13.00837660">
        <ele>1008.0000</ele>
        <time>2009-07-31T10:56:28Z</time>
      </trkpt>
      <trkpt lat="43.38161440" lon="13.00836760">
        <ele>1008.0000</ele>
        <time>2009-07-31T10:56:30Z</time>
      </trkpt>
      <trkpt lat="43.38159220" lon="13.00834250">
        <ele>1008.0000</ele>
        <time>2009-07-31T10:56:31Z</time>
      </trkpt>
      <trkpt lat="43.38155890" lon="13.00832130">
        <ele>1008.0000</ele>
        <time>2009-07-31T10:56:32Z</time>
      </trkpt>
      <trkpt lat="43.38153700" lon="13.00830340">
        <ele>1008.0000</ele>
        <time>2009-07-31T10:56:33Z</time>
      </trkpt>
      <trkpt lat="43.38150520" lon="13.00829700">
        <ele>1008.0000</ele>
        <time>2009-07-31T10:56:35Z</time>
      </trkpt>
      <trkpt lat="43.38147700" lon="13.00828650">
        <ele>1008.0000</ele>
        <time>2009-07-31T10:56:36Z</time>
      </trkpt>
      <trkpt lat="43.38141750" lon="13.00828540">
        <ele>1008.0000</ele>
        <time>2009-07-31T10:56:38Z</time>
      </trkpt>
      <trkpt lat="43.38138960" lon="13.00827210">
        <ele>1008.0000</ele>
        <time>2009-07-31T10:56:39Z</time>
      </trkpt>
      <trkpt lat="43.38135660" lon="13.00824890">
        <ele>1008.0000</ele>
        <time>2009-07-31T10:56:41Z</time>
      </trkpt>
      <trkpt lat="43.38133500" lon="13.00822120">
        <ele>1008.0000</ele>
        <time>2009-07-31T10:56:42Z</time>
      </trkpt>
      <trkpt lat="43.38130800" lon="13.00819600">
        <ele>1008.0000</ele>
        <time>2009-07-31T10:56:43Z</time>
      </trkpt>
      <trkpt lat="43.38128180" lon="13.00818890">
        <ele>1008.0000</ele>
        <time>2009-07-31T10:56:44Z</time>
      </trkpt>
      <trkpt lat="43.38125830" lon="13.00817880">
        <ele>1008.0000</ele>
        <time>2009-07-31T10:56:45Z</time>
      </trkpt>
      <trkpt lat="43.38123510" lon="13.00816590">
        <ele>1029.0000</ele>
        <time>2009-07-31T10:56:46Z</time>
      </trkpt>
      <trkpt lat="43.38121670" lon="13.00814200">
        <ele>1029.0000</ele>
        <time>2009-07-31T10:56:47Z</time>
      </trkpt>
      <trkpt lat="43.38118700" lon="13.00812780">
        <ele>1029.0000</ele>
        <time>2009-07-31T10:56:49Z</time>
      </trkpt>
      <trkpt lat="43.38117530" lon="13.00810830">
        <ele>1029.0000</ele>
        <time>2009-07-31T10:56:49Z</time>
      </trkpt>
      <trkpt lat="43.38115900" lon="13.00806470">
        <ele>1029.0000</ele>
        <time>2009-07-31T10:56:51Z</time>
      </trkpt>
      <trkpt lat="43.38113030" lon="13.00804800">
        <ele>1029.0000</ele>
        <time>2009-07-31T10:56:52Z</time>
      </trkpt>
      <trkpt lat="43.38110590" lon="13.00802810">
        <ele>1029.0000</ele>
        <time>2009-07-31T10:56:53Z</time>
      </trkpt>
      <trkpt lat="43.38109370" lon="13.00798190">
        <ele>1029.0000</ele>
        <time>2009-07-31T10:56:55Z</time>
      </trkpt>
      <trkpt lat="43.38105530" lon="13.00795330">
        <ele>1029.0000</ele>
        <time>2009-07-31T10:56:56Z</time>
      </trkpt>
      <trkpt lat="43.38103600" lon="13.00792820">
        <ele>1029.0000</ele>
        <time>2009-07-31T10:56:58Z</time>
      </trkpt>
      <trkpt lat="43.38102000" lon="13.00790920">
        <ele>1007.0000</ele>
        <time>2009-07-31T10:56:58Z</time>
      </trkpt>
      <trkpt lat="43.38099000" lon="13.00787220">
        <ele>1007.0000</ele>
        <time>2009-07-31T10:57:00Z</time>
      </trkpt>
      <trkpt lat="43.38096140" lon="13.00785680">
        <ele>1007.0000</ele>
        <time>2009-07-31T10:57:01Z</time>
      </trkpt>
      <trkpt lat="43.38093410" lon="13.00784420">
        <ele>1007.0000</ele>
        <time>2009-07-31T10:57:02Z</time>
      </trkpt>
      <trkpt lat="43.38090280" lon="13.00783470">
        <ele>1007.0000</ele>
        <time>2009-07-31T10:57:04Z</time>
      </trkpt>
      <trkpt lat="43.38088090" lon="13.00783110">
        <ele>1007.0000</ele>
        <time>2009-07-31T10:57:05Z</time>
      </trkpt>
      <trkpt lat="43.38086680" lon="13.00782120">
        <ele>1007.0000</ele>
        <time>2009-07-31T10:57:05Z</time>
      </trkpt>
      <trkpt lat="43.38084690" lon="13.00780380">
        <ele>1007.0000</ele>
        <time>2009-07-31T10:57:06Z</time>
      </trkpt>
      <trkpt lat="43.38082260" lon="13.00778970">
        <ele>1007.0000</ele>
        <time>2009-07-31T10:57:07Z</time>
      </trkpt>
      <trkpt lat="43.38079120" lon="13.00776000">
        <ele>1007.0000</ele>
        <time>2009-07-31T10:57:09Z</time>
      </trkpt>
      <trkpt lat="43.38076970" lon="13.00773270">
        <ele>1007.0000</ele>
        <time>2009-07-31T10:57:10Z</time>
      </trkpt>
      <trkpt lat="43.38075360" lon="13.00771130">
        <ele>1007.0000</ele>
        <time>2009-07-31T10:57:11Z</time>
      </trkpt>
      <trkpt lat="43.38071280" lon="13.00770080">
        <ele>1007.0000</ele>
        <time>2009-07-31T10:57:12Z</time>
      </trkpt>
      <trkpt lat="43.38068030" lon="13.00767760">
        <ele>1007.0000</ele>
        <time>2009-07-31T10:57:14Z</time>
      </trkpt>
      <trkpt lat="43.38066230" lon="13.00765150">
        <ele>1007.0000</ele>
        <time>2009-07-31T10:57:15Z</time>
      </trkpt>
      <trkpt lat="43.38064410" lon="13.00763230">
        <ele>1007.0000</ele>
        <time>2009-07-31T10:57:16Z</time>
      </trkpt>
      <trkpt lat="43.38059980" lon="13.00763370">
        <ele>1007.0000</ele>
        <time>2009-07-31T10:57:18Z</time>
      </trkpt>
      <trkpt lat="43.38055670" lon="13.00763680">
        <ele>1007.0000</ele>
        <time>2009-07-31T10:57:19Z</time>
      </trkpt>
      <trkpt lat="43.38053920" lon="13.00760640">
        <ele>1007.0000</ele>
        <time>2009-07-31T10:57:20Z</time>
      </trkpt>
      <trkpt lat="43.38050990" lon="13.00756340">
        <ele>1007.0000</ele>
        <time>2009-07-31T10:57:22Z</time>
      </trkpt>
      <trkpt lat="43.38052060" lon="13.00750660">
        <ele>1007.0000</ele>
        <time>2009-07-31T10:57:24Z</time>
      </trkpt>
      <trkpt lat="43.38050700" lon="13.00748130">
        <ele>1007.0000</ele>
        <time>2009-07-31T10:57:25Z</time>
      </trkpt>
      <trkpt lat="43.38048950" lon="13.00746980">
        <ele>1007.0000</ele>
        <time>2009-07-31T10:57:26Z</time>
      </trkpt>
      <trkpt lat="43.38047450" lon="13.00744070">
        <ele>1007.0000</ele>
        <time>2009-07-31T10:57:27Z</time>
      </trkpt>
      <trkpt lat="43.38045290" lon="13.00741350">
        <ele>1007.0000</ele>
        <time>2009-07-31T10:57:28Z</time>
      </trkpt>
      <trkpt lat="43.38042480" lon="13.00740050">
        <ele>1007.0000</ele>
        <time>2009-07-31T10:57:29Z</time>
      </trkpt>
      <trkpt lat="43.38040660" lon="13.00738090">
        <ele>1019.0000</ele>
        <time>2009-07-31T10:57:30Z</time>
      </trkpt>
      <trkpt lat="43.38038460" lon="13.00736690">
        <ele>1019.0000</ele>
        <time>2009-07-31T10:57:31Z</time>
      </trkpt>
      <trkpt lat="43.38035640" lon="13.00735880">
        <ele>1019.0000</ele>
        <time>2009-07-31T10:57:32Z</time>
      </trkpt>
      <trkpt lat="43.38032220" lon="13.00732630">
        <ele>1019.0000</ele>
        <time>2009-07-31T10:57:34Z</time>
      </trkpt>
      <trkpt lat="43.38029090" lon="13.00728560">
        <ele>1019.0000</ele>
        <time>2009-07-31T10:57:35Z</time>
      </trkpt>
      <trkpt lat="43.38026620" lon="13.00725880">
        <ele>1019.0000</ele>
        <time>2009-07-31T10:57:37Z</time>
      </trkpt>
      <trkpt lat="43.38024170" lon="13.00724600">
        <ele>1019.0000</ele>
        <time>2009-07-31T10:57:38Z</time>
      </trkpt>
      <trkpt lat="43.38021560" lon="13.00723980">
        <ele>1019.0000</ele>
        <time>2009-07-31T10:57:39Z</time>
      </trkpt>
      <trkpt lat="43.38019290" lon="13.00722540">
        <ele>1019.0000</ele>
        <time>2009-07-31T10:57:40Z</time>
      </trkpt>
      <trkpt lat="43.38018220" lon="13.00721220">
        <ele>1019.0000</ele>
        <time>2009-07-31T10:57:40Z</time>
      </trkpt>
      <trkpt lat="43.38016090" lon="13.00720490">
        <ele>1019.0000</ele>
        <time>2009-07-31T10:57:41Z</time>
      </trkpt>
      <trkpt lat="43.38013660" lon="13.00719210">
        <ele>1019.0000</ele>
        <time>2009-07-31T10:57:42Z</time>
      </trkpt>
      <trkpt lat="43.38011320" lon="13.00718110">
        <ele>1019.0000</ele>
        <time>2009-07-31T10:57:43Z</time>
      </trkpt>
      <trkpt lat="43.38009370" lon="13.00717000">
        <ele>1019.0000</ele>
        <time>2009-07-31T10:57:44Z</time>
      </trkpt>
      <trkpt lat="43.38006650" lon="13.00716460">
        <ele>1019.0000</ele>
        <time>2009-07-31T10:57:45Z</time>
      </trkpt>
      <trkpt lat="43.38003480" lon="13.00716340">
        <ele>1019.0000</ele>
        <time>2009-07-31T10:57:47Z</time>
      </trkpt>
      <trkpt lat="43.38000420" lon="13.00716640">
        <ele>1019.0000</ele>
        <time>2009-07-31T10:57:48Z</time>
      </trkpt>
      <trkpt lat="43.37997490" lon="13.00717560">
        <ele>1019.0000</ele>
        <time>2009-07-31T10:57:49Z</time>
      </trkpt>
      <trkpt lat="43.37994270" lon="13.00720780">
        <ele>1019.0000</ele>
        <time>2009-07-31T10:57:51Z</time>
      </trkpt>
      <trkpt lat="43.37991480" lon="13.00721210">
        <ele>1019.0000</ele>
        <time>2009-07-31T10:57:52Z</time>
      </trkpt>
      <trkpt lat="43.37988450" lon="13.00722310">
        <ele>1019.0000</ele>
        <time>2009-07-31T10:57:53Z</time>
      </trkpt>
      <trkpt lat="43.37984920" lon="13.00722620">
        <ele>1019.0000</ele>
        <time>2009-07-31T10:57:54Z</time>
      </trkpt>
      <trkpt lat="43.37982080" lon="13.00722710">
        <ele>1019.0000</ele>
        <time>2009-07-31T10:57:55Z</time>
      </trkpt>
      <trkpt lat="43.37979450" lon="13.00723870">
        <ele>1019.0000</ele>
        <time>2009-07-31T10:57:57Z</time>
      </trkpt>
      <trkpt lat="43.37977030" lon="13.00724750">
        <ele>1019.0000</ele>
        <time>2009-07-31T10:57:58Z</time>
      </trkpt>
      <trkpt lat="43.37974880" lon="13.00726630">
        <ele>1019.0000</ele>
        <time>2009-07-31T10:57:59Z</time>
      </trkpt>
      <trkpt lat="43.37972640" lon="13.00729440">
        <ele>1019.0000</ele>
        <time>2009-07-31T10:58:00Z</time>
      </trkpt>
      <trkpt lat="43.37970230" lon="13.00731440">
        <ele>1019.0000</ele>
        <time>2009-07-31T10:58:01Z</time>
      </trkpt>
      <trkpt lat="43.37968100" lon="13.00733160">
        <ele>1019.0000</ele>
        <time>2009-07-31T10:58:02Z</time>
      </trkpt>
      <trkpt lat="43.37966010" lon="13.00734420">
        <ele>1019.0000</ele>
        <time>2009-07-31T10:58:03Z</time>
      </trkpt>
      <trkpt lat="43.37964080" lon="13.00734380">
        <ele>1019.0000</ele>
        <time>2009-07-31T10:58:04Z</time>
      </trkpt>
      <trkpt lat="43.37963160" lon="13.00738180">
        <ele>1019.0000</ele>
        <time>2009-07-31T10:58:05Z</time>
      </trkpt>
      <trkpt lat="43.37959470" lon="13.00742880">
        <ele>1019.0000</ele>
        <time>2009-07-31T10:58:07Z</time>
      </trkpt>
      <trkpt lat="43.37957030" lon="13.00744960">
        <ele>1001.0000</ele>
        <time>2009-07-31T10:58:08Z</time>
      </trkpt>
      <trkpt lat="43.37955080" lon="13.00747600">
        <ele>1001.0000</ele>
        <time>2009-07-31T10:58:09Z</time>
      </trkpt>
      <trkpt lat="43.37953530" lon="13.00748810">
        <ele>1001.0000</ele>
        <time>2009-07-31T10:58:10Z</time>
      </trkpt>
      <trkpt lat="43.37952080" lon="13.00749520">
        <ele>1001.0000</ele>
        <time>2009-07-31T10:58:10Z</time>
      </trkpt>
      <trkpt lat="43.37949860" lon="13.00751850">
        <ele>1001.0000</ele>
        <time>2009-07-31T10:58:11Z</time>
      </trkpt>
      <trkpt lat="43.37946600" lon="13.00753170">
        <ele>1001.0000</ele>
        <time>2009-07-31T10:58:13Z</time>
      </trkpt>
      <trkpt lat="43.37945000" lon="13.00755350">
        <ele>1001.0000</ele>
        <time>2009-07-31T10:58:14Z</time>
      </trkpt>
      <trkpt lat="43.37943530" lon="13.00758220">
        <ele>1001.0000</ele>
        <time>2009-07-31T10:58:15Z</time>
      </trkpt>
      <trkpt lat="43.37941240" lon="13.00760320">
        <ele>1001.0000</ele>
        <time>2009-07-31T10:58:16Z</time>
      </trkpt>
      <trkpt lat="43.37940160" lon="13.00765620">
        <ele>1001.0000</ele>
        <time>2009-07-31T10:58:17Z</time>
      </trkpt>
      <trkpt lat="43.37938300" lon="13.00767960">
        <ele>1001.0000</ele>
        <time>2009-07-31T10:58:18Z</time>
      </trkpt>
      <trkpt lat="43.37936710" lon="13.00769990">
        <ele>1001.0000</ele>
        <time>2009-07-31T10:58:19Z</time>
      </trkpt>
      <trkpt lat="43.37934270" lon="13.00772940">
        <ele>1001.0000</ele>
        <time>2009-07-31T10:58:21Z</time>
      </trkpt>
      <trkpt lat="43.37931880" lon="13.00774930">
        <ele>1001.0000</ele>
        <time>2009-07-31T10:58:22Z</time>
      </trkpt>
      <trkpt lat="43.37930110" lon="13.00778800">
        <ele>1001.0000</ele>
        <time>2009-07-31T10:58:23Z</time>
      </trkpt>
      <trkpt lat="43.37928230" lon="13.00783790">
        <ele>1001.0000</ele>
        <time>2009-07-31T10:58:25Z</time>
      </trkpt>
      <trkpt lat="43.37925950" lon="13.00786930">
        <ele>1001.0000</ele>
        <time>2009-07-31T10:58:26Z</time>
      </trkpt>
      <trkpt lat="43.37924340" lon="13.00790130">
        <ele>1001.0000</ele>
        <time>2009-07-31T10:58:27Z</time>
      </trkpt>
      <trkpt lat="43.37922460" lon="13.00792300">
        <ele>1012.0000</ele>
        <time>2009-07-31T10:58:28Z</time>
      </trkpt>
      <trkpt lat="43.37919710" lon="13.00794510">
        <ele>1012.0000</ele>
        <time>2009-07-31T10:58:29Z</time>
      </trkpt>
      <trkpt lat="43.37917000" lon="13.00795600">
        <ele>1012.0000</ele>
        <time>2009-07-31T10:58:31Z</time>
      </trkpt>
      <trkpt lat="43.37914890" lon="13.00797760">
        <ele>1012.0000</ele>
        <time>2009-07-31T10:58:32Z</time>
      </trkpt>
      <trkpt lat="43.37913150" lon="13.00800530">
        <ele>1012.0000</ele>
        <time>2009-07-31T10:58:33Z</time>
      </trkpt>
      <trkpt lat="43.37911740" lon="13.00804280">
        <ele>1012.0000</ele>
        <time>2009-07-31T10:58:34Z</time>
      </trkpt>
      <trkpt lat="43.37908360" lon="13.00805310">
        <ele>1012.0000</ele>
        <time>2009-07-31T10:58:35Z</time>
      </trkpt>
      <trkpt lat="43.37904510" lon="13.00807410">
        <ele>1012.0000</ele>
        <time>2009-07-31T10:58:37Z</time>
      </trkpt>
      <trkpt lat="43.37901330" lon="13.00810210">
        <ele>1012.0000</ele>
        <time>2009-07-31T10:58:38Z</time>
      </trkpt>
      <trkpt lat="43.37899050" lon="13.00812110">
        <ele>1012.0000</ele>
        <time>2009-07-31T10:58:40Z</time>
      </trkpt>
      <trkpt lat="43.37897900" lon="13.00812490">
        <ele>1012.0000</ele>
        <time>2009-07-31T10:58:40Z</time>
      </trkpt>
      <trkpt lat="43.37896640" lon="13.00814800">
        <ele>1012.0000</ele>
        <time>2009-07-31T10:58:41Z</time>
      </trkpt>
      <trkpt lat="43.37894760" lon="13.00817000">
        <ele>1012.0000</ele>
        <time>2009-07-31T10:58:42Z</time>
      </trkpt>
      <trkpt lat="43.37892970" lon="13.00818190">
        <ele>1012.0000</ele>
        <time>2009-07-31T10:58:43Z</time>
      </trkpt>
      <trkpt lat="43.37891210" lon="13.00822090">
        <ele>1012.0000</ele>
        <time>2009-07-31T10:58:44Z</time>
      </trkpt>
      <trkpt lat="43.37889590" lon="13.00826920">
        <ele>1012.0000</ele>
        <time>2009-07-31T10:58:45Z</time>
      </trkpt>
      <trkpt lat="43.37888180" lon="13.00828390">
        <ele>1012.0000</ele>
        <time>2009-07-31T10:58:46Z</time>
      </trkpt>
      <trkpt lat="43.37885640" lon="13.00832260">
        <ele>1012.0000</ele>
        <time>2009-07-31T10:58:48Z</time>
      </trkpt>
      <trkpt lat="43.37883100" lon="13.00834690">
        <ele>1012.0000</ele>
        <time>2009-07-31T10:58:49Z</time>
      </trkpt>
      <trkpt lat="43.37882250" lon="13.00836010">
        <ele>1012.0000</ele>
        <time>2009-07-31T10:58:49Z</time>
      </trkpt>
      <trkpt lat="43.37880120" lon="13.00839130">
        <ele>1012.0000</ele>
        <time>2009-07-31T10:58:51Z</time>
      </trkpt>
      <trkpt lat="43.37878420" lon="13.00844240">
        <ele>1012.0000</ele>
        <time>2009-07-31T10:58:52Z</time>
      </trkpt>
      <trkpt lat="43.37876300" lon="13.00847050">
        <ele>1012.0000</ele>
        <time>2009-07-31T10:58:54Z</time>
      </trkpt>
      <trkpt lat="43.37873930" lon="13.00850480">
        <ele>1003.0000</ele>
        <time>2009-07-31T10:58:55Z</time>
      </trkpt>
      <trkpt lat="43.37871640" lon="13.00852440">
        <ele>1003.0000</ele>
        <time>2009-07-31T10:58:56Z</time>
      </trkpt>
      <trkpt lat="43.37869110" lon="13.00854730">
        <ele>1003.0000</ele>
        <time>2009-07-31T10:58:57Z</time>
      </trkpt>
      <trkpt lat="43.37866720" lon="13.00857420">
        <ele>1003.0000</ele>
        <time>2009-07-31T10:58:58Z</time>
      </trkpt>
      <trkpt lat="43.37863430" lon="13.00859070">
        <ele>1003.0000</ele>
        <time>2009-07-31T10:59:00Z</time>
      </trkpt>
      <trkpt lat="43.37861200" lon="13.00860030">
        <ele>1003.0000</ele>
        <time>2009-07-31T10:59:01Z</time>
      </trkpt>
      <trkpt lat="43.37860240" lon="13.00862590">
        <ele>1003.0000</ele>
        <time>2009-07-31T10:59:02Z</time>
      </trkpt>
      <trkpt lat="43.37859840" lon="13.00863540">
        <ele>1003.0000</ele>
        <time>2009-07-31T10:59:02Z</time>
      </trkpt>
      <trkpt lat="43.37858820" lon="13.00865830">
        <ele>1003.0000</ele>
        <time>2009-07-31T10:59:03Z</time>
      </trkpt>
      <trkpt lat="43.37856770" lon="13.00866800">
        <ele>1003.0000</ele>
        <time>2009-07-31T10:59:04Z</time>
      </trkpt>
      <trkpt lat="43.37855140" lon="13.00868610">
        <ele>1003.0000</ele>
        <time>2009-07-31T10:59:04Z</time>
      </trkpt>
      <trkpt lat="43.37853030" lon="13.00870070">
        <ele>1003.0000</ele>
        <time>2009-07-31T10:59:05Z</time>
      </trkpt>
      <trkpt lat="43.37852020" lon="13.00872440">
        <ele>1003.0000</ele>
        <time>2009-07-31T10:59:06Z</time>
      </trkpt>
      <trkpt lat="43.37851570" lon="13.00875960">
        <ele>1006.0000</ele>
        <time>2009-07-31T10:59:07Z</time>
      </trkpt>
      <trkpt lat="43.37849740" lon="13.00877980">
        <ele>1006.0000</ele>
        <time>2009-07-31T10:59:08Z</time>
      </trkpt>
      <trkpt lat="43.37848110" lon="13.00882400">
        <ele>1006.0000</ele>
        <time>2009-07-31T10:59:10Z</time>
      </trkpt>
      <trkpt lat="43.37846280" lon="13.00885890">
        <ele>1006.0000</ele>
        <time>2009-07-31T10:59:11Z</time>
      </trkpt>
      <trkpt lat="43.37846390" lon="13.00888790">
        <ele>1006.0000</ele>
        <time>2009-07-31T10:59:12Z</time>
      </trkpt>
      <trkpt lat="43.37842970" lon="13.00891050">
        <ele>1006.0000</ele>
        <time>2009-07-31T10:59:13Z</time>
      </trkpt>
      <trkpt lat="43.37840180" lon="13.00893530">
        <ele>1006.0000</ele>
        <time>2009-07-31T10:59:15Z</time>
      </trkpt>
      <trkpt lat="43.37836100" lon="13.00895400">
        <ele>1006.0000</ele>
        <time>2009-07-31T10:59:16Z</time>
      </trkpt>
      <trkpt lat="43.37837120" lon="13.00900210">
        <ele>1006.0000</ele>
        <time>2009-07-31T10:59:18Z</time>
      </trkpt>
      <trkpt lat="43.37836120" lon="13.00903940">
        <ele>1006.0000</ele>
        <time>2009-07-31T10:59:19Z</time>
      </trkpt>
      <trkpt lat="43.37835540" lon="13.00906660">
        <ele>1006.0000</ele>
        <time>2009-07-31T10:59:20Z</time>
      </trkpt>
      <trkpt lat="43.37832810" lon="13.00909380">
        <ele>1006.0000</ele>
        <time>2009-07-31T10:59:21Z</time>
      </trkpt>
      <trkpt lat="43.37830920" lon="13.00911420">
        <ele>1006.0000</ele>
        <time>2009-07-31T10:59:22Z</time>
      </trkpt>
      <trkpt lat="43.37828510" lon="13.00914330">
        <ele>1006.0000</ele>
        <time>2009-07-31T10:59:23Z</time>
      </trkpt>
      <trkpt lat="43.37826710" lon="13.00916140">
        <ele>1006.0000</ele>
        <time>2009-07-31T10:59:24Z</time>
      </trkpt>
      <trkpt lat="43.37825100" lon="13.00917620">
        <ele>1006.0000</ele>
        <time>2009-07-31T10:59:25Z</time>
      </trkpt>
      <trkpt lat="43.37823640" lon="13.00919230">
        <ele>1006.0000</ele>
        <time>2009-07-31T10:59:26Z</time>
      </trkpt>
      <trkpt lat="43.37820580" lon="13.00922180">
        <ele>1006.0000</ele>
        <time>2009-07-31T10:59:27Z</time>
      </trkpt>
      <trkpt lat="43.37817870" lon="13.00923610">
        <ele>1006.0000</ele>
        <time>2009-07-31T10:59:28Z</time>
      </trkpt>
      <trkpt lat="43.37815300" lon="13.00925380">
        <ele>1006.0000</ele>
        <time>2009-07-31T10:59:29Z</time>
      </trkpt>
      <trkpt lat="43.37812400" lon="13.00929820">
        <ele>1006.0000</ele>
        <time>2009-07-31T10:59:31Z</time>
      </trkpt>
      <trkpt lat="43.37811260" lon="13.00931270">
        <ele>1006.0000</ele>
        <time>2009-07-31T10:59:32Z</time>
      </trkpt>
      <trkpt lat="43.37809820" lon="13.00933180">
        <ele>1006.0000</ele>
        <time>2009-07-31T10:59:33Z</time>
      </trkpt>
      <trkpt lat="43.37807420" lon="13.00936650">
        <ele>1006.0000</ele>
        <time>2009-07-31T10:59:34Z</time>
      </trkpt>
      <trkpt lat="43.37806030" lon="13.00938130">
        <ele>1006.0000</ele>
        <time>2009-07-31T10:59:35Z</time>
      </trkpt>
      <trkpt lat="43.37804150" lon="13.00938630">
        <ele>1006.0000</ele>
        <time>2009-07-31T10:59:36Z</time>
      </trkpt>
      <trkpt lat="43.37802660" lon="13.00941520">
        <ele>1006.0000</ele>
        <time>2009-07-31T10:59:37Z</time>
      </trkpt>
      <trkpt lat="43.37801610" lon="13.00944190">
        <ele>1006.0000</ele>
        <time>2009-07-31T10:59:37Z</time>
      </trkpt>
      <trkpt lat="43.37800110" lon="13.00945950">
        <ele>1006.0000</ele>
        <time>2009-07-31T10:59:38Z</time>
      </trkpt>
      <trkpt lat="43.37797960" lon="13.00947930">
        <ele>1006.0000</ele>
        <time>2009-07-31T10:59:39Z</time>
      </trkpt>
      <trkpt lat="43.37795670" lon="13.00950330">
        <ele>1006.0000</ele>
        <time>2009-07-31T10:59:40Z</time>
      </trkpt>
      <trkpt lat="43.37793570" lon="13.00954660">
        <ele>1006.0000</ele>
        <time>2009-07-31T10:59:42Z</time>
      </trkpt>
      <trkpt lat="43.37792120" lon="13.00958350">
        <ele>1009.0000</ele>
        <time>2009-07-31T10:59:43Z</time>
      </trkpt>
      <trkpt lat="43.37791280" lon="13.00961450">
        <ele>1002.0000</ele>
        <time>2009-07-31T10:59:44Z</time>
      </trkpt>
      <trkpt lat="43.37791230" lon="13.00964290">
        <ele>1002.0000</ele>
        <time>2009-07-31T10:59:45Z</time>
      </trkpt>
      <trkpt lat="43.37790780" lon="13.00967200">
        <ele>1002.0000</ele>
        <time>2009-07-31T10:59:46Z</time>
      </trkpt>
      <trkpt lat="43.37790180" lon="13.00970290">
        <ele>1002.0000</ele>
        <time>2009-07-31T10:59:47Z</time>
      </trkpt>
      <trkpt lat="43.37789830" lon="13.00972970">
        <ele>1002.0000</ele>
        <time>2009-07-31T10:59:48Z</time>
      </trkpt>
      <trkpt lat="43.37787090" lon="13.00974360">
        <ele>1002.0000</ele>
        <time>2009-07-31T10:59:49Z</time>
      </trkpt>
      <trkpt lat="43.37785160" lon="13.00979430">
        <ele>1002.0000</ele>
        <time>2009-07-31T10:59:50Z</time>
      </trkpt>
      <trkpt lat="43.37783230" lon="13.00984910">
        <ele>1002.0000</ele>
        <time>2009-07-31T10:59:52Z</time>
      </trkpt>
      <trkpt lat="43.37780190" lon="13.00988270">
        <ele>1002.0000</ele>
        <time>2009-07-31T10:59:54Z</time>
      </trkpt>
      <trkpt lat="43.37777570" lon="13.00990110">
        <ele>1002.0000</ele>
        <time>2009-07-31T10:59:55Z</time>
      </trkpt>
      <trkpt lat="43.37774930" lon="13.00992950">
        <ele>1002.0000</ele>
        <time>2009-07-31T10:59:56Z</time>
      </trkpt>
      <trkpt lat="43.37773910" lon="13.00995970">
        <ele>1002.0000</ele>
        <time>2009-07-31T10:59:57Z</time>
      </trkpt>
      <trkpt lat="43.37772950" lon="13.00997840">
        <ele>1002.0000</ele>
        <time>2009-07-31T10:59:58Z</time>
      </trkpt>
      <trkpt lat="43.37772450" lon="13.01001100">
        <ele>1002.0000</ele>
        <time>2009-07-31T10:59:59Z</time>
      </trkpt>
      <trkpt lat="43.37769610" lon="13.01004000">
        <ele>1002.0000</ele>
        <time>2009-07-31T11:00:00Z</time>
      </trkpt>
      <trkpt lat="43.37767810" lon="13.01006620">
        <ele>1002.0000</ele>
        <time>2009-07-31T11:00:01Z</time>
      </trkpt>
      <trkpt lat="43.37766510" lon="13.01009990">
        <ele>1002.0000</ele>
        <time>2009-07-31T11:00:02Z</time>
      </trkpt>
      <trkpt lat="43.37765140" lon="13.01013190">
        <ele>1002.0000</ele>
        <time>2009-07-31T11:00:03Z</time>
      </trkpt>
      <trkpt lat="43.37764440" lon="13.01015400">
        <ele>1002.0000</ele>
        <time>2009-07-31T11:00:04Z</time>
      </trkpt>
      <trkpt lat="43.37763220" lon="13.01017650">
        <ele>1002.0000</ele>
        <time>2009-07-31T11:00:05Z</time>
      </trkpt>
      <trkpt lat="43.37762020" lon="13.01020950">
        <ele>1002.0000</ele>
        <time>2009-07-31T11:00:06Z</time>
      </trkpt>
      <trkpt lat="43.37759820" lon="13.01025330">
        <ele>1002.0000</ele>
        <time>2009-07-31T11:00:08Z</time>
      </trkpt>
      <trkpt lat="43.37758740" lon="13.01028710">
        <ele>1002.0000</ele>
        <time>2009-07-31T11:00:09Z</time>
      </trkpt>
      <trkpt lat="43.37757250" lon="13.01031490">
        <ele>1002.0000</ele>
        <time>2009-07-31T11:00:10Z</time>
      </trkpt>
      <trkpt lat="43.37755830" lon="13.01033980">
        <ele>1002.0000</ele>
        <time>2009-07-31T11:00:11Z</time>
      </trkpt>
      <trkpt lat="43.37755450" lon="13.01038250">
        <ele>1002.0000</ele>
        <time>2009-07-31T11:00:12Z</time>
      </trkpt>
      <trkpt lat="43.37752870" lon="13.01042500">
        <ele>996.00000</ele>
        <time>2009-07-31T11:00:13Z</time>
      </trkpt>
      <trkpt lat="43.37751610" lon="13.01044790">
        <ele>996.00000</ele>
        <time>2009-07-31T11:00:14Z</time>
      </trkpt>
      <trkpt lat="43.37751010" lon="13.01047550">
        <ele>996.00000</ele>
        <time>2009-07-31T11:00:15Z</time>
      </trkpt>
      <trkpt lat="43.37749230" lon="13.01050540">
        <ele>996.00000</ele>
        <time>2009-07-31T11:00:16Z</time>
      </trkpt>
      <trkpt lat="43.37747130" lon="13.01054150">
        <ele>996.00000</ele>
        <time>2009-07-31T11:00:18Z</time>
      </trkpt>
      <trkpt lat="43.37746170" lon="13.01056540">
        <ele>996.00000</ele>
        <time>2009-07-31T11:00:18Z</time>
      </trkpt>
      <trkpt lat="43.37744570" lon="13.01059360">
        <ele>996.00000</ele>
        <time>2009-07-31T11:00:19Z</time>
      </trkpt>
      <trkpt lat="43.37744700" lon="13.01060920">
        <ele>996.00000</ele>
        <time>2009-07-31T11:00:20Z</time>
      </trkpt>
      <trkpt lat="43.37742930" lon="13.01062330">
        <ele>996.00000</ele>
        <time>2009-07-31T11:00:21Z</time>
      </trkpt>
      <trkpt lat="43.37740960" lon="13.01063780">
        <ele>996.00000</ele>
        <time>2009-07-31T11:00:22Z</time>
      </trkpt>
      <trkpt lat="43.37737770" lon="13.01069610">
        <ele>996.00000</ele>
        <time>2009-07-31T11:00:24Z</time>
      </trkpt>
      <trkpt lat="43.37736110" lon="13.01074720">
        <ele>996.00000</ele>
        <time>2009-07-31T11:00:25Z</time>
      </trkpt>
      <trkpt lat="43.37736530" lon="13.01078300">
        <ele>996.00000</ele>
        <time>2009-07-31T11:00:26Z</time>
      </trkpt>
      <trkpt lat="43.37734240" lon="13.01080580">
        <ele>996.00000</ele>
        <time>2009-07-31T11:00:28Z</time>
      </trkpt>
      <trkpt lat="43.37732060" lon="13.01082280">
        <ele>996.00000</ele>
        <time>2009-07-31T11:00:29Z</time>
      </trkpt>
      <trkpt lat="43.37730460" lon="13.01085650">
        <ele>996.00000</ele>
        <time>2009-07-31T11:00:30Z</time>
      </trkpt>
      <trkpt lat="43.37729460" lon="13.01089170">
        <ele>996.00000</ele>
        <time>2009-07-31T11:00:31Z</time>
      </trkpt>
      <trkpt lat="43.37728090" lon="13.01092390">
        <ele>996.00000</ele>
        <time>2009-07-31T11:00:32Z</time>
      </trkpt>
      <trkpt lat="43.37726570" lon="13.01094480">
        <ele>996.00000</ele>
        <time>2009-07-31T11:00:33Z</time>
      </trkpt>
      <trkpt lat="43.37724540" lon="13.01096300">
        <ele>996.00000</ele>
        <time>2009-07-31T11:00:34Z</time>
      </trkpt>
      <trkpt lat="43.37722300" lon="13.01099070">
        <ele>996.00000</ele>
        <time>2009-07-31T11:00:35Z</time>
      </trkpt>
      <trkpt lat="43.37721630" lon="13.01103210">
        <ele>996.00000</ele>
        <time>2009-07-31T11:00:36Z</time>
      </trkpt>
      <trkpt lat="43.37720560" lon="13.01105340">
        <ele>996.00000</ele>
        <time>2009-07-31T11:00:37Z</time>
      </trkpt>
      <trkpt lat="43.37719390" lon="13.01108350">
        <ele>996.00000</ele>
        <time>2009-07-31T11:00:38Z</time>
      </trkpt>
      <trkpt lat="43.37718880" lon="13.01110640">
        <ele>996.00000</ele>
        <time>2009-07-31T11:00:39Z</time>
      </trkpt>
      <trkpt lat="43.37718740" lon="13.01111750">
        <ele>996.00000</ele>
        <time>2009-07-31T11:00:39Z</time>
      </trkpt>
      <trkpt lat="43.37717460" lon="13.01114830">
        <ele>996.00000</ele>
        <time>2009-07-31T11:00:40Z</time>
      </trkpt>
      <trkpt lat="43.37716160" lon="13.01118630">
        <ele>996.00000</ele>
        <time>2009-07-31T11:00:41Z</time>
      </trkpt>
      <trkpt lat="43.37714820" lon="13.01119570">
        <ele>996.00000</ele>
        <time>2009-07-31T11:00:42Z</time>
      </trkpt>
      <trkpt lat="43.37713470" lon="13.01119490">
        <ele>996.00000</ele>
        <time>2009-07-31T11:00:42Z</time>
      </trkpt>
      <trkpt lat="43.37712760" lon="13.01123030">
        <ele>996.00000</ele>
        <time>2009-07-31T11:00:43Z</time>
      </trkpt>
      <trkpt lat="43.37711930" lon="13.01128100">
        <ele>988.00000</ele>
        <time>2009-07-31T11:00:45Z</time>
      </trkpt>
      <trkpt lat="43.37710900" lon="13.01132730">
        <ele>988.00000</ele>
        <time>2009-07-31T11:00:46Z</time>
      </trkpt>
      <trkpt lat="43.37709510" lon="13.01134660">
        <ele>988.00000</ele>
        <time>2009-07-31T11:00:47Z</time>
      </trkpt>
      <trkpt lat="43.37709060" lon="13.01138380">
        <ele>988.00000</ele>
        <time>2009-07-31T11:00:48Z</time>
      </trkpt>
      <trkpt lat="43.37708180" lon="13.01140710">
        <ele>976.00000</ele>
        <time>2009-07-31T11:00:49Z</time>
      </trkpt>
      <trkpt lat="43.37707270" lon="13.01142270">
        <ele>976.00000</ele>
        <time>2009-07-31T11:00:50Z</time>
      </trkpt>
      <trkpt lat="43.37706700" lon="13.01144050">
        <ele>976.00000</ele>
        <time>2009-07-31T11:00:50Z</time>
      </trkpt>
      <trkpt lat="43.37705060" lon="13.01146990">
        <ele>976.00000</ele>
        <time>2009-07-31T11:00:51Z</time>
      </trkpt>
      <trkpt lat="43.37703210" lon="13.01150530">
        <ele>976.00000</ele>
        <time>2009-07-31T11:00:52Z</time>
      </trkpt>
      <trkpt lat="43.37702240" lon="13.01152290">
        <ele>976.00000</ele>
        <time>2009-07-31T11:00:53Z</time>
      </trkpt>
      <trkpt lat="43.37701050" lon="13.01154550">
        <ele>976.00000</ele>
        <time>2009-07-31T11:00:54Z</time>
      </trkpt>
      <trkpt lat="43.37699970" lon="13.01156410">
        <ele>976.00000</ele>
        <time>2009-07-31T11:00:55Z</time>
      </trkpt>
      <trkpt lat="43.37698200" lon="13.01159720">
        <ele>976.00000</ele>
        <time>2009-07-31T11:00:56Z</time>
      </trkpt>
      <trkpt lat="43.37696970" lon="13.01161670">
        <ele>976.00000</ele>
        <time>2009-07-31T11:00:57Z</time>
      </trkpt>
      <trkpt lat="43.37696080" lon="13.01165490">
        <ele>976.00000</ele>
        <time>2009-07-31T11:00:58Z</time>
      </trkpt>
      <trkpt lat="43.37694520" lon="13.01167300">
        <ele>976.00000</ele>
        <time>2009-07-31T11:00:59Z</time>
      </trkpt>
      <trkpt lat="43.37693390" lon="13.01169150">
        <ele>976.00000</ele>
        <time>2009-07-31T11:00:59Z</time>
      </trkpt>
      <trkpt lat="43.37692350" lon="13.01171940">
        <ele>976.00000</ele>
        <time>2009-07-31T11:01:00Z</time>
      </trkpt>
      <trkpt lat="43.37691300" lon="13.01174050">
        <ele>976.00000</ele>
        <time>2009-07-31T11:01:01Z</time>
      </trkpt>
      <trkpt lat="43.37690160" lon="13.01177280">
        <ele>976.00000</ele>
        <time>2009-07-31T11:01:02Z</time>
      </trkpt>
      <trkpt lat="43.37688760" lon="13.01180190">
        <ele>976.00000</ele>
        <time>2009-07-31T11:01:03Z</time>
      </trkpt>
      <trkpt lat="43.37687070" lon="13.01185600">
        <ele>976.00000</ele>
        <time>2009-07-31T11:01:05Z</time>
      </trkpt>
      <trkpt lat="43.37685600" lon="13.01189250">
        <ele>976.00000</ele>
        <time>2009-07-31T11:01:06Z</time>
      </trkpt>
      <trkpt lat="43.37684220" lon="13.01191210">
        <ele>976.00000</ele>
        <time>2009-07-31T11:01:07Z</time>
      </trkpt>
      <trkpt lat="43.37682730" lon="13.01193580">
        <ele>976.00000</ele>
        <time>2009-07-31T11:01:08Z</time>
      </trkpt>
      <trkpt lat="43.37681250" lon="13.01196160">
        <ele>976.00000</ele>
        <time>2009-07-31T11:01:09Z</time>
      </trkpt>
      <trkpt lat="43.37679550" lon="13.01197740">
        <ele>976.00000</ele>
        <time>2009-07-31T11:01:09Z</time>
      </trkpt>
      <trkpt lat="43.37678770" lon="13.01198600">
        <ele>976.00000</ele>
        <time>2009-07-31T11:01:10Z</time>
      </trkpt>
      <trkpt lat="43.37677200" lon="13.01200910">
        <ele>976.00000</ele>
        <time>2009-07-31T11:01:11Z</time>
      </trkpt>
      <trkpt lat="43.37675160" lon="13.01203290">
        <ele>976.00000</ele>
        <time>2009-07-31T11:01:12Z</time>
      </trkpt>
      <trkpt lat="43.37673570" lon="13.01206210">
        <ele>976.00000</ele>
        <time>2009-07-31T11:01:13Z</time>
      </trkpt>
      <trkpt lat="43.37672260" lon="13.01210850">
        <ele>968.00000</ele>
        <time>2009-07-31T11:01:14Z</time>
      </trkpt>
      <trkpt lat="43.37670660" lon="13.01214080">
        <ele>968.00000</ele>
        <time>2009-07-31T11:01:15Z</time>
      </trkpt>
      <trkpt lat="43.37669160" lon="13.01215680">
        <ele>968.00000</ele>
        <time>2009-07-31T11:01:16Z</time>
      </trkpt>
      <trkpt lat="43.37667670" lon="13.01218070">
        <ele>968.00000</ele>
        <time>2009-07-31T11:01:17Z</time>
      </trkpt>
      <trkpt lat="43.37666510" lon="13.01220080">
        <ele>968.00000</ele>
        <time>2009-07-31T11:01:18Z</time>
      </trkpt>
      <trkpt lat="43.37664890" lon="13.01223170">
        <ele>968.00000</ele>
        <time>2009-07-31T11:01:19Z</time>
      </trkpt>
      <trkpt lat="43.37663550" lon="13.01225470">
        <ele>968.00000</ele>
        <time>2009-07-31T11:01:20Z</time>
      </trkpt>
      <trkpt lat="43.37663670" lon="13.01230720">
        <ele>968.00000</ele>
        <time>2009-07-31T11:01:21Z</time>
      </trkpt>
      <trkpt lat="43.37662510" lon="13.01233580">
        <ele>968.00000</ele>
        <time>2009-07-31T11:01:22Z</time>
      </trkpt>
      <trkpt lat="43.37661710" lon="13.01236100">
        <ele>968.00000</ele>
        <time>2009-07-31T11:01:23Z</time>
      </trkpt>
      <trkpt lat="43.37660090" lon="13.01239230">
        <ele>968.00000</ele>
        <time>2009-07-31T11:01:24Z</time>
      </trkpt>
      <trkpt lat="43.37657920" lon="13.01242390">
        <ele>968.00000</ele>
        <time>2009-07-31T11:01:25Z</time>
      </trkpt>
      <trkpt lat="43.37655760" lon="13.01246140">
        <ele>968.00000</ele>
        <time>2009-07-31T11:01:27Z</time>
      </trkpt>
      <trkpt lat="43.37654040" lon="13.01249250">
        <ele>968.00000</ele>
        <time>2009-07-31T11:01:28Z</time>
      </trkpt>
      <trkpt lat="43.37652170" lon="13.01252940">
        <ele>968.00000</ele>
        <time>2009-07-31T11:01:29Z</time>
      </trkpt>
      <trkpt lat="43.37650340" lon="13.01257260">
        <ele>968.00000</ele>
        <time>2009-07-31T11:01:31Z</time>
      </trkpt>
      <trkpt lat="43.37647730" lon="13.01260250">
        <ele>968.00000</ele>
        <time>2009-07-31T11:01:32Z</time>
      </trkpt>
      <trkpt lat="43.37647540" lon="13.01264160">
        <ele>968.00000</ele>
        <time>2009-07-31T11:01:33Z</time>
      </trkpt>
      <trkpt lat="43.37645540" lon="13.01265970">
        <ele>968.00000</ele>
        <time>2009-07-31T11:01:34Z</time>
      </trkpt>
      <trkpt lat="43.37643210" lon="13.01268780">
        <ele>968.00000</ele>
        <time>2009-07-31T11:01:35Z</time>
      </trkpt>
      <trkpt lat="43.37641910" lon="13.01271900">
        <ele>968.00000</ele>
        <time>2009-07-31T11:01:37Z</time>
      </trkpt>
      <trkpt lat="43.37641110" lon="13.01276270">
        <ele>968.00000</ele>
        <time>2009-07-31T11:01:38Z</time>
      </trkpt>
      <trkpt lat="43.37641440" lon="13.01279860">
        <ele>968.00000</ele>
        <time>2009-07-31T11:01:39Z</time>
      </trkpt>
      <trkpt lat="43.37639380" lon="13.01283320">
        <ele>968.00000</ele>
        <time>2009-07-31T11:01:40Z</time>
      </trkpt>
      <trkpt lat="43.37637610" lon="13.01287300">
        <ele>968.00000</ele>
        <time>2009-07-31T11:01:42Z</time>
      </trkpt>
      <trkpt lat="43.37636400" lon="13.01291170">
        <ele>968.00000</ele>
        <time>2009-07-31T11:01:43Z</time>
      </trkpt>
      <trkpt lat="43.37635670" lon="13.01295290">
        <ele>964.00000</ele>
        <time>2009-07-31T11:01:44Z</time>
      </trkpt>
      <trkpt lat="43.37635520" lon="13.01298660">
        <ele>964.00000</ele>
        <time>2009-07-31T11:01:45Z</time>
      </trkpt>
      <trkpt lat="43.37634740" lon="13.01301080">
        <ele>964.00000</ele>
        <time>2009-07-31T11:01:46Z</time>
      </trkpt>
      <trkpt lat="43.37633110" lon="13.01304470">
        <ele>964.00000</ele>
        <time>2009-07-31T11:01:47Z</time>
      </trkpt>
      <trkpt lat="43.37632310" lon="13.01307830">
        <ele>964.00000</ele>
        <time>2009-07-31T11:01:48Z</time>
      </trkpt>
      <trkpt lat="43.37630410" lon="13.01309790">
        <ele>964.00000</ele>
        <time>2009-07-31T11:01:49Z</time>
      </trkpt>
      <trkpt lat="43.37629060" lon="13.01311940">
        <ele>964.00000</ele>
        <time>2009-07-31T11:01:50Z</time>
      </trkpt>
      <trkpt lat="43.37625860" lon="13.01313880">
        <ele>964.00000</ele>
        <time>2009-07-31T11:01:51Z</time>
      </trkpt>
      <trkpt lat="43.37624270" lon="13.01318610">
        <ele>961.00000</ele>
        <time>2009-07-31T11:01:53Z</time>
      </trkpt>
      <trkpt lat="43.37624060" lon="13.01322440">
        <ele>961.00000</ele>
        <time>2009-07-31T11:01:54Z</time>
      </trkpt>
      <trkpt lat="43.37623020" lon="13.01326260">
        <ele>961.00000</ele>
        <time>2009-07-31T11:01:55Z</time>
      </trkpt>
      <trkpt lat="43.37622470" lon="13.01330260">
        <ele>961.00000</ele>
        <time>2009-07-31T11:01:56Z</time>
      </trkpt>
      <trkpt lat="43.37621930" lon="13.01334050">
        <ele>961.00000</ele>
        <time>2009-07-31T11:01:57Z</time>
      </trkpt>
      <trkpt lat="43.37622310" lon="13.01337140">
        <ele>961.00000</ele>
        <time>2009-07-31T11:01:58Z</time>
      </trkpt>
      <trkpt lat="43.37622290" lon="13.01340640">
        <ele>961.00000</ele>
        <time>2009-07-31T11:01:59Z</time>
      </trkpt>
      <trkpt lat="43.37621760" lon="13.01343040">
        <ele>961.00000</ele>
        <time>2009-07-31T11:02:00Z</time>
      </trkpt>
      <trkpt lat="43.37620900" lon="13.01346200">
        <ele>961.00000</ele>
        <time>2009-07-31T11:02:01Z</time>
      </trkpt>
      <trkpt lat="43.37619490" lon="13.01350220">
        <ele>961.00000</ele>
        <time>2009-07-31T11:02:02Z</time>
      </trkpt>
      <trkpt lat="43.37619400" lon="13.01353430">
        <ele>961.00000</ele>
        <time>2009-07-31T11:02:03Z</time>
      </trkpt>
      <trkpt lat="43.37620870" lon="13.01357580">
        <ele>961.00000</ele>
        <time>2009-07-31T11:02:05Z</time>
      </trkpt>
      <trkpt lat="43.37620600" lon="13.01360850">
        <ele>961.00000</ele>
        <time>2009-07-31T11:02:05Z</time>
      </trkpt>
      <trkpt lat="43.37620290" lon="13.01361090">
        <ele>961.00000</ele>
        <time>2009-07-31T11:02:06Z</time>
      </trkpt>
      <trkpt lat="43.37620670" lon="13.01364090">
        <ele>961.00000</ele>
        <time>2009-07-31T11:02:06Z</time>
      </trkpt>
      <trkpt lat="43.37620190" lon="13.01366720">
        <ele>961.00000</ele>
        <time>2009-07-31T11:02:07Z</time>
      </trkpt>
      <trkpt lat="43.37620190" lon="13.01369380">
        <ele>961.00000</ele>
        <time>2009-07-31T11:02:08Z</time>
      </trkpt>
      <trkpt lat="43.37618980" lon="13.01375680">
        <ele>959.00000</ele>
        <time>2009-07-31T11:02:10Z</time>
      </trkpt>
      <trkpt lat="43.37618160" lon="13.01381250">
        <ele>959.00000</ele>
        <time>2009-07-31T11:02:12Z</time>
      </trkpt>
      <trkpt lat="43.37617610" lon="13.01384880">
        <ele>959.00000</ele>
        <time>2009-07-31T11:02:13Z</time>
      </trkpt>
      <trkpt lat="43.37617270" lon="13.01388280">
        <ele>959.00000</ele>
        <time>2009-07-31T11:02:14Z</time>
      </trkpt>
      <trkpt lat="43.37616210" lon="13.01390990">
        <ele>959.00000</ele>
        <time>2009-07-31T11:02:15Z</time>
      </trkpt>
      <trkpt lat="43.37615460" lon="13.01394630">
        <ele>959.00000</ele>
        <time>2009-07-31T11:02:16Z</time>
      </trkpt>
      <trkpt lat="43.37614920" lon="13.01396670">
        <ele>959.00000</ele>
        <time>2009-07-31T11:02:16Z</time>
      </trkpt>
      <trkpt lat="43.37616900" lon="13.01399920">
        <ele>959.00000</ele>
        <time>2009-07-31T11:02:18Z</time>
      </trkpt>
      <trkpt lat="43.37617480" lon="13.01403630">
        <ele>959.00000</ele>
        <time>2009-07-31T11:02:19Z</time>
      </trkpt>
      <trkpt lat="43.37615980" lon="13.01408080">
        <ele>959.00000</ele>
        <time>2009-07-31T11:02:20Z</time>
      </trkpt>
      <trkpt lat="43.37614790" lon="13.01412940">
        <ele>959.00000</ele>
        <time>2009-07-31T11:02:22Z</time>
      </trkpt>
      <trkpt lat="43.37613560" lon="13.01417190">
        <ele>959.00000</ele>
        <time>2009-07-31T11:02:23Z</time>
      </trkpt>
      <trkpt lat="43.37613130" lon="13.01421330">
        <ele>959.00000</ele>
        <time>2009-07-31T11:02:24Z</time>
      </trkpt>
      <trkpt lat="43.37611730" lon="13.01423980">
        <ele>959.00000</ele>
        <time>2009-07-31T11:02:25Z</time>
      </trkpt>
      <trkpt lat="43.37611070" lon="13.01428820">
        <ele>959.00000</ele>
        <time>2009-07-31T11:02:26Z</time>
      </trkpt>
      <trkpt lat="43.37610450" lon="13.01432380">
        <ele>959.00000</ele>
        <time>2009-07-31T11:02:28Z</time>
      </trkpt>
      <trkpt lat="43.37609750" lon="13.01434800">
        <ele>959.00000</ele>
        <time>2009-07-31T11:02:28Z</time>
      </trkpt>
      <trkpt lat="43.37609430" lon="13.01438700">
        <ele>959.00000</ele>
        <time>2009-07-31T11:02:29Z</time>
      </trkpt>
      <trkpt lat="43.37610280" lon="13.01442480">
        <ele>959.00000</ele>
        <time>2009-07-31T11:02:31Z</time>
      </trkpt>
      <trkpt lat="43.37610180" lon="13.01446680">
        <ele>959.00000</ele>
        <time>2009-07-31T11:02:32Z</time>
      </trkpt>
      <trkpt lat="43.37608410" lon="13.01451900">
        <ele>959.00000</ele>
        <time>2009-07-31T11:02:34Z</time>
      </trkpt>
      <trkpt lat="43.37607100" lon="13.01456170">
        <ele>959.00000</ele>
        <time>2009-07-31T11:02:35Z</time>
      </trkpt>
      <trkpt lat="43.37608740" lon="13.01459910">
        <ele>958.00000</ele>
        <time>2009-07-31T11:02:36Z</time>
      </trkpt>
      <trkpt lat="43.37608310" lon="13.01464180">
        <ele>958.00000</ele>
        <time>2009-07-31T11:02:37Z</time>
      </trkpt>
      <trkpt lat="43.37606270" lon="13.01467950">
        <ele>958.00000</ele>
        <time>2009-07-31T11:02:39Z</time>
      </trkpt>
      <trkpt lat="43.37605420" lon="13.01472250">
        <ele>958.00000</ele>
        <time>2009-07-31T11:02:40Z</time>
      </trkpt>
      <trkpt lat="43.37605730" lon="13.01476650">
        <ele>958.00000</ele>
        <time>2009-07-31T11:02:41Z</time>
      </trkpt>
      <trkpt lat="43.37605070" lon="13.01480320">
        <ele>958.00000</ele>
        <time>2009-07-31T11:02:42Z</time>
      </trkpt>
      <trkpt lat="43.37604660" lon="13.01483000">
        <ele>958.00000</ele>
        <time>2009-07-31T11:02:43Z</time>
      </trkpt>
      <trkpt lat="43.37603610" lon="13.01486610">
        <ele>958.00000</ele>
        <time>2009-07-31T11:02:44Z</time>
      </trkpt>
      <trkpt lat="43.37601640" lon="13.01490890">
        <ele>958.00000</ele>
        <time>2009-07-31T11:02:46Z</time>
      </trkpt>
      <trkpt lat="43.37600400" lon="13.01495020">
        <ele>958.00000</ele>
        <time>2009-07-31T11:02:47Z</time>
      </trkpt>
      <trkpt lat="43.37599430" lon="13.01500060">
        <ele>958.00000</ele>
        <time>2009-07-31T11:02:49Z</time>
      </trkpt>
      <trkpt lat="43.37599940" lon="13.01504060">
        <ele>958.00000</ele>
        <time>2009-07-31T11:02:50Z</time>
      </trkpt>
      <trkpt lat="43.37598860" lon="13.01508400">
        <ele>958.00000</ele>
        <time>2009-07-31T11:02:51Z</time>
      </trkpt>
      <trkpt lat="43.37597350" lon="13.01512150">
        <ele>958.00000</ele>
        <time>2009-07-31T11:02:52Z</time>
      </trkpt>
      <trkpt lat="43.37596350" lon="13.01515540">
        <ele>958.00000</ele>
        <time>2009-07-31T11:02:53Z</time>
      </trkpt>
      <trkpt lat="43.37595550" lon="13.01519420">
        <ele>958.00000</ele>
        <time>2009-07-31T11:02:55Z</time>
      </trkpt>
      <trkpt lat="43.37594620" lon="13.01524330">
        <ele>958.00000</ele>
        <time>2009-07-31T11:02:56Z</time>
      </trkpt>
      <trkpt lat="43.37592740" lon="13.01526810">
        <ele>958.00000</ele>
        <time>2009-07-31T11:02:57Z</time>
      </trkpt>
      <trkpt lat="43.37591770" lon="13.01529840">
        <ele>958.00000</ele>
        <time>2009-07-31T11:02:58Z</time>
      </trkpt>
      <trkpt lat="43.37590320" lon="13.01534080">
        <ele>958.00000</ele>
        <time>2009-07-31T11:02:59Z</time>
      </trkpt>
      <trkpt lat="43.37589830" lon="13.01538390">
        <ele>958.00000</ele>
        <time>2009-07-31T11:03:01Z</time>
      </trkpt>
      <trkpt lat="43.37587980" lon="13.01541530">
        <ele>958.00000</ele>
        <time>2009-07-31T11:03:02Z</time>
      </trkpt>
      <trkpt lat="43.37586610" lon="13.01543790">
        <ele>954.00000</ele>
        <time>2009-07-31T11:03:03Z</time>
      </trkpt>
      <trkpt lat="43.37585120" lon="13.01546990">
        <ele>954.00000</ele>
        <time>2009-07-31T11:03:04Z</time>
      </trkpt>
      <trkpt lat="43.37583530" lon="13.01551360">
        <ele>954.00000</ele>
        <time>2009-07-31T11:03:05Z</time>
      </trkpt>
      <trkpt lat="43.37582240" lon="13.01555480">
        <ele>954.00000</ele>
        <time>2009-07-31T11:03:07Z</time>
      </trkpt>
      <trkpt lat="43.37577510" lon="13.01557430">
        <ele>954.00000</ele>
        <time>2009-07-31T11:03:09Z</time>
      </trkpt>
      <trkpt lat="43.37576070" lon="13.01561290">
        <ele>954.00000</ele>
        <time>2009-07-31T11:03:10Z</time>
      </trkpt>
      <trkpt lat="43.37574910" lon="13.01564640">
        <ele>954.00000</ele>
        <time>2009-07-31T11:03:11Z</time>
      </trkpt>
      <trkpt lat="43.37573780" lon="13.01567930">
        <ele>954.00000</ele>
        <time>2009-07-31T11:03:12Z</time>
      </trkpt>
      <trkpt lat="43.37572520" lon="13.01571220">
        <ele>954.00000</ele>
        <time>2009-07-31T11:03:13Z</time>
      </trkpt>
      <trkpt lat="43.37570870" lon="13.01574790">
        <ele>954.00000</ele>
        <time>2009-07-31T11:03:14Z</time>
      </trkpt>
      <trkpt lat="43.37569780" lon="13.01578000">
        <ele>954.00000</ele>
        <time>2009-07-31T11:03:15Z</time>
      </trkpt>
      <trkpt lat="43.37568130" lon="13.01580610">
        <ele>954.00000</ele>
        <time>2009-07-31T11:03:16Z</time>
      </trkpt>
      <trkpt lat="43.37566300" lon="13.01583210">
        <ele>954.00000</ele>
        <time>2009-07-31T11:03:17Z</time>
      </trkpt>
      <trkpt lat="43.37564570" lon="13.01586830">
        <ele>954.00000</ele>
        <time>2009-07-31T11:03:19Z</time>
      </trkpt>
      <trkpt lat="43.37562170" lon="13.01589660">
        <ele>954.00000</ele>
        <time>2009-07-31T11:03:20Z</time>
      </trkpt>
      <trkpt lat="43.37560820" lon="13.01591900">
        <ele>954.00000</ele>
        <time>2009-07-31T11:03:21Z</time>
      </trkpt>
      <trkpt lat="43.37559350" lon="13.01594110">
        <ele>954.00000</ele>
        <time>2009-07-31T11:03:22Z</time>
      </trkpt>
      <trkpt lat="43.37559300" lon="13.01597390">
        <ele>954.00000</ele>
        <time>2009-07-31T11:03:23Z</time>
      </trkpt>
      <trkpt lat="43.37557000" lon="13.01600450">
        <ele>954.00000</ele>
        <time>2009-07-31T11:03:24Z</time>
      </trkpt>
      <trkpt lat="43.37555460" lon="13.01603180">
        <ele>954.00000</ele>
        <time>2009-07-31T11:03:25Z</time>
      </trkpt>
      <trkpt lat="43.37554530" lon="13.01606680">
        <ele>954.00000</ele>
        <time>2009-07-31T11:03:26Z</time>
      </trkpt>
      <trkpt lat="43.37553610" lon="13.01610210">
        <ele>954.00000</ele>
        <time>2009-07-31T11:03:27Z</time>
      </trkpt>
      <trkpt lat="43.37552620" lon="13.01614170">
        <ele>954.00000</ele>
        <time>2009-07-31T11:03:28Z</time>
      </trkpt>
      <trkpt lat="43.37551500" lon="13.01616970">
        <ele>954.00000</ele>
        <time>2009-07-31T11:03:29Z</time>
      </trkpt>
      <trkpt lat="43.37549780" lon="13.01622130">
        <ele>954.00000</ele>
        <time>2009-07-31T11:03:31Z</time>
      </trkpt>
      <trkpt lat="43.37548130" lon="13.01624590">
        <ele>954.00000</ele>
        <time>2009-07-31T11:03:32Z</time>
      </trkpt>
      <trkpt lat="43.37545980" lon="13.01627540">
        <ele>952.00000</ele>
        <time>2009-07-31T11:03:33Z</time>
      </trkpt>
      <trkpt lat="43.37542340" lon="13.01630660">
        <ele>952.00000</ele>
        <time>2009-07-31T11:03:35Z</time>
      </trkpt>
      <trkpt lat="43.37541010" lon="13.01634930">
        <ele>944.00000</ele>
        <time>2009-07-31T11:03:36Z</time>
      </trkpt>
      <trkpt lat="43.37540210" lon="13.01638770">
        <ele>944.00000</ele>
        <time>2009-07-31T11:03:37Z</time>
      </trkpt>
      <trkpt lat="43.37539800" lon="13.01641630">
        <ele>944.00000</ele>
        <time>2009-07-31T11:03:38Z</time>
      </trkpt>
      <trkpt lat="43.37538830" lon="13.01645270">
        <ele>944.00000</ele>
        <time>2009-07-31T11:03:39Z</time>
      </trkpt>
      <trkpt lat="43.37537840" lon="13.01650400">
        <ele>944.00000</ele>
        <time>2009-07-31T11:03:41Z</time>
      </trkpt>
      <trkpt lat="43.37536320" lon="13.01654210">
        <ele>944.00000</ele>
        <time>2009-07-31T11:03:42Z</time>
      </trkpt>
      <trkpt lat="43.37534320" lon="13.01657860">
        <ele>944.00000</ele>
        <time>2009-07-31T11:03:43Z</time>
      </trkpt>
      <trkpt lat="43.37532020" lon="13.01661730">
        <ele>944.00000</ele>
        <time>2009-07-31T11:03:45Z</time>
      </trkpt>
      <trkpt lat="43.37531050" lon="13.01664890">
        <ele>944.00000</ele>
        <time>2009-07-31T11:03:46Z</time>
      </trkpt>
      <trkpt lat="43.37529080" lon="13.01667580">
        <ele>944.00000</ele>
        <time>2009-07-31T11:03:47Z</time>
      </trkpt>
      <trkpt lat="43.37527280" lon="13.01671780">
        <ele>944.00000</ele>
        <time>2009-07-31T11:03:48Z</time>
      </trkpt>
      <trkpt lat="43.37527170" lon="13.01675470">
        <ele>944.00000</ele>
        <time>2009-07-31T11:03:49Z</time>
      </trkpt>
      <trkpt lat="43.37525810" lon="13.01678850">
        <ele>944.00000</ele>
        <time>2009-07-31T11:03:51Z</time>
      </trkpt>
      <trkpt lat="43.37524870" lon="13.01681300">
        <ele>944.00000</ele>
        <time>2009-07-31T11:03:51Z</time>
      </trkpt>
      <trkpt lat="43.37525010" lon="13.01684560">
        <ele>944.00000</ele>
        <time>2009-07-31T11:03:52Z</time>
      </trkpt>
      <trkpt lat="43.37523760" lon="13.01687700">
        <ele>944.00000</ele>
        <time>2009-07-31T11:03:53Z</time>
      </trkpt>
      <trkpt lat="43.37521740" lon="13.01692010">
        <ele>944.00000</ele>
        <time>2009-07-31T11:03:55Z</time>
      </trkpt>
      <trkpt lat="43.37520150" lon="13.01695320">
        <ele>944.00000</ele>
        <time>2009-07-31T11:03:56Z</time>
      </trkpt>
      <trkpt lat="43.37517330" lon="13.01697390">
        <ele>944.00000</ele>
        <time>2009-07-31T11:03:57Z</time>
      </trkpt>
      <trkpt lat="43.37516840" lon="13.01699730">
        <ele>944.00000</ele>
        <time>2009-07-31T11:03:58Z</time>
      </trkpt>
      <trkpt lat="43.37515040" lon="13.01702930">
        <ele>944.00000</ele>
        <time>2009-07-31T11:03:59Z</time>
      </trkpt>
      <trkpt lat="43.37514630" lon="13.01705100">
        <ele>944.00000</ele>
        <time>2009-07-31T11:04:00Z</time>
      </trkpt>
      <trkpt lat="43.37513690" lon="13.01706970">
        <ele>944.00000</ele>
        <time>2009-07-31T11:04:01Z</time>
      </trkpt>
      <trkpt lat="43.37513690" lon="13.01709280">
        <ele>947.00000</ele>
        <time>2009-07-31T11:04:01Z</time>
      </trkpt>
      <trkpt lat="43.37512070" lon="13.01712450">
        <ele>947.00000</ele>
        <time>2009-07-31T11:04:02Z</time>
      </trkpt>
      <trkpt lat="43.37508660" lon="13.01715430">
        <ele>947.00000</ele>
        <time>2009-07-31T11:04:04Z</time>
      </trkpt>
      <trkpt lat="43.37505840" lon="13.01718850">
        <ele>947.00000</ele>
        <time>2009-07-31T11:04:05Z</time>
      </trkpt>
      <trkpt lat="43.37502290" lon="13.01726190">
        <ele>947.00000</ele>
        <time>2009-07-31T11:04:08Z</time>
      </trkpt>
      <trkpt lat="43.37500450" lon="13.01727540">
        <ele>947.00000</ele>
        <time>2009-07-31T11:04:09Z</time>
      </trkpt>
      <trkpt lat="43.37497970" lon="13.01729430">
        <ele>947.00000</ele>
        <time>2009-07-31T11:04:10Z</time>
      </trkpt>
      <trkpt lat="43.37494680" lon="13.01730630">
        <ele>947.00000</ele>
        <time>2009-07-31T11:04:11Z</time>
      </trkpt>
      <trkpt lat="43.37492040" lon="13.01733550">
        <ele>947.00000</ele>
        <time>2009-07-31T11:04:13Z</time>
      </trkpt>
      <trkpt lat="43.37489570" lon="13.01735260">
        <ele>947.00000</ele>
        <time>2009-07-31T11:04:14Z</time>
      </trkpt>
      <trkpt lat="43.37487350" lon="13.01736910">
        <ele>947.00000</ele>
        <time>2009-07-31T11:04:15Z</time>
      </trkpt>
      <trkpt lat="43.37485330" lon="13.01739010">
        <ele>947.00000</ele>
        <time>2009-07-31T11:04:16Z</time>
      </trkpt>
      <trkpt lat="43.37482520" lon="13.01739830">
        <ele>947.00000</ele>
        <time>2009-07-31T11:04:17Z</time>
      </trkpt>
      <trkpt lat="43.37479450" lon="13.01739080">
        <ele>947.00000</ele>
        <time>2009-07-31T11:04:18Z</time>
      </trkpt>
      <trkpt lat="43.37476080" lon="13.01739900">
        <ele>947.00000</ele>
        <time>2009-07-31T11:04:20Z</time>
      </trkpt>
      <trkpt lat="43.37472610" lon="13.01743610">
        <ele>947.00000</ele>
        <time>2009-07-31T11:04:21Z</time>
      </trkpt>
      <trkpt lat="43.37469900" lon="13.01744840">
        <ele>947.00000</ele>
        <time>2009-07-31T11:04:22Z</time>
      </trkpt>
      <trkpt lat="43.37467300" lon="13.01746170">
        <ele>947.00000</ele>
        <time>2009-07-31T11:04:24Z</time>
      </trkpt>
      <trkpt lat="43.37463840" lon="13.01746380">
        <ele>947.00000</ele>
        <time>2009-07-31T11:04:25Z</time>
      </trkpt>
      <trkpt lat="43.37461320" lon="13.01747300">
        <ele>947.00000</ele>
        <time>2009-07-31T11:04:26Z</time>
      </trkpt>
      <trkpt lat="43.37458650" lon="13.01750640">
        <ele>947.00000</ele>
        <time>2009-07-31T11:04:27Z</time>
      </trkpt>
      <trkpt lat="43.37458400" lon="13.01754110">
        <ele>947.00000</ele>
        <time>2009-07-31T11:04:28Z</time>
      </trkpt>
      <trkpt lat="43.37456860" lon="13.01756670">
        <ele>923.00000</ele>
        <time>2009-07-31T11:04:29Z</time>
      </trkpt>
      <trkpt lat="43.37454670" lon="13.01759030">
        <ele>923.00000</ele>
        <time>2009-07-31T11:04:31Z</time>
      </trkpt>
      <trkpt lat="43.37452900" lon="13.01762120">
        <ele>923.00000</ele>
        <time>2009-07-31T11:04:32Z</time>
      </trkpt>
      <trkpt lat="43.37452740" lon="13.01764220">
        <ele>923.00000</ele>
        <time>2009-07-31T11:04:32Z</time>
      </trkpt>
      <trkpt lat="43.37451510" lon="13.01766820">
        <ele>923.00000</ele>
        <time>2009-07-31T11:04:33Z</time>
      </trkpt>
      <trkpt lat="43.37450540" lon="13.01770710">
        <ele>923.00000</ele>
        <time>2009-07-31T11:04:34Z</time>
      </trkpt>
      <trkpt lat="43.37449920" lon="13.01774510">
        <ele>923.00000</ele>
        <time>2009-07-31T11:04:36Z</time>
      </trkpt>
      <trkpt lat="43.37449110" lon="13.01778190">
        <ele>923.00000</ele>
        <time>2009-07-31T11:04:37Z</time>
      </trkpt>
      <trkpt lat="43.37449950" lon="13.01780540">
        <ele>923.00000</ele>
        <time>2009-07-31T11:04:37Z</time>
      </trkpt>
      <trkpt lat="43.37450570" lon="13.01784640">
        <ele>923.00000</ele>
        <time>2009-07-31T11:04:39Z</time>
      </trkpt>
      <trkpt lat="43.37450990" lon="13.01789210">
        <ele>923.00000</ele>
        <time>2009-07-31T11:04:40Z</time>
      </trkpt>
      <trkpt lat="43.37449560" lon="13.01793390">
        <ele>925.00000</ele>
        <time>2009-07-31T11:04:41Z</time>
      </trkpt>
      <trkpt lat="43.37449160" lon="13.01797950">
        <ele>925.00000</ele>
        <time>2009-07-31T11:04:43Z</time>
      </trkpt>
      <trkpt lat="43.37447870" lon="13.01800930">
        <ele>925.00000</ele>
        <time>2009-07-31T11:04:44Z</time>
      </trkpt>
      <trkpt lat="43.37448770" lon="13.01805090">
        <ele>925.00000</ele>
        <time>2009-07-31T11:04:45Z</time>
      </trkpt>
      <trkpt lat="43.37449170" lon="13.01808410">
        <ele>925.00000</ele>
        <time>2009-07-31T11:04:46Z</time>
      </trkpt>
      <trkpt lat="43.37449180" lon="13.01811600">
        <ele>925.00000</ele>
        <time>2009-07-31T11:04:47Z</time>
      </trkpt>
      <trkpt lat="43.37448710" lon="13.01816000">
        <ele>925.00000</ele>
        <time>2009-07-31T11:04:48Z</time>
      </trkpt>
      <trkpt lat="43.37449280" lon="13.01819390">
        <ele>925.00000</ele>
        <time>2009-07-31T11:04:49Z</time>
      </trkpt>
      <trkpt lat="43.37449630" lon="13.01822860">
        <ele>925.00000</ele>
        <time>2009-07-31T11:04:50Z</time>
      </trkpt>
      <trkpt lat="43.37449100" lon="13.01826900">
        <ele>925.00000</ele>
        <time>2009-07-31T11:04:51Z</time>
      </trkpt>
      <trkpt lat="43.37448480" lon="13.01831580">
        <ele>925.00000</ele>
        <time>2009-07-31T11:04:53Z</time>
      </trkpt>
      <trkpt lat="43.37448480" lon="13.01836480">
        <ele>925.00000</ele>
        <time>2009-07-31T11:04:54Z</time>
      </trkpt>
      <trkpt lat="43.37447420" lon="13.01840720">
        <ele>925.00000</ele>
        <time>2009-07-31T11:04:55Z</time>
      </trkpt>
      <trkpt lat="43.37447020" lon="13.01844350">
        <ele>925.00000</ele>
        <time>2009-07-31T11:04:57Z</time>
      </trkpt>
      <trkpt lat="43.37446190" lon="13.01847890">
        <ele>925.00000</ele>
        <time>2009-07-31T11:04:58Z</time>
      </trkpt>
      <trkpt lat="43.37446070" lon="13.01851910">
        <ele>925.00000</ele>
        <time>2009-07-31T11:04:59Z</time>
      </trkpt>
      <trkpt lat="43.37446040" lon="13.01856690">
        <ele>925.00000</ele>
        <time>2009-07-31T11:05:00Z</time>
      </trkpt>
      <trkpt lat="43.37445980" lon="13.01860230">
        <ele>925.00000</ele>
        <time>2009-07-31T11:05:01Z</time>
      </trkpt>
      <trkpt lat="43.37446120" lon="13.01864220">
        <ele>925.00000</ele>
        <time>2009-07-31T11:05:02Z</time>
      </trkpt>
      <trkpt lat="43.37446100" lon="13.01868100">
        <ele>925.00000</ele>
        <time>2009-07-31T11:05:04Z</time>
      </trkpt>
      <trkpt lat="43.37445060" lon="13.01871610">
        <ele>925.00000</ele>
        <time>2009-07-31T11:05:05Z</time>
      </trkpt>
      <trkpt lat="43.37444170" lon="13.01875330">
        <ele>927.00000</ele>
        <time>2009-07-31T11:05:06Z</time>
      </trkpt>
      <trkpt lat="43.37443490" lon="13.01878890">
        <ele>927.00000</ele>
        <time>2009-07-31T11:05:07Z</time>
      </trkpt>
      <trkpt lat="43.37442470" lon="13.01882660">
        <ele>927.00000</ele>
        <time>2009-07-31T11:05:08Z</time>
      </trkpt>
      <trkpt lat="43.37443380" lon="13.01885900">
        <ele>927.00000</ele>
        <time>2009-07-31T11:05:09Z</time>
      </trkpt>
      <trkpt lat="43.37442180" lon="13.01889240">
        <ele>927.00000</ele>
        <time>2009-07-31T11:05:10Z</time>
      </trkpt>
      <trkpt lat="43.37441840" lon="13.01892960">
        <ele>927.00000</ele>
        <time>2009-07-31T11:05:11Z</time>
      </trkpt>
      <trkpt lat="43.37440430" lon="13.01896670">
        <ele>927.00000</ele>
        <time>2009-07-31T11:05:12Z</time>
      </trkpt>
      <trkpt lat="43.37440190" lon="13.01899510">
        <ele>927.00000</ele>
        <time>2009-07-31T11:05:13Z</time>
      </trkpt>
      <trkpt lat="43.37439760" lon="13.01902370">
        <ele>927.00000</ele>
        <time>2009-07-31T11:05:14Z</time>
      </trkpt>
      <trkpt lat="43.37440720" lon="13.01905680">
        <ele>927.00000</ele>
        <time>2009-07-31T11:05:15Z</time>
      </trkpt>
      <trkpt lat="43.37439760" lon="13.01908760">
        <ele>927.00000</ele>
        <time>2009-07-31T11:05:16Z</time>
      </trkpt>
      <trkpt lat="43.37438100" lon="13.01912720">
        <ele>927.00000</ele>
        <time>2009-07-31T11:05:17Z</time>
      </trkpt>
      <trkpt lat="43.37438200" lon="13.01915830">
        <ele>927.00000</ele>
        <time>2009-07-31T11:05:18Z</time>
      </trkpt>
      <trkpt lat="43.37438060" lon="13.01918500">
        <ele>927.00000</ele>
        <time>2009-07-31T11:05:19Z</time>
      </trkpt>
      <trkpt lat="43.37439810" lon="13.01922650">
        <ele>927.00000</ele>
        <time>2009-07-31T11:05:21Z</time>
      </trkpt>
      <trkpt lat="43.37437640" lon="13.01926230">
        <ele>927.00000</ele>
        <time>2009-07-31T11:05:22Z</time>
      </trkpt>
      <trkpt lat="43.37435350" lon="13.01931360">
        <ele>927.00000</ele>
        <time>2009-07-31T11:05:24Z</time>
      </trkpt>
      <trkpt lat="43.37434100" lon="13.01935640">
        <ele>927.00000</ele>
        <time>2009-07-31T11:05:25Z</time>
      </trkpt>
      <trkpt lat="43.37433900" lon="13.01938780">
        <ele>927.00000</ele>
        <time>2009-07-31T11:05:26Z</time>
      </trkpt>
      <trkpt lat="43.37433210" lon="13.01941140">
        <ele>927.00000</ele>
        <time>2009-07-31T11:05:27Z</time>
      </trkpt>
      <trkpt lat="43.37432190" lon="13.01946070">
        <ele>927.00000</ele>
        <time>2009-07-31T11:05:28Z</time>
      </trkpt>
      <trkpt lat="43.37433030" lon="13.01950160">
        <ele>927.00000</ele>
        <time>2009-07-31T11:05:29Z</time>
      </trkpt>
      <trkpt lat="43.37432630" lon="13.01954230">
        <ele>927.00000</ele>
        <time>2009-07-31T11:05:31Z</time>
      </trkpt>
      <trkpt lat="43.37431580" lon="13.01958230">
        <ele>927.00000</ele>
        <time>2009-07-31T11:05:32Z</time>
      </trkpt>
      <trkpt lat="43.37430070" lon="13.01961220">
        <ele>934.00000</ele>
        <time>2009-07-31T11:05:33Z</time>
      </trkpt>
      <trkpt lat="43.37429350" lon="13.01964460">
        <ele>934.00000</ele>
        <time>2009-07-31T11:05:34Z</time>
      </trkpt>
      <trkpt lat="43.37428240" lon="13.01967860">
        <ele>934.00000</ele>
        <time>2009-07-31T11:05:35Z</time>
      </trkpt>
      <trkpt lat="43.37427390" lon="13.01970990">
        <ele>934.00000</ele>
        <time>2009-07-31T11:05:36Z</time>
      </trkpt>
      <trkpt lat="43.37426520" lon="13.01975070">
        <ele>934.00000</ele>
        <time>2009-07-31T11:05:37Z</time>
      </trkpt>
      <trkpt lat="43.37426510" lon="13.01979260">
        <ele>934.00000</ele>
        <time>2009-07-31T11:05:38Z</time>
      </trkpt>
      <trkpt lat="43.37426130" lon="13.01983460">
        <ele>934.00000</ele>
        <time>2009-07-31T11:05:40Z</time>
      </trkpt>
      <trkpt lat="43.37425490" lon="13.01987460">
        <ele>934.00000</ele>
        <time>2009-07-31T11:05:41Z</time>
      </trkpt>
      <trkpt lat="43.37424510" lon="13.01992010">
        <ele>934.00000</ele>
        <time>2009-07-31T11:05:42Z</time>
      </trkpt>
      <trkpt lat="43.37422980" lon="13.01996280">
        <ele>934.00000</ele>
        <time>2009-07-31T11:05:44Z</time>
      </trkpt>
      <trkpt lat="43.37421710" lon="13.02001740">
        <ele>934.00000</ele>
        <time>2009-07-31T11:05:45Z</time>
      </trkpt>
      <trkpt lat="43.37420610" lon="13.02003210">
        <ele>934.00000</ele>
        <time>2009-07-31T11:05:46Z</time>
      </trkpt>
      <trkpt lat="43.37419860" lon="13.02006060">
        <ele>934.00000</ele>
        <time>2009-07-31T11:05:47Z</time>
      </trkpt>
      <trkpt lat="43.37418550" lon="13.02010180">
        <ele>934.00000</ele>
        <time>2009-07-31T11:05:48Z</time>
      </trkpt>
      <trkpt lat="43.37416830" lon="13.02016100">
        <ele>934.00000</ele>
        <time>2009-07-31T11:05:50Z</time>
      </trkpt>
      <trkpt lat="43.37415520" lon="13.02019170">
        <ele>934.00000</ele>
        <time>2009-07-31T11:05:51Z</time>
      </trkpt>
      <trkpt lat="43.37413960" lon="13.02021600">
        <ele>934.00000</ele>
        <time>2009-07-31T11:05:52Z</time>
      </trkpt>
      <trkpt lat="43.37413430" lon="13.02024760">
        <ele>934.00000</ele>
        <time>2009-07-31T11:05:53Z</time>
      </trkpt>
      <trkpt lat="43.37412800" lon="13.02028380">
        <ele>934.00000</ele>
        <time>2009-07-31T11:05:54Z</time>
      </trkpt>
      <trkpt lat="43.37413600" lon="13.02032380">
        <ele>934.00000</ele>
        <time>2009-07-31T11:05:55Z</time>
      </trkpt>
      <trkpt lat="43.37413330" lon="13.02035410">
        <ele>934.00000</ele>
        <time>2009-07-31T11:05:56Z</time>
      </trkpt>
      <trkpt lat="43.37412630" lon="13.02038340">
        <ele>934.00000</ele>
        <time>2009-07-31T11:05:57Z</time>
      </trkpt>
      <trkpt lat="43.37410950" lon="13.02042060">
        <ele>939.00000</ele>
        <time>2009-07-31T11:05:58Z</time>
      </trkpt>
      <trkpt lat="43.37409030" lon="13.02045850">
        <ele>939.00000</ele>
        <time>2009-07-31T11:05:59Z</time>
      </trkpt>
      <trkpt lat="43.37407340" lon="13.02048650">
        <ele>939.00000</ele>
        <time>2009-07-31T11:06:01Z</time>
      </trkpt>
      <trkpt lat="43.37404990" lon="13.02051310">
        <ele>939.00000</ele>
        <time>2009-07-31T11:06:02Z</time>
      </trkpt>
      <trkpt lat="43.37402750" lon="13.02054710">
        <ele>939.00000</ele>
        <time>2009-07-31T11:06:03Z</time>
      </trkpt>
      <trkpt lat="43.37400100" lon="13.02058220">
        <ele>939.00000</ele>
        <time>2009-07-31T11:06:05Z</time>
      </trkpt>
      <trkpt lat="43.37397770" lon="13.02060620">
        <ele>939.00000</ele>
        <time>2009-07-31T11:06:06Z</time>
      </trkpt>
      <trkpt lat="43.37395170" lon="13.02062140">
        <ele>939.00000</ele>
        <time>2009-07-31T11:06:07Z</time>
      </trkpt>
      <trkpt lat="43.37391990" lon="13.02065080">
        <ele>939.00000</ele>
        <time>2009-07-31T11:06:08Z</time>
      </trkpt>
      <trkpt lat="43.37389960" lon="13.02067550">
        <ele>939.00000</ele>
        <time>2009-07-31T11:06:09Z</time>
      </trkpt>
      <trkpt lat="43.37387750" lon="13.02069360">
        <ele>939.00000</ele>
        <time>2009-07-31T11:06:11Z</time>
      </trkpt>
      <trkpt lat="43.37385310" lon="13.02071970">
        <ele>939.00000</ele>
        <time>2009-07-31T11:06:12Z</time>
      </trkpt>
      <trkpt lat="43.37383180" lon="13.02074400">
        <ele>939.00000</ele>
        <time>2009-07-31T11:06:13Z</time>
      </trkpt>
      <trkpt lat="43.37380360" lon="13.02076770">
        <ele>939.00000</ele>
        <time>2009-07-31T11:06:14Z</time>
      </trkpt>
      <trkpt lat="43.37377760" lon="13.02078990">
        <ele>939.00000</ele>
        <time>2009-07-31T11:06:15Z</time>
      </trkpt>
      <trkpt lat="43.37375620" lon="13.02080410">
        <ele>939.00000</ele>
        <time>2009-07-31T11:06:16Z</time>
      </trkpt>
      <trkpt lat="43.37372770" lon="13.02081220">
        <ele>933.00000</ele>
        <time>2009-07-31T11:06:18Z</time>
      </trkpt>
      <trkpt lat="43.37369710" lon="13.02082460">
        <ele>933.00000</ele>
        <time>2009-07-31T11:06:19Z</time>
      </trkpt>
      <trkpt lat="43.37367870" lon="13.02082650">
        <ele>933.00000</ele>
        <time>2009-07-31T11:06:20Z</time>
      </trkpt>
      <trkpt lat="43.37365390" lon="13.02083310">
        <ele>933.00000</ele>
        <time>2009-07-31T11:06:21Z</time>
      </trkpt>
      <trkpt lat="43.37363000" lon="13.02084290">
        <ele>933.00000</ele>
        <time>2009-07-31T11:06:22Z</time>
      </trkpt>
      <trkpt lat="43.37360050" lon="13.02086160">
        <ele>933.00000</ele>
        <time>2009-07-31T11:06:23Z</time>
      </trkpt>
      <trkpt lat="43.37357020" lon="13.02087970">
        <ele>933.00000</ele>
        <time>2009-07-31T11:06:24Z</time>
      </trkpt>
      <trkpt lat="43.37354810" lon="13.02088810">
        <ele>933.00000</ele>
        <time>2009-07-31T11:06:25Z</time>
      </trkpt>
      <trkpt lat="43.37353740" lon="13.02090800">
        <ele>933.00000</ele>
        <time>2009-07-31T11:06:26Z</time>
      </trkpt>
      <trkpt lat="43.37351660" lon="13.02093250">
        <ele>933.00000</ele>
        <time>2009-07-31T11:06:27Z</time>
      </trkpt>
      <trkpt lat="43.37349530" lon="13.02094840">
        <ele>933.00000</ele>
        <time>2009-07-31T11:06:28Z</time>
      </trkpt>
      <trkpt lat="43.37348200" lon="13.02096060">
        <ele>933.00000</ele>
        <time>2009-07-31T11:06:29Z</time>
      </trkpt>
      <trkpt lat="43.37346540" lon="13.02096580">
        <ele>933.00000</ele>
        <time>2009-07-31T11:06:29Z</time>
      </trkpt>
      <trkpt lat="43.37344230" lon="13.02098980">
        <ele>933.00000</ele>
        <time>2009-07-31T11:06:30Z</time>
      </trkpt>
      <trkpt lat="43.37342740" lon="13.02100050">
        <ele>933.00000</ele>
        <time>2009-07-31T11:06:31Z</time>
      </trkpt>
      <trkpt lat="43.37340430" lon="13.02102440">
        <ele>933.00000</ele>
        <time>2009-07-31T11:06:32Z</time>
      </trkpt>
      <trkpt lat="43.37337980" lon="13.02104210">
        <ele>933.00000</ele>
        <time>2009-07-31T11:06:33Z</time>
      </trkpt>
      <trkpt lat="43.37336480" lon="13.02105320">
        <ele>933.00000</ele>
        <time>2009-07-31T11:06:34Z</time>
      </trkpt>
      <trkpt lat="43.37334600" lon="13.02107490">
        <ele>933.00000</ele>
        <time>2009-07-31T11:06:35Z</time>
      </trkpt>
      <trkpt lat="43.37333030" lon="13.02108610">
        <ele>933.00000</ele>
        <time>2009-07-31T11:06:36Z</time>
      </trkpt>
      <trkpt lat="43.37331480" lon="13.02109470">
        <ele>933.00000</ele>
        <time>2009-07-31T11:06:36Z</time>
      </trkpt>
      <trkpt lat="43.37329170" lon="13.02110040">
        <ele>933.00000</ele>
        <time>2009-07-31T11:06:37Z</time>
      </trkpt>
      <trkpt lat="43.37327460" lon="13.02111240">
        <ele>933.00000</ele>
        <time>2009-07-31T11:06:38Z</time>
      </trkpt>
      <trkpt lat="43.37324910" lon="13.02114290">
        <ele>933.00000</ele>
        <time>2009-07-31T11:06:39Z</time>
      </trkpt>
      <trkpt lat="43.37322670" lon="13.02116000">
        <ele>933.00000</ele>
        <time>2009-07-31T11:06:40Z</time>
      </trkpt>
      <trkpt lat="43.37321120" lon="13.02117220">
        <ele>933.00000</ele>
        <time>2009-07-31T11:06:41Z</time>
      </trkpt>
      <trkpt lat="43.37318860" lon="13.02118900">
        <ele>933.00000</ele>
        <time>2009-07-31T11:06:42Z</time>
      </trkpt>
      <trkpt lat="43.37316370" lon="13.02120300">
        <ele>933.00000</ele>
        <time>2009-07-31T11:06:43Z</time>
      </trkpt>
      <trkpt lat="43.37315000" lon="13.02121360">
        <ele>933.00000</ele>
        <time>2009-07-31T11:06:44Z</time>
      </trkpt>
      <trkpt lat="43.37312460" lon="13.02123240">
        <ele>933.00000</ele>
        <time>2009-07-31T11:06:45Z</time>
      </trkpt>
      <trkpt lat="43.37310750" lon="13.02124280">
        <ele>933.00000</ele>
        <time>2009-07-31T11:06:46Z</time>
      </trkpt>
      <trkpt lat="43.37309550" lon="13.02124290">
        <ele>933.00000</ele>
        <time>2009-07-31T11:06:46Z</time>
      </trkpt>
      <trkpt lat="43.37308260" lon="13.02124050">
        <ele>933.00000</ele>
        <time>2009-07-31T11:06:47Z</time>
      </trkpt>
      <trkpt lat="43.37307900" lon="13.02123640">
        <ele>933.00000</ele>
        <time>2009-07-31T11:06:47Z</time>
      </trkpt>
      <trkpt lat="43.37308000" lon="13.02124350">
        <ele>933.00000</ele>
        <time>2009-07-31T11:06:47Z</time>
      </trkpt>
      <trkpt lat="43.37307920" lon="13.02124360">
        <ele>933.00000</ele>
        <time>2009-07-31T11:06:47Z</time>
      </trkpt>
      <trkpt lat="43.37307950" lon="13.02124340">
        <ele>933.00000</ele>
        <time>2009-07-31T11:06:47Z</time>
      </trkpt>
      <trkpt lat="43.37308030" lon="13.02124300">
        <ele>933.00000</ele>
        <time>2009-07-31T11:06:47Z</time>
      </trkpt>
      <trkpt lat="43.37308130" lon="13.02124180">
        <ele>933.00000</ele>
        <time>2009-07-31T11:06:47Z</time>
      </trkpt>
      <trkpt lat="43.37307800" lon="13.02123550">
        <ele>933.00000</ele>
        <time>2009-07-31T11:06:47Z</time>
      </trkpt>
      <trkpt lat="43.37307140" lon="13.02121540">
        <ele>933.00000</ele>
        <time>2009-07-31T11:06:48Z</time>
      </trkpt>
      <trkpt lat="43.37306090" lon="13.02120110">
        <ele>933.00000</ele>
        <time>2009-07-31T11:06:49Z</time>
      </trkpt>
      <trkpt lat="43.37305160" lon="13.02118650">
        <ele>933.00000</ele>
        <time>2009-07-31T11:06:49Z</time>
      </trkpt>
      <trkpt lat="43.37304610" lon="13.02117400">
        <ele>933.00000</ele>
        <time>2009-07-31T11:06:50Z</time>
      </trkpt>
      <trkpt lat="43.37304440" lon="13.02116450">
        <ele>933.00000</ele>
        <time>2009-07-31T11:06:50Z</time>
      </trkpt>
      <trkpt lat="43.37303790" lon="13.02116170">
        <ele>933.00000</ele>
        <time>2009-07-31T11:06:50Z</time>
      </trkpt>
      <trkpt lat="43.37303530" lon="13.02116450">
        <ele>933.00000</ele>
        <time>2009-07-31T11:06:50Z</time>
      </trkpt>
      <trkpt lat="43.37303420" lon="13.02116520">
        <ele>933.00000</ele>
        <time>2009-07-31T11:06:50Z</time>
      </trkpt>
      <trkpt lat="43.37303340" lon="13.02116510">
        <ele>933.00000</ele>
        <time>2009-07-31T11:06:50Z</time>
      </trkpt>
      <trkpt lat="43.37303150" lon="13.02116560">
        <ele>933.00000</ele>
        <time>2009-07-31T11:06:51Z</time>
      </trkpt>
      <trkpt lat="43.37302960" lon="13.02116630">
        <ele>933.00000</ele>
        <time>2009-07-31T11:06:51Z</time>
      </trkpt>
      <trkpt lat="43.37303010" lon="13.02116550">
        <ele>933.00000</ele>
        <time>2009-07-31T11:06:51Z</time>
      </trkpt>
      <trkpt lat="43.37302860" lon="13.02116680">
        <ele>933.00000</ele>
        <time>2009-07-31T11:06:51Z</time>
      </trkpt>
      <trkpt lat="43.37303730" lon="13.02117880">
        <ele>933.00000</ele>
        <time>2009-07-31T11:06:51Z</time>
      </trkpt>
      <trkpt lat="43.37304010" lon="13.02117580">
        <ele>933.00000</ele>
        <time>2009-07-31T11:06:51Z</time>
      </trkpt>
      <trkpt lat="43.37303770" lon="13.02117830">
        <ele>933.00000</ele>
        <time>2009-07-31T11:06:52Z</time>
      </trkpt>
      <trkpt lat="43.37303850" lon="13.02117800">
        <ele>933.00000</ele>
        <time>2009-07-31T11:06:52Z</time>
      </trkpt>
      <trkpt lat="43.37303910" lon="13.02117770">
        <ele>933.00000</ele>
        <time>2009-07-31T11:06:52Z</time>
      </trkpt>
      <trkpt lat="43.37304980" lon="13.02119910">
        <ele>933.00000</ele>
        <time>2009-07-31T11:06:52Z</time>
      </trkpt>
      <trkpt lat="43.37305890" lon="13.02121830">
        <ele>933.00000</ele>
        <time>2009-07-31T11:06:53Z</time>
      </trkpt>
      <trkpt lat="43.37306220" lon="13.02125120">
        <ele>941.00000</ele>
        <time>2009-07-31T11:06:54Z</time>
      </trkpt>
      <trkpt lat="43.37306020" lon="13.02127020">
        <ele>941.00000</ele>
        <time>2009-07-31T11:06:55Z</time>
      </trkpt>
      <trkpt lat="43.37305310" lon="13.02129930">
        <ele>941.00000</ele>
        <time>2009-07-31T11:06:55Z</time>
      </trkpt>
      <trkpt lat="43.37303010" lon="13.02131760">
        <ele>941.00000</ele>
        <time>2009-07-31T11:06:56Z</time>
      </trkpt>
      <trkpt lat="43.37301540" lon="13.02133530">
        <ele>941.00000</ele>
        <time>2009-07-31T11:06:57Z</time>
      </trkpt>
      <trkpt lat="43.37299990" lon="13.02134200">
        <ele>941.00000</ele>
        <time>2009-07-31T11:06:58Z</time>
      </trkpt>
      <trkpt lat="43.37298050" lon="13.02135900">
        <ele>941.00000</ele>
        <time>2009-07-31T11:06:59Z</time>
      </trkpt>
      <trkpt lat="43.37296340" lon="13.02135400">
        <ele>941.00000</ele>
        <time>2009-07-31T11:07:00Z</time>
      </trkpt>
      <trkpt lat="43.37295620" lon="13.02137360">
        <ele>941.00000</ele>
        <time>2009-07-31T11:07:00Z</time>
      </trkpt>
      <trkpt lat="43.37294430" lon="13.02139430">
        <ele>941.00000</ele>
        <time>2009-07-31T11:07:01Z</time>
      </trkpt>
      <trkpt lat="43.37292590" lon="13.02140700">
        <ele>941.00000</ele>
        <time>2009-07-31T11:07:02Z</time>
      </trkpt>
      <trkpt lat="43.37290820" lon="13.02142190">
        <ele>944.00000</ele>
        <time>2009-07-31T11:07:03Z</time>
      </trkpt>
      <trkpt lat="43.37289360" lon="13.02143570">
        <ele>944.00000</ele>
        <time>2009-07-31T11:07:03Z</time>
      </trkpt>
      <trkpt lat="43.37287020" lon="13.02145730">
        <ele>944.00000</ele>
        <time>2009-07-31T11:07:04Z</time>
      </trkpt>
      <trkpt lat="43.37284900" lon="13.02146930">
        <ele>944.00000</ele>
        <time>2009-07-31T11:07:05Z</time>
      </trkpt>
      <trkpt lat="43.37282400" lon="13.02148330">
        <ele>944.00000</ele>
        <time>2009-07-31T11:07:06Z</time>
      </trkpt>
      <trkpt lat="43.37280360" lon="13.02150250">
        <ele>944.00000</ele>
        <time>2009-07-31T11:07:07Z</time>
      </trkpt>
      <trkpt lat="43.37277830" lon="13.02151880">
        <ele>944.00000</ele>
        <time>2009-07-31T11:07:09Z</time>
      </trkpt>
      <trkpt lat="43.37275930" lon="13.02153890">
        <ele>944.00000</ele>
        <time>2009-07-31T11:07:09Z</time>
      </trkpt>
      <trkpt lat="43.37273810" lon="13.02155930">
        <ele>944.00000</ele>
        <time>2009-07-31T11:07:11Z</time>
      </trkpt>
      <trkpt lat="43.37271840" lon="13.02157990">
        <ele>944.00000</ele>
        <time>2009-07-31T11:07:12Z</time>
      </trkpt>
      <trkpt lat="43.37269990" lon="13.02159790">
        <ele>944.00000</ele>
        <time>2009-07-31T11:07:12Z</time>
      </trkpt>
      <trkpt lat="43.37268770" lon="13.02160110">
        <ele>944.00000</ele>
        <time>2009-07-31T11:07:13Z</time>
      </trkpt>
      <trkpt lat="43.37266780" lon="13.02161700">
        <ele>944.00000</ele>
        <time>2009-07-31T11:07:14Z</time>
      </trkpt>
      <trkpt lat="43.37264270" lon="13.02163750">
        <ele>944.00000</ele>
        <time>2009-07-31T11:07:15Z</time>
      </trkpt>
      <trkpt lat="43.37262620" lon="13.02165320">
        <ele>944.00000</ele>
        <time>2009-07-31T11:07:16Z</time>
      </trkpt>
      <trkpt lat="43.37260600" lon="13.02167540">
        <ele>944.00000</ele>
        <time>2009-07-31T11:07:17Z</time>
      </trkpt>
      <trkpt lat="43.37258290" lon="13.02169990">
        <ele>944.00000</ele>
        <time>2009-07-31T11:07:18Z</time>
      </trkpt>
      <trkpt lat="43.37255820" lon="13.02172030">
        <ele>944.00000</ele>
        <time>2009-07-31T11:07:19Z</time>
      </trkpt>
      <trkpt lat="43.37254380" lon="13.02172940">
        <ele>944.00000</ele>
        <time>2009-07-31T11:07:20Z</time>
      </trkpt>
      <trkpt lat="43.37252160" lon="13.02175160">
        <ele>944.00000</ele>
        <time>2009-07-31T11:07:21Z</time>
      </trkpt>
      <trkpt lat="43.37249620" lon="13.02177220">
        <ele>944.00000</ele>
        <time>2009-07-31T11:07:22Z</time>
      </trkpt>
      <trkpt lat="43.37248280" lon="13.02178950">
        <ele>944.00000</ele>
        <time>2009-07-31T11:07:23Z</time>
      </trkpt>
      <trkpt lat="43.37246340" lon="13.02180580">
        <ele>944.00000</ele>
        <time>2009-07-31T11:07:24Z</time>
      </trkpt>
      <trkpt lat="43.37244270" lon="13.02180870">
        <ele>944.00000</ele>
        <time>2009-07-31T11:07:25Z</time>
      </trkpt>
      <trkpt lat="43.37242300" lon="13.02182320">
        <ele>944.00000</ele>
        <time>2009-07-31T11:07:25Z</time>
      </trkpt>
      <trkpt lat="43.37240070" lon="13.02184280">
        <ele>944.00000</ele>
        <time>2009-07-31T11:07:27Z</time>
      </trkpt>
      <trkpt lat="43.37238310" lon="13.02187240">
        <ele>944.00000</ele>
        <time>2009-07-31T11:07:28Z</time>
      </trkpt>
      <trkpt lat="43.37236730" lon="13.02188500">
        <ele>944.00000</ele>
        <time>2009-07-31T11:07:28Z</time>
      </trkpt>
      <trkpt lat="43.37235570" lon="13.02189990">
        <ele>944.00000</ele>
        <time>2009-07-31T11:07:29Z</time>
      </trkpt>
      <trkpt lat="43.37235360" lon="13.02190940">
        <ele>944.00000</ele>
        <time>2009-07-31T11:07:29Z</time>
      </trkpt>
      <trkpt lat="43.37234830" lon="13.02191080">
        <ele>944.00000</ele>
        <time>2009-07-31T11:07:29Z</time>
      </trkpt>
      <trkpt lat="43.37233880" lon="13.02192450">
        <ele>944.00000</ele>
        <time>2009-07-31T11:07:30Z</time>
      </trkpt>
      <trkpt lat="43.37231950" lon="13.02193910">
        <ele>944.00000</ele>
        <time>2009-07-31T11:07:31Z</time>
      </trkpt>
      <trkpt lat="43.37230950" lon="13.02194330">
        <ele>944.00000</ele>
        <time>2009-07-31T11:07:31Z</time>
      </trkpt>
      <trkpt lat="43.37228740" lon="13.02196630">
        <ele>944.00000</ele>
        <time>2009-07-31T11:07:32Z</time>
      </trkpt>
      <trkpt lat="43.37226270" lon="13.02197770">
        <ele>944.00000</ele>
        <time>2009-07-31T11:07:33Z</time>
      </trkpt>
      <trkpt lat="43.37224300" lon="13.02198670">
        <ele>944.00000</ele>
        <time>2009-07-31T11:07:34Z</time>
      </trkpt>
      <trkpt lat="43.37222430" lon="13.02200640">
        <ele>944.00000</ele>
        <time>2009-07-31T11:07:35Z</time>
      </trkpt>
      <trkpt lat="43.37220000" lon="13.02203020">
        <ele>944.00000</ele>
        <time>2009-07-31T11:07:36Z</time>
      </trkpt>
      <trkpt lat="43.37217560" lon="13.02204380">
        <ele>944.00000</ele>
        <time>2009-07-31T11:07:38Z</time>
      </trkpt>
      <trkpt lat="43.37214980" lon="13.02206310">
        <ele>944.00000</ele>
        <time>2009-07-31T11:07:39Z</time>
      </trkpt>
      <trkpt lat="43.37213330" lon="13.02207400">
        <ele>944.00000</ele>
        <time>2009-07-31T11:07:39Z</time>
      </trkpt>
      <trkpt lat="43.37211510" lon="13.02209310">
        <ele>947.00000</ele>
        <time>2009-07-31T11:07:40Z</time>
      </trkpt>
      <trkpt lat="43.37208970" lon="13.02211390">
        <ele>947.00000</ele>
        <time>2009-07-31T11:07:42Z</time>
      </trkpt>
      <trkpt lat="43.37206990" lon="13.02213890">
        <ele>952.00000</ele>
        <time>2009-07-31T11:07:43Z</time>
      </trkpt>
      <trkpt lat="43.37205340" lon="13.02216350">
        <ele>952.00000</ele>
        <time>2009-07-31T11:07:44Z</time>
      </trkpt>
      <trkpt lat="43.37203520" lon="13.02218620">
        <ele>952.00000</ele>
        <time>2009-07-31T11:07:45Z</time>
      </trkpt>
      <trkpt lat="43.37201470" lon="13.02220070">
        <ele>952.00000</ele>
        <time>2009-07-31T11:07:45Z</time>
      </trkpt>
      <trkpt lat="43.37199920" lon="13.02221570">
        <ele>952.00000</ele>
        <time>2009-07-31T11:07:46Z</time>
      </trkpt>
      <trkpt lat="43.37197670" lon="13.02224230">
        <ele>952.00000</ele>
        <time>2009-07-31T11:07:47Z</time>
      </trkpt>
      <trkpt lat="43.37196190" lon="13.02226010">
        <ele>952.00000</ele>
        <time>2009-07-31T11:07:48Z</time>
      </trkpt>
      <trkpt lat="43.37194670" lon="13.02227680">
        <ele>952.00000</ele>
        <time>2009-07-31T11:07:49Z</time>
      </trkpt>
      <trkpt lat="43.37192620" lon="13.02231060">
        <ele>952.00000</ele>
        <time>2009-07-31T11:07:50Z</time>
      </trkpt>
      <trkpt lat="43.37191420" lon="13.02232630">
        <ele>952.00000</ele>
        <time>2009-07-31T11:07:51Z</time>
      </trkpt>
      <trkpt lat="43.37189350" lon="13.02236040">
        <ele>952.00000</ele>
        <time>2009-07-31T11:07:52Z</time>
      </trkpt>
      <trkpt lat="43.37187750" lon="13.02239230">
        <ele>952.00000</ele>
        <time>2009-07-31T11:07:53Z</time>
      </trkpt>
      <trkpt lat="43.37187070" lon="13.02241160">
        <ele>952.00000</ele>
        <time>2009-07-31T11:07:54Z</time>
      </trkpt>
      <trkpt lat="43.37185670" lon="13.02243150">
        <ele>952.00000</ele>
        <time>2009-07-31T11:07:55Z</time>
      </trkpt>
      <trkpt lat="43.37184170" lon="13.02244570">
        <ele>952.00000</ele>
        <time>2009-07-31T11:07:56Z</time>
      </trkpt>
      <trkpt lat="43.37183110" lon="13.02246200">
        <ele>952.00000</ele>
        <time>2009-07-31T11:07:56Z</time>
      </trkpt>
      <trkpt lat="43.37181560" lon="13.02247260">
        <ele>952.00000</ele>
        <time>2009-07-31T11:07:57Z</time>
      </trkpt>
      <trkpt lat="43.37179460" lon="13.02250500">
        <ele>952.00000</ele>
        <time>2009-07-31T11:07:58Z</time>
      </trkpt>
      <trkpt lat="43.37177230" lon="13.02253080">
        <ele>952.00000</ele>
        <time>2009-07-31T11:07:59Z</time>
      </trkpt>
      <trkpt lat="43.37174790" lon="13.02255870">
        <ele>952.00000</ele>
        <time>2009-07-31T11:08:01Z</time>
      </trkpt>
      <trkpt lat="43.37173280" lon="13.02257990">
        <ele>952.00000</ele>
        <time>2009-07-31T11:08:01Z</time>
      </trkpt>
      <trkpt lat="43.37172390" lon="13.02259940">
        <ele>952.00000</ele>
        <time>2009-07-31T11:08:02Z</time>
      </trkpt>
      <trkpt lat="43.37170130" lon="13.02262430">
        <ele>952.00000</ele>
        <time>2009-07-31T11:08:03Z</time>
      </trkpt>
      <trkpt lat="43.37169280" lon="13.02264240">
        <ele>952.00000</ele>
        <time>2009-07-31T11:08:04Z</time>
      </trkpt>
      <trkpt lat="43.37168200" lon="13.02266810">
        <ele>952.00000</ele>
        <time>2009-07-31T11:08:05Z</time>
      </trkpt>
      <trkpt lat="43.37167160" lon="13.02269640">
        <ele>952.00000</ele>
        <time>2009-07-31T11:08:06Z</time>
      </trkpt>
      <trkpt lat="43.37165600" lon="13.02272580">
        <ele>952.00000</ele>
        <time>2009-07-31T11:08:07Z</time>
      </trkpt>
      <trkpt lat="43.37164580" lon="13.02275560">
        <ele>952.00000</ele>
        <time>2009-07-31T11:08:08Z</time>
      </trkpt>
      <trkpt lat="43.37162590" lon="13.02279240">
        <ele>952.00000</ele>
        <time>2009-07-31T11:08:09Z</time>
      </trkpt>
      <trkpt lat="43.37161020" lon="13.02282020">
        <ele>952.00000</ele>
        <time>2009-07-31T11:08:10Z</time>
      </trkpt>
      <trkpt lat="43.37158030" lon="13.02285510">
        <ele>952.00000</ele>
        <time>2009-07-31T11:08:12Z</time>
      </trkpt>
      <trkpt lat="43.37155470" lon="13.02288380">
        <ele>952.00000</ele>
        <time>2009-07-31T11:08:13Z</time>
      </trkpt>
      <trkpt lat="43.37153290" lon="13.02291510">
        <ele>952.00000</ele>
        <time>2009-07-31T11:08:14Z</time>
      </trkpt>
      <trkpt lat="43.37150810" lon="13.02293810">
        <ele>949.00000</ele>
        <time>2009-07-31T11:08:15Z</time>
      </trkpt>
      <trkpt lat="43.37148640" lon="13.02296220">
        <ele>949.00000</ele>
        <time>2009-07-31T11:08:16Z</time>
      </trkpt>
      <trkpt lat="43.37144990" lon="13.02298140">
        <ele>949.00000</ele>
        <time>2009-07-31T11:08:18Z</time>
      </trkpt>
      <trkpt lat="43.37142670" lon="13.02300540">
        <ele>949.00000</ele>
        <time>2009-07-31T11:08:19Z</time>
      </trkpt>
      <trkpt lat="43.37141020" lon="13.02302400">
        <ele>949.00000</ele>
        <time>2009-07-31T11:08:20Z</time>
      </trkpt>
      <trkpt lat="43.37139400" lon="13.02304210">
        <ele>949.00000</ele>
        <time>2009-07-31T11:08:21Z</time>
      </trkpt>
      <trkpt lat="43.37137170" lon="13.02304940">
        <ele>949.00000</ele>
        <time>2009-07-31T11:08:22Z</time>
      </trkpt>
      <trkpt lat="43.37135400" lon="13.02306480">
        <ele>949.00000</ele>
        <time>2009-07-31T11:08:23Z</time>
      </trkpt>
      <trkpt lat="43.37133030" lon="13.02308750">
        <ele>949.00000</ele>
        <time>2009-07-31T11:08:24Z</time>
      </trkpt>
      <trkpt lat="43.37130530" lon="13.02311050">
        <ele>949.00000</ele>
        <time>2009-07-31T11:08:25Z</time>
      </trkpt>
      <trkpt lat="43.37128280" lon="13.02311900">
        <ele>949.00000</ele>
        <time>2009-07-31T11:08:26Z</time>
      </trkpt>
      <trkpt lat="43.37126620" lon="13.02312830">
        <ele>949.00000</ele>
        <time>2009-07-31T11:08:27Z</time>
      </trkpt>
      <trkpt lat="43.37124510" lon="13.02313050">
        <ele>946.00000</ele>
        <time>2009-07-31T11:08:28Z</time>
      </trkpt>
      <trkpt lat="43.37122730" lon="13.02313580">
        <ele>946.00000</ele>
        <time>2009-07-31T11:08:28Z</time>
      </trkpt>
      <trkpt lat="43.37119550" lon="13.02314110">
        <ele>946.00000</ele>
        <time>2009-07-31T11:08:30Z</time>
      </trkpt>
      <trkpt lat="43.37116530" lon="13.02314310">
        <ele>946.00000</ele>
        <time>2009-07-31T11:08:31Z</time>
      </trkpt>
      <trkpt lat="43.37113870" lon="13.02314170">
        <ele>946.00000</ele>
        <time>2009-07-31T11:08:32Z</time>
      </trkpt>
      <trkpt lat="43.37111620" lon="13.02313920">
        <ele>946.00000</ele>
        <time>2009-07-31T11:08:33Z</time>
      </trkpt>
      <trkpt lat="43.37109790" lon="13.02314460">
        <ele>946.00000</ele>
        <time>2009-07-31T11:08:33Z</time>
      </trkpt>
      <trkpt lat="43.37107300" lon="13.02313790">
        <ele>946.00000</ele>
        <time>2009-07-31T11:08:34Z</time>
      </trkpt>
      <trkpt lat="43.37104750" lon="13.02314370">
        <ele>946.00000</ele>
        <time>2009-07-31T11:08:36Z</time>
      </trkpt>
      <trkpt lat="43.37101890" lon="13.02316390">
        <ele>946.00000</ele>
        <time>2009-07-31T11:08:37Z</time>
      </trkpt>
      <trkpt lat="43.37099840" lon="13.02316930">
        <ele>946.00000</ele>
        <time>2009-07-31T11:08:38Z</time>
      </trkpt>
      <trkpt lat="43.37097290" lon="13.02318060">
        <ele>946.00000</ele>
        <time>2009-07-31T11:08:39Z</time>
      </trkpt>
      <trkpt lat="43.37094530" lon="13.02318490">
        <ele>946.00000</ele>
        <time>2009-07-31T11:08:40Z</time>
      </trkpt>
      <trkpt lat="43.37092140" lon="13.02320260">
        <ele>946.00000</ele>
        <time>2009-07-31T11:08:41Z</time>
      </trkpt>
      <trkpt lat="43.37089550" lon="13.02322140">
        <ele>946.00000</ele>
        <time>2009-07-31T11:08:42Z</time>
      </trkpt>
      <trkpt lat="43.37086880" lon="13.02321140">
        <ele>946.00000</ele>
        <time>2009-07-31T11:08:43Z</time>
      </trkpt>
      <trkpt lat="43.37084280" lon="13.02322620">
        <ele>946.00000</ele>
        <time>2009-07-31T11:08:44Z</time>
      </trkpt>
      <trkpt lat="43.37082470" lon="13.02322750">
        <ele>946.00000</ele>
        <time>2009-07-31T11:08:45Z</time>
      </trkpt>
      <trkpt lat="43.37080730" lon="13.02322600">
        <ele>946.00000</ele>
        <time>2009-07-31T11:08:46Z</time>
      </trkpt>
      <trkpt lat="43.37078960" lon="13.02322940">
        <ele>946.00000</ele>
        <time>2009-07-31T11:08:46Z</time>
      </trkpt>
      <trkpt lat="43.37076400" lon="13.02322650">
        <ele>946.00000</ele>
        <time>2009-07-31T11:08:47Z</time>
      </trkpt>
      <trkpt lat="43.37074400" lon="13.02323240">
        <ele>946.00000</ele>
        <time>2009-07-31T11:08:48Z</time>
      </trkpt>
      <trkpt lat="43.37071850" lon="13.02324740">
        <ele>946.00000</ele>
        <time>2009-07-31T11:08:49Z</time>
      </trkpt>
      <trkpt lat="43.37069690" lon="13.02323230">
        <ele>946.00000</ele>
        <time>2009-07-31T11:08:50Z</time>
      </trkpt>
      <trkpt lat="43.37067210" lon="13.02323200">
        <ele>946.00000</ele>
        <time>2009-07-31T11:08:51Z</time>
      </trkpt>
      <trkpt lat="43.37064710" lon="13.02323870">
        <ele>946.00000</ele>
        <time>2009-07-31T11:08:52Z</time>
      </trkpt>
      <trkpt lat="43.37062200" lon="13.02324490">
        <ele>946.00000</ele>
        <time>2009-07-31T11:08:53Z</time>
      </trkpt>
      <trkpt lat="43.37059480" lon="13.02324860">
        <ele>946.00000</ele>
        <time>2009-07-31T11:08:55Z</time>
      </trkpt>
      <trkpt lat="43.37056460" lon="13.02325620">
        <ele>946.00000</ele>
        <time>2009-07-31T11:08:56Z</time>
      </trkpt>
      <trkpt lat="43.37053940" lon="13.02326320">
        <ele>946.00000</ele>
        <time>2009-07-31T11:08:57Z</time>
      </trkpt>
      <trkpt lat="43.37051630" lon="13.02326810">
        <ele>946.00000</ele>
        <time>2009-07-31T11:08:58Z</time>
      </trkpt>
      <trkpt lat="43.37047630" lon="13.02329130">
        <ele>946.00000</ele>
        <time>2009-07-31T11:08:59Z</time>
      </trkpt>
      <trkpt lat="43.37045260" lon="13.02330500">
        <ele>946.00000</ele>
        <time>2009-07-31T11:09:00Z</time>
      </trkpt>
      <trkpt lat="43.37042520" lon="13.02332550">
        <ele>946.00000</ele>
        <time>2009-07-31T11:09:02Z</time>
      </trkpt>
      <trkpt lat="43.37039800" lon="13.02332660">
        <ele>953.00000</ele>
        <time>2009-07-31T11:09:03Z</time>
      </trkpt>
      <trkpt lat="43.37037030" lon="13.02332450">
        <ele>953.00000</ele>
        <time>2009-07-31T11:09:04Z</time>
      </trkpt>
      <trkpt lat="43.37034680" lon="13.02333990">
        <ele>953.00000</ele>
        <time>2009-07-31T11:09:05Z</time>
      </trkpt>
      <trkpt lat="43.37031840" lon="13.02335410">
        <ele>953.00000</ele>
        <time>2009-07-31T11:09:06Z</time>
      </trkpt>
      <trkpt lat="43.37028620" lon="13.02334890">
        <ele>953.00000</ele>
        <time>2009-07-31T11:09:07Z</time>
      </trkpt>
      <trkpt lat="43.37025900" lon="13.02335580">
        <ele>953.00000</ele>
        <time>2009-07-31T11:09:09Z</time>
      </trkpt>
      <trkpt lat="43.37023490" lon="13.02335820">
        <ele>953.00000</ele>
        <time>2009-07-31T11:09:10Z</time>
      </trkpt>
      <trkpt lat="43.37020980" lon="13.02336170">
        <ele>953.00000</ele>
        <time>2009-07-31T11:09:11Z</time>
      </trkpt>
      <trkpt lat="43.37018110" lon="13.02337260">
        <ele>953.00000</ele>
        <time>2009-07-31T11:09:12Z</time>
      </trkpt>
      <trkpt lat="43.37015430" lon="13.02338320">
        <ele>953.00000</ele>
        <time>2009-07-31T11:09:13Z</time>
      </trkpt>
      <trkpt lat="43.37013460" lon="13.02340180">
        <ele>953.00000</ele>
        <time>2009-07-31T11:09:14Z</time>
      </trkpt>
      <trkpt lat="43.37011960" lon="13.02340000">
        <ele>953.00000</ele>
        <time>2009-07-31T11:09:14Z</time>
      </trkpt>
      <trkpt lat="43.37009410" lon="13.02339400">
        <ele>953.00000</ele>
        <time>2009-07-31T11:09:15Z</time>
      </trkpt>
      <trkpt lat="43.37006790" lon="13.02340400">
        <ele>953.00000</ele>
        <time>2009-07-31T11:09:17Z</time>
      </trkpt>
      <trkpt lat="43.37004800" lon="13.02340780">
        <ele>953.00000</ele>
        <time>2009-07-31T11:09:17Z</time>
      </trkpt>
      <trkpt lat="43.37002970" lon="13.02341270">
        <ele>953.00000</ele>
        <time>2009-07-31T11:09:18Z</time>
      </trkpt>
      <trkpt lat="43.37000170" lon="13.02343210">
        <ele>953.00000</ele>
        <time>2009-07-31T11:09:19Z</time>
      </trkpt>
      <trkpt lat="43.36997340" lon="13.02344250">
        <ele>953.00000</ele>
        <time>2009-07-31T11:09:21Z</time>
      </trkpt>
      <trkpt lat="43.36994540" lon="13.02345090">
        <ele>953.00000</ele>
        <time>2009-07-31T11:09:22Z</time>
      </trkpt>
      <trkpt lat="43.36993250" lon="13.02346950">
        <ele>953.00000</ele>
        <time>2009-07-31T11:09:22Z</time>
      </trkpt>
      <trkpt lat="43.36991100" lon="13.02347990">
        <ele>953.00000</ele>
        <time>2009-07-31T11:09:23Z</time>
      </trkpt>
      <trkpt lat="43.36987970" lon="13.02349120">
        <ele>953.00000</ele>
        <time>2009-07-31T11:09:25Z</time>
      </trkpt>
      <trkpt lat="43.36983880" lon="13.02353880">
        <ele>953.00000</ele>
        <time>2009-07-31T11:09:27Z</time>
      </trkpt>
      <trkpt lat="43.36981640" lon="13.02354120">
        <ele>953.00000</ele>
        <time>2009-07-31T11:09:28Z</time>
      </trkpt>
      <trkpt lat="43.36980190" lon="13.02354520">
        <ele>953.00000</ele>
        <time>2009-07-31T11:09:28Z</time>
      </trkpt>
      <trkpt lat="43.36977800" lon="13.02355320">
        <ele>953.00000</ele>
        <time>2009-07-31T11:09:29Z</time>
      </trkpt>
      <trkpt lat="43.36975710" lon="13.02356670">
        <ele>953.00000</ele>
        <time>2009-07-31T11:09:30Z</time>
      </trkpt>
      <trkpt lat="43.36973630" lon="13.02358530">
        <ele>953.00000</ele>
        <time>2009-07-31T11:09:31Z</time>
      </trkpt>
      <trkpt lat="43.36971150" lon="13.02360060">
        <ele>953.00000</ele>
        <time>2009-07-31T11:09:32Z</time>
      </trkpt>
      <trkpt lat="43.36968020" lon="13.02361610">
        <ele>953.00000</ele>
        <time>2009-07-31T11:09:34Z</time>
      </trkpt>
      <trkpt lat="43.36965140" lon="13.02363690">
        <ele>953.00000</ele>
        <time>2009-07-31T11:09:35Z</time>
      </trkpt>
      <trkpt lat="43.36963210" lon="13.02364870">
        <ele>953.00000</ele>
        <time>2009-07-31T11:09:36Z</time>
      </trkpt>
      <trkpt lat="43.36962120" lon="13.02364720">
        <ele>953.00000</ele>
        <time>2009-07-31T11:09:36Z</time>
      </trkpt>
      <trkpt lat="43.36959730" lon="13.02365810">
        <ele>953.00000</ele>
        <time>2009-07-31T11:09:37Z</time>
      </trkpt>
      <trkpt lat="43.36957460" lon="13.02367390">
        <ele>955.00000</ele>
        <time>2009-07-31T11:09:38Z</time>
      </trkpt>
      <trkpt lat="43.36954800" lon="13.02369500">
        <ele>955.00000</ele>
        <time>2009-07-31T11:09:39Z</time>
      </trkpt>
      <trkpt lat="43.36953510" lon="13.02371740">
        <ele>955.00000</ele>
        <time>2009-07-31T11:09:40Z</time>
      </trkpt>
      <trkpt lat="43.36950410" lon="13.02373950">
        <ele>955.00000</ele>
        <time>2009-07-31T11:09:42Z</time>
      </trkpt>
      <trkpt lat="43.36948100" lon="13.02375680">
        <ele>938.00000</ele>
        <time>2009-07-31T11:09:43Z</time>
      </trkpt>
      <trkpt lat="43.36946500" lon="13.02376600">
        <ele>938.00000</ele>
        <time>2009-07-31T11:09:43Z</time>
      </trkpt>
      <trkpt lat="43.36944170" lon="13.02378320">
        <ele>938.00000</ele>
        <time>2009-07-31T11:09:44Z</time>
      </trkpt>
      <trkpt lat="43.36941900" lon="13.02380390">
        <ele>938.00000</ele>
        <time>2009-07-31T11:09:46Z</time>
      </trkpt>
      <trkpt lat="43.36939190" lon="13.02380630">
        <ele>938.00000</ele>
        <time>2009-07-31T11:09:47Z</time>
      </trkpt>
      <trkpt lat="43.36937210" lon="13.02380950">
        <ele>938.00000</ele>
        <time>2009-07-31T11:09:47Z</time>
      </trkpt>
      <trkpt lat="43.36935550" lon="13.02379720">
        <ele>938.00000</ele>
        <time>2009-07-31T11:09:48Z</time>
      </trkpt>
      <trkpt lat="43.36934300" lon="13.02381400">
        <ele>938.00000</ele>
        <time>2009-07-31T11:09:49Z</time>
      </trkpt>
      <trkpt lat="43.36932330" lon="13.02382670">
        <ele>938.00000</ele>
        <time>2009-07-31T11:09:50Z</time>
      </trkpt>
      <trkpt lat="43.36929900" lon="13.02384250">
        <ele>938.00000</ele>
        <time>2009-07-31T11:09:51Z</time>
      </trkpt>
      <trkpt lat="43.36927930" lon="13.02386230">
        <ele>938.00000</ele>
        <time>2009-07-31T11:09:52Z</time>
      </trkpt>
      <trkpt lat="43.36925980" lon="13.02388080">
        <ele>938.00000</ele>
        <time>2009-07-31T11:09:53Z</time>
      </trkpt>
      <trkpt lat="43.36923960" lon="13.02389450">
        <ele>938.00000</ele>
        <time>2009-07-31T11:09:54Z</time>
      </trkpt>
      <trkpt lat="43.36922020" lon="13.02390420">
        <ele>938.00000</ele>
        <time>2009-07-31T11:09:54Z</time>
      </trkpt>
      <trkpt lat="43.36919660" lon="13.02391800">
        <ele>938.00000</ele>
        <time>2009-07-31T11:09:56Z</time>
      </trkpt>
      <trkpt lat="43.36917310" lon="13.02393570">
        <ele>938.00000</ele>
        <time>2009-07-31T11:09:57Z</time>
      </trkpt>
      <trkpt lat="43.36914630" lon="13.02395600">
        <ele>938.00000</ele>
        <time>2009-07-31T11:09:58Z</time>
      </trkpt>
      <trkpt lat="43.36912350" lon="13.02397130">
        <ele>938.00000</ele>
        <time>2009-07-31T11:09:59Z</time>
      </trkpt>
      <trkpt lat="43.36911120" lon="13.02395950">
        <ele>938.00000</ele>
        <time>2009-07-31T11:09:59Z</time>
      </trkpt>
      <trkpt lat="43.36908140" lon="13.02398550">
        <ele>938.00000</ele>
        <time>2009-07-31T11:10:01Z</time>
      </trkpt>
      <trkpt lat="43.36905240" lon="13.02401660">
        <ele>938.00000</ele>
        <time>2009-07-31T11:10:02Z</time>
      </trkpt>
      <trkpt lat="43.36902910" lon="13.02404030">
        <ele>938.00000</ele>
        <time>2009-07-31T11:10:03Z</time>
      </trkpt>
      <trkpt lat="43.36901150" lon="13.02405150">
        <ele>938.00000</ele>
        <time>2009-07-31T11:10:04Z</time>
      </trkpt>
      <trkpt lat="43.36899030" lon="13.02407360">
        <ele>938.00000</ele>
        <time>2009-07-31T11:10:05Z</time>
      </trkpt>
      <trkpt lat="43.36896910" lon="13.02409690">
        <ele>938.00000</ele>
        <time>2009-07-31T11:10:06Z</time>
      </trkpt>
      <trkpt lat="43.36894910" lon="13.02412880">
        <ele>938.00000</ele>
        <time>2009-07-31T11:10:08Z</time>
      </trkpt>
      <trkpt lat="43.36892450" lon="13.02414780">
        <ele>938.00000</ele>
        <time>2009-07-31T11:10:09Z</time>
      </trkpt>
      <trkpt lat="43.36888490" lon="13.02420090">
        <ele>938.00000</ele>
        <time>2009-07-31T11:10:11Z</time>
      </trkpt>
      <trkpt lat="43.36886180" lon="13.02423010">
        <ele>938.00000</ele>
        <time>2009-07-31T11:10:12Z</time>
      </trkpt>
      <trkpt lat="43.36884660" lon="13.02423710">
        <ele>938.00000</ele>
        <time>2009-07-31T11:10:13Z</time>
      </trkpt>
      <trkpt lat="43.36882260" lon="13.02426040">
        <ele>938.00000</ele>
        <time>2009-07-31T11:10:14Z</time>
      </trkpt>
      <trkpt lat="43.36880310" lon="13.02428510">
        <ele>938.00000</ele>
        <time>2009-07-31T11:10:15Z</time>
      </trkpt>
      <trkpt lat="43.36878020" lon="13.02431370">
        <ele>938.00000</ele>
        <time>2009-07-31T11:10:16Z</time>
      </trkpt>
      <trkpt lat="43.36876330" lon="13.02433590">
        <ele>938.00000</ele>
        <time>2009-07-31T11:10:17Z</time>
      </trkpt>
      <trkpt lat="43.36874560" lon="13.02434510">
        <ele>949.00000</ele>
        <time>2009-07-31T11:10:18Z</time>
      </trkpt>
      <trkpt lat="43.36872370" lon="13.02437420">
        <ele>949.00000</ele>
        <time>2009-07-31T11:10:19Z</time>
      </trkpt>
      <trkpt lat="43.36869860" lon="13.02439250">
        <ele>949.00000</ele>
        <time>2009-07-31T11:10:20Z</time>
      </trkpt>
      <trkpt lat="43.36867950" lon="13.02441160">
        <ele>949.00000</ele>
        <time>2009-07-31T11:10:21Z</time>
      </trkpt>
      <trkpt lat="43.36865620" lon="13.02443220">
        <ele>949.00000</ele>
        <time>2009-07-31T11:10:22Z</time>
      </trkpt>
      <trkpt lat="43.36864360" lon="13.02443820">
        <ele>949.00000</ele>
        <time>2009-07-31T11:10:23Z</time>
      </trkpt>
      <trkpt lat="43.36863220" lon="13.02445720">
        <ele>949.00000</ele>
        <time>2009-07-31T11:10:24Z</time>
      </trkpt>
      <trkpt lat="43.36861360" lon="13.02447070">
        <ele>949.00000</ele>
        <time>2009-07-31T11:10:25Z</time>
      </trkpt>
      <trkpt lat="43.36859230" lon="13.02449370">
        <ele>949.00000</ele>
        <time>2009-07-31T11:10:26Z</time>
      </trkpt>
      <trkpt lat="43.36857040" lon="13.02450910">
        <ele>949.00000</ele>
        <time>2009-07-31T11:10:27Z</time>
      </trkpt>
      <trkpt lat="43.36854700" lon="13.02452780">
        <ele>949.00000</ele>
        <time>2009-07-31T11:10:28Z</time>
      </trkpt>
      <trkpt lat="43.36853030" lon="13.02454730">
        <ele>949.00000</ele>
        <time>2009-07-31T11:10:29Z</time>
      </trkpt>
      <trkpt lat="43.36851310" lon="13.02456060">
        <ele>949.00000</ele>
        <time>2009-07-31T11:10:29Z</time>
      </trkpt>
      <trkpt lat="43.36848710" lon="13.02458270">
        <ele>949.00000</ele>
        <time>2009-07-31T11:10:31Z</time>
      </trkpt>
      <trkpt lat="43.36846760" lon="13.02460410">
        <ele>934.00000</ele>
        <time>2009-07-31T11:10:32Z</time>
      </trkpt>
      <trkpt lat="43.36845040" lon="13.02462860">
        <ele>934.00000</ele>
        <time>2009-07-31T11:10:33Z</time>
      </trkpt>
      <trkpt lat="43.36843510" lon="13.02465280">
        <ele>934.00000</ele>
        <time>2009-07-31T11:10:33Z</time>
      </trkpt>
      <trkpt lat="43.36841130" lon="13.02467960">
        <ele>934.00000</ele>
        <time>2009-07-31T11:10:35Z</time>
      </trkpt>
      <trkpt lat="43.36838720" lon="13.02470610">
        <ele>934.00000</ele>
        <time>2009-07-31T11:10:36Z</time>
      </trkpt>
      <trkpt lat="43.36836810" lon="13.02473040">
        <ele>934.00000</ele>
        <time>2009-07-31T11:10:37Z</time>
      </trkpt>
      <trkpt lat="43.36834350" lon="13.02474800">
        <ele>934.00000</ele>
        <time>2009-07-31T11:10:38Z</time>
      </trkpt>
      <trkpt lat="43.36831660" lon="13.02478470">
        <ele>934.00000</ele>
        <time>2009-07-31T11:10:40Z</time>
      </trkpt>
      <trkpt lat="43.36829420" lon="13.02480700">
        <ele>934.00000</ele>
        <time>2009-07-31T11:10:41Z</time>
      </trkpt>
      <trkpt lat="43.36827660" lon="13.02483740">
        <ele>934.00000</ele>
        <time>2009-07-31T11:10:42Z</time>
      </trkpt>
      <trkpt lat="43.36825900" lon="13.02485680">
        <ele>934.00000</ele>
        <time>2009-07-31T11:10:43Z</time>
      </trkpt>
      <trkpt lat="43.36822770" lon="13.02489370">
        <ele>934.00000</ele>
        <time>2009-07-31T11:10:44Z</time>
      </trkpt>
      <trkpt lat="43.36820930" lon="13.02493800">
        <ele>934.00000</ele>
        <time>2009-07-31T11:10:46Z</time>
      </trkpt>
      <trkpt lat="43.36819950" lon="13.02495620">
        <ele>934.00000</ele>
        <time>2009-07-31T11:10:47Z</time>
      </trkpt>
      <trkpt lat="43.36819480" lon="13.02496880">
        <ele>934.00000</ele>
        <time>2009-07-31T11:10:47Z</time>
      </trkpt>
      <trkpt lat="43.36818830" lon="13.02497450">
        <ele>934.00000</ele>
        <time>2009-07-31T11:10:47Z</time>
      </trkpt>
      <trkpt lat="43.36818050" lon="13.02498730">
        <ele>934.00000</ele>
        <time>2009-07-31T11:10:48Z</time>
      </trkpt>
      <trkpt lat="43.36816240" lon="13.02500560">
        <ele>934.00000</ele>
        <time>2009-07-31T11:10:49Z</time>
      </trkpt>
      <trkpt lat="43.36813860" lon="13.02502450">
        <ele>934.00000</ele>
        <time>2009-07-31T11:10:50Z</time>
      </trkpt>
      <trkpt lat="43.36812300" lon="13.02503580">
        <ele>934.00000</ele>
        <time>2009-07-31T11:10:50Z</time>
      </trkpt>
      <trkpt lat="43.36810170" lon="13.02505150">
        <ele>934.00000</ele>
        <time>2009-07-31T11:10:51Z</time>
      </trkpt>
      <trkpt lat="43.36808390" lon="13.02506520">
        <ele>934.00000</ele>
        <time>2009-07-31T11:10:52Z</time>
      </trkpt>
      <trkpt lat="43.36806100" lon="13.02508120">
        <ele>934.00000</ele>
        <time>2009-07-31T11:10:53Z</time>
      </trkpt>
      <trkpt lat="43.36804130" lon="13.02509170">
        <ele>934.00000</ele>
        <time>2009-07-31T11:10:54Z</time>
      </trkpt>
      <trkpt lat="43.36802510" lon="13.02510790">
        <ele>934.00000</ele>
        <time>2009-07-31T11:10:55Z</time>
      </trkpt>
      <trkpt lat="43.36800400" lon="13.02513970">
        <ele>934.00000</ele>
        <time>2009-07-31T11:10:56Z</time>
      </trkpt>
      <trkpt lat="43.36797450" lon="13.02515520">
        <ele>934.00000</ele>
        <time>2009-07-31T11:10:57Z</time>
      </trkpt>
      <trkpt lat="43.36795090" lon="13.02517790">
        <ele>934.00000</ele>
        <time>2009-07-31T11:10:59Z</time>
      </trkpt>
      <trkpt lat="43.36793210" lon="13.02519390">
        <ele>934.00000</ele>
        <time>2009-07-31T11:10:59Z</time>
      </trkpt>
      <trkpt lat="43.36791030" lon="13.02521580">
        <ele>941.00000</ele>
        <time>2009-07-31T11:11:01Z</time>
      </trkpt>
      <trkpt lat="43.36789960" lon="13.02522950">
        <ele>941.00000</ele>
        <time>2009-07-31T11:11:01Z</time>
      </trkpt>
      <trkpt lat="43.36787770" lon="13.02523260">
        <ele>941.00000</ele>
        <time>2009-07-31T11:11:02Z</time>
      </trkpt>
      <trkpt lat="43.36786890" lon="13.02522320">
        <ele>941.00000</ele>
        <time>2009-07-31T11:11:02Z</time>
      </trkpt>
      <trkpt lat="43.36785440" lon="13.02523450">
        <ele>941.00000</ele>
        <time>2009-07-31T11:11:03Z</time>
      </trkpt>
      <trkpt lat="43.36783470" lon="13.02525220">
        <ele>941.00000</ele>
        <time>2009-07-31T11:11:04Z</time>
      </trkpt>
      <trkpt lat="43.36781180" lon="13.02528520">
        <ele>941.00000</ele>
        <time>2009-07-31T11:11:05Z</time>
      </trkpt>
      <trkpt lat="43.36779270" lon="13.02532240">
        <ele>941.00000</ele>
        <time>2009-07-31T11:11:07Z</time>
      </trkpt>
      <trkpt lat="43.36777380" lon="13.02533210">
        <ele>941.00000</ele>
        <time>2009-07-31T11:11:08Z</time>
      </trkpt>
      <trkpt lat="43.36775860" lon="13.02534880">
        <ele>941.00000</ele>
        <time>2009-07-31T11:11:08Z</time>
      </trkpt>
      <trkpt lat="43.36774560" lon="13.02536130">
        <ele>941.00000</ele>
        <time>2009-07-31T11:11:09Z</time>
      </trkpt>
      <trkpt lat="43.36772740" lon="13.02537160">
        <ele>941.00000</ele>
        <time>2009-07-31T11:11:10Z</time>
      </trkpt>
      <trkpt lat="43.36770920" lon="13.02537900">
        <ele>941.00000</ele>
        <time>2009-07-31T11:11:11Z</time>
      </trkpt>
      <trkpt lat="43.36768550" lon="13.02539810">
        <ele>941.00000</ele>
        <time>2009-07-31T11:11:12Z</time>
      </trkpt>
      <trkpt lat="43.36766580" lon="13.02540780">
        <ele>941.00000</ele>
        <time>2009-07-31T11:11:12Z</time>
      </trkpt>
      <trkpt lat="43.36764240" lon="13.02542210">
        <ele>931.00000</ele>
        <time>2009-07-31T11:11:13Z</time>
      </trkpt>
      <trkpt lat="43.36762080" lon="13.02544050">
        <ele>931.00000</ele>
        <time>2009-07-31T11:11:14Z</time>
      </trkpt>
      <trkpt lat="43.36760750" lon="13.02544680">
        <ele>931.00000</ele>
        <time>2009-07-31T11:11:15Z</time>
      </trkpt>
      <trkpt lat="43.36759400" lon="13.02545100">
        <ele>931.00000</ele>
        <time>2009-07-31T11:11:16Z</time>
      </trkpt>
      <trkpt lat="43.36757580" lon="13.02545340">
        <ele>931.00000</ele>
        <time>2009-07-31T11:11:16Z</time>
      </trkpt>
      <trkpt lat="43.36755150" lon="13.02545670">
        <ele>931.00000</ele>
        <time>2009-07-31T11:11:17Z</time>
      </trkpt>
      <trkpt lat="43.36752520" lon="13.02546320">
        <ele>931.00000</ele>
        <time>2009-07-31T11:11:18Z</time>
      </trkpt>
      <trkpt lat="43.36749800" lon="13.02547090">
        <ele>931.00000</ele>
        <time>2009-07-31T11:11:19Z</time>
      </trkpt>
      <trkpt lat="43.36747180" lon="13.02547710">
        <ele>931.00000</ele>
        <time>2009-07-31T11:11:21Z</time>
      </trkpt>
      <trkpt lat="43.36745050" lon="13.02548250">
        <ele>931.00000</ele>
        <time>2009-07-31T11:11:21Z</time>
      </trkpt>
      <trkpt lat="43.36743000" lon="13.02548230">
        <ele>931.00000</ele>
        <time>2009-07-31T11:11:22Z</time>
      </trkpt>
      <trkpt lat="43.36740200" lon="13.02548170">
        <ele>931.00000</ele>
        <time>2009-07-31T11:11:23Z</time>
      </trkpt>
      <trkpt lat="43.36737990" lon="13.02547850">
        <ele>931.00000</ele>
        <time>2009-07-31T11:11:24Z</time>
      </trkpt>
      <trkpt lat="43.36735400" lon="13.02548200">
        <ele>931.00000</ele>
        <time>2009-07-31T11:11:25Z</time>
      </trkpt>
      <trkpt lat="43.36732900" lon="13.02548820">
        <ele>931.00000</ele>
        <time>2009-07-31T11:11:26Z</time>
      </trkpt>
      <trkpt lat="43.36729680" lon="13.02550540">
        <ele>931.00000</ele>
        <time>2009-07-31T11:11:28Z</time>
      </trkpt>
      <trkpt lat="43.36727330" lon="13.02550550">
        <ele>931.00000</ele>
        <time>2009-07-31T11:11:29Z</time>
      </trkpt>
      <trkpt lat="43.36725300" lon="13.02549000">
        <ele>931.00000</ele>
        <time>2009-07-31T11:11:30Z</time>
      </trkpt>
      <trkpt lat="43.36723190" lon="13.02550440">
        <ele>931.00000</ele>
        <time>2009-07-31T11:11:31Z</time>
      </trkpt>
      <trkpt lat="43.36720640" lon="13.02551730">
        <ele>931.00000</ele>
        <time>2009-07-31T11:11:32Z</time>
      </trkpt>
      <trkpt lat="43.36717660" lon="13.02551980">
        <ele>931.00000</ele>
        <time>2009-07-31T11:11:33Z</time>
      </trkpt>
      <trkpt lat="43.36715380" lon="13.02554630">
        <ele>931.00000</ele>
        <time>2009-07-31T11:11:34Z</time>
      </trkpt>
      <trkpt lat="43.36713840" lon="13.02555920">
        <ele>931.00000</ele>
        <time>2009-07-31T11:11:35Z</time>
      </trkpt>
      <trkpt lat="43.36711360" lon="13.02556620">
        <ele>931.00000</ele>
        <time>2009-07-31T11:11:36Z</time>
      </trkpt>
      <trkpt lat="43.36708960" lon="13.02557100">
        <ele>931.00000</ele>
        <time>2009-07-31T11:11:37Z</time>
      </trkpt>
      <trkpt lat="43.36706600" lon="13.02557140">
        <ele>930.00000</ele>
        <time>2009-07-31T11:11:38Z</time>
      </trkpt>
      <trkpt lat="43.36704470" lon="13.02557490">
        <ele>930.00000</ele>
        <time>2009-07-31T11:11:38Z</time>
      </trkpt>
      <trkpt lat="43.36702150" lon="13.02559140">
        <ele>930.00000</ele>
        <time>2009-07-31T11:11:40Z</time>
      </trkpt>
      <trkpt lat="43.36700070" lon="13.02559630">
        <ele>930.00000</ele>
        <time>2009-07-31T11:11:40Z</time>
      </trkpt>
      <trkpt lat="43.36697220" lon="13.02560530">
        <ele>930.00000</ele>
        <time>2009-07-31T11:11:42Z</time>
      </trkpt>
      <trkpt lat="43.36694420" lon="13.02560960">
        <ele>930.00000</ele>
        <time>2009-07-31T11:11:43Z</time>
      </trkpt>
      <trkpt lat="43.36691290" lon="13.02561680">
        <ele>930.00000</ele>
        <time>2009-07-31T11:11:44Z</time>
      </trkpt>
      <trkpt lat="43.36690960" lon="13.02560750">
        <ele>930.00000</ele>
        <time>2009-07-31T11:11:44Z</time>
      </trkpt>
      <trkpt lat="43.36688930" lon="13.02561550">
        <ele>930.00000</ele>
        <time>2009-07-31T11:11:45Z</time>
      </trkpt>
      <trkpt lat="43.36686580" lon="13.02562980">
        <ele>930.00000</ele>
        <time>2009-07-31T11:11:46Z</time>
      </trkpt>
      <trkpt lat="43.36683790" lon="13.02565450">
        <ele>930.00000</ele>
        <time>2009-07-31T11:11:47Z</time>
      </trkpt>
      <trkpt lat="43.36680620" lon="13.02567420">
        <ele>930.00000</ele>
        <time>2009-07-31T11:11:49Z</time>
      </trkpt>
      <trkpt lat="43.36677130" lon="13.02567660">
        <ele>930.00000</ele>
        <time>2009-07-31T11:11:50Z</time>
      </trkpt>
      <trkpt lat="43.36674570" lon="13.02567980">
        <ele>930.00000</ele>
        <time>2009-07-31T11:11:51Z</time>
      </trkpt>
      <trkpt lat="43.36672240" lon="13.02568640">
        <ele>930.00000</ele>
        <time>2009-07-31T11:11:52Z</time>
      </trkpt>
      <trkpt lat="43.36670980" lon="13.02570810">
        <ele>930.00000</ele>
        <time>2009-07-31T11:11:53Z</time>
      </trkpt>
      <trkpt lat="43.36668940" lon="13.02572300">
        <ele>930.00000</ele>
        <time>2009-07-31T11:11:54Z</time>
      </trkpt>
      <trkpt lat="43.36668220" lon="13.02573670">
        <ele>930.00000</ele>
        <time>2009-07-31T11:11:54Z</time>
      </trkpt>
      <trkpt lat="43.36665620" lon="13.02575860">
        <ele>930.00000</ele>
        <time>2009-07-31T11:11:56Z</time>
      </trkpt>
      <trkpt lat="43.36662650" lon="13.02575680">
        <ele>930.00000</ele>
        <time>2009-07-31T11:11:57Z</time>
      </trkpt>
      <trkpt lat="43.36660460" lon="13.02578060">
        <ele>930.00000</ele>
        <time>2009-07-31T11:11:58Z</time>
      </trkpt>
      <trkpt lat="43.36658850" lon="13.02579470">
        <ele>930.00000</ele>
        <time>2009-07-31T11:11:59Z</time>
      </trkpt>
      <trkpt lat="43.36657250" lon="13.02579660">
        <ele>930.00000</ele>
        <time>2009-07-31T11:11:59Z</time>
      </trkpt>
      <trkpt lat="43.36654720" lon="13.02581160">
        <ele>930.00000</ele>
        <time>2009-07-31T11:12:00Z</time>
      </trkpt>
      <trkpt lat="43.36652370" lon="13.02581900">
        <ele>930.00000</ele>
        <time>2009-07-31T11:12:01Z</time>
      </trkpt>
      <trkpt lat="43.36650100" lon="13.02584480">
        <ele>930.00000</ele>
        <time>2009-07-31T11:12:03Z</time>
      </trkpt>
      <trkpt lat="43.36647870" lon="13.02587670">
        <ele>930.00000</ele>
        <time>2009-07-31T11:12:04Z</time>
      </trkpt>
      <trkpt lat="43.36646520" lon="13.02590320">
        <ele>930.00000</ele>
        <time>2009-07-31T11:12:05Z</time>
      </trkpt>
      <trkpt lat="43.36645070" lon="13.02592890">
        <ele>930.00000</ele>
        <time>2009-07-31T11:12:06Z</time>
      </trkpt>
      <trkpt lat="43.36643300" lon="13.02595590">
        <ele>930.00000</ele>
        <time>2009-07-31T11:12:07Z</time>
      </trkpt>
      <trkpt lat="43.36642560" lon="13.02598680">
        <ele>930.00000</ele>
        <time>2009-07-31T11:12:08Z</time>
      </trkpt>
      <trkpt lat="43.36642100" lon="13.02601470">
        <ele>930.00000</ele>
        <time>2009-07-31T11:12:09Z</time>
      </trkpt>
      <trkpt lat="43.36641270" lon="13.02605370">
        <ele>930.00000</ele>
        <time>2009-07-31T11:12:10Z</time>
      </trkpt>
      <trkpt lat="43.36640870" lon="13.02607220">
        <ele>930.00000</ele>
        <time>2009-07-31T11:12:10Z</time>
      </trkpt>
      <trkpt lat="43.36639920" lon="13.02609980">
        <ele>930.00000</ele>
        <time>2009-07-31T11:12:11Z</time>
      </trkpt>
      <trkpt lat="43.36639110" lon="13.02612460">
        <ele>930.00000</ele>
        <time>2009-07-31T11:12:12Z</time>
      </trkpt>
      <trkpt lat="43.36638290" lon="13.02614750">
        <ele>930.00000</ele>
        <time>2009-07-31T11:12:13Z</time>
      </trkpt>
      <trkpt lat="43.36637480" lon="13.02617870">
        <ele>930.00000</ele>
        <time>2009-07-31T11:12:14Z</time>
      </trkpt>
      <trkpt lat="43.36636700" lon="13.02620370">
        <ele>930.00000</ele>
        <time>2009-07-31T11:12:15Z</time>
      </trkpt>
      <trkpt lat="43.36635710" lon="13.02622290">
        <ele>930.00000</ele>
        <time>2009-07-31T11:12:15Z</time>
      </trkpt>
      <trkpt lat="43.36634650" lon="13.02624100">
        <ele>930.00000</ele>
        <time>2009-07-31T11:12:16Z</time>
      </trkpt>
      <trkpt lat="43.36633450" lon="13.02627040">
        <ele>921.00000</ele>
        <time>2009-07-31T11:12:17Z</time>
      </trkpt>
      <trkpt lat="43.36633360" lon="13.02628120">
        <ele>921.00000</ele>
        <time>2009-07-31T11:12:17Z</time>
      </trkpt>
      <trkpt lat="43.36632830" lon="13.02632580">
        <ele>921.00000</ele>
        <time>2009-07-31T11:12:19Z</time>
      </trkpt>
      <trkpt lat="43.36631980" lon="13.02635730">
        <ele>921.00000</ele>
        <time>2009-07-31T11:12:20Z</time>
      </trkpt>
      <trkpt lat="43.36632010" lon="13.02637330">
        <ele>921.00000</ele>
        <time>2009-07-31T11:12:20Z</time>
      </trkpt>
      <trkpt lat="43.36632100" lon="13.02638430">
        <ele>921.00000</ele>
        <time>2009-07-31T11:12:20Z</time>
      </trkpt>
      <trkpt lat="43.36631800" lon="13.02641470">
        <ele>921.00000</ele>
        <time>2009-07-31T11:12:21Z</time>
      </trkpt>
      <trkpt lat="43.36631740" lon="13.02644260">
        <ele>921.00000</ele>
        <time>2009-07-31T11:12:22Z</time>
      </trkpt>
      <trkpt lat="43.36631980" lon="13.02647860">
        <ele>921.00000</ele>
        <time>2009-07-31T11:12:23Z</time>
      </trkpt>
      <trkpt lat="43.36631530" lon="13.02650600">
        <ele>921.00000</ele>
        <time>2009-07-31T11:12:24Z</time>
      </trkpt>
      <trkpt lat="43.36631850" lon="13.02654500">
        <ele>921.00000</ele>
        <time>2009-07-31T11:12:25Z</time>
      </trkpt>
      <trkpt lat="43.36631720" lon="13.02657530">
        <ele>921.00000</ele>
        <time>2009-07-31T11:12:26Z</time>
      </trkpt>
      <trkpt lat="43.36631680" lon="13.02660410">
        <ele>921.00000</ele>
        <time>2009-07-31T11:12:27Z</time>
      </trkpt>
      <trkpt lat="43.36631260" lon="13.02662850">
        <ele>921.00000</ele>
        <time>2009-07-31T11:12:27Z</time>
      </trkpt>
      <trkpt lat="43.36630230" lon="13.02663610">
        <ele>921.00000</ele>
        <time>2009-07-31T11:12:28Z</time>
      </trkpt>
      <trkpt lat="43.36629310" lon="13.02664220">
        <ele>921.00000</ele>
        <time>2009-07-31T11:12:28Z</time>
      </trkpt>
      <trkpt lat="43.36629050" lon="13.02663050">
        <ele>921.00000</ele>
        <time>2009-07-31T11:12:29Z</time>
      </trkpt>
      <trkpt lat="43.36629570" lon="13.02662030">
        <ele>921.00000</ele>
        <time>2009-07-31T11:12:29Z</time>
      </trkpt>
      <trkpt lat="43.36630520" lon="13.02662130">
        <ele>921.00000</ele>
        <time>2009-07-31T11:12:29Z</time>
      </trkpt>
      <trkpt lat="43.36630390" lon="13.02660780">
        <ele>921.00000</ele>
        <time>2009-07-31T11:12:30Z</time>
      </trkpt>
      <trkpt lat="43.36630380" lon="13.02658340">
        <ele>921.00000</ele>
        <time>2009-07-31T11:12:31Z</time>
      </trkpt>
      <trkpt lat="43.36629600" lon="13.02656020">
        <ele>921.00000</ele>
        <time>2009-07-31T11:12:31Z</time>
      </trkpt>
      <trkpt lat="43.36629800" lon="13.02652700">
        <ele>921.00000</ele>
        <time>2009-07-31T11:12:32Z</time>
      </trkpt>
      <trkpt lat="43.36628980" lon="13.02651570">
        <ele>921.00000</ele>
        <time>2009-07-31T11:12:33Z</time>
      </trkpt>
      <trkpt lat="43.36626260" lon="13.02651960">
        <ele>921.00000</ele>
        <time>2009-07-31T11:12:34Z</time>
      </trkpt>
      <trkpt lat="43.36624070" lon="13.02652730">
        <ele>934.00000</ele>
        <time>2009-07-31T11:12:35Z</time>
      </trkpt>
      <trkpt lat="43.36622600" lon="13.02654810">
        <ele>934.00000</ele>
        <time>2009-07-31T11:12:36Z</time>
      </trkpt>
      <trkpt lat="43.36622160" lon="13.02656600">
        <ele>934.00000</ele>
        <time>2009-07-31T11:12:36Z</time>
      </trkpt>
      <trkpt lat="43.36621040" lon="13.02657580">
        <ele>934.00000</ele>
        <time>2009-07-31T11:12:37Z</time>
      </trkpt>
      <trkpt lat="43.36619640" lon="13.02659190">
        <ele>934.00000</ele>
        <time>2009-07-31T11:12:37Z</time>
      </trkpt>
      <trkpt lat="43.36618320" lon="13.02660630">
        <ele>934.00000</ele>
        <time>2009-07-31T11:12:38Z</time>
      </trkpt>
      <trkpt lat="43.36617360" lon="13.02661530">
        <ele>934.00000</ele>
        <time>2009-07-31T11:12:39Z</time>
      </trkpt>
      <trkpt lat="43.36616960" lon="13.02661030">
        <ele>934.00000</ele>
        <time>2009-07-31T11:12:39Z</time>
      </trkpt>
      <trkpt lat="43.36616940" lon="13.02661340">
        <ele>934.00000</ele>
        <time>2009-07-31T11:12:39Z</time>
      </trkpt>
      <trkpt lat="43.36616920" lon="13.02661420">
        <ele>934.00000</ele>
        <time>2009-07-31T11:12:39Z</time>
      </trkpt>
      <trkpt lat="43.36616880" lon="13.02661430">
        <ele>934.00000</ele>
        <time>2009-07-31T11:12:39Z</time>
      </trkpt>
      <trkpt lat="43.36616590" lon="13.02659980">
        <ele>934.00000</ele>
        <time>2009-07-31T11:12:39Z</time>
      </trkpt>
      <trkpt lat="43.36616740" lon="13.02658710">
        <ele>934.00000</ele>
        <time>2009-07-31T11:12:40Z</time>
      </trkpt>
      <trkpt lat="43.36616920" lon="13.02658750">
        <ele>934.00000</ele>
        <time>2009-07-31T11:12:40Z</time>
      </trkpt>
      <trkpt lat="43.36616910" lon="13.02658720">
        <ele>934.00000</ele>
        <time>2009-07-31T11:12:40Z</time>
      </trkpt>
      <trkpt lat="43.36616930" lon="13.02658610">
        <ele>934.00000</ele>
        <time>2009-07-31T11:12:40Z</time>
      </trkpt>
      <trkpt lat="43.36617100" lon="13.02658290">
        <ele>934.00000</ele>
        <time>2009-07-31T11:12:40Z</time>
      </trkpt>
      <trkpt lat="43.36616840" lon="13.02656590">
        <ele>934.00000</ele>
        <time>2009-07-31T11:12:40Z</time>
      </trkpt>
      <trkpt lat="43.36616450" lon="13.02654720">
        <ele>934.00000</ele>
        <time>2009-07-31T11:12:41Z</time>
      </trkpt>
      <trkpt lat="43.36616400" lon="13.02652700">
        <ele>934.00000</ele>
        <time>2009-07-31T11:12:42Z</time>
      </trkpt>
      <trkpt lat="43.36616940" lon="13.02651010">
        <ele>934.00000</ele>
        <time>2009-07-31T11:12:42Z</time>
      </trkpt>
      <trkpt lat="43.36617320" lon="13.02648740">
        <ele>934.00000</ele>
        <time>2009-07-31T11:12:43Z</time>
      </trkpt>
      <trkpt lat="43.36617330" lon="13.02646900">
        <ele>934.00000</ele>
        <time>2009-07-31T11:12:43Z</time>
      </trkpt>
      <trkpt lat="43.36617640" lon="13.02644940">
        <ele>934.00000</ele>
        <time>2009-07-31T11:12:44Z</time>
      </trkpt>
      <trkpt lat="43.36617720" lon="13.02645040">
        <ele>934.00000</ele>
        <time>2009-07-31T11:12:44Z</time>
      </trkpt>
      <trkpt lat="43.36617820" lon="13.02644690">
        <ele>934.00000</ele>
        <time>2009-07-31T11:12:44Z</time>
      </trkpt>
      <trkpt lat="43.36617510" lon="13.02643300">
        <ele>934.00000</ele>
        <time>2009-07-31T11:12:44Z</time>
      </trkpt>
      <trkpt lat="43.36617630" lon="13.02639690">
        <ele>934.00000</ele>
        <time>2009-07-31T11:12:46Z</time>
      </trkpt>
      <trkpt lat="43.36617440" lon="13.02637000">
        <ele>934.00000</ele>
        <time>2009-07-31T11:12:46Z</time>
      </trkpt>
      <trkpt lat="43.36618600" lon="13.02634030">
        <ele>934.00000</ele>
        <time>2009-07-31T11:12:47Z</time>
      </trkpt>
      <trkpt lat="43.36618800" lon="13.02631040">
        <ele>934.00000</ele>
        <time>2009-07-31T11:12:48Z</time>
      </trkpt>
      <trkpt lat="43.36619270" lon="13.02627970">
        <ele>934.00000</ele>
        <time>2009-07-31T11:12:49Z</time>
      </trkpt>
      <trkpt lat="43.36618780" lon="13.02625880">
        <ele>934.00000</ele>
        <time>2009-07-31T11:12:50Z</time>
      </trkpt>
      <trkpt lat="43.36618620" lon="13.02623170">
        <ele>933.00000</ele>
        <time>2009-07-31T11:12:50Z</time>
      </trkpt>
      <trkpt lat="43.36617970" lon="13.02621000">
        <ele>933.00000</ele>
        <time>2009-07-31T11:12:51Z</time>
      </trkpt>
      <trkpt lat="43.36617790" lon="13.02618300">
        <ele>933.00000</ele>
        <time>2009-07-31T11:12:52Z</time>
      </trkpt>
      <trkpt lat="43.36618070" lon="13.02615620">
        <ele>933.00000</ele>
        <time>2009-07-31T11:12:53Z</time>
      </trkpt>
      <trkpt lat="43.36617910" lon="13.02613220">
        <ele>933.00000</ele>
        <time>2009-07-31T11:12:53Z</time>
      </trkpt>
      <trkpt lat="43.36618350" lon="13.02611980">
        <ele>933.00000</ele>
        <time>2009-07-31T11:12:54Z</time>
      </trkpt>
      <trkpt lat="43.36618830" lon="13.02612390">
        <ele>933.00000</ele>
        <time>2009-07-31T11:12:54Z</time>
      </trkpt>
      <trkpt lat="43.36618730" lon="13.02612160">
        <ele>933.00000</ele>
        <time>2009-07-31T11:12:54Z</time>
      </trkpt>
      <trkpt lat="43.36618410" lon="13.02610320">
        <ele>933.00000</ele>
        <time>2009-07-31T11:12:55Z</time>
      </trkpt>
      <trkpt lat="43.36618120" lon="13.02607520">
        <ele>933.00000</ele>
        <time>2009-07-31T11:12:56Z</time>
      </trkpt>
      <trkpt lat="43.36617240" lon="13.02605070">
        <ele>933.00000</ele>
        <time>2009-07-31T11:12:56Z</time>
      </trkpt>
      <trkpt lat="43.36618340" lon="13.02602410">
        <ele>933.00000</ele>
        <time>2009-07-31T11:12:57Z</time>
      </trkpt>
      <trkpt lat="43.36619250" lon="13.02600600">
        <ele>933.00000</ele>
        <time>2009-07-31T11:12:58Z</time>
      </trkpt>
      <trkpt lat="43.36619500" lon="13.02598400">
        <ele>933.00000</ele>
        <time>2009-07-31T11:12:59Z</time>
      </trkpt>
      <trkpt lat="43.36619720" lon="13.02594610">
        <ele>933.00000</ele>
        <time>2009-07-31T11:13:00Z</time>
      </trkpt>
      <trkpt lat="43.36620970" lon="13.02592980">
        <ele>933.00000</ele>
        <time>2009-07-31T11:13:00Z</time>
      </trkpt>
      <trkpt lat="43.36622690" lon="13.02589490">
        <ele>933.00000</ele>
        <time>2009-07-31T11:13:02Z</time>
      </trkpt>
      <trkpt lat="43.36623420" lon="13.02587230">
        <ele>933.00000</ele>
        <time>2009-07-31T11:13:02Z</time>
      </trkpt>
      <trkpt lat="43.36624550" lon="13.02585200">
        <ele>933.00000</ele>
        <time>2009-07-31T11:13:03Z</time>
      </trkpt>
      <trkpt lat="43.36625300" lon="13.02584620">
        <ele>930.00000</ele>
        <time>2009-07-31T11:13:03Z</time>
      </trkpt>
      <trkpt lat="43.36626210" lon="13.02585880">
        <ele>930.00000</ele>
        <time>2009-07-31T11:13:04Z</time>
      </trkpt>
      <trkpt lat="43.36626590" lon="13.02586410">
        <ele>930.00000</ele>
        <time>2009-07-31T11:13:04Z</time>
      </trkpt>
      <trkpt lat="43.36626790" lon="13.02586350">
        <ele>930.00000</ele>
        <time>2009-07-31T11:13:04Z</time>
      </trkpt>
      <trkpt lat="43.36627010" lon="13.02586200">
        <ele>930.00000</ele>
        <time>2009-07-31T11:13:04Z</time>
      </trkpt>
      <trkpt lat="43.36627200" lon="13.02586080">
        <ele>930.00000</ele>
        <time>2009-07-31T11:13:04Z</time>
      </trkpt>
      <trkpt lat="43.36627130" lon="13.02586260">
        <ele>930.00000</ele>
        <time>2009-07-31T11:13:04Z</time>
      </trkpt>
      <trkpt lat="43.36627040" lon="13.02587330">
        <ele>930.00000</ele>
        <time>2009-07-31T11:13:05Z</time>
      </trkpt>
      <trkpt lat="43.36627440" lon="13.02588250">
        <ele>930.00000</ele>
        <time>2009-07-31T11:13:05Z</time>
      </trkpt>
      <trkpt lat="43.36627690" lon="13.02589040">
        <ele>930.00000</ele>
        <time>2009-07-31T11:13:05Z</time>
      </trkpt>
      <trkpt lat="43.36627710" lon="13.02589030">
        <ele>930.00000</ele>
        <time>2009-07-31T11:13:05Z</time>
      </trkpt>
      <trkpt lat="43.36627730" lon="13.02589030">
        <ele>930.00000</ele>
        <time>2009-07-31T11:13:05Z</time>
      </trkpt>
      <trkpt lat="43.36627740" lon="13.02589090">
        <ele>930.00000</ele>
        <time>2009-07-31T11:13:05Z</time>
      </trkpt>
      <trkpt lat="43.36627860" lon="13.02588950">
        <ele>930.00000</ele>
        <time>2009-07-31T11:13:05Z</time>
      </trkpt>
      <trkpt lat="43.36628100" lon="13.02588700">
        <ele>930.00000</ele>
        <time>2009-07-31T11:13:05Z</time>
      </trkpt>
      <trkpt lat="43.36628050" lon="13.02588940">
        <ele>930.00000</ele>
        <time>2009-07-31T11:13:06Z</time>
      </trkpt>
      <trkpt lat="43.36630740" lon="13.02592530">
        <ele>930.00000</ele>
        <time>2009-07-31T11:13:07Z</time>
      </trkpt>
      <trkpt lat="43.36632590" lon="13.02596760">
        <ele>930.00000</ele>
        <time>2009-07-31T11:13:08Z</time>
      </trkpt>
      <trkpt lat="43.36633480" lon="13.02599710">
        <ele>930.00000</ele>
        <time>2009-07-31T11:13:09Z</time>
      </trkpt>
      <trkpt lat="43.36634290" lon="13.02603420">
        <ele>930.00000</ele>
        <time>2009-07-31T11:13:11Z</time>
      </trkpt>
      <trkpt lat="43.36633910" lon="13.02606870">
        <ele>930.00000</ele>
        <time>2009-07-31T11:13:12Z</time>
      </trkpt>
      <trkpt lat="43.36634580" lon="13.02610260">
        <ele>930.00000</ele>
        <time>2009-07-31T11:13:13Z</time>
      </trkpt>
      <trkpt lat="43.36635830" lon="13.02613430">
        <ele>930.00000</ele>
        <time>2009-07-31T11:13:14Z</time>
      </trkpt>
      <trkpt lat="43.36636850" lon="13.02616220">
        <ele>930.00000</ele>
        <time>2009-07-31T11:13:14Z</time>
      </trkpt>
      <trkpt lat="43.36637340" lon="13.02618280">
        <ele>930.00000</ele>
        <time>2009-07-31T11:13:15Z</time>
      </trkpt>
      <trkpt lat="43.36637320" lon="13.02621140">
        <ele>930.00000</ele>
        <time>2009-07-31T11:13:16Z</time>
      </trkpt>
      <trkpt lat="43.36637670" lon="13.02623170">
        <ele>930.00000</ele>
        <time>2009-07-31T11:13:17Z</time>
      </trkpt>
      <trkpt lat="43.36637120" lon="13.02625070">
        <ele>921.00000</ele>
        <time>2009-07-31T11:13:17Z</time>
      </trkpt>
      <trkpt lat="43.36636330" lon="13.02627470">
        <ele>921.00000</ele>
        <time>2009-07-31T11:13:18Z</time>
      </trkpt>
      <trkpt lat="43.36636330" lon="13.02628680">
        <ele>921.00000</ele>
        <time>2009-07-31T11:13:18Z</time>
      </trkpt>
      <trkpt lat="43.36636030" lon="13.02629240">
        <ele>921.00000</ele>
        <time>2009-07-31T11:13:18Z</time>
      </trkpt>
      <trkpt lat="43.36636220" lon="13.02629490">
        <ele>921.00000</ele>
        <time>2009-07-31T11:13:19Z</time>
      </trkpt>
      <trkpt lat="43.36636190" lon="13.02629550">
        <ele>921.00000</ele>
        <time>2009-07-31T11:13:19Z</time>
      </trkpt>
      <trkpt lat="43.36636010" lon="13.02629830">
        <ele>921.00000</ele>
        <time>2009-07-31T11:13:19Z</time>
      </trkpt>
      <trkpt lat="43.36635810" lon="13.02630150">
        <ele>921.00000</ele>
        <time>2009-07-31T11:13:19Z</time>
      </trkpt>
      <trkpt lat="43.36635730" lon="13.02630280">
        <ele>921.00000</ele>
        <time>2009-07-31T11:13:19Z</time>
      </trkpt>
      <trkpt lat="43.36635710" lon="13.02630300">
        <ele>921.00000</ele>
        <time>2009-07-31T11:13:19Z</time>
      </trkpt>
      <trkpt lat="43.36635680" lon="13.02630330">
        <ele>921.00000</ele>
        <time>2009-07-31T11:13:19Z</time>
      </trkpt>
      <trkpt lat="43.36635620" lon="13.02630330">
        <ele>921.00000</ele>
        <time>2009-07-31T11:13:19Z</time>
      </trkpt>
      <trkpt lat="43.36635840" lon="13.02629950">
        <ele>921.00000</ele>
        <time>2009-07-31T11:13:19Z</time>
      </trkpt>
      <trkpt lat="43.36635650" lon="13.02630210">
        <ele>921.00000</ele>
        <time>2009-07-31T11:13:19Z</time>
      </trkpt>
      <trkpt lat="43.36635730" lon="13.02630070">
        <ele>921.00000</ele>
        <time>2009-07-31T11:13:19Z</time>
      </trkpt>
      <trkpt lat="43.36635750" lon="13.02630050">
        <ele>921.00000</ele>
        <time>2009-07-31T11:13:19Z</time>
      </trkpt>
      <trkpt lat="43.36635730" lon="13.02630070">
        <ele>921.00000</ele>
        <time>2009-07-31T11:13:19Z</time>
      </trkpt>
      <trkpt lat="43.36635730" lon="13.02630080">
        <ele>921.00000</ele>
        <time>2009-07-31T11:13:19Z</time>
      </trkpt>
      <trkpt lat="43.36635780" lon="13.02630010">
        <ele>921.00000</ele>
        <time>2009-07-31T11:13:19Z</time>
      </trkpt>
      <trkpt lat="43.36635910" lon="13.02629790">
        <ele>921.00000</ele>
        <time>2009-07-31T11:13:19Z</time>
      </trkpt>
      <trkpt lat="43.36635930" lon="13.02629790">
        <ele>921.00000</ele>
        <time>2009-07-31T11:13:19Z</time>
      </trkpt>
      <trkpt lat="43.36635920" lon="13.02629780">
        <ele>921.00000</ele>
        <time>2009-07-31T11:13:19Z</time>
      </trkpt>
      <trkpt lat="43.36635910" lon="13.02629780">
        <ele>921.00000</ele>
        <time>2009-07-31T11:13:19Z</time>
      </trkpt>
      <trkpt lat="43.36635920" lon="13.02629800">
        <ele>921.00000</ele>
        <time>2009-07-31T11:13:19Z</time>
      </trkpt>
      <trkpt lat="43.36635920" lon="13.02629790">
        <ele>921.00000</ele>
        <time>2009-07-31T11:13:19Z</time>
      </trkpt>
      <trkpt lat="43.36635920" lon="13.02629780">
        <ele>921.00000</ele>
        <time>2009-07-31T11:13:19Z</time>
      </trkpt>
      <trkpt lat="43.36635930" lon="13.02629770">
        <ele>921.00000</ele>
        <time>2009-07-31T11:13:19Z</time>
      </trkpt>
      <trkpt lat="43.36635940" lon="13.02629770">
        <ele>921.00000</ele>
        <time>2009-07-31T11:13:19Z</time>
      </trkpt>
      <trkpt lat="43.36635930" lon="13.02629770">
        <ele>921.00000</ele>
        <time>2009-07-31T11:13:19Z</time>
      </trkpt>
      <trkpt lat="43.36635920" lon="13.02629770">
        <ele>921.00000</ele>
        <time>2009-07-31T11:13:19Z</time>
      </trkpt>
      <trkpt lat="43.36635920" lon="13.02629780">
        <ele>921.00000</ele>
        <time>2009-07-31T11:13:19Z</time>
      </trkpt>
      <trkpt lat="43.36635920" lon="13.02629790">
        <ele>921.00000</ele>
        <time>2009-07-31T11:13:19Z</time>
      </trkpt>
      <trkpt lat="43.36635930" lon="13.02629780">
        <ele>921.00000</ele>
        <time>2009-07-31T11:13:19Z</time>
      </trkpt>
      <trkpt lat="43.36635930" lon="13.02629770">
        <ele>921.00000</ele>
        <time>2009-07-31T11:13:19Z</time>
      </trkpt>
      <trkpt lat="43.36635940" lon="13.02629770">
        <ele>921.00000</ele>
        <time>2009-07-31T11:13:19Z</time>
      </trkpt>
      <trkpt lat="43.36635950" lon="13.02629760">
        <ele>921.00000</ele>
        <time>2009-07-31T11:13:19Z</time>
      </trkpt>
      <trkpt lat="43.36635960" lon="13.02629760">
        <ele>921.00000</ele>
        <time>2009-07-31T11:13:19Z</time>
      </trkpt>
      <trkpt lat="43.36635960" lon="13.02629740">
        <ele>921.00000</ele>
        <time>2009-07-31T11:13:19Z</time>
      </trkpt>
      <trkpt lat="43.36635960" lon="13.02629720">
        <ele>921.00000</ele>
        <time>2009-07-31T11:13:19Z</time>
      </trkpt>
      <trkpt lat="43.36635980" lon="13.02629690">
        <ele>921.00000</ele>
        <time>2009-07-31T11:13:19Z</time>
      </trkpt>
      <trkpt lat="43.36636010" lon="13.02629600">
        <ele>921.00000</ele>
        <time>2009-07-31T11:13:19Z</time>
      </trkpt>
      <trkpt lat="43.36636000" lon="13.02629550">
        <ele>921.00000</ele>
        <time>2009-07-31T11:13:19Z</time>
      </trkpt>
      <trkpt lat="43.36635980" lon="13.02629510">
        <ele>921.00000</ele>
        <time>2009-07-31T11:13:19Z</time>
      </trkpt>
      <trkpt lat="43.36635960" lon="13.02629500">
        <ele>921.00000</ele>
        <time>2009-07-31T11:13:19Z</time>
      </trkpt>
      <trkpt lat="43.36635950" lon="13.02629460">
        <ele>921.00000</ele>
        <time>2009-07-31T11:13:19Z</time>
      </trkpt>
      <trkpt lat="43.36635950" lon="13.02629440">
        <ele>921.00000</ele>
        <time>2009-07-31T11:13:19Z</time>
      </trkpt>
      <trkpt lat="43.36635920" lon="13.02629420">
        <ele>921.00000</ele>
        <time>2009-07-31T11:13:19Z</time>
      </trkpt>
      <trkpt lat="43.36635910" lon="13.02629410">
        <ele>921.00000</ele>
        <time>2009-07-31T11:13:19Z</time>
      </trkpt>
      <trkpt lat="43.36635910" lon="13.02629400">
        <ele>921.00000</ele>
        <time>2009-07-31T11:13:19Z</time>
      </trkpt>
      <trkpt lat="43.36635890" lon="13.02629390">
        <ele>921.00000</ele>
        <time>2009-07-31T11:13:19Z</time>
      </trkpt>
      <trkpt lat="43.36635940" lon="13.02629290">
        <ele>921.00000</ele>
        <time>2009-07-31T11:13:19Z</time>
      </trkpt>
      <trkpt lat="43.36636080" lon="13.02629020">
        <ele>921.00000</ele>
        <time>2009-07-31T11:13:19Z</time>
      </trkpt>
      <trkpt lat="43.36636290" lon="13.02629000">
        <ele>921.00000</ele>
        <time>2009-07-31T11:13:20Z</time>
      </trkpt>
      <trkpt lat="43.36636480" lon="13.02629090">
        <ele>921.00000</ele>
        <time>2009-07-31T11:13:20Z</time>
      </trkpt>
      <trkpt lat="43.36636670" lon="13.02629140">
        <ele>921.00000</ele>
        <time>2009-07-31T11:13:20Z</time>
      </trkpt>
      <trkpt lat="43.36636840" lon="13.02629240">
        <ele>921.00000</ele>
        <time>2009-07-31T11:13:20Z</time>
      </trkpt>
      <trkpt lat="43.36637100" lon="13.02629340">
        <ele>921.00000</ele>
        <time>2009-07-31T11:13:20Z</time>
      </trkpt>
      <trkpt lat="43.36637470" lon="13.02629160">
        <ele>921.00000</ele>
        <time>2009-07-31T11:13:20Z</time>
      </trkpt>
      <trkpt lat="43.36637610" lon="13.02628380">
        <ele>921.00000</ele>
        <time>2009-07-31T11:13:20Z</time>
      </trkpt>
      <trkpt lat="43.36637980" lon="13.02630340">
        <ele>921.00000</ele>
        <time>2009-07-31T11:13:21Z</time>
      </trkpt>
      <trkpt lat="43.36637970" lon="13.02629760">
        <ele>921.00000</ele>
        <time>2009-07-31T11:13:21Z</time>
      </trkpt>
      <trkpt lat="43.36636000" lon="13.02628390">
        <ele>921.00000</ele>
        <time>2009-07-31T11:13:22Z</time>
      </trkpt>
      <trkpt lat="43.36634080" lon="13.02627970">
        <ele>921.00000</ele>
        <time>2009-07-31T11:13:23Z</time>
      </trkpt>
      <trkpt lat="43.36633610" lon="13.02628520">
        <ele>921.00000</ele>
        <time>2009-07-31T11:13:23Z</time>
      </trkpt>
      <trkpt lat="43.36633550" lon="13.02629490">
        <ele>921.00000</ele>
        <time>2009-07-31T11:13:23Z</time>
      </trkpt>
      <trkpt lat="43.36633560" lon="13.02629580">
        <ele>921.00000</ele>
        <time>2009-07-31T11:13:23Z</time>
      </trkpt>
      <trkpt lat="43.36633550" lon="13.02629600">
        <ele>921.00000</ele>
        <time>2009-07-31T11:13:23Z</time>
      </trkpt>
      <trkpt lat="43.36633570" lon="13.02629590">
        <ele>921.00000</ele>
        <time>2009-07-31T11:13:23Z</time>
      </trkpt>
      <trkpt lat="43.36633630" lon="13.02629470">
        <ele>921.00000</ele>
        <time>2009-07-31T11:13:23Z</time>
      </trkpt>
      <trkpt lat="43.36633780" lon="13.02629260">
        <ele>921.00000</ele>
        <time>2009-07-31T11:13:23Z</time>
      </trkpt>
      <trkpt lat="43.36633870" lon="13.02629210">
        <ele>921.00000</ele>
        <time>2009-07-31T11:13:23Z</time>
      </trkpt>
      <trkpt lat="43.36633910" lon="13.02629170">
        <ele>921.00000</ele>
        <time>2009-07-31T11:13:23Z</time>
      </trkpt>
      <trkpt lat="43.36633880" lon="13.02629240">
        <ele>921.00000</ele>
        <time>2009-07-31T11:13:23Z</time>
      </trkpt>
      <trkpt lat="43.36633930" lon="13.02629200">
        <ele>921.00000</ele>
        <time>2009-07-31T11:13:23Z</time>
      </trkpt>
      <trkpt lat="43.36633990" lon="13.02629160">
        <ele>921.00000</ele>
        <time>2009-07-31T11:13:23Z</time>
      </trkpt>
      <trkpt lat="43.36634750" lon="13.02631410">
        <ele>921.00000</ele>
        <time>2009-07-31T11:13:24Z</time>
      </trkpt>
      <trkpt lat="43.36635480" lon="13.02633640">
        <ele>921.00000</ele>
        <time>2009-07-31T11:13:25Z</time>
      </trkpt>
      <trkpt lat="43.36635190" lon="13.02633170">
        <ele>921.00000</ele>
        <time>2009-07-31T11:13:25Z</time>
      </trkpt>
      <trkpt lat="43.36635140" lon="13.02632130">
        <ele>921.00000</ele>
        <time>2009-07-31T11:13:25Z</time>
      </trkpt>
      <trkpt lat="43.36636100" lon="13.02632140">
        <ele>921.00000</ele>
        <time>2009-07-31T11:13:26Z</time>
      </trkpt>
      <trkpt lat="43.36636160" lon="13.02632160">
        <ele>921.00000</ele>
        <time>2009-07-31T11:13:26Z</time>
      </trkpt>
      <trkpt lat="43.36636170" lon="13.02632220">
        <ele>921.00000</ele>
        <time>2009-07-31T11:13:26Z</time>
      </trkpt>
      <trkpt lat="43.36635980" lon="13.02632490">
        <ele>921.00000</ele>
        <time>2009-07-31T11:13:26Z</time>
      </trkpt>
      <trkpt lat="43.36635910" lon="13.02632640">
        <ele>921.00000</ele>
        <time>2009-07-31T11:13:26Z</time>
      </trkpt>
      <trkpt lat="43.36636710" lon="13.02633570">
        <ele>921.00000</ele>
        <time>2009-07-31T11:13:26Z</time>
      </trkpt>
      <trkpt lat="43.36637960" lon="13.02636910">
        <ele>921.00000</ele>
        <time>2009-07-31T11:13:27Z</time>
      </trkpt>
      <trkpt lat="43.36638130" lon="13.02637500">
        <ele>921.00000</ele>
        <time>2009-07-31T11:13:28Z</time>
      </trkpt>
      <trkpt lat="43.36638590" lon="13.02638120">
        <ele>921.00000</ele>
        <time>2009-07-31T11:13:28Z</time>
      </trkpt>
      <trkpt lat="43.36638530" lon="13.02638190">
        <ele>921.00000</ele>
        <time>2009-07-31T11:13:28Z</time>
      </trkpt>
      <trkpt lat="43.36638410" lon="13.02638350">
        <ele>921.00000</ele>
        <time>2009-07-31T11:13:28Z</time>
      </trkpt>
      <trkpt lat="43.36636960" lon="13.02637620">
        <ele>921.00000</ele>
        <time>2009-07-31T11:13:28Z</time>
      </trkpt>
      <trkpt lat="43.36635130" lon="13.02635430">
        <ele>921.00000</ele>
        <time>2009-07-31T11:13:29Z</time>
      </trkpt>
      <trkpt lat="43.36634330" lon="13.02635510">
        <ele>921.00000</ele>
        <time>2009-07-31T11:13:30Z</time>
      </trkpt>
      <trkpt lat="43.36635220" lon="13.02636620">
        <ele>921.00000</ele>
        <time>2009-07-31T11:13:30Z</time>
      </trkpt>
      <trkpt lat="43.36635910" lon="13.02639170">
        <ele>921.00000</ele>
        <time>2009-07-31T11:13:31Z</time>
      </trkpt>
      <trkpt lat="43.36637160" lon="13.02641940">
        <ele>921.00000</ele>
        <time>2009-07-31T11:13:32Z</time>
      </trkpt>
      <trkpt lat="43.36638080" lon="13.02644160">
        <ele>921.00000</ele>
        <time>2009-07-31T11:13:33Z</time>
      </trkpt>
      <trkpt lat="43.36638500" lon="13.02646380">
        <ele>921.00000</ele>
        <time>2009-07-31T11:13:33Z</time>
      </trkpt>
      <trkpt lat="43.36638350" lon="13.02649040">
        <ele>921.00000</ele>
        <time>2009-07-31T11:13:34Z</time>
      </trkpt>
      <trkpt lat="43.36638630" lon="13.02650900">
        <ele>921.00000</ele>
        <time>2009-07-31T11:13:35Z</time>
      </trkpt>
      <trkpt lat="43.36639180" lon="13.02650190">
        <ele>921.00000</ele>
        <time>2009-07-31T11:13:35Z</time>
      </trkpt>
      <trkpt lat="43.36639000" lon="13.02649580">
        <ele>921.00000</ele>
        <time>2009-07-31T11:13:35Z</time>
      </trkpt>
      <trkpt lat="43.36639170" lon="13.02648130">
        <ele>921.00000</ele>
        <time>2009-07-31T11:13:36Z</time>
      </trkpt>
      <trkpt lat="43.36639110" lon="13.02646600">
        <ele>921.00000</ele>
        <time>2009-07-31T11:13:36Z</time>
      </trkpt>
      <trkpt lat="43.36639460" lon="13.02646610">
        <ele>921.00000</ele>
        <time>2009-07-31T11:13:36Z</time>
      </trkpt>
      <trkpt lat="43.36639950" lon="13.02646910">
        <ele>921.00000</ele>
        <time>2009-07-31T11:13:36Z</time>
      </trkpt>
      <trkpt lat="43.36639940" lon="13.02646870">
        <ele>921.00000</ele>
        <time>2009-07-31T11:13:36Z</time>
      </trkpt>
      <trkpt lat="43.36639890" lon="13.02646980">
        <ele>921.00000</ele>
        <time>2009-07-31T11:13:37Z</time>
      </trkpt>
      <trkpt lat="43.36639690" lon="13.02647360">
        <ele>921.00000</ele>
        <time>2009-07-31T11:13:37Z</time>
      </trkpt>
      <trkpt lat="43.36639740" lon="13.02647390">
        <ele>921.00000</ele>
        <time>2009-07-31T11:13:37Z</time>
      </trkpt>
      <trkpt lat="43.36640060" lon="13.02649340">
        <ele>921.00000</ele>
        <time>2009-07-31T11:13:37Z</time>
      </trkpt>
      <trkpt lat="43.36641110" lon="13.02652580">
        <ele>921.00000</ele>
        <time>2009-07-31T11:13:38Z</time>
      </trkpt>
      <trkpt lat="43.36641460" lon="13.02655040">
        <ele>921.00000</ele>
        <time>2009-07-31T11:13:39Z</time>
      </trkpt>
      <trkpt lat="43.36641810" lon="13.02657720">
        <ele>921.00000</ele>
        <time>2009-07-31T11:13:40Z</time>
      </trkpt>
      <trkpt lat="43.36642540" lon="13.02660880">
        <ele>921.00000</ele>
        <time>2009-07-31T11:13:41Z</time>
      </trkpt>
      <trkpt lat="43.36643640" lon="13.02664050">
        <ele>921.00000</ele>
        <time>2009-07-31T11:13:42Z</time>
      </trkpt>
      <trkpt lat="43.36644990" lon="13.02667560">
        <ele>921.00000</ele>
        <time>2009-07-31T11:13:43Z</time>
      </trkpt>
      <trkpt lat="43.36645380" lon="13.02670200">
        <ele>921.00000</ele>
        <time>2009-07-31T11:13:44Z</time>
      </trkpt>
      <trkpt lat="43.36643400" lon="13.02671210">
        <ele>921.00000</ele>
        <time>2009-07-31T11:13:45Z</time>
      </trkpt>
      <trkpt lat="43.36642820" lon="13.02671930">
        <ele>921.00000</ele>
        <time>2009-07-31T11:13:45Z</time>
      </trkpt>
      <trkpt lat="43.36644140" lon="13.02674130">
        <ele>921.00000</ele>
        <time>2009-07-31T11:13:46Z</time>
      </trkpt>
      <trkpt lat="43.36645950" lon="13.02674620">
        <ele>921.00000</ele>
        <time>2009-07-31T11:13:46Z</time>
      </trkpt>
      <trkpt lat="43.36647500" lon="13.02674220">
        <ele>921.00000</ele>
        <time>2009-07-31T11:13:47Z</time>
      </trkpt>
      <trkpt lat="43.36648940" lon="13.02674010">
        <ele>921.00000</ele>
        <time>2009-07-31T11:13:48Z</time>
      </trkpt>
      <trkpt lat="43.36651130" lon="13.02673810">
        <ele>921.00000</ele>
        <time>2009-07-31T11:13:49Z</time>
      </trkpt>
      <trkpt lat="43.36652970" lon="13.02674000">
        <ele>921.00000</ele>
        <time>2009-07-31T11:13:49Z</time>
      </trkpt>
      <trkpt lat="43.36654920" lon="13.02673690">
        <ele>921.00000</ele>
        <time>2009-07-31T11:13:50Z</time>
      </trkpt>
      <trkpt lat="43.36657420" lon="13.02673840">
        <ele>921.00000</ele>
        <time>2009-07-31T11:13:51Z</time>
      </trkpt>
      <trkpt lat="43.36659740" lon="13.02672780">
        <ele>921.00000</ele>
        <time>2009-07-31T11:13:52Z</time>
      </trkpt>
      <trkpt lat="43.36662180" lon="13.02673320">
        <ele>921.00000</ele>
        <time>2009-07-31T11:13:53Z</time>
      </trkpt>
      <trkpt lat="43.36664420" lon="13.02673690">
        <ele>921.00000</ele>
        <time>2009-07-31T11:13:54Z</time>
      </trkpt>
      <trkpt lat="43.36666770" lon="13.02674300">
        <ele>921.00000</ele>
        <time>2009-07-31T11:13:55Z</time>
      </trkpt>
      <trkpt lat="43.36669260" lon="13.02674610">
        <ele>921.00000</ele>
        <time>2009-07-31T11:13:56Z</time>
      </trkpt>
      <trkpt lat="43.36671310" lon="13.02676650">
        <ele>921.00000</ele>
        <time>2009-07-31T11:13:57Z</time>
      </trkpt>
      <trkpt lat="43.36673080" lon="13.02678060">
        <ele>921.00000</ele>
        <time>2009-07-31T11:13:58Z</time>
      </trkpt>
      <trkpt lat="43.36674990" lon="13.02679140">
        <ele>921.00000</ele>
        <time>2009-07-31T11:13:59Z</time>
      </trkpt>
      <trkpt lat="43.36676230" lon="13.02680800">
        <ele>921.00000</ele>
        <time>2009-07-31T11:13:59Z</time>
      </trkpt>
      <trkpt lat="43.36677880" lon="13.02681510">
        <ele>921.00000</ele>
        <time>2009-07-31T11:14:00Z</time>
      </trkpt>
      <trkpt lat="43.36680130" lon="13.02682440">
        <ele>921.00000</ele>
        <time>2009-07-31T11:14:01Z</time>
      </trkpt>
      <trkpt lat="43.36682160" lon="13.02683120">
        <ele>921.00000</ele>
        <time>2009-07-31T11:14:02Z</time>
      </trkpt>
      <trkpt lat="43.36683800" lon="13.02683020">
        <ele>921.00000</ele>
        <time>2009-07-31T11:14:02Z</time>
      </trkpt>
      <trkpt lat="43.36685680" lon="13.02684860">
        <ele>921.00000</ele>
        <time>2009-07-31T11:14:03Z</time>
      </trkpt>
      <trkpt lat="43.36688620" lon="13.02685940">
        <ele>921.00000</ele>
        <time>2009-07-31T11:14:05Z</time>
      </trkpt>
      <trkpt lat="43.36689330" lon="13.02686370">
        <ele>921.00000</ele>
        <time>2009-07-31T11:14:05Z</time>
      </trkpt>
      <trkpt lat="43.36691520" lon="13.02688390">
        <ele>921.00000</ele>
        <time>2009-07-31T11:14:06Z</time>
      </trkpt>
      <trkpt lat="43.36693610" lon="13.02691040">
        <ele>921.00000</ele>
        <time>2009-07-31T11:14:07Z</time>
      </trkpt>
      <trkpt lat="43.36694800" lon="13.02693140">
        <ele>921.00000</ele>
        <time>2009-07-31T11:14:08Z</time>
      </trkpt>
      <trkpt lat="43.36696270" lon="13.02695190">
        <ele>921.00000</ele>
        <time>2009-07-31T11:14:09Z</time>
      </trkpt>
      <trkpt lat="43.36698260" lon="13.02696750">
        <ele>921.00000</ele>
        <time>2009-07-31T11:14:10Z</time>
      </trkpt>
      <trkpt lat="43.36700470" lon="13.02699290">
        <ele>921.00000</ele>
        <time>2009-07-31T11:14:11Z</time>
      </trkpt>
      <trkpt lat="43.36702170" lon="13.02700000">
        <ele>921.00000</ele>
        <time>2009-07-31T11:14:11Z</time>
      </trkpt>
      <trkpt lat="43.36702870" lon="13.02701270">
        <ele>921.00000</ele>
        <time>2009-07-31T11:14:12Z</time>
      </trkpt>
      <trkpt lat="43.36706370" lon="13.02702030">
        <ele>921.00000</ele>
        <time>2009-07-31T11:14:13Z</time>
      </trkpt>
      <trkpt lat="43.36709010" lon="13.02703700">
        <ele>917.00000</ele>
        <time>2009-07-31T11:14:14Z</time>
      </trkpt>
      <trkpt lat="43.36710940" lon="13.02704210">
        <ele>917.00000</ele>
        <time>2009-07-31T11:14:15Z</time>
      </trkpt>
      <trkpt lat="43.36713000" lon="13.02705020">
        <ele>917.00000</ele>
        <time>2009-07-31T11:14:16Z</time>
      </trkpt>
      <trkpt lat="43.36714720" lon="13.02706140">
        <ele>917.00000</ele>
        <time>2009-07-31T11:14:17Z</time>
      </trkpt>
      <trkpt lat="43.36716660" lon="13.02707000">
        <ele>917.00000</ele>
        <time>2009-07-31T11:14:18Z</time>
      </trkpt>
      <trkpt lat="43.36718970" lon="13.02708400">
        <ele>911.00000</ele>
        <time>2009-07-31T11:14:19Z</time>
      </trkpt>
      <trkpt lat="43.36721130" lon="13.02709090">
        <ele>911.00000</ele>
        <time>2009-07-31T11:14:20Z</time>
      </trkpt>
      <trkpt lat="43.36723340" lon="13.02710440">
        <ele>911.00000</ele>
        <time>2009-07-31T11:14:21Z</time>
      </trkpt>
      <trkpt lat="43.36724870" lon="13.02711940">
        <ele>911.00000</ele>
        <time>2009-07-31T11:14:21Z</time>
      </trkpt>
      <trkpt lat="43.36726190" lon="13.02714360">
        <ele>911.00000</ele>
        <time>2009-07-31T11:14:22Z</time>
      </trkpt>
      <trkpt lat="43.36727900" lon="13.02716250">
        <ele>911.00000</ele>
        <time>2009-07-31T11:14:23Z</time>
      </trkpt>
      <trkpt lat="43.36730640" lon="13.02718520">
        <ele>911.00000</ele>
        <time>2009-07-31T11:14:24Z</time>
      </trkpt>
      <trkpt lat="43.36730690" lon="13.02720200">
        <ele>911.00000</ele>
        <time>2009-07-31T11:14:25Z</time>
      </trkpt>
      <trkpt lat="43.36733750" lon="13.02722840">
        <ele>911.00000</ele>
        <time>2009-07-31T11:14:26Z</time>
      </trkpt>
      <trkpt lat="43.36735180" lon="13.02724640">
        <ele>911.00000</ele>
        <time>2009-07-31T11:14:27Z</time>
      </trkpt>
      <trkpt lat="43.36736510" lon="13.02726480">
        <ele>911.00000</ele>
        <time>2009-07-31T11:14:28Z</time>
      </trkpt>
      <trkpt lat="43.36737590" lon="13.02728550">
        <ele>911.00000</ele>
        <time>2009-07-31T11:14:29Z</time>
      </trkpt>
      <trkpt lat="43.36740870" lon="13.02729730">
        <ele>911.00000</ele>
        <time>2009-07-31T11:14:30Z</time>
      </trkpt>
      <trkpt lat="43.36744700" lon="13.02732450">
        <ele>911.00000</ele>
        <time>2009-07-31T11:14:32Z</time>
      </trkpt>
      <trkpt lat="43.36747570" lon="13.02734680">
        <ele>911.00000</ele>
        <time>2009-07-31T11:14:33Z</time>
      </trkpt>
      <trkpt lat="43.36748940" lon="13.02736810">
        <ele>911.00000</ele>
        <time>2009-07-31T11:14:34Z</time>
      </trkpt>
      <trkpt lat="43.36751630" lon="13.02739010">
        <ele>911.00000</ele>
        <time>2009-07-31T11:14:35Z</time>
      </trkpt>
      <trkpt lat="43.36754440" lon="13.02740520">
        <ele>911.00000</ele>
        <time>2009-07-31T11:14:36Z</time>
      </trkpt>
      <trkpt lat="43.36756860" lon="13.02742500">
        <ele>911.00000</ele>
        <time>2009-07-31T11:14:37Z</time>
      </trkpt>
      <trkpt lat="43.36759420" lon="13.02744190">
        <ele>911.00000</ele>
        <time>2009-07-31T11:14:39Z</time>
      </trkpt>
      <trkpt lat="43.36761970" lon="13.02744950">
        <ele>911.00000</ele>
        <time>2009-07-31T11:14:40Z</time>
      </trkpt>
      <trkpt lat="43.36764370" lon="13.02746980">
        <ele>911.00000</ele>
        <time>2009-07-31T11:14:41Z</time>
      </trkpt>
      <trkpt lat="43.36766090" lon="13.02748270">
        <ele>911.00000</ele>
        <time>2009-07-31T11:14:41Z</time>
      </trkpt>
      <trkpt lat="43.36767770" lon="13.02748980">
        <ele>911.00000</ele>
        <time>2009-07-31T11:14:42Z</time>
      </trkpt>
      <trkpt lat="43.36769760" lon="13.02749260">
        <ele>911.00000</ele>
        <time>2009-07-31T11:14:43Z</time>
      </trkpt>
      <trkpt lat="43.36772130" lon="13.02749350">
        <ele>911.00000</ele>
        <time>2009-07-31T11:14:44Z</time>
      </trkpt>
      <trkpt lat="43.36773740" lon="13.02748410">
        <ele>911.00000</ele>
        <time>2009-07-31T11:14:45Z</time>
      </trkpt>
      <trkpt lat="43.36775360" lon="13.02748090">
        <ele>911.00000</ele>
        <time>2009-07-31T11:14:45Z</time>
      </trkpt>
      <trkpt lat="43.36778120" lon="13.02748400">
        <ele>911.00000</ele>
        <time>2009-07-31T11:14:46Z</time>
      </trkpt>
      <trkpt lat="43.36780200" lon="13.02747210">
        <ele>911.00000</ele>
        <time>2009-07-31T11:14:47Z</time>
      </trkpt>
      <trkpt lat="43.36781830" lon="13.02745100">
        <ele>911.00000</ele>
        <time>2009-07-31T11:14:48Z</time>
      </trkpt>
      <trkpt lat="43.36784030" lon="13.02744440">
        <ele>911.00000</ele>
        <time>2009-07-31T11:14:49Z</time>
      </trkpt>
      <trkpt lat="43.36786660" lon="13.02743180">
        <ele>911.00000</ele>
        <time>2009-07-31T11:14:50Z</time>
      </trkpt>
      <trkpt lat="43.36789440" lon="13.02743090">
        <ele>911.00000</ele>
        <time>2009-07-31T11:14:51Z</time>
      </trkpt>
      <trkpt lat="43.36790500" lon="13.02739130">
        <ele>911.00000</ele>
        <time>2009-07-31T11:14:53Z</time>
      </trkpt>
      <trkpt lat="43.36792630" lon="13.02737120">
        <ele>913.00000</ele>
        <time>2009-07-31T11:14:54Z</time>
      </trkpt>
      <trkpt lat="43.36795340" lon="13.02735880">
        <ele>913.00000</ele>
        <time>2009-07-31T11:14:55Z</time>
      </trkpt>
      <trkpt lat="43.36797150" lon="13.02733970">
        <ele>913.00000</ele>
        <time>2009-07-31T11:14:56Z</time>
      </trkpt>
      <trkpt lat="43.36799110" lon="13.02732980">
        <ele>913.00000</ele>
        <time>2009-07-31T11:14:56Z</time>
      </trkpt>
      <trkpt lat="43.36801890" lon="13.02732410">
        <ele>913.00000</ele>
        <time>2009-07-31T11:14:58Z</time>
      </trkpt>
      <trkpt lat="43.36803990" lon="13.02731180">
        <ele>913.00000</ele>
        <time>2009-07-31T11:14:58Z</time>
      </trkpt>
      <trkpt lat="43.36806220" lon="13.02730850">
        <ele>913.00000</ele>
        <time>2009-07-31T11:14:59Z</time>
      </trkpt>
      <trkpt lat="43.36808020" lon="13.02728570">
        <ele>913.00000</ele>
        <time>2009-07-31T11:15:00Z</time>
      </trkpt>
      <trkpt lat="43.36810250" lon="13.02726440">
        <ele>913.00000</ele>
        <time>2009-07-31T11:15:01Z</time>
      </trkpt>
      <trkpt lat="43.36812000" lon="13.02724550">
        <ele>913.00000</ele>
        <time>2009-07-31T11:15:02Z</time>
      </trkpt>
      <trkpt lat="43.36813220" lon="13.02722080">
        <ele>913.00000</ele>
        <time>2009-07-31T11:15:03Z</time>
      </trkpt>
      <trkpt lat="43.36814840" lon="13.02720250">
        <ele>913.00000</ele>
        <time>2009-07-31T11:15:04Z</time>
      </trkpt>
      <trkpt lat="43.36817230" lon="13.02718740">
        <ele>913.00000</ele>
        <time>2009-07-31T11:15:05Z</time>
      </trkpt>
      <trkpt lat="43.36819170" lon="13.02716330">
        <ele>913.00000</ele>
        <time>2009-07-31T11:15:06Z</time>
      </trkpt>
      <trkpt lat="43.36820280" lon="13.02714610">
        <ele>913.00000</ele>
        <time>2009-07-31T11:15:07Z</time>
      </trkpt>
      <trkpt lat="43.36821740" lon="13.02712110">
        <ele>913.00000</ele>
        <time>2009-07-31T11:15:08Z</time>
      </trkpt>
      <trkpt lat="43.36822820" lon="13.02708600">
        <ele>913.00000</ele>
        <time>2009-07-31T11:15:09Z</time>
      </trkpt>
      <trkpt lat="43.36824050" lon="13.02706030">
        <ele>908.00000</ele>
        <time>2009-07-31T11:15:10Z</time>
      </trkpt>
      <trkpt lat="43.36825660" lon="13.02703660">
        <ele>908.00000</ele>
        <time>2009-07-31T11:15:11Z</time>
      </trkpt>
      <trkpt lat="43.36826350" lon="13.02700730">
        <ele>908.00000</ele>
        <time>2009-07-31T11:15:12Z</time>
      </trkpt>
      <trkpt lat="43.36828530" lon="13.02699040">
        <ele>908.00000</ele>
        <time>2009-07-31T11:15:13Z</time>
      </trkpt>
      <trkpt lat="43.36830530" lon="13.02697550">
        <ele>908.00000</ele>
        <time>2009-07-31T11:15:14Z</time>
      </trkpt>
      <trkpt lat="43.36831380" lon="13.02694050">
        <ele>908.00000</ele>
        <time>2009-07-31T11:15:15Z</time>
      </trkpt>
      <trkpt lat="43.36833140" lon="13.02691270">
        <ele>908.00000</ele>
        <time>2009-07-31T11:15:16Z</time>
      </trkpt>
      <trkpt lat="43.36834070" lon="13.02690320">
        <ele>908.00000</ele>
        <time>2009-07-31T11:15:16Z</time>
      </trkpt>
      <trkpt lat="43.36834610" lon="13.02688660">
        <ele>908.00000</ele>
        <time>2009-07-31T11:15:17Z</time>
      </trkpt>
      <trkpt lat="43.36835710" lon="13.02686520">
        <ele>908.00000</ele>
        <time>2009-07-31T11:15:17Z</time>
      </trkpt>
      <trkpt lat="43.36837740" lon="13.02684020">
        <ele>908.00000</ele>
        <time>2009-07-31T11:15:19Z</time>
      </trkpt>
      <trkpt lat="43.36838900" lon="13.02681540">
        <ele>908.00000</ele>
        <time>2009-07-31T11:15:19Z</time>
      </trkpt>
      <trkpt lat="43.36839790" lon="13.02679470">
        <ele>908.00000</ele>
        <time>2009-07-31T11:15:20Z</time>
      </trkpt>
      <trkpt lat="43.36841090" lon="13.02677230">
        <ele>908.00000</ele>
        <time>2009-07-31T11:15:21Z</time>
      </trkpt>
      <trkpt lat="43.36842520" lon="13.02674700">
        <ele>908.00000</ele>
        <time>2009-07-31T11:15:22Z</time>
      </trkpt>
      <trkpt lat="43.36843940" lon="13.02671680">
        <ele>908.00000</ele>
        <time>2009-07-31T11:15:23Z</time>
      </trkpt>
      <trkpt lat="43.36847120" lon="13.02669650">
        <ele>908.00000</ele>
        <time>2009-07-31T11:15:24Z</time>
      </trkpt>
      <trkpt lat="43.36851360" lon="13.02669280">
        <ele>908.00000</ele>
        <time>2009-07-31T11:15:26Z</time>
      </trkpt>
      <trkpt lat="43.36852600" lon="13.02668030">
        <ele>908.00000</ele>
        <time>2009-07-31T11:15:27Z</time>
      </trkpt>
      <trkpt lat="43.36854820" lon="13.02666910">
        <ele>908.00000</ele>
        <time>2009-07-31T11:15:28Z</time>
      </trkpt>
      <trkpt lat="43.36856450" lon="13.02665360">
        <ele>908.00000</ele>
        <time>2009-07-31T11:15:28Z</time>
      </trkpt>
      <trkpt lat="43.36858720" lon="13.02664370">
        <ele>908.00000</ele>
        <time>2009-07-31T11:15:29Z</time>
      </trkpt>
      <trkpt lat="43.36861730" lon="13.02662890">
        <ele>908.00000</ele>
        <time>2009-07-31T11:15:31Z</time>
      </trkpt>
      <trkpt lat="43.36863400" lon="13.02660660">
        <ele>908.00000</ele>
        <time>2009-07-31T11:15:32Z</time>
      </trkpt>
      <trkpt lat="43.36864850" lon="13.02659370">
        <ele>908.00000</ele>
        <time>2009-07-31T11:15:32Z</time>
      </trkpt>
      <trkpt lat="43.36866500" lon="13.02658880">
        <ele>908.00000</ele>
        <time>2009-07-31T11:15:33Z</time>
      </trkpt>
      <trkpt lat="43.36869460" lon="13.02657450">
        <ele>908.00000</ele>
        <time>2009-07-31T11:15:34Z</time>
      </trkpt>
      <trkpt lat="43.36871860" lon="13.02655960">
        <ele>908.00000</ele>
        <time>2009-07-31T11:15:35Z</time>
      </trkpt>
      <trkpt lat="43.36874620" lon="13.02655910">
        <ele>908.00000</ele>
        <time>2009-07-31T11:15:36Z</time>
      </trkpt>
      <trkpt lat="43.36876670" lon="13.02654180">
        <ele>915.00000</ele>
        <time>2009-07-31T11:15:37Z</time>
      </trkpt>
      <trkpt lat="43.36879000" lon="13.02653030">
        <ele>915.00000</ele>
        <time>2009-07-31T11:15:38Z</time>
      </trkpt>
      <trkpt lat="43.36880980" lon="13.02650500">
        <ele>915.00000</ele>
        <time>2009-07-31T11:15:39Z</time>
      </trkpt>
      <trkpt lat="43.36882180" lon="13.02647190">
        <ele>915.00000</ele>
        <time>2009-07-31T11:15:40Z</time>
      </trkpt>
      <trkpt lat="43.36885900" lon="13.02648230">
        <ele>915.00000</ele>
        <time>2009-07-31T11:15:42Z</time>
      </trkpt>
      <trkpt lat="43.36887910" lon="13.02646600">
        <ele>915.00000</ele>
        <time>2009-07-31T11:15:43Z</time>
      </trkpt>
      <trkpt lat="43.36889680" lon="13.02642040">
        <ele>915.00000</ele>
        <time>2009-07-31T11:15:44Z</time>
      </trkpt>
      <trkpt lat="43.36892040" lon="13.02639790">
        <ele>915.00000</ele>
        <time>2009-07-31T11:15:46Z</time>
      </trkpt>
      <trkpt lat="43.36895120" lon="13.02640920">
        <ele>915.00000</ele>
        <time>2009-07-31T11:15:47Z</time>
      </trkpt>
      <trkpt lat="43.36897090" lon="13.02638720">
        <ele>915.00000</ele>
        <time>2009-07-31T11:15:48Z</time>
      </trkpt>
      <trkpt lat="43.36898830" lon="13.02635230">
        <ele>915.00000</ele>
        <time>2009-07-31T11:15:49Z</time>
      </trkpt>
      <trkpt lat="43.36899990" lon="13.02631160">
        <ele>915.00000</ele>
        <time>2009-07-31T11:15:50Z</time>
      </trkpt>
      <trkpt lat="43.36901060" lon="13.02626780">
        <ele>915.00000</ele>
        <time>2009-07-31T11:15:52Z</time>
      </trkpt>
      <trkpt lat="43.36902580" lon="13.02624830">
        <ele>899.00000</ele>
        <time>2009-07-31T11:15:52Z</time>
      </trkpt>
      <trkpt lat="43.36904120" lon="13.02623780">
        <ele>899.00000</ele>
        <time>2009-07-31T11:15:53Z</time>
      </trkpt>
      <trkpt lat="43.36905460" lon="13.02621600">
        <ele>899.00000</ele>
        <time>2009-07-31T11:15:54Z</time>
      </trkpt>
      <trkpt lat="43.36907870" lon="13.02622000">
        <ele>899.00000</ele>
        <time>2009-07-31T11:15:55Z</time>
      </trkpt>
      <trkpt lat="43.36910640" lon="13.02620850">
        <ele>899.00000</ele>
        <time>2009-07-31T11:15:56Z</time>
      </trkpt>
      <trkpt lat="43.36913640" lon="13.02617600">
        <ele>899.00000</ele>
        <time>2009-07-31T11:15:58Z</time>
      </trkpt>
      <trkpt lat="43.36916660" lon="13.02617330">
        <ele>899.00000</ele>
        <time>2009-07-31T11:15:59Z</time>
      </trkpt>
      <trkpt lat="43.36918670" lon="13.02615640">
        <ele>899.00000</ele>
        <time>2009-07-31T11:16:00Z</time>
      </trkpt>
      <trkpt lat="43.36920290" lon="13.02613460">
        <ele>899.00000</ele>
        <time>2009-07-31T11:16:01Z</time>
      </trkpt>
      <trkpt lat="43.36923670" lon="13.02612800">
        <ele>899.00000</ele>
        <time>2009-07-31T11:16:02Z</time>
      </trkpt>
      <trkpt lat="43.36925750" lon="13.02610320">
        <ele>899.00000</ele>
        <time>2009-07-31T11:16:03Z</time>
      </trkpt>
      <trkpt lat="43.36927510" lon="13.02607850">
        <ele>899.00000</ele>
        <time>2009-07-31T11:16:04Z</time>
      </trkpt>
      <trkpt lat="43.36931090" lon="13.02607920">
        <ele>899.00000</ele>
        <time>2009-07-31T11:16:06Z</time>
      </trkpt>
      <trkpt lat="43.36932450" lon="13.02604330">
        <ele>899.00000</ele>
        <time>2009-07-31T11:16:07Z</time>
      </trkpt>
      <trkpt lat="43.36935510" lon="13.02603560">
        <ele>899.00000</ele>
        <time>2009-07-31T11:16:08Z</time>
      </trkpt>
      <trkpt lat="43.36938090" lon="13.02602590">
        <ele>899.00000</ele>
        <time>2009-07-31T11:16:09Z</time>
      </trkpt>
      <trkpt lat="43.36939790" lon="13.02601180">
        <ele>899.00000</ele>
        <time>2009-07-31T11:16:10Z</time>
      </trkpt>
      <trkpt lat="43.36941050" lon="13.02598750">
        <ele>899.00000</ele>
        <time>2009-07-31T11:16:11Z</time>
      </trkpt>
      <trkpt lat="43.36943710" lon="13.02597750">
        <ele>899.00000</ele>
        <time>2009-07-31T11:16:12Z</time>
      </trkpt>
      <trkpt lat="43.36946180" lon="13.02597050">
        <ele>899.00000</ele>
        <time>2009-07-31T11:16:13Z</time>
      </trkpt>
      <trkpt lat="43.36948810" lon="13.02597740">
        <ele>899.00000</ele>
        <time>2009-07-31T11:16:14Z</time>
      </trkpt>
      <trkpt lat="43.36950410" lon="13.02595900">
        <ele>899.00000</ele>
        <time>2009-07-31T11:16:15Z</time>
      </trkpt>
      <trkpt lat="43.36953470" lon="13.02595010">
        <ele>899.00000</ele>
        <time>2009-07-31T11:16:16Z</time>
      </trkpt>
      <trkpt lat="43.36955130" lon="13.02593400">
        <ele>899.00000</ele>
        <time>2009-07-31T11:16:17Z</time>
      </trkpt>
      <trkpt lat="43.36956520" lon="13.02591560">
        <ele>899.00000</ele>
        <time>2009-07-31T11:16:18Z</time>
      </trkpt>
      <trkpt lat="43.36958630" lon="13.02589480">
        <ele>900.00000</ele>
        <time>2009-07-31T11:16:19Z</time>
      </trkpt>
      <trkpt lat="43.36961220" lon="13.02588670">
        <ele>900.00000</ele>
        <time>2009-07-31T11:16:20Z</time>
      </trkpt>
      <trkpt lat="43.36963300" lon="13.02587480">
        <ele>900.00000</ele>
        <time>2009-07-31T11:16:21Z</time>
      </trkpt>
      <trkpt lat="43.36965510" lon="13.02588290">
        <ele>900.00000</ele>
        <time>2009-07-31T11:16:22Z</time>
      </trkpt>
      <trkpt lat="43.36967960" lon="13.02587460">
        <ele>900.00000</ele>
        <time>2009-07-31T11:16:23Z</time>
      </trkpt>
      <trkpt lat="43.36969710" lon="13.02584970">
        <ele>900.00000</ele>
        <time>2009-07-31T11:16:24Z</time>
      </trkpt>
      <trkpt lat="43.36972260" lon="13.02584350">
        <ele>900.00000</ele>
        <time>2009-07-31T11:16:25Z</time>
      </trkpt>
      <trkpt lat="43.36974830" lon="13.02583420">
        <ele>900.00000</ele>
        <time>2009-07-31T11:16:26Z</time>
      </trkpt>
      <trkpt lat="43.36976410" lon="13.02581060">
        <ele>900.00000</ele>
        <time>2009-07-31T11:16:27Z</time>
      </trkpt>
      <trkpt lat="43.36978490" lon="13.02578840">
        <ele>900.00000</ele>
        <time>2009-07-31T11:16:28Z</time>
      </trkpt>
      <trkpt lat="43.36979730" lon="13.02574310">
        <ele>900.00000</ele>
        <time>2009-07-31T11:16:29Z</time>
      </trkpt>
      <trkpt lat="43.36982100" lon="13.02574460">
        <ele>900.00000</ele>
        <time>2009-07-31T11:16:30Z</time>
      </trkpt>
      <trkpt lat="43.36984980" lon="13.02575300">
        <ele>900.00000</ele>
        <time>2009-07-31T11:16:31Z</time>
      </trkpt>
      <trkpt lat="43.36987010" lon="13.02572790">
        <ele>900.00000</ele>
        <time>2009-07-31T11:16:32Z</time>
      </trkpt>
      <trkpt lat="43.36989000" lon="13.02570840">
        <ele>900.00000</ele>
        <time>2009-07-31T11:16:33Z</time>
      </trkpt>
      <trkpt lat="43.36991030" lon="13.02569630">
        <ele>900.00000</ele>
        <time>2009-07-31T11:16:34Z</time>
      </trkpt>
      <trkpt lat="43.36992750" lon="13.02568660">
        <ele>900.00000</ele>
        <time>2009-07-31T11:16:35Z</time>
      </trkpt>
      <trkpt lat="43.36995680" lon="13.02568450">
        <ele>900.00000</ele>
        <time>2009-07-31T11:16:36Z</time>
      </trkpt>
      <trkpt lat="43.36998410" lon="13.02568230">
        <ele>900.00000</ele>
        <time>2009-07-31T11:16:37Z</time>
      </trkpt>
      <trkpt lat="43.37001010" lon="13.02567740">
        <ele>900.00000</ele>
        <time>2009-07-31T11:16:38Z</time>
      </trkpt>
      <trkpt lat="43.37002510" lon="13.02566940">
        <ele>900.00000</ele>
        <time>2009-07-31T11:16:39Z</time>
      </trkpt>
      <trkpt lat="43.37004500" lon="13.02567110">
        <ele>900.00000</ele>
        <time>2009-07-31T11:16:40Z</time>
      </trkpt>
      <trkpt lat="43.37006130" lon="13.02566300">
        <ele>900.00000</ele>
        <time>2009-07-31T11:16:40Z</time>
      </trkpt>
      <trkpt lat="43.37007170" lon="13.02563930">
        <ele>900.00000</ele>
        <time>2009-07-31T11:16:41Z</time>
      </trkpt>
      <trkpt lat="43.37009330" lon="13.02564230">
        <ele>900.00000</ele>
        <time>2009-07-31T11:16:42Z</time>
      </trkpt>
      <trkpt lat="43.37011180" lon="13.02562450">
        <ele>900.00000</ele>
        <time>2009-07-31T11:16:43Z</time>
      </trkpt>
      <trkpt lat="43.37013110" lon="13.02561890">
        <ele>900.00000</ele>
        <time>2009-07-31T11:16:44Z</time>
      </trkpt>
      <trkpt lat="43.37014710" lon="13.02561060">
        <ele>900.00000</ele>
        <time>2009-07-31T11:16:44Z</time>
      </trkpt>
      <trkpt lat="43.37016930" lon="13.02561660">
        <ele>900.00000</ele>
        <time>2009-07-31T11:16:45Z</time>
      </trkpt>
      <trkpt lat="43.37018490" lon="13.02560290">
        <ele>900.00000</ele>
        <time>2009-07-31T11:16:46Z</time>
      </trkpt>
      <trkpt lat="43.37019990" lon="13.02559830">
        <ele>900.00000</ele>
        <time>2009-07-31T11:16:47Z</time>
      </trkpt>
      <trkpt lat="43.37024080" lon="13.02560310">
        <ele>900.00000</ele>
        <time>2009-07-31T11:16:48Z</time>
      </trkpt>
      <trkpt lat="43.37026500" lon="13.02559090">
        <ele>900.00000</ele>
        <time>2009-07-31T11:16:49Z</time>
      </trkpt>
      <trkpt lat="43.37028900" lon="13.02560020">
        <ele>900.00000</ele>
        <time>2009-07-31T11:16:50Z</time>
      </trkpt>
      <trkpt lat="43.37031240" lon="13.02560740">
        <ele>900.00000</ele>
        <time>2009-07-31T11:16:51Z</time>
      </trkpt>
      <trkpt lat="43.37033610" lon="13.02560120">
        <ele>900.00000</ele>
        <time>2009-07-31T11:16:52Z</time>
      </trkpt>
      <trkpt lat="43.37036380" lon="13.02559700">
        <ele>900.00000</ele>
        <time>2009-07-31T11:16:53Z</time>
      </trkpt>
      <trkpt lat="43.37037880" lon="13.02559600">
        <ele>900.00000</ele>
        <time>2009-07-31T11:16:54Z</time>
      </trkpt>
      <trkpt lat="43.37040340" lon="13.02558770">
        <ele>900.00000</ele>
        <time>2009-07-31T11:16:55Z</time>
      </trkpt>
      <trkpt lat="43.37043660" lon="13.02558770">
        <ele>896.00000</ele>
        <time>2009-07-31T11:16:56Z</time>
      </trkpt>
      <trkpt lat="43.37046680" lon="13.02558710">
        <ele>896.00000</ele>
        <time>2009-07-31T11:16:58Z</time>
      </trkpt>
      <trkpt lat="43.37048380" lon="13.02557980">
        <ele>896.00000</ele>
        <time>2009-07-31T11:16:58Z</time>
      </trkpt>
      <trkpt lat="43.37050420" lon="13.02556700">
        <ele>896.00000</ele>
        <time>2009-07-31T11:16:59Z</time>
      </trkpt>
      <trkpt lat="43.37052390" lon="13.02556290">
        <ele>896.00000</ele>
        <time>2009-07-31T11:17:00Z</time>
      </trkpt>
      <trkpt lat="43.37055780" lon="13.02556670">
        <ele>896.00000</ele>
        <time>2009-07-31T11:17:01Z</time>
      </trkpt>
      <trkpt lat="43.37058700" lon="13.02556020">
        <ele>896.00000</ele>
        <time>2009-07-31T11:17:02Z</time>
      </trkpt>
      <trkpt lat="43.37060720" lon="13.02558390">
        <ele>896.00000</ele>
        <time>2009-07-31T11:17:04Z</time>
      </trkpt>
      <trkpt lat="43.37063220" lon="13.02557760">
        <ele>896.00000</ele>
        <time>2009-07-31T11:17:05Z</time>
      </trkpt>
      <trkpt lat="43.37065770" lon="13.02557560">
        <ele>896.00000</ele>
        <time>2009-07-31T11:17:06Z</time>
      </trkpt>
      <trkpt lat="43.37068600" lon="13.02557000">
        <ele>896.00000</ele>
        <time>2009-07-31T11:17:07Z</time>
      </trkpt>
      <trkpt lat="43.37070710" lon="13.02555860">
        <ele>896.00000</ele>
        <time>2009-07-31T11:17:08Z</time>
      </trkpt>
      <trkpt lat="43.37071700" lon="13.02553920">
        <ele>896.00000</ele>
        <time>2009-07-31T11:17:08Z</time>
      </trkpt>
      <trkpt lat="43.37075400" lon="13.02555460">
        <ele>896.00000</ele>
        <time>2009-07-31T11:17:10Z</time>
      </trkpt>
      <trkpt lat="43.37077440" lon="13.02556360">
        <ele>896.00000</ele>
        <time>2009-07-31T11:17:11Z</time>
      </trkpt>
      <trkpt lat="43.37080180" lon="13.02556670">
        <ele>896.00000</ele>
        <time>2009-07-31T11:17:12Z</time>
      </trkpt>
      <trkpt lat="43.37082580" lon="13.02557630">
        <ele>896.00000</ele>
        <time>2009-07-31T11:17:13Z</time>
      </trkpt>
      <trkpt lat="43.37084770" lon="13.02556040">
        <ele>896.00000</ele>
        <time>2009-07-31T11:17:14Z</time>
      </trkpt>
      <trkpt lat="43.37087300" lon="13.02554850">
        <ele>896.00000</ele>
        <time>2009-07-31T11:17:15Z</time>
      </trkpt>
      <trkpt lat="43.37089780" lon="13.02554820">
        <ele>896.00000</ele>
        <time>2009-07-31T11:17:16Z</time>
      </trkpt>
      <trkpt lat="43.37092390" lon="13.02555650">
        <ele>896.00000</ele>
        <time>2009-07-31T11:17:17Z</time>
      </trkpt>
      <trkpt lat="43.37094300" lon="13.02556010">
        <ele>896.00000</ele>
        <time>2009-07-31T11:17:18Z</time>
      </trkpt>
      <trkpt lat="43.37096430" lon="13.02555960">
        <ele>896.00000</ele>
        <time>2009-07-31T11:17:19Z</time>
      </trkpt>
      <trkpt lat="43.37097890" lon="13.02556420">
        <ele>896.00000</ele>
        <time>2009-07-31T11:17:19Z</time>
      </trkpt>
      <trkpt lat="43.37099380" lon="13.02556440">
        <ele>896.00000</ele>
        <time>2009-07-31T11:17:20Z</time>
      </trkpt>
      <trkpt lat="43.37099470" lon="13.02555580">
        <ele>896.00000</ele>
        <time>2009-07-31T11:17:20Z</time>
      </trkpt>
      <trkpt lat="43.37099530" lon="13.02554760">
        <ele>896.00000</ele>
        <time>2009-07-31T11:17:20Z</time>
      </trkpt>
      <trkpt lat="43.37100780" lon="13.02553760">
        <ele>896.00000</ele>
        <time>2009-07-31T11:17:21Z</time>
      </trkpt>
      <trkpt lat="43.37102220" lon="13.02552990">
        <ele>896.00000</ele>
        <time>2009-07-31T11:17:21Z</time>
      </trkpt>
      <trkpt lat="43.37103700" lon="13.02552470">
        <ele>896.00000</ele>
        <time>2009-07-31T11:17:22Z</time>
      </trkpt>
      <trkpt lat="43.37105940" lon="13.02552480">
        <ele>896.00000</ele>
        <time>2009-07-31T11:17:23Z</time>
      </trkpt>
      <trkpt lat="43.37107860" lon="13.02551960">
        <ele>896.00000</ele>
        <time>2009-07-31T11:17:24Z</time>
      </trkpt>
      <trkpt lat="43.37110530" lon="13.02553410">
        <ele>896.00000</ele>
        <time>2009-07-31T11:17:25Z</time>
      </trkpt>
      <trkpt lat="43.37112790" lon="13.02553060">
        <ele>896.00000</ele>
        <time>2009-07-31T11:17:26Z</time>
      </trkpt>
      <trkpt lat="43.37116270" lon="13.02553640">
        <ele>896.00000</ele>
        <time>2009-07-31T11:17:27Z</time>
      </trkpt>
      <trkpt lat="43.37118700" lon="13.02554890">
        <ele>896.00000</ele>
        <time>2009-07-31T11:17:28Z</time>
      </trkpt>
      <trkpt lat="43.37120200" lon="13.02554750">
        <ele>896.00000</ele>
        <time>2009-07-31T11:17:29Z</time>
      </trkpt>
      <trkpt lat="43.37121090" lon="13.02551800">
        <ele>896.00000</ele>
        <time>2009-07-31T11:17:30Z</time>
      </trkpt>
      <trkpt lat="43.37125160" lon="13.02553350">
        <ele>884.00000</ele>
        <time>2009-07-31T11:17:31Z</time>
      </trkpt>
      <trkpt lat="43.37127570" lon="13.02553080">
        <ele>884.00000</ele>
        <time>2009-07-31T11:17:32Z</time>
      </trkpt>
      <trkpt lat="43.37129710" lon="13.02553220">
        <ele>884.00000</ele>
        <time>2009-07-31T11:17:33Z</time>
      </trkpt>
      <trkpt lat="43.37131310" lon="13.02553460">
        <ele>884.00000</ele>
        <time>2009-07-31T11:17:34Z</time>
      </trkpt>
      <trkpt lat="43.37133380" lon="13.02552660">
        <ele>884.00000</ele>
        <time>2009-07-31T11:17:35Z</time>
      </trkpt>
      <trkpt lat="43.37135500" lon="13.02551740">
        <ele>884.00000</ele>
        <time>2009-07-31T11:17:36Z</time>
      </trkpt>
      <trkpt lat="43.37137580" lon="13.02551450">
        <ele>884.00000</ele>
        <time>2009-07-31T11:17:37Z</time>
      </trkpt>
      <trkpt lat="43.37139670" lon="13.02550890">
        <ele>884.00000</ele>
        <time>2009-07-31T11:17:37Z</time>
      </trkpt>
      <trkpt lat="43.37142240" lon="13.02551090">
        <ele>884.00000</ele>
        <time>2009-07-31T11:17:38Z</time>
      </trkpt>
      <trkpt lat="43.37144600" lon="13.02552330">
        <ele>884.00000</ele>
        <time>2009-07-31T11:17:39Z</time>
      </trkpt>
      <trkpt lat="43.37146650" lon="13.02552110">
        <ele>884.00000</ele>
        <time>2009-07-31T11:17:40Z</time>
      </trkpt>
      <trkpt lat="43.37148330" lon="13.02552610">
        <ele>884.00000</ele>
        <time>2009-07-31T11:17:41Z</time>
      </trkpt>
      <trkpt lat="43.37150260" lon="13.02553560">
        <ele>884.00000</ele>
        <time>2009-07-31T11:17:42Z</time>
      </trkpt>
      <trkpt lat="43.37151860" lon="13.02553800">
        <ele>884.00000</ele>
        <time>2009-07-31T11:17:42Z</time>
      </trkpt>
      <trkpt lat="43.37154540" lon="13.02555120">
        <ele>884.00000</ele>
        <time>2009-07-31T11:17:44Z</time>
      </trkpt>
      <trkpt lat="43.37155980" lon="13.02557510">
        <ele>884.00000</ele>
        <time>2009-07-31T11:17:44Z</time>
      </trkpt>
      <trkpt lat="43.37158200" lon="13.02559900">
        <ele>884.00000</ele>
        <time>2009-07-31T11:17:46Z</time>
      </trkpt>
      <trkpt lat="43.37159160" lon="13.02561300">
        <ele>884.00000</ele>
        <time>2009-07-31T11:17:46Z</time>
      </trkpt>
      <trkpt lat="43.37160100" lon="13.02561680">
        <ele>884.00000</ele>
        <time>2009-07-31T11:17:47Z</time>
      </trkpt>
      <trkpt lat="43.37162110" lon="13.02563030">
        <ele>884.00000</ele>
        <time>2009-07-31T11:17:47Z</time>
      </trkpt>
      <trkpt lat="43.37163610" lon="13.02563740">
        <ele>884.00000</ele>
        <time>2009-07-31T11:17:48Z</time>
      </trkpt>
      <trkpt lat="43.37164810" lon="13.02564950">
        <ele>884.00000</ele>
        <time>2009-07-31T11:17:49Z</time>
      </trkpt>
      <trkpt lat="43.37165870" lon="13.02566570">
        <ele>884.00000</ele>
        <time>2009-07-31T11:17:49Z</time>
      </trkpt>
      <trkpt lat="43.37166150" lon="13.02568420">
        <ele>884.00000</ele>
        <time>2009-07-31T11:17:50Z</time>
      </trkpt>
      <trkpt lat="43.37166090" lon="13.02569490">
        <ele>884.00000</ele>
        <time>2009-07-31T11:17:50Z</time>
      </trkpt>
      <trkpt lat="43.37166710" lon="13.02570820">
        <ele>884.00000</ele>
        <time>2009-07-31T11:17:51Z</time>
      </trkpt>
      <trkpt lat="43.37169520" lon="13.02571970">
        <ele>884.00000</ele>
        <time>2009-07-31T11:17:52Z</time>
      </trkpt>
      <trkpt lat="43.37170990" lon="13.02573420">
        <ele>884.00000</ele>
        <time>2009-07-31T11:17:53Z</time>
      </trkpt>
      <trkpt lat="43.37172040" lon="13.02573870">
        <ele>884.00000</ele>
        <time>2009-07-31T11:17:53Z</time>
      </trkpt>
      <trkpt lat="43.37172450" lon="13.02573970">
        <ele>884.00000</ele>
        <time>2009-07-31T11:17:53Z</time>
      </trkpt>
      <trkpt lat="43.37173440" lon="13.02575160">
        <ele>884.00000</ele>
        <time>2009-07-31T11:17:54Z</time>
      </trkpt>
      <trkpt lat="43.37173360" lon="13.02577040">
        <ele>884.00000</ele>
        <time>2009-07-31T11:17:54Z</time>
      </trkpt>
      <trkpt lat="43.37174060" lon="13.02576080">
        <ele>884.00000</ele>
        <time>2009-07-31T11:17:55Z</time>
      </trkpt>
      <trkpt lat="43.37174960" lon="13.02574150">
        <ele>884.00000</ele>
        <time>2009-07-31T11:17:55Z</time>
      </trkpt>
      <trkpt lat="43.37175010" lon="13.02573710">
        <ele>884.00000</ele>
        <time>2009-07-31T11:17:55Z</time>
      </trkpt>
      <trkpt lat="43.37174920" lon="13.02573750">
        <ele>884.00000</ele>
        <time>2009-07-31T11:17:55Z</time>
      </trkpt>
      <trkpt lat="43.37174890" lon="13.02573830">
        <ele>884.00000</ele>
        <time>2009-07-31T11:17:55Z</time>
      </trkpt>
      <trkpt lat="43.37181880" lon="13.02581340">
        <ele>884.00000</ele>
        <time>2009-07-31T11:17:59Z</time>
      </trkpt>
      <trkpt lat="43.37185480" lon="13.02586340">
        <ele>884.00000</ele>
        <time>2009-07-31T11:18:01Z</time>
      </trkpt>
      <trkpt lat="43.37187730" lon="13.02589960">
        <ele>884.00000</ele>
        <time>2009-07-31T11:18:02Z</time>
      </trkpt>
      <trkpt lat="43.37188890" lon="13.02591610">
        <ele>884.00000</ele>
        <time>2009-07-31T11:18:03Z</time>
      </trkpt>
      <trkpt lat="43.37189340" lon="13.02594550">
        <ele>884.00000</ele>
        <time>2009-07-31T11:18:04Z</time>
      </trkpt>
      <trkpt lat="43.37189900" lon="13.02597260">
        <ele>884.00000</ele>
        <time>2009-07-31T11:18:05Z</time>
      </trkpt>
      <trkpt lat="43.37191910" lon="13.02600510">
        <ele>884.00000</ele>
        <time>2009-07-31T11:18:06Z</time>
      </trkpt>
      <trkpt lat="43.37194270" lon="13.02602900">
        <ele>884.00000</ele>
        <time>2009-07-31T11:18:07Z</time>
      </trkpt>
      <trkpt lat="43.37194710" lon="13.02605580">
        <ele>884.00000</ele>
        <time>2009-07-31T11:18:08Z</time>
      </trkpt>
      <trkpt lat="43.37195240" lon="13.02608720">
        <ele>884.00000</ele>
        <time>2009-07-31T11:18:09Z</time>
      </trkpt>
      <trkpt lat="43.37197690" lon="13.02610750">
        <ele>884.00000</ele>
        <time>2009-07-31T11:18:10Z</time>
      </trkpt>
      <trkpt lat="43.37200500" lon="13.02613350">
        <ele>884.00000</ele>
        <time>2009-07-31T11:18:11Z</time>
      </trkpt>
      <trkpt lat="43.37202930" lon="13.02617320">
        <ele>884.00000</ele>
        <time>2009-07-31T11:18:13Z</time>
      </trkpt>
      <trkpt lat="43.37204570" lon="13.02618430">
        <ele>884.00000</ele>
        <time>2009-07-31T11:18:14Z</time>
      </trkpt>
      <trkpt lat="43.37207600" lon="13.02621060">
        <ele>884.00000</ele>
        <time>2009-07-31T11:18:15Z</time>
      </trkpt>
      <trkpt lat="43.37208550" lon="13.02624120">
        <ele>865.00000</ele>
        <time>2009-07-31T11:18:16Z</time>
      </trkpt>
      <trkpt lat="43.37210200" lon="13.02625990">
        <ele>859.00000</ele>
        <time>2009-07-31T11:18:17Z</time>
      </trkpt>
      <trkpt lat="43.37212530" lon="13.02627830">
        <ele>859.00000</ele>
        <time>2009-07-31T11:18:18Z</time>
      </trkpt>
      <trkpt lat="43.37214300" lon="13.02629130">
        <ele>859.00000</ele>
        <time>2009-07-31T11:18:19Z</time>
      </trkpt>
      <trkpt lat="43.37215790" lon="13.02630490">
        <ele>859.00000</ele>
        <time>2009-07-31T11:18:20Z</time>
      </trkpt>
      <trkpt lat="43.37217070" lon="13.02631050">
        <ele>859.00000</ele>
        <time>2009-07-31T11:18:20Z</time>
      </trkpt>
      <trkpt lat="43.37217990" lon="13.02631710">
        <ele>859.00000</ele>
        <time>2009-07-31T11:18:20Z</time>
      </trkpt>
      <trkpt lat="43.37219380" lon="13.02633420">
        <ele>859.00000</ele>
        <time>2009-07-31T11:18:21Z</time>
      </trkpt>
      <trkpt lat="43.37220620" lon="13.02634530">
        <ele>859.00000</ele>
        <time>2009-07-31T11:18:22Z</time>
      </trkpt>
      <trkpt lat="43.37221990" lon="13.02635790">
        <ele>859.00000</ele>
        <time>2009-07-31T11:18:22Z</time>
      </trkpt>
      <trkpt lat="43.37221390" lon="13.02634650">
        <ele>859.00000</ele>
        <time>2009-07-31T11:18:23Z</time>
      </trkpt>
      <trkpt lat="43.37225440" lon="13.02631590">
        <ele>859.00000</ele>
        <time>2009-07-31T11:18:25Z</time>
      </trkpt>
      <trkpt lat="43.37225630" lon="13.02633460">
        <ele>859.00000</ele>
        <time>2009-07-31T11:18:25Z</time>
      </trkpt>
      <trkpt lat="43.37225180" lon="13.02634970">
        <ele>859.00000</ele>
        <time>2009-07-31T11:18:26Z</time>
      </trkpt>
      <trkpt lat="43.37225570" lon="13.02635160">
        <ele>859.00000</ele>
        <time>2009-07-31T11:18:26Z</time>
      </trkpt>
      <trkpt lat="43.37226440" lon="13.02635440">
        <ele>859.00000</ele>
        <time>2009-07-31T11:18:26Z</time>
      </trkpt>
      <trkpt lat="43.37226930" lon="13.02635480">
        <ele>859.00000</ele>
        <time>2009-07-31T11:18:26Z</time>
      </trkpt>
      <trkpt lat="43.37227260" lon="13.02635450">
        <ele>859.00000</ele>
        <time>2009-07-31T11:18:27Z</time>
      </trkpt>
      <trkpt lat="43.37226490" lon="13.02634350">
        <ele>859.00000</ele>
        <time>2009-07-31T11:18:27Z</time>
      </trkpt>
      <trkpt lat="43.37226760" lon="13.02634140">
        <ele>859.00000</ele>
        <time>2009-07-31T11:18:27Z</time>
      </trkpt>
      <trkpt lat="43.37227100" lon="13.02634240">
        <ele>859.00000</ele>
        <time>2009-07-31T11:18:27Z</time>
      </trkpt>
      <trkpt lat="43.37227450" lon="13.02634360">
        <ele>859.00000</ele>
        <time>2009-07-31T11:18:27Z</time>
      </trkpt>
      <trkpt lat="43.37227910" lon="13.02634490">
        <ele>859.00000</ele>
        <time>2009-07-31T11:18:28Z</time>
      </trkpt>
      <trkpt lat="43.37230650" lon="13.02634970">
        <ele>859.00000</ele>
        <time>2009-07-31T11:18:29Z</time>
      </trkpt>
      <trkpt lat="43.37230320" lon="13.02633190">
        <ele>859.00000</ele>
        <time>2009-07-31T11:18:29Z</time>
      </trkpt>
      <trkpt lat="43.37231640" lon="13.02633640">
        <ele>859.00000</ele>
        <time>2009-07-31T11:18:30Z</time>
      </trkpt>
      <trkpt lat="43.37232240" lon="13.02633610">
        <ele>859.00000</ele>
        <time>2009-07-31T11:18:30Z</time>
      </trkpt>
      <trkpt lat="43.37232730" lon="13.02632340">
        <ele>859.00000</ele>
        <time>2009-07-31T11:18:31Z</time>
      </trkpt>
      <trkpt lat="43.37232920" lon="13.02632460">
        <ele>859.00000</ele>
        <time>2009-07-31T11:18:31Z</time>
      </trkpt>
      <trkpt lat="43.37231790" lon="13.02632190">
        <ele>859.00000</ele>
        <time>2009-07-31T11:18:31Z</time>
      </trkpt>
      <trkpt lat="43.37231530" lon="13.02631660">
        <ele>859.00000</ele>
        <time>2009-07-31T11:18:31Z</time>
      </trkpt>
      <trkpt lat="43.37231610" lon="13.02631680">
        <ele>859.00000</ele>
        <time>2009-07-31T11:18:31Z</time>
      </trkpt>
      <trkpt lat="43.37231630" lon="13.02631700">
        <ele>859.00000</ele>
        <time>2009-07-31T11:18:31Z</time>
      </trkpt>
      <trkpt lat="43.37231420" lon="13.02631660">
        <ele>859.00000</ele>
        <time>2009-07-31T11:18:31Z</time>
      </trkpt>
      <trkpt lat="43.37231420" lon="13.02631680">
        <ele>859.00000</ele>
        <time>2009-07-31T11:18:31Z</time>
      </trkpt>
      <trkpt lat="43.37230830" lon="13.02630830">
        <ele>859.00000</ele>
        <time>2009-07-31T11:18:32Z</time>
      </trkpt>
      <trkpt lat="43.37229830" lon="13.02629430">
        <ele>859.00000</ele>
        <time>2009-07-31T11:18:32Z</time>
      </trkpt>
      <trkpt lat="43.37228480" lon="13.02627930">
        <ele>859.00000</ele>
        <time>2009-07-31T11:18:33Z</time>
      </trkpt>
      <trkpt lat="43.37229690" lon="13.02629140">
        <ele>859.00000</ele>
        <time>2009-07-31T11:18:34Z</time>
      </trkpt>
      <trkpt lat="43.37230700" lon="13.02629360">
        <ele>859.00000</ele>
        <time>2009-07-31T11:18:34Z</time>
      </trkpt>
      <trkpt lat="43.37231580" lon="13.02630930">
        <ele>859.00000</ele>
        <time>2009-07-31T11:18:35Z</time>
      </trkpt>
      <trkpt lat="43.37230990" lon="13.02630570">
        <ele>859.00000</ele>
        <time>2009-07-31T11:18:35Z</time>
      </trkpt>
      <trkpt lat="43.37230810" lon="13.02628690">
        <ele>859.00000</ele>
        <time>2009-07-31T11:18:35Z</time>
      </trkpt>
      <trkpt lat="43.37231090" lon="13.02628760">
        <ele>859.00000</ele>
        <time>2009-07-31T11:18:35Z</time>
      </trkpt>
      <trkpt lat="43.37231320" lon="13.02628850">
        <ele>859.00000</ele>
        <time>2009-07-31T11:18:36Z</time>
      </trkpt>
      <trkpt lat="43.37231700" lon="13.02628990">
        <ele>859.00000</ele>
        <time>2009-07-31T11:18:36Z</time>
      </trkpt>
      <trkpt lat="43.37233580" lon="13.02630250">
        <ele>859.00000</ele>
        <time>2009-07-31T11:18:37Z</time>
      </trkpt>
      <trkpt lat="43.37235590" lon="13.02631620">
        <ele>859.00000</ele>
        <time>2009-07-31T11:18:37Z</time>
      </trkpt>
      <trkpt lat="43.37236800" lon="13.02632820">
        <ele>859.00000</ele>
        <time>2009-07-31T11:18:38Z</time>
      </trkpt>
      <trkpt lat="43.37240020" lon="13.02632840">
        <ele>859.00000</ele>
        <time>2009-07-31T11:18:39Z</time>
      </trkpt>
      <trkpt lat="43.37243500" lon="13.02632960">
        <ele>859.00000</ele>
        <time>2009-07-31T11:18:41Z</time>
      </trkpt>
      <trkpt lat="43.37246350" lon="13.02633260">
        <ele>859.00000</ele>
        <time>2009-07-31T11:18:42Z</time>
      </trkpt>
      <trkpt lat="43.37248010" lon="13.02633640">
        <ele>859.00000</ele>
        <time>2009-07-31T11:18:43Z</time>
      </trkpt>
      <trkpt lat="43.37248500" lon="13.02633780">
        <ele>859.00000</ele>
        <time>2009-07-31T11:18:43Z</time>
      </trkpt>
      <trkpt lat="43.37248800" lon="13.02633120">
        <ele>859.00000</ele>
        <time>2009-07-31T11:18:43Z</time>
      </trkpt>
      <trkpt lat="43.37249020" lon="13.02633210">
        <ele>859.00000</ele>
        <time>2009-07-31T11:18:43Z</time>
      </trkpt>
      <trkpt lat="43.37249310" lon="13.02633280">
        <ele>859.00000</ele>
        <time>2009-07-31T11:18:43Z</time>
      </trkpt>
      <trkpt lat="43.37249540" lon="13.02633340">
        <ele>859.00000</ele>
        <time>2009-07-31T11:18:43Z</time>
      </trkpt>
      <trkpt lat="43.37249770" lon="13.02633350">
        <ele>859.00000</ele>
        <time>2009-07-31T11:18:43Z</time>
      </trkpt>
      <trkpt lat="43.37250060" lon="13.02633390">
        <ele>859.00000</ele>
        <time>2009-07-31T11:18:44Z</time>
      </trkpt>
      <trkpt lat="43.37250320" lon="13.02633460">
        <ele>859.00000</ele>
        <time>2009-07-31T11:18:44Z</time>
      </trkpt>
      <trkpt lat="43.37250440" lon="13.02633500">
        <ele>859.00000</ele>
        <time>2009-07-31T11:18:44Z</time>
      </trkpt>
      <trkpt lat="43.37250600" lon="13.02633540">
        <ele>859.00000</ele>
        <time>2009-07-31T11:18:44Z</time>
      </trkpt>
      <trkpt lat="43.37250730" lon="13.02633580">
        <ele>859.00000</ele>
        <time>2009-07-31T11:18:44Z</time>
      </trkpt>
      <trkpt lat="43.37250810" lon="13.02633600">
        <ele>859.00000</ele>
        <time>2009-07-31T11:18:44Z</time>
      </trkpt>
      <trkpt lat="43.37250880" lon="13.02633590">
        <ele>859.00000</ele>
        <time>2009-07-31T11:18:44Z</time>
      </trkpt>
      <trkpt lat="43.37251090" lon="13.02633650">
        <ele>859.00000</ele>
        <time>2009-07-31T11:18:44Z</time>
      </trkpt>
      <trkpt lat="43.37251490" lon="13.02633750">
        <ele>859.00000</ele>
        <time>2009-07-31T11:18:44Z</time>
      </trkpt>
      <trkpt lat="43.37251850" lon="13.02633830">
        <ele>859.00000</ele>
        <time>2009-07-31T11:18:44Z</time>
      </trkpt>
      <trkpt lat="43.37252250" lon="13.02633910">
        <ele>859.00000</ele>
        <time>2009-07-31T11:18:44Z</time>
      </trkpt>
      <trkpt lat="43.37252590" lon="13.02634030">
        <ele>859.00000</ele>
        <time>2009-07-31T11:18:44Z</time>
      </trkpt>
      <trkpt lat="43.37253090" lon="13.02634120">
        <ele>859.00000</ele>
        <time>2009-07-31T11:18:45Z</time>
      </trkpt>
      <trkpt lat="43.37253430" lon="13.02634230">
        <ele>859.00000</ele>
        <time>2009-07-31T11:18:45Z</time>
      </trkpt>
      <trkpt lat="43.37253580" lon="13.02634280">
        <ele>859.00000</ele>
        <time>2009-07-31T11:18:45Z</time>
      </trkpt>
      <trkpt lat="43.37253890" lon="13.02634370">
        <ele>859.00000</ele>
        <time>2009-07-31T11:18:45Z</time>
      </trkpt>
      <trkpt lat="43.37254280" lon="13.02634470">
        <ele>859.00000</ele>
        <time>2009-07-31T11:18:45Z</time>
      </trkpt>
      <trkpt lat="43.37254700" lon="13.02634570">
        <ele>859.00000</ele>
        <time>2009-07-31T11:18:45Z</time>
      </trkpt>
      <trkpt lat="43.37255000" lon="13.02634640">
        <ele>859.00000</ele>
        <time>2009-07-31T11:18:45Z</time>
      </trkpt>
      <trkpt lat="43.37255100" lon="13.02634640">
        <ele>859.00000</ele>
        <time>2009-07-31T11:18:46Z</time>
      </trkpt>
      <trkpt lat="43.37254850" lon="13.02634590">
        <ele>859.00000</ele>
        <time>2009-07-31T11:18:46Z</time>
      </trkpt>
      <trkpt lat="43.37254760" lon="13.02634560">
        <ele>859.00000</ele>
        <time>2009-07-31T11:18:46Z</time>
      </trkpt>
      <trkpt lat="43.37254790" lon="13.02634590">
        <ele>859.00000</ele>
        <time>2009-07-31T11:18:46Z</time>
      </trkpt>
      <trkpt lat="43.37254920" lon="13.02634630">
        <ele>859.00000</ele>
        <time>2009-07-31T11:18:46Z</time>
      </trkpt>
      <trkpt lat="43.37255670" lon="13.02634720">
        <ele>859.00000</ele>
        <time>2009-07-31T11:18:46Z</time>
      </trkpt>
      <trkpt lat="43.37255240" lon="13.02635800">
        <ele>859.00000</ele>
        <time>2009-07-31T11:18:46Z</time>
      </trkpt>
      <trkpt lat="43.37258110" lon="13.02636050">
        <ele>859.00000</ele>
        <time>2009-07-31T11:18:48Z</time>
      </trkpt>
      <trkpt lat="43.37260290" lon="13.02636310">
        <ele>859.00000</ele>
        <time>2009-07-31T11:18:48Z</time>
      </trkpt>
      <trkpt lat="43.37260430" lon="13.02635880">
        <ele>859.00000</ele>
        <time>2009-07-31T11:18:49Z</time>
      </trkpt>
      <trkpt lat="43.37261530" lon="13.02635310">
        <ele>859.00000</ele>
        <time>2009-07-31T11:18:49Z</time>
      </trkpt>
      <trkpt lat="43.37262690" lon="13.02635180">
        <ele>859.00000</ele>
        <time>2009-07-31T11:18:49Z</time>
      </trkpt>
      <trkpt lat="43.37264750" lon="13.02635530">
        <ele>859.00000</ele>
        <time>2009-07-31T11:18:50Z</time>
      </trkpt>
      <trkpt lat="43.37264070" lon="13.02635080">
        <ele>859.00000</ele>
        <time>2009-07-31T11:18:51Z</time>
      </trkpt>
      <trkpt lat="43.37264230" lon="13.02634700">
        <ele>859.00000</ele>
        <time>2009-07-31T11:18:51Z</time>
      </trkpt>
      <trkpt lat="43.37264590" lon="13.02634680">
        <ele>859.00000</ele>
        <time>2009-07-31T11:18:51Z</time>
      </trkpt>
      <trkpt lat="43.37264660" lon="13.02634630">
        <ele>859.00000</ele>
        <time>2009-07-31T11:18:51Z</time>
      </trkpt>
      <trkpt lat="43.37264630" lon="13.02634600">
        <ele>859.00000</ele>
        <time>2009-07-31T11:18:51Z</time>
      </trkpt>
      <trkpt lat="43.37264900" lon="13.02634630">
        <ele>859.00000</ele>
        <time>2009-07-31T11:18:51Z</time>
      </trkpt>
      <trkpt lat="43.37267880" lon="13.02634230">
        <ele>859.00000</ele>
        <time>2009-07-31T11:18:52Z</time>
      </trkpt>
      <trkpt lat="43.37268740" lon="13.02634320">
        <ele>859.00000</ele>
        <time>2009-07-31T11:18:53Z</time>
      </trkpt>
      <trkpt lat="43.37269320" lon="13.02634130">
        <ele>859.00000</ele>
        <time>2009-07-31T11:18:53Z</time>
      </trkpt>
      <trkpt lat="43.37270370" lon="13.02634110">
        <ele>859.00000</ele>
        <time>2009-07-31T11:18:53Z</time>
      </trkpt>
      <trkpt lat="43.37270840" lon="13.02634190">
        <ele>859.00000</ele>
        <time>2009-07-31T11:18:53Z</time>
      </trkpt>
      <trkpt lat="43.37270720" lon="13.02633560">
        <ele>859.00000</ele>
        <time>2009-07-31T11:18:54Z</time>
      </trkpt>
      <trkpt lat="43.37270750" lon="13.02633550">
        <ele>859.00000</ele>
        <time>2009-07-31T11:18:54Z</time>
      </trkpt>
      <trkpt lat="43.37270830" lon="13.02633530">
        <ele>859.00000</ele>
        <time>2009-07-31T11:18:54Z</time>
      </trkpt>
      <trkpt lat="43.37271310" lon="13.02633670">
        <ele>859.00000</ele>
        <time>2009-07-31T11:18:54Z</time>
      </trkpt>
      <trkpt lat="43.37271720" lon="13.02633590">
        <ele>859.00000</ele>
        <time>2009-07-31T11:18:54Z</time>
      </trkpt>
      <trkpt lat="43.37272940" lon="13.02634510">
        <ele>859.00000</ele>
        <time>2009-07-31T11:18:55Z</time>
      </trkpt>
      <trkpt lat="43.37273070" lon="13.02635360">
        <ele>859.00000</ele>
        <time>2009-07-31T11:18:55Z</time>
      </trkpt>
      <trkpt lat="43.37272990" lon="13.02635370">
        <ele>859.00000</ele>
        <time>2009-07-31T11:18:55Z</time>
      </trkpt>
      <trkpt lat="43.37272130" lon="13.02635850">
        <ele>859.00000</ele>
        <time>2009-07-31T11:18:55Z</time>
      </trkpt>
      <trkpt lat="43.37272020" lon="13.02635830">
        <ele>859.00000</ele>
        <time>2009-07-31T11:18:55Z</time>
      </trkpt>
      <trkpt lat="43.37271640" lon="13.02636370">
        <ele>859.00000</ele>
        <time>2009-07-31T11:18:55Z</time>
      </trkpt>
      <trkpt lat="43.37272640" lon="13.02637160">
        <ele>859.00000</ele>
        <time>2009-07-31T11:18:56Z</time>
      </trkpt>
      <trkpt lat="43.37273920" lon="13.02637510">
        <ele>859.00000</ele>
        <time>2009-07-31T11:18:56Z</time>
      </trkpt>
      <trkpt lat="43.37274730" lon="13.02638080">
        <ele>859.00000</ele>
        <time>2009-07-31T11:18:57Z</time>
      </trkpt>
      <trkpt lat="43.37275510" lon="13.02639230">
        <ele>859.00000</ele>
        <time>2009-07-31T11:18:57Z</time>
      </trkpt>
      <trkpt lat="43.37278620" lon="13.02638010">
        <ele>859.00000</ele>
        <time>2009-07-31T11:18:59Z</time>
      </trkpt>
      <trkpt lat="43.37279690" lon="13.02638810">
        <ele>859.00000</ele>
        <time>2009-07-31T11:18:59Z</time>
      </trkpt>
      <trkpt lat="43.37281440" lon="13.02639320">
        <ele>859.00000</ele>
        <time>2009-07-31T11:19:00Z</time>
      </trkpt>
      <trkpt lat="43.37282330" lon="13.02641390">
        <ele>859.00000</ele>
        <time>2009-07-31T11:19:00Z</time>
      </trkpt>
      <trkpt lat="43.37281410" lon="13.02641140">
        <ele>859.00000</ele>
        <time>2009-07-31T11:19:01Z</time>
      </trkpt>
      <trkpt lat="43.37284010" lon="13.02640600">
        <ele>859.00000</ele>
        <time>2009-07-31T11:19:02Z</time>
      </trkpt>
      <trkpt lat="43.37283690" lon="13.02639160">
        <ele>859.00000</ele>
        <time>2009-07-31T11:19:02Z</time>
      </trkpt>
      <trkpt lat="43.37284570" lon="13.02641840">
        <ele>859.00000</ele>
        <time>2009-07-31T11:19:03Z</time>
      </trkpt>
      <trkpt lat="43.37286250" lon="13.02644150">
        <ele>859.00000</ele>
        <time>2009-07-31T11:19:04Z</time>
      </trkpt>
      <trkpt lat="43.37287220" lon="13.02644180">
        <ele>859.00000</ele>
        <time>2009-07-31T11:19:05Z</time>
      </trkpt>
      <trkpt lat="43.37289120" lon="13.02645460">
        <ele>859.00000</ele>
        <time>2009-07-31T11:19:05Z</time>
      </trkpt>
      <trkpt lat="43.37291700" lon="13.02646500">
        <ele>821.00000</ele>
        <time>2009-07-31T11:19:06Z</time>
      </trkpt>
      <trkpt lat="43.37292200" lon="13.02647230">
        <ele>821.00000</ele>
        <time>2009-07-31T11:19:07Z</time>
      </trkpt>
      <trkpt lat="43.37293600" lon="13.02646900">
        <ele>821.00000</ele>
        <time>2009-07-31T11:19:07Z</time>
      </trkpt>
      <trkpt lat="43.37293890" lon="13.02646970">
        <ele>821.00000</ele>
        <time>2009-07-31T11:19:07Z</time>
      </trkpt>
      <trkpt lat="43.37293780" lon="13.02646930">
        <ele>821.00000</ele>
        <time>2009-07-31T11:19:07Z</time>
      </trkpt>
      <trkpt lat="43.37293910" lon="13.02646940">
        <ele>821.00000</ele>
        <time>2009-07-31T11:19:07Z</time>
      </trkpt>
      <trkpt lat="43.37294140" lon="13.02646990">
        <ele>821.00000</ele>
        <time>2009-07-31T11:19:08Z</time>
      </trkpt>
      <trkpt lat="43.37294530" lon="13.02647060">
        <ele>821.00000</ele>
        <time>2009-07-31T11:19:08Z</time>
      </trkpt>
      <trkpt lat="43.37294720" lon="13.02647140">
        <ele>821.00000</ele>
        <time>2009-07-31T11:19:08Z</time>
      </trkpt>
      <trkpt lat="43.37296930" lon="13.02648430">
        <ele>821.00000</ele>
        <time>2009-07-31T11:19:09Z</time>
      </trkpt>
      <trkpt lat="43.37298620" lon="13.02648520">
        <ele>821.00000</ele>
        <time>2009-07-31T11:19:09Z</time>
      </trkpt>
      <trkpt lat="43.37298760" lon="13.02647730">
        <ele>821.00000</ele>
        <time>2009-07-31T11:19:10Z</time>
      </trkpt>
      <trkpt lat="43.37300160" lon="13.02648640">
        <ele>821.00000</ele>
        <time>2009-07-31T11:19:10Z</time>
      </trkpt>
      <trkpt lat="43.37300110" lon="13.02649200">
        <ele>821.00000</ele>
        <time>2009-07-31T11:19:11Z</time>
      </trkpt>
      <trkpt lat="43.37300750" lon="13.02650420">
        <ele>821.00000</ele>
        <time>2009-07-31T11:19:11Z</time>
      </trkpt>
      <trkpt lat="43.37301080" lon="13.02651500">
        <ele>821.00000</ele>
        <time>2009-07-31T11:19:11Z</time>
      </trkpt>
      <trkpt lat="43.37302310" lon="13.02653090">
        <ele>821.00000</ele>
        <time>2009-07-31T11:19:12Z</time>
      </trkpt>
      <trkpt lat="43.37303280" lon="13.02654440">
        <ele>821.00000</ele>
        <time>2009-07-31T11:19:13Z</time>
      </trkpt>
      <trkpt lat="43.37305240" lon="13.02655090">
        <ele>821.00000</ele>
        <time>2009-07-31T11:19:13Z</time>
      </trkpt>
      <trkpt lat="43.37306570" lon="13.02655620">
        <ele>821.00000</ele>
        <time>2009-07-31T11:19:14Z</time>
      </trkpt>
      <trkpt lat="43.37309400" lon="13.02657540">
        <ele>821.00000</ele>
        <time>2009-07-31T11:19:15Z</time>
      </trkpt>
      <trkpt lat="43.37311320" lon="13.02658560">
        <ele>821.00000</ele>
        <time>2009-07-31T11:19:16Z</time>
      </trkpt>
      <trkpt lat="43.37312830" lon="13.02658800">
        <ele>821.00000</ele>
        <time>2009-07-31T11:19:17Z</time>
      </trkpt>
      <trkpt lat="43.37313970" lon="13.02657730">
        <ele>821.00000</ele>
        <time>2009-07-31T11:19:17Z</time>
      </trkpt>
      <trkpt lat="43.37315410" lon="13.02658950">
        <ele>821.00000</ele>
        <time>2009-07-31T11:19:18Z</time>
      </trkpt>
      <trkpt lat="43.37316000" lon="13.02658290">
        <ele>821.00000</ele>
        <time>2009-07-31T11:19:18Z</time>
      </trkpt>
      <trkpt lat="43.37316260" lon="13.02658060">
        <ele>821.00000</ele>
        <time>2009-07-31T11:19:18Z</time>
      </trkpt>
      <trkpt lat="43.37315540" lon="13.02657360">
        <ele>821.00000</ele>
        <time>2009-07-31T11:19:19Z</time>
      </trkpt>
      <trkpt lat="43.37316090" lon="13.02656510">
        <ele>821.00000</ele>
        <time>2009-07-31T11:19:19Z</time>
      </trkpt>
      <trkpt lat="43.37316420" lon="13.02655430">
        <ele>821.00000</ele>
        <time>2009-07-31T11:19:19Z</time>
      </trkpt>
      <trkpt lat="43.37316830" lon="13.02655290">
        <ele>821.00000</ele>
        <time>2009-07-31T11:19:19Z</time>
      </trkpt>
      <trkpt lat="43.37316490" lon="13.02655280">
        <ele>821.00000</ele>
        <time>2009-07-31T11:19:20Z</time>
      </trkpt>
      <trkpt lat="43.37316660" lon="13.02654280">
        <ele>821.00000</ele>
        <time>2009-07-31T11:19:20Z</time>
      </trkpt>
      <trkpt lat="43.37317730" lon="13.02653980">
        <ele>821.00000</ele>
        <time>2009-07-31T11:19:20Z</time>
      </trkpt>
      <trkpt lat="43.37317500" lon="13.02653720">
        <ele>821.00000</ele>
        <time>2009-07-31T11:19:20Z</time>
      </trkpt>
      <trkpt lat="43.37317340" lon="13.02653680">
        <ele>821.00000</ele>
        <time>2009-07-31T11:19:20Z</time>
      </trkpt>
      <trkpt lat="43.37317180" lon="13.02653630">
        <ele>821.00000</ele>
        <time>2009-07-31T11:19:21Z</time>
      </trkpt>
      <trkpt lat="43.37317160" lon="13.02653630">
        <ele>821.00000</ele>
        <time>2009-07-31T11:19:21Z</time>
      </trkpt>
      <trkpt lat="43.37317160" lon="13.02653640">
        <ele>821.00000</ele>
        <time>2009-07-31T11:19:21Z</time>
      </trkpt>
      <trkpt lat="43.37317290" lon="13.02653700">
        <ele>821.00000</ele>
        <time>2009-07-31T11:19:21Z</time>
      </trkpt>
      <trkpt lat="43.37317630" lon="13.02653820">
        <ele>821.00000</ele>
        <time>2009-07-31T11:19:21Z</time>
      </trkpt>
      <trkpt lat="43.37317940" lon="13.02653990">
        <ele>821.00000</ele>
        <time>2009-07-31T11:19:21Z</time>
      </trkpt>
      <trkpt lat="43.37318980" lon="13.02658040">
        <ele>821.00000</ele>
        <time>2009-07-31T11:19:22Z</time>
      </trkpt>
      <trkpt lat="43.37322220" lon="13.02661500">
        <ele>821.00000</ele>
        <time>2009-07-31T11:19:24Z</time>
      </trkpt>
      <trkpt lat="43.37322770" lon="13.02662510">
        <ele>821.00000</ele>
        <time>2009-07-31T11:19:24Z</time>
      </trkpt>
      <trkpt lat="43.37323530" lon="13.02661920">
        <ele>821.00000</ele>
        <time>2009-07-31T11:19:24Z</time>
      </trkpt>
      <trkpt lat="43.37325620" lon="13.02663110">
        <ele>821.00000</ele>
        <time>2009-07-31T11:19:25Z</time>
      </trkpt>
      <trkpt lat="43.37326100" lon="13.02664410">
        <ele>821.00000</ele>
        <time>2009-07-31T11:19:26Z</time>
      </trkpt>
      <trkpt lat="43.37326780" lon="13.02664970">
        <ele>821.00000</ele>
        <time>2009-07-31T11:19:26Z</time>
      </trkpt>
      <trkpt lat="43.37327970" lon="13.02664930">
        <ele>821.00000</ele>
        <time>2009-07-31T11:19:27Z</time>
      </trkpt>
      <trkpt lat="43.37328300" lon="13.02665100">
        <ele>821.00000</ele>
        <time>2009-07-31T11:19:27Z</time>
      </trkpt>
      <trkpt lat="43.37328300" lon="13.02665880">
        <ele>821.00000</ele>
        <time>2009-07-31T11:19:27Z</time>
      </trkpt>
      <trkpt lat="43.37329920" lon="13.02667640">
        <ele>821.00000</ele>
        <time>2009-07-31T11:19:28Z</time>
      </trkpt>
      <trkpt lat="43.37330850" lon="13.02668710">
        <ele>821.00000</ele>
        <time>2009-07-31T11:19:28Z</time>
      </trkpt>
      <trkpt lat="43.37331130" lon="13.02667840">
        <ele>821.00000</ele>
        <time>2009-07-31T11:19:29Z</time>
      </trkpt>
      <trkpt lat="43.37333030" lon="13.02667380">
        <ele>821.00000</ele>
        <time>2009-07-31T11:19:29Z</time>
      </trkpt>
      <trkpt lat="43.37335160" lon="13.02668150">
        <ele>821.00000</ele>
        <time>2009-07-31T11:19:30Z</time>
      </trkpt>
      <trkpt lat="43.37335990" lon="13.02667750">
        <ele>821.00000</ele>
        <time>2009-07-31T11:19:31Z</time>
      </trkpt>
      <trkpt lat="43.37336990" lon="13.02667210">
        <ele>821.00000</ele>
        <time>2009-07-31T11:19:31Z</time>
      </trkpt>
      <trkpt lat="43.37337070" lon="13.02667430">
        <ele>821.00000</ele>
        <time>2009-07-31T11:19:31Z</time>
      </trkpt>
      <trkpt lat="43.37336500" lon="13.02667170">
        <ele>821.00000</ele>
        <time>2009-07-31T11:19:31Z</time>
      </trkpt>
      <trkpt lat="43.37337130" lon="13.02666500">
        <ele>821.00000</ele>
        <time>2009-07-31T11:19:32Z</time>
      </trkpt>
      <trkpt lat="43.37338270" lon="13.02666800">
        <ele>821.00000</ele>
        <time>2009-07-31T11:19:32Z</time>
      </trkpt>
      <trkpt lat="43.37339750" lon="13.02668590">
        <ele>821.00000</ele>
        <time>2009-07-31T11:19:33Z</time>
      </trkpt>
      <trkpt lat="43.37340190" lon="13.02666990">
        <ele>821.00000</ele>
        <time>2009-07-31T11:19:33Z</time>
      </trkpt>
      <trkpt lat="43.37341900" lon="13.02666610">
        <ele>821.00000</ele>
        <time>2009-07-31T11:19:34Z</time>
      </trkpt>
      <trkpt lat="43.37345480" lon="13.02668460">
        <ele>821.00000</ele>
        <time>2009-07-31T11:19:36Z</time>
      </trkpt>
      <trkpt lat="43.37346620" lon="13.02669160">
        <ele>821.00000</ele>
        <time>2009-07-31T11:19:36Z</time>
      </trkpt>
      <trkpt lat="43.37347700" lon="13.02668860">
        <ele>821.00000</ele>
        <time>2009-07-31T11:19:37Z</time>
      </trkpt>
      <trkpt lat="43.37348780" lon="13.02669050">
        <ele>821.00000</ele>
        <time>2009-07-31T11:19:37Z</time>
      </trkpt>
      <trkpt lat="43.37350060" lon="13.02668340">
        <ele>821.00000</ele>
        <time>2009-07-31T11:19:38Z</time>
      </trkpt>
      <trkpt lat="43.37351350" lon="13.02668420">
        <ele>821.00000</ele>
        <time>2009-07-31T11:19:38Z</time>
      </trkpt>
      <trkpt lat="43.37352710" lon="13.02668390">
        <ele>821.00000</ele>
        <time>2009-07-31T11:19:39Z</time>
      </trkpt>
      <trkpt lat="43.37354780" lon="13.02669400">
        <ele>821.00000</ele>
        <time>2009-07-31T11:19:39Z</time>
      </trkpt>
      <trkpt lat="43.37355050" lon="13.02669700">
        <ele>821.00000</ele>
        <time>2009-07-31T11:19:40Z</time>
      </trkpt>
      <trkpt lat="43.37356760" lon="13.02670310">
        <ele>821.00000</ele>
        <time>2009-07-31T11:19:40Z</time>
      </trkpt>
      <trkpt lat="43.37357360" lon="13.02670600">
        <ele>821.00000</ele>
        <time>2009-07-31T11:19:41Z</time>
      </trkpt>
      <trkpt lat="43.37359050" lon="13.02670700">
        <ele>821.00000</ele>
        <time>2009-07-31T11:19:41Z</time>
      </trkpt>
      <trkpt lat="43.37359430" lon="13.02670090">
        <ele>821.00000</ele>
        <time>2009-07-31T11:19:41Z</time>
      </trkpt>
      <trkpt lat="43.37359350" lon="13.02668470">
        <ele>821.00000</ele>
        <time>2009-07-31T11:19:42Z</time>
      </trkpt>
      <trkpt lat="43.37360520" lon="13.02669320">
        <ele>821.00000</ele>
        <time>2009-07-31T11:19:42Z</time>
      </trkpt>
      <trkpt lat="43.37361060" lon="13.02669050">
        <ele>821.00000</ele>
        <time>2009-07-31T11:19:43Z</time>
      </trkpt>
      <trkpt lat="43.37361800" lon="13.02668830">
        <ele>821.00000</ele>
        <time>2009-07-31T11:19:43Z</time>
      </trkpt>
      <trkpt lat="43.37361950" lon="13.02667550">
        <ele>821.00000</ele>
        <time>2009-07-31T11:19:43Z</time>
      </trkpt>
      <trkpt lat="43.37361780" lon="13.02665890">
        <ele>821.00000</ele>
        <time>2009-07-31T11:19:44Z</time>
      </trkpt>
      <trkpt lat="43.37362870" lon="13.02666230">
        <ele>821.00000</ele>
        <time>2009-07-31T11:19:44Z</time>
      </trkpt>
      <trkpt lat="43.37363970" lon="13.02665610">
        <ele>821.00000</ele>
        <time>2009-07-31T11:19:45Z</time>
      </trkpt>
      <trkpt lat="43.37364350" lon="13.02664300">
        <ele>821.00000</ele>
        <time>2009-07-31T11:19:45Z</time>
      </trkpt>
      <trkpt lat="43.37365230" lon="13.02664450">
        <ele>821.00000</ele>
        <time>2009-07-31T11:19:46Z</time>
      </trkpt>
      <trkpt lat="43.37366690" lon="13.02665200">
        <ele>821.00000</ele>
        <time>2009-07-31T11:19:46Z</time>
      </trkpt>
      <trkpt lat="43.37366990" lon="13.02664360">
        <ele>821.00000</ele>
        <time>2009-07-31T11:19:46Z</time>
      </trkpt>
      <trkpt lat="43.37367390" lon="13.02665060">
        <ele>821.00000</ele>
        <time>2009-07-31T11:19:47Z</time>
      </trkpt>
      <trkpt lat="43.37367050" lon="13.02665000">
        <ele>821.00000</ele>
        <time>2009-07-31T11:19:47Z</time>
      </trkpt>
      <trkpt lat="43.37366740" lon="13.02665550">
        <ele>821.00000</ele>
        <time>2009-07-31T11:19:47Z</time>
      </trkpt>
      <trkpt lat="43.37366940" lon="13.02665610">
        <ele>821.00000</ele>
        <time>2009-07-31T11:19:47Z</time>
      </trkpt>
      <trkpt lat="43.37367010" lon="13.02665600">
        <ele>821.00000</ele>
        <time>2009-07-31T11:19:47Z</time>
      </trkpt>
      <trkpt lat="43.37367070" lon="13.02665630">
        <ele>821.00000</ele>
        <time>2009-07-31T11:19:47Z</time>
      </trkpt>
      <trkpt lat="43.37366770" lon="13.02665590">
        <ele>821.00000</ele>
        <time>2009-07-31T11:19:47Z</time>
      </trkpt>
      <trkpt lat="43.37366510" lon="13.02665570">
        <ele>821.00000</ele>
        <time>2009-07-31T11:19:47Z</time>
      </trkpt>
      <trkpt lat="43.37366470" lon="13.02665540">
        <ele>821.00000</ele>
        <time>2009-07-31T11:19:47Z</time>
      </trkpt>
      <trkpt lat="43.37366410" lon="13.02665520">
        <ele>821.00000</ele>
        <time>2009-07-31T11:19:47Z</time>
      </trkpt>
      <trkpt lat="43.37366340" lon="13.02665520">
        <ele>821.00000</ele>
        <time>2009-07-31T11:19:47Z</time>
      </trkpt>
      <trkpt lat="43.37366700" lon="13.02665620">
        <ele>821.00000</ele>
        <time>2009-07-31T11:19:47Z</time>
      </trkpt>
      <trkpt lat="43.37367830" lon="13.02665510">
        <ele>821.00000</ele>
        <time>2009-07-31T11:19:48Z</time>
      </trkpt>
      <trkpt lat="43.37369290" lon="13.02666970">
        <ele>821.00000</ele>
        <time>2009-07-31T11:19:49Z</time>
      </trkpt>
      <trkpt lat="43.37371780" lon="13.02667790">
        <ele>821.00000</ele>
        <time>2009-07-31T11:19:50Z</time>
      </trkpt>
      <trkpt lat="43.37372110" lon="13.02668290">
        <ele>821.00000</ele>
        <time>2009-07-31T11:19:50Z</time>
      </trkpt>
      <trkpt lat="43.37374270" lon="13.02668860">
        <ele>821.00000</ele>
        <time>2009-07-31T11:19:51Z</time>
      </trkpt>
      <trkpt lat="43.37374790" lon="13.02667590">
        <ele>821.00000</ele>
        <time>2009-07-31T11:19:51Z</time>
      </trkpt>
      <trkpt lat="43.37376030" lon="13.02667990">
        <ele>785.00000</ele>
        <time>2009-07-31T11:19:52Z</time>
      </trkpt>
      <trkpt lat="43.37377730" lon="13.02669260">
        <ele>785.00000</ele>
        <time>2009-07-31T11:19:52Z</time>
      </trkpt>
      <trkpt lat="43.37378700" lon="13.02669330">
        <ele>785.00000</ele>
        <time>2009-07-31T11:19:53Z</time>
      </trkpt>
      <trkpt lat="43.37381810" lon="13.02671690">
        <ele>785.00000</ele>
        <time>2009-07-31T11:19:54Z</time>
      </trkpt>
      <trkpt lat="43.37382740" lon="13.02672130">
        <ele>785.00000</ele>
        <time>2009-07-31T11:19:55Z</time>
      </trkpt>
      <trkpt lat="43.37383530" lon="13.02671660">
        <ele>785.00000</ele>
        <time>2009-07-31T11:19:55Z</time>
      </trkpt>
      <trkpt lat="43.37383600" lon="13.02669520">
        <ele>785.00000</ele>
        <time>2009-07-31T11:19:56Z</time>
      </trkpt>
      <trkpt lat="43.37383710" lon="13.02668460">
        <ele>785.00000</ele>
        <time>2009-07-31T11:19:56Z</time>
      </trkpt>
      <trkpt lat="43.37382700" lon="13.02667360">
        <ele>785.00000</ele>
        <time>2009-07-31T11:19:56Z</time>
      </trkpt>
      <trkpt lat="43.37381300" lon="13.02665730">
        <ele>785.00000</ele>
        <time>2009-07-31T11:19:57Z</time>
      </trkpt>
      <trkpt lat="43.37381480" lon="13.02665740">
        <ele>785.00000</ele>
        <time>2009-07-31T11:19:57Z</time>
      </trkpt>
      <trkpt lat="43.37381830" lon="13.02665740">
        <ele>785.00000</ele>
        <time>2009-07-31T11:19:57Z</time>
      </trkpt>
      <trkpt lat="43.37382190" lon="13.02665770">
        <ele>785.00000</ele>
        <time>2009-07-31T11:19:58Z</time>
      </trkpt>
      <trkpt lat="43.37382370" lon="13.02665760">
        <ele>785.00000</ele>
        <time>2009-07-31T11:19:58Z</time>
      </trkpt>
      <trkpt lat="43.37382600" lon="13.02665790">
        <ele>785.00000</ele>
        <time>2009-07-31T11:19:58Z</time>
      </trkpt>
      <trkpt lat="43.37383650" lon="13.02665610">
        <ele>785.00000</ele>
        <time>2009-07-31T11:19:58Z</time>
      </trkpt>
      <trkpt lat="43.37384090" lon="13.02663860">
        <ele>785.00000</ele>
        <time>2009-07-31T11:19:59Z</time>
      </trkpt>
      <trkpt lat="43.37384640" lon="13.02661770">
        <ele>785.00000</ele>
        <time>2009-07-31T11:19:59Z</time>
      </trkpt>
      <trkpt lat="43.37384320" lon="13.02657980">
        <ele>785.00000</ele>
        <time>2009-07-31T11:20:00Z</time>
      </trkpt>
      <trkpt lat="43.37385870" lon="13.02658680">
        <ele>785.00000</ele>
        <time>2009-07-31T11:20:01Z</time>
      </trkpt>
      <trkpt lat="43.37386850" lon="13.02658800">
        <ele>785.00000</ele>
        <time>2009-07-31T11:20:01Z</time>
      </trkpt>
      <trkpt lat="43.37388840" lon="13.02660010">
        <ele>785.00000</ele>
        <time>2009-07-31T11:20:02Z</time>
      </trkpt>
      <trkpt lat="43.37389340" lon="13.02659900">
        <ele>785.00000</ele>
        <time>2009-07-31T11:20:03Z</time>
      </trkpt>
      <trkpt lat="43.37389970" lon="13.02658700">
        <ele>785.00000</ele>
        <time>2009-07-31T11:20:03Z</time>
      </trkpt>
      <trkpt lat="43.37390660" lon="13.02658520">
        <ele>785.00000</ele>
        <time>2009-07-31T11:20:03Z</time>
      </trkpt>
      <trkpt lat="43.37391670" lon="13.02657340">
        <ele>785.00000</ele>
        <time>2009-07-31T11:20:04Z</time>
      </trkpt>
      <trkpt lat="43.37393870" lon="13.02658360">
        <ele>785.00000</ele>
        <time>2009-07-31T11:20:05Z</time>
      </trkpt>
      <trkpt lat="43.37394240" lon="13.02656810">
        <ele>785.00000</ele>
        <time>2009-07-31T11:20:05Z</time>
      </trkpt>
      <trkpt lat="43.37396760" lon="13.02657580">
        <ele>785.00000</ele>
        <time>2009-07-31T11:20:06Z</time>
      </trkpt>
      <trkpt lat="43.37397560" lon="13.02657280">
        <ele>785.00000</ele>
        <time>2009-07-31T11:20:07Z</time>
      </trkpt>
      <trkpt lat="43.37398860" lon="13.02657470">
        <ele>785.00000</ele>
        <time>2009-07-31T11:20:07Z</time>
      </trkpt>
      <trkpt lat="43.37400710" lon="13.02657910">
        <ele>785.00000</ele>
        <time>2009-07-31T11:20:08Z</time>
      </trkpt>
      <trkpt lat="43.37402330" lon="13.02657850">
        <ele>785.00000</ele>
        <time>2009-07-31T11:20:08Z</time>
      </trkpt>
      <trkpt lat="43.37403260" lon="13.02657140">
        <ele>785.00000</ele>
        <time>2009-07-31T11:20:09Z</time>
      </trkpt>
      <trkpt lat="43.37403970" lon="13.02656240">
        <ele>785.00000</ele>
        <time>2009-07-31T11:20:09Z</time>
      </trkpt>
      <trkpt lat="43.37404310" lon="13.02655570">
        <ele>785.00000</ele>
        <time>2009-07-31T11:20:10Z</time>
      </trkpt>
      <trkpt lat="43.37404170" lon="13.02655700">
        <ele>785.00000</ele>
        <time>2009-07-31T11:20:10Z</time>
      </trkpt>
      <trkpt lat="43.37404820" lon="13.02655860">
        <ele>785.00000</ele>
        <time>2009-07-31T11:20:10Z</time>
      </trkpt>
      <trkpt lat="43.37405260" lon="13.02655320">
        <ele>785.00000</ele>
        <time>2009-07-31T11:20:10Z</time>
      </trkpt>
      <trkpt lat="43.37405690" lon="13.02655410">
        <ele>785.00000</ele>
        <time>2009-07-31T11:20:10Z</time>
      </trkpt>
      <trkpt lat="43.37406510" lon="13.02653780">
        <ele>785.00000</ele>
        <time>2009-07-31T11:20:11Z</time>
      </trkpt>
      <trkpt lat="43.37408330" lon="13.02654860">
        <ele>785.00000</ele>
        <time>2009-07-31T11:20:12Z</time>
      </trkpt>
      <trkpt lat="43.37408490" lon="13.02655120">
        <ele>785.00000</ele>
        <time>2009-07-31T11:20:12Z</time>
      </trkpt>
      <trkpt lat="43.37409920" lon="13.02654880">
        <ele>785.00000</ele>
        <time>2009-07-31T11:20:12Z</time>
      </trkpt>
      <trkpt lat="43.37413730" lon="13.02656170">
        <ele>785.00000</ele>
        <time>2009-07-31T11:20:14Z</time>
      </trkpt>
      <trkpt lat="43.37415840" lon="13.02657030">
        <ele>785.00000</ele>
        <time>2009-07-31T11:20:15Z</time>
      </trkpt>
      <trkpt lat="43.37416540" lon="13.02656350">
        <ele>785.00000</ele>
        <time>2009-07-31T11:20:15Z</time>
      </trkpt>
      <trkpt lat="43.37417510" lon="13.02655770">
        <ele>785.00000</ele>
        <time>2009-07-31T11:20:16Z</time>
      </trkpt>
      <trkpt lat="43.37418430" lon="13.02656930">
        <ele>785.00000</ele>
        <time>2009-07-31T11:20:16Z</time>
      </trkpt>
      <trkpt lat="43.37419240" lon="13.02657840">
        <ele>785.00000</ele>
        <time>2009-07-31T11:20:16Z</time>
      </trkpt>
      <trkpt lat="43.37421710" lon="13.02659450">
        <ele>785.00000</ele>
        <time>2009-07-31T11:20:18Z</time>
      </trkpt>
      <trkpt lat="43.37422530" lon="13.02659810">
        <ele>785.00000</ele>
        <time>2009-07-31T11:20:18Z</time>
      </trkpt>
      <trkpt lat="43.37423990" lon="13.02660110">
        <ele>785.00000</ele>
        <time>2009-07-31T11:20:18Z</time>
      </trkpt>
      <trkpt lat="43.37425730" lon="13.02659680">
        <ele>785.00000</ele>
        <time>2009-07-31T11:20:19Z</time>
      </trkpt>
      <trkpt lat="43.37426030" lon="13.02657540">
        <ele>785.00000</ele>
        <time>2009-07-31T11:20:20Z</time>
      </trkpt>
      <trkpt lat="43.37426850" lon="13.02657160">
        <ele>785.00000</ele>
        <time>2009-07-31T11:20:20Z</time>
      </trkpt>
      <trkpt lat="43.37427290" lon="13.02657040">
        <ele>785.00000</ele>
        <time>2009-07-31T11:20:20Z</time>
      </trkpt>
      <trkpt lat="43.37426940" lon="13.02656600">
        <ele>785.00000</ele>
        <time>2009-07-31T11:20:21Z</time>
      </trkpt>
      <trkpt lat="43.37427690" lon="13.02656390">
        <ele>785.00000</ele>
        <time>2009-07-31T11:20:21Z</time>
      </trkpt>
      <trkpt lat="43.37427880" lon="13.02656340">
        <ele>785.00000</ele>
        <time>2009-07-31T11:20:21Z</time>
      </trkpt>
      <trkpt lat="43.37429850" lon="13.02657310">
        <ele>785.00000</ele>
        <time>2009-07-31T11:20:22Z</time>
      </trkpt>
      <trkpt lat="43.37431270" lon="13.02657130">
        <ele>785.00000</ele>
        <time>2009-07-31T11:20:22Z</time>
      </trkpt>
      <trkpt lat="43.37431850" lon="13.02656370">
        <ele>785.00000</ele>
        <time>2009-07-31T11:20:23Z</time>
      </trkpt>
      <trkpt lat="43.37433560" lon="13.02656760">
        <ele>785.00000</ele>
        <time>2009-07-31T11:20:23Z</time>
      </trkpt>
      <trkpt lat="43.37433950" lon="13.02655820">
        <ele>785.00000</ele>
        <time>2009-07-31T11:20:24Z</time>
      </trkpt>
      <trkpt lat="43.37435500" lon="13.02655820">
        <ele>785.00000</ele>
        <time>2009-07-31T11:20:24Z</time>
      </trkpt>
      <trkpt lat="43.37434660" lon="13.02652140">
        <ele>785.00000</ele>
        <time>2009-07-31T11:20:25Z</time>
      </trkpt>
      <trkpt lat="43.37436020" lon="13.02652680">
        <ele>785.00000</ele>
        <time>2009-07-31T11:20:26Z</time>
      </trkpt>
      <trkpt lat="43.37436850" lon="13.02652790">
        <ele>785.00000</ele>
        <time>2009-07-31T11:20:26Z</time>
      </trkpt>
      <trkpt lat="43.37438440" lon="13.02652510">
        <ele>785.00000</ele>
        <time>2009-07-31T11:20:27Z</time>
      </trkpt>
      <trkpt lat="43.37438360" lon="13.02650850">
        <ele>785.00000</ele>
        <time>2009-07-31T11:20:27Z</time>
      </trkpt>
      <trkpt lat="43.37438290" lon="13.02648900">
        <ele>785.00000</ele>
        <time>2009-07-31T11:20:28Z</time>
      </trkpt>
      <trkpt lat="43.37439450" lon="13.02648430">
        <ele>785.00000</ele>
        <time>2009-07-31T11:20:28Z</time>
      </trkpt>
      <trkpt lat="43.37440820" lon="13.02649440">
        <ele>785.00000</ele>
        <time>2009-07-31T11:20:29Z</time>
      </trkpt>
      <trkpt lat="43.37441050" lon="13.02649570">
        <ele>785.00000</ele>
        <time>2009-07-31T11:20:29Z</time>
      </trkpt>
      <trkpt lat="43.37441410" lon="13.02649750">
        <ele>785.00000</ele>
        <time>2009-07-31T11:20:29Z</time>
      </trkpt>
      <trkpt lat="43.37442610" lon="13.02648910">
        <ele>785.00000</ele>
        <time>2009-07-31T11:20:30Z</time>
      </trkpt>
      <trkpt lat="43.37443460" lon="13.02650720">
        <ele>785.00000</ele>
        <time>2009-07-31T11:20:31Z</time>
      </trkpt>
      <trkpt lat="43.37445290" lon="13.02652250">
        <ele>785.00000</ele>
        <time>2009-07-31T11:20:31Z</time>
      </trkpt>
      <trkpt lat="43.37446730" lon="13.02652200">
        <ele>785.00000</ele>
        <time>2009-07-31T11:20:32Z</time>
      </trkpt>
      <trkpt lat="43.37447580" lon="13.02652910">
        <ele>785.00000</ele>
        <time>2009-07-31T11:20:32Z</time>
      </trkpt>
      <trkpt lat="43.37447320" lon="13.02654370">
        <ele>785.00000</ele>
        <time>2009-07-31T11:20:33Z</time>
      </trkpt>
      <trkpt lat="43.37448970" lon="13.02654250">
        <ele>785.00000</ele>
        <time>2009-07-31T11:20:33Z</time>
      </trkpt>
      <trkpt lat="43.37451630" lon="13.02652890">
        <ele>785.00000</ele>
        <time>2009-07-31T11:20:35Z</time>
      </trkpt>
      <trkpt lat="43.37452690" lon="13.02653440">
        <ele>785.00000</ele>
        <time>2009-07-31T11:20:35Z</time>
      </trkpt>
      <trkpt lat="43.37454740" lon="13.02653580">
        <ele>785.00000</ele>
        <time>2009-07-31T11:20:36Z</time>
      </trkpt>
      <trkpt lat="43.37455620" lon="13.02653650">
        <ele>785.00000</ele>
        <time>2009-07-31T11:20:36Z</time>
      </trkpt>
      <trkpt lat="43.37457610" lon="13.02654090">
        <ele>785.00000</ele>
        <time>2009-07-31T11:20:37Z</time>
      </trkpt>
      <trkpt lat="43.37459450" lon="13.02655370">
        <ele>747.00000</ele>
        <time>2009-07-31T11:20:38Z</time>
      </trkpt>
      <trkpt lat="43.37460610" lon="13.02656020">
        <ele>747.00000</ele>
        <time>2009-07-31T11:20:38Z</time>
      </trkpt>
      <trkpt lat="43.37464260" lon="13.02661350">
        <ele>747.00000</ele>
        <time>2009-07-31T11:20:41Z</time>
      </trkpt>
      <trkpt lat="43.37466410" lon="13.02662190">
        <ele>747.00000</ele>
        <time>2009-07-31T11:20:41Z</time>
      </trkpt>
      <trkpt lat="43.37467620" lon="13.02662940">
        <ele>747.00000</ele>
        <time>2009-07-31T11:20:42Z</time>
      </trkpt>
      <trkpt lat="43.37469210" lon="13.02663250">
        <ele>747.00000</ele>
        <time>2009-07-31T11:20:43Z</time>
      </trkpt>
      <trkpt lat="43.37470220" lon="13.02663590">
        <ele>747.00000</ele>
        <time>2009-07-31T11:20:43Z</time>
      </trkpt>
      <trkpt lat="43.37470050" lon="13.02663340">
        <ele>747.00000</ele>
        <time>2009-07-31T11:20:43Z</time>
      </trkpt>
      <trkpt lat="43.37469690" lon="13.02664390">
        <ele>747.00000</ele>
        <time>2009-07-31T11:20:43Z</time>
      </trkpt>
      <trkpt lat="43.37468820" lon="13.02663650">
        <ele>747.00000</ele>
        <time>2009-07-31T11:20:44Z</time>
      </trkpt>
      <trkpt lat="43.37469210" lon="13.02662770">
        <ele>747.00000</ele>
        <time>2009-07-31T11:20:44Z</time>
      </trkpt>
      <trkpt lat="43.37469480" lon="13.02662780">
        <ele>747.00000</ele>
        <time>2009-07-31T11:20:44Z</time>
      </trkpt>
      <trkpt lat="43.37469740" lon="13.02662080">
        <ele>747.00000</ele>
        <time>2009-07-31T11:20:44Z</time>
      </trkpt>
      <trkpt lat="43.37471860" lon="13.02663510">
        <ele>747.00000</ele>
        <time>2009-07-31T11:20:45Z</time>
      </trkpt>
      <trkpt lat="43.37471910" lon="13.02663260">
        <ele>747.00000</ele>
        <time>2009-07-31T11:20:45Z</time>
      </trkpt>
      <trkpt lat="43.37471970" lon="13.02662290">
        <ele>747.00000</ele>
        <time>2009-07-31T11:20:46Z</time>
      </trkpt>
      <trkpt lat="43.37473250" lon="13.02661750">
        <ele>747.00000</ele>
        <time>2009-07-31T11:20:46Z</time>
      </trkpt>
      <trkpt lat="43.37473230" lon="13.02659590">
        <ele>747.00000</ele>
        <time>2009-07-31T11:20:47Z</time>
      </trkpt>
      <trkpt lat="43.37473760" lon="13.02658910">
        <ele>747.00000</ele>
        <time>2009-07-31T11:20:47Z</time>
      </trkpt>
      <trkpt lat="43.37476330" lon="13.02660020">
        <ele>747.00000</ele>
        <time>2009-07-31T11:20:48Z</time>
      </trkpt>
      <trkpt lat="43.37477320" lon="13.02659540">
        <ele>747.00000</ele>
        <time>2009-07-31T11:20:49Z</time>
      </trkpt>
      <trkpt lat="43.37479750" lon="13.02661310">
        <ele>747.00000</ele>
        <time>2009-07-31T11:20:50Z</time>
      </trkpt>
      <trkpt lat="43.37481520" lon="13.02661540">
        <ele>747.00000</ele>
        <time>2009-07-31T11:20:51Z</time>
      </trkpt>
      <trkpt lat="43.37483170" lon="13.02662500">
        <ele>747.00000</ele>
        <time>2009-07-31T11:20:51Z</time>
      </trkpt>
      <trkpt lat="43.37485680" lon="13.02661540">
        <ele>747.00000</ele>
        <time>2009-07-31T11:20:52Z</time>
      </trkpt>
      <trkpt lat="43.37487250" lon="13.02662240">
        <ele>747.00000</ele>
        <time>2009-07-31T11:20:53Z</time>
      </trkpt>
      <trkpt lat="43.37488260" lon="13.02661460">
        <ele>747.00000</ele>
        <time>2009-07-31T11:20:53Z</time>
      </trkpt>
      <trkpt lat="43.37488540" lon="13.02660360">
        <ele>747.00000</ele>
        <time>2009-07-31T11:20:54Z</time>
      </trkpt>
      <trkpt lat="43.37489860" lon="13.02658650">
        <ele>747.00000</ele>
        <time>2009-07-31T11:20:54Z</time>
      </trkpt>
      <trkpt lat="43.37491550" lon="13.02658770">
        <ele>747.00000</ele>
        <time>2009-07-31T11:20:55Z</time>
      </trkpt>
      <trkpt lat="43.37493740" lon="13.02659310">
        <ele>747.00000</ele>
        <time>2009-07-31T11:20:56Z</time>
      </trkpt>
      <trkpt lat="43.37494210" lon="13.02656770">
        <ele>747.00000</ele>
        <time>2009-07-31T11:20:57Z</time>
      </trkpt>
      <trkpt lat="43.37495990" lon="13.02658850">
        <ele>747.00000</ele>
        <time>2009-07-31T11:20:58Z</time>
      </trkpt>
      <trkpt lat="43.37497290" lon="13.02658890">
        <ele>747.00000</ele>
        <time>2009-07-31T11:20:58Z</time>
      </trkpt>
      <trkpt lat="43.37499080" lon="13.02662670">
        <ele>747.00000</ele>
        <time>2009-07-31T11:21:00Z</time>
      </trkpt>
      <trkpt lat="43.37499120" lon="13.02662950">
        <ele>747.00000</ele>
        <time>2009-07-31T11:21:00Z</time>
      </trkpt>
      <trkpt lat="43.37499370" lon="13.02664860">
        <ele>747.00000</ele>
        <time>2009-07-31T11:21:00Z</time>
      </trkpt>
      <trkpt lat="43.37501380" lon="13.02667710">
        <ele>747.00000</ele>
        <time>2009-07-31T11:21:01Z</time>
      </trkpt>
      <trkpt lat="43.37502100" lon="13.02668660">
        <ele>747.00000</ele>
        <time>2009-07-31T11:21:02Z</time>
      </trkpt>
      <trkpt lat="43.37504230" lon="13.02670400">
        <ele>747.00000</ele>
        <time>2009-07-31T11:21:03Z</time>
      </trkpt>
      <trkpt lat="43.37504540" lon="13.02671200">
        <ele>747.00000</ele>
        <time>2009-07-31T11:21:03Z</time>
      </trkpt>
      <trkpt lat="43.37504590" lon="13.02670950">
        <ele>747.00000</ele>
        <time>2009-07-31T11:21:03Z</time>
      </trkpt>
      <trkpt lat="43.37505760" lon="13.02672040">
        <ele>747.00000</ele>
        <time>2009-07-31T11:21:04Z</time>
      </trkpt>
      <trkpt lat="43.37507410" lon="13.02672710">
        <ele>747.00000</ele>
        <time>2009-07-31T11:21:04Z</time>
      </trkpt>
      <trkpt lat="43.37507470" lon="13.02674090">
        <ele>747.00000</ele>
        <time>2009-07-31T11:21:05Z</time>
      </trkpt>
      <trkpt lat="43.37507850" lon="13.02675440">
        <ele>747.00000</ele>
        <time>2009-07-31T11:21:05Z</time>
      </trkpt>
      <trkpt lat="43.37509450" lon="13.02676190">
        <ele>747.00000</ele>
        <time>2009-07-31T11:21:06Z</time>
      </trkpt>
      <trkpt lat="43.37510930" lon="13.02678460">
        <ele>747.00000</ele>
        <time>2009-07-31T11:21:07Z</time>
      </trkpt>
      <trkpt lat="43.37511210" lon="13.02680820">
        <ele>747.00000</ele>
        <time>2009-07-31T11:21:07Z</time>
      </trkpt>
      <trkpt lat="43.37510890" lon="13.02683960">
        <ele>747.00000</ele>
        <time>2009-07-31T11:21:08Z</time>
      </trkpt>
      <trkpt lat="43.37510440" lon="13.02686920">
        <ele>747.00000</ele>
        <time>2009-07-31T11:21:09Z</time>
      </trkpt>
      <trkpt lat="43.37510940" lon="13.02690480">
        <ele>747.00000</ele>
        <time>2009-07-31T11:21:10Z</time>
      </trkpt>
      <trkpt lat="43.37512220" lon="13.02693280">
        <ele>747.00000</ele>
        <time>2009-07-31T11:21:11Z</time>
      </trkpt>
      <trkpt lat="43.37512880" lon="13.02695500">
        <ele>747.00000</ele>
        <time>2009-07-31T11:21:12Z</time>
      </trkpt>
      <trkpt lat="43.37513500" lon="13.02698920">
        <ele>747.00000</ele>
        <time>2009-07-31T11:21:13Z</time>
      </trkpt>
      <trkpt lat="43.37514160" lon="13.02701840">
        <ele>747.00000</ele>
        <time>2009-07-31T11:21:14Z</time>
      </trkpt>
      <trkpt lat="43.37515320" lon="13.02704400">
        <ele>747.00000</ele>
        <time>2009-07-31T11:21:15Z</time>
      </trkpt>
      <trkpt lat="43.37515560" lon="13.02707220">
        <ele>747.00000</ele>
        <time>2009-07-31T11:21:16Z</time>
      </trkpt>
      <trkpt lat="43.37514540" lon="13.02711650">
        <ele>749.00000</ele>
        <time>2009-07-31T11:21:17Z</time>
      </trkpt>
      <trkpt lat="43.37512220" lon="13.02714040">
        <ele>749.00000</ele>
        <time>2009-07-31T11:21:18Z</time>
      </trkpt>
      <trkpt lat="43.37510900" lon="13.02716760">
        <ele>749.00000</ele>
        <time>2009-07-31T11:21:19Z</time>
      </trkpt>
      <trkpt lat="43.37510540" lon="13.02719720">
        <ele>749.00000</ele>
        <time>2009-07-31T11:21:20Z</time>
      </trkpt>
      <trkpt lat="43.37510000" lon="13.02722960">
        <ele>749.00000</ele>
        <time>2009-07-31T11:21:21Z</time>
      </trkpt>
      <trkpt lat="43.37512440" lon="13.02726600">
        <ele>749.00000</ele>
        <time>2009-07-31T11:21:22Z</time>
      </trkpt>
      <trkpt lat="43.37512010" lon="13.02729550">
        <ele>749.00000</ele>
        <time>2009-07-31T11:21:23Z</time>
      </trkpt>
      <trkpt lat="43.37511910" lon="13.02732620">
        <ele>749.00000</ele>
        <time>2009-07-31T11:21:24Z</time>
      </trkpt>
      <trkpt lat="43.37511370" lon="13.02734670">
        <ele>749.00000</ele>
        <time>2009-07-31T11:21:25Z</time>
      </trkpt>
      <trkpt lat="43.37510270" lon="13.02738010">
        <ele>749.00000</ele>
        <time>2009-07-31T11:21:26Z</time>
      </trkpt>
      <trkpt lat="43.37508720" lon="13.02740890">
        <ele>749.00000</ele>
        <time>2009-07-31T11:21:27Z</time>
      </trkpt>
      <trkpt lat="43.37507940" lon="13.02743380">
        <ele>749.00000</ele>
        <time>2009-07-31T11:21:28Z</time>
      </trkpt>
      <trkpt lat="43.37507530" lon="13.02745920">
        <ele>749.00000</ele>
        <time>2009-07-31T11:21:28Z</time>
      </trkpt>
      <trkpt lat="43.37507280" lon="13.02748510">
        <ele>749.00000</ele>
        <time>2009-07-31T11:21:29Z</time>
      </trkpt>
      <trkpt lat="43.37507000" lon="13.02751370">
        <ele>749.00000</ele>
        <time>2009-07-31T11:21:30Z</time>
      </trkpt>
      <trkpt lat="43.37505480" lon="13.02753530">
        <ele>749.00000</ele>
        <time>2009-07-31T11:21:31Z</time>
      </trkpt>
      <trkpt lat="43.37504580" lon="13.02755120">
        <ele>749.00000</ele>
        <time>2009-07-31T11:21:31Z</time>
      </trkpt>
      <trkpt lat="43.37503460" lon="13.02757730">
        <ele>749.00000</ele>
        <time>2009-07-31T11:21:32Z</time>
      </trkpt>
      <trkpt lat="43.37503540" lon="13.02761130">
        <ele>749.00000</ele>
        <time>2009-07-31T11:21:33Z</time>
      </trkpt>
      <trkpt lat="43.37502840" lon="13.02763980">
        <ele>749.00000</ele>
        <time>2009-07-31T11:21:34Z</time>
      </trkpt>
      <trkpt lat="43.37502050" lon="13.02768540">
        <ele>749.00000</ele>
        <time>2009-07-31T11:21:36Z</time>
      </trkpt>
      <trkpt lat="43.37501720" lon="13.02772380">
        <ele>749.00000</ele>
        <time>2009-07-31T11:21:37Z</time>
      </trkpt>
      <trkpt lat="43.37499930" lon="13.02774760">
        <ele>749.00000</ele>
        <time>2009-07-31T11:21:38Z</time>
      </trkpt>
      <trkpt lat="43.37499270" lon="13.02776800">
        <ele>749.00000</ele>
        <time>2009-07-31T11:21:38Z</time>
      </trkpt>
      <trkpt lat="43.37498580" lon="13.02777840">
        <ele>749.00000</ele>
        <time>2009-07-31T11:21:39Z</time>
      </trkpt>
      <trkpt lat="43.37498490" lon="13.02780350">
        <ele>749.00000</ele>
        <time>2009-07-31T11:21:39Z</time>
      </trkpt>
      <trkpt lat="43.37498480" lon="13.02783060">
        <ele>749.00000</ele>
        <time>2009-07-31T11:21:40Z</time>
      </trkpt>
      <trkpt lat="43.37499150" lon="13.02785800">
        <ele>749.00000</ele>
        <time>2009-07-31T11:21:41Z</time>
      </trkpt>
      <trkpt lat="43.37499820" lon="13.02788930">
        <ele>749.00000</ele>
        <time>2009-07-31T11:21:42Z</time>
      </trkpt>
      <trkpt lat="43.37500010" lon="13.02790740">
        <ele>749.00000</ele>
        <time>2009-07-31T11:21:43Z</time>
      </trkpt>
      <trkpt lat="43.37499580" lon="13.02792200">
        <ele>746.00000</ele>
        <time>2009-07-31T11:21:43Z</time>
      </trkpt>
      <trkpt lat="43.37498570" lon="13.02792940">
        <ele>746.00000</ele>
        <time>2009-07-31T11:21:44Z</time>
      </trkpt>
      <trkpt lat="43.37497430" lon="13.02794730">
        <ele>746.00000</ele>
        <time>2009-07-31T11:21:44Z</time>
      </trkpt>
      <trkpt lat="43.37495970" lon="13.02797180">
        <ele>746.00000</ele>
        <time>2009-07-31T11:21:45Z</time>
      </trkpt>
      <trkpt lat="43.37495080" lon="13.02800280">
        <ele>746.00000</ele>
        <time>2009-07-31T11:21:46Z</time>
      </trkpt>
      <trkpt lat="43.37495620" lon="13.02802860">
        <ele>746.00000</ele>
        <time>2009-07-31T11:21:47Z</time>
      </trkpt>
      <trkpt lat="43.37495230" lon="13.02804710">
        <ele>746.00000</ele>
        <time>2009-07-31T11:21:47Z</time>
      </trkpt>
      <trkpt lat="43.37494870" lon="13.02806310">
        <ele>746.00000</ele>
        <time>2009-07-31T11:21:48Z</time>
      </trkpt>
      <trkpt lat="43.37493510" lon="13.02808300">
        <ele>746.00000</ele>
        <time>2009-07-31T11:21:49Z</time>
      </trkpt>
      <trkpt lat="43.37492560" lon="13.02810600">
        <ele>746.00000</ele>
        <time>2009-07-31T11:21:49Z</time>
      </trkpt>
      <trkpt lat="43.37492610" lon="13.02812380">
        <ele>746.00000</ele>
        <time>2009-07-31T11:21:50Z</time>
      </trkpt>
      <trkpt lat="43.37493060" lon="13.02815250">
        <ele>746.00000</ele>
        <time>2009-07-31T11:21:51Z</time>
      </trkpt>
      <trkpt lat="43.37493330" lon="13.02816830">
        <ele>746.00000</ele>
        <time>2009-07-31T11:21:51Z</time>
      </trkpt>
      <trkpt lat="43.37493370" lon="13.02819220">
        <ele>746.00000</ele>
        <time>2009-07-31T11:21:52Z</time>
      </trkpt>
      <trkpt lat="43.37493190" lon="13.02823590">
        <ele>746.00000</ele>
        <time>2009-07-31T11:21:53Z</time>
      </trkpt>
      <trkpt lat="43.37493710" lon="13.02826600">
        <ele>746.00000</ele>
        <time>2009-07-31T11:21:54Z</time>
      </trkpt>
      <trkpt lat="43.37494020" lon="13.02830040">
        <ele>746.00000</ele>
        <time>2009-07-31T11:21:55Z</time>
      </trkpt>
      <trkpt lat="43.37489400" lon="13.02831000">
        <ele>746.00000</ele>
        <time>2009-07-31T11:21:57Z</time>
      </trkpt>
      <trkpt lat="43.37491290" lon="13.02833260">
        <ele>746.00000</ele>
        <time>2009-07-31T11:21:58Z</time>
      </trkpt>
      <trkpt lat="43.37489890" lon="13.02835290">
        <ele>746.00000</ele>
        <time>2009-07-31T11:21:59Z</time>
      </trkpt>
      <trkpt lat="43.37489020" lon="13.02838340">
        <ele>746.00000</ele>
        <time>2009-07-31T11:22:00Z</time>
      </trkpt>
      <trkpt lat="43.37487930" lon="13.02841230">
        <ele>746.00000</ele>
        <time>2009-07-31T11:22:01Z</time>
      </trkpt>
      <trkpt lat="43.37484200" lon="13.02843090">
        <ele>746.00000</ele>
        <time>2009-07-31T11:22:02Z</time>
      </trkpt>
      <trkpt lat="43.37483590" lon="13.02847860">
        <ele>746.00000</ele>
        <time>2009-07-31T11:22:04Z</time>
      </trkpt>
      <trkpt lat="43.37483260" lon="13.02850240">
        <ele>746.00000</ele>
        <time>2009-07-31T11:22:05Z</time>
      </trkpt>
      <trkpt lat="43.37482800" lon="13.02852200">
        <ele>746.00000</ele>
        <time>2009-07-31T11:22:05Z</time>
      </trkpt>
      <trkpt lat="43.37481910" lon="13.02853340">
        <ele>746.00000</ele>
        <time>2009-07-31T11:22:06Z</time>
      </trkpt>
      <trkpt lat="43.37481050" lon="13.02854880">
        <ele>746.00000</ele>
        <time>2009-07-31T11:22:06Z</time>
      </trkpt>
      <trkpt lat="43.37481370" lon="13.02857340">
        <ele>746.00000</ele>
        <time>2009-07-31T11:22:07Z</time>
      </trkpt>
      <trkpt lat="43.37481270" lon="13.02859410">
        <ele>746.00000</ele>
        <time>2009-07-31T11:22:07Z</time>
      </trkpt>
      <trkpt lat="43.37480440" lon="13.02863000">
        <ele>746.00000</ele>
        <time>2009-07-31T11:22:09Z</time>
      </trkpt>
      <trkpt lat="43.37480100" lon="13.02866190">
        <ele>746.00000</ele>
        <time>2009-07-31T11:22:10Z</time>
      </trkpt>
      <trkpt lat="43.37479210" lon="13.02869910">
        <ele>746.00000</ele>
        <time>2009-07-31T11:22:11Z</time>
      </trkpt>
      <trkpt lat="43.37479720" lon="13.02873590">
        <ele>746.00000</ele>
        <time>2009-07-31T11:22:12Z</time>
      </trkpt>
      <trkpt lat="43.37480140" lon="13.02875450">
        <ele>742.00000</ele>
        <time>2009-07-31T11:22:12Z</time>
      </trkpt>
      <trkpt lat="43.37480410" lon="13.02879400">
        <ele>742.00000</ele>
        <time>2009-07-31T11:22:13Z</time>
      </trkpt>
      <trkpt lat="43.37480390" lon="13.02882520">
        <ele>742.00000</ele>
        <time>2009-07-31T11:22:14Z</time>
      </trkpt>
      <trkpt lat="43.37477750" lon="13.02884330">
        <ele>742.00000</ele>
        <time>2009-07-31T11:22:16Z</time>
      </trkpt>
      <trkpt lat="43.37476940" lon="13.02887750">
        <ele>742.00000</ele>
        <time>2009-07-31T11:22:17Z</time>
      </trkpt>
      <trkpt lat="43.37476610" lon="13.02889260">
        <ele>742.00000</ele>
        <time>2009-07-31T11:22:17Z</time>
      </trkpt>
      <trkpt lat="43.37476810" lon="13.02890400">
        <ele>742.00000</ele>
        <time>2009-07-31T11:22:17Z</time>
      </trkpt>
      <trkpt lat="43.37476730" lon="13.02892450">
        <ele>742.00000</ele>
        <time>2009-07-31T11:22:18Z</time>
      </trkpt>
      <trkpt lat="43.37476890" lon="13.02894530">
        <ele>742.00000</ele>
        <time>2009-07-31T11:22:19Z</time>
      </trkpt>
      <trkpt lat="43.37476980" lon="13.02897970">
        <ele>742.00000</ele>
        <time>2009-07-31T11:22:20Z</time>
      </trkpt>
      <trkpt lat="43.37477170" lon="13.02900730">
        <ele>742.00000</ele>
        <time>2009-07-31T11:22:20Z</time>
      </trkpt>
      <trkpt lat="43.37476490" lon="13.02903210">
        <ele>742.00000</ele>
        <time>2009-07-31T11:22:21Z</time>
      </trkpt>
      <trkpt lat="43.37475530" lon="13.02907760">
        <ele>742.00000</ele>
        <time>2009-07-31T11:22:23Z</time>
      </trkpt>
      <trkpt lat="43.37474950" lon="13.02910130">
        <ele>742.00000</ele>
        <time>2009-07-31T11:22:23Z</time>
      </trkpt>
      <trkpt lat="43.37475100" lon="13.02912220">
        <ele>742.00000</ele>
        <time>2009-07-31T11:22:24Z</time>
      </trkpt>
      <trkpt lat="43.37475260" lon="13.02917170">
        <ele>742.00000</ele>
        <time>2009-07-31T11:22:25Z</time>
      </trkpt>
      <trkpt lat="43.37473470" lon="13.02917450">
        <ele>742.00000</ele>
        <time>2009-07-31T11:22:26Z</time>
      </trkpt>
      <trkpt lat="43.37474120" lon="13.02919570">
        <ele>742.00000</ele>
        <time>2009-07-31T11:22:27Z</time>
      </trkpt>
      <trkpt lat="43.37474270" lon="13.02922220">
        <ele>742.00000</ele>
        <time>2009-07-31T11:22:28Z</time>
      </trkpt>
      <trkpt lat="43.37473700" lon="13.02924360">
        <ele>742.00000</ele>
        <time>2009-07-31T11:22:28Z</time>
      </trkpt>
      <trkpt lat="43.37474420" lon="13.02927610">
        <ele>742.00000</ele>
        <time>2009-07-31T11:22:29Z</time>
      </trkpt>
      <trkpt lat="43.37475790" lon="13.02930120">
        <ele>742.00000</ele>
        <time>2009-07-31T11:22:30Z</time>
      </trkpt>
      <trkpt lat="43.37475160" lon="13.02933040">
        <ele>742.00000</ele>
        <time>2009-07-31T11:22:31Z</time>
      </trkpt>
      <trkpt lat="43.37476130" lon="13.02935670">
        <ele>742.00000</ele>
        <time>2009-07-31T11:22:32Z</time>
      </trkpt>
      <trkpt lat="43.37473720" lon="13.02936550">
        <ele>742.00000</ele>
        <time>2009-07-31T11:22:33Z</time>
      </trkpt>
      <trkpt lat="43.37473210" lon="13.02938560">
        <ele>742.00000</ele>
        <time>2009-07-31T11:22:33Z</time>
      </trkpt>
      <trkpt lat="43.37472350" lon="13.02940840">
        <ele>742.00000</ele>
        <time>2009-07-31T11:22:34Z</time>
      </trkpt>
      <trkpt lat="43.37470420" lon="13.02943430">
        <ele>742.00000</ele>
        <time>2009-07-31T11:22:35Z</time>
      </trkpt>
      <trkpt lat="43.37469990" lon="13.02946550">
        <ele>742.00000</ele>
        <time>2009-07-31T11:22:36Z</time>
      </trkpt>
      <trkpt lat="43.37469420" lon="13.02948370">
        <ele>742.00000</ele>
        <time>2009-07-31T11:22:37Z</time>
      </trkpt>
      <trkpt lat="43.37469770" lon="13.02951520">
        <ele>742.00000</ele>
        <time>2009-07-31T11:22:38Z</time>
      </trkpt>
      <trkpt lat="43.37463250" lon="13.02949230">
        <ele>742.00000</ele>
        <time>2009-07-31T11:22:40Z</time>
      </trkpt>
      <trkpt lat="43.37462100" lon="13.02950410">
        <ele>742.00000</ele>
        <time>2009-07-31T11:22:41Z</time>
      </trkpt>
      <trkpt lat="43.37460930" lon="13.02953790">
        <ele>742.00000</ele>
        <time>2009-07-31T11:22:42Z</time>
      </trkpt>
      <trkpt lat="43.37459810" lon="13.02957660">
        <ele>742.00000</ele>
        <time>2009-07-31T11:22:43Z</time>
      </trkpt>
      <trkpt lat="43.37461440" lon="13.02961760">
        <ele>745.00000</ele>
        <time>2009-07-31T11:22:45Z</time>
      </trkpt>
      <trkpt lat="43.37461710" lon="13.02964910">
        <ele>745.00000</ele>
        <time>2009-07-31T11:22:46Z</time>
      </trkpt>
      <trkpt lat="43.37462470" lon="13.02967850">
        <ele>745.00000</ele>
        <time>2009-07-31T11:22:46Z</time>
      </trkpt>
      <trkpt lat="43.37463220" lon="13.02970600">
        <ele>745.00000</ele>
        <time>2009-07-31T11:22:47Z</time>
      </trkpt>
      <trkpt lat="43.37463130" lon="13.02973970">
        <ele>745.00000</ele>
        <time>2009-07-31T11:22:48Z</time>
      </trkpt>
      <trkpt lat="43.37464730" lon="13.02978260">
        <ele>745.00000</ele>
        <time>2009-07-31T11:22:50Z</time>
      </trkpt>
      <trkpt lat="43.37465330" lon="13.02981810">
        <ele>745.00000</ele>
        <time>2009-07-31T11:22:51Z</time>
      </trkpt>
      <trkpt lat="43.37466490" lon="13.02984280">
        <ele>745.00000</ele>
        <time>2009-07-31T11:22:52Z</time>
      </trkpt>
      <trkpt lat="43.37467890" lon="13.02986690">
        <ele>745.00000</ele>
        <time>2009-07-31T11:22:53Z</time>
      </trkpt>
      <trkpt lat="43.37468760" lon="13.02989590">
        <ele>745.00000</ele>
        <time>2009-07-31T11:22:53Z</time>
      </trkpt>
      <trkpt lat="43.37470760" lon="13.02992710">
        <ele>745.00000</ele>
        <time>2009-07-31T11:22:55Z</time>
      </trkpt>
      <trkpt lat="43.37472970" lon="13.02996210">
        <ele>745.00000</ele>
        <time>2009-07-31T11:22:56Z</time>
      </trkpt>
      <trkpt lat="43.37474410" lon="13.02997890">
        <ele>745.00000</ele>
        <time>2009-07-31T11:22:57Z</time>
      </trkpt>
      <trkpt lat="43.37476090" lon="13.03000150">
        <ele>745.00000</ele>
        <time>2009-07-31T11:22:58Z</time>
      </trkpt>
      <trkpt lat="43.37480590" lon="13.03003290">
        <ele>745.00000</ele>
        <time>2009-07-31T11:23:00Z</time>
      </trkpt>
      <trkpt lat="43.37481120" lon="13.03005300">
        <ele>745.00000</ele>
        <time>2009-07-31T11:23:00Z</time>
      </trkpt>
      <trkpt lat="43.37483610" lon="13.03007970">
        <ele>745.00000</ele>
        <time>2009-07-31T11:23:02Z</time>
      </trkpt>
      <trkpt lat="43.37484440" lon="13.03010010">
        <ele>745.00000</ele>
        <time>2009-07-31T11:23:02Z</time>
      </trkpt>
      <trkpt lat="43.37485710" lon="13.03013200">
        <ele>745.00000</ele>
        <time>2009-07-31T11:23:03Z</time>
      </trkpt>
      <trkpt lat="43.37487320" lon="13.03016210">
        <ele>745.00000</ele>
        <time>2009-07-31T11:23:04Z</time>
      </trkpt>
      <trkpt lat="43.37489580" lon="13.03015870">
        <ele>745.00000</ele>
        <time>2009-07-31T11:23:05Z</time>
      </trkpt>
      <trkpt lat="43.37490460" lon="13.03015770">
        <ele>745.00000</ele>
        <time>2009-07-31T11:23:06Z</time>
      </trkpt>
      <trkpt lat="43.37491340" lon="13.03015540">
        <ele>745.00000</ele>
        <time>2009-07-31T11:23:06Z</time>
      </trkpt>
      <trkpt lat="43.37492950" lon="13.03013450">
        <ele>745.00000</ele>
        <time>2009-07-31T11:23:07Z</time>
      </trkpt>
      <trkpt lat="43.37494930" lon="13.03015360">
        <ele>745.00000</ele>
        <time>2009-07-31T11:23:08Z</time>
      </trkpt>
      <trkpt lat="43.37497350" lon="13.03016580">
        <ele>745.00000</ele>
        <time>2009-07-31T11:23:09Z</time>
      </trkpt>
      <trkpt lat="43.37498600" lon="13.03019520">
        <ele>745.00000</ele>
        <time>2009-07-31T11:23:10Z</time>
      </trkpt>
      <trkpt lat="43.37500750" lon="13.03023940">
        <ele>745.00000</ele>
        <time>2009-07-31T11:23:11Z</time>
      </trkpt>
      <trkpt lat="43.37501630" lon="13.03024870">
        <ele>745.00000</ele>
        <time>2009-07-31T11:23:12Z</time>
      </trkpt>
      <trkpt lat="43.37501660" lon="13.03022910">
        <ele>745.00000</ele>
        <time>2009-07-31T11:23:12Z</time>
      </trkpt>
      <trkpt lat="43.37503090" lon="13.03023760">
        <ele>745.00000</ele>
        <time>2009-07-31T11:23:13Z</time>
      </trkpt>
      <trkpt lat="43.37503310" lon="13.03023900">
        <ele>745.00000</ele>
        <time>2009-07-31T11:23:13Z</time>
      </trkpt>
      <trkpt lat="43.37503540" lon="13.03024080">
        <ele>745.00000</ele>
        <time>2009-07-31T11:23:13Z</time>
      </trkpt>
      <trkpt lat="43.37504920" lon="13.03027430">
        <ele>745.00000</ele>
        <time>2009-07-31T11:23:14Z</time>
      </trkpt>
      <trkpt lat="43.37508490" lon="13.03029140">
        <ele>745.00000</ele>
        <time>2009-07-31T11:23:16Z</time>
      </trkpt>
      <trkpt lat="43.37511270" lon="13.03031540">
        <ele>745.00000</ele>
        <time>2009-07-31T11:23:17Z</time>
      </trkpt>
      <trkpt lat="43.37513660" lon="13.03033740">
        <ele>745.00000</ele>
        <time>2009-07-31T11:23:18Z</time>
      </trkpt>
      <trkpt lat="43.37514740" lon="13.03035640">
        <ele>745.00000</ele>
        <time>2009-07-31T11:23:19Z</time>
      </trkpt>
      <trkpt lat="43.37516320" lon="13.03038230">
        <ele>745.00000</ele>
        <time>2009-07-31T11:23:20Z</time>
      </trkpt>
      <trkpt lat="43.37519060" lon="13.03040300">
        <ele>745.00000</ele>
        <time>2009-07-31T11:23:21Z</time>
      </trkpt>
      <trkpt lat="43.37519680" lon="13.03040370">
        <ele>745.00000</ele>
        <time>2009-07-31T11:23:22Z</time>
      </trkpt>
      <trkpt lat="43.37521580" lon="13.03040830">
        <ele>745.00000</ele>
        <time>2009-07-31T11:23:22Z</time>
      </trkpt>
      <trkpt lat="43.37522500" lon="13.03042230">
        <ele>763.00000</ele>
        <time>2009-07-31T11:23:23Z</time>
      </trkpt>
      <trkpt lat="43.37525090" lon="13.03042330">
        <ele>763.00000</ele>
        <time>2009-07-31T11:23:24Z</time>
      </trkpt>
      <trkpt lat="43.37526660" lon="13.03043020">
        <ele>763.00000</ele>
        <time>2009-07-31T11:23:25Z</time>
      </trkpt>
      <trkpt lat="43.37529560" lon="13.03047140">
        <ele>763.00000</ele>
        <time>2009-07-31T11:23:26Z</time>
      </trkpt>
      <trkpt lat="43.37530860" lon="13.03048190">
        <ele>763.00000</ele>
        <time>2009-07-31T11:23:27Z</time>
      </trkpt>
      <trkpt lat="43.37532730" lon="13.03047530">
        <ele>763.00000</ele>
        <time>2009-07-31T11:23:28Z</time>
      </trkpt>
      <trkpt lat="43.37534520" lon="13.03048170">
        <ele>763.00000</ele>
        <time>2009-07-31T11:23:28Z</time>
      </trkpt>
      <trkpt lat="43.37535770" lon="13.03048670">
        <ele>763.00000</ele>
        <time>2009-07-31T11:23:29Z</time>
      </trkpt>
      <trkpt lat="43.37537130" lon="13.03049070">
        <ele>763.00000</ele>
        <time>2009-07-31T11:23:29Z</time>
      </trkpt>
      <trkpt lat="43.37540750" lon="13.03050110">
        <ele>763.00000</ele>
        <time>2009-07-31T11:23:31Z</time>
      </trkpt>
      <trkpt lat="43.37543390" lon="13.03051610">
        <ele>732.00000</ele>
        <time>2009-07-31T11:23:32Z</time>
      </trkpt>
      <trkpt lat="43.37545840" lon="13.03052510">
        <ele>732.00000</ele>
        <time>2009-07-31T11:23:33Z</time>
      </trkpt>
      <trkpt lat="43.37548780" lon="13.03053270">
        <ele>732.00000</ele>
        <time>2009-07-31T11:23:34Z</time>
      </trkpt>
      <trkpt lat="43.37549500" lon="13.03054000">
        <ele>732.00000</ele>
        <time>2009-07-31T11:23:35Z</time>
      </trkpt>
      <trkpt lat="43.37550220" lon="13.03055200">
        <ele>732.00000</ele>
        <time>2009-07-31T11:23:35Z</time>
      </trkpt>
      <trkpt lat="43.37551230" lon="13.03056000">
        <ele>732.00000</ele>
        <time>2009-07-31T11:23:36Z</time>
      </trkpt>
      <trkpt lat="43.37554290" lon="13.03058050">
        <ele>732.00000</ele>
        <time>2009-07-31T11:23:37Z</time>
      </trkpt>
      <trkpt lat="43.37553870" lon="13.03056970">
        <ele>732.00000</ele>
        <time>2009-07-31T11:23:37Z</time>
      </trkpt>
      <trkpt lat="43.37555710" lon="13.03058670">
        <ele>732.00000</ele>
        <time>2009-07-31T11:23:38Z</time>
      </trkpt>
      <trkpt lat="43.37556640" lon="13.03059770">
        <ele>732.00000</ele>
        <time>2009-07-31T11:23:39Z</time>
      </trkpt>
      <trkpt lat="43.37559360" lon="13.03059660">
        <ele>732.00000</ele>
        <time>2009-07-31T11:23:40Z</time>
      </trkpt>
      <trkpt lat="43.37562090" lon="13.03060800">
        <ele>732.00000</ele>
        <time>2009-07-31T11:23:41Z</time>
      </trkpt>
      <trkpt lat="43.37564590" lon="13.03060490">
        <ele>732.00000</ele>
        <time>2009-07-31T11:23:42Z</time>
      </trkpt>
      <trkpt lat="43.37565600" lon="13.03061450">
        <ele>732.00000</ele>
        <time>2009-07-31T11:23:42Z</time>
      </trkpt>
      <trkpt lat="43.37567700" lon="13.03062400">
        <ele>732.00000</ele>
        <time>2009-07-31T11:23:43Z</time>
      </trkpt>
      <trkpt lat="43.37569750" lon="13.03061440">
        <ele>732.00000</ele>
        <time>2009-07-31T11:23:44Z</time>
      </trkpt>
      <trkpt lat="43.37572210" lon="13.03061240">
        <ele>732.00000</ele>
        <time>2009-07-31T11:23:45Z</time>
      </trkpt>
      <trkpt lat="43.37573440" lon="13.03059310">
        <ele>732.00000</ele>
        <time>2009-07-31T11:23:46Z</time>
      </trkpt>
      <trkpt lat="43.37575750" lon="13.03061660">
        <ele>732.00000</ele>
        <time>2009-07-31T11:23:47Z</time>
      </trkpt>
      <trkpt lat="43.37577050" lon="13.03062870">
        <ele>732.00000</ele>
        <time>2009-07-31T11:23:48Z</time>
      </trkpt>
      <trkpt lat="43.37578480" lon="13.03063090">
        <ele>732.00000</ele>
        <time>2009-07-31T11:23:48Z</time>
      </trkpt>
      <trkpt lat="43.37580560" lon="13.03063970">
        <ele>732.00000</ele>
        <time>2009-07-31T11:23:49Z</time>
      </trkpt>
      <trkpt lat="43.37582860" lon="13.03063640">
        <ele>732.00000</ele>
        <time>2009-07-31T11:23:50Z</time>
      </trkpt>
      <trkpt lat="43.37584150" lon="13.03063650">
        <ele>732.00000</ele>
        <time>2009-07-31T11:23:51Z</time>
      </trkpt>
      <trkpt lat="43.37583740" lon="13.03061340">
        <ele>732.00000</ele>
        <time>2009-07-31T11:23:51Z</time>
      </trkpt>
      <trkpt lat="43.37586250" lon="13.03062520">
        <ele>732.00000</ele>
        <time>2009-07-31T11:23:52Z</time>
      </trkpt>
      <trkpt lat="43.37587570" lon="13.03063890">
        <ele>732.00000</ele>
        <time>2009-07-31T11:23:53Z</time>
      </trkpt>
      <trkpt lat="43.37589380" lon="13.03063970">
        <ele>732.00000</ele>
        <time>2009-07-31T11:23:54Z</time>
      </trkpt>
      <trkpt lat="43.37591090" lon="13.03065170">
        <ele>732.00000</ele>
        <time>2009-07-31T11:23:54Z</time>
      </trkpt>
      <trkpt lat="43.37592320" lon="13.03066350">
        <ele>732.00000</ele>
        <time>2009-07-31T11:23:55Z</time>
      </trkpt>
      <trkpt lat="43.37594270" lon="13.03068370">
        <ele>732.00000</ele>
        <time>2009-07-31T11:23:56Z</time>
      </trkpt>
      <trkpt lat="43.37595920" lon="13.03069220">
        <ele>732.00000</ele>
        <time>2009-07-31T11:23:57Z</time>
      </trkpt>
      <trkpt lat="43.37597880" lon="13.03069340">
        <ele>732.00000</ele>
        <time>2009-07-31T11:23:58Z</time>
      </trkpt>
      <trkpt lat="43.37598710" lon="13.03070220">
        <ele>732.00000</ele>
        <time>2009-07-31T11:23:58Z</time>
      </trkpt>
      <trkpt lat="43.37600770" lon="13.03072880">
        <ele>732.00000</ele>
        <time>2009-07-31T11:23:59Z</time>
      </trkpt>
      <trkpt lat="43.37601270" lon="13.03073230">
        <ele>732.00000</ele>
        <time>2009-07-31T11:23:59Z</time>
      </trkpt>
      <trkpt lat="43.37601110" lon="13.03074170">
        <ele>732.00000</ele>
        <time>2009-07-31T11:24:00Z</time>
      </trkpt>
      <trkpt lat="43.37600860" lon="13.03074340">
        <ele>732.00000</ele>
        <time>2009-07-31T11:24:00Z</time>
      </trkpt>
      <trkpt lat="43.37600960" lon="13.03074360">
        <ele>732.00000</ele>
        <time>2009-07-31T11:24:00Z</time>
      </trkpt>
      <trkpt lat="43.37600970" lon="13.03074370">
        <ele>732.00000</ele>
        <time>2009-07-31T11:24:00Z</time>
      </trkpt>
      <trkpt lat="43.37601050" lon="13.03074370">
        <ele>732.00000</ele>
        <time>2009-07-31T11:24:00Z</time>
      </trkpt>
      <trkpt lat="43.37601050" lon="13.03074320">
        <ele>732.00000</ele>
        <time>2009-07-31T11:24:00Z</time>
      </trkpt>
      <trkpt lat="43.37601130" lon="13.03074220">
        <ele>732.00000</ele>
        <time>2009-07-31T11:24:00Z</time>
      </trkpt>
      <trkpt lat="43.37601290" lon="13.03074200">
        <ele>732.00000</ele>
        <time>2009-07-31T11:24:00Z</time>
      </trkpt>
      <trkpt lat="43.37601510" lon="13.03074220">
        <ele>732.00000</ele>
        <time>2009-07-31T11:24:00Z</time>
      </trkpt>
      <trkpt lat="43.37606100" lon="13.03074690">
        <ele>732.00000</ele>
        <time>2009-07-31T11:24:02Z</time>
      </trkpt>
      <trkpt lat="43.37605010" lon="13.03074700">
        <ele>732.00000</ele>
        <time>2009-07-31T11:24:02Z</time>
      </trkpt>
      <trkpt lat="43.37607930" lon="13.03076240">
        <ele>732.00000</ele>
        <time>2009-07-31T11:24:03Z</time>
      </trkpt>
      <trkpt lat="43.37609740" lon="13.03075290">
        <ele>732.00000</ele>
        <time>2009-07-31T11:24:04Z</time>
      </trkpt>
      <trkpt lat="43.37611680" lon="13.03074740">
        <ele>732.00000</ele>
        <time>2009-07-31T11:24:05Z</time>
      </trkpt>
      <trkpt lat="43.37613580" lon="13.03074830">
        <ele>732.00000</ele>
        <time>2009-07-31T11:24:06Z</time>
      </trkpt>
      <trkpt lat="43.37615040" lon="13.03075380">
        <ele>732.00000</ele>
        <time>2009-07-31T11:24:06Z</time>
      </trkpt>
      <trkpt lat="43.37617160" lon="13.03075340">
        <ele>732.00000</ele>
        <time>2009-07-31T11:24:07Z</time>
      </trkpt>
      <trkpt lat="43.37621230" lon="13.03074980">
        <ele>732.00000</ele>
        <time>2009-07-31T11:24:09Z</time>
      </trkpt>
      <trkpt lat="43.37624300" lon="13.03074620">
        <ele>732.00000</ele>
        <time>2009-07-31T11:24:10Z</time>
      </trkpt>
      <trkpt lat="43.37626740" lon="13.03075090">
        <ele>718.00000</ele>
        <time>2009-07-31T11:24:11Z</time>
      </trkpt>
      <trkpt lat="43.37628020" lon="13.03071490">
        <ele>718.00000</ele>
        <time>2009-07-31T11:24:12Z</time>
      </trkpt>
      <trkpt lat="43.37630310" lon="13.03069960">
        <ele>718.00000</ele>
        <time>2009-07-31T11:24:13Z</time>
      </trkpt>
      <trkpt lat="43.37632180" lon="13.03069350">
        <ele>718.00000</ele>
        <time>2009-07-31T11:24:14Z</time>
      </trkpt>
      <trkpt lat="43.37633870" lon="13.03068540">
        <ele>718.00000</ele>
        <time>2009-07-31T11:24:15Z</time>
      </trkpt>
      <trkpt lat="43.37634340" lon="13.03068430">
        <ele>718.00000</ele>
        <time>2009-07-31T11:24:15Z</time>
      </trkpt>
      <trkpt lat="43.37634680" lon="13.03069390">
        <ele>718.00000</ele>
        <time>2009-07-31T11:24:15Z</time>
      </trkpt>
      <trkpt lat="43.37635080" lon="13.03069460">
        <ele>718.00000</ele>
        <time>2009-07-31T11:24:15Z</time>
      </trkpt>
      <trkpt lat="43.37635440" lon="13.03069480">
        <ele>718.00000</ele>
        <time>2009-07-31T11:24:16Z</time>
      </trkpt>
      <trkpt lat="43.37635820" lon="13.03069510">
        <ele>718.00000</ele>
        <time>2009-07-31T11:24:16Z</time>
      </trkpt>
      <trkpt lat="43.37635160" lon="13.03065760">
        <ele>718.00000</ele>
        <time>2009-07-31T11:24:17Z</time>
      </trkpt>
      <trkpt lat="43.37635480" lon="13.03064640">
        <ele>718.00000</ele>
        <time>2009-07-31T11:24:17Z</time>
      </trkpt>
      <trkpt lat="43.37635650" lon="13.03063910">
        <ele>718.00000</ele>
        <time>2009-07-31T11:24:17Z</time>
      </trkpt>
      <trkpt lat="43.37635820" lon="13.03063640">
        <ele>718.00000</ele>
        <time>2009-07-31T11:24:18Z</time>
      </trkpt>
      <trkpt lat="43.37635720" lon="13.03062660">
        <ele>718.00000</ele>
        <time>2009-07-31T11:24:18Z</time>
      </trkpt>
      <trkpt lat="43.37636640" lon="13.03061500">
        <ele>718.00000</ele>
        <time>2009-07-31T11:24:18Z</time>
      </trkpt>
      <trkpt lat="43.37637370" lon="13.03061880">
        <ele>718.00000</ele>
        <time>2009-07-31T11:24:19Z</time>
      </trkpt>
      <trkpt lat="43.37637110" lon="13.03060980">
        <ele>718.00000</ele>
        <time>2009-07-31T11:24:19Z</time>
      </trkpt>
      <trkpt lat="43.37636830" lon="13.03060140">
        <ele>718.00000</ele>
        <time>2009-07-31T11:24:19Z</time>
      </trkpt>
      <trkpt lat="43.37636710" lon="13.03060040">
        <ele>718.00000</ele>
        <time>2009-07-31T11:24:19Z</time>
      </trkpt>
      <trkpt lat="43.37636510" lon="13.03059930">
        <ele>718.00000</ele>
        <time>2009-07-31T11:24:19Z</time>
      </trkpt>
      <trkpt lat="43.37636850" lon="13.03059320">
        <ele>718.00000</ele>
        <time>2009-07-31T11:24:20Z</time>
      </trkpt>
      <trkpt lat="43.37637310" lon="13.03058360">
        <ele>718.00000</ele>
        <time>2009-07-31T11:24:20Z</time>
      </trkpt>
      <trkpt lat="43.37638090" lon="13.03057650">
        <ele>718.00000</ele>
        <time>2009-07-31T11:24:20Z</time>
      </trkpt>
      <trkpt lat="43.37638630" lon="13.03056140">
        <ele>718.00000</ele>
        <time>2009-07-31T11:24:21Z</time>
      </trkpt>
      <trkpt lat="43.37637960" lon="13.03054340">
        <ele>718.00000</ele>
        <time>2009-07-31T11:24:21Z</time>
      </trkpt>
      <trkpt lat="43.37637130" lon="13.03051710">
        <ele>718.00000</ele>
        <time>2009-07-31T11:24:22Z</time>
      </trkpt>
      <trkpt lat="43.37636770" lon="13.03050920">
        <ele>718.00000</ele>
        <time>2009-07-31T11:24:22Z</time>
      </trkpt>
      <trkpt lat="43.37636610" lon="13.03050790">
        <ele>718.00000</ele>
        <time>2009-07-31T11:24:23Z</time>
      </trkpt>
      <trkpt lat="43.37636180" lon="13.03050550">
        <ele>718.00000</ele>
        <time>2009-07-31T11:24:23Z</time>
      </trkpt>
      <trkpt lat="43.37634250" lon="13.03047760">
        <ele>718.00000</ele>
        <time>2009-07-31T11:24:24Z</time>
      </trkpt>
      <trkpt lat="43.37632750" lon="13.03042440">
        <ele>718.00000</ele>
        <time>2009-07-31T11:24:25Z</time>
      </trkpt>
      <trkpt lat="43.37633460" lon="13.03041000">
        <ele>692.00000</ele>
        <time>2009-07-31T11:24:26Z</time>
      </trkpt>
      <trkpt lat="43.37635080" lon="13.03039390">
        <ele>692.00000</ele>
        <time>2009-07-31T11:24:27Z</time>
      </trkpt>
      <trkpt lat="43.37635200" lon="13.03037890">
        <ele>692.00000</ele>
        <time>2009-07-31T11:24:27Z</time>
      </trkpt>
      <trkpt lat="43.37634200" lon="13.03036090">
        <ele>692.00000</ele>
        <time>2009-07-31T11:24:28Z</time>
      </trkpt>
      <trkpt lat="43.37633470" lon="13.03035390">
        <ele>692.00000</ele>
        <time>2009-07-31T11:24:28Z</time>
      </trkpt>
      <trkpt lat="43.37633210" lon="13.03035240">
        <ele>692.00000</ele>
        <time>2009-07-31T11:24:28Z</time>
      </trkpt>
      <trkpt lat="43.37633060" lon="13.03035100">
        <ele>692.00000</ele>
        <time>2009-07-31T11:24:28Z</time>
      </trkpt>
      <trkpt lat="43.37633160" lon="13.03035030">
        <ele>692.00000</ele>
        <time>2009-07-31T11:24:28Z</time>
      </trkpt>
      <trkpt lat="43.37633680" lon="13.03035110">
        <ele>692.00000</ele>
        <time>2009-07-31T11:24:29Z</time>
      </trkpt>
      <trkpt lat="43.37637000" lon="13.03033080">
        <ele>692.00000</ele>
        <time>2009-07-31T11:24:30Z</time>
      </trkpt>
      <trkpt lat="43.37638520" lon="13.03031250">
        <ele>692.00000</ele>
        <time>2009-07-31T11:24:31Z</time>
      </trkpt>
      <trkpt lat="43.37638780" lon="13.03027570">
        <ele>692.00000</ele>
        <time>2009-07-31T11:24:32Z</time>
      </trkpt>
      <trkpt lat="43.37639910" lon="13.03024940">
        <ele>692.00000</ele>
        <time>2009-07-31T11:24:33Z</time>
      </trkpt>
      <trkpt lat="43.37640350" lon="13.03023250">
        <ele>692.00000</ele>
        <time>2009-07-31T11:24:33Z</time>
      </trkpt>
      <trkpt lat="43.37640700" lon="13.03021870">
        <ele>692.00000</ele>
        <time>2009-07-31T11:24:34Z</time>
      </trkpt>
      <trkpt lat="43.37640930" lon="13.03021150">
        <ele>692.00000</ele>
        <time>2009-07-31T11:24:34Z</time>
      </trkpt>
      <trkpt lat="43.37643070" lon="13.03020220">
        <ele>692.00000</ele>
        <time>2009-07-31T11:24:35Z</time>
      </trkpt>
      <trkpt lat="43.37644370" lon="13.03018000">
        <ele>692.00000</ele>
        <time>2009-07-31T11:24:36Z</time>
      </trkpt>
      <trkpt lat="43.37643510" lon="13.03014780">
        <ele>692.00000</ele>
        <time>2009-07-31T11:24:37Z</time>
      </trkpt>
      <trkpt lat="43.37643180" lon="13.03013020">
        <ele>692.00000</ele>
        <time>2009-07-31T11:24:37Z</time>
      </trkpt>
      <trkpt lat="43.37643280" lon="13.03013030">
        <ele>692.00000</ele>
        <time>2009-07-31T11:24:37Z</time>
      </trkpt>
      <trkpt lat="43.37643290" lon="13.03012970">
        <ele>692.00000</ele>
        <time>2009-07-31T11:24:37Z</time>
      </trkpt>
      <trkpt lat="43.37642310" lon="13.03010530">
        <ele>692.00000</ele>
        <time>2009-07-31T11:24:38Z</time>
      </trkpt>
      <trkpt lat="43.37640980" lon="13.03007720">
        <ele>692.00000</ele>
        <time>2009-07-31T11:24:39Z</time>
      </trkpt>
      <trkpt lat="43.37640850" lon="13.03005360">
        <ele>692.00000</ele>
        <time>2009-07-31T11:24:40Z</time>
      </trkpt>
      <trkpt lat="43.37640940" lon="13.03004150">
        <ele>692.00000</ele>
        <time>2009-07-31T11:24:40Z</time>
      </trkpt>
      <trkpt lat="43.37641080" lon="13.03004070">
        <ele>692.00000</ele>
        <time>2009-07-31T11:24:40Z</time>
      </trkpt>
      <trkpt lat="43.37643450" lon="13.03003030">
        <ele>692.00000</ele>
        <time>2009-07-31T11:24:41Z</time>
      </trkpt>
      <trkpt lat="43.37643920" lon="13.03001350">
        <ele>692.00000</ele>
        <time>2009-07-31T11:24:42Z</time>
      </trkpt>
      <trkpt lat="43.37643910" lon="13.02998860">
        <ele>692.00000</ele>
        <time>2009-07-31T11:24:42Z</time>
      </trkpt>
      <trkpt lat="43.37644140" lon="13.02998850">
        <ele>692.00000</ele>
        <time>2009-07-31T11:24:43Z</time>
      </trkpt>
      <trkpt lat="43.37644190" lon="13.02998830">
        <ele>692.00000</ele>
        <time>2009-07-31T11:24:43Z</time>
      </trkpt>
      <trkpt lat="43.37644410" lon="13.02998830">
        <ele>692.00000</ele>
        <time>2009-07-31T11:24:43Z</time>
      </trkpt>
      <trkpt lat="43.37644460" lon="13.02998840">
        <ele>692.00000</ele>
        <time>2009-07-31T11:24:43Z</time>
      </trkpt>
      <trkpt lat="43.37644420" lon="13.02998720">
        <ele>692.00000</ele>
        <time>2009-07-31T11:24:43Z</time>
      </trkpt>
      <trkpt lat="43.37645290" lon="13.02995060">
        <ele>692.00000</ele>
        <time>2009-07-31T11:24:44Z</time>
      </trkpt>
      <trkpt lat="43.37645100" lon="13.02992420">
        <ele>692.00000</ele>
        <time>2009-07-31T11:24:45Z</time>
      </trkpt>
      <trkpt lat="43.37645170" lon="13.02992350">
        <ele>692.00000</ele>
        <time>2009-07-31T11:24:45Z</time>
      </trkpt>
      <trkpt lat="43.37645270" lon="13.02992280">
        <ele>692.00000</ele>
        <time>2009-07-31T11:24:45Z</time>
      </trkpt>
      <trkpt lat="43.37645490" lon="13.02992150">
        <ele>692.00000</ele>
        <time>2009-07-31T11:24:45Z</time>
      </trkpt>
      <trkpt lat="43.37645510" lon="13.02988880">
        <ele>692.00000</ele>
        <time>2009-07-31T11:24:46Z</time>
      </trkpt>
      <trkpt lat="43.37643760" lon="13.02987010">
        <ele>692.00000</ele>
        <time>2009-07-31T11:24:47Z</time>
      </trkpt>
      <trkpt lat="43.37642740" lon="13.02985400">
        <ele>692.00000</ele>
        <time>2009-07-31T11:24:47Z</time>
      </trkpt>
      <trkpt lat="43.37642260" lon="13.02985260">
        <ele>692.00000</ele>
        <time>2009-07-31T11:24:47Z</time>
      </trkpt>
      <trkpt lat="43.37640210" lon="13.02983060">
        <ele>692.00000</ele>
        <time>2009-07-31T11:24:48Z</time>
      </trkpt>
      <trkpt lat="43.37639080" lon="13.02982100">
        <ele>692.00000</ele>
        <time>2009-07-31T11:24:49Z</time>
      </trkpt>
      <trkpt lat="43.37637630" lon="13.02980250">
        <ele>692.00000</ele>
        <time>2009-07-31T11:24:50Z</time>
      </trkpt>
      <trkpt lat="43.37636390" lon="13.02979200">
        <ele>692.00000</ele>
        <time>2009-07-31T11:24:50Z</time>
      </trkpt>
      <trkpt lat="43.37635960" lon="13.02977190">
        <ele>692.00000</ele>
        <time>2009-07-31T11:24:51Z</time>
      </trkpt>
      <trkpt lat="43.37636670" lon="13.02974980">
        <ele>692.00000</ele>
        <time>2009-07-31T11:24:52Z</time>
      </trkpt>
      <trkpt lat="43.37636450" lon="13.02972320">
        <ele>692.00000</ele>
        <time>2009-07-31T11:24:52Z</time>
      </trkpt>
      <trkpt lat="43.37637680" lon="13.02970610">
        <ele>692.00000</ele>
        <time>2009-07-31T11:24:53Z</time>
      </trkpt>
      <trkpt lat="43.37640770" lon="13.02970640">
        <ele>692.00000</ele>
        <time>2009-07-31T11:24:54Z</time>
      </trkpt>
      <trkpt lat="43.37643970" lon="13.02970840">
        <ele>692.00000</ele>
        <time>2009-07-31T11:24:56Z</time>
      </trkpt>
      <trkpt lat="43.37648260" lon="13.02970830">
        <ele>692.00000</ele>
        <time>2009-07-31T11:24:57Z</time>
      </trkpt>
      <trkpt lat="43.37649740" lon="13.02967800">
        <ele>692.00000</ele>
        <time>2009-07-31T11:24:58Z</time>
      </trkpt>
      <trkpt lat="43.37649650" lon="13.02963680">
        <ele>692.00000</ele>
        <time>2009-07-31T11:25:00Z</time>
      </trkpt>
      <trkpt lat="43.37650080" lon="13.02961110">
        <ele>692.00000</ele>
        <time>2009-07-31T11:25:00Z</time>
      </trkpt>
      <trkpt lat="43.37650080" lon="13.02957900">
        <ele>675.00000</ele>
        <time>2009-07-31T11:25:01Z</time>
      </trkpt>
      <trkpt lat="43.37650920" lon="13.02954130">
        <ele>675.00000</ele>
        <time>2009-07-31T11:25:03Z</time>
      </trkpt>
      <trkpt lat="43.37654990" lon="13.02952890">
        <ele>675.00000</ele>
        <time>2009-07-31T11:25:04Z</time>
      </trkpt>
      <trkpt lat="43.37657740" lon="13.02952050">
        <ele>675.00000</ele>
        <time>2009-07-31T11:25:05Z</time>
      </trkpt>
      <trkpt lat="43.37657010" lon="13.02949880">
        <ele>675.00000</ele>
        <time>2009-07-31T11:25:06Z</time>
      </trkpt>
      <trkpt lat="43.37656710" lon="13.02949220">
        <ele>675.00000</ele>
        <time>2009-07-31T11:25:06Z</time>
      </trkpt>
      <trkpt lat="43.37658300" lon="13.02948540">
        <ele>675.00000</ele>
        <time>2009-07-31T11:25:07Z</time>
      </trkpt>
      <trkpt lat="43.37659480" lon="13.02945970">
        <ele>675.00000</ele>
        <time>2009-07-31T11:25:08Z</time>
      </trkpt>
      <trkpt lat="43.37659660" lon="13.02942280">
        <ele>675.00000</ele>
        <time>2009-07-31T11:25:09Z</time>
      </trkpt>
      <trkpt lat="43.37659240" lon="13.02940420">
        <ele>675.00000</ele>
        <time>2009-07-31T11:25:09Z</time>
      </trkpt>
      <trkpt lat="43.37659540" lon="13.02936180">
        <ele>675.00000</ele>
        <time>2009-07-31T11:25:11Z</time>
      </trkpt>
      <trkpt lat="43.37659870" lon="13.02935800">
        <ele>675.00000</ele>
        <time>2009-07-31T11:25:11Z</time>
      </trkpt>
      <trkpt lat="43.37661080" lon="13.02933840">
        <ele>675.00000</ele>
        <time>2009-07-31T11:25:12Z</time>
      </trkpt>
      <trkpt lat="43.37662300" lon="13.02932610">
        <ele>675.00000</ele>
        <time>2009-07-31T11:25:12Z</time>
      </trkpt>
      <trkpt lat="43.37662900" lon="13.02929850">
        <ele>675.00000</ele>
        <time>2009-07-31T11:25:13Z</time>
      </trkpt>
      <trkpt lat="43.37663330" lon="13.02923730">
        <ele>675.00000</ele>
        <time>2009-07-31T11:25:15Z</time>
      </trkpt>
      <trkpt lat="43.37662460" lon="13.02919850">
        <ele>675.00000</ele>
        <time>2009-07-31T11:25:16Z</time>
      </trkpt>
      <trkpt lat="43.37663200" lon="13.02916740">
        <ele>675.00000</ele>
        <time>2009-07-31T11:25:17Z</time>
      </trkpt>
      <trkpt lat="43.37665500" lon="13.02916330">
        <ele>675.00000</ele>
        <time>2009-07-31T11:25:18Z</time>
      </trkpt>
      <trkpt lat="43.37666500" lon="13.02914000">
        <ele>675.00000</ele>
        <time>2009-07-31T11:25:19Z</time>
      </trkpt>
      <trkpt lat="43.37667090" lon="13.02910730">
        <ele>675.00000</ele>
        <time>2009-07-31T11:25:20Z</time>
      </trkpt>
      <trkpt lat="43.37668350" lon="13.02908910">
        <ele>675.00000</ele>
        <time>2009-07-31T11:25:20Z</time>
      </trkpt>
      <trkpt lat="43.37668980" lon="13.02906910">
        <ele>675.00000</ele>
        <time>2009-07-31T11:25:21Z</time>
      </trkpt>
      <trkpt lat="43.37670450" lon="13.02905170">
        <ele>675.00000</ele>
        <time>2009-07-31T11:25:22Z</time>
      </trkpt>
      <trkpt lat="43.37671620" lon="13.02900600">
        <ele>675.00000</ele>
        <time>2009-07-31T11:25:23Z</time>
      </trkpt>
      <trkpt lat="43.37673730" lon="13.02899620">
        <ele>675.00000</ele>
        <time>2009-07-31T11:25:24Z</time>
      </trkpt>
      <trkpt lat="43.37675370" lon="13.02897920">
        <ele>675.00000</ele>
        <time>2009-07-31T11:25:25Z</time>
      </trkpt>
      <trkpt lat="43.37676090" lon="13.02897250">
        <ele>675.00000</ele>
        <time>2009-07-31T11:25:25Z</time>
      </trkpt>
      <trkpt lat="43.37676740" lon="13.02896320">
        <ele>675.00000</ele>
        <time>2009-07-31T11:25:26Z</time>
      </trkpt>
      <trkpt lat="43.37677110" lon="13.02894730">
        <ele>675.00000</ele>
        <time>2009-07-31T11:25:26Z</time>
      </trkpt>
      <trkpt lat="43.37676580" lon="13.02888740">
        <ele>675.00000</ele>
        <time>2009-07-31T11:25:28Z</time>
      </trkpt>
      <trkpt lat="43.37676870" lon="13.02889740">
        <ele>675.00000</ele>
        <time>2009-07-31T11:25:28Z</time>
      </trkpt>
      <trkpt lat="43.37678390" lon="13.02889210">
        <ele>675.00000</ele>
        <time>2009-07-31T11:25:29Z</time>
      </trkpt>
      <trkpt lat="43.37678530" lon="13.02889160">
        <ele>675.00000</ele>
        <time>2009-07-31T11:25:29Z</time>
      </trkpt>
      <trkpt lat="43.37678660" lon="13.02889100">
        <ele>675.00000</ele>
        <time>2009-07-31T11:25:29Z</time>
      </trkpt>
      <trkpt lat="43.37678770" lon="13.02889090">
        <ele>675.00000</ele>
        <time>2009-07-31T11:25:29Z</time>
      </trkpt>
      <trkpt lat="43.37678890" lon="13.02889030">
        <ele>675.00000</ele>
        <time>2009-07-31T11:25:29Z</time>
      </trkpt>
      <trkpt lat="43.37680490" lon="13.02888240">
        <ele>675.00000</ele>
        <time>2009-07-31T11:25:30Z</time>
      </trkpt>
      <trkpt lat="43.37681980" lon="13.02885210">
        <ele>675.00000</ele>
        <time>2009-07-31T11:25:31Z</time>
      </trkpt>
      <trkpt lat="43.37681810" lon="13.02882040">
        <ele>675.00000</ele>
        <time>2009-07-31T11:25:32Z</time>
      </trkpt>
      <trkpt lat="43.37681900" lon="13.02877580">
        <ele>675.00000</ele>
        <time>2009-07-31T11:25:33Z</time>
      </trkpt>
      <trkpt lat="43.37682740" lon="13.02875280">
        <ele>675.00000</ele>
        <time>2009-07-31T11:25:34Z</time>
      </trkpt>
      <trkpt lat="43.37684810" lon="13.02873690">
        <ele>673.00000</ele>
        <time>2009-07-31T11:25:35Z</time>
      </trkpt>
      <trkpt lat="43.37686750" lon="13.02873170">
        <ele>673.00000</ele>
        <time>2009-07-31T11:25:35Z</time>
      </trkpt>
      <trkpt lat="43.37688380" lon="13.02875730">
        <ele>675.00000</ele>
        <time>2009-07-31T11:25:36Z</time>
      </trkpt>
      <trkpt lat="43.37689780" lon="13.02874430">
        <ele>673.00000</ele>
        <time>2009-07-31T11:25:37Z</time>
      </trkpt>
      <trkpt lat="43.37691950" lon="13.02874000">
        <ele>673.00000</ele>
        <time>2009-07-31T11:25:38Z</time>
      </trkpt>
      <trkpt lat="43.37694610" lon="13.02875630">
        <ele>675.00000</ele>
        <time>2009-07-31T11:25:39Z</time>
      </trkpt>
      <trkpt lat="43.37696090" lon="13.02875190">
        <ele>675.00000</ele>
        <time>2009-07-31T11:25:40Z</time>
      </trkpt>
      <trkpt lat="43.37698830" lon="13.02873990">
        <ele>673.00000</ele>
        <time>2009-07-31T11:25:41Z</time>
      </trkpt>
      <trkpt lat="43.37701120" lon="13.02875180">
        <ele>675.00000</ele>
        <time>2009-07-31T11:25:42Z</time>
      </trkpt>
      <trkpt lat="43.37704350" lon="13.02875810">
        <ele>675.00000</ele>
        <time>2009-07-31T11:25:43Z</time>
      </trkpt>
      <trkpt lat="43.37708400" lon="13.02879060">
        <ele>675.00000</ele>
        <time>2009-07-31T11:25:45Z</time>
      </trkpt>
      <trkpt lat="43.37708910" lon="13.02880450">
        <ele>663.00000</ele>
        <time>2009-07-31T11:25:46Z</time>
      </trkpt>
      <trkpt lat="43.37711740" lon="13.02881610">
        <ele>663.00000</ele>
        <time>2009-07-31T11:25:47Z</time>
      </trkpt>
      <trkpt lat="43.37713020" lon="13.02882620">
        <ele>663.00000</ele>
        <time>2009-07-31T11:25:47Z</time>
      </trkpt>
      <trkpt lat="43.37714780" lon="13.02883100">
        <ele>663.00000</ele>
        <time>2009-07-31T11:25:48Z</time>
      </trkpt>
      <trkpt lat="43.37715820" lon="13.02886300">
        <ele>663.00000</ele>
        <time>2009-07-31T11:25:49Z</time>
      </trkpt>
      <trkpt lat="43.37718560" lon="13.02887520">
        <ele>663.00000</ele>
        <time>2009-07-31T11:25:50Z</time>
      </trkpt>
      <trkpt lat="43.37720050" lon="13.02888990">
        <ele>663.00000</ele>
        <time>2009-07-31T11:25:51Z</time>
      </trkpt>
      <trkpt lat="43.37722060" lon="13.02889370">
        <ele>663.00000</ele>
        <time>2009-07-31T11:25:52Z</time>
      </trkpt>
      <trkpt lat="43.37724630" lon="13.02890620">
        <ele>663.00000</ele>
        <time>2009-07-31T11:25:53Z</time>
      </trkpt>
      <trkpt lat="43.37726280" lon="13.02891160">
        <ele>663.00000</ele>
        <time>2009-07-31T11:25:54Z</time>
      </trkpt>
      <trkpt lat="43.37728100" lon="13.02892200">
        <ele>663.00000</ele>
        <time>2009-07-31T11:25:54Z</time>
      </trkpt>
      <trkpt lat="43.37730650" lon="13.02892270">
        <ele>663.00000</ele>
        <time>2009-07-31T11:25:55Z</time>
      </trkpt>
      <trkpt lat="43.37731820" lon="13.02893500">
        <ele>663.00000</ele>
        <time>2009-07-31T11:25:56Z</time>
      </trkpt>
      <trkpt lat="43.37734520" lon="13.02893210">
        <ele>663.00000</ele>
        <time>2009-07-31T11:25:57Z</time>
      </trkpt>
      <trkpt lat="43.37735820" lon="13.02894380">
        <ele>663.00000</ele>
        <time>2009-07-31T11:25:58Z</time>
      </trkpt>
      <trkpt lat="43.37738320" lon="13.02893930">
        <ele>663.00000</ele>
        <time>2009-07-31T11:25:59Z</time>
      </trkpt>
      <trkpt lat="43.37739360" lon="13.02895140">
        <ele>663.00000</ele>
        <time>2009-07-31T11:25:59Z</time>
      </trkpt>
      <trkpt lat="43.37743770" lon="13.02895230">
        <ele>663.00000</ele>
        <time>2009-07-31T11:26:01Z</time>
      </trkpt>
      <trkpt lat="43.37746870" lon="13.02896050">
        <ele>663.00000</ele>
        <time>2009-07-31T11:26:02Z</time>
      </trkpt>
      <trkpt lat="43.37749110" lon="13.02895320">
        <ele>663.00000</ele>
        <time>2009-07-31T11:26:03Z</time>
      </trkpt>
      <trkpt lat="43.37749920" lon="13.02896630">
        <ele>663.00000</ele>
        <time>2009-07-31T11:26:04Z</time>
      </trkpt>
      <trkpt lat="43.37751380" lon="13.02896860">
        <ele>663.00000</ele>
        <time>2009-07-31T11:26:04Z</time>
      </trkpt>
      <trkpt lat="43.37754160" lon="13.02896660">
        <ele>663.00000</ele>
        <time>2009-07-31T11:26:05Z</time>
      </trkpt>
      <trkpt lat="43.37759030" lon="13.02900740">
        <ele>663.00000</ele>
        <time>2009-07-31T11:26:08Z</time>
      </trkpt>
      <trkpt lat="43.37761100" lon="13.02901330">
        <ele>663.00000</ele>
        <time>2009-07-31T11:26:09Z</time>
      </trkpt>
      <trkpt lat="43.37763530" lon="13.02901380">
        <ele>663.00000</ele>
        <time>2009-07-31T11:26:09Z</time>
      </trkpt>
      <trkpt lat="43.37765150" lon="13.02902200">
        <ele>663.00000</ele>
        <time>2009-07-31T11:26:10Z</time>
      </trkpt>
      <trkpt lat="43.37767080" lon="13.02903600">
        <ele>663.00000</ele>
        <time>2009-07-31T11:26:11Z</time>
      </trkpt>
      <trkpt lat="43.37769900" lon="13.02905030">
        <ele>663.00000</ele>
        <time>2009-07-31T11:26:12Z</time>
      </trkpt>
      <trkpt lat="43.37772030" lon="13.02905020">
        <ele>663.00000</ele>
        <time>2009-07-31T11:26:13Z</time>
      </trkpt>
      <trkpt lat="43.37772960" lon="13.02905070">
        <ele>663.00000</ele>
        <time>2009-07-31T11:26:13Z</time>
      </trkpt>
      <trkpt lat="43.37773920" lon="13.02903700">
        <ele>663.00000</ele>
        <time>2009-07-31T11:26:14Z</time>
      </trkpt>
      <trkpt lat="43.37775840" lon="13.02904590">
        <ele>663.00000</ele>
        <time>2009-07-31T11:26:15Z</time>
      </trkpt>
      <trkpt lat="43.37779340" lon="13.02903400">
        <ele>663.00000</ele>
        <time>2009-07-31T11:26:16Z</time>
      </trkpt>
      <trkpt lat="43.37781330" lon="13.02902830">
        <ele>663.00000</ele>
        <time>2009-07-31T11:26:17Z</time>
      </trkpt>
      <trkpt lat="43.37784760" lon="13.02905170">
        <ele>663.00000</ele>
        <time>2009-07-31T11:26:19Z</time>
      </trkpt>
      <trkpt lat="43.37787010" lon="13.02906160">
        <ele>663.00000</ele>
        <time>2009-07-31T11:26:20Z</time>
      </trkpt>
      <trkpt lat="43.37789770" lon="13.02907250">
        <ele>663.00000</ele>
        <time>2009-07-31T11:26:21Z</time>
      </trkpt>
      <trkpt lat="43.37791360" lon="13.02907940">
        <ele>663.00000</ele>
        <time>2009-07-31T11:26:21Z</time>
      </trkpt>
      <trkpt lat="43.37793650" lon="13.02910800">
        <ele>651.00000</ele>
        <time>2009-07-31T11:26:23Z</time>
      </trkpt>
      <trkpt lat="43.37795700" lon="13.02912360">
        <ele>651.00000</ele>
        <time>2009-07-31T11:26:24Z</time>
      </trkpt>
      <trkpt lat="43.37797320" lon="13.02913430">
        <ele>651.00000</ele>
        <time>2009-07-31T11:26:24Z</time>
      </trkpt>
      <trkpt lat="43.37799080" lon="13.02914350">
        <ele>651.00000</ele>
        <time>2009-07-31T11:26:25Z</time>
      </trkpt>
      <trkpt lat="43.37803350" lon="13.02916700">
        <ele>651.00000</ele>
        <time>2009-07-31T11:26:27Z</time>
      </trkpt>
      <trkpt lat="43.37805250" lon="13.02917410">
        <ele>651.00000</ele>
        <time>2009-07-31T11:26:28Z</time>
      </trkpt>
      <trkpt lat="43.37807420" lon="13.02917790">
        <ele>651.00000</ele>
        <time>2009-07-31T11:26:29Z</time>
      </trkpt>
      <trkpt lat="43.37811400" lon="13.02920450">
        <ele>651.00000</ele>
        <time>2009-07-31T11:26:30Z</time>
      </trkpt>
      <trkpt lat="43.37814610" lon="13.02921340">
        <ele>651.00000</ele>
        <time>2009-07-31T11:26:32Z</time>
      </trkpt>
      <trkpt lat="43.37819750" lon="13.02924710">
        <ele>651.00000</ele>
        <time>2009-07-31T11:26:34Z</time>
      </trkpt>
      <trkpt lat="43.37821990" lon="13.02925470">
        <ele>651.00000</ele>
        <time>2009-07-31T11:26:35Z</time>
      </trkpt>
      <trkpt lat="43.37822890" lon="13.02926080">
        <ele>651.00000</ele>
        <time>2009-07-31T11:26:35Z</time>
      </trkpt>
      <trkpt lat="43.37825330" lon="13.02925570">
        <ele>651.00000</ele>
        <time>2009-07-31T11:26:36Z</time>
      </trkpt>
      <trkpt lat="43.37828570" lon="13.02925160">
        <ele>651.00000</ele>
        <time>2009-07-31T11:26:38Z</time>
      </trkpt>
      <trkpt lat="43.37831450" lon="13.02923840">
        <ele>651.00000</ele>
        <time>2009-07-31T11:26:39Z</time>
      </trkpt>
      <trkpt lat="43.37832710" lon="13.02922500">
        <ele>651.00000</ele>
        <time>2009-07-31T11:26:39Z</time>
      </trkpt>
      <trkpt lat="43.37833660" lon="13.02920120">
        <ele>651.00000</ele>
        <time>2009-07-31T11:26:40Z</time>
      </trkpt>
      <trkpt lat="43.37835280" lon="13.02918500">
        <ele>651.00000</ele>
        <time>2009-07-31T11:26:41Z</time>
      </trkpt>
      <trkpt lat="43.37837220" lon="13.02916990">
        <ele>651.00000</ele>
        <time>2009-07-31T11:26:42Z</time>
      </trkpt>
      <trkpt lat="43.37839030" lon="13.02914950">
        <ele>651.00000</ele>
        <time>2009-07-31T11:26:43Z</time>
      </trkpt>
      <trkpt lat="43.37839630" lon="13.02912350">
        <ele>651.00000</ele>
        <time>2009-07-31T11:26:44Z</time>
      </trkpt>
      <trkpt lat="43.37843230" lon="13.02913680">
        <ele>651.00000</ele>
        <time>2009-07-31T11:26:45Z</time>
      </trkpt>
      <trkpt lat="43.37847150" lon="13.02914920">
        <ele>651.00000</ele>
        <time>2009-07-31T11:26:47Z</time>
      </trkpt>
      <trkpt lat="43.37849590" lon="13.02913600">
        <ele>651.00000</ele>
        <time>2009-07-31T11:26:48Z</time>
      </trkpt>
      <trkpt lat="43.37850200" lon="13.02911870">
        <ele>651.00000</ele>
        <time>2009-07-31T11:26:48Z</time>
      </trkpt>
      <trkpt lat="43.37853680" lon="13.02913160">
        <ele>651.00000</ele>
        <time>2009-07-31T11:26:50Z</time>
      </trkpt>
      <trkpt lat="43.37856630" lon="13.02913660">
        <ele>651.00000</ele>
        <time>2009-07-31T11:26:51Z</time>
      </trkpt>
      <trkpt lat="43.37858320" lon="13.02913860">
        <ele>651.00000</ele>
        <time>2009-07-31T11:26:52Z</time>
      </trkpt>
      <trkpt lat="43.37861310" lon="13.02912860">
        <ele>651.00000</ele>
        <time>2009-07-31T11:26:53Z</time>
      </trkpt>
      <trkpt lat="43.37862380" lon="13.02912380">
        <ele>651.00000</ele>
        <time>2009-07-31T11:26:53Z</time>
      </trkpt>
      <trkpt lat="43.37865360" lon="13.02912070">
        <ele>651.00000</ele>
        <time>2009-07-31T11:26:54Z</time>
      </trkpt>
      <trkpt lat="43.37867890" lon="13.02912380">
        <ele>651.00000</ele>
        <time>2009-07-31T11:26:55Z</time>
      </trkpt>
      <trkpt lat="43.37869360" lon="13.02912510">
        <ele>651.00000</ele>
        <time>2009-07-31T11:26:56Z</time>
      </trkpt>
      <trkpt lat="43.37870610" lon="13.02911900">
        <ele>651.00000</ele>
        <time>2009-07-31T11:26:57Z</time>
      </trkpt>
      <trkpt lat="43.37873240" lon="13.02913080">
        <ele>651.00000</ele>
        <time>2009-07-31T11:26:58Z</time>
      </trkpt>
      <trkpt lat="43.37881300" lon="13.02919710">
        <ele>647.00000</ele>
        <time>2009-07-31T11:27:01Z</time>
      </trkpt>
      <trkpt lat="43.37883350" lon="13.02919820">
        <ele>647.00000</ele>
        <time>2009-07-31T11:27:02Z</time>
      </trkpt>
      <trkpt lat="43.37886100" lon="13.02918590">
        <ele>647.00000</ele>
        <time>2009-07-31T11:27:03Z</time>
      </trkpt>
      <trkpt lat="43.37889220" lon="13.02917830">
        <ele>647.00000</ele>
        <time>2009-07-31T11:27:05Z</time>
      </trkpt>
      <trkpt lat="43.37891640" lon="13.02919280">
        <ele>647.00000</ele>
        <time>2009-07-31T11:27:06Z</time>
      </trkpt>
      <trkpt lat="43.37893310" lon="13.02918900">
        <ele>647.00000</ele>
        <time>2009-07-31T11:27:06Z</time>
      </trkpt>
      <trkpt lat="43.37896110" lon="13.02919540">
        <ele>647.00000</ele>
        <time>2009-07-31T11:27:08Z</time>
      </trkpt>
      <trkpt lat="43.37899150" lon="13.02920050">
        <ele>647.00000</ele>
        <time>2009-07-31T11:27:09Z</time>
      </trkpt>
      <trkpt lat="43.37901290" lon="13.02920120">
        <ele>647.00000</ele>
        <time>2009-07-31T11:27:10Z</time>
      </trkpt>
      <trkpt lat="43.37900770" lon="13.02919910">
        <ele>647.00000</ele>
        <time>2009-07-31T11:27:10Z</time>
      </trkpt>
      <trkpt lat="43.37902710" lon="13.02919150">
        <ele>647.00000</ele>
        <time>2009-07-31T11:27:11Z</time>
      </trkpt>
      <trkpt lat="43.37904610" lon="13.02918480">
        <ele>647.00000</ele>
        <time>2009-07-31T11:27:11Z</time>
      </trkpt>
      <trkpt lat="43.37907520" lon="13.02917070">
        <ele>647.00000</ele>
        <time>2009-07-31T11:27:13Z</time>
      </trkpt>
      <trkpt lat="43.37909390" lon="13.02913560">
        <ele>647.00000</ele>
        <time>2009-07-31T11:27:14Z</time>
      </trkpt>
      <trkpt lat="43.37916000" lon="13.02918210">
        <ele>647.00000</ele>
        <time>2009-07-31T11:27:17Z</time>
      </trkpt>
      <trkpt lat="43.37916650" lon="13.02916750">
        <ele>647.00000</ele>
        <time>2009-07-31T11:27:17Z</time>
      </trkpt>
      <trkpt lat="43.37916790" lon="13.02915570">
        <ele>647.00000</ele>
        <time>2009-07-31T11:27:18Z</time>
      </trkpt>
      <trkpt lat="43.37919130" lon="13.02915170">
        <ele>647.00000</ele>
        <time>2009-07-31T11:27:19Z</time>
      </trkpt>
      <trkpt lat="43.37920030" lon="13.02913220">
        <ele>647.00000</ele>
        <time>2009-07-31T11:27:19Z</time>
      </trkpt>
      <trkpt lat="43.37921690" lon="13.02912050">
        <ele>647.00000</ele>
        <time>2009-07-31T11:27:20Z</time>
      </trkpt>
      <trkpt lat="43.37924380" lon="13.02914420">
        <ele>647.00000</ele>
        <time>2009-07-31T11:27:21Z</time>
      </trkpt>
      <trkpt lat="43.37927100" lon="13.02915000">
        <ele>647.00000</ele>
        <time>2009-07-31T11:27:23Z</time>
      </trkpt>
      <trkpt lat="43.37929920" lon="13.02912770">
        <ele>647.00000</ele>
        <time>2009-07-31T11:27:24Z</time>
      </trkpt>
      <trkpt lat="43.37930850" lon="13.02910270">
        <ele>647.00000</ele>
        <time>2009-07-31T11:27:25Z</time>
      </trkpt>
      <trkpt lat="43.37932020" lon="13.02908400">
        <ele>647.00000</ele>
        <time>2009-07-31T11:27:25Z</time>
      </trkpt>
      <trkpt lat="43.37933850" lon="13.02909330">
        <ele>647.00000</ele>
        <time>2009-07-31T11:27:26Z</time>
      </trkpt>
      <trkpt lat="43.37935380" lon="13.02908900">
        <ele>647.00000</ele>
        <time>2009-07-31T11:27:27Z</time>
      </trkpt>
      <trkpt lat="43.37937860" lon="13.02909190">
        <ele>647.00000</ele>
        <time>2009-07-31T11:27:28Z</time>
      </trkpt>
      <trkpt lat="43.37939710" lon="13.02907350">
        <ele>647.00000</ele>
        <time>2009-07-31T11:27:29Z</time>
      </trkpt>
      <trkpt lat="43.37940800" lon="13.02905360">
        <ele>647.00000</ele>
        <time>2009-07-31T11:27:29Z</time>
      </trkpt>
      <trkpt lat="43.37942120" lon="13.02903900">
        <ele>647.00000</ele>
        <time>2009-07-31T11:27:30Z</time>
      </trkpt>
      <trkpt lat="43.37945330" lon="13.02904600">
        <ele>647.00000</ele>
        <time>2009-07-31T11:27:31Z</time>
      </trkpt>
      <trkpt lat="43.37947010" lon="13.02904620">
        <ele>647.00000</ele>
        <time>2009-07-31T11:27:32Z</time>
      </trkpt>
      <trkpt lat="43.37948720" lon="13.02904880">
        <ele>647.00000</ele>
        <time>2009-07-31T11:27:33Z</time>
      </trkpt>
      <trkpt lat="43.37948930" lon="13.02905280">
        <ele>647.00000</ele>
        <time>2009-07-31T11:27:33Z</time>
      </trkpt>
      <trkpt lat="43.37950320" lon="13.02905030">
        <ele>647.00000</ele>
        <time>2009-07-31T11:27:33Z</time>
      </trkpt>
      <trkpt lat="43.37952590" lon="13.02904470">
        <ele>647.00000</ele>
        <time>2009-07-31T11:27:34Z</time>
      </trkpt>
      <trkpt lat="43.37955120" lon="13.02904820">
        <ele>647.00000</ele>
        <time>2009-07-31T11:27:35Z</time>
      </trkpt>
      <trkpt lat="43.37956350" lon="13.02904780">
        <ele>647.00000</ele>
        <time>2009-07-31T11:27:36Z</time>
      </trkpt>
      <trkpt lat="43.37957910" lon="13.02906180">
        <ele>647.00000</ele>
        <time>2009-07-31T11:27:37Z</time>
      </trkpt>
      <trkpt lat="43.37959010" lon="13.02906810">
        <ele>650.00000</ele>
        <time>2009-07-31T11:27:37Z</time>
      </trkpt>
      <trkpt lat="43.37960370" lon="13.02908610">
        <ele>650.00000</ele>
        <time>2009-07-31T11:27:38Z</time>
      </trkpt>
      <trkpt lat="43.37962390" lon="13.02908730">
        <ele>650.00000</ele>
        <time>2009-07-31T11:27:39Z</time>
      </trkpt>
      <trkpt lat="43.37962370" lon="13.02911200">
        <ele>650.00000</ele>
        <time>2009-07-31T11:27:39Z</time>
      </trkpt>
      <trkpt lat="43.37963120" lon="13.02911940">
        <ele>650.00000</ele>
        <time>2009-07-31T11:27:40Z</time>
      </trkpt>
      <trkpt lat="43.37964470" lon="13.02912720">
        <ele>650.00000</ele>
        <time>2009-07-31T11:27:40Z</time>
      </trkpt>
      <trkpt lat="43.37964800" lon="13.02912930">
        <ele>650.00000</ele>
        <time>2009-07-31T11:27:41Z</time>
      </trkpt>
      <trkpt lat="43.37965580" lon="13.02911860">
        <ele>650.00000</ele>
        <time>2009-07-31T11:27:41Z</time>
      </trkpt>
      <trkpt lat="43.37966130" lon="13.02911970">
        <ele>650.00000</ele>
        <time>2009-07-31T11:27:41Z</time>
      </trkpt>
      <trkpt lat="43.37966070" lon="13.02911940">
        <ele>650.00000</ele>
        <time>2009-07-31T11:27:41Z</time>
      </trkpt>
      <trkpt lat="43.37966110" lon="13.02911920">
        <ele>650.00000</ele>
        <time>2009-07-31T11:27:41Z</time>
      </trkpt>
      <trkpt lat="43.37966140" lon="13.02911910">
        <ele>650.00000</ele>
        <time>2009-07-31T11:27:41Z</time>
      </trkpt>
      <trkpt lat="43.37966650" lon="13.02912020">
        <ele>650.00000</ele>
        <time>2009-07-31T11:27:41Z</time>
      </trkpt>
      <trkpt lat="43.37967110" lon="13.02912110">
        <ele>650.00000</ele>
        <time>2009-07-31T11:27:42Z</time>
      </trkpt>
      <trkpt lat="43.37967100" lon="13.02912130">
        <ele>650.00000</ele>
        <time>2009-07-31T11:27:42Z</time>
      </trkpt>
      <trkpt lat="43.37967210" lon="13.02912150">
        <ele>650.00000</ele>
        <time>2009-07-31T11:27:42Z</time>
      </trkpt>
      <trkpt lat="43.37967420" lon="13.02912190">
        <ele>650.00000</ele>
        <time>2009-07-31T11:27:42Z</time>
      </trkpt>
      <trkpt lat="43.37967680" lon="13.02912250">
        <ele>650.00000</ele>
        <time>2009-07-31T11:27:42Z</time>
      </trkpt>
      <trkpt lat="43.37967740" lon="13.02912230">
        <ele>650.00000</ele>
        <time>2009-07-31T11:27:42Z</time>
      </trkpt>
      <trkpt lat="43.37967690" lon="13.02912200">
        <ele>650.00000</ele>
        <time>2009-07-31T11:27:42Z</time>
      </trkpt>
      <trkpt lat="43.37967610" lon="13.02912180">
        <ele>650.00000</ele>
        <time>2009-07-31T11:27:42Z</time>
      </trkpt>
      <trkpt lat="43.37967580" lon="13.02912190">
        <ele>650.00000</ele>
        <time>2009-07-31T11:27:42Z</time>
      </trkpt>
      <trkpt lat="43.37967700" lon="13.02912220">
        <ele>650.00000</ele>
        <time>2009-07-31T11:27:42Z</time>
      </trkpt>
      <trkpt lat="43.37967860" lon="13.02912220">
        <ele>650.00000</ele>
        <time>2009-07-31T11:27:42Z</time>
      </trkpt>
      <trkpt lat="43.37968050" lon="13.02912310">
        <ele>650.00000</ele>
        <time>2009-07-31T11:27:42Z</time>
      </trkpt>
      <trkpt lat="43.37967980" lon="13.02912290">
        <ele>650.00000</ele>
        <time>2009-07-31T11:27:42Z</time>
      </trkpt>
      <trkpt lat="43.37967890" lon="13.02912310">
        <ele>650.00000</ele>
        <time>2009-07-31T11:27:42Z</time>
      </trkpt>
      <trkpt lat="43.37967920" lon="13.02912340">
        <ele>650.00000</ele>
        <time>2009-07-31T11:27:42Z</time>
      </trkpt>
      <trkpt lat="43.37967800" lon="13.02912280">
        <ele>650.00000</ele>
        <time>2009-07-31T11:27:42Z</time>
      </trkpt>
      <trkpt lat="43.37967950" lon="13.02912300">
        <ele>650.00000</ele>
        <time>2009-07-31T11:27:42Z</time>
      </trkpt>
      <trkpt lat="43.37968370" lon="13.02912340">
        <ele>650.00000</ele>
        <time>2009-07-31T11:27:42Z</time>
      </trkpt>
      <trkpt lat="43.37968640" lon="13.02912350">
        <ele>650.00000</ele>
        <time>2009-07-31T11:27:43Z</time>
      </trkpt>
      <trkpt lat="43.37970520" lon="13.02910880">
        <ele>650.00000</ele>
        <time>2009-07-31T11:27:43Z</time>
      </trkpt>
      <trkpt lat="43.37974360" lon="13.02912110">
        <ele>650.00000</ele>
        <time>2009-07-31T11:27:45Z</time>
      </trkpt>
      <trkpt lat="43.37976050" lon="13.02909320">
        <ele>650.00000</ele>
        <time>2009-07-31T11:27:46Z</time>
      </trkpt>
      <trkpt lat="43.37976230" lon="13.02909450">
        <ele>650.00000</ele>
        <time>2009-07-31T11:27:46Z</time>
      </trkpt>
      <trkpt lat="43.37976390" lon="13.02909500">
        <ele>650.00000</ele>
        <time>2009-07-31T11:27:46Z</time>
      </trkpt>
      <trkpt lat="43.37976130" lon="13.02909440">
        <ele>650.00000</ele>
        <time>2009-07-31T11:27:46Z</time>
      </trkpt>
      <trkpt lat="43.37976600" lon="13.02910360">
        <ele>650.00000</ele>
        <time>2009-07-31T11:27:47Z</time>
      </trkpt>
      <trkpt lat="43.37976160" lon="13.02910710">
        <ele>650.00000</ele>
        <time>2009-07-31T11:27:47Z</time>
      </trkpt>
      <trkpt lat="43.37976200" lon="13.02910710">
        <ele>650.00000</ele>
        <time>2009-07-31T11:27:47Z</time>
      </trkpt>
      <trkpt lat="43.37976090" lon="13.02910680">
        <ele>650.00000</ele>
        <time>2009-07-31T11:27:47Z</time>
      </trkpt>
      <trkpt lat="43.37976220" lon="13.02910770">
        <ele>650.00000</ele>
        <time>2009-07-31T11:27:47Z</time>
      </trkpt>
      <trkpt lat="43.37976090" lon="13.02910740">
        <ele>650.00000</ele>
        <time>2009-07-31T11:27:47Z</time>
      </trkpt>
      <trkpt lat="43.37975510" lon="13.02910660">
        <ele>650.00000</ele>
        <time>2009-07-31T11:27:47Z</time>
      </trkpt>
      <trkpt lat="43.37974410" lon="13.02910030">
        <ele>650.00000</ele>
        <time>2009-07-31T11:27:48Z</time>
      </trkpt>
      <trkpt lat="43.37973980" lon="13.02908240">
        <ele>650.00000</ele>
        <time>2009-07-31T11:27:48Z</time>
      </trkpt>
      <trkpt lat="43.37974470" lon="13.02908750">
        <ele>650.00000</ele>
        <time>2009-07-31T11:27:48Z</time>
      </trkpt>
      <trkpt lat="43.37972770" lon="13.02908460">
        <ele>650.00000</ele>
        <time>2009-07-31T11:27:49Z</time>
      </trkpt>
      <trkpt lat="43.37971970" lon="13.02908210">
        <ele>650.00000</ele>
        <time>2009-07-31T11:27:49Z</time>
      </trkpt>
      <trkpt lat="43.37971380" lon="13.02908400">
        <ele>650.00000</ele>
        <time>2009-07-31T11:27:50Z</time>
      </trkpt>
      <trkpt lat="43.37970770" lon="13.02909310">
        <ele>650.00000</ele>
        <time>2009-07-31T11:27:50Z</time>
      </trkpt>
      <trkpt lat="43.37970340" lon="13.02909330">
        <ele>650.00000</ele>
        <time>2009-07-31T11:27:50Z</time>
      </trkpt>
      <trkpt lat="43.37970280" lon="13.02909430">
        <ele>650.00000</ele>
        <time>2009-07-31T11:27:50Z</time>
      </trkpt>
      <trkpt lat="43.37970350" lon="13.02909470">
        <ele>650.00000</ele>
        <time>2009-07-31T11:27:50Z</time>
      </trkpt>
      <trkpt lat="43.37970250" lon="13.02909430">
        <ele>650.00000</ele>
        <time>2009-07-31T11:27:50Z</time>
      </trkpt>
      <trkpt lat="43.37970220" lon="13.02909410">
        <ele>650.00000</ele>
        <time>2009-07-31T11:27:50Z</time>
      </trkpt>
      <trkpt lat="43.37970150" lon="13.02909350">
        <ele>650.00000</ele>
        <time>2009-07-31T11:27:50Z</time>
      </trkpt>
      <trkpt lat="43.37970150" lon="13.02909390">
        <ele>650.00000</ele>
        <time>2009-07-31T11:27:50Z</time>
      </trkpt>
      <trkpt lat="43.37970250" lon="13.02909430">
        <ele>650.00000</ele>
        <time>2009-07-31T11:27:50Z</time>
      </trkpt>
      <trkpt lat="43.37970190" lon="13.02909440">
        <ele>650.00000</ele>
        <time>2009-07-31T11:27:50Z</time>
      </trkpt>
      <trkpt lat="43.37970260" lon="13.02909470">
        <ele>650.00000</ele>
        <time>2009-07-31T11:27:50Z</time>
      </trkpt>
      <trkpt lat="43.37970300" lon="13.02909490">
        <ele>650.00000</ele>
        <time>2009-07-31T11:27:50Z</time>
      </trkpt>
      <trkpt lat="43.37970150" lon="13.02909490">
        <ele>650.00000</ele>
        <time>2009-07-31T11:27:50Z</time>
      </trkpt>
      <trkpt lat="43.37969960" lon="13.02909440">
        <ele>650.00000</ele>
        <time>2009-07-31T11:27:50Z</time>
      </trkpt>
      <trkpt lat="43.37969930" lon="13.02909440">
        <ele>650.00000</ele>
        <time>2009-07-31T11:27:50Z</time>
      </trkpt>
      <trkpt lat="43.37969750" lon="13.02909410">
        <ele>650.00000</ele>
        <time>2009-07-31T11:27:50Z</time>
      </trkpt>
      <trkpt lat="43.37969470" lon="13.02909390">
        <ele>650.00000</ele>
        <time>2009-07-31T11:27:51Z</time>
      </trkpt>
      <trkpt lat="43.37969400" lon="13.02909390">
        <ele>650.00000</ele>
        <time>2009-07-31T11:27:51Z</time>
      </trkpt>
      <trkpt lat="43.37969430" lon="13.02909390">
        <ele>650.00000</ele>
        <time>2009-07-31T11:27:51Z</time>
      </trkpt>
      <trkpt lat="43.37969530" lon="13.02909430">
        <ele>650.00000</ele>
        <time>2009-07-31T11:27:51Z</time>
      </trkpt>
      <trkpt lat="43.37969550" lon="13.02909450">
        <ele>650.00000</ele>
        <time>2009-07-31T11:27:51Z</time>
      </trkpt>
      <trkpt lat="43.37969520" lon="13.02909480">
        <ele>650.00000</ele>
        <time>2009-07-31T11:27:51Z</time>
      </trkpt>
      <trkpt lat="43.37969510" lon="13.02909480">
        <ele>650.00000</ele>
        <time>2009-07-31T11:27:51Z</time>
      </trkpt>
      <trkpt lat="43.37969630" lon="13.02909570">
        <ele>650.00000</ele>
        <time>2009-07-31T11:27:51Z</time>
      </trkpt>
      <trkpt lat="43.37969350" lon="13.02909540">
        <ele>650.00000</ele>
        <time>2009-07-31T11:27:51Z</time>
      </trkpt>
      <trkpt lat="43.37969330" lon="13.02909560">
        <ele>650.00000</ele>
        <time>2009-07-31T11:27:51Z</time>
      </trkpt>
      <trkpt lat="43.37969340" lon="13.02909620">
        <ele>650.00000</ele>
        <time>2009-07-31T11:27:51Z</time>
      </trkpt>
      <trkpt lat="43.37969370" lon="13.02909630">
        <ele>650.00000</ele>
        <time>2009-07-31T11:27:51Z</time>
      </trkpt>
      <trkpt lat="43.37969440" lon="13.02909600">
        <ele>650.00000</ele>
        <time>2009-07-31T11:27:51Z</time>
      </trkpt>
      <trkpt lat="43.37969600" lon="13.02909610">
        <ele>650.00000</ele>
        <time>2009-07-31T11:27:51Z</time>
      </trkpt>
      <trkpt lat="43.37969540" lon="13.02909630">
        <ele>650.00000</ele>
        <time>2009-07-31T11:27:51Z</time>
      </trkpt>
      <trkpt lat="43.37969640" lon="13.02909660">
        <ele>650.00000</ele>
        <time>2009-07-31T11:27:51Z</time>
      </trkpt>
      <trkpt lat="43.37969550" lon="13.02909670">
        <ele>650.00000</ele>
        <time>2009-07-31T11:27:51Z</time>
      </trkpt>
      <trkpt lat="43.37969460" lon="13.02909660">
        <ele>650.00000</ele>
        <time>2009-07-31T11:27:51Z</time>
      </trkpt>
      <trkpt lat="43.37969470" lon="13.02909670">
        <ele>650.00000</ele>
        <time>2009-07-31T11:27:51Z</time>
      </trkpt>
      <trkpt lat="43.37969470" lon="13.02909720">
        <ele>650.00000</ele>
        <time>2009-07-31T11:27:51Z</time>
      </trkpt>
      <trkpt lat="43.37969460" lon="13.02909710">
        <ele>650.00000</ele>
        <time>2009-07-31T11:27:51Z</time>
      </trkpt>
      <trkpt lat="43.37969410" lon="13.02909730">
        <ele>650.00000</ele>
        <time>2009-07-31T11:27:51Z</time>
      </trkpt>
      <trkpt lat="43.37969390" lon="13.02909720">
        <ele>650.00000</ele>
        <time>2009-07-31T11:27:51Z</time>
      </trkpt>
      <trkpt lat="43.37969430" lon="13.02909710">
        <ele>650.00000</ele>
        <time>2009-07-31T11:27:51Z</time>
      </trkpt>
      <trkpt lat="43.37969120" lon="13.02909610">
        <ele>650.00000</ele>
        <time>2009-07-31T11:27:51Z</time>
      </trkpt>
      <trkpt lat="43.37969150" lon="13.02909640">
        <ele>650.00000</ele>
        <time>2009-07-31T11:27:51Z</time>
      </trkpt>
      <trkpt lat="43.37968970" lon="13.02909640">
        <ele>650.00000</ele>
        <time>2009-07-31T11:27:51Z</time>
      </trkpt>
      <trkpt lat="43.37969020" lon="13.02909670">
        <ele>650.00000</ele>
        <time>2009-07-31T11:27:51Z</time>
      </trkpt>
      <trkpt lat="43.37969180" lon="13.02909670">
        <ele>650.00000</ele>
        <time>2009-07-31T11:27:51Z</time>
      </trkpt>
      <trkpt lat="43.37969200" lon="13.02909670">
        <ele>650.00000</ele>
        <time>2009-07-31T11:27:51Z</time>
      </trkpt>
      <trkpt lat="43.37969190" lon="13.02909670">
        <ele>650.00000</ele>
        <time>2009-07-31T11:27:51Z</time>
      </trkpt>
      <trkpt lat="43.37969180" lon="13.02909640">
        <ele>650.00000</ele>
        <time>2009-07-31T11:27:51Z</time>
      </trkpt>
      <trkpt lat="43.37969380" lon="13.02909650">
        <ele>650.00000</ele>
        <time>2009-07-31T11:27:51Z</time>
      </trkpt>
      <trkpt lat="43.37969380" lon="13.02909630">
        <ele>650.00000</ele>
        <time>2009-07-31T11:27:51Z</time>
      </trkpt>
      <trkpt lat="43.37969350" lon="13.02909630">
        <ele>650.00000</ele>
        <time>2009-07-31T11:27:51Z</time>
      </trkpt>
      <trkpt lat="43.37969280" lon="13.02909590">
        <ele>650.00000</ele>
        <time>2009-07-31T11:27:51Z</time>
      </trkpt>
      <trkpt lat="43.37969260" lon="13.02909580">
        <ele>650.00000</ele>
        <time>2009-07-31T11:27:51Z</time>
      </trkpt>
      <trkpt lat="43.37969060" lon="13.02909510">
        <ele>650.00000</ele>
        <time>2009-07-31T11:27:52Z</time>
      </trkpt>
      <trkpt lat="43.37968870" lon="13.02909440">
        <ele>650.00000</ele>
        <time>2009-07-31T11:27:52Z</time>
      </trkpt>
      <trkpt lat="43.37969010" lon="13.02909460">
        <ele>650.00000</ele>
        <time>2009-07-31T11:27:52Z</time>
      </trkpt>
      <trkpt lat="43.37968990" lon="13.02909330">
        <ele>650.00000</ele>
        <time>2009-07-31T11:27:52Z</time>
      </trkpt>
      <trkpt lat="43.37969100" lon="13.02909310">
        <ele>650.00000</ele>
        <time>2009-07-31T11:27:52Z</time>
      </trkpt>
      <trkpt lat="43.37969270" lon="13.02909340">
        <ele>650.00000</ele>
        <time>2009-07-31T11:27:52Z</time>
      </trkpt>
      <trkpt lat="43.37969340" lon="13.02909360">
        <ele>650.00000</ele>
        <time>2009-07-31T11:27:52Z</time>
      </trkpt>
      <trkpt lat="43.37969510" lon="13.02909390">
        <ele>650.00000</ele>
        <time>2009-07-31T11:27:52Z</time>
      </trkpt>
      <trkpt lat="43.37970280" lon="13.02908910">
        <ele>650.00000</ele>
        <time>2009-07-31T11:27:52Z</time>
      </trkpt>
      <trkpt lat="43.37969600" lon="13.02907130">
        <ele>650.00000</ele>
        <time>2009-07-31T11:27:53Z</time>
      </trkpt>
      <trkpt lat="43.37969410" lon="13.02907310">
        <ele>650.00000</ele>
        <time>2009-07-31T11:27:53Z</time>
      </trkpt>
      <trkpt lat="43.37968800" lon="13.02908390">
        <ele>650.00000</ele>
        <time>2009-07-31T11:27:53Z</time>
      </trkpt>
      <trkpt lat="43.37968220" lon="13.02909540">
        <ele>650.00000</ele>
        <time>2009-07-31T11:27:54Z</time>
      </trkpt>
      <trkpt lat="43.37968300" lon="13.02910380">
        <ele>650.00000</ele>
        <time>2009-07-31T11:27:54Z</time>
      </trkpt>
      <trkpt lat="43.37968710" lon="13.02910200">
        <ele>650.00000</ele>
        <time>2009-07-31T11:27:54Z</time>
      </trkpt>
      <trkpt lat="43.37969150" lon="13.02910290">
        <ele>650.00000</ele>
        <time>2009-07-31T11:27:54Z</time>
      </trkpt>
      <trkpt lat="43.37968100" lon="13.02910140">
        <ele>650.00000</ele>
        <time>2009-07-31T11:27:55Z</time>
      </trkpt>
      <trkpt lat="43.37968090" lon="13.02909830">
        <ele>650.00000</ele>
        <time>2009-07-31T11:27:55Z</time>
      </trkpt>
      <trkpt lat="43.37968190" lon="13.02909810">
        <ele>650.00000</ele>
        <time>2009-07-31T11:27:55Z</time>
      </trkpt>
      <trkpt lat="43.37968260" lon="13.02909840">
        <ele>650.00000</ele>
        <time>2009-07-31T11:27:55Z</time>
      </trkpt>
      <trkpt lat="43.37968390" lon="13.02909880">
        <ele>650.00000</ele>
        <time>2009-07-31T11:27:55Z</time>
      </trkpt>
      <trkpt lat="43.37968520" lon="13.02909920">
        <ele>650.00000</ele>
        <time>2009-07-31T11:27:55Z</time>
      </trkpt>
      <trkpt lat="43.37968590" lon="13.02909940">
        <ele>650.00000</ele>
        <time>2009-07-31T11:27:55Z</time>
      </trkpt>
      <trkpt lat="43.37968750" lon="13.02909980">
        <ele>650.00000</ele>
        <time>2009-07-31T11:27:55Z</time>
      </trkpt>
      <trkpt lat="43.37968060" lon="13.02911330">
        <ele>650.00000</ele>
        <time>2009-07-31T11:27:56Z</time>
      </trkpt>
      <trkpt lat="43.37967530" lon="13.02911300">
        <ele>650.00000</ele>
        <time>2009-07-31T11:27:56Z</time>
      </trkpt>
      <trkpt lat="43.37967550" lon="13.02911600">
        <ele>650.00000</ele>
        <time>2009-07-31T11:27:56Z</time>
      </trkpt>
      <trkpt lat="43.37967890" lon="13.02910870">
        <ele>650.00000</ele>
        <time>2009-07-31T11:27:56Z</time>
      </trkpt>
      <trkpt lat="43.37966420" lon="13.02910200">
        <ele>650.00000</ele>
        <time>2009-07-31T11:27:57Z</time>
      </trkpt>
      <trkpt lat="43.37964870" lon="13.02909690">
        <ele>650.00000</ele>
        <time>2009-07-31T11:27:57Z</time>
      </trkpt>
      <trkpt lat="43.37963520" lon="13.02909400">
        <ele>650.00000</ele>
        <time>2009-07-31T11:27:58Z</time>
      </trkpt>
    </trkseg>
    <trkseg>
      <trkpt lat="43.37960270" lon="13.02911130">
        <ele>650.00000</ele>
        <time>2009-07-31T10:23:10Z</time>
      </trkpt>
      <trkpt lat="43.37959150" lon="13.02911990">
        <ele>650.00000</ele>
        <time>2009-07-31T10:23:10Z</time>
      </trkpt>
      <trkpt lat="43.37957370" lon="13.02910810">
        <ele>647.00000</ele>
        <time>2009-07-31T10:23:11Z</time>
      </trkpt>
      <trkpt lat="43.37955220" lon="13.02910700">
        <ele>647.00000</ele>
        <time>2009-07-31T10:23:12Z</time>
      </trkpt>
      <trkpt lat="43.37953180" lon="13.02910330">
        <ele>647.00000</ele>
        <time>2009-07-31T10:23:13Z</time>
      </trkpt>
      <trkpt lat="43.37951590" lon="13.02907340">
        <ele>647.00000</ele>
        <time>2009-07-31T10:23:14Z</time>
      </trkpt>
      <trkpt lat="43.37950420" lon="13.02908450">
        <ele>647.00000</ele>
        <time>2009-07-31T10:23:15Z</time>
      </trkpt>
      <trkpt lat="43.37948680" lon="13.02907980">
        <ele>647.00000</ele>
        <time>2009-07-31T10:23:15Z</time>
      </trkpt>
      <trkpt lat="43.37946190" lon="13.02907680">
        <ele>647.00000</ele>
        <time>2009-07-31T10:23:16Z</time>
      </trkpt>
      <trkpt lat="43.37944500" lon="13.02907010">
        <ele>647.00000</ele>
        <time>2009-07-31T10:23:17Z</time>
      </trkpt>
      <trkpt lat="43.37941890" lon="13.02905830">
        <ele>647.00000</ele>
        <time>2009-07-31T10:23:18Z</time>
      </trkpt>
      <trkpt lat="43.37943080" lon="13.02905140">
        <ele>647.00000</ele>
        <time>2009-07-31T10:23:19Z</time>
      </trkpt>
      <trkpt lat="43.37943470" lon="13.02904460">
        <ele>647.00000</ele>
        <time>2009-07-31T10:23:19Z</time>
      </trkpt>
      <trkpt lat="43.37943240" lon="13.02904360">
        <ele>647.00000</ele>
        <time>2009-07-31T10:23:19Z</time>
      </trkpt>
      <trkpt lat="43.37942970" lon="13.02904290">
        <ele>647.00000</ele>
        <time>2009-07-31T10:23:19Z</time>
      </trkpt>
      <trkpt lat="43.37943660" lon="13.02904050">
        <ele>647.00000</ele>
        <time>2009-07-31T10:23:19Z</time>
      </trkpt>
      <trkpt lat="43.37945210" lon="13.02904570">
        <ele>647.00000</ele>
        <time>2009-07-31T10:23:20Z</time>
      </trkpt>
      <trkpt lat="43.37946000" lon="13.02904840">
        <ele>647.00000</ele>
        <time>2009-07-31T10:23:20Z</time>
      </trkpt>
      <trkpt lat="43.37946600" lon="13.02904930">
        <ele>647.00000</ele>
        <time>2009-07-31T10:23:21Z</time>
      </trkpt>
      <trkpt lat="43.37946320" lon="13.02905850">
        <ele>647.00000</ele>
        <time>2009-07-31T10:23:21Z</time>
      </trkpt>
      <trkpt lat="43.37945740" lon="13.02905990">
        <ele>647.00000</ele>
        <time>2009-07-31T10:23:21Z</time>
      </trkpt>
      <trkpt lat="43.37945190" lon="13.02905660">
        <ele>647.00000</ele>
        <time>2009-07-31T10:23:21Z</time>
      </trkpt>
      <trkpt lat="43.37941570" lon="13.02903930">
        <ele>647.00000</ele>
        <time>2009-07-31T10:23:23Z</time>
      </trkpt>
      <trkpt lat="43.37939240" lon="13.02903130">
        <ele>647.00000</ele>
        <time>2009-07-31T10:23:24Z</time>
      </trkpt>
      <trkpt lat="43.37936780" lon="13.02903640">
        <ele>647.00000</ele>
        <time>2009-07-31T10:23:25Z</time>
      </trkpt>
      <trkpt lat="43.37933240" lon="13.02907360">
        <ele>647.00000</ele>
        <time>2009-07-31T10:23:27Z</time>
      </trkpt>
      <trkpt lat="43.37931990" lon="13.02906370">
        <ele>647.00000</ele>
        <time>2009-07-31T10:23:27Z</time>
      </trkpt>
      <trkpt lat="43.37930600" lon="13.02905490">
        <ele>647.00000</ele>
        <time>2009-07-31T10:23:28Z</time>
      </trkpt>
      <trkpt lat="43.37928160" lon="13.02902660">
        <ele>647.00000</ele>
        <time>2009-07-31T10:23:29Z</time>
      </trkpt>
      <trkpt lat="43.37926040" lon="13.02900940">
        <ele>647.00000</ele>
        <time>2009-07-31T10:23:30Z</time>
      </trkpt>
      <trkpt lat="43.37924630" lon="13.02900670">
        <ele>647.00000</ele>
        <time>2009-07-31T10:23:31Z</time>
      </trkpt>
      <trkpt lat="43.37922220" lon="13.02900100">
        <ele>647.00000</ele>
        <time>2009-07-31T10:23:32Z</time>
      </trkpt>
      <trkpt lat="43.37920930" lon="13.02898170">
        <ele>647.00000</ele>
        <time>2009-07-31T10:23:32Z</time>
      </trkpt>
      <trkpt lat="43.37920420" lon="13.02899110">
        <ele>647.00000</ele>
        <time>2009-07-31T10:23:33Z</time>
      </trkpt>
      <trkpt lat="43.37917230" lon="13.02897360">
        <ele>647.00000</ele>
        <time>2009-07-31T10:23:34Z</time>
      </trkpt>
      <trkpt lat="43.37914790" lon="13.02896030">
        <ele>647.00000</ele>
        <time>2009-07-31T10:23:35Z</time>
      </trkpt>
      <trkpt lat="43.37912160" lon="13.02894890">
        <ele>647.00000</ele>
        <time>2009-07-31T10:23:36Z</time>
      </trkpt>
      <trkpt lat="43.37910010" lon="13.02895130">
        <ele>647.00000</ele>
        <time>2009-07-31T10:23:37Z</time>
      </trkpt>
      <trkpt lat="43.37907730" lon="13.02896480">
        <ele>647.00000</ele>
        <time>2009-07-31T10:23:38Z</time>
      </trkpt>
      <trkpt lat="43.37906860" lon="13.02896120">
        <ele>647.00000</ele>
        <time>2009-07-31T10:23:38Z</time>
      </trkpt>
      <trkpt lat="43.37904600" lon="13.02894480">
        <ele>647.00000</ele>
        <time>2009-07-31T10:23:39Z</time>
      </trkpt>
      <trkpt lat="43.37902700" lon="13.02894470">
        <ele>647.00000</ele>
        <time>2009-07-31T10:23:40Z</time>
      </trkpt>
      <trkpt lat="43.37899910" lon="13.02894260">
        <ele>647.00000</ele>
        <time>2009-07-31T10:23:41Z</time>
      </trkpt>
      <trkpt lat="43.37896590" lon="13.02891410">
        <ele>647.00000</ele>
        <time>2009-07-31T10:23:43Z</time>
      </trkpt>
      <trkpt lat="43.37893670" lon="13.02889100">
        <ele>647.00000</ele>
        <time>2009-07-31T10:23:44Z</time>
      </trkpt>
      <trkpt lat="43.37891290" lon="13.02887000">
        <ele>647.00000</ele>
        <time>2009-07-31T10:23:45Z</time>
      </trkpt>
      <trkpt lat="43.37889370" lon="13.02884880">
        <ele>647.00000</ele>
        <time>2009-07-31T10:23:46Z</time>
      </trkpt>
      <trkpt lat="43.37887480" lon="13.02881710">
        <ele>647.00000</ele>
        <time>2009-07-31T10:23:48Z</time>
      </trkpt>
      <trkpt lat="43.37885560" lon="13.02880360">
        <ele>647.00000</ele>
        <time>2009-07-31T10:23:48Z</time>
      </trkpt>
      <trkpt lat="43.37885880" lon="13.02882000">
        <ele>647.00000</ele>
        <time>2009-07-31T10:23:49Z</time>
      </trkpt>
      <trkpt lat="43.37883780" lon="13.02878760">
        <ele>647.00000</ele>
        <time>2009-07-31T10:23:50Z</time>
      </trkpt>
      <trkpt lat="43.37881450" lon="13.02876240">
        <ele>647.00000</ele>
        <time>2009-07-31T10:23:51Z</time>
      </trkpt>
      <trkpt lat="43.37879240" lon="13.02874160">
        <ele>627.00000</ele>
        <time>2009-07-31T10:23:52Z</time>
      </trkpt>
      <trkpt lat="43.37877720" lon="13.02872190">
        <ele>627.00000</ele>
        <time>2009-07-31T10:23:53Z</time>
      </trkpt>
      <trkpt lat="43.37876200" lon="13.02869710">
        <ele>627.00000</ele>
        <time>2009-07-31T10:23:54Z</time>
      </trkpt>
      <trkpt lat="43.37873380" lon="13.02869030">
        <ele>638.00000</ele>
        <time>2009-07-31T10:23:55Z</time>
      </trkpt>
      <trkpt lat="43.37871230" lon="13.02867440">
        <ele>638.00000</ele>
        <time>2009-07-31T10:23:56Z</time>
      </trkpt>
      <trkpt lat="43.37869870" lon="13.02865860">
        <ele>638.00000</ele>
        <time>2009-07-31T10:23:57Z</time>
      </trkpt>
      <trkpt lat="43.37867960" lon="13.02862500">
        <ele>638.00000</ele>
        <time>2009-07-31T10:23:58Z</time>
      </trkpt>
      <trkpt lat="43.37868930" lon="13.02860060">
        <ele>638.00000</ele>
        <time>2009-07-31T10:23:59Z</time>
      </trkpt>
      <trkpt lat="43.37868890" lon="13.02858310">
        <ele>638.00000</ele>
        <time>2009-07-31T10:24:00Z</time>
      </trkpt>
      <trkpt lat="43.37869680" lon="13.02857150">
        <ele>638.00000</ele>
        <time>2009-07-31T10:24:00Z</time>
      </trkpt>
      <trkpt lat="43.37870890" lon="13.02855110">
        <ele>638.00000</ele>
        <time>2009-07-31T10:24:01Z</time>
      </trkpt>
      <trkpt lat="43.37872450" lon="13.02853240">
        <ele>638.00000</ele>
        <time>2009-07-31T10:24:02Z</time>
      </trkpt>
      <trkpt lat="43.37874560" lon="13.02852360">
        <ele>638.00000</ele>
        <time>2009-07-31T10:24:03Z</time>
      </trkpt>
      <trkpt lat="43.37877470" lon="13.02851870">
        <ele>627.00000</ele>
        <time>2009-07-31T10:24:04Z</time>
      </trkpt>
      <trkpt lat="43.37880050" lon="13.02850090">
        <ele>627.00000</ele>
        <time>2009-07-31T10:24:05Z</time>
      </trkpt>
      <trkpt lat="43.37882050" lon="13.02848780">
        <ele>627.00000</ele>
        <time>2009-07-31T10:24:06Z</time>
      </trkpt>
      <trkpt lat="43.37884450" lon="13.02846900">
        <ele>627.00000</ele>
        <time>2009-07-31T10:24:07Z</time>
      </trkpt>
      <trkpt lat="43.37887710" lon="13.02846080">
        <ele>627.00000</ele>
        <time>2009-07-31T10:24:08Z</time>
      </trkpt>
      <trkpt lat="43.37891240" lon="13.02847690">
        <ele>627.00000</ele>
        <time>2009-07-31T10:24:10Z</time>
      </trkpt>
      <trkpt lat="43.37894320" lon="13.02845900">
        <ele>627.00000</ele>
        <time>2009-07-31T10:24:11Z</time>
      </trkpt>
      <trkpt lat="43.37896460" lon="13.02845780">
        <ele>627.00000</ele>
        <time>2009-07-31T10:24:12Z</time>
      </trkpt>
      <trkpt lat="43.37899170" lon="13.02844590">
        <ele>627.00000</ele>
        <time>2009-07-31T10:24:13Z</time>
      </trkpt>
      <trkpt lat="43.37901510" lon="13.02844160">
        <ele>627.00000</ele>
        <time>2009-07-31T10:24:14Z</time>
      </trkpt>
      <trkpt lat="43.37904180" lon="13.02843130">
        <ele>627.00000</ele>
        <time>2009-07-31T10:24:15Z</time>
      </trkpt>
      <trkpt lat="43.37906870" lon="13.02842160">
        <ele>627.00000</ele>
        <time>2009-07-31T10:24:16Z</time>
      </trkpt>
      <trkpt lat="43.37908900" lon="13.02839260">
        <ele>627.00000</ele>
        <time>2009-07-31T10:24:17Z</time>
      </trkpt>
      <trkpt lat="43.37910150" lon="13.02835880">
        <ele>627.00000</ele>
        <time>2009-07-31T10:24:18Z</time>
      </trkpt>
      <trkpt lat="43.37912410" lon="13.02833420">
        <ele>627.00000</ele>
        <time>2009-07-31T10:24:20Z</time>
      </trkpt>
      <trkpt lat="43.37914580" lon="13.02830840">
        <ele>627.00000</ele>
        <time>2009-07-31T10:24:21Z</time>
      </trkpt>
      <trkpt lat="43.37916850" lon="13.02828900">
        <ele>627.00000</ele>
        <time>2009-07-31T10:24:22Z</time>
      </trkpt>
      <trkpt lat="43.37918320" lon="13.02827260">
        <ele>627.00000</ele>
        <time>2009-07-31T10:24:23Z</time>
      </trkpt>
      <trkpt lat="43.37920150" lon="13.02825130">
        <ele>627.00000</ele>
        <time>2009-07-31T10:24:24Z</time>
      </trkpt>
      <trkpt lat="43.37922350" lon="13.02822540">
        <ele>627.00000</ele>
        <time>2009-07-31T10:24:25Z</time>
      </trkpt>
      <trkpt lat="43.37924660" lon="13.02820470">
        <ele>627.00000</ele>
        <time>2009-07-31T10:24:26Z</time>
      </trkpt>
      <trkpt lat="43.37927440" lon="13.02819370">
        <ele>627.00000</ele>
        <time>2009-07-31T10:24:27Z</time>
      </trkpt>
      <trkpt lat="43.37929410" lon="13.02818680">
        <ele>627.00000</ele>
        <time>2009-07-31T10:24:28Z</time>
      </trkpt>
      <trkpt lat="43.37932630" lon="13.02817590">
        <ele>627.00000</ele>
        <time>2009-07-31T10:24:29Z</time>
      </trkpt>
      <trkpt lat="43.37932650" lon="13.02813210">
        <ele>627.00000</ele>
        <time>2009-07-31T10:24:30Z</time>
      </trkpt>
      <trkpt lat="43.37934230" lon="13.02810510">
        <ele>627.00000</ele>
        <time>2009-07-31T10:24:31Z</time>
      </trkpt>
      <trkpt lat="43.37936550" lon="13.02806970">
        <ele>627.00000</ele>
        <time>2009-07-31T10:24:33Z</time>
      </trkpt>
      <trkpt lat="43.37938140" lon="13.02804560">
        <ele>627.00000</ele>
        <time>2009-07-31T10:24:34Z</time>
      </trkpt>
      <trkpt lat="43.37939840" lon="13.02802340">
        <ele>627.00000</ele>
        <time>2009-07-31T10:24:35Z</time>
      </trkpt>
      <trkpt lat="43.37940520" lon="13.02800320">
        <ele>627.00000</ele>
        <time>2009-07-31T10:24:35Z</time>
      </trkpt>
      <trkpt lat="43.37941720" lon="13.02796630">
        <ele>627.00000</ele>
        <time>2009-07-31T10:24:36Z</time>
      </trkpt>
      <trkpt lat="43.37943490" lon="13.02794640">
        <ele>627.00000</ele>
        <time>2009-07-31T10:24:37Z</time>
      </trkpt>
      <trkpt lat="43.37945470" lon="13.02792830">
        <ele>627.00000</ele>
        <time>2009-07-31T10:24:38Z</time>
      </trkpt>
      <trkpt lat="43.37947330" lon="13.02791460">
        <ele>631.00000</ele>
        <time>2009-07-31T10:24:39Z</time>
      </trkpt>
      <trkpt lat="43.37949920" lon="13.02789360">
        <ele>631.00000</ele>
        <time>2009-07-31T10:24:40Z</time>
      </trkpt>
      <trkpt lat="43.37952760" lon="13.02787470">
        <ele>631.00000</ele>
        <time>2009-07-31T10:24:42Z</time>
      </trkpt>
      <trkpt lat="43.37954930" lon="13.02785640">
        <ele>631.00000</ele>
        <time>2009-07-31T10:24:43Z</time>
      </trkpt>
      <trkpt lat="43.37956690" lon="13.02783620">
        <ele>631.00000</ele>
        <time>2009-07-31T10:24:44Z</time>
      </trkpt>
      <trkpt lat="43.37959170" lon="13.02781890">
        <ele>622.00000</ele>
        <time>2009-07-31T10:24:45Z</time>
      </trkpt>
      <trkpt lat="43.37962000" lon="13.02780680">
        <ele>622.00000</ele>
        <time>2009-07-31T10:24:46Z</time>
      </trkpt>
      <trkpt lat="43.37963280" lon="13.02776350">
        <ele>622.00000</ele>
        <time>2009-07-31T10:24:47Z</time>
      </trkpt>
      <trkpt lat="43.37965270" lon="13.02773820">
        <ele>622.00000</ele>
        <time>2009-07-31T10:24:48Z</time>
      </trkpt>
      <trkpt lat="43.37967010" lon="13.02771630">
        <ele>622.00000</ele>
        <time>2009-07-31T10:24:49Z</time>
      </trkpt>
      <trkpt lat="43.37968980" lon="13.02770450">
        <ele>622.00000</ele>
        <time>2009-07-31T10:24:50Z</time>
      </trkpt>
      <trkpt lat="43.37970650" lon="13.02769040">
        <ele>622.00000</ele>
        <time>2009-07-31T10:24:51Z</time>
      </trkpt>
      <trkpt lat="43.37974240" lon="13.02767960">
        <ele>622.00000</ele>
        <time>2009-07-31T10:24:52Z</time>
      </trkpt>
      <trkpt lat="43.37976480" lon="13.02766010">
        <ele>622.00000</ele>
        <time>2009-07-31T10:24:53Z</time>
      </trkpt>
      <trkpt lat="43.37978060" lon="13.02763250">
        <ele>622.00000</ele>
        <time>2009-07-31T10:24:54Z</time>
      </trkpt>
      <trkpt lat="43.37979530" lon="13.02759480">
        <ele>622.00000</ele>
        <time>2009-07-31T10:24:56Z</time>
      </trkpt>
      <trkpt lat="43.37981250" lon="13.02756620">
        <ele>622.00000</ele>
        <time>2009-07-31T10:24:57Z</time>
      </trkpt>
      <trkpt lat="43.37983040" lon="13.02754400">
        <ele>622.00000</ele>
        <time>2009-07-31T10:24:58Z</time>
      </trkpt>
      <trkpt lat="43.37985130" lon="13.02752790">
        <ele>622.00000</ele>
        <time>2009-07-31T10:24:59Z</time>
      </trkpt>
      <trkpt lat="43.37986980" lon="13.02749530">
        <ele>622.00000</ele>
        <time>2009-07-31T10:25:00Z</time>
      </trkpt>
      <trkpt lat="43.37988920" lon="13.02746940">
        <ele>622.00000</ele>
        <time>2009-07-31T10:25:01Z</time>
      </trkpt>
      <trkpt lat="43.37990100" lon="13.02744390">
        <ele>622.00000</ele>
        <time>2009-07-31T10:25:02Z</time>
      </trkpt>
      <trkpt lat="43.37992520" lon="13.02742490">
        <ele>622.00000</ele>
        <time>2009-07-31T10:25:03Z</time>
      </trkpt>
      <trkpt lat="43.37995000" lon="13.02739720">
        <ele>622.00000</ele>
        <time>2009-07-31T10:25:04Z</time>
      </trkpt>
      <trkpt lat="43.37996890" lon="13.02736380">
        <ele>622.00000</ele>
        <time>2009-07-31T10:25:06Z</time>
      </trkpt>
      <trkpt lat="43.37998100" lon="13.02733230">
        <ele>622.00000</ele>
        <time>2009-07-31T10:25:07Z</time>
      </trkpt>
      <trkpt lat="43.37999550" lon="13.02730190">
        <ele>622.00000</ele>
        <time>2009-07-31T10:25:08Z</time>
      </trkpt>
      <trkpt lat="43.38002160" lon="13.02726890">
        <ele>622.00000</ele>
        <time>2009-07-31T10:25:09Z</time>
      </trkpt>
      <trkpt lat="43.38003400" lon="13.02724840">
        <ele>622.00000</ele>
        <time>2009-07-31T10:25:10Z</time>
      </trkpt>
      <trkpt lat="43.38003500" lon="13.02722190">
        <ele>622.00000</ele>
        <time>2009-07-31T10:25:11Z</time>
      </trkpt>
      <trkpt lat="43.38005220" lon="13.02718260">
        <ele>622.00000</ele>
        <time>2009-07-31T10:25:12Z</time>
      </trkpt>
      <trkpt lat="43.38007580" lon="13.02714530">
        <ele>622.00000</ele>
        <time>2009-07-31T10:25:13Z</time>
      </trkpt>
      <trkpt lat="43.38009380" lon="13.02711230">
        <ele>622.00000</ele>
        <time>2009-07-31T10:25:15Z</time>
      </trkpt>
      <trkpt lat="43.38010480" lon="13.02709950">
        <ele>622.00000</ele>
        <time>2009-07-31T10:25:15Z</time>
      </trkpt>
      <trkpt lat="43.38012370" lon="13.02707240">
        <ele>634.00000</ele>
        <time>2009-07-31T10:25:16Z</time>
      </trkpt>
      <trkpt lat="43.38014150" lon="13.02704050">
        <ele>634.00000</ele>
        <time>2009-07-31T10:25:17Z</time>
      </trkpt>
      <trkpt lat="43.38015190" lon="13.02699930">
        <ele>634.00000</ele>
        <time>2009-07-31T10:25:19Z</time>
      </trkpt>
      <trkpt lat="43.38017000" lon="13.02696470">
        <ele>634.00000</ele>
        <time>2009-07-31T10:25:20Z</time>
      </trkpt>
      <trkpt lat="43.38018590" lon="13.02694230">
        <ele>634.00000</ele>
        <time>2009-07-31T10:25:21Z</time>
      </trkpt>
      <trkpt lat="43.38020670" lon="13.02691650">
        <ele>634.00000</ele>
        <time>2009-07-31T10:25:22Z</time>
      </trkpt>
      <trkpt lat="43.38021760" lon="13.02688020">
        <ele>634.00000</ele>
        <time>2009-07-31T10:25:23Z</time>
      </trkpt>
      <trkpt lat="43.38023770" lon="13.02684870">
        <ele>634.00000</ele>
        <time>2009-07-31T10:25:24Z</time>
      </trkpt>
      <trkpt lat="43.38025210" lon="13.02682100">
        <ele>634.00000</ele>
        <time>2009-07-31T10:25:25Z</time>
      </trkpt>
      <trkpt lat="43.38027770" lon="13.02680510">
        <ele>634.00000</ele>
        <time>2009-07-31T10:25:26Z</time>
      </trkpt>
      <trkpt lat="43.38030590" lon="13.02679010">
        <ele>634.00000</ele>
        <time>2009-07-31T10:25:28Z</time>
      </trkpt>
      <trkpt lat="43.38031900" lon="13.02675600">
        <ele>634.00000</ele>
        <time>2009-07-31T10:25:29Z</time>
      </trkpt>
      <trkpt lat="43.38032950" lon="13.02673200">
        <ele>634.00000</ele>
        <time>2009-07-31T10:25:30Z</time>
      </trkpt>
      <trkpt lat="43.38035350" lon="13.02670660">
        <ele>634.00000</ele>
        <time>2009-07-31T10:25:31Z</time>
      </trkpt>
      <trkpt lat="43.38036560" lon="13.02667580">
        <ele>634.00000</ele>
        <time>2009-07-31T10:25:32Z</time>
      </trkpt>
      <trkpt lat="43.38037740" lon="13.02665040">
        <ele>634.00000</ele>
        <time>2009-07-31T10:25:33Z</time>
      </trkpt>
      <trkpt lat="43.38041970" lon="13.02665070">
        <ele>620.00000</ele>
        <time>2009-07-31T10:25:34Z</time>
      </trkpt>
      <trkpt lat="43.38043710" lon="13.02662190">
        <ele>620.00000</ele>
        <time>2009-07-31T10:25:35Z</time>
      </trkpt>
      <trkpt lat="43.38044910" lon="13.02659510">
        <ele>620.00000</ele>
        <time>2009-07-31T10:25:36Z</time>
      </trkpt>
      <trkpt lat="43.38046930" lon="13.02657990">
        <ele>620.00000</ele>
        <time>2009-07-31T10:25:37Z</time>
      </trkpt>
      <trkpt lat="43.38048500" lon="13.02655540">
        <ele>620.00000</ele>
        <time>2009-07-31T10:25:38Z</time>
      </trkpt>
      <trkpt lat="43.38049400" lon="13.02650170">
        <ele>620.00000</ele>
        <time>2009-07-31T10:25:40Z</time>
      </trkpt>
      <trkpt lat="43.38050970" lon="13.02646740">
        <ele>620.00000</ele>
        <time>2009-07-31T10:25:41Z</time>
      </trkpt>
      <trkpt lat="43.38052630" lon="13.02642690">
        <ele>620.00000</ele>
        <time>2009-07-31T10:25:42Z</time>
      </trkpt>
      <trkpt lat="43.38055280" lon="13.02639310">
        <ele>620.00000</ele>
        <time>2009-07-31T10:25:44Z</time>
      </trkpt>
      <trkpt lat="43.38056700" lon="13.02634460">
        <ele>620.00000</ele>
        <time>2009-07-31T10:25:45Z</time>
      </trkpt>
      <trkpt lat="43.38057270" lon="13.02626790">
        <ele>620.00000</ele>
        <time>2009-07-31T10:25:48Z</time>
      </trkpt>
      <trkpt lat="43.38057190" lon="13.02622750">
        <ele>632.00000</ele>
        <time>2009-07-31T10:25:49Z</time>
      </trkpt>
      <trkpt lat="43.38059800" lon="13.02621010">
        <ele>632.00000</ele>
        <time>2009-07-31T10:25:50Z</time>
      </trkpt>
      <trkpt lat="43.38061320" lon="13.02618220">
        <ele>632.00000</ele>
        <time>2009-07-31T10:25:51Z</time>
      </trkpt>
      <trkpt lat="43.38064170" lon="13.02616360">
        <ele>632.00000</ele>
        <time>2009-07-31T10:25:52Z</time>
      </trkpt>
      <trkpt lat="43.38066150" lon="13.02614220">
        <ele>632.00000</ele>
        <time>2009-07-31T10:25:53Z</time>
      </trkpt>
      <trkpt lat="43.38068280" lon="13.02612390">
        <ele>632.00000</ele>
        <time>2009-07-31T10:25:54Z</time>
      </trkpt>
      <trkpt lat="43.38070200" lon="13.02610780">
        <ele>632.00000</ele>
        <time>2009-07-31T10:25:55Z</time>
      </trkpt>
      <trkpt lat="43.38071640" lon="13.02608940">
        <ele>632.00000</ele>
        <time>2009-07-31T10:25:56Z</time>
      </trkpt>
      <trkpt lat="43.38073490" lon="13.02606460">
        <ele>632.00000</ele>
        <time>2009-07-31T10:25:57Z</time>
      </trkpt>
      <trkpt lat="43.38075220" lon="13.02603600">
        <ele>632.00000</ele>
        <time>2009-07-31T10:25:58Z</time>
      </trkpt>
      <trkpt lat="43.38076540" lon="13.02600900">
        <ele>632.00000</ele>
        <time>2009-07-31T10:25:59Z</time>
      </trkpt>
      <trkpt lat="43.38078070" lon="13.02597490">
        <ele>632.00000</ele>
        <time>2009-07-31T10:26:00Z</time>
      </trkpt>
      <trkpt lat="43.38079150" lon="13.02593020">
        <ele>632.00000</ele>
        <time>2009-07-31T10:26:01Z</time>
      </trkpt>
      <trkpt lat="43.38081010" lon="13.02589950">
        <ele>632.00000</ele>
        <time>2009-07-31T10:26:03Z</time>
      </trkpt>
      <trkpt lat="43.38081060" lon="13.02584820">
        <ele>632.00000</ele>
        <time>2009-07-31T10:26:04Z</time>
      </trkpt>
      <trkpt lat="43.38082280" lon="13.02582900">
        <ele>632.00000</ele>
        <time>2009-07-31T10:26:05Z</time>
      </trkpt>
      <trkpt lat="43.38082830" lon="13.02579540">
        <ele>632.00000</ele>
        <time>2009-07-31T10:26:06Z</time>
      </trkpt>
      <trkpt lat="43.38085370" lon="13.02576610">
        <ele>632.00000</ele>
        <time>2009-07-31T10:26:07Z</time>
      </trkpt>
      <trkpt lat="43.38087630" lon="13.02574660">
        <ele>632.00000</ele>
        <time>2009-07-31T10:26:08Z</time>
      </trkpt>
      <trkpt lat="43.38089440" lon="13.02572890">
        <ele>632.00000</ele>
        <time>2009-07-31T10:26:09Z</time>
      </trkpt>
      <trkpt lat="43.38090940" lon="13.02571390">
        <ele>632.00000</ele>
        <time>2009-07-31T10:26:10Z</time>
      </trkpt>
      <trkpt lat="43.38093250" lon="13.02569310">
        <ele>632.00000</ele>
        <time>2009-07-31T10:26:11Z</time>
      </trkpt>
      <trkpt lat="43.38096030" lon="13.02567200">
        <ele>632.00000</ele>
        <time>2009-07-31T10:26:12Z</time>
      </trkpt>
      <trkpt lat="43.38099390" lon="13.02566190">
        <ele>632.00000</ele>
        <time>2009-07-31T10:26:14Z</time>
      </trkpt>
      <trkpt lat="43.38101570" lon="13.02564420">
        <ele>632.00000</ele>
        <time>2009-07-31T10:26:15Z</time>
      </trkpt>
      <trkpt lat="43.38103700" lon="13.02562170">
        <ele>632.00000</ele>
        <time>2009-07-31T10:26:16Z</time>
      </trkpt>
      <trkpt lat="43.38106290" lon="13.02560470">
        <ele>632.00000</ele>
        <time>2009-07-31T10:26:17Z</time>
      </trkpt>
      <trkpt lat="43.38108770" lon="13.02558810">
        <ele>632.00000</ele>
        <time>2009-07-31T10:26:18Z</time>
      </trkpt>
      <trkpt lat="43.38110960" lon="13.02556140">
        <ele>632.00000</ele>
        <time>2009-07-31T10:26:19Z</time>
      </trkpt>
      <trkpt lat="43.38112070" lon="13.02553860">
        <ele>632.00000</ele>
        <time>2009-07-31T10:26:20Z</time>
      </trkpt>
      <trkpt lat="43.38112160" lon="13.02549780">
        <ele>632.00000</ele>
        <time>2009-07-31T10:26:21Z</time>
      </trkpt>
      <trkpt lat="43.38113020" lon="13.02550020">
        <ele>632.00000</ele>
        <time>2009-07-31T10:26:22Z</time>
      </trkpt>
      <trkpt lat="43.38113570" lon="13.02549470">
        <ele>632.00000</ele>
        <time>2009-07-31T10:26:22Z</time>
      </trkpt>
      <trkpt lat="43.38115880" lon="13.02548100">
        <ele>632.00000</ele>
        <time>2009-07-31T10:26:23Z</time>
      </trkpt>
      <trkpt lat="43.38118620" lon="13.02546900">
        <ele>632.00000</ele>
        <time>2009-07-31T10:26:24Z</time>
      </trkpt>
      <trkpt lat="43.38120670" lon="13.02544900">
        <ele>632.00000</ele>
        <time>2009-07-31T10:26:25Z</time>
      </trkpt>
      <trkpt lat="43.38122530" lon="13.02543220">
        <ele>632.00000</ele>
        <time>2009-07-31T10:26:26Z</time>
      </trkpt>
      <trkpt lat="43.38124180" lon="13.02540370">
        <ele>638.00000</ele>
        <time>2009-07-31T10:26:27Z</time>
      </trkpt>
      <trkpt lat="43.38127110" lon="13.02538130">
        <ele>628.00000</ele>
        <time>2009-07-31T10:26:28Z</time>
      </trkpt>
      <trkpt lat="43.38129650" lon="13.02536000">
        <ele>628.00000</ele>
        <time>2009-07-31T10:26:29Z</time>
      </trkpt>
      <trkpt lat="43.38131840" lon="13.02533670">
        <ele>628.00000</ele>
        <time>2009-07-31T10:26:31Z</time>
      </trkpt>
      <trkpt lat="43.38134120" lon="13.02531940">
        <ele>628.00000</ele>
        <time>2009-07-31T10:26:32Z</time>
      </trkpt>
      <trkpt lat="43.38136170" lon="13.02530550">
        <ele>628.00000</ele>
        <time>2009-07-31T10:26:33Z</time>
      </trkpt>
      <trkpt lat="43.38137670" lon="13.02529870">
        <ele>628.00000</ele>
        <time>2009-07-31T10:26:33Z</time>
      </trkpt>
      <trkpt lat="43.38141260" lon="13.02527060">
        <ele>628.00000</ele>
        <time>2009-07-31T10:26:35Z</time>
      </trkpt>
      <trkpt lat="43.38143140" lon="13.02524800">
        <ele>628.00000</ele>
        <time>2009-07-31T10:26:36Z</time>
      </trkpt>
      <trkpt lat="43.38146460" lon="13.02522010">
        <ele>628.00000</ele>
        <time>2009-07-31T10:26:37Z</time>
      </trkpt>
      <trkpt lat="43.38148420" lon="13.02520350">
        <ele>628.00000</ele>
        <time>2009-07-31T10:26:38Z</time>
      </trkpt>
      <trkpt lat="43.38150530" lon="13.02519080">
        <ele>628.00000</ele>
        <time>2009-07-31T10:26:39Z</time>
      </trkpt>
      <trkpt lat="43.38151310" lon="13.02516030">
        <ele>628.00000</ele>
        <time>2009-07-31T10:26:40Z</time>
      </trkpt>
      <trkpt lat="43.38152850" lon="13.02513800">
        <ele>628.00000</ele>
        <time>2009-07-31T10:26:41Z</time>
      </trkpt>
      <trkpt lat="43.38154610" lon="13.02511690">
        <ele>628.00000</ele>
        <time>2009-07-31T10:26:42Z</time>
      </trkpt>
      <trkpt lat="43.38156210" lon="13.02509430">
        <ele>628.00000</ele>
        <time>2009-07-31T10:26:43Z</time>
      </trkpt>
      <trkpt lat="43.38159640" lon="13.02505200">
        <ele>628.00000</ele>
        <time>2009-07-31T10:26:45Z</time>
      </trkpt>
      <trkpt lat="43.38161980" lon="13.02503000">
        <ele>628.00000</ele>
        <time>2009-07-31T10:26:46Z</time>
      </trkpt>
      <trkpt lat="43.38163390" lon="13.02501090">
        <ele>628.00000</ele>
        <time>2009-07-31T10:26:47Z</time>
      </trkpt>
      <trkpt lat="43.38165240" lon="13.02498650">
        <ele>628.00000</ele>
        <time>2009-07-31T10:26:48Z</time>
      </trkpt>
      <trkpt lat="43.38168730" lon="13.02498480">
        <ele>628.00000</ele>
        <time>2009-07-31T10:26:49Z</time>
      </trkpt>
      <trkpt lat="43.38170390" lon="13.02494650">
        <ele>628.00000</ele>
        <time>2009-07-31T10:26:50Z</time>
      </trkpt>
      <trkpt lat="43.38172100" lon="13.02492640">
        <ele>628.00000</ele>
        <time>2009-07-31T10:26:51Z</time>
      </trkpt>
      <trkpt lat="43.38173880" lon="13.02490100">
        <ele>628.00000</ele>
        <time>2009-07-31T10:26:52Z</time>
      </trkpt>
      <trkpt lat="43.38177050" lon="13.02488230">
        <ele>628.00000</ele>
        <time>2009-07-31T10:26:54Z</time>
      </trkpt>
      <trkpt lat="43.38179090" lon="13.02484570">
        <ele>628.00000</ele>
        <time>2009-07-31T10:26:55Z</time>
      </trkpt>
      <trkpt lat="43.38181740" lon="13.02482290">
        <ele>628.00000</ele>
        <time>2009-07-31T10:26:56Z</time>
      </trkpt>
      <trkpt lat="43.38183490" lon="13.02480580">
        <ele>628.00000</ele>
        <time>2009-07-31T10:26:57Z</time>
      </trkpt>
      <trkpt lat="43.38184990" lon="13.02479260">
        <ele>628.00000</ele>
        <time>2009-07-31T10:26:58Z</time>
      </trkpt>
      <trkpt lat="43.38187450" lon="13.02477640">
        <ele>628.00000</ele>
        <time>2009-07-31T10:26:59Z</time>
      </trkpt>
      <trkpt lat="43.38189530" lon="13.02475620">
        <ele>628.00000</ele>
        <time>2009-07-31T10:27:00Z</time>
      </trkpt>
      <trkpt lat="43.38190830" lon="13.02473580">
        <ele>628.00000</ele>
        <time>2009-07-31T10:27:01Z</time>
      </trkpt>
      <trkpt lat="43.38193040" lon="13.02472750">
        <ele>628.00000</ele>
        <time>2009-07-31T10:27:02Z</time>
      </trkpt>
      <trkpt lat="43.38194970" lon="13.02471580">
        <ele>628.00000</ele>
        <time>2009-07-31T10:27:03Z</time>
      </trkpt>
      <trkpt lat="43.38198420" lon="13.02470920">
        <ele>628.00000</ele>
        <time>2009-07-31T10:27:04Z</time>
      </trkpt>
      <trkpt lat="43.38200240" lon="13.02470430">
        <ele>628.00000</ele>
        <time>2009-07-31T10:27:05Z</time>
      </trkpt>
      <trkpt lat="43.38201180" lon="13.02468490">
        <ele>628.00000</ele>
        <time>2009-07-31T10:27:05Z</time>
      </trkpt>
      <trkpt lat="43.38203200" lon="13.02467330">
        <ele>628.00000</ele>
        <time>2009-07-31T10:27:06Z</time>
      </trkpt>
      <trkpt lat="43.38204540" lon="13.02465110">
        <ele>628.00000</ele>
        <time>2009-07-31T10:27:07Z</time>
      </trkpt>
      <trkpt lat="43.38206190" lon="13.02464430">
        <ele>628.00000</ele>
        <time>2009-07-31T10:27:08Z</time>
      </trkpt>
      <trkpt lat="43.38208510" lon="13.02463360">
        <ele>619.00000</ele>
        <time>2009-07-31T10:27:09Z</time>
      </trkpt>
      <trkpt lat="43.38210070" lon="13.02461860">
        <ele>619.00000</ele>
        <time>2009-07-31T10:27:09Z</time>
      </trkpt>
      <trkpt lat="43.38211840" lon="13.02461030">
        <ele>619.00000</ele>
        <time>2009-07-31T10:27:10Z</time>
      </trkpt>
      <trkpt lat="43.38214650" lon="13.02460470">
        <ele>619.00000</ele>
        <time>2009-07-31T10:27:11Z</time>
      </trkpt>
      <trkpt lat="43.38216230" lon="13.02458570">
        <ele>619.00000</ele>
        <time>2009-07-31T10:27:12Z</time>
      </trkpt>
      <trkpt lat="43.38218020" lon="13.02456780">
        <ele>636.00000</ele>
        <time>2009-07-31T10:27:13Z</time>
      </trkpt>
      <trkpt lat="43.38221070" lon="13.02456150">
        <ele>636.00000</ele>
        <time>2009-07-31T10:27:14Z</time>
      </trkpt>
      <trkpt lat="43.38223200" lon="13.02455140">
        <ele>636.00000</ele>
        <time>2009-07-31T10:27:15Z</time>
      </trkpt>
      <trkpt lat="43.38226450" lon="13.02454300">
        <ele>636.00000</ele>
        <time>2009-07-31T10:27:17Z</time>
      </trkpt>
      <trkpt lat="43.38229450" lon="13.02452510">
        <ele>636.00000</ele>
        <time>2009-07-31T10:27:18Z</time>
      </trkpt>
      <trkpt lat="43.38231000" lon="13.02451180">
        <ele>636.00000</ele>
        <time>2009-07-31T10:27:19Z</time>
      </trkpt>
      <trkpt lat="43.38232920" lon="13.02450560">
        <ele>636.00000</ele>
        <time>2009-07-31T10:27:19Z</time>
      </trkpt>
      <trkpt lat="43.38235190" lon="13.02449360">
        <ele>636.00000</ele>
        <time>2009-07-31T10:27:20Z</time>
      </trkpt>
      <trkpt lat="43.38237420" lon="13.02448930">
        <ele>636.00000</ele>
        <time>2009-07-31T10:27:21Z</time>
      </trkpt>
      <trkpt lat="43.38240940" lon="13.02447790">
        <ele>636.00000</ele>
        <time>2009-07-31T10:27:23Z</time>
      </trkpt>
      <trkpt lat="43.38244680" lon="13.02446750">
        <ele>636.00000</ele>
        <time>2009-07-31T10:27:24Z</time>
      </trkpt>
      <trkpt lat="43.38246960" lon="13.02445610">
        <ele>636.00000</ele>
        <time>2009-07-31T10:27:25Z</time>
      </trkpt>
      <trkpt lat="43.38248400" lon="13.02444240">
        <ele>636.00000</ele>
        <time>2009-07-31T10:27:26Z</time>
      </trkpt>
      <trkpt lat="43.38250960" lon="13.02444390">
        <ele>636.00000</ele>
        <time>2009-07-31T10:27:27Z</time>
      </trkpt>
      <trkpt lat="43.38253020" lon="13.02442620">
        <ele>636.00000</ele>
        <time>2009-07-31T10:27:28Z</time>
      </trkpt>
      <trkpt lat="43.38255090" lon="13.02440660">
        <ele>636.00000</ele>
        <time>2009-07-31T10:27:29Z</time>
      </trkpt>
      <trkpt lat="43.38256760" lon="13.02439540">
        <ele>636.00000</ele>
        <time>2009-07-31T10:27:30Z</time>
      </trkpt>
      <trkpt lat="43.38258770" lon="13.02438280">
        <ele>636.00000</ele>
        <time>2009-07-31T10:27:31Z</time>
      </trkpt>
      <trkpt lat="43.38261400" lon="13.02436250">
        <ele>636.00000</ele>
        <time>2009-07-31T10:27:32Z</time>
      </trkpt>
      <trkpt lat="43.38263440" lon="13.02435310">
        <ele>636.00000</ele>
        <time>2009-07-31T10:27:33Z</time>
      </trkpt>
      <trkpt lat="43.38265710" lon="13.02433790">
        <ele>636.00000</ele>
        <time>2009-07-31T10:27:34Z</time>
      </trkpt>
      <trkpt lat="43.38266300" lon="13.02430040">
        <ele>636.00000</ele>
        <time>2009-07-31T10:27:35Z</time>
      </trkpt>
      <trkpt lat="43.38270420" lon="13.02427520">
        <ele>636.00000</ele>
        <time>2009-07-31T10:27:37Z</time>
      </trkpt>
      <trkpt lat="43.38272670" lon="13.02426270">
        <ele>636.00000</ele>
        <time>2009-07-31T10:27:37Z</time>
      </trkpt>
      <trkpt lat="43.38275220" lon="13.02425610">
        <ele>636.00000</ele>
        <time>2009-07-31T10:27:39Z</time>
      </trkpt>
      <trkpt lat="43.38277950" lon="13.02424120">
        <ele>636.00000</ele>
        <time>2009-07-31T10:27:40Z</time>
      </trkpt>
      <trkpt lat="43.38280330" lon="13.02422430">
        <ele>636.00000</ele>
        <time>2009-07-31T10:27:41Z</time>
      </trkpt>
      <trkpt lat="43.38282350" lon="13.02420420">
        <ele>636.00000</ele>
        <time>2009-07-31T10:27:42Z</time>
      </trkpt>
      <trkpt lat="43.38283230" lon="13.02418750">
        <ele>636.00000</ele>
        <time>2009-07-31T10:27:42Z</time>
      </trkpt>
      <trkpt lat="43.38284620" lon="13.02415150">
        <ele>636.00000</ele>
        <time>2009-07-31T10:27:44Z</time>
      </trkpt>
      <trkpt lat="43.38286190" lon="13.02413540">
        <ele>636.00000</ele>
        <time>2009-07-31T10:27:44Z</time>
      </trkpt>
      <trkpt lat="43.38288920" lon="13.02412280">
        <ele>636.00000</ele>
        <time>2009-07-31T10:27:45Z</time>
      </trkpt>
      <trkpt lat="43.38292420" lon="13.02409460">
        <ele>627.00000</ele>
        <time>2009-07-31T10:27:47Z</time>
      </trkpt>
      <trkpt lat="43.38294240" lon="13.02406690">
        <ele>627.00000</ele>
        <time>2009-07-31T10:27:48Z</time>
      </trkpt>
      <trkpt lat="43.38296260" lon="13.02404560">
        <ele>627.00000</ele>
        <time>2009-07-31T10:27:49Z</time>
      </trkpt>
      <trkpt lat="43.38298910" lon="13.02402570">
        <ele>627.00000</ele>
        <time>2009-07-31T10:27:50Z</time>
      </trkpt>
      <trkpt lat="43.38300170" lon="13.02399610">
        <ele>627.00000</ele>
        <time>2009-07-31T10:27:51Z</time>
      </trkpt>
      <trkpt lat="43.38301700" lon="13.02397010">
        <ele>627.00000</ele>
        <time>2009-07-31T10:27:52Z</time>
      </trkpt>
      <trkpt lat="43.38303500" lon="13.02395100">
        <ele>627.00000</ele>
        <time>2009-07-31T10:27:53Z</time>
      </trkpt>
      <trkpt lat="43.38306190" lon="13.02393560">
        <ele>627.00000</ele>
        <time>2009-07-31T10:27:54Z</time>
      </trkpt>
      <trkpt lat="43.38308280" lon="13.02390440">
        <ele>627.00000</ele>
        <time>2009-07-31T10:27:56Z</time>
      </trkpt>
      <trkpt lat="43.38310250" lon="13.02387140">
        <ele>627.00000</ele>
        <time>2009-07-31T10:27:57Z</time>
      </trkpt>
      <trkpt lat="43.38312350" lon="13.02383700">
        <ele>627.00000</ele>
        <time>2009-07-31T10:27:58Z</time>
      </trkpt>
      <trkpt lat="43.38313480" lon="13.02380170">
        <ele>627.00000</ele>
        <time>2009-07-31T10:27:59Z</time>
      </trkpt>
      <trkpt lat="43.38315020" lon="13.02377260">
        <ele>627.00000</ele>
        <time>2009-07-31T10:28:00Z</time>
      </trkpt>
      <trkpt lat="43.38316340" lon="13.02373100">
        <ele>641.00000</ele>
        <time>2009-07-31T10:28:02Z</time>
      </trkpt>
      <trkpt lat="43.38318470" lon="13.02371500">
        <ele>641.00000</ele>
        <time>2009-07-31T10:28:03Z</time>
      </trkpt>
      <trkpt lat="43.38319320" lon="13.02370190">
        <ele>641.00000</ele>
        <time>2009-07-31T10:28:03Z</time>
      </trkpt>
      <trkpt lat="43.38321630" lon="13.02366530">
        <ele>641.00000</ele>
        <time>2009-07-31T10:28:05Z</time>
      </trkpt>
      <trkpt lat="43.38320660" lon="13.02355730">
        <ele>641.00000</ele>
        <time>2009-07-31T10:28:08Z</time>
      </trkpt>
      <trkpt lat="43.38322000" lon="13.02353420">
        <ele>641.00000</ele>
        <time>2009-07-31T10:28:09Z</time>
      </trkpt>
      <trkpt lat="43.38322240" lon="13.02349350">
        <ele>641.00000</ele>
        <time>2009-07-31T10:28:10Z</time>
      </trkpt>
      <trkpt lat="43.38322910" lon="13.02345520">
        <ele>641.00000</ele>
        <time>2009-07-31T10:28:11Z</time>
      </trkpt>
      <trkpt lat="43.38323620" lon="13.02343260">
        <ele>641.00000</ele>
        <time>2009-07-31T10:28:12Z</time>
      </trkpt>
      <trkpt lat="43.38323410" lon="13.02339300">
        <ele>641.00000</ele>
        <time>2009-07-31T10:28:13Z</time>
      </trkpt>
      <trkpt lat="43.38322480" lon="13.02335030">
        <ele>641.00000</ele>
        <time>2009-07-31T10:28:14Z</time>
      </trkpt>
      <trkpt lat="43.38321300" lon="13.02331980">
        <ele>641.00000</ele>
        <time>2009-07-31T10:28:15Z</time>
      </trkpt>
      <trkpt lat="43.38320540" lon="13.02330210">
        <ele>641.00000</ele>
        <time>2009-07-31T10:28:16Z</time>
      </trkpt>
      <trkpt lat="43.38320450" lon="13.02329860">
        <ele>641.00000</ele>
        <time>2009-07-31T10:28:16Z</time>
      </trkpt>
      <trkpt lat="43.38319630" lon="13.02329820">
        <ele>641.00000</ele>
        <time>2009-07-31T10:28:16Z</time>
      </trkpt>
      <trkpt lat="43.38319240" lon="13.02329680">
        <ele>641.00000</ele>
        <time>2009-07-31T10:28:16Z</time>
      </trkpt>
      <trkpt lat="43.38319330" lon="13.02329670">
        <ele>641.00000</ele>
        <time>2009-07-31T10:28:16Z</time>
      </trkpt>
      <trkpt lat="43.38319450" lon="13.02329680">
        <ele>641.00000</ele>
        <time>2009-07-31T10:28:16Z</time>
      </trkpt>
      <trkpt lat="43.38319580" lon="13.02329690">
        <ele>641.00000</ele>
        <time>2009-07-31T10:28:16Z</time>
      </trkpt>
      <trkpt lat="43.38319670" lon="13.02329700">
        <ele>641.00000</ele>
        <time>2009-07-31T10:28:17Z</time>
      </trkpt>
      <trkpt lat="43.38319630" lon="13.02329630">
        <ele>641.00000</ele>
        <time>2009-07-31T10:28:17Z</time>
      </trkpt>
      <trkpt lat="43.38319600" lon="13.02329540">
        <ele>641.00000</ele>
        <time>2009-07-31T10:28:17Z</time>
      </trkpt>
      <trkpt lat="43.38319710" lon="13.02329500">
        <ele>641.00000</ele>
        <time>2009-07-31T10:28:17Z</time>
      </trkpt>
      <trkpt lat="43.38321500" lon="13.02329260">
        <ele>641.00000</ele>
        <time>2009-07-31T10:28:17Z</time>
      </trkpt>
      <trkpt lat="43.38322840" lon="13.02328550">
        <ele>641.00000</ele>
        <time>2009-07-31T10:28:18Z</time>
      </trkpt>
      <trkpt lat="43.38323680" lon="13.02329120">
        <ele>641.00000</ele>
        <time>2009-07-31T10:28:18Z</time>
      </trkpt>
      <trkpt lat="43.38323410" lon="13.02327930">
        <ele>641.00000</ele>
        <time>2009-07-31T10:28:19Z</time>
      </trkpt>
      <trkpt lat="43.38322890" lon="13.02326500">
        <ele>641.00000</ele>
        <time>2009-07-31T10:28:19Z</time>
      </trkpt>
      <trkpt lat="43.38323050" lon="13.02326500">
        <ele>641.00000</ele>
        <time>2009-07-31T10:28:19Z</time>
      </trkpt>
      <trkpt lat="43.38322780" lon="13.02326380">
        <ele>641.00000</ele>
        <time>2009-07-31T10:28:19Z</time>
      </trkpt>
      <trkpt lat="43.38322760" lon="13.02325010">
        <ele>641.00000</ele>
        <time>2009-07-31T10:28:20Z</time>
      </trkpt>
      <trkpt lat="43.38324280" lon="13.02323420">
        <ele>641.00000</ele>
        <time>2009-07-31T10:28:20Z</time>
      </trkpt>
      <trkpt lat="43.38323550" lon="13.02321190">
        <ele>641.00000</ele>
        <time>2009-07-31T10:28:21Z</time>
      </trkpt>
      <trkpt lat="43.38322860" lon="13.02318250">
        <ele>641.00000</ele>
        <time>2009-07-31T10:28:22Z</time>
      </trkpt>
      <trkpt lat="43.38321120" lon="13.02316660">
        <ele>641.00000</ele>
        <time>2009-07-31T10:28:23Z</time>
      </trkpt>
      <trkpt lat="43.38321540" lon="13.02315120">
        <ele>641.00000</ele>
        <time>2009-07-31T10:28:23Z</time>
      </trkpt>
      <trkpt lat="43.38322030" lon="13.02313950">
        <ele>641.00000</ele>
        <time>2009-07-31T10:28:24Z</time>
      </trkpt>
      <trkpt lat="43.38322520" lon="13.02312500">
        <ele>641.00000</ele>
        <time>2009-07-31T10:28:24Z</time>
      </trkpt>
    </trkseg>
    <trkseg>
      <trkpt lat="43.38323560" lon="13.02310300">
        <ele>641.00000</ele>
        <time>2009-07-31T10:23:10Z</time>
      </trkpt>
      <trkpt lat="43.38323750" lon="13.02308980">
        <ele>641.00000</ele>
        <time>2009-07-31T10:23:10Z</time>
      </trkpt>
      <trkpt lat="43.38323630" lon="13.02302670">
        <ele>641.00000</ele>
        <time>2009-07-31T10:23:12Z</time>
      </trkpt>
      <trkpt lat="43.38323230" lon="13.02298730">
        <ele>641.00000</ele>
        <time>2009-07-31T10:23:13Z</time>
      </trkpt>
      <trkpt lat="43.38323420" lon="13.02297000">
        <ele>641.00000</ele>
        <time>2009-07-31T10:23:14Z</time>
      </trkpt>
      <trkpt lat="43.38324330" lon="13.02295870">
        <ele>641.00000</ele>
        <time>2009-07-31T10:23:14Z</time>
      </trkpt>
      <trkpt lat="43.38325010" lon="13.02293960">
        <ele>641.00000</ele>
        <time>2009-07-31T10:23:15Z</time>
      </trkpt>
      <trkpt lat="43.38325970" lon="13.02292610">
        <ele>641.00000</ele>
        <time>2009-07-31T10:23:15Z</time>
      </trkpt>
      <trkpt lat="43.38326140" lon="13.02288970">
        <ele>658.00000</ele>
        <time>2009-07-31T10:23:17Z</time>
      </trkpt>
      <trkpt lat="43.38325970" lon="13.02288500">
        <ele>658.00000</ele>
        <time>2009-07-31T10:23:17Z</time>
      </trkpt>
      <trkpt lat="43.38326310" lon="13.02286770">
        <ele>658.00000</ele>
        <time>2009-07-31T10:23:17Z</time>
      </trkpt>
      <trkpt lat="43.38326760" lon="13.02286810">
        <ele>658.00000</ele>
        <time>2009-07-31T10:23:17Z</time>
      </trkpt>
      <trkpt lat="43.38327110" lon="13.02286810">
        <ele>658.00000</ele>
        <time>2009-07-31T10:23:18Z</time>
      </trkpt>
      <trkpt lat="43.38327010" lon="13.02285650">
        <ele>658.00000</ele>
        <time>2009-07-31T10:23:18Z</time>
      </trkpt>
      <trkpt lat="43.38327870" lon="13.02284420">
        <ele>658.00000</ele>
        <time>2009-07-31T10:23:18Z</time>
      </trkpt>
      <trkpt lat="43.38329570" lon="13.02282100">
        <ele>658.00000</ele>
        <time>2009-07-31T10:23:19Z</time>
      </trkpt>
      <trkpt lat="43.38327980" lon="13.02275420">
        <ele>658.00000</ele>
        <time>2009-07-31T10:23:21Z</time>
      </trkpt>
      <trkpt lat="43.38327620" lon="13.02272950">
        <ele>658.00000</ele>
        <time>2009-07-31T10:23:22Z</time>
      </trkpt>
      <trkpt lat="43.38327610" lon="13.02272870">
        <ele>658.00000</ele>
        <time>2009-07-31T10:23:22Z</time>
      </trkpt>
      <trkpt lat="43.38327760" lon="13.02272780">
        <ele>658.00000</ele>
        <time>2009-07-31T10:23:22Z</time>
      </trkpt>
      <trkpt lat="43.38327820" lon="13.02272710">
        <ele>658.00000</ele>
        <time>2009-07-31T10:23:22Z</time>
      </trkpt>
      <trkpt lat="43.38327940" lon="13.02272650">
        <ele>658.00000</ele>
        <time>2009-07-31T10:23:22Z</time>
      </trkpt>
      <trkpt lat="43.38328270" lon="13.02272600">
        <ele>658.00000</ele>
        <time>2009-07-31T10:23:22Z</time>
      </trkpt>
      <trkpt lat="43.38329860" lon="13.02267630">
        <ele>658.00000</ele>
        <time>2009-07-31T10:23:24Z</time>
      </trkpt>
      <trkpt lat="43.38330610" lon="13.02263200">
        <ele>658.00000</ele>
        <time>2009-07-31T10:23:25Z</time>
      </trkpt>
      <trkpt lat="43.38330810" lon="13.02260360">
        <ele>658.00000</ele>
        <time>2009-07-31T10:23:26Z</time>
      </trkpt>
      <trkpt lat="43.38331580" lon="13.02257300">
        <ele>658.00000</ele>
        <time>2009-07-31T10:23:27Z</time>
      </trkpt>
      <trkpt lat="43.38332260" lon="13.02255620">
        <ele>658.00000</ele>
        <time>2009-07-31T10:23:28Z</time>
      </trkpt>
      <trkpt lat="43.38332770" lon="13.02253390">
        <ele>658.00000</ele>
        <time>2009-07-31T10:23:28Z</time>
      </trkpt>
      <trkpt lat="43.38335000" lon="13.02250520">
        <ele>658.00000</ele>
        <time>2009-07-31T10:23:30Z</time>
      </trkpt>
      <trkpt lat="43.38336840" lon="13.02247740">
        <ele>658.00000</ele>
        <time>2009-07-31T10:23:31Z</time>
      </trkpt>
      <trkpt lat="43.38338930" lon="13.02243720">
        <ele>658.00000</ele>
        <time>2009-07-31T10:23:32Z</time>
      </trkpt>
      <trkpt lat="43.38340550" lon="13.02241390">
        <ele>658.00000</ele>
        <time>2009-07-31T10:23:33Z</time>
      </trkpt>
      <trkpt lat="43.38341480" lon="13.02239470">
        <ele>658.00000</ele>
        <time>2009-07-31T10:23:34Z</time>
      </trkpt>
      <trkpt lat="43.38342590" lon="13.02237320">
        <ele>658.00000</ele>
        <time>2009-07-31T10:23:34Z</time>
      </trkpt>
      <trkpt lat="43.38343940" lon="13.02235620">
        <ele>658.00000</ele>
        <time>2009-07-31T10:23:35Z</time>
      </trkpt>
      <trkpt lat="43.38345830" lon="13.02234670">
        <ele>658.00000</ele>
        <time>2009-07-31T10:23:36Z</time>
      </trkpt>
      <trkpt lat="43.38348390" lon="13.02232140">
        <ele>658.00000</ele>
        <time>2009-07-31T10:23:37Z</time>
      </trkpt>
      <trkpt lat="43.38349520" lon="13.02230430">
        <ele>658.00000</ele>
        <time>2009-07-31T10:23:38Z</time>
      </trkpt>
      <trkpt lat="43.38349920" lon="13.02228260">
        <ele>658.00000</ele>
        <time>2009-07-31T10:23:39Z</time>
      </trkpt>
      <trkpt lat="43.38350420" lon="13.02227050">
        <ele>658.00000</ele>
        <time>2009-07-31T10:23:39Z</time>
      </trkpt>
      <trkpt lat="43.38351140" lon="13.02227230">
        <ele>658.00000</ele>
        <time>2009-07-31T10:23:39Z</time>
      </trkpt>
      <trkpt lat="43.38351580" lon="13.02227290">
        <ele>658.00000</ele>
        <time>2009-07-31T10:23:39Z</time>
      </trkpt>
      <trkpt lat="43.38352670" lon="13.02225900">
        <ele>658.00000</ele>
        <time>2009-07-31T10:23:40Z</time>
      </trkpt>
      <trkpt lat="43.38354170" lon="13.02222290">
        <ele>658.00000</ele>
        <time>2009-07-31T10:23:41Z</time>
      </trkpt>
      <trkpt lat="43.38355520" lon="13.02221560">
        <ele>658.00000</ele>
        <time>2009-07-31T10:23:42Z</time>
      </trkpt>
      <trkpt lat="43.38356510" lon="13.02221830">
        <ele>658.00000</ele>
        <time>2009-07-31T10:23:42Z</time>
      </trkpt>
      <trkpt lat="43.38358280" lon="13.02222420">
        <ele>658.00000</ele>
        <time>2009-07-31T10:23:43Z</time>
      </trkpt>
      <trkpt lat="43.38360270" lon="13.02222130">
        <ele>658.00000</ele>
        <time>2009-07-31T10:23:44Z</time>
      </trkpt>
      <trkpt lat="43.38362010" lon="13.02221520">
        <ele>658.00000</ele>
        <time>2009-07-31T10:23:44Z</time>
      </trkpt>
      <trkpt lat="43.38363800" lon="13.02221240">
        <ele>658.00000</ele>
        <time>2009-07-31T10:23:45Z</time>
      </trkpt>
      <trkpt lat="43.38366430" lon="13.02222260">
        <ele>658.00000</ele>
        <time>2009-07-31T10:23:46Z</time>
      </trkpt>
      <trkpt lat="43.38369520" lon="13.02219720">
        <ele>658.00000</ele>
        <time>2009-07-31T10:23:48Z</time>
      </trkpt>
      <trkpt lat="43.38372160" lon="13.02218700">
        <ele>658.00000</ele>
        <time>2009-07-31T10:23:49Z</time>
      </trkpt>
      <trkpt lat="43.38374230" lon="13.02218600">
        <ele>658.00000</ele>
        <time>2009-07-31T10:23:50Z</time>
      </trkpt>
      <trkpt lat="43.38375490" lon="13.02219180">
        <ele>654.00000</ele>
        <time>2009-07-31T10:23:50Z</time>
      </trkpt>
      <trkpt lat="43.38377420" lon="13.02222150">
        <ele>654.00000</ele>
        <time>2009-07-31T10:23:51Z</time>
      </trkpt>
      <trkpt lat="43.38379690" lon="13.02223020">
        <ele>654.00000</ele>
        <time>2009-07-31T10:23:52Z</time>
      </trkpt>
      <trkpt lat="43.38381730" lon="13.02223080">
        <ele>654.00000</ele>
        <time>2009-07-31T10:23:53Z</time>
      </trkpt>
      <trkpt lat="43.38382580" lon="13.02223660">
        <ele>654.00000</ele>
        <time>2009-07-31T10:23:53Z</time>
      </trkpt>
      <trkpt lat="43.38383820" lon="13.02223420">
        <ele>654.00000</ele>
        <time>2009-07-31T10:23:54Z</time>
      </trkpt>
      <trkpt lat="43.38384710" lon="13.02223010">
        <ele>654.00000</ele>
        <time>2009-07-31T10:23:54Z</time>
      </trkpt>
      <trkpt lat="43.38386780" lon="13.02222220">
        <ele>654.00000</ele>
        <time>2009-07-31T10:23:55Z</time>
      </trkpt>
      <trkpt lat="43.38387320" lon="13.02224280">
        <ele>654.00000</ele>
        <time>2009-07-31T10:23:56Z</time>
      </trkpt>
      <trkpt lat="43.38388440" lon="13.02223370">
        <ele>654.00000</ele>
        <time>2009-07-31T10:23:56Z</time>
      </trkpt>
      <trkpt lat="43.38389120" lon="13.02223200">
        <ele>654.00000</ele>
        <time>2009-07-31T10:23:57Z</time>
      </trkpt>
      <trkpt lat="43.38391710" lon="13.02222870">
        <ele>654.00000</ele>
        <time>2009-07-31T10:23:58Z</time>
      </trkpt>
      <trkpt lat="43.38393020" lon="13.02220570">
        <ele>654.00000</ele>
        <time>2009-07-31T10:23:59Z</time>
      </trkpt>
      <trkpt lat="43.38394200" lon="13.02221850">
        <ele>654.00000</ele>
        <time>2009-07-31T10:23:59Z</time>
      </trkpt>
      <trkpt lat="43.38395620" lon="13.02221100">
        <ele>654.00000</ele>
        <time>2009-07-31T10:24:00Z</time>
      </trkpt>
      <trkpt lat="43.38395940" lon="13.02219560">
        <ele>654.00000</ele>
        <time>2009-07-31T10:24:00Z</time>
      </trkpt>
      <trkpt lat="43.38397870" lon="13.02219150">
        <ele>654.00000</ele>
        <time>2009-07-31T10:24:01Z</time>
      </trkpt>
      <trkpt lat="43.38399300" lon="13.02218480">
        <ele>654.00000</ele>
        <time>2009-07-31T10:24:02Z</time>
      </trkpt>
      <trkpt lat="43.38400560" lon="13.02216810">
        <ele>654.00000</ele>
        <time>2009-07-31T10:24:02Z</time>
      </trkpt>
      <trkpt lat="43.38401620" lon="13.02215500">
        <ele>654.00000</ele>
        <time>2009-07-31T10:24:03Z</time>
      </trkpt>
      <trkpt lat="43.38403400" lon="13.02214240">
        <ele>654.00000</ele>
        <time>2009-07-31T10:24:04Z</time>
      </trkpt>
      <trkpt lat="43.38403070" lon="13.02213850">
        <ele>654.00000</ele>
        <time>2009-07-31T10:24:04Z</time>
      </trkpt>
      <trkpt lat="43.38404520" lon="13.02212650">
        <ele>654.00000</ele>
        <time>2009-07-31T10:24:05Z</time>
      </trkpt>
      <trkpt lat="43.38405150" lon="13.02212510">
        <ele>654.00000</ele>
        <time>2009-07-31T10:24:05Z</time>
      </trkpt>
      <trkpt lat="43.38406330" lon="13.02209780">
        <ele>654.00000</ele>
        <time>2009-07-31T10:24:06Z</time>
      </trkpt>
      <trkpt lat="43.38407250" lon="13.02209230">
        <ele>654.00000</ele>
        <time>2009-07-31T10:24:06Z</time>
      </trkpt>
      <trkpt lat="43.38409670" lon="13.02205220">
        <ele>679.00000</ele>
        <time>2009-07-31T10:24:08Z</time>
      </trkpt>
      <trkpt lat="43.38410820" lon="13.02203010">
        <ele>679.00000</ele>
        <time>2009-07-31T10:24:08Z</time>
      </trkpt>
      <trkpt lat="43.38412080" lon="13.02200860">
        <ele>679.00000</ele>
        <time>2009-07-31T10:24:09Z</time>
      </trkpt>
      <trkpt lat="43.38412700" lon="13.02195840">
        <ele>679.00000</ele>
        <time>2009-07-31T10:24:11Z</time>
      </trkpt>
      <trkpt lat="43.38413840" lon="13.02195930">
        <ele>679.00000</ele>
        <time>2009-07-31T10:24:11Z</time>
      </trkpt>
      <trkpt lat="43.38417560" lon="13.02196820">
        <ele>679.00000</ele>
        <time>2009-07-31T10:24:13Z</time>
      </trkpt>
      <trkpt lat="43.38417880" lon="13.02195430">
        <ele>679.00000</ele>
        <time>2009-07-31T10:24:13Z</time>
      </trkpt>
      <trkpt lat="43.38419060" lon="13.02195780">
        <ele>679.00000</ele>
        <time>2009-07-31T10:24:14Z</time>
      </trkpt>
      <trkpt lat="43.38420860" lon="13.02195840">
        <ele>679.00000</ele>
        <time>2009-07-31T10:24:14Z</time>
      </trkpt>
      <trkpt lat="43.38423120" lon="13.02195320">
        <ele>679.00000</ele>
        <time>2009-07-31T10:24:15Z</time>
      </trkpt>
      <trkpt lat="43.38424930" lon="13.02192540">
        <ele>679.00000</ele>
        <time>2009-07-31T10:24:16Z</time>
      </trkpt>
      <trkpt lat="43.38425080" lon="13.02192420">
        <ele>679.00000</ele>
        <time>2009-07-31T10:24:16Z</time>
      </trkpt>
      <trkpt lat="43.38426300" lon="13.02190380">
        <ele>679.00000</ele>
        <time>2009-07-31T10:24:17Z</time>
      </trkpt>
      <trkpt lat="43.38427080" lon="13.02189190">
        <ele>679.00000</ele>
        <time>2009-07-31T10:24:18Z</time>
      </trkpt>
      <trkpt lat="43.38429070" lon="13.02188550">
        <ele>679.00000</ele>
        <time>2009-07-31T10:24:18Z</time>
      </trkpt>
      <trkpt lat="43.38429050" lon="13.02186280">
        <ele>679.00000</ele>
        <time>2009-07-31T10:24:19Z</time>
      </trkpt>
      <trkpt lat="43.38430110" lon="13.02185300">
        <ele>679.00000</ele>
        <time>2009-07-31T10:24:20Z</time>
      </trkpt>
      <trkpt lat="43.38430940" lon="13.02182070">
        <ele>679.00000</ele>
        <time>2009-07-31T10:24:21Z</time>
      </trkpt>
      <trkpt lat="43.38432580" lon="13.02180820">
        <ele>679.00000</ele>
        <time>2009-07-31T10:24:21Z</time>
      </trkpt>
      <trkpt lat="43.38434150" lon="13.02179340">
        <ele>679.00000</ele>
        <time>2009-07-31T10:24:22Z</time>
      </trkpt>
      <trkpt lat="43.38435090" lon="13.02177430">
        <ele>679.00000</ele>
        <time>2009-07-31T10:24:23Z</time>
      </trkpt>
      <trkpt lat="43.38435970" lon="13.02176030">
        <ele>679.00000</ele>
        <time>2009-07-31T10:24:23Z</time>
      </trkpt>
      <trkpt lat="43.38436980" lon="13.02175390">
        <ele>679.00000</ele>
        <time>2009-07-31T10:24:24Z</time>
      </trkpt>
      <trkpt lat="43.38438290" lon="13.02173070">
        <ele>679.00000</ele>
        <time>2009-07-31T10:24:25Z</time>
      </trkpt>
      <trkpt lat="43.38439050" lon="13.02172320">
        <ele>679.00000</ele>
        <time>2009-07-31T10:24:25Z</time>
      </trkpt>
      <trkpt lat="43.38439100" lon="13.02169990">
        <ele>679.00000</ele>
        <time>2009-07-31T10:24:26Z</time>
      </trkpt>
      <trkpt lat="43.38439960" lon="13.02169270">
        <ele>679.00000</ele>
        <time>2009-07-31T10:24:26Z</time>
      </trkpt>
      <trkpt lat="43.38440210" lon="13.02167560">
        <ele>679.00000</ele>
        <time>2009-07-31T10:24:27Z</time>
      </trkpt>
      <trkpt lat="43.38440710" lon="13.02167110">
        <ele>679.00000</ele>
        <time>2009-07-31T10:24:27Z</time>
      </trkpt>
      <trkpt lat="43.38441660" lon="13.02164770">
        <ele>679.00000</ele>
        <time>2009-07-31T10:24:28Z</time>
      </trkpt>
      <trkpt lat="43.38442010" lon="13.02163580">
        <ele>679.00000</ele>
        <time>2009-07-31T10:24:28Z</time>
      </trkpt>
      <trkpt lat="43.38443300" lon="13.02162910">
        <ele>679.00000</ele>
        <time>2009-07-31T10:24:28Z</time>
      </trkpt>
      <trkpt lat="43.38443910" lon="13.02163160">
        <ele>679.00000</ele>
        <time>2009-07-31T10:24:29Z</time>
      </trkpt>
      <trkpt lat="43.38443850" lon="13.02161570">
        <ele>679.00000</ele>
        <time>2009-07-31T10:24:29Z</time>
      </trkpt>
      <trkpt lat="43.38443250" lon="13.02159190">
        <ele>679.00000</ele>
        <time>2009-07-31T10:24:30Z</time>
      </trkpt>
      <trkpt lat="43.38444340" lon="13.02157600">
        <ele>679.00000</ele>
        <time>2009-07-31T10:24:31Z</time>
      </trkpt>
      <trkpt lat="43.38445350" lon="13.02156500">
        <ele>679.00000</ele>
        <time>2009-07-31T10:24:31Z</time>
      </trkpt>
      <trkpt lat="43.38446300" lon="13.02155760">
        <ele>679.00000</ele>
        <time>2009-07-31T10:24:32Z</time>
      </trkpt>
      <trkpt lat="43.38446980" lon="13.02155370">
        <ele>679.00000</ele>
        <time>2009-07-31T10:24:32Z</time>
      </trkpt>
      <trkpt lat="43.38447900" lon="13.02154820">
        <ele>679.00000</ele>
        <time>2009-07-31T10:24:32Z</time>
      </trkpt>
      <trkpt lat="43.38449900" lon="13.02154150">
        <ele>679.00000</ele>
        <time>2009-07-31T10:24:33Z</time>
      </trkpt>
      <trkpt lat="43.38450990" lon="13.02153940">
        <ele>679.00000</ele>
        <time>2009-07-31T10:24:33Z</time>
      </trkpt>
      <trkpt lat="43.38452380" lon="13.02152480">
        <ele>679.00000</ele>
        <time>2009-07-31T10:24:34Z</time>
      </trkpt>
      <trkpt lat="43.38454610" lon="13.02151040">
        <ele>679.00000</ele>
        <time>2009-07-31T10:24:35Z</time>
      </trkpt>
      <trkpt lat="43.38456560" lon="13.02149490">
        <ele>679.00000</ele>
        <time>2009-07-31T10:24:36Z</time>
      </trkpt>
      <trkpt lat="43.38458180" lon="13.02148400">
        <ele>679.00000</ele>
        <time>2009-07-31T10:24:37Z</time>
      </trkpt>
      <trkpt lat="43.38459430" lon="13.02147490">
        <ele>665.00000</ele>
        <time>2009-07-31T10:24:37Z</time>
      </trkpt>
      <trkpt lat="43.38460840" lon="13.02146180">
        <ele>665.00000</ele>
        <time>2009-07-31T10:24:38Z</time>
      </trkpt>
      <trkpt lat="43.38461140" lon="13.02142850">
        <ele>665.00000</ele>
        <time>2009-07-31T10:24:39Z</time>
      </trkpt>
      <trkpt lat="43.38462260" lon="13.02141010">
        <ele>665.00000</ele>
        <time>2009-07-31T10:24:40Z</time>
      </trkpt>
      <trkpt lat="43.38465340" lon="13.02137700">
        <ele>665.00000</ele>
        <time>2009-07-31T10:24:41Z</time>
      </trkpt>
      <trkpt lat="43.38466150" lon="13.02136350">
        <ele>665.00000</ele>
        <time>2009-07-31T10:24:42Z</time>
      </trkpt>
      <trkpt lat="43.38467840" lon="13.02135250">
        <ele>665.00000</ele>
        <time>2009-07-31T10:24:43Z</time>
      </trkpt>
      <trkpt lat="43.38469480" lon="13.02134460">
        <ele>665.00000</ele>
        <time>2009-07-31T10:24:43Z</time>
      </trkpt>
      <trkpt lat="43.38472180" lon="13.02131980">
        <ele>665.00000</ele>
        <time>2009-07-31T10:24:45Z</time>
      </trkpt>
      <trkpt lat="43.38474360" lon="13.02131750">
        <ele>665.00000</ele>
        <time>2009-07-31T10:24:45Z</time>
      </trkpt>
      <trkpt lat="43.38476520" lon="13.02131480">
        <ele>665.00000</ele>
        <time>2009-07-31T10:24:46Z</time>
      </trkpt>
      <trkpt lat="43.38479220" lon="13.02126450">
        <ele>665.00000</ele>
        <time>2009-07-31T10:24:48Z</time>
      </trkpt>
      <trkpt lat="43.38481410" lon="13.02125130">
        <ele>665.00000</ele>
        <time>2009-07-31T10:24:49Z</time>
      </trkpt>
      <trkpt lat="43.38484410" lon="13.02124400">
        <ele>694.00000</ele>
        <time>2009-07-31T10:24:50Z</time>
      </trkpt>
      <trkpt lat="43.38486380" lon="13.02123320">
        <ele>694.00000</ele>
        <time>2009-07-31T10:24:51Z</time>
      </trkpt>
      <trkpt lat="43.38487480" lon="13.02122900">
        <ele>694.00000</ele>
        <time>2009-07-31T10:24:52Z</time>
      </trkpt>
      <trkpt lat="43.38489620" lon="13.02121400">
        <ele>694.00000</ele>
        <time>2009-07-31T10:24:53Z</time>
      </trkpt>
      <trkpt lat="43.38491820" lon="13.02118560">
        <ele>694.00000</ele>
        <time>2009-07-31T10:24:54Z</time>
      </trkpt>
      <trkpt lat="43.38494370" lon="13.02118620">
        <ele>694.00000</ele>
        <time>2009-07-31T10:24:55Z</time>
      </trkpt>
      <trkpt lat="43.38496150" lon="13.02118720">
        <ele>694.00000</ele>
        <time>2009-07-31T10:24:55Z</time>
      </trkpt>
      <trkpt lat="43.38499510" lon="13.02118220">
        <ele>694.00000</ele>
        <time>2009-07-31T10:24:57Z</time>
      </trkpt>
      <trkpt lat="43.38501280" lon="13.02115870">
        <ele>694.00000</ele>
        <time>2009-07-31T10:24:58Z</time>
      </trkpt>
      <trkpt lat="43.38503740" lon="13.02112750">
        <ele>694.00000</ele>
        <time>2009-07-31T10:24:59Z</time>
      </trkpt>
      <trkpt lat="43.38505670" lon="13.02110860">
        <ele>694.00000</ele>
        <time>2009-07-31T10:25:00Z</time>
      </trkpt>
      <trkpt lat="43.38508230" lon="13.02110500">
        <ele>694.00000</ele>
        <time>2009-07-31T10:25:01Z</time>
      </trkpt>
      <trkpt lat="43.38510000" lon="13.02110050">
        <ele>694.00000</ele>
        <time>2009-07-31T10:25:02Z</time>
      </trkpt>
      <trkpt lat="43.38512160" lon="13.02108410">
        <ele>694.00000</ele>
        <time>2009-07-31T10:25:03Z</time>
      </trkpt>
      <trkpt lat="43.38514550" lon="13.02107190">
        <ele>694.00000</ele>
        <time>2009-07-31T10:25:04Z</time>
      </trkpt>
      <trkpt lat="43.38516070" lon="13.02105480">
        <ele>694.00000</ele>
        <time>2009-07-31T10:25:05Z</time>
      </trkpt>
      <trkpt lat="43.38517410" lon="13.02102910">
        <ele>694.00000</ele>
        <time>2009-07-31T10:25:06Z</time>
      </trkpt>
      <trkpt lat="43.38517860" lon="13.02100570">
        <ele>694.00000</ele>
        <time>2009-07-31T10:25:06Z</time>
      </trkpt>
      <trkpt lat="43.38518690" lon="13.02098400">
        <ele>694.00000</ele>
        <time>2009-07-31T10:25:07Z</time>
      </trkpt>
      <trkpt lat="43.38519370" lon="13.02094940">
        <ele>694.00000</ele>
        <time>2009-07-31T10:25:08Z</time>
      </trkpt>
      <trkpt lat="43.38520780" lon="13.02091830">
        <ele>694.00000</ele>
        <time>2009-07-31T10:25:09Z</time>
      </trkpt>
      <trkpt lat="43.38522300" lon="13.02090050">
        <ele>694.00000</ele>
        <time>2009-07-31T10:25:10Z</time>
      </trkpt>
      <trkpt lat="43.38523670" lon="13.02088600">
        <ele>694.00000</ele>
        <time>2009-07-31T10:25:11Z</time>
      </trkpt>
      <trkpt lat="43.38525420" lon="13.02086950">
        <ele>694.00000</ele>
        <time>2009-07-31T10:25:11Z</time>
      </trkpt>
      <trkpt lat="43.38526390" lon="13.02085390">
        <ele>694.00000</ele>
        <time>2009-07-31T10:25:12Z</time>
      </trkpt>
      <trkpt lat="43.38529540" lon="13.02083540">
        <ele>694.00000</ele>
        <time>2009-07-31T10:25:13Z</time>
      </trkpt>
      <trkpt lat="43.38531350" lon="13.02082010">
        <ele>694.00000</ele>
        <time>2009-07-31T10:25:14Z</time>
      </trkpt>
      <trkpt lat="43.38532660" lon="13.02079300">
        <ele>694.00000</ele>
        <time>2009-07-31T10:25:15Z</time>
      </trkpt>
      <trkpt lat="43.38533390" lon="13.02076810">
        <ele>694.00000</ele>
        <time>2009-07-31T10:25:16Z</time>
      </trkpt>
      <trkpt lat="43.38534830" lon="13.02074500">
        <ele>694.00000</ele>
        <time>2009-07-31T10:25:17Z</time>
      </trkpt>
      <trkpt lat="43.38536270" lon="13.02072980">
        <ele>694.00000</ele>
        <time>2009-07-31T10:25:18Z</time>
      </trkpt>
      <trkpt lat="43.38537510" lon="13.02071270">
        <ele>694.00000</ele>
        <time>2009-07-31T10:25:18Z</time>
      </trkpt>
      <trkpt lat="43.38537030" lon="13.02068130">
        <ele>694.00000</ele>
        <time>2009-07-31T10:25:19Z</time>
      </trkpt>
      <trkpt lat="43.38537030" lon="13.02065620">
        <ele>694.00000</ele>
        <time>2009-07-31T10:25:20Z</time>
      </trkpt>
      <trkpt lat="43.38537950" lon="13.02062000">
        <ele>694.00000</ele>
        <time>2009-07-31T10:25:21Z</time>
      </trkpt>
      <trkpt lat="43.38538750" lon="13.02060700">
        <ele>694.00000</ele>
        <time>2009-07-31T10:25:22Z</time>
      </trkpt>
      <trkpt lat="43.38540430" lon="13.02059220">
        <ele>694.00000</ele>
        <time>2009-07-31T10:25:22Z</time>
      </trkpt>
      <trkpt lat="43.38541320" lon="13.02058060">
        <ele>694.00000</ele>
        <time>2009-07-31T10:25:23Z</time>
      </trkpt>
      <trkpt lat="43.38542800" lon="13.02056540">
        <ele>688.00000</ele>
        <time>2009-07-31T10:25:24Z</time>
      </trkpt>
      <trkpt lat="43.38543980" lon="13.02054520">
        <ele>688.00000</ele>
        <time>2009-07-31T10:25:24Z</time>
      </trkpt>
      <trkpt lat="43.38544550" lon="13.02052790">
        <ele>688.00000</ele>
        <time>2009-07-31T10:25:25Z</time>
      </trkpt>
      <trkpt lat="43.38546240" lon="13.02052400">
        <ele>688.00000</ele>
        <time>2009-07-31T10:25:26Z</time>
      </trkpt>
      <trkpt lat="43.38547050" lon="13.02052190">
        <ele>688.00000</ele>
        <time>2009-07-31T10:25:26Z</time>
      </trkpt>
      <trkpt lat="43.38548230" lon="13.02050610">
        <ele>688.00000</ele>
        <time>2009-07-31T10:25:27Z</time>
      </trkpt>
      <trkpt lat="43.38547550" lon="13.02049500">
        <ele>688.00000</ele>
        <time>2009-07-31T10:25:27Z</time>
      </trkpt>
      <trkpt lat="43.38547860" lon="13.02049530">
        <ele>688.00000</ele>
        <time>2009-07-31T10:25:27Z</time>
      </trkpt>
      <trkpt lat="43.38548260" lon="13.02049610">
        <ele>688.00000</ele>
        <time>2009-07-31T10:25:27Z</time>
      </trkpt>
      <trkpt lat="43.38548830" lon="13.02050240">
        <ele>688.00000</ele>
        <time>2009-07-31T10:25:28Z</time>
      </trkpt>
      <trkpt lat="43.38549250" lon="13.02049920">
        <ele>688.00000</ele>
        <time>2009-07-31T10:25:28Z</time>
      </trkpt>
      <trkpt lat="43.38549640" lon="13.02050030">
        <ele>688.00000</ele>
        <time>2009-07-31T10:25:28Z</time>
      </trkpt>
      <trkpt lat="43.38551320" lon="13.02049680">
        <ele>688.00000</ele>
        <time>2009-07-31T10:25:29Z</time>
      </trkpt>
      <trkpt lat="43.38553930" lon="13.02048720">
        <ele>688.00000</ele>
        <time>2009-07-31T10:25:30Z</time>
      </trkpt>
      <trkpt lat="43.38554150" lon="13.02049020">
        <ele>688.00000</ele>
        <time>2009-07-31T10:25:30Z</time>
      </trkpt>
      <trkpt lat="43.38554160" lon="13.02049410">
        <ele>688.00000</ele>
        <time>2009-07-31T10:25:30Z</time>
      </trkpt>
      <trkpt lat="43.38554770" lon="13.02049310">
        <ele>688.00000</ele>
        <time>2009-07-31T10:25:30Z</time>
      </trkpt>
      <trkpt lat="43.38555890" lon="13.02050800">
        <ele>688.00000</ele>
        <time>2009-07-31T10:25:31Z</time>
      </trkpt>
      <trkpt lat="43.38557530" lon="13.02051980">
        <ele>688.00000</ele>
        <time>2009-07-31T10:25:32Z</time>
      </trkpt>
      <trkpt lat="43.38559730" lon="13.02052970">
        <ele>688.00000</ele>
        <time>2009-07-31T10:25:32Z</time>
      </trkpt>
      <trkpt lat="43.38562300" lon="13.02054370">
        <ele>688.00000</ele>
        <time>2009-07-31T10:25:34Z</time>
      </trkpt>
      <trkpt lat="43.38564710" lon="13.02056360">
        <ele>688.00000</ele>
        <time>2009-07-31T10:25:35Z</time>
      </trkpt>
      <trkpt lat="43.38565400" lon="13.02059320">
        <ele>688.00000</ele>
        <time>2009-07-31T10:25:36Z</time>
      </trkpt>
      <trkpt lat="43.38567220" lon="13.02062730">
        <ele>688.00000</ele>
        <time>2009-07-31T10:25:37Z</time>
      </trkpt>
      <trkpt lat="43.38568850" lon="13.02066700">
        <ele>688.00000</ele>
        <time>2009-07-31T10:25:38Z</time>
      </trkpt>
      <trkpt lat="43.38570880" lon="13.02069440">
        <ele>688.00000</ele>
        <time>2009-07-31T10:25:39Z</time>
      </trkpt>
      <trkpt lat="43.38571870" lon="13.02071700">
        <ele>688.00000</ele>
        <time>2009-07-31T10:25:40Z</time>
      </trkpt>
      <trkpt lat="43.38573160" lon="13.02075080">
        <ele>688.00000</ele>
        <time>2009-07-31T10:25:41Z</time>
      </trkpt>
      <trkpt lat="43.38576820" lon="13.02076420">
        <ele>688.00000</ele>
        <time>2009-07-31T10:25:43Z</time>
      </trkpt>
      <trkpt lat="43.38580070" lon="13.02079670">
        <ele>688.00000</ele>
        <time>2009-07-31T10:25:44Z</time>
      </trkpt>
      <trkpt lat="43.38581450" lon="13.02080880">
        <ele>688.00000</ele>
        <time>2009-07-31T10:25:45Z</time>
      </trkpt>
      <trkpt lat="43.38583070" lon="13.02082500">
        <ele>688.00000</ele>
        <time>2009-07-31T10:25:46Z</time>
      </trkpt>
      <trkpt lat="43.38584540" lon="13.02083210">
        <ele>688.00000</ele>
        <time>2009-07-31T10:25:46Z</time>
      </trkpt>
      <trkpt lat="43.38584650" lon="13.02085210">
        <ele>688.00000</ele>
        <time>2009-07-31T10:25:47Z</time>
      </trkpt>
      <trkpt lat="43.38585720" lon="13.02086220">
        <ele>688.00000</ele>
        <time>2009-07-31T10:25:47Z</time>
      </trkpt>
      <trkpt lat="43.38586320" lon="13.02087650">
        <ele>688.00000</ele>
        <time>2009-07-31T10:25:48Z</time>
      </trkpt>
      <trkpt lat="43.38589430" lon="13.02090870">
        <ele>688.00000</ele>
        <time>2009-07-31T10:25:50Z</time>
      </trkpt>
      <trkpt lat="43.38590850" lon="13.02091690">
        <ele>688.00000</ele>
        <time>2009-07-31T10:25:50Z</time>
      </trkpt>
      <trkpt lat="43.38591820" lon="13.02093710">
        <ele>688.00000</ele>
        <time>2009-07-31T10:25:51Z</time>
      </trkpt>
      <trkpt lat="43.38593820" lon="13.02095340">
        <ele>688.00000</ele>
        <time>2009-07-31T10:25:52Z</time>
      </trkpt>
      <trkpt lat="43.38595950" lon="13.02098100">
        <ele>688.00000</ele>
        <time>2009-07-31T10:25:53Z</time>
      </trkpt>
      <trkpt lat="43.38594660" lon="13.02099680">
        <ele>688.00000</ele>
        <time>2009-07-31T10:25:54Z</time>
      </trkpt>
      <trkpt lat="43.38595440" lon="13.02101490">
        <ele>688.00000</ele>
        <time>2009-07-31T10:25:54Z</time>
      </trkpt>
      <trkpt lat="43.38597240" lon="13.02104700">
        <ele>688.00000</ele>
        <time>2009-07-31T10:25:55Z</time>
      </trkpt>
      <trkpt lat="43.38598210" lon="13.02106660">
        <ele>688.00000</ele>
        <time>2009-07-31T10:25:56Z</time>
      </trkpt>
      <trkpt lat="43.38600100" lon="13.02108510">
        <ele>688.00000</ele>
        <time>2009-07-31T10:25:57Z</time>
      </trkpt>
      <trkpt lat="43.38603000" lon="13.02108890">
        <ele>688.00000</ele>
        <time>2009-07-31T10:25:58Z</time>
      </trkpt>
      <trkpt lat="43.38605190" lon="13.02110390">
        <ele>688.00000</ele>
        <time>2009-07-31T10:25:59Z</time>
      </trkpt>
      <trkpt lat="43.38605370" lon="13.02113180">
        <ele>688.00000</ele>
        <time>2009-07-31T10:26:00Z</time>
      </trkpt>
      <trkpt lat="43.38607580" lon="13.02114470">
        <ele>688.00000</ele>
        <time>2009-07-31T10:26:01Z</time>
      </trkpt>
      <trkpt lat="43.38609640" lon="13.02117550">
        <ele>688.00000</ele>
        <time>2009-07-31T10:26:02Z</time>
      </trkpt>
      <trkpt lat="43.38612220" lon="13.02120550">
        <ele>688.00000</ele>
        <time>2009-07-31T10:26:04Z</time>
      </trkpt>
      <trkpt lat="43.38616010" lon="13.02120900">
        <ele>688.00000</ele>
        <time>2009-07-31T10:26:05Z</time>
      </trkpt>
      <trkpt lat="43.38618900" lon="13.02122350">
        <ele>688.00000</ele>
        <time>2009-07-31T10:26:06Z</time>
      </trkpt>
      <trkpt lat="43.38621680" lon="13.02122790">
        <ele>688.00000</ele>
        <time>2009-07-31T10:26:07Z</time>
      </trkpt>
      <trkpt lat="43.38625080" lon="13.02126230">
        <ele>666.00000</ele>
        <time>2009-07-31T10:26:09Z</time>
      </trkpt>
      <trkpt lat="43.38626380" lon="13.02126730">
        <ele>667.00000</ele>
        <time>2009-07-31T10:26:10Z</time>
      </trkpt>
      <trkpt lat="43.38627800" lon="13.02127370">
        <ele>667.00000</ele>
        <time>2009-07-31T10:26:10Z</time>
      </trkpt>
      <trkpt lat="43.38629400" lon="13.02128520">
        <ele>667.00000</ele>
        <time>2009-07-31T10:26:11Z</time>
      </trkpt>
      <trkpt lat="43.38632480" lon="13.02130550">
        <ele>667.00000</ele>
        <time>2009-07-31T10:26:12Z</time>
      </trkpt>
      <trkpt lat="43.38634860" lon="13.02131410">
        <ele>667.00000</ele>
        <time>2009-07-31T10:26:13Z</time>
      </trkpt>
      <trkpt lat="43.38636300" lon="13.02131970">
        <ele>667.00000</ele>
        <time>2009-07-31T10:26:14Z</time>
      </trkpt>
      <trkpt lat="43.38638030" lon="13.02133260">
        <ele>667.00000</ele>
        <time>2009-07-31T10:26:15Z</time>
      </trkpt>
      <trkpt lat="43.38640440" lon="13.02132580">
        <ele>667.00000</ele>
        <time>2009-07-31T10:26:16Z</time>
      </trkpt>
      <trkpt lat="43.38643500" lon="13.02130640">
        <ele>667.00000</ele>
        <time>2009-07-31T10:26:17Z</time>
      </trkpt>
      <trkpt lat="43.38645870" lon="13.02130480">
        <ele>667.00000</ele>
        <time>2009-07-31T10:26:18Z</time>
      </trkpt>
      <trkpt lat="43.38647580" lon="13.02130650">
        <ele>667.00000</ele>
        <time>2009-07-31T10:26:19Z</time>
      </trkpt>
      <trkpt lat="43.38648880" lon="13.02130650">
        <ele>667.00000</ele>
        <time>2009-07-31T10:26:19Z</time>
      </trkpt>
      <trkpt lat="43.38650240" lon="13.02131900">
        <ele>667.00000</ele>
        <time>2009-07-31T10:26:20Z</time>
      </trkpt>
      <trkpt lat="43.38652090" lon="13.02132650">
        <ele>667.00000</ele>
        <time>2009-07-31T10:26:21Z</time>
      </trkpt>
      <trkpt lat="43.38653620" lon="13.02131660">
        <ele>667.00000</ele>
        <time>2009-07-31T10:26:21Z</time>
      </trkpt>
      <trkpt lat="43.38656010" lon="13.02130370">
        <ele>667.00000</ele>
        <time>2009-07-31T10:26:22Z</time>
      </trkpt>
      <trkpt lat="43.38658190" lon="13.02130670">
        <ele>667.00000</ele>
        <time>2009-07-31T10:26:23Z</time>
      </trkpt>
      <trkpt lat="43.38661250" lon="13.02129790">
        <ele>667.00000</ele>
        <time>2009-07-31T10:26:24Z</time>
      </trkpt>
      <trkpt lat="43.38663940" lon="13.02128340">
        <ele>667.00000</ele>
        <time>2009-07-31T10:26:26Z</time>
      </trkpt>
      <trkpt lat="43.38667030" lon="13.02124910">
        <ele>695.00000</ele>
        <time>2009-07-31T10:26:27Z</time>
      </trkpt>
      <trkpt lat="43.38670070" lon="13.02125450">
        <ele>667.00000</ele>
        <time>2009-07-31T10:26:28Z</time>
      </trkpt>
      <trkpt lat="43.38671540" lon="13.02125990">
        <ele>667.00000</ele>
        <time>2009-07-31T10:26:29Z</time>
      </trkpt>
      <trkpt lat="43.38674510" lon="13.02126970">
        <ele>667.00000</ele>
        <time>2009-07-31T10:26:30Z</time>
      </trkpt>
      <trkpt lat="43.38676600" lon="13.02127840">
        <ele>667.00000</ele>
        <time>2009-07-31T10:26:31Z</time>
      </trkpt>
      <trkpt lat="43.38678610" lon="13.02128210">
        <ele>667.00000</ele>
        <time>2009-07-31T10:26:32Z</time>
      </trkpt>
      <trkpt lat="43.38680960" lon="13.02126110">
        <ele>667.00000</ele>
        <time>2009-07-31T10:26:33Z</time>
      </trkpt>
      <trkpt lat="43.38682820" lon="13.02125360">
        <ele>667.00000</ele>
        <time>2009-07-31T10:26:34Z</time>
      </trkpt>
      <trkpt lat="43.38685430" lon="13.02122540">
        <ele>695.00000</ele>
        <time>2009-07-31T10:26:35Z</time>
      </trkpt>
      <trkpt lat="43.38688360" lon="13.02122300">
        <ele>695.00000</ele>
        <time>2009-07-31T10:26:36Z</time>
      </trkpt>
      <trkpt lat="43.38692240" lon="13.02122180">
        <ele>695.00000</ele>
        <time>2009-07-31T10:26:38Z</time>
      </trkpt>
      <trkpt lat="43.38693810" lon="13.02121150">
        <ele>695.00000</ele>
        <time>2009-07-31T10:26:39Z</time>
      </trkpt>
      <trkpt lat="43.38697580" lon="13.02119890">
        <ele>695.00000</ele>
        <time>2009-07-31T10:26:40Z</time>
      </trkpt>
      <trkpt lat="43.38698480" lon="13.02118400">
        <ele>695.00000</ele>
        <time>2009-07-31T10:26:41Z</time>
      </trkpt>
      <trkpt lat="43.38700370" lon="13.02118450">
        <ele>695.00000</ele>
        <time>2009-07-31T10:26:41Z</time>
      </trkpt>
      <trkpt lat="43.38702490" lon="13.02117410">
        <ele>695.00000</ele>
        <time>2009-07-31T10:26:42Z</time>
      </trkpt>
      <trkpt lat="43.38705500" lon="13.02116150">
        <ele>695.00000</ele>
        <time>2009-07-31T10:26:44Z</time>
      </trkpt>
      <trkpt lat="43.38708270" lon="13.02116690">
        <ele>695.00000</ele>
        <time>2009-07-31T10:26:45Z</time>
      </trkpt>
      <trkpt lat="43.38710290" lon="13.02116160">
        <ele>680.00000</ele>
        <time>2009-07-31T10:26:46Z</time>
      </trkpt>
      <trkpt lat="43.38712220" lon="13.02115460">
        <ele>680.00000</ele>
        <time>2009-07-31T10:26:46Z</time>
      </trkpt>
      <trkpt lat="43.38713690" lon="13.02114280">
        <ele>680.00000</ele>
        <time>2009-07-31T10:26:47Z</time>
      </trkpt>
      <trkpt lat="43.38715160" lon="13.02113870">
        <ele>680.00000</ele>
        <time>2009-07-31T10:26:48Z</time>
      </trkpt>
      <trkpt lat="43.38718190" lon="13.02112600">
        <ele>680.00000</ele>
        <time>2009-07-31T10:26:49Z</time>
      </trkpt>
      <trkpt lat="43.38721200" lon="13.02110910">
        <ele>680.00000</ele>
        <time>2009-07-31T10:26:50Z</time>
      </trkpt>
      <trkpt lat="43.38723590" lon="13.02110330">
        <ele>680.00000</ele>
        <time>2009-07-31T10:26:51Z</time>
      </trkpt>
      <trkpt lat="43.38725730" lon="13.02109760">
        <ele>680.00000</ele>
        <time>2009-07-31T10:26:52Z</time>
      </trkpt>
      <trkpt lat="43.38727650" lon="13.02108730">
        <ele>680.00000</ele>
        <time>2009-07-31T10:26:53Z</time>
      </trkpt>
      <trkpt lat="43.38729270" lon="13.02108330">
        <ele>680.00000</ele>
        <time>2009-07-31T10:26:54Z</time>
      </trkpt>
      <trkpt lat="43.38731950" lon="13.02106040">
        <ele>680.00000</ele>
        <time>2009-07-31T10:26:55Z</time>
      </trkpt>
      <trkpt lat="43.38734060" lon="13.02104480">
        <ele>680.00000</ele>
        <time>2009-07-31T10:26:56Z</time>
      </trkpt>
      <trkpt lat="43.38738060" lon="13.02103030">
        <ele>680.00000</ele>
        <time>2009-07-31T10:26:57Z</time>
      </trkpt>
      <trkpt lat="43.38740810" lon="13.02102640">
        <ele>680.00000</ele>
        <time>2009-07-31T10:26:59Z</time>
      </trkpt>
      <trkpt lat="43.38743040" lon="13.02099590">
        <ele>680.00000</ele>
        <time>2009-07-31T10:27:00Z</time>
      </trkpt>
      <trkpt lat="43.38745060" lon="13.02097130">
        <ele>680.00000</ele>
        <time>2009-07-31T10:27:01Z</time>
      </trkpt>
      <trkpt lat="43.38747540" lon="13.02094830">
        <ele>680.00000</ele>
        <time>2009-07-31T10:27:02Z</time>
      </trkpt>
      <trkpt lat="43.38749460" lon="13.02093150">
        <ele>680.00000</ele>
        <time>2009-07-31T10:27:03Z</time>
      </trkpt>
      <trkpt lat="43.38749430" lon="13.02089280">
        <ele>680.00000</ele>
        <time>2009-07-31T10:27:04Z</time>
      </trkpt>
      <trkpt lat="43.38751560" lon="13.02088940">
        <ele>680.00000</ele>
        <time>2009-07-31T10:27:05Z</time>
      </trkpt>
      <trkpt lat="43.38754240" lon="13.02088030">
        <ele>680.00000</ele>
        <time>2009-07-31T10:27:06Z</time>
      </trkpt>
      <trkpt lat="43.38757360" lon="13.02086590">
        <ele>680.00000</ele>
        <time>2009-07-31T10:27:07Z</time>
      </trkpt>
      <trkpt lat="43.38759300" lon="13.02084690">
        <ele>680.00000</ele>
        <time>2009-07-31T10:27:08Z</time>
      </trkpt>
      <trkpt lat="43.38761850" lon="13.02084650">
        <ele>680.00000</ele>
        <time>2009-07-31T10:27:09Z</time>
      </trkpt>
      <trkpt lat="43.38765600" lon="13.02081520">
        <ele>680.00000</ele>
        <time>2009-07-31T10:27:11Z</time>
      </trkpt>
      <trkpt lat="43.38766950" lon="13.02080920">
        <ele>680.00000</ele>
        <time>2009-07-31T10:27:12Z</time>
      </trkpt>
      <trkpt lat="43.38769320" lon="13.02079820">
        <ele>680.00000</ele>
        <time>2009-07-31T10:27:13Z</time>
      </trkpt>
      <trkpt lat="43.38770210" lon="13.02078470">
        <ele>680.00000</ele>
        <time>2009-07-31T10:27:13Z</time>
      </trkpt>
      <trkpt lat="43.38771330" lon="13.02077640">
        <ele>680.00000</ele>
        <time>2009-07-31T10:27:14Z</time>
      </trkpt>
      <trkpt lat="43.38772710" lon="13.02076340">
        <ele>680.00000</ele>
        <time>2009-07-31T10:27:14Z</time>
      </trkpt>
      <trkpt lat="43.38774820" lon="13.02074210">
        <ele>680.00000</ele>
        <time>2009-07-31T10:27:15Z</time>
      </trkpt>
      <trkpt lat="43.38779560" lon="13.02071260">
        <ele>680.00000</ele>
        <time>2009-07-31T10:27:18Z</time>
      </trkpt>
      <trkpt lat="43.38780910" lon="13.02069030">
        <ele>680.00000</ele>
        <time>2009-07-31T10:27:18Z</time>
      </trkpt>
      <trkpt lat="43.38782080" lon="13.02066330">
        <ele>680.00000</ele>
        <time>2009-07-31T10:27:19Z</time>
      </trkpt>
      <trkpt lat="43.38783660" lon="13.02064000">
        <ele>680.00000</ele>
        <time>2009-07-31T10:27:20Z</time>
      </trkpt>
      <trkpt lat="43.38785830" lon="13.02062420">
        <ele>680.00000</ele>
        <time>2009-07-31T10:27:21Z</time>
      </trkpt>
      <trkpt lat="43.38788360" lon="13.02058810">
        <ele>680.00000</ele>
        <time>2009-07-31T10:27:23Z</time>
      </trkpt>
      <trkpt lat="43.38789790" lon="13.02056120">
        <ele>680.00000</ele>
        <time>2009-07-31T10:27:24Z</time>
      </trkpt>
      <trkpt lat="43.38791290" lon="13.02053210">
        <ele>680.00000</ele>
        <time>2009-07-31T10:27:25Z</time>
      </trkpt>
      <trkpt lat="43.38793490" lon="13.02050500">
        <ele>651.00000</ele>
        <time>2009-07-31T10:27:26Z</time>
      </trkpt>
      <trkpt lat="43.38794550" lon="13.02048580">
        <ele>651.00000</ele>
        <time>2009-07-31T10:27:27Z</time>
      </trkpt>
      <trkpt lat="43.38795120" lon="13.02046100">
        <ele>651.00000</ele>
        <time>2009-07-31T10:27:27Z</time>
      </trkpt>
      <trkpt lat="43.38793490" lon="13.02042280">
        <ele>651.00000</ele>
        <time>2009-07-31T10:27:29Z</time>
      </trkpt>
      <trkpt lat="43.38795790" lon="13.02039110">
        <ele>677.00000</ele>
        <time>2009-07-31T10:27:30Z</time>
      </trkpt>
      <trkpt lat="43.38796490" lon="13.02036980">
        <ele>677.00000</ele>
        <time>2009-07-31T10:27:31Z</time>
      </trkpt>
      <trkpt lat="43.38797710" lon="13.02034620">
        <ele>677.00000</ele>
        <time>2009-07-31T10:27:31Z</time>
      </trkpt>
      <trkpt lat="43.38798830" lon="13.02032890">
        <ele>677.00000</ele>
        <time>2009-07-31T10:27:32Z</time>
      </trkpt>
      <trkpt lat="43.38799840" lon="13.02031180">
        <ele>677.00000</ele>
        <time>2009-07-31T10:27:33Z</time>
      </trkpt>
      <trkpt lat="43.38800720" lon="13.02030100">
        <ele>677.00000</ele>
        <time>2009-07-31T10:27:33Z</time>
      </trkpt>
      <trkpt lat="43.38801600" lon="13.02028630">
        <ele>677.00000</ele>
        <time>2009-07-31T10:27:34Z</time>
      </trkpt>
      <trkpt lat="43.38802620" lon="13.02026600">
        <ele>677.00000</ele>
        <time>2009-07-31T10:27:34Z</time>
      </trkpt>
      <trkpt lat="43.38803650" lon="13.02025180">
        <ele>677.00000</ele>
        <time>2009-07-31T10:27:35Z</time>
      </trkpt>
      <trkpt lat="43.38804470" lon="13.02022040">
        <ele>677.00000</ele>
        <time>2009-07-31T10:27:36Z</time>
      </trkpt>
      <trkpt lat="43.38805770" lon="13.02019760">
        <ele>677.00000</ele>
        <time>2009-07-31T10:27:37Z</time>
      </trkpt>
      <trkpt lat="43.38805880" lon="13.02015730">
        <ele>677.00000</ele>
        <time>2009-07-31T10:27:38Z</time>
      </trkpt>
      <trkpt lat="43.38806500" lon="13.02014050">
        <ele>677.00000</ele>
        <time>2009-07-31T10:27:39Z</time>
      </trkpt>
      <trkpt lat="43.38807170" lon="13.02011520">
        <ele>677.00000</ele>
        <time>2009-07-31T10:27:39Z</time>
      </trkpt>
      <trkpt lat="43.38808080" lon="13.02009770">
        <ele>677.00000</ele>
        <time>2009-07-31T10:27:40Z</time>
      </trkpt>
      <trkpt lat="43.38807170" lon="13.02006300">
        <ele>677.00000</ele>
        <time>2009-07-31T10:27:41Z</time>
      </trkpt>
      <trkpt lat="43.38808040" lon="13.02005600">
        <ele>677.00000</ele>
        <time>2009-07-31T10:27:41Z</time>
      </trkpt>
      <trkpt lat="43.38808540" lon="13.02004060">
        <ele>677.00000</ele>
        <time>2009-07-31T10:27:42Z</time>
      </trkpt>
      <trkpt lat="43.38809310" lon="13.02002870">
        <ele>677.00000</ele>
        <time>2009-07-31T10:27:42Z</time>
      </trkpt>
      <trkpt lat="43.38809280" lon="13.02000950">
        <ele>677.00000</ele>
        <time>2009-07-31T10:27:43Z</time>
      </trkpt>
      <trkpt lat="43.38810530" lon="13.01998620">
        <ele>677.00000</ele>
        <time>2009-07-31T10:27:44Z</time>
      </trkpt>
      <trkpt lat="43.38812000" lon="13.01997000">
        <ele>677.00000</ele>
        <time>2009-07-31T10:27:45Z</time>
      </trkpt>
      <trkpt lat="43.38813030" lon="13.01995630">
        <ele>677.00000</ele>
        <time>2009-07-31T10:27:45Z</time>
      </trkpt>
      <trkpt lat="43.38813700" lon="13.01994300">
        <ele>677.00000</ele>
        <time>2009-07-31T10:27:46Z</time>
      </trkpt>
      <trkpt lat="43.38814700" lon="13.01994020">
        <ele>677.00000</ele>
        <time>2009-07-31T10:27:46Z</time>
      </trkpt>
      <trkpt lat="43.38815500" lon="13.01992930">
        <ele>677.00000</ele>
        <time>2009-07-31T10:27:46Z</time>
      </trkpt>
      <trkpt lat="43.38816930" lon="13.01990090">
        <ele>677.00000</ele>
        <time>2009-07-31T10:27:47Z</time>
      </trkpt>
      <trkpt lat="43.38817880" lon="13.01987960">
        <ele>677.00000</ele>
        <time>2009-07-31T10:27:48Z</time>
      </trkpt>
      <trkpt lat="43.38818100" lon="13.01985860">
        <ele>677.00000</ele>
        <time>2009-07-31T10:27:49Z</time>
      </trkpt>
      <trkpt lat="43.38818960" lon="13.01983890">
        <ele>677.00000</ele>
        <time>2009-07-31T10:27:49Z</time>
      </trkpt>
      <trkpt lat="43.38818590" lon="13.01982000">
        <ele>677.00000</ele>
        <time>2009-07-31T10:27:50Z</time>
      </trkpt>
      <trkpt lat="43.38819640" lon="13.01980470">
        <ele>677.00000</ele>
        <time>2009-07-31T10:27:51Z</time>
      </trkpt>
      <trkpt lat="43.38820410" lon="13.01979300">
        <ele>677.00000</ele>
        <time>2009-07-31T10:27:51Z</time>
      </trkpt>
      <trkpt lat="43.38821300" lon="13.01978370">
        <ele>677.00000</ele>
        <time>2009-07-31T10:27:52Z</time>
      </trkpt>
      <trkpt lat="43.38822320" lon="13.01979440">
        <ele>677.00000</ele>
        <time>2009-07-31T10:27:52Z</time>
      </trkpt>
      <trkpt lat="43.38821400" lon="13.01977630">
        <ele>677.00000</ele>
        <time>2009-07-31T10:27:53Z</time>
      </trkpt>
      <trkpt lat="43.38821760" lon="13.01976660">
        <ele>677.00000</ele>
        <time>2009-07-31T10:27:53Z</time>
      </trkpt>
      <trkpt lat="43.38821580" lon="13.01977080">
        <ele>677.00000</ele>
        <time>2009-07-31T10:27:53Z</time>
      </trkpt>
      <trkpt lat="43.38821800" lon="13.01974010">
        <ele>677.00000</ele>
        <time>2009-07-31T10:27:54Z</time>
      </trkpt>
      <trkpt lat="43.38822480" lon="13.01973790">
        <ele>677.00000</ele>
        <time>2009-07-31T10:27:54Z</time>
      </trkpt>
      <trkpt lat="43.38824330" lon="13.01972150">
        <ele>677.00000</ele>
        <time>2009-07-31T10:27:55Z</time>
      </trkpt>
      <trkpt lat="43.38826290" lon="13.01969940">
        <ele>677.00000</ele>
        <time>2009-07-31T10:27:56Z</time>
      </trkpt>
      <trkpt lat="43.38825960" lon="13.01966390">
        <ele>677.00000</ele>
        <time>2009-07-31T10:27:57Z</time>
      </trkpt>
      <trkpt lat="43.38825690" lon="13.01965600">
        <ele>677.00000</ele>
        <time>2009-07-31T10:27:58Z</time>
      </trkpt>
      <trkpt lat="43.38825690" lon="13.01963970">
        <ele>677.00000</ele>
        <time>2009-07-31T10:27:58Z</time>
      </trkpt>
      <trkpt lat="43.38826930" lon="13.01963270">
        <ele>677.00000</ele>
        <time>2009-07-31T10:27:59Z</time>
      </trkpt>
      <trkpt lat="43.38827310" lon="13.01962080">
        <ele>677.00000</ele>
        <time>2009-07-31T10:27:59Z</time>
      </trkpt>
      <trkpt lat="43.38829220" lon="13.01961180">
        <ele>677.00000</ele>
        <time>2009-07-31T10:28:00Z</time>
      </trkpt>
      <trkpt lat="43.38829590" lon="13.01961260">
        <ele>677.00000</ele>
        <time>2009-07-31T10:28:00Z</time>
      </trkpt>
      <trkpt lat="43.38829740" lon="13.01961230">
        <ele>677.00000</ele>
        <time>2009-07-31T10:28:00Z</time>
      </trkpt>
      <trkpt lat="43.38829490" lon="13.01961070">
        <ele>677.00000</ele>
        <time>2009-07-31T10:28:00Z</time>
      </trkpt>
      <trkpt lat="43.38829350" lon="13.01960970">
        <ele>677.00000</ele>
        <time>2009-07-31T10:28:00Z</time>
      </trkpt>
      <trkpt lat="43.38829240" lon="13.01960910">
        <ele>677.00000</ele>
        <time>2009-07-31T10:28:00Z</time>
      </trkpt>
      <trkpt lat="43.38829340" lon="13.01960910">
        <ele>677.00000</ele>
        <time>2009-07-31T10:28:00Z</time>
      </trkpt>
      <trkpt lat="43.38829250" lon="13.01960820">
        <ele>677.00000</ele>
        <time>2009-07-31T10:28:00Z</time>
      </trkpt>
      <trkpt lat="43.38828540" lon="13.01957180">
        <ele>705.00000</ele>
        <time>2009-07-31T10:28:01Z</time>
      </trkpt>
      <trkpt lat="43.38829060" lon="13.01956200">
        <ele>705.00000</ele>
        <time>2009-07-31T10:28:02Z</time>
      </trkpt>
      <trkpt lat="43.38828330" lon="13.01954570">
        <ele>705.00000</ele>
        <time>2009-07-31T10:28:02Z</time>
      </trkpt>
      <trkpt lat="43.38828160" lon="13.01954480">
        <ele>705.00000</ele>
        <time>2009-07-31T10:28:02Z</time>
      </trkpt>
      <trkpt lat="43.38828040" lon="13.01954400">
        <ele>705.00000</ele>
        <time>2009-07-31T10:28:02Z</time>
      </trkpt>
      <trkpt lat="43.38828410" lon="13.01954360">
        <ele>705.00000</ele>
        <time>2009-07-31T10:28:03Z</time>
      </trkpt>
      <trkpt lat="43.38828070" lon="13.01953190">
        <ele>705.00000</ele>
        <time>2009-07-31T10:28:03Z</time>
      </trkpt>
      <trkpt lat="43.38828480" lon="13.01951630">
        <ele>705.00000</ele>
        <time>2009-07-31T10:28:03Z</time>
      </trkpt>
      <trkpt lat="43.38828450" lon="13.01951570">
        <ele>705.00000</ele>
        <time>2009-07-31T10:28:03Z</time>
      </trkpt>
      <trkpt lat="43.38828370" lon="13.01951510">
        <ele>705.00000</ele>
        <time>2009-07-31T10:28:03Z</time>
      </trkpt>
      <trkpt lat="43.38828300" lon="13.01951420">
        <ele>705.00000</ele>
        <time>2009-07-31T10:28:03Z</time>
      </trkpt>
      <trkpt lat="43.38828330" lon="13.01951320">
        <ele>705.00000</ele>
        <time>2009-07-31T10:28:04Z</time>
      </trkpt>
      <trkpt lat="43.38828130" lon="13.01951150">
        <ele>705.00000</ele>
        <time>2009-07-31T10:28:04Z</time>
      </trkpt>
      <trkpt lat="43.38827800" lon="13.01950980">
        <ele>705.00000</ele>
        <time>2009-07-31T10:28:04Z</time>
      </trkpt>
      <trkpt lat="43.38827950" lon="13.01948410">
        <ele>705.00000</ele>
        <time>2009-07-31T10:28:05Z</time>
      </trkpt>
      <trkpt lat="43.38827920" lon="13.01946570">
        <ele>705.00000</ele>
        <time>2009-07-31T10:28:05Z</time>
      </trkpt>
      <trkpt lat="43.38827590" lon="13.01945520">
        <ele>705.00000</ele>
        <time>2009-07-31T10:28:05Z</time>
      </trkpt>
      <trkpt lat="43.38826880" lon="13.01944360">
        <ele>705.00000</ele>
        <time>2009-07-31T10:28:06Z</time>
      </trkpt>
      <trkpt lat="43.38826430" lon="13.01943980">
        <ele>705.00000</ele>
        <time>2009-07-31T10:28:06Z</time>
      </trkpt>
      <trkpt lat="43.38826600" lon="13.01942470">
        <ele>705.00000</ele>
        <time>2009-07-31T10:28:06Z</time>
      </trkpt>
      <trkpt lat="43.38826510" lon="13.01941970">
        <ele>705.00000</ele>
        <time>2009-07-31T10:28:07Z</time>
      </trkpt>
      <trkpt lat="43.38826540" lon="13.01941920">
        <ele>705.00000</ele>
        <time>2009-07-31T10:28:07Z</time>
      </trkpt>
      <trkpt lat="43.38826540" lon="13.01941880">
        <ele>705.00000</ele>
        <time>2009-07-31T10:28:07Z</time>
      </trkpt>
      <trkpt lat="43.38826330" lon="13.01941810">
        <ele>705.00000</ele>
        <time>2009-07-31T10:28:07Z</time>
      </trkpt>
      <trkpt lat="43.38825560" lon="13.01941030">
        <ele>705.00000</ele>
        <time>2009-07-31T10:28:07Z</time>
      </trkpt>
      <trkpt lat="43.38825590" lon="13.01940970">
        <ele>705.00000</ele>
        <time>2009-07-31T10:28:07Z</time>
      </trkpt>
      <trkpt lat="43.38826980" lon="13.01939060">
        <ele>705.00000</ele>
        <time>2009-07-31T10:28:08Z</time>
      </trkpt>
      <trkpt lat="43.38826970" lon="13.01939020">
        <ele>705.00000</ele>
        <time>2009-07-31T10:28:08Z</time>
      </trkpt>
      <trkpt lat="43.38827110" lon="13.01939020">
        <ele>705.00000</ele>
        <time>2009-07-31T10:28:08Z</time>
      </trkpt>
      <trkpt lat="43.38827400" lon="13.01938740">
        <ele>705.00000</ele>
        <time>2009-07-31T10:28:08Z</time>
      </trkpt>
      <trkpt lat="43.38828240" lon="13.01937790">
        <ele>705.00000</ele>
        <time>2009-07-31T10:28:09Z</time>
      </trkpt>
      <trkpt lat="43.38829550" lon="13.01936190">
        <ele>705.00000</ele>
        <time>2009-07-31T10:28:09Z</time>
      </trkpt>
      <trkpt lat="43.38831040" lon="13.01934280">
        <ele>705.00000</ele>
        <time>2009-07-31T10:28:10Z</time>
      </trkpt>
      <trkpt lat="43.38832590" lon="13.01931860">
        <ele>705.00000</ele>
        <time>2009-07-31T10:28:11Z</time>
      </trkpt>
      <trkpt lat="43.38832390" lon="13.01930750">
        <ele>705.00000</ele>
        <time>2009-07-31T10:28:11Z</time>
      </trkpt>
      <trkpt lat="43.38832270" lon="13.01929450">
        <ele>705.00000</ele>
        <time>2009-07-31T10:28:12Z</time>
      </trkpt>
      <trkpt lat="43.38832980" lon="13.01928710">
        <ele>705.00000</ele>
        <time>2009-07-31T10:28:12Z</time>
      </trkpt>
      <trkpt lat="43.38833810" lon="13.01927020">
        <ele>705.00000</ele>
        <time>2009-07-31T10:28:13Z</time>
      </trkpt>
      <trkpt lat="43.38833370" lon="13.01925840">
        <ele>705.00000</ele>
        <time>2009-07-31T10:28:13Z</time>
      </trkpt>
      <trkpt lat="43.38834290" lon="13.01925590">
        <ele>705.00000</ele>
        <time>2009-07-31T10:28:13Z</time>
      </trkpt>
      <trkpt lat="43.38836310" lon="13.01924590">
        <ele>705.00000</ele>
        <time>2009-07-31T10:28:14Z</time>
      </trkpt>
      <trkpt lat="43.38836840" lon="13.01923690">
        <ele>705.00000</ele>
        <time>2009-07-31T10:28:15Z</time>
      </trkpt>
      <trkpt lat="43.38838340" lon="13.01922170">
        <ele>705.00000</ele>
        <time>2009-07-31T10:28:15Z</time>
      </trkpt>
      <trkpt lat="43.38839190" lon="13.01920750">
        <ele>705.00000</ele>
        <time>2009-07-31T10:28:16Z</time>
      </trkpt>
      <trkpt lat="43.38839280" lon="13.01920570">
        <ele>705.00000</ele>
        <time>2009-07-31T10:28:16Z</time>
      </trkpt>
      <trkpt lat="43.38839650" lon="13.01920660">
        <ele>705.00000</ele>
        <time>2009-07-31T10:28:16Z</time>
      </trkpt>
      <trkpt lat="43.38840480" lon="13.01919720">
        <ele>705.00000</ele>
        <time>2009-07-31T10:28:17Z</time>
      </trkpt>
      <trkpt lat="43.38840130" lon="13.01918270">
        <ele>705.00000</ele>
        <time>2009-07-31T10:28:17Z</time>
      </trkpt>
      <trkpt lat="43.38840020" lon="13.01916920">
        <ele>705.00000</ele>
        <time>2009-07-31T10:28:17Z</time>
      </trkpt>
      <trkpt lat="43.38840140" lon="13.01916950">
        <ele>705.00000</ele>
        <time>2009-07-31T10:28:17Z</time>
      </trkpt>
      <trkpt lat="43.38840330" lon="13.01916970">
        <ele>705.00000</ele>
        <time>2009-07-31T10:28:17Z</time>
      </trkpt>
      <trkpt lat="43.38840690" lon="13.01917040">
        <ele>705.00000</ele>
        <time>2009-07-31T10:28:18Z</time>
      </trkpt>
      <trkpt lat="43.38841140" lon="13.01917110">
        <ele>705.00000</ele>
        <time>2009-07-31T10:28:18Z</time>
      </trkpt>
      <trkpt lat="43.38841520" lon="13.01917110">
        <ele>705.00000</ele>
        <time>2009-07-31T10:28:18Z</time>
      </trkpt>
      <trkpt lat="43.38839960" lon="13.01913180">
        <ele>705.00000</ele>
        <time>2009-07-31T10:28:19Z</time>
      </trkpt>
      <trkpt lat="43.38841190" lon="13.01912890">
        <ele>705.00000</ele>
        <time>2009-07-31T10:28:20Z</time>
      </trkpt>
      <trkpt lat="43.38841560" lon="13.01912960">
        <ele>705.00000</ele>
        <time>2009-07-31T10:28:20Z</time>
      </trkpt>
      <trkpt lat="43.38841970" lon="13.01912980">
        <ele>705.00000</ele>
        <time>2009-07-31T10:28:20Z</time>
      </trkpt>
      <trkpt lat="43.38843760" lon="13.01910460">
        <ele>705.00000</ele>
        <time>2009-07-31T10:28:21Z</time>
      </trkpt>
      <trkpt lat="43.38844200" lon="13.01909000">
        <ele>705.00000</ele>
        <time>2009-07-31T10:28:22Z</time>
      </trkpt>
      <trkpt lat="43.38844160" lon="13.01908770">
        <ele>705.00000</ele>
        <time>2009-07-31T10:28:22Z</time>
      </trkpt>
      <trkpt lat="43.38844630" lon="13.01908410">
        <ele>705.00000</ele>
        <time>2009-07-31T10:28:22Z</time>
      </trkpt>
      <trkpt lat="43.38844690" lon="13.01908400">
        <ele>705.00000</ele>
        <time>2009-07-31T10:28:22Z</time>
      </trkpt>
      <trkpt lat="43.38845030" lon="13.01908440">
        <ele>705.00000</ele>
        <time>2009-07-31T10:28:22Z</time>
      </trkpt>
      <trkpt lat="43.38846950" lon="13.01905540">
        <ele>705.00000</ele>
        <time>2009-07-31T10:28:23Z</time>
      </trkpt>
      <trkpt lat="43.38847290" lon="13.01904890">
        <ele>705.00000</ele>
        <time>2009-07-31T10:28:23Z</time>
      </trkpt>
      <trkpt lat="43.38847520" lon="13.01904880">
        <ele>705.00000</ele>
        <time>2009-07-31T10:28:23Z</time>
      </trkpt>
      <trkpt lat="43.38847750" lon="13.01904930">
        <ele>705.00000</ele>
        <time>2009-07-31T10:28:24Z</time>
      </trkpt>
      <trkpt lat="43.38848090" lon="13.01904970">
        <ele>705.00000</ele>
        <time>2009-07-31T10:28:24Z</time>
      </trkpt>
      <trkpt lat="43.38848680" lon="13.01904780">
        <ele>705.00000</ele>
        <time>2009-07-31T10:28:24Z</time>
      </trkpt>
      <trkpt lat="43.38848600" lon="13.01904060">
        <ele>705.00000</ele>
        <time>2009-07-31T10:28:24Z</time>
      </trkpt>
      <trkpt lat="43.38849240" lon="13.01902800">
        <ele>705.00000</ele>
        <time>2009-07-31T10:28:25Z</time>
      </trkpt>
      <trkpt lat="43.38849820" lon="13.01902090">
        <ele>705.00000</ele>
        <time>2009-07-31T10:28:25Z</time>
      </trkpt>
      <trkpt lat="43.38850200" lon="13.01902140">
        <ele>705.00000</ele>
        <time>2009-07-31T10:28:25Z</time>
      </trkpt>
      <trkpt lat="43.38851360" lon="13.01900590">
        <ele>705.00000</ele>
        <time>2009-07-31T10:28:26Z</time>
      </trkpt>
      <trkpt lat="43.38851890" lon="13.01900000">
        <ele>705.00000</ele>
        <time>2009-07-31T10:28:26Z</time>
      </trkpt>
      <trkpt lat="43.38852720" lon="13.01897840">
        <ele>705.00000</ele>
        <time>2009-07-31T10:28:27Z</time>
      </trkpt>
      <trkpt lat="43.38852870" lon="13.01896590">
        <ele>705.00000</ele>
        <time>2009-07-31T10:28:27Z</time>
      </trkpt>
      <trkpt lat="43.38852540" lon="13.01895650">
        <ele>705.00000</ele>
        <time>2009-07-31T10:28:27Z</time>
      </trkpt>
      <trkpt lat="43.38852390" lon="13.01895510">
        <ele>705.00000</ele>
        <time>2009-07-31T10:28:27Z</time>
      </trkpt>
      <trkpt lat="43.38852470" lon="13.01895470">
        <ele>705.00000</ele>
        <time>2009-07-31T10:28:27Z</time>
      </trkpt>
      <trkpt lat="43.38852960" lon="13.01894600">
        <ele>705.00000</ele>
        <time>2009-07-31T10:28:28Z</time>
      </trkpt>
      <trkpt lat="43.38853410" lon="13.01891530">
        <ele>705.00000</ele>
        <time>2009-07-31T10:28:29Z</time>
      </trkpt>
      <trkpt lat="43.38854470" lon="13.01889800">
        <ele>705.00000</ele>
        <time>2009-07-31T10:28:29Z</time>
      </trkpt>
      <trkpt lat="43.38855250" lon="13.01889180">
        <ele>705.00000</ele>
        <time>2009-07-31T10:28:30Z</time>
      </trkpt>
      <trkpt lat="43.38855440" lon="13.01888850">
        <ele>705.00000</ele>
        <time>2009-07-31T10:28:30Z</time>
      </trkpt>
      <trkpt lat="43.38856700" lon="13.01887890">
        <ele>705.00000</ele>
        <time>2009-07-31T10:28:30Z</time>
      </trkpt>
      <trkpt lat="43.38856890" lon="13.01886720">
        <ele>705.00000</ele>
        <time>2009-07-31T10:28:31Z</time>
      </trkpt>
      <trkpt lat="43.38857330" lon="13.01885680">
        <ele>705.00000</ele>
        <time>2009-07-31T10:28:31Z</time>
      </trkpt>
      <trkpt lat="43.38857420" lon="13.01885710">
        <ele>705.00000</ele>
        <time>2009-07-31T10:28:31Z</time>
      </trkpt>
      <trkpt lat="43.38858250" lon="13.01885090">
        <ele>705.00000</ele>
        <time>2009-07-31T10:28:32Z</time>
      </trkpt>
      <trkpt lat="43.38856990" lon="13.01881970">
        <ele>705.00000</ele>
        <time>2009-07-31T10:28:33Z</time>
      </trkpt>
      <trkpt lat="43.38858110" lon="13.01881050">
        <ele>705.00000</ele>
        <time>2009-07-31T10:28:33Z</time>
      </trkpt>
      <trkpt lat="43.38858300" lon="13.01881110">
        <ele>705.00000</ele>
        <time>2009-07-31T10:28:33Z</time>
      </trkpt>
      <trkpt lat="43.38858390" lon="13.01881100">
        <ele>705.00000</ele>
        <time>2009-07-31T10:28:33Z</time>
      </trkpt>
      <trkpt lat="43.38858650" lon="13.01881190">
        <ele>705.00000</ele>
        <time>2009-07-31T10:28:33Z</time>
      </trkpt>
      <trkpt lat="43.38858260" lon="13.01880660">
        <ele>705.00000</ele>
        <time>2009-07-31T10:28:34Z</time>
      </trkpt>
      <trkpt lat="43.38859300" lon="13.01880850">
        <ele>705.00000</ele>
        <time>2009-07-31T10:28:34Z</time>
      </trkpt>
      <trkpt lat="43.38859740" lon="13.01880840">
        <ele>705.00000</ele>
        <time>2009-07-31T10:28:34Z</time>
      </trkpt>
      <trkpt lat="43.38859090" lon="13.01879100">
        <ele>705.00000</ele>
        <time>2009-07-31T10:28:35Z</time>
      </trkpt>
      <trkpt lat="43.38860910" lon="13.01877570">
        <ele>705.00000</ele>
        <time>2009-07-31T10:28:36Z</time>
      </trkpt>
      <trkpt lat="43.38862800" lon="13.01879260">
        <ele>705.00000</ele>
        <time>2009-07-31T10:28:36Z</time>
      </trkpt>
      <trkpt lat="43.38863320" lon="13.01878990">
        <ele>705.00000</ele>
        <time>2009-07-31T10:28:37Z</time>
      </trkpt>
      <trkpt lat="43.38863290" lon="13.01878900">
        <ele>705.00000</ele>
        <time>2009-07-31T10:28:37Z</time>
      </trkpt>
      <trkpt lat="43.38863460" lon="13.01878900">
        <ele>705.00000</ele>
        <time>2009-07-31T10:28:37Z</time>
      </trkpt>
      <trkpt lat="43.38863730" lon="13.01878940">
        <ele>705.00000</ele>
        <time>2009-07-31T10:28:37Z</time>
      </trkpt>
      <trkpt lat="43.38864170" lon="13.01878970">
        <ele>705.00000</ele>
        <time>2009-07-31T10:28:37Z</time>
      </trkpt>
      <trkpt lat="43.38864670" lon="13.01878990">
        <ele>705.00000</ele>
        <time>2009-07-31T10:28:37Z</time>
      </trkpt>
      <trkpt lat="43.38865080" lon="13.01879080">
        <ele>705.00000</ele>
        <time>2009-07-31T10:28:37Z</time>
      </trkpt>
      <trkpt lat="43.38865430" lon="13.01879130">
        <ele>705.00000</ele>
        <time>2009-07-31T10:28:38Z</time>
      </trkpt>
      <trkpt lat="43.38865700" lon="13.01879090">
        <ele>705.00000</ele>
        <time>2009-07-31T10:28:38Z</time>
      </trkpt>
      <trkpt lat="43.38865890" lon="13.01879110">
        <ele>705.00000</ele>
        <time>2009-07-31T10:28:38Z</time>
      </trkpt>
      <trkpt lat="43.38866130" lon="13.01879130">
        <ele>705.00000</ele>
        <time>2009-07-31T10:28:38Z</time>
      </trkpt>
      <trkpt lat="43.38866630" lon="13.01879190">
        <ele>705.00000</ele>
        <time>2009-07-31T10:28:38Z</time>
      </trkpt>
      <trkpt lat="43.38867130" lon="13.01876950">
        <ele>705.00000</ele>
        <time>2009-07-31T10:28:39Z</time>
      </trkpt>
      <trkpt lat="43.38867880" lon="13.01875280">
        <ele>705.00000</ele>
        <time>2009-07-31T10:28:39Z</time>
      </trkpt>
      <trkpt lat="43.38870580" lon="13.01873500">
        <ele>735.00000</ele>
        <time>2009-07-31T10:28:40Z</time>
      </trkpt>
      <trkpt lat="43.38870900" lon="13.01873490">
        <ele>735.00000</ele>
        <time>2009-07-31T10:28:41Z</time>
      </trkpt>
      <trkpt lat="43.38871200" lon="13.01873470">
        <ele>735.00000</ele>
        <time>2009-07-31T10:28:41Z</time>
      </trkpt>
      <trkpt lat="43.38871720" lon="13.01873490">
        <ele>735.00000</ele>
        <time>2009-07-31T10:28:41Z</time>
      </trkpt>
      <trkpt lat="43.38872400" lon="13.01872790">
        <ele>735.00000</ele>
        <time>2009-07-31T10:28:41Z</time>
      </trkpt>
      <trkpt lat="43.38874900" lon="13.01870600">
        <ele>735.00000</ele>
        <time>2009-07-31T10:28:42Z</time>
      </trkpt>
      <trkpt lat="43.38876130" lon="13.01868640">
        <ele>715.00000</ele>
        <time>2009-07-31T10:28:43Z</time>
      </trkpt>
      <trkpt lat="43.38876260" lon="13.01866750">
        <ele>715.00000</ele>
        <time>2009-07-31T10:28:44Z</time>
      </trkpt>
      <trkpt lat="43.38877550" lon="13.01865710">
        <ele>715.00000</ele>
        <time>2009-07-31T10:28:44Z</time>
      </trkpt>
      <trkpt lat="43.38878990" lon="13.01862500">
        <ele>715.00000</ele>
        <time>2009-07-31T10:28:45Z</time>
      </trkpt>
      <trkpt lat="43.38879830" lon="13.01861960">
        <ele>715.00000</ele>
        <time>2009-07-31T10:28:46Z</time>
      </trkpt>
      <trkpt lat="43.38881070" lon="13.01859900">
        <ele>715.00000</ele>
        <time>2009-07-31T10:28:47Z</time>
      </trkpt>
      <trkpt lat="43.38881900" lon="13.01854920">
        <ele>715.00000</ele>
        <time>2009-07-31T10:28:48Z</time>
      </trkpt>
      <trkpt lat="43.38881890" lon="13.01852360">
        <ele>715.00000</ele>
        <time>2009-07-31T10:28:49Z</time>
      </trkpt>
      <trkpt lat="43.38883440" lon="13.01849950">
        <ele>715.00000</ele>
        <time>2009-07-31T10:28:50Z</time>
      </trkpt>
      <trkpt lat="43.38885180" lon="13.01849310">
        <ele>715.00000</ele>
        <time>2009-07-31T10:28:50Z</time>
      </trkpt>
      <trkpt lat="43.38885530" lon="13.01847620">
        <ele>715.00000</ele>
        <time>2009-07-31T10:28:51Z</time>
      </trkpt>
      <trkpt lat="43.38887460" lon="13.01848020">
        <ele>715.00000</ele>
        <time>2009-07-31T10:28:52Z</time>
      </trkpt>
      <trkpt lat="43.38887930" lon="13.01846850">
        <ele>715.00000</ele>
        <time>2009-07-31T10:28:52Z</time>
      </trkpt>
      <trkpt lat="43.38888680" lon="13.01845520">
        <ele>715.00000</ele>
        <time>2009-07-31T10:28:53Z</time>
      </trkpt>
      <trkpt lat="43.38890080" lon="13.01845130">
        <ele>715.00000</ele>
        <time>2009-07-31T10:28:53Z</time>
      </trkpt>
      <trkpt lat="43.38891510" lon="13.01844900">
        <ele>715.00000</ele>
        <time>2009-07-31T10:28:54Z</time>
      </trkpt>
      <trkpt lat="43.38893200" lon="13.01843990">
        <ele>715.00000</ele>
        <time>2009-07-31T10:28:55Z</time>
      </trkpt>
      <trkpt lat="43.38893830" lon="13.01843720">
        <ele>715.00000</ele>
        <time>2009-07-31T10:28:55Z</time>
      </trkpt>
      <trkpt lat="43.38895080" lon="13.01843920">
        <ele>715.00000</ele>
        <time>2009-07-31T10:28:55Z</time>
      </trkpt>
      <trkpt lat="43.38895620" lon="13.01843090">
        <ele>715.00000</ele>
        <time>2009-07-31T10:28:56Z</time>
      </trkpt>
      <trkpt lat="43.38896860" lon="13.01843490">
        <ele>715.00000</ele>
        <time>2009-07-31T10:28:56Z</time>
      </trkpt>
      <trkpt lat="43.38897650" lon="13.01842530">
        <ele>715.00000</ele>
        <time>2009-07-31T10:28:57Z</time>
      </trkpt>
      <trkpt lat="43.38898430" lon="13.01842250">
        <ele>715.00000</ele>
        <time>2009-07-31T10:28:57Z</time>
      </trkpt>
      <trkpt lat="43.38899550" lon="13.01841870">
        <ele>715.00000</ele>
        <time>2009-07-31T10:28:57Z</time>
      </trkpt>
      <trkpt lat="43.38901040" lon="13.01842170">
        <ele>715.00000</ele>
        <time>2009-07-31T10:28:58Z</time>
      </trkpt>
      <trkpt lat="43.38902810" lon="13.01841740">
        <ele>715.00000</ele>
        <time>2009-07-31T10:28:59Z</time>
      </trkpt>
      <trkpt lat="43.38903280" lon="13.01842510">
        <ele>715.00000</ele>
        <time>2009-07-31T10:28:59Z</time>
      </trkpt>
      <trkpt lat="43.38900860" lon="13.01850450">
        <ele>715.00000</ele>
        <time>2009-07-31T10:29:01Z</time>
      </trkpt>
      <trkpt lat="43.38900630" lon="13.01850550">
        <ele>715.00000</ele>
        <time>2009-07-31T10:29:02Z</time>
      </trkpt>
      <trkpt lat="43.38902410" lon="13.01849350">
        <ele>715.00000</ele>
        <time>2009-07-31T10:29:02Z</time>
      </trkpt>
      <trkpt lat="43.38905310" lon="13.01848720">
        <ele>715.00000</ele>
        <time>2009-07-31T10:29:04Z</time>
      </trkpt>
      <trkpt lat="43.38907860" lon="13.01845320">
        <ele>715.00000</ele>
        <time>2009-07-31T10:29:05Z</time>
      </trkpt>
      <trkpt lat="43.38910060" lon="13.01842510">
        <ele>715.00000</ele>
        <time>2009-07-31T10:29:06Z</time>
      </trkpt>
      <trkpt lat="43.38912180" lon="13.01840600">
        <ele>715.00000</ele>
        <time>2009-07-31T10:29:07Z</time>
      </trkpt>
      <trkpt lat="43.38911640" lon="13.01838810">
        <ele>715.00000</ele>
        <time>2009-07-31T10:29:08Z</time>
      </trkpt>
      <trkpt lat="43.38913150" lon="13.01838660">
        <ele>715.00000</ele>
        <time>2009-07-31T10:29:08Z</time>
      </trkpt>
      <trkpt lat="43.38914070" lon="13.01839540">
        <ele>715.00000</ele>
        <time>2009-07-31T10:29:09Z</time>
      </trkpt>
      <trkpt lat="43.38915680" lon="13.01838360">
        <ele>715.00000</ele>
        <time>2009-07-31T10:29:10Z</time>
      </trkpt>
      <trkpt lat="43.38915840" lon="13.01837470">
        <ele>715.00000</ele>
        <time>2009-07-31T10:29:10Z</time>
      </trkpt>
      <trkpt lat="43.38917170" lon="13.01836590">
        <ele>715.00000</ele>
        <time>2009-07-31T10:29:10Z</time>
      </trkpt>
      <trkpt lat="43.38917550" lon="13.01835940">
        <ele>715.00000</ele>
        <time>2009-07-31T10:29:11Z</time>
      </trkpt>
      <trkpt lat="43.38918080" lon="13.01835380">
        <ele>715.00000</ele>
        <time>2009-07-31T10:29:11Z</time>
      </trkpt>
      <trkpt lat="43.38916700" lon="13.01835840">
        <ele>715.00000</ele>
        <time>2009-07-31T10:29:11Z</time>
      </trkpt>
      <trkpt lat="43.38916810" lon="13.01836540">
        <ele>715.00000</ele>
        <time>2009-07-31T10:29:12Z</time>
      </trkpt>
      <trkpt lat="43.38916940" lon="13.01836550">
        <ele>715.00000</ele>
        <time>2009-07-31T10:29:12Z</time>
      </trkpt>
      <trkpt lat="43.38917080" lon="13.01836560">
        <ele>715.00000</ele>
        <time>2009-07-31T10:29:12Z</time>
      </trkpt>
      <trkpt lat="43.38917530" lon="13.01836640">
        <ele>715.00000</ele>
        <time>2009-07-31T10:29:12Z</time>
      </trkpt>
      <trkpt lat="43.38918610" lon="13.01835070">
        <ele>715.00000</ele>
        <time>2009-07-31T10:29:13Z</time>
      </trkpt>
      <trkpt lat="43.38919200" lon="13.01834500">
        <ele>715.00000</ele>
        <time>2009-07-31T10:29:13Z</time>
      </trkpt>
      <trkpt lat="43.38919680" lon="13.01833660">
        <ele>715.00000</ele>
        <time>2009-07-31T10:29:13Z</time>
      </trkpt>
      <trkpt lat="43.38919990" lon="13.01833650">
        <ele>715.00000</ele>
        <time>2009-07-31T10:29:13Z</time>
      </trkpt>
      <trkpt lat="43.38920290" lon="13.01826780">
        <ele>715.00000</ele>
        <time>2009-07-31T10:29:15Z</time>
      </trkpt>
      <trkpt lat="43.38922930" lon="13.01827900">
        <ele>715.00000</ele>
        <time>2009-07-31T10:29:16Z</time>
      </trkpt>
      <trkpt lat="43.38924320" lon="13.01826880">
        <ele>715.00000</ele>
        <time>2009-07-31T10:29:17Z</time>
      </trkpt>
      <trkpt lat="43.38924500" lon="13.01826840">
        <ele>715.00000</ele>
        <time>2009-07-31T10:29:17Z</time>
      </trkpt>
      <trkpt lat="43.38925600" lon="13.01824400">
        <ele>715.00000</ele>
        <time>2009-07-31T10:29:18Z</time>
      </trkpt>
      <trkpt lat="43.38927850" lon="13.01823330">
        <ele>715.00000</ele>
        <time>2009-07-31T10:29:19Z</time>
      </trkpt>
      <trkpt lat="43.38933230" lon="13.01818300">
        <ele>715.00000</ele>
        <time>2009-07-31T10:29:22Z</time>
      </trkpt>
      <trkpt lat="43.38937180" lon="13.01817840">
        <ele>715.00000</ele>
        <time>2009-07-31T10:29:23Z</time>
      </trkpt>
      <trkpt lat="43.38938940" lon="13.01817720">
        <ele>715.00000</ele>
        <time>2009-07-31T10:29:24Z</time>
      </trkpt>
      <trkpt lat="43.38940890" lon="13.01817470">
        <ele>715.00000</ele>
        <time>2009-07-31T10:29:25Z</time>
      </trkpt>
      <trkpt lat="43.38942050" lon="13.01817620">
        <ele>715.00000</ele>
        <time>2009-07-31T10:29:25Z</time>
      </trkpt>
      <trkpt lat="43.38942090" lon="13.01818850">
        <ele>715.00000</ele>
        <time>2009-07-31T10:29:25Z</time>
      </trkpt>
      <trkpt lat="43.38942770" lon="13.01817340">
        <ele>715.00000</ele>
        <time>2009-07-31T10:29:26Z</time>
      </trkpt>
      <trkpt lat="43.38942450" lon="13.01816690">
        <ele>715.00000</ele>
        <time>2009-07-31T10:29:26Z</time>
      </trkpt>
      <trkpt lat="43.38944110" lon="13.01814470">
        <ele>715.00000</ele>
        <time>2009-07-31T10:29:27Z</time>
      </trkpt>
      <trkpt lat="43.38943040" lon="13.01814030">
        <ele>715.00000</ele>
        <time>2009-07-31T10:29:28Z</time>
      </trkpt>
      <trkpt lat="43.38942670" lon="13.01814610">
        <ele>715.00000</ele>
        <time>2009-07-31T10:29:28Z</time>
      </trkpt>
      <trkpt lat="43.38942420" lon="13.01814500">
        <ele>715.00000</ele>
        <time>2009-07-31T10:29:28Z</time>
      </trkpt>
      <trkpt lat="43.38942160" lon="13.01814550">
        <ele>715.00000</ele>
        <time>2009-07-31T10:29:28Z</time>
      </trkpt>
      <trkpt lat="43.38941960" lon="13.01814510">
        <ele>715.00000</ele>
        <time>2009-07-31T10:29:28Z</time>
      </trkpt>
      <trkpt lat="43.38941860" lon="13.01814540">
        <ele>715.00000</ele>
        <time>2009-07-31T10:29:28Z</time>
      </trkpt>
      <trkpt lat="43.38942000" lon="13.01814590">
        <ele>715.00000</ele>
        <time>2009-07-31T10:29:28Z</time>
      </trkpt>
      <trkpt lat="43.38942020" lon="13.01814580">
        <ele>715.00000</ele>
        <time>2009-07-31T10:29:28Z</time>
      </trkpt>
      <trkpt lat="43.38942200" lon="13.01814640">
        <ele>715.00000</ele>
        <time>2009-07-31T10:29:28Z</time>
      </trkpt>
      <trkpt lat="43.38942360" lon="13.01814690">
        <ele>715.00000</ele>
        <time>2009-07-31T10:29:28Z</time>
      </trkpt>
      <trkpt lat="43.38942220" lon="13.01814680">
        <ele>715.00000</ele>
        <time>2009-07-31T10:29:28Z</time>
      </trkpt>
      <trkpt lat="43.38943370" lon="13.01816930">
        <ele>715.00000</ele>
        <time>2009-07-31T10:29:29Z</time>
      </trkpt>
      <trkpt lat="43.38942860" lon="13.01817290">
        <ele>715.00000</ele>
        <time>2009-07-31T10:29:29Z</time>
      </trkpt>
      <trkpt lat="43.38942570" lon="13.01817410">
        <ele>715.00000</ele>
        <time>2009-07-31T10:29:29Z</time>
      </trkpt>
      <trkpt lat="43.38942730" lon="13.01817490">
        <ele>715.00000</ele>
        <time>2009-07-31T10:29:30Z</time>
      </trkpt>
      <trkpt lat="43.38944020" lon="13.01818270">
        <ele>715.00000</ele>
        <time>2009-07-31T10:29:30Z</time>
      </trkpt>
      <trkpt lat="43.38945160" lon="13.01819310">
        <ele>715.00000</ele>
        <time>2009-07-31T10:29:31Z</time>
      </trkpt>
      <trkpt lat="43.38945490" lon="13.01819970">
        <ele>715.00000</ele>
        <time>2009-07-31T10:29:31Z</time>
      </trkpt>
      <trkpt lat="43.38945140" lon="13.01821160">
        <ele>715.00000</ele>
        <time>2009-07-31T10:29:31Z</time>
      </trkpt>
      <trkpt lat="43.38945260" lon="13.01821190">
        <ele>715.00000</ele>
        <time>2009-07-31T10:29:31Z</time>
      </trkpt>
      <trkpt lat="43.38947020" lon="13.01822250">
        <ele>715.00000</ele>
        <time>2009-07-31T10:29:32Z</time>
      </trkpt>
      <trkpt lat="43.38947520" lon="13.01823180">
        <ele>715.00000</ele>
        <time>2009-07-31T10:29:32Z</time>
      </trkpt>
      <trkpt lat="43.38947740" lon="13.01823340">
        <ele>715.00000</ele>
        <time>2009-07-31T10:29:33Z</time>
      </trkpt>
      <trkpt lat="43.38946680" lon="13.01824830">
        <ele>715.00000</ele>
        <time>2009-07-31T10:29:33Z</time>
      </trkpt>
      <trkpt lat="43.38946700" lon="13.01824830">
        <ele>715.00000</ele>
        <time>2009-07-31T10:29:33Z</time>
      </trkpt>
      <trkpt lat="43.38946790" lon="13.01824810">
        <ele>715.00000</ele>
        <time>2009-07-31T10:29:33Z</time>
      </trkpt>
      <trkpt lat="43.38946850" lon="13.01824810">
        <ele>715.00000</ele>
        <time>2009-07-31T10:29:33Z</time>
      </trkpt>
      <trkpt lat="43.38946730" lon="13.01824770">
        <ele>715.00000</ele>
        <time>2009-07-31T10:29:33Z</time>
      </trkpt>
      <trkpt lat="43.38946860" lon="13.01824770">
        <ele>715.00000</ele>
        <time>2009-07-31T10:29:33Z</time>
      </trkpt>
      <trkpt lat="43.38947020" lon="13.01824730">
        <ele>715.00000</ele>
        <time>2009-07-31T10:29:33Z</time>
      </trkpt>
      <trkpt lat="43.38946850" lon="13.01824690">
        <ele>715.00000</ele>
        <time>2009-07-31T10:29:33Z</time>
      </trkpt>
      <trkpt lat="43.38946800" lon="13.01824660">
        <ele>715.00000</ele>
        <time>2009-07-31T10:29:33Z</time>
      </trkpt>
      <trkpt lat="43.38946780" lon="13.01824660">
        <ele>715.00000</ele>
        <time>2009-07-31T10:29:33Z</time>
      </trkpt>
      <trkpt lat="43.38946740" lon="13.01824710">
        <ele>715.00000</ele>
        <time>2009-07-31T10:29:33Z</time>
      </trkpt>
      <trkpt lat="43.38946540" lon="13.01824700">
        <ele>715.00000</ele>
        <time>2009-07-31T10:29:33Z</time>
      </trkpt>
      <trkpt lat="43.38946390" lon="13.01824690">
        <ele>715.00000</ele>
        <time>2009-07-31T10:29:33Z</time>
      </trkpt>
      <trkpt lat="43.38946270" lon="13.01824690">
        <ele>715.00000</ele>
        <time>2009-07-31T10:29:34Z</time>
      </trkpt>
      <trkpt lat="43.38946040" lon="13.01824670">
        <ele>715.00000</ele>
        <time>2009-07-31T10:29:34Z</time>
      </trkpt>
      <trkpt lat="43.38945730" lon="13.01824590">
        <ele>715.00000</ele>
        <time>2009-07-31T10:29:34Z</time>
      </trkpt>
      <trkpt lat="43.38945250" lon="13.01824520">
        <ele>715.00000</ele>
        <time>2009-07-31T10:29:34Z</time>
      </trkpt>
      <trkpt lat="43.38945070" lon="13.01824470">
        <ele>715.00000</ele>
        <time>2009-07-31T10:29:34Z</time>
      </trkpt>
      <trkpt lat="43.38945120" lon="13.01824450">
        <ele>715.00000</ele>
        <time>2009-07-31T10:29:34Z</time>
      </trkpt>
      <trkpt lat="43.38945090" lon="13.01824430">
        <ele>715.00000</ele>
        <time>2009-07-31T10:29:34Z</time>
      </trkpt>
      <trkpt lat="43.38945180" lon="13.01824480">
        <ele>715.00000</ele>
        <time>2009-07-31T10:29:34Z</time>
      </trkpt>
      <trkpt lat="43.38945220" lon="13.01824490">
        <ele>715.00000</ele>
        <time>2009-07-31T10:29:34Z</time>
      </trkpt>
      <trkpt lat="43.38945290" lon="13.01824500">
        <ele>715.00000</ele>
        <time>2009-07-31T10:29:34Z</time>
      </trkpt>
      <trkpt lat="43.38945420" lon="13.01824520">
        <ele>715.00000</ele>
        <time>2009-07-31T10:29:34Z</time>
      </trkpt>
      <trkpt lat="43.38945520" lon="13.01824520">
        <ele>715.00000</ele>
        <time>2009-07-31T10:29:34Z</time>
      </trkpt>
      <trkpt lat="43.38945560" lon="13.01824470">
        <ele>715.00000</ele>
        <time>2009-07-31T10:29:34Z</time>
      </trkpt>
      <trkpt lat="43.38945490" lon="13.01824430">
        <ele>715.00000</ele>
        <time>2009-07-31T10:29:34Z</time>
      </trkpt>
      <trkpt lat="43.38945410" lon="13.01824430">
        <ele>715.00000</ele>
        <time>2009-07-31T10:29:34Z</time>
      </trkpt>
      <trkpt lat="43.38945270" lon="13.01824410">
        <ele>715.00000</ele>
        <time>2009-07-31T10:29:34Z</time>
      </trkpt>
      <trkpt lat="43.38945120" lon="13.01824390">
        <ele>715.00000</ele>
        <time>2009-07-31T10:29:34Z</time>
      </trkpt>
      <trkpt lat="43.38945020" lon="13.01824370">
        <ele>715.00000</ele>
        <time>2009-07-31T10:29:34Z</time>
      </trkpt>
      <trkpt lat="43.38944950" lon="13.01824340">
        <ele>715.00000</ele>
        <time>2009-07-31T10:29:34Z</time>
      </trkpt>
      <trkpt lat="43.38944890" lon="13.01824320">
        <ele>715.00000</ele>
        <time>2009-07-31T10:29:34Z</time>
      </trkpt>
      <trkpt lat="43.38944710" lon="13.01824250">
        <ele>715.00000</ele>
        <time>2009-07-31T10:29:34Z</time>
      </trkpt>
      <trkpt lat="43.38944600" lon="13.01824240">
        <ele>715.00000</ele>
        <time>2009-07-31T10:29:34Z</time>
      </trkpt>
      <trkpt lat="43.38944530" lon="13.01824210">
        <ele>715.00000</ele>
        <time>2009-07-31T10:29:34Z</time>
      </trkpt>
      <trkpt lat="43.38944520" lon="13.01824210">
        <ele>715.00000</ele>
        <time>2009-07-31T10:29:34Z</time>
      </trkpt>
      <trkpt lat="43.38944500" lon="13.01824230">
        <ele>715.00000</ele>
        <time>2009-07-31T10:29:34Z</time>
      </trkpt>
      <trkpt lat="43.38944600" lon="13.01824270">
        <ele>715.00000</ele>
        <time>2009-07-31T10:29:34Z</time>
      </trkpt>
      <trkpt lat="43.38944600" lon="13.01824260">
        <ele>715.00000</ele>
        <time>2009-07-31T10:29:34Z</time>
      </trkpt>
      <trkpt lat="43.38944500" lon="13.01824230">
        <ele>715.00000</ele>
        <time>2009-07-31T10:29:34Z</time>
      </trkpt>
      <trkpt lat="43.38944530" lon="13.01824240">
        <ele>715.00000</ele>
        <time>2009-07-31T10:29:34Z</time>
      </trkpt>
      <trkpt lat="43.38944520" lon="13.01824260">
        <ele>715.00000</ele>
        <time>2009-07-31T10:29:34Z</time>
      </trkpt>
      <trkpt lat="43.38944570" lon="13.01824280">
        <ele>715.00000</ele>
        <time>2009-07-31T10:29:34Z</time>
      </trkpt>
      <trkpt lat="43.38944540" lon="13.01824300">
        <ele>715.00000</ele>
        <time>2009-07-31T10:29:34Z</time>
      </trkpt>
      <trkpt lat="43.38944750" lon="13.01824360">
        <ele>715.00000</ele>
        <time>2009-07-31T10:29:35Z</time>
      </trkpt>
      <trkpt lat="43.38944940" lon="13.01824370">
        <ele>715.00000</ele>
        <time>2009-07-31T10:29:35Z</time>
      </trkpt>
      <trkpt lat="43.38944560" lon="13.01824280">
        <ele>715.00000</ele>
        <time>2009-07-31T10:29:35Z</time>
      </trkpt>
      <trkpt lat="43.38944060" lon="13.01824200">
        <ele>715.00000</ele>
        <time>2009-07-31T10:29:35Z</time>
      </trkpt>
      <trkpt lat="43.38943880" lon="13.01824160">
        <ele>715.00000</ele>
        <time>2009-07-31T10:29:35Z</time>
      </trkpt>
      <trkpt lat="43.38943970" lon="13.01824130">
        <ele>715.00000</ele>
        <time>2009-07-31T10:29:35Z</time>
      </trkpt>
      <trkpt lat="43.38944330" lon="13.01824120">
        <ele>715.00000</ele>
        <time>2009-07-31T10:29:35Z</time>
      </trkpt>
      <trkpt lat="43.38944810" lon="13.01824220">
        <ele>715.00000</ele>
        <time>2009-07-31T10:29:35Z</time>
      </trkpt>
      <trkpt lat="43.38945240" lon="13.01824340">
        <ele>715.00000</ele>
        <time>2009-07-31T10:29:36Z</time>
      </trkpt>
      <trkpt lat="43.38945520" lon="13.01824420">
        <ele>715.00000</ele>
        <time>2009-07-31T10:29:36Z</time>
      </trkpt>
      <trkpt lat="43.38945570" lon="13.01824430">
        <ele>715.00000</ele>
        <time>2009-07-31T10:29:36Z</time>
      </trkpt>
      <trkpt lat="43.38945290" lon="13.01824420">
        <ele>715.00000</ele>
        <time>2009-07-31T10:29:36Z</time>
      </trkpt>
      <trkpt lat="43.38944900" lon="13.01824350">
        <ele>715.00000</ele>
        <time>2009-07-31T10:29:36Z</time>
      </trkpt>
      <trkpt lat="43.38943670" lon="13.01824540">
        <ele>715.00000</ele>
        <time>2009-07-31T10:29:36Z</time>
      </trkpt>
      <trkpt lat="43.38943260" lon="13.01824620">
        <ele>715.00000</ele>
        <time>2009-07-31T10:29:37Z</time>
      </trkpt>
      <trkpt lat="43.38943470" lon="13.01823190">
        <ele>715.00000</ele>
        <time>2009-07-31T10:29:37Z</time>
      </trkpt>
      <trkpt lat="43.38943250" lon="13.01823090">
        <ele>715.00000</ele>
        <time>2009-07-31T10:29:37Z</time>
      </trkpt>
      <trkpt lat="43.38943100" lon="13.01823080">
        <ele>715.00000</ele>
        <time>2009-07-31T10:29:37Z</time>
      </trkpt>
      <trkpt lat="43.38942990" lon="13.01823090">
        <ele>715.00000</ele>
        <time>2009-07-31T10:29:37Z</time>
      </trkpt>
      <trkpt lat="43.38943010" lon="13.01823090">
        <ele>715.00000</ele>
        <time>2009-07-31T10:29:37Z</time>
      </trkpt>
      <trkpt lat="43.38943140" lon="13.01823080">
        <ele>715.00000</ele>
        <time>2009-07-31T10:29:37Z</time>
      </trkpt>
      <trkpt lat="43.38943290" lon="13.01823140">
        <ele>715.00000</ele>
        <time>2009-07-31T10:29:37Z</time>
      </trkpt>
      <trkpt lat="43.38943330" lon="13.01823120">
        <ele>715.00000</ele>
        <time>2009-07-31T10:29:37Z</time>
      </trkpt>
      <trkpt lat="43.38943430" lon="13.01822950">
        <ele>715.00000</ele>
        <time>2009-07-31T10:29:37Z</time>
      </trkpt>
      <trkpt lat="43.38943600" lon="13.01822880">
        <ele>715.00000</ele>
        <time>2009-07-31T10:29:38Z</time>
      </trkpt>
      <trkpt lat="43.38944020" lon="13.01822900">
        <ele>715.00000</ele>
        <time>2009-07-31T10:29:38Z</time>
      </trkpt>
      <trkpt lat="43.38944640" lon="13.01823220">
        <ele>715.00000</ele>
        <time>2009-07-31T10:29:38Z</time>
      </trkpt>
      <trkpt lat="43.38947960" lon="13.01826110">
        <ele>715.00000</ele>
        <time>2009-07-31T10:29:40Z</time>
      </trkpt>
      <trkpt lat="43.38949390" lon="13.01827800">
        <ele>715.00000</ele>
        <time>2009-07-31T10:29:40Z</time>
      </trkpt>
      <trkpt lat="43.38951680" lon="13.01830610">
        <ele>715.00000</ele>
        <time>2009-07-31T10:29:42Z</time>
      </trkpt>
      <trkpt lat="43.38952760" lon="13.01831640">
        <ele>715.00000</ele>
        <time>2009-07-31T10:29:42Z</time>
      </trkpt>
      <trkpt lat="43.38953840" lon="13.01832080">
        <ele>715.00000</ele>
        <time>2009-07-31T10:29:42Z</time>
      </trkpt>
      <trkpt lat="43.38955980" lon="13.01833480">
        <ele>715.00000</ele>
        <time>2009-07-31T10:29:43Z</time>
      </trkpt>
      <trkpt lat="43.38957690" lon="13.01836130">
        <ele>715.00000</ele>
        <time>2009-07-31T10:29:44Z</time>
      </trkpt>
      <trkpt lat="43.38959610" lon="13.01838230">
        <ele>715.00000</ele>
        <time>2009-07-31T10:29:45Z</time>
      </trkpt>
      <trkpt lat="43.38962670" lon="13.01843240">
        <ele>715.00000</ele>
        <time>2009-07-31T10:29:47Z</time>
      </trkpt>
      <trkpt lat="43.38965000" lon="13.01841930">
        <ele>715.00000</ele>
        <time>2009-07-31T10:29:48Z</time>
      </trkpt>
      <trkpt lat="43.38967810" lon="13.01841310">
        <ele>715.00000</ele>
        <time>2009-07-31T10:29:49Z</time>
      </trkpt>
      <trkpt lat="43.38970480" lon="13.01841810">
        <ele>715.00000</ele>
        <time>2009-07-31T10:29:51Z</time>
      </trkpt>
      <trkpt lat="43.38972710" lon="13.01841990">
        <ele>715.00000</ele>
        <time>2009-07-31T10:29:51Z</time>
      </trkpt>
      <trkpt lat="43.38977240" lon="13.01840520">
        <ele>715.00000</ele>
        <time>2009-07-31T10:29:53Z</time>
      </trkpt>
      <trkpt lat="43.38978750" lon="13.01840220">
        <ele>715.00000</ele>
        <time>2009-07-31T10:29:54Z</time>
      </trkpt>
      <trkpt lat="43.38980130" lon="13.01839840">
        <ele>715.00000</ele>
        <time>2009-07-31T10:29:54Z</time>
      </trkpt>
      <trkpt lat="43.38982810" lon="13.01837780">
        <ele>715.00000</ele>
        <time>2009-07-31T10:29:56Z</time>
      </trkpt>
      <trkpt lat="43.38983890" lon="13.01837900">
        <ele>715.00000</ele>
        <time>2009-07-31T10:29:56Z</time>
      </trkpt>
      <trkpt lat="43.38986510" lon="13.01841060">
        <ele>715.00000</ele>
        <time>2009-07-31T10:29:58Z</time>
      </trkpt>
      <trkpt lat="43.38987750" lon="13.01841430">
        <ele>715.00000</ele>
        <time>2009-07-31T10:29:58Z</time>
      </trkpt>
      <trkpt lat="43.38990770" lon="13.01841260">
        <ele>715.00000</ele>
        <time>2009-07-31T10:29:59Z</time>
      </trkpt>
      <trkpt lat="43.38994160" lon="13.01837670">
        <ele>715.00000</ele>
        <time>2009-07-31T10:30:01Z</time>
      </trkpt>
      <trkpt lat="43.38996000" lon="13.01835800">
        <ele>715.00000</ele>
        <time>2009-07-31T10:30:02Z</time>
      </trkpt>
      <trkpt lat="43.38997360" lon="13.01835240">
        <ele>715.00000</ele>
        <time>2009-07-31T10:30:02Z</time>
      </trkpt>
      <trkpt lat="43.38998070" lon="13.01833120">
        <ele>715.00000</ele>
        <time>2009-07-31T10:30:03Z</time>
      </trkpt>
      <trkpt lat="43.38996640" lon="13.01829360">
        <ele>715.00000</ele>
        <time>2009-07-31T10:30:04Z</time>
      </trkpt>
      <trkpt lat="43.38997210" lon="13.01827740">
        <ele>715.00000</ele>
        <time>2009-07-31T10:30:05Z</time>
      </trkpt>
      <trkpt lat="43.38998080" lon="13.01826770">
        <ele>715.00000</ele>
        <time>2009-07-31T10:30:05Z</time>
      </trkpt>
      <trkpt lat="43.38999700" lon="13.01824520">
        <ele>715.00000</ele>
        <time>2009-07-31T10:30:06Z</time>
      </trkpt>
      <trkpt lat="43.39000860" lon="13.01822310">
        <ele>715.00000</ele>
        <time>2009-07-31T10:30:07Z</time>
      </trkpt>
      <trkpt lat="43.39001760" lon="13.01820120">
        <ele>715.00000</ele>
        <time>2009-07-31T10:30:08Z</time>
      </trkpt>
      <trkpt lat="43.39003120" lon="13.01818590">
        <ele>715.00000</ele>
        <time>2009-07-31T10:30:08Z</time>
      </trkpt>
      <trkpt lat="43.39004710" lon="13.01816530">
        <ele>715.00000</ele>
        <time>2009-07-31T10:30:09Z</time>
      </trkpt>
      <trkpt lat="43.39005950" lon="13.01814510">
        <ele>715.00000</ele>
        <time>2009-07-31T10:30:10Z</time>
      </trkpt>
      <trkpt lat="43.39007890" lon="13.01813900">
        <ele>715.00000</ele>
        <time>2009-07-31T10:30:11Z</time>
      </trkpt>
      <trkpt lat="43.39009500" lon="13.01813730">
        <ele>715.00000</ele>
        <time>2009-07-31T10:30:12Z</time>
      </trkpt>
      <trkpt lat="43.39010930" lon="13.01813840">
        <ele>715.00000</ele>
        <time>2009-07-31T10:30:12Z</time>
      </trkpt>
      <trkpt lat="43.39013790" lon="13.01814180">
        <ele>715.00000</ele>
        <time>2009-07-31T10:30:13Z</time>
      </trkpt>
      <trkpt lat="43.39016300" lon="13.01814400">
        <ele>715.00000</ele>
        <time>2009-07-31T10:30:14Z</time>
      </trkpt>
      <trkpt lat="43.39018130" lon="13.01815090">
        <ele>715.00000</ele>
        <time>2009-07-31T10:30:15Z</time>
      </trkpt>
      <trkpt lat="43.39020820" lon="13.01814350">
        <ele>715.00000</ele>
        <time>2009-07-31T10:30:16Z</time>
      </trkpt>
      <trkpt lat="43.39022470" lon="13.01813880">
        <ele>715.00000</ele>
        <time>2009-07-31T10:30:17Z</time>
      </trkpt>
      <trkpt lat="43.39023990" lon="13.01813150">
        <ele>715.00000</ele>
        <time>2009-07-31T10:30:17Z</time>
      </trkpt>
      <trkpt lat="43.39025040" lon="13.01814370">
        <ele>715.00000</ele>
        <time>2009-07-31T10:30:18Z</time>
      </trkpt>
      <trkpt lat="43.39026220" lon="13.01814880">
        <ele>715.00000</ele>
        <time>2009-07-31T10:30:19Z</time>
      </trkpt>
      <trkpt lat="43.39027210" lon="13.01814810">
        <ele>715.00000</ele>
        <time>2009-07-31T10:30:19Z</time>
      </trkpt>
      <trkpt lat="43.39028390" lon="13.01814900">
        <ele>715.00000</ele>
        <time>2009-07-31T10:30:19Z</time>
      </trkpt>
      <trkpt lat="43.39030010" lon="13.01814740">
        <ele>715.00000</ele>
        <time>2009-07-31T10:30:20Z</time>
      </trkpt>
      <trkpt lat="43.39033190" lon="13.01815840">
        <ele>715.00000</ele>
        <time>2009-07-31T10:30:21Z</time>
      </trkpt>
      <trkpt lat="43.39035630" lon="13.01815910">
        <ele>715.00000</ele>
        <time>2009-07-31T10:30:22Z</time>
      </trkpt>
      <trkpt lat="43.39038350" lon="13.01813690">
        <ele>715.00000</ele>
        <time>2009-07-31T10:30:24Z</time>
      </trkpt>
      <trkpt lat="43.39039640" lon="13.01812570">
        <ele>715.00000</ele>
        <time>2009-07-31T10:30:24Z</time>
      </trkpt>
      <trkpt lat="43.39041130" lon="13.01810470">
        <ele>715.00000</ele>
        <time>2009-07-31T10:30:25Z</time>
      </trkpt>
      <trkpt lat="43.39042690" lon="13.01808160">
        <ele>693.00000</ele>
        <time>2009-07-31T10:30:26Z</time>
      </trkpt>
      <trkpt lat="43.39042600" lon="13.01805050">
        <ele>693.00000</ele>
        <time>2009-07-31T10:30:27Z</time>
      </trkpt>
      <trkpt lat="43.39042950" lon="13.01804190">
        <ele>693.00000</ele>
        <time>2009-07-31T10:30:27Z</time>
      </trkpt>
      <trkpt lat="43.39044670" lon="13.01801790">
        <ele>693.00000</ele>
        <time>2009-07-31T10:30:28Z</time>
      </trkpt>
      <trkpt lat="43.39045100" lon="13.01796580">
        <ele>693.00000</ele>
        <time>2009-07-31T10:30:30Z</time>
      </trkpt>
      <trkpt lat="43.39045080" lon="13.01793270">
        <ele>693.00000</ele>
        <time>2009-07-31T10:30:31Z</time>
      </trkpt>
      <trkpt lat="43.39046240" lon="13.01791470">
        <ele>709.00000</ele>
        <time>2009-07-31T10:30:31Z</time>
      </trkpt>
      <trkpt lat="43.39048010" lon="13.01789470">
        <ele>709.00000</ele>
        <time>2009-07-31T10:30:32Z</time>
      </trkpt>
      <trkpt lat="43.39050060" lon="13.01787920">
        <ele>709.00000</ele>
        <time>2009-07-31T10:30:33Z</time>
      </trkpt>
      <trkpt lat="43.39051060" lon="13.01786600">
        <ele>709.00000</ele>
        <time>2009-07-31T10:30:34Z</time>
      </trkpt>
      <trkpt lat="43.39053870" lon="13.01783750">
        <ele>709.00000</ele>
        <time>2009-07-31T10:30:35Z</time>
      </trkpt>
      <trkpt lat="43.39055490" lon="13.01782080">
        <ele>709.00000</ele>
        <time>2009-07-31T10:30:36Z</time>
      </trkpt>
      <trkpt lat="43.39058270" lon="13.01778190">
        <ele>709.00000</ele>
        <time>2009-07-31T10:30:38Z</time>
      </trkpt>
      <trkpt lat="43.39058150" lon="13.01774510">
        <ele>709.00000</ele>
        <time>2009-07-31T10:30:39Z</time>
      </trkpt>
      <trkpt lat="43.39058540" lon="13.01771550">
        <ele>709.00000</ele>
        <time>2009-07-31T10:30:40Z</time>
      </trkpt>
      <trkpt lat="43.39059740" lon="13.01769420">
        <ele>709.00000</ele>
        <time>2009-07-31T10:30:40Z</time>
      </trkpt>
      <trkpt lat="43.39061040" lon="13.01766640">
        <ele>709.00000</ele>
        <time>2009-07-31T10:30:41Z</time>
      </trkpt>
      <trkpt lat="43.39061920" lon="13.01764010">
        <ele>709.00000</ele>
        <time>2009-07-31T10:30:42Z</time>
      </trkpt>
      <trkpt lat="43.39063600" lon="13.01761210">
        <ele>709.00000</ele>
        <time>2009-07-31T10:30:43Z</time>
      </trkpt>
      <trkpt lat="43.39063030" lon="13.01757510">
        <ele>709.00000</ele>
        <time>2009-07-31T10:30:44Z</time>
      </trkpt>
      <trkpt lat="43.39063950" lon="13.01755520">
        <ele>709.00000</ele>
        <time>2009-07-31T10:30:45Z</time>
      </trkpt>
      <trkpt lat="43.39067110" lon="13.01752330">
        <ele>709.00000</ele>
        <time>2009-07-31T10:30:47Z</time>
      </trkpt>
      <trkpt lat="43.39065780" lon="13.01748200">
        <ele>709.00000</ele>
        <time>2009-07-31T10:30:48Z</time>
      </trkpt>
      <trkpt lat="43.39066680" lon="13.01745450">
        <ele>709.00000</ele>
        <time>2009-07-31T10:30:49Z</time>
      </trkpt>
      <trkpt lat="43.39068090" lon="13.01742790">
        <ele>709.00000</ele>
        <time>2009-07-31T10:30:50Z</time>
      </trkpt>
      <trkpt lat="43.39069830" lon="13.01740660">
        <ele>709.00000</ele>
        <time>2009-07-31T10:30:51Z</time>
      </trkpt>
      <trkpt lat="43.39071890" lon="13.01739780">
        <ele>709.00000</ele>
        <time>2009-07-31T10:30:51Z</time>
      </trkpt>
      <trkpt lat="43.39072680" lon="13.01739730">
        <ele>709.00000</ele>
        <time>2009-07-31T10:30:52Z</time>
      </trkpt>
      <trkpt lat="43.39072920" lon="13.01739920">
        <ele>709.00000</ele>
        <time>2009-07-31T10:30:52Z</time>
      </trkpt>
      <trkpt lat="43.39074620" lon="13.01739590">
        <ele>709.00000</ele>
        <time>2009-07-31T10:30:53Z</time>
      </trkpt>
      <trkpt lat="43.39074830" lon="13.01739620">
        <ele>709.00000</ele>
        <time>2009-07-31T10:30:53Z</time>
      </trkpt>
      <trkpt lat="43.39074970" lon="13.01739630">
        <ele>709.00000</ele>
        <time>2009-07-31T10:30:53Z</time>
      </trkpt>
      <trkpt lat="43.39075060" lon="13.01739620">
        <ele>709.00000</ele>
        <time>2009-07-31T10:30:53Z</time>
      </trkpt>
      <trkpt lat="43.39074940" lon="13.01739590">
        <ele>709.00000</ele>
        <time>2009-07-31T10:30:53Z</time>
      </trkpt>
      <trkpt lat="43.39074920" lon="13.01739580">
        <ele>709.00000</ele>
        <time>2009-07-31T10:30:53Z</time>
      </trkpt>
      <trkpt lat="43.39074890" lon="13.01739570">
        <ele>709.00000</ele>
        <time>2009-07-31T10:30:53Z</time>
      </trkpt>
      <trkpt lat="43.39074840" lon="13.01739560">
        <ele>709.00000</ele>
        <time>2009-07-31T10:30:53Z</time>
      </trkpt>
      <trkpt lat="43.39074780" lon="13.01739520">
        <ele>709.00000</ele>
        <time>2009-07-31T10:30:53Z</time>
      </trkpt>
      <trkpt lat="43.39074470" lon="13.01739330">
        <ele>709.00000</ele>
        <time>2009-07-31T10:30:53Z</time>
      </trkpt>
      <trkpt lat="43.39074290" lon="13.01739170">
        <ele>709.00000</ele>
        <time>2009-07-31T10:30:53Z</time>
      </trkpt>
      <trkpt lat="43.39074140" lon="13.01739020">
        <ele>709.00000</ele>
        <time>2009-07-31T10:30:53Z</time>
      </trkpt>
      <trkpt lat="43.39074100" lon="13.01738890">
        <ele>709.00000</ele>
        <time>2009-07-31T10:30:53Z</time>
      </trkpt>
      <trkpt lat="43.39074290" lon="13.01738840">
        <ele>709.00000</ele>
        <time>2009-07-31T10:30:53Z</time>
      </trkpt>
      <trkpt lat="43.39074530" lon="13.01736010">
        <ele>709.00000</ele>
        <time>2009-07-31T10:30:54Z</time>
      </trkpt>
      <trkpt lat="43.39071500" lon="13.01731570">
        <ele>709.00000</ele>
        <time>2009-07-31T10:30:56Z</time>
      </trkpt>
      <trkpt lat="43.39070860" lon="13.01727880">
        <ele>709.00000</ele>
        <time>2009-07-31T10:30:57Z</time>
      </trkpt>
      <trkpt lat="43.39070920" lon="13.01725830">
        <ele>709.00000</ele>
        <time>2009-07-31T10:30:57Z</time>
      </trkpt>
      <trkpt lat="43.39074280" lon="13.01721980">
        <ele>709.00000</ele>
        <time>2009-07-31T10:30:59Z</time>
      </trkpt>
      <trkpt lat="43.39075430" lon="13.01718880">
        <ele>709.00000</ele>
        <time>2009-07-31T10:31:00Z</time>
      </trkpt>
      <trkpt lat="43.39075990" lon="13.01716990">
        <ele>709.00000</ele>
        <time>2009-07-31T10:31:01Z</time>
      </trkpt>
      <trkpt lat="43.39077390" lon="13.01712590">
        <ele>709.00000</ele>
        <time>2009-07-31T10:31:02Z</time>
      </trkpt>
      <trkpt lat="43.39076480" lon="13.01709730">
        <ele>709.00000</ele>
        <time>2009-07-31T10:31:03Z</time>
      </trkpt>
      <trkpt lat="43.39077010" lon="13.01706830">
        <ele>713.00000</ele>
        <time>2009-07-31T10:31:04Z</time>
      </trkpt>
      <trkpt lat="43.39076460" lon="13.01703300">
        <ele>713.00000</ele>
        <time>2009-07-31T10:31:05Z</time>
      </trkpt>
      <trkpt lat="43.39076270" lon="13.01699560">
        <ele>713.00000</ele>
        <time>2009-07-31T10:31:06Z</time>
      </trkpt>
      <trkpt lat="43.39076460" lon="13.01695500">
        <ele>713.00000</ele>
        <time>2009-07-31T10:31:07Z</time>
      </trkpt>
      <trkpt lat="43.39077180" lon="13.01693950">
        <ele>713.00000</ele>
        <time>2009-07-31T10:31:08Z</time>
      </trkpt>
      <trkpt lat="43.39077580" lon="13.01690160">
        <ele>713.00000</ele>
        <time>2009-07-31T10:31:09Z</time>
      </trkpt>
      <trkpt lat="43.39078300" lon="13.01687390">
        <ele>713.00000</ele>
        <time>2009-07-31T10:31:10Z</time>
      </trkpt>
      <trkpt lat="43.39080430" lon="13.01684160">
        <ele>713.00000</ele>
        <time>2009-07-31T10:31:11Z</time>
      </trkpt>
      <trkpt lat="43.39081520" lon="13.01681800">
        <ele>713.00000</ele>
        <time>2009-07-31T10:31:12Z</time>
      </trkpt>
      <trkpt lat="43.39082410" lon="13.01679970">
        <ele>713.00000</ele>
        <time>2009-07-31T10:31:13Z</time>
      </trkpt>
      <trkpt lat="43.39085830" lon="13.01677580">
        <ele>713.00000</ele>
        <time>2009-07-31T10:31:14Z</time>
      </trkpt>
      <trkpt lat="43.39084490" lon="13.01673350">
        <ele>713.00000</ele>
        <time>2009-07-31T10:31:15Z</time>
      </trkpt>
      <trkpt lat="43.39083710" lon="13.01670870">
        <ele>713.00000</ele>
        <time>2009-07-31T10:31:16Z</time>
      </trkpt>
      <trkpt lat="43.39081600" lon="13.01668610">
        <ele>713.00000</ele>
        <time>2009-07-31T10:31:17Z</time>
      </trkpt>
      <trkpt lat="43.39079380" lon="13.01664740">
        <ele>713.00000</ele>
        <time>2009-07-31T10:31:19Z</time>
      </trkpt>
      <trkpt lat="43.39079890" lon="13.01661070">
        <ele>713.00000</ele>
        <time>2009-07-31T10:31:20Z</time>
      </trkpt>
      <trkpt lat="43.39080050" lon="13.01659420">
        <ele>713.00000</ele>
        <time>2009-07-31T10:31:20Z</time>
      </trkpt>
      <trkpt lat="43.39079010" lon="13.01657140">
        <ele>713.00000</ele>
        <time>2009-07-31T10:31:21Z</time>
      </trkpt>
      <trkpt lat="43.39078870" lon="13.01654570">
        <ele>713.00000</ele>
        <time>2009-07-31T10:31:22Z</time>
      </trkpt>
      <trkpt lat="43.39079350" lon="13.01654590">
        <ele>713.00000</ele>
        <time>2009-07-31T10:31:22Z</time>
      </trkpt>
      <trkpt lat="43.39079760" lon="13.01654590">
        <ele>713.00000</ele>
        <time>2009-07-31T10:31:22Z</time>
      </trkpt>
      <trkpt lat="43.39080050" lon="13.01654520">
        <ele>713.00000</ele>
        <time>2009-07-31T10:31:22Z</time>
      </trkpt>
      <trkpt lat="43.39080010" lon="13.01650110">
        <ele>713.00000</ele>
        <time>2009-07-31T10:31:24Z</time>
      </trkpt>
      <trkpt lat="43.39080680" lon="13.01648950">
        <ele>713.00000</ele>
        <time>2009-07-31T10:31:24Z</time>
      </trkpt>
      <trkpt lat="43.39080610" lon="13.01647110">
        <ele>713.00000</ele>
        <time>2009-07-31T10:31:25Z</time>
      </trkpt>
      <trkpt lat="43.39080750" lon="13.01644790">
        <ele>713.00000</ele>
        <time>2009-07-31T10:31:25Z</time>
      </trkpt>
      <trkpt lat="43.39080960" lon="13.01644650">
        <ele>713.00000</ele>
        <time>2009-07-31T10:31:25Z</time>
      </trkpt>
      <trkpt lat="43.39081590" lon="13.01643970">
        <ele>713.00000</ele>
        <time>2009-07-31T10:31:26Z</time>
      </trkpt>
      <trkpt lat="43.39080650" lon="13.01641220">
        <ele>713.00000</ele>
        <time>2009-07-31T10:31:26Z</time>
      </trkpt>
      <trkpt lat="43.39079690" lon="13.01639680">
        <ele>713.00000</ele>
        <time>2009-07-31T10:31:27Z</time>
      </trkpt>
      <trkpt lat="43.39079840" lon="13.01639540">
        <ele>713.00000</ele>
        <time>2009-07-31T10:31:27Z</time>
      </trkpt>
      <trkpt lat="43.39078290" lon="13.01634300">
        <ele>713.00000</ele>
        <time>2009-07-31T10:31:29Z</time>
      </trkpt>
      <trkpt lat="43.39077010" lon="13.01628890">
        <ele>713.00000</ele>
        <time>2009-07-31T10:31:30Z</time>
      </trkpt>
      <trkpt lat="43.39075400" lon="13.01626100">
        <ele>713.00000</ele>
        <time>2009-07-31T10:31:31Z</time>
      </trkpt>
      <trkpt lat="43.39074650" lon="13.01624690">
        <ele>705.00000</ele>
        <time>2009-07-31T10:31:32Z</time>
      </trkpt>
      <trkpt lat="43.39074910" lon="13.01624590">
        <ele>705.00000</ele>
        <time>2009-07-31T10:31:32Z</time>
      </trkpt>
      <trkpt lat="43.39074910" lon="13.01624400">
        <ele>705.00000</ele>
        <time>2009-07-31T10:31:32Z</time>
      </trkpt>
      <trkpt lat="43.39074780" lon="13.01624100">
        <ele>705.00000</ele>
        <time>2009-07-31T10:31:32Z</time>
      </trkpt>
      <trkpt lat="43.39069100" lon="13.01611310">
        <ele>705.00000</ele>
        <time>2009-07-31T10:31:37Z</time>
      </trkpt>
      <trkpt lat="43.39068840" lon="13.01607590">
        <ele>705.00000</ele>
        <time>2009-07-31T10:31:38Z</time>
      </trkpt>
      <trkpt lat="43.39069340" lon="13.01603610">
        <ele>705.00000</ele>
        <time>2009-07-31T10:31:39Z</time>
      </trkpt>
      <trkpt lat="43.39070190" lon="13.01598130">
        <ele>705.00000</ele>
        <time>2009-07-31T10:31:41Z</time>
      </trkpt>
      <trkpt lat="43.39071270" lon="13.01595700">
        <ele>705.00000</ele>
        <time>2009-07-31T10:31:41Z</time>
      </trkpt>
      <trkpt lat="43.39071450" lon="13.01595620">
        <ele>705.00000</ele>
        <time>2009-07-31T10:31:41Z</time>
      </trkpt>
      <trkpt lat="43.39071760" lon="13.01595570">
        <ele>705.00000</ele>
        <time>2009-07-31T10:31:42Z</time>
      </trkpt>
      <trkpt lat="43.39071760" lon="13.01595400">
        <ele>705.00000</ele>
        <time>2009-07-31T10:31:42Z</time>
      </trkpt>
      <trkpt lat="43.39072010" lon="13.01595220">
        <ele>705.00000</ele>
        <time>2009-07-31T10:31:42Z</time>
      </trkpt>
      <trkpt lat="43.39072400" lon="13.01595120">
        <ele>705.00000</ele>
        <time>2009-07-31T10:31:42Z</time>
      </trkpt>
      <trkpt lat="43.39072800" lon="13.01595000">
        <ele>705.00000</ele>
        <time>2009-07-31T10:31:42Z</time>
      </trkpt>
      <trkpt lat="43.39071950" lon="13.01591340">
        <ele>705.00000</ele>
        <time>2009-07-31T10:31:43Z</time>
      </trkpt>
      <trkpt lat="43.39072070" lon="13.01584760">
        <ele>705.00000</ele>
        <time>2009-07-31T10:31:45Z</time>
      </trkpt>
      <trkpt lat="43.39074040" lon="13.01581470">
        <ele>705.00000</ele>
        <time>2009-07-31T10:31:46Z</time>
      </trkpt>
      <trkpt lat="43.39073800" lon="13.01578940">
        <ele>705.00000</ele>
        <time>2009-07-31T10:31:47Z</time>
      </trkpt>
      <trkpt lat="43.39073780" lon="13.01578770">
        <ele>705.00000</ele>
        <time>2009-07-31T10:31:47Z</time>
      </trkpt>
      <trkpt lat="43.39073700" lon="13.01578650">
        <ele>705.00000</ele>
        <time>2009-07-31T10:31:47Z</time>
      </trkpt>
      <trkpt lat="43.39073570" lon="13.01578440">
        <ele>705.00000</ele>
        <time>2009-07-31T10:31:47Z</time>
      </trkpt>
      <trkpt lat="43.39073930" lon="13.01575760">
        <ele>705.00000</ele>
        <time>2009-07-31T10:31:48Z</time>
      </trkpt>
      <trkpt lat="43.39071200" lon="13.01568610">
        <ele>705.00000</ele>
        <time>2009-07-31T10:31:50Z</time>
      </trkpt>
      <trkpt lat="43.39070580" lon="13.01565120">
        <ele>705.00000</ele>
        <time>2009-07-31T10:31:51Z</time>
      </trkpt>
      <trkpt lat="43.39071100" lon="13.01562700">
        <ele>705.00000</ele>
        <time>2009-07-31T10:31:52Z</time>
      </trkpt>
      <trkpt lat="43.39070890" lon="13.01561180">
        <ele>705.00000</ele>
        <time>2009-07-31T10:31:53Z</time>
      </trkpt>
      <trkpt lat="43.39071440" lon="13.01555320">
        <ele>705.00000</ele>
        <time>2009-07-31T10:31:54Z</time>
      </trkpt>
      <trkpt lat="43.39073320" lon="13.01550790">
        <ele>705.00000</ele>
        <time>2009-07-31T10:31:56Z</time>
      </trkpt>
      <trkpt lat="43.39074430" lon="13.01545580">
        <ele>705.00000</ele>
        <time>2009-07-31T10:31:57Z</time>
      </trkpt>
      <trkpt lat="43.39075990" lon="13.01540560">
        <ele>691.00000</ele>
        <time>2009-07-31T10:31:59Z</time>
      </trkpt>
      <trkpt lat="43.39075100" lon="13.01537910">
        <ele>691.00000</ele>
        <time>2009-07-31T10:32:00Z</time>
      </trkpt>
      <trkpt lat="43.39075580" lon="13.01532650">
        <ele>691.00000</ele>
        <time>2009-07-31T10:32:01Z</time>
      </trkpt>
      <trkpt lat="43.39076280" lon="13.01529740">
        <ele>691.00000</ele>
        <time>2009-07-31T10:32:02Z</time>
      </trkpt>
      <trkpt lat="43.39075770" lon="13.01526300">
        <ele>691.00000</ele>
        <time>2009-07-31T10:32:03Z</time>
      </trkpt>
      <trkpt lat="43.39074840" lon="13.01522460">
        <ele>691.00000</ele>
        <time>2009-07-31T10:32:04Z</time>
      </trkpt>
      <trkpt lat="43.39075500" lon="13.01520170">
        <ele>691.00000</ele>
        <time>2009-07-31T10:32:05Z</time>
      </trkpt>
      <trkpt lat="43.39075280" lon="13.01520010">
        <ele>691.00000</ele>
        <time>2009-07-31T10:32:05Z</time>
      </trkpt>
      <trkpt lat="43.39074830" lon="13.01517580">
        <ele>691.00000</ele>
        <time>2009-07-31T10:32:06Z</time>
      </trkpt>
      <trkpt lat="43.39075040" lon="13.01515030">
        <ele>691.00000</ele>
        <time>2009-07-31T10:32:07Z</time>
      </trkpt>
      <trkpt lat="43.39074870" lon="13.01513550">
        <ele>691.00000</ele>
        <time>2009-07-31T10:32:07Z</time>
      </trkpt>
      <trkpt lat="43.39074820" lon="13.01513390">
        <ele>691.00000</ele>
        <time>2009-07-31T10:32:07Z</time>
      </trkpt>
      <trkpt lat="43.39074860" lon="13.01513220">
        <ele>691.00000</ele>
        <time>2009-07-31T10:32:07Z</time>
      </trkpt>
      <trkpt lat="43.39075180" lon="13.01513130">
        <ele>691.00000</ele>
        <time>2009-07-31T10:32:07Z</time>
      </trkpt>
      <trkpt lat="43.39075550" lon="13.01513080">
        <ele>691.00000</ele>
        <time>2009-07-31T10:32:08Z</time>
      </trkpt>
      <trkpt lat="43.39075860" lon="13.01513050">
        <ele>691.00000</ele>
        <time>2009-07-31T10:32:08Z</time>
      </trkpt>
      <trkpt lat="43.39075090" lon="13.01510930">
        <ele>691.00000</ele>
        <time>2009-07-31T10:32:08Z</time>
      </trkpt>
      <trkpt lat="43.39074870" lon="13.01506150">
        <ele>691.00000</ele>
        <time>2009-07-31T10:32:10Z</time>
      </trkpt>
      <trkpt lat="43.39075420" lon="13.01500810">
        <ele>691.00000</ele>
        <time>2009-07-31T10:32:11Z</time>
      </trkpt>
      <trkpt lat="43.39076080" lon="13.01494890">
        <ele>691.00000</ele>
        <time>2009-07-31T10:32:13Z</time>
      </trkpt>
      <trkpt lat="43.39076170" lon="13.01489760">
        <ele>691.00000</ele>
        <time>2009-07-31T10:32:15Z</time>
      </trkpt>
      <trkpt lat="43.39076270" lon="13.01486750">
        <ele>691.00000</ele>
        <time>2009-07-31T10:32:15Z</time>
      </trkpt>
      <trkpt lat="43.39076610" lon="13.01483770">
        <ele>691.00000</ele>
        <time>2009-07-31T10:32:16Z</time>
      </trkpt>
      <trkpt lat="43.39076480" lon="13.01481220">
        <ele>691.00000</ele>
        <time>2009-07-31T10:32:17Z</time>
      </trkpt>
      <trkpt lat="43.39077380" lon="13.01480060">
        <ele>691.00000</ele>
        <time>2009-07-31T10:32:18Z</time>
      </trkpt>
      <trkpt lat="43.39077770" lon="13.01479980">
        <ele>691.00000</ele>
        <time>2009-07-31T10:32:18Z</time>
      </trkpt>
      <trkpt lat="43.39077920" lon="13.01479810">
        <ele>691.00000</ele>
        <time>2009-07-31T10:32:18Z</time>
      </trkpt>
      <trkpt lat="43.39078090" lon="13.01479680">
        <ele>691.00000</ele>
        <time>2009-07-31T10:32:18Z</time>
      </trkpt>
      <trkpt lat="43.39078030" lon="13.01479570">
        <ele>691.00000</ele>
        <time>2009-07-31T10:32:18Z</time>
      </trkpt>
      <trkpt lat="43.39077930" lon="13.01479290">
        <ele>691.00000</ele>
        <time>2009-07-31T10:32:18Z</time>
      </trkpt>
      <trkpt lat="43.39077550" lon="13.01478860">
        <ele>691.00000</ele>
        <time>2009-07-31T10:32:18Z</time>
      </trkpt>
      <trkpt lat="43.39077470" lon="13.01478550">
        <ele>691.00000</ele>
        <time>2009-07-31T10:32:18Z</time>
      </trkpt>
      <trkpt lat="43.39077860" lon="13.01478420">
        <ele>691.00000</ele>
        <time>2009-07-31T10:32:18Z</time>
      </trkpt>
      <trkpt lat="43.39078330" lon="13.01478290">
        <ele>691.00000</ele>
        <time>2009-07-31T10:32:19Z</time>
      </trkpt>
      <trkpt lat="43.39077450" lon="13.01468710">
        <ele>691.00000</ele>
        <time>2009-07-31T10:32:21Z</time>
      </trkpt>
      <trkpt lat="43.39071820" lon="13.01451030">
        <ele>676.00000</ele>
        <time>2009-07-31T10:32:27Z</time>
      </trkpt>
      <trkpt lat="43.39071100" lon="13.01444750">
        <ele>676.00000</ele>
        <time>2009-07-31T10:32:29Z</time>
      </trkpt>
      <trkpt lat="43.39070840" lon="13.01442200">
        <ele>676.00000</ele>
        <time>2009-07-31T10:32:30Z</time>
      </trkpt>
      <trkpt lat="43.39071410" lon="13.01439260">
        <ele>676.00000</ele>
        <time>2009-07-31T10:32:31Z</time>
      </trkpt>
      <trkpt lat="43.39071130" lon="13.01436350">
        <ele>676.00000</ele>
        <time>2009-07-31T10:32:31Z</time>
      </trkpt>
      <trkpt lat="43.39069910" lon="13.01432630">
        <ele>676.00000</ele>
        <time>2009-07-31T10:32:33Z</time>
      </trkpt>
      <trkpt lat="43.39069170" lon="13.01428850">
        <ele>676.00000</ele>
        <time>2009-07-31T10:32:34Z</time>
      </trkpt>
      <trkpt lat="43.39069110" lon="13.01425350">
        <ele>676.00000</ele>
        <time>2009-07-31T10:32:35Z</time>
      </trkpt>
      <trkpt lat="43.39069930" lon="13.01421610">
        <ele>676.00000</ele>
        <time>2009-07-31T10:32:36Z</time>
      </trkpt>
      <trkpt lat="43.39071520" lon="13.01419350">
        <ele>676.00000</ele>
        <time>2009-07-31T10:32:37Z</time>
      </trkpt>
      <trkpt lat="43.39072180" lon="13.01416100">
        <ele>676.00000</ele>
        <time>2009-07-31T10:32:38Z</time>
      </trkpt>
      <trkpt lat="43.39070780" lon="13.01413320">
        <ele>676.00000</ele>
        <time>2009-07-31T10:32:39Z</time>
      </trkpt>
      <trkpt lat="43.39070780" lon="13.01413160">
        <ele>676.00000</ele>
        <time>2009-07-31T10:32:39Z</time>
      </trkpt>
      <trkpt lat="43.39070980" lon="13.01413040">
        <ele>676.00000</ele>
        <time>2009-07-31T10:32:39Z</time>
      </trkpt>
      <trkpt lat="43.39071210" lon="13.01412950">
        <ele>676.00000</ele>
        <time>2009-07-31T10:32:39Z</time>
      </trkpt>
      <trkpt lat="43.39071500" lon="13.01412880">
        <ele>676.00000</ele>
        <time>2009-07-31T10:32:39Z</time>
      </trkpt>
      <trkpt lat="43.39073340" lon="13.01410590">
        <ele>676.00000</ele>
        <time>2009-07-31T10:32:40Z</time>
      </trkpt>
      <trkpt lat="43.39074480" lon="13.01407160">
        <ele>676.00000</ele>
        <time>2009-07-31T10:32:41Z</time>
      </trkpt>
      <trkpt lat="43.39076700" lon="13.01402620">
        <ele>676.00000</ele>
        <time>2009-07-31T10:32:43Z</time>
      </trkpt>
      <trkpt lat="43.39075630" lon="13.01400050">
        <ele>676.00000</ele>
        <time>2009-07-31T10:32:44Z</time>
      </trkpt>
      <trkpt lat="43.39076520" lon="13.01398790">
        <ele>676.00000</ele>
        <time>2009-07-31T10:32:44Z</time>
      </trkpt>
      <trkpt lat="43.39076690" lon="13.01398640">
        <ele>676.00000</ele>
        <time>2009-07-31T10:32:44Z</time>
      </trkpt>
      <trkpt lat="43.39076810" lon="13.01398520">
        <ele>676.00000</ele>
        <time>2009-07-31T10:32:44Z</time>
      </trkpt>
      <trkpt lat="43.39076590" lon="13.01398280">
        <ele>676.00000</ele>
        <time>2009-07-31T10:32:44Z</time>
      </trkpt>
      <trkpt lat="43.39076780" lon="13.01398230">
        <ele>676.00000</ele>
        <time>2009-07-31T10:32:45Z</time>
      </trkpt>
      <trkpt lat="43.39076700" lon="13.01398080">
        <ele>676.00000</ele>
        <time>2009-07-31T10:32:45Z</time>
      </trkpt>
      <trkpt lat="43.39076410" lon="13.01397820">
        <ele>676.00000</ele>
        <time>2009-07-31T10:32:45Z</time>
      </trkpt>
      <trkpt lat="43.39071280" lon="13.01390010">
        <ele>676.00000</ele>
        <time>2009-07-31T10:32:48Z</time>
      </trkpt>
      <trkpt lat="43.39072000" lon="13.01387640">
        <ele>676.00000</ele>
        <time>2009-07-31T10:32:49Z</time>
      </trkpt>
      <trkpt lat="43.39072140" lon="13.01387490">
        <ele>676.00000</ele>
        <time>2009-07-31T10:32:49Z</time>
      </trkpt>
      <trkpt lat="43.39070920" lon="13.01379400">
        <ele>676.00000</ele>
        <time>2009-07-31T10:32:51Z</time>
      </trkpt>
      <trkpt lat="43.39071780" lon="13.01373240">
        <ele>660.00000</ele>
        <time>2009-07-31T10:32:53Z</time>
      </trkpt>
      <trkpt lat="43.39072290" lon="13.01367630">
        <ele>660.00000</ele>
        <time>2009-07-31T10:32:54Z</time>
      </trkpt>
      <trkpt lat="43.39073870" lon="13.01363680">
        <ele>660.00000</ele>
        <time>2009-07-31T10:32:56Z</time>
      </trkpt>
      <trkpt lat="43.39073700" lon="13.01360240">
        <ele>660.00000</ele>
        <time>2009-07-31T10:32:57Z</time>
      </trkpt>
      <trkpt lat="43.39072960" lon="13.01356920">
        <ele>660.00000</ele>
        <time>2009-07-31T10:32:58Z</time>
      </trkpt>
      <trkpt lat="43.39072850" lon="13.01354320">
        <ele>660.00000</ele>
        <time>2009-07-31T10:32:59Z</time>
      </trkpt>
      <trkpt lat="43.39070560" lon="13.01351320">
        <ele>660.00000</ele>
        <time>2009-07-31T10:33:00Z</time>
      </trkpt>
      <trkpt lat="43.39070170" lon="13.01349660">
        <ele>660.00000</ele>
        <time>2009-07-31T10:33:00Z</time>
      </trkpt>
      <trkpt lat="43.39068620" lon="13.01345020">
        <ele>660.00000</ele>
        <time>2009-07-31T10:33:02Z</time>
      </trkpt>
      <trkpt lat="43.39069820" lon="13.01340670">
        <ele>660.00000</ele>
        <time>2009-07-31T10:33:03Z</time>
      </trkpt>
      <trkpt lat="43.39069170" lon="13.01338980">
        <ele>660.00000</ele>
        <time>2009-07-31T10:33:04Z</time>
      </trkpt>
      <trkpt lat="43.39068890" lon="13.01336410">
        <ele>660.00000</ele>
        <time>2009-07-31T10:33:04Z</time>
      </trkpt>
      <trkpt lat="43.39069150" lon="13.01335030">
        <ele>660.00000</ele>
        <time>2009-07-31T10:33:05Z</time>
      </trkpt>
      <trkpt lat="43.39069350" lon="13.01334970">
        <ele>660.00000</ele>
        <time>2009-07-31T10:33:05Z</time>
      </trkpt>
      <trkpt lat="43.39069580" lon="13.01334900">
        <ele>660.00000</ele>
        <time>2009-07-31T10:33:05Z</time>
      </trkpt>
      <trkpt lat="43.39069620" lon="13.01334780">
        <ele>660.00000</ele>
        <time>2009-07-31T10:33:05Z</time>
      </trkpt>
      <trkpt lat="43.39069370" lon="13.01334630">
        <ele>660.00000</ele>
        <time>2009-07-31T10:33:05Z</time>
      </trkpt>
      <trkpt lat="43.39069370" lon="13.01334580">
        <ele>660.00000</ele>
        <time>2009-07-31T10:33:05Z</time>
      </trkpt>
      <trkpt lat="43.39069400" lon="13.01334520">
        <ele>660.00000</ele>
        <time>2009-07-31T10:33:05Z</time>
      </trkpt>
      <trkpt lat="43.39069320" lon="13.01334310">
        <ele>660.00000</ele>
        <time>2009-07-31T10:33:05Z</time>
      </trkpt>
      <trkpt lat="43.39069140" lon="13.01334050">
        <ele>660.00000</ele>
        <time>2009-07-31T10:33:05Z</time>
      </trkpt>
      <trkpt lat="43.39069080" lon="13.01333880">
        <ele>660.00000</ele>
        <time>2009-07-31T10:33:05Z</time>
      </trkpt>
      <trkpt lat="43.39067210" lon="13.01327760">
        <ele>660.00000</ele>
        <time>2009-07-31T10:33:07Z</time>
      </trkpt>
      <trkpt lat="43.39066100" lon="13.01322140">
        <ele>660.00000</ele>
        <time>2009-07-31T10:33:09Z</time>
      </trkpt>
      <trkpt lat="43.39066160" lon="13.01318020">
        <ele>660.00000</ele>
        <time>2009-07-31T10:33:10Z</time>
      </trkpt>
      <trkpt lat="43.39065920" lon="13.01315100">
        <ele>660.00000</ele>
        <time>2009-07-31T10:33:11Z</time>
      </trkpt>
      <trkpt lat="43.39064530" lon="13.01312020">
        <ele>660.00000</ele>
        <time>2009-07-31T10:33:12Z</time>
      </trkpt>
      <trkpt lat="43.39063890" lon="13.01308300">
        <ele>660.00000</ele>
        <time>2009-07-31T10:33:13Z</time>
      </trkpt>
      <trkpt lat="43.39064170" lon="13.01305610">
        <ele>660.00000</ele>
        <time>2009-07-31T10:33:14Z</time>
      </trkpt>
      <trkpt lat="43.39064140" lon="13.01304370">
        <ele>660.00000</ele>
        <time>2009-07-31T10:33:14Z</time>
      </trkpt>
      <trkpt lat="43.39064540" lon="13.01304370">
        <ele>660.00000</ele>
        <time>2009-07-31T10:33:15Z</time>
      </trkpt>
      <trkpt lat="43.39064460" lon="13.01298300">
        <ele>660.00000</ele>
        <time>2009-07-31T10:33:16Z</time>
      </trkpt>
      <trkpt lat="43.39065770" lon="13.01295960">
        <ele>660.00000</ele>
        <time>2009-07-31T10:33:17Z</time>
      </trkpt>
      <trkpt lat="43.39064940" lon="13.01294460">
        <ele>660.00000</ele>
        <time>2009-07-31T10:33:18Z</time>
      </trkpt>
      <trkpt lat="43.39064070" lon="13.01285970">
        <ele>637.00000</ele>
        <time>2009-07-31T10:33:20Z</time>
      </trkpt>
      <trkpt lat="43.39059780" lon="13.01278390">
        <ele>637.00000</ele>
        <time>2009-07-31T10:33:23Z</time>
      </trkpt>
      <trkpt lat="43.39063150" lon="13.01273070">
        <ele>637.00000</ele>
        <time>2009-07-31T10:33:25Z</time>
      </trkpt>
      <trkpt lat="43.39055340" lon="13.01263490">
        <ele>637.00000</ele>
        <time>2009-07-31T10:33:29Z</time>
      </trkpt>
      <trkpt lat="43.39056350" lon="13.01259690">
        <ele>637.00000</ele>
        <time>2009-07-31T10:33:30Z</time>
      </trkpt>
      <trkpt lat="43.39056720" lon="13.01256700">
        <ele>637.00000</ele>
        <time>2009-07-31T10:33:31Z</time>
      </trkpt>
      <trkpt lat="43.39056380" lon="13.01254070">
        <ele>637.00000</ele>
        <time>2009-07-31T10:33:32Z</time>
      </trkpt>
      <trkpt lat="43.39056390" lon="13.01253970">
        <ele>637.00000</ele>
        <time>2009-07-31T10:33:32Z</time>
      </trkpt>
      <trkpt lat="43.39056570" lon="13.01253910">
        <ele>637.00000</ele>
        <time>2009-07-31T10:33:32Z</time>
      </trkpt>
      <trkpt lat="43.39056620" lon="13.01253800">
        <ele>637.00000</ele>
        <time>2009-07-31T10:33:32Z</time>
      </trkpt>
      <trkpt lat="43.39056660" lon="13.01253750">
        <ele>637.00000</ele>
        <time>2009-07-31T10:33:32Z</time>
      </trkpt>
      <trkpt lat="43.39056930" lon="13.01253680">
        <ele>637.00000</ele>
        <time>2009-07-31T10:33:32Z</time>
      </trkpt>
      <trkpt lat="43.39057040" lon="13.01253550">
        <ele>637.00000</ele>
        <time>2009-07-31T10:33:32Z</time>
      </trkpt>
      <trkpt lat="43.39057060" lon="13.01249990">
        <ele>637.00000</ele>
        <time>2009-07-31T10:33:33Z</time>
      </trkpt>
      <trkpt lat="43.39056420" lon="13.01248330">
        <ele>637.00000</ele>
        <time>2009-07-31T10:33:34Z</time>
      </trkpt>
      <trkpt lat="43.39054030" lon="13.01244710">
        <ele>637.00000</ele>
        <time>2009-07-31T10:33:35Z</time>
      </trkpt>
      <trkpt lat="43.39054530" lon="13.01241140">
        <ele>637.00000</ele>
        <time>2009-07-31T10:33:36Z</time>
      </trkpt>
      <trkpt lat="43.39050170" lon="13.01235880">
        <ele>637.00000</ele>
        <time>2009-07-31T10:33:39Z</time>
      </trkpt>
      <trkpt lat="43.39049360" lon="13.01234190">
        <ele>637.00000</ele>
        <time>2009-07-31T10:33:39Z</time>
      </trkpt>
      <trkpt lat="43.39048910" lon="13.01231580">
        <ele>637.00000</ele>
        <time>2009-07-31T10:33:40Z</time>
      </trkpt>
      <trkpt lat="43.39049270" lon="13.01227300">
        <ele>637.00000</ele>
        <time>2009-07-31T10:33:41Z</time>
      </trkpt>
      <trkpt lat="43.39048900" lon="13.01224100">
        <ele>637.00000</ele>
        <time>2009-07-31T10:33:42Z</time>
      </trkpt>
      <trkpt lat="43.39049600" lon="13.01221760">
        <ele>637.00000</ele>
        <time>2009-07-31T10:33:43Z</time>
      </trkpt>
      <trkpt lat="43.39049750" lon="13.01221670">
        <ele>637.00000</ele>
        <time>2009-07-31T10:33:43Z</time>
      </trkpt>
      <trkpt lat="43.39050110" lon="13.01219860">
        <ele>637.00000</ele>
        <time>2009-07-31T10:33:44Z</time>
      </trkpt>
      <trkpt lat="43.39051060" lon="13.01217640">
        <ele>637.00000</ele>
        <time>2009-07-31T10:33:44Z</time>
      </trkpt>
      <trkpt lat="43.39050340" lon="13.01215000">
        <ele>637.00000</ele>
        <time>2009-07-31T10:33:45Z</time>
      </trkpt>
      <trkpt lat="43.39048350" lon="13.01212930">
        <ele>637.00000</ele>
        <time>2009-07-31T10:33:46Z</time>
      </trkpt>
      <trkpt lat="43.39047940" lon="13.01211750">
        <ele>637.00000</ele>
        <time>2009-07-31T10:33:47Z</time>
      </trkpt>
      <trkpt lat="43.39047760" lon="13.01211620">
        <ele>637.00000</ele>
        <time>2009-07-31T10:33:47Z</time>
      </trkpt>
      <trkpt lat="43.39047810" lon="13.01211470">
        <ele>637.00000</ele>
        <time>2009-07-31T10:33:47Z</time>
      </trkpt>
      <trkpt lat="43.39047310" lon="13.01208510">
        <ele>637.00000</ele>
        <time>2009-07-31T10:33:48Z</time>
      </trkpt>
      <trkpt lat="43.39047670" lon="13.01205960">
        <ele>624.00000</ele>
        <time>2009-07-31T10:33:48Z</time>
      </trkpt>
      <trkpt lat="43.39047390" lon="13.01204470">
        <ele>624.00000</ele>
        <time>2009-07-31T10:33:49Z</time>
      </trkpt>
      <trkpt lat="43.39046540" lon="13.01200200">
        <ele>624.00000</ele>
        <time>2009-07-31T10:33:50Z</time>
      </trkpt>
      <trkpt lat="43.39044300" lon="13.01197180">
        <ele>624.00000</ele>
        <time>2009-07-31T10:33:51Z</time>
      </trkpt>
      <trkpt lat="43.39044310" lon="13.01196870">
        <ele>624.00000</ele>
        <time>2009-07-31T10:33:52Z</time>
      </trkpt>
      <trkpt lat="43.39044210" lon="13.01196680">
        <ele>624.00000</ele>
        <time>2009-07-31T10:33:52Z</time>
      </trkpt>
      <trkpt lat="43.39046290" lon="13.01192850">
        <ele>624.00000</ele>
        <time>2009-07-31T10:33:53Z</time>
      </trkpt>
      <trkpt lat="43.39045420" lon="13.01190630">
        <ele>624.00000</ele>
        <time>2009-07-31T10:33:54Z</time>
      </trkpt>
      <trkpt lat="43.39046380" lon="13.01189400">
        <ele>624.00000</ele>
        <time>2009-07-31T10:33:54Z</time>
      </trkpt>
      <trkpt lat="43.39046660" lon="13.01189220">
        <ele>624.00000</ele>
        <time>2009-07-31T10:33:54Z</time>
      </trkpt>
      <trkpt lat="43.39044970" lon="13.01186460">
        <ele>624.00000</ele>
        <time>2009-07-31T10:33:55Z</time>
      </trkpt>
      <trkpt lat="43.39038700" lon="13.01174460">
        <ele>673.00000</ele>
        <time>2009-07-31T10:34:00Z</time>
      </trkpt>
      <trkpt lat="43.39042540" lon="13.01164460">
        <ele>624.00000</ele>
        <time>2009-07-31T10:34:03Z</time>
      </trkpt>
      <trkpt lat="43.39044170" lon="13.01159490">
        <ele>624.00000</ele>
        <time>2009-07-31T10:34:05Z</time>
      </trkpt>
      <trkpt lat="43.39044300" lon="13.01157560">
        <ele>624.00000</ele>
        <time>2009-07-31T10:34:05Z</time>
      </trkpt>
      <trkpt lat="43.39045270" lon="13.01154390">
        <ele>624.00000</ele>
        <time>2009-07-31T10:34:06Z</time>
      </trkpt>
      <trkpt lat="43.39045600" lon="13.01151950">
        <ele>624.00000</ele>
        <time>2009-07-31T10:34:07Z</time>
      </trkpt>
      <trkpt lat="43.39045620" lon="13.01149700">
        <ele>624.00000</ele>
        <time>2009-07-31T10:34:08Z</time>
      </trkpt>
      <trkpt lat="43.39045480" lon="13.01148440">
        <ele>624.00000</ele>
        <time>2009-07-31T10:34:08Z</time>
      </trkpt>
      <trkpt lat="43.39045670" lon="13.01148470">
        <ele>624.00000</ele>
        <time>2009-07-31T10:34:08Z</time>
      </trkpt>
      <trkpt lat="43.39046340" lon="13.01146840">
        <ele>624.00000</ele>
        <time>2009-07-31T10:34:09Z</time>
      </trkpt>
      <trkpt lat="43.39046250" lon="13.01144480">
        <ele>624.00000</ele>
        <time>2009-07-31T10:34:09Z</time>
      </trkpt>
      <trkpt lat="43.39046210" lon="13.01143820">
        <ele>624.00000</ele>
        <time>2009-07-31T10:34:09Z</time>
      </trkpt>
      <trkpt lat="43.39046430" lon="13.01143810">
        <ele>624.00000</ele>
        <time>2009-07-31T10:34:09Z</time>
      </trkpt>
      <trkpt lat="43.39046740" lon="13.01143870">
        <ele>624.00000</ele>
        <time>2009-07-31T10:34:10Z</time>
      </trkpt>
      <trkpt lat="43.39050390" lon="13.01139450">
        <ele>624.00000</ele>
        <time>2009-07-31T10:34:12Z</time>
      </trkpt>
      <trkpt lat="43.39051280" lon="13.01138610">
        <ele>624.00000</ele>
        <time>2009-07-31T10:34:12Z</time>
      </trkpt>
      <trkpt lat="43.39051690" lon="13.01137470">
        <ele>624.00000</ele>
        <time>2009-07-31T10:34:12Z</time>
      </trkpt>
      <trkpt lat="43.39055640" lon="13.01135430">
        <ele>624.00000</ele>
        <time>2009-07-31T10:34:14Z</time>
      </trkpt>
      <trkpt lat="43.39057430" lon="13.01134450">
        <ele>624.00000</ele>
        <time>2009-07-31T10:34:15Z</time>
      </trkpt>
      <trkpt lat="43.39059450" lon="13.01132610">
        <ele>624.00000</ele>
        <time>2009-07-31T10:34:16Z</time>
      </trkpt>
      <trkpt lat="43.39061140" lon="13.01131010">
        <ele>624.00000</ele>
        <time>2009-07-31T10:34:17Z</time>
      </trkpt>
      <trkpt lat="43.39062540" lon="13.01129560">
        <ele>624.00000</ele>
        <time>2009-07-31T10:34:17Z</time>
      </trkpt>
      <trkpt lat="43.39064360" lon="13.01127670">
        <ele>624.00000</ele>
        <time>2009-07-31T10:34:18Z</time>
      </trkpt>
      <trkpt lat="43.39066680" lon="13.01126220">
        <ele>624.00000</ele>
        <time>2009-07-31T10:34:19Z</time>
      </trkpt>
      <trkpt lat="43.39073440" lon="13.01122030">
        <ele>646.00000</ele>
        <time>2009-07-31T10:34:22Z</time>
      </trkpt>
      <trkpt lat="43.39076320" lon="13.01120120">
        <ele>646.00000</ele>
        <time>2009-07-31T10:34:23Z</time>
      </trkpt>
      <trkpt lat="43.39077670" lon="13.01118050">
        <ele>646.00000</ele>
        <time>2009-07-31T10:34:24Z</time>
      </trkpt>
      <trkpt lat="43.39079520" lon="13.01116210">
        <ele>646.00000</ele>
        <time>2009-07-31T10:34:25Z</time>
      </trkpt>
      <trkpt lat="43.39082050" lon="13.01114200">
        <ele>646.00000</ele>
        <time>2009-07-31T10:34:26Z</time>
      </trkpt>
      <trkpt lat="43.39084050" lon="13.01112080">
        <ele>646.00000</ele>
        <time>2009-07-31T10:34:27Z</time>
      </trkpt>
      <trkpt lat="43.39085630" lon="13.01110230">
        <ele>646.00000</ele>
        <time>2009-07-31T10:34:28Z</time>
      </trkpt>
      <trkpt lat="43.39087590" lon="13.01108200">
        <ele>646.00000</ele>
        <time>2009-07-31T10:34:29Z</time>
      </trkpt>
      <trkpt lat="43.39090060" lon="13.01106600">
        <ele>646.00000</ele>
        <time>2009-07-31T10:34:30Z</time>
      </trkpt>
      <trkpt lat="43.39093730" lon="13.01102760">
        <ele>646.00000</ele>
        <time>2009-07-31T10:34:32Z</time>
      </trkpt>
      <trkpt lat="43.39094810" lon="13.01100480">
        <ele>646.00000</ele>
        <time>2009-07-31T10:34:33Z</time>
      </trkpt>
      <trkpt lat="43.39097120" lon="13.01098140">
        <ele>646.00000</ele>
        <time>2009-07-31T10:34:34Z</time>
      </trkpt>
      <trkpt lat="43.39099910" lon="13.01096010">
        <ele>646.00000</ele>
        <time>2009-07-31T10:34:35Z</time>
      </trkpt>
      <trkpt lat="43.39102530" lon="13.01092530">
        <ele>646.00000</ele>
        <time>2009-07-31T10:34:37Z</time>
      </trkpt>
      <trkpt lat="43.39104560" lon="13.01088750">
        <ele>646.00000</ele>
        <time>2009-07-31T10:34:38Z</time>
      </trkpt>
      <trkpt lat="43.39105480" lon="13.01086950">
        <ele>646.00000</ele>
        <time>2009-07-31T10:34:39Z</time>
      </trkpt>
      <trkpt lat="43.39107510" lon="13.01084680">
        <ele>646.00000</ele>
        <time>2009-07-31T10:34:40Z</time>
      </trkpt>
      <trkpt lat="43.39109000" lon="13.01081340">
        <ele>646.00000</ele>
        <time>2009-07-31T10:34:41Z</time>
      </trkpt>
      <trkpt lat="43.39112720" lon="13.01076740">
        <ele>646.00000</ele>
        <time>2009-07-31T10:34:43Z</time>
      </trkpt>
      <trkpt lat="43.39113840" lon="13.01074900">
        <ele>646.00000</ele>
        <time>2009-07-31T10:34:44Z</time>
      </trkpt>
      <trkpt lat="43.39112560" lon="13.01073770">
        <ele>646.00000</ele>
        <time>2009-07-31T10:34:44Z</time>
      </trkpt>
      <trkpt lat="43.39113470" lon="13.01071290">
        <ele>646.00000</ele>
        <time>2009-07-31T10:34:45Z</time>
      </trkpt>
      <trkpt lat="43.39115330" lon="13.01067540">
        <ele>646.00000</ele>
        <time>2009-07-31T10:34:46Z</time>
      </trkpt>
      <trkpt lat="43.39114760" lon="13.01065830">
        <ele>646.00000</ele>
        <time>2009-07-31T10:34:47Z</time>
      </trkpt>
      <trkpt lat="43.39114250" lon="13.01064180">
        <ele>646.00000</ele>
        <time>2009-07-31T10:34:48Z</time>
      </trkpt>
      <trkpt lat="43.39113540" lon="13.01063880">
        <ele>646.00000</ele>
        <time>2009-07-31T10:34:48Z</time>
      </trkpt>
      <trkpt lat="43.39113540" lon="13.01063830">
        <ele>646.00000</ele>
        <time>2009-07-31T10:34:48Z</time>
      </trkpt>
      <trkpt lat="43.39113690" lon="13.01063780">
        <ele>646.00000</ele>
        <time>2009-07-31T10:34:48Z</time>
      </trkpt>
      <trkpt lat="43.39113750" lon="13.01063710">
        <ele>646.00000</ele>
        <time>2009-07-31T10:34:48Z</time>
      </trkpt>
      <trkpt lat="43.39113880" lon="13.01063640">
        <ele>646.00000</ele>
        <time>2009-07-31T10:34:48Z</time>
      </trkpt>
      <trkpt lat="43.39115800" lon="13.01060590">
        <ele>646.00000</ele>
        <time>2009-07-31T10:34:49Z</time>
      </trkpt>
      <trkpt lat="43.39117190" lon="13.01057730">
        <ele>646.00000</ele>
        <time>2009-07-31T10:34:50Z</time>
      </trkpt>
      <trkpt lat="43.39120520" lon="13.01055280">
        <ele>646.00000</ele>
        <time>2009-07-31T10:34:52Z</time>
      </trkpt>
      <trkpt lat="43.39121180" lon="13.01054520">
        <ele>646.00000</ele>
        <time>2009-07-31T10:34:52Z</time>
      </trkpt>
      <trkpt lat="43.39121260" lon="13.01054570">
        <ele>646.00000</ele>
        <time>2009-07-31T10:34:52Z</time>
      </trkpt>
      <trkpt lat="43.39121520" lon="13.01053350">
        <ele>646.00000</ele>
        <time>2009-07-31T10:34:52Z</time>
      </trkpt>
      <trkpt lat="43.39121640" lon="13.01053330">
        <ele>646.00000</ele>
        <time>2009-07-31T10:34:52Z</time>
      </trkpt>
      <trkpt lat="43.39121760" lon="13.01053310">
        <ele>646.00000</ele>
        <time>2009-07-31T10:34:53Z</time>
      </trkpt>
      <trkpt lat="43.39121550" lon="13.01053220">
        <ele>646.00000</ele>
        <time>2009-07-31T10:34:53Z</time>
      </trkpt>
      <trkpt lat="43.39121260" lon="13.01053150">
        <ele>646.00000</ele>
        <time>2009-07-31T10:34:53Z</time>
      </trkpt>
      <trkpt lat="43.39120990" lon="13.01053070">
        <ele>646.00000</ele>
        <time>2009-07-31T10:34:53Z</time>
      </trkpt>
      <trkpt lat="43.39120870" lon="13.01053030">
        <ele>646.00000</ele>
        <time>2009-07-31T10:34:53Z</time>
      </trkpt>
      <trkpt lat="43.39120950" lon="13.01052990">
        <ele>646.00000</ele>
        <time>2009-07-31T10:34:53Z</time>
      </trkpt>
      <trkpt lat="43.39121230" lon="13.01053040">
        <ele>646.00000</ele>
        <time>2009-07-31T10:34:53Z</time>
      </trkpt>
      <trkpt lat="43.39122030" lon="13.01052820">
        <ele>646.00000</ele>
        <time>2009-07-31T10:34:53Z</time>
      </trkpt>
      <trkpt lat="43.39124060" lon="13.01050730">
        <ele>646.00000</ele>
        <time>2009-07-31T10:34:54Z</time>
      </trkpt>
      <trkpt lat="43.39125280" lon="13.01047420">
        <ele>610.00000</ele>
        <time>2009-07-31T10:34:55Z</time>
      </trkpt>
      <trkpt lat="43.39125620" lon="13.01045520">
        <ele>610.00000</ele>
        <time>2009-07-31T10:34:56Z</time>
      </trkpt>
      <trkpt lat="43.39124970" lon="13.01044080">
        <ele>610.00000</ele>
        <time>2009-07-31T10:34:57Z</time>
      </trkpt>
      <trkpt lat="43.39126030" lon="13.01040150">
        <ele>640.00000</ele>
        <time>2009-07-31T10:34:58Z</time>
      </trkpt>
      <trkpt lat="43.39124910" lon="13.01035910">
        <ele>640.00000</ele>
        <time>2009-07-31T10:34:59Z</time>
      </trkpt>
      <trkpt lat="43.39123730" lon="13.01031410">
        <ele>678.00000</ele>
        <time>2009-07-31T10:35:00Z</time>
      </trkpt>
      <trkpt lat="43.39123840" lon="13.01028670">
        <ele>678.00000</ele>
        <time>2009-07-31T10:35:01Z</time>
      </trkpt>
      <trkpt lat="43.39123710" lon="13.01026220">
        <ele>678.00000</ele>
        <time>2009-07-31T10:35:02Z</time>
      </trkpt>
      <trkpt lat="43.39124210" lon="13.01024120">
        <ele>678.00000</ele>
        <time>2009-07-31T10:35:03Z</time>
      </trkpt>
      <trkpt lat="43.39125370" lon="13.01021330">
        <ele>640.00000</ele>
        <time>2009-07-31T10:35:04Z</time>
      </trkpt>
      <trkpt lat="43.39127360" lon="13.01021720">
        <ele>640.00000</ele>
        <time>2009-07-31T10:35:04Z</time>
      </trkpt>
      <trkpt lat="43.39128780" lon="13.01021600">
        <ele>640.00000</ele>
        <time>2009-07-31T10:35:05Z</time>
      </trkpt>
      <trkpt lat="43.39128740" lon="13.01021550">
        <ele>640.00000</ele>
        <time>2009-07-31T10:35:05Z</time>
      </trkpt>
      <trkpt lat="43.39128510" lon="13.01021510">
        <ele>640.00000</ele>
        <time>2009-07-31T10:35:05Z</time>
      </trkpt>
      <trkpt lat="43.39128300" lon="13.01021430">
        <ele>640.00000</ele>
        <time>2009-07-31T10:35:05Z</time>
      </trkpt>
      <trkpt lat="43.39128240" lon="13.01021400">
        <ele>640.00000</ele>
        <time>2009-07-31T10:35:05Z</time>
      </trkpt>
      <trkpt lat="43.39128300" lon="13.01021400">
        <ele>640.00000</ele>
        <time>2009-07-31T10:35:05Z</time>
      </trkpt>
      <trkpt lat="43.39128440" lon="13.01021410">
        <ele>640.00000</ele>
        <time>2009-07-31T10:35:05Z</time>
      </trkpt>
      <trkpt lat="43.39128620" lon="13.01021410">
        <ele>640.00000</ele>
        <time>2009-07-31T10:35:05Z</time>
      </trkpt>
      <trkpt lat="43.39128860" lon="13.01021420">
        <ele>640.00000</ele>
        <time>2009-07-31T10:35:05Z</time>
      </trkpt>
      <trkpt lat="43.39129210" lon="13.01021460">
        <ele>640.00000</ele>
        <time>2009-07-31T10:35:05Z</time>
      </trkpt>
      <trkpt lat="43.39131130" lon="13.01019890">
        <ele>640.00000</ele>
        <time>2009-07-31T10:35:06Z</time>
      </trkpt>
      <trkpt lat="43.39132120" lon="13.01019640">
        <ele>640.00000</ele>
        <time>2009-07-31T10:35:07Z</time>
      </trkpt>
      <trkpt lat="43.39132980" lon="13.01019370">
        <ele>640.00000</ele>
        <time>2009-07-31T10:35:07Z</time>
      </trkpt>
      <trkpt lat="43.39133510" lon="13.01019110">
        <ele>640.00000</ele>
        <time>2009-07-31T10:35:07Z</time>
      </trkpt>
      <trkpt lat="43.39133910" lon="13.01017300">
        <ele>640.00000</ele>
        <time>2009-07-31T10:35:08Z</time>
      </trkpt>
      <trkpt lat="43.39132030" lon="13.01016340">
        <ele>640.00000</ele>
        <time>2009-07-31T10:35:09Z</time>
      </trkpt>
      <trkpt lat="43.39132020" lon="13.01015400">
        <ele>640.00000</ele>
        <time>2009-07-31T10:35:09Z</time>
      </trkpt>
      <trkpt lat="43.39132440" lon="13.01015460">
        <ele>640.00000</ele>
        <time>2009-07-31T10:35:09Z</time>
      </trkpt>
      <trkpt lat="43.39132810" lon="13.01015470">
        <ele>640.00000</ele>
        <time>2009-07-31T10:35:09Z</time>
      </trkpt>
      <trkpt lat="43.39132980" lon="13.01015440">
        <ele>640.00000</ele>
        <time>2009-07-31T10:35:09Z</time>
      </trkpt>
      <trkpt lat="43.39132830" lon="13.01015310">
        <ele>640.00000</ele>
        <time>2009-07-31T10:35:09Z</time>
      </trkpt>
      <trkpt lat="43.39132770" lon="13.01015250">
        <ele>640.00000</ele>
        <time>2009-07-31T10:35:09Z</time>
      </trkpt>
      <trkpt lat="43.39132850" lon="13.01015210">
        <ele>640.00000</ele>
        <time>2009-07-31T10:35:10Z</time>
      </trkpt>
      <trkpt lat="43.39133940" lon="13.01013490">
        <ele>640.00000</ele>
        <time>2009-07-31T10:35:10Z</time>
      </trkpt>
      <trkpt lat="43.39134490" lon="13.01011220">
        <ele>640.00000</ele>
        <time>2009-07-31T10:35:11Z</time>
      </trkpt>
      <trkpt lat="43.39136030" lon="13.01010280">
        <ele>640.00000</ele>
        <time>2009-07-31T10:35:12Z</time>
      </trkpt>
      <trkpt lat="43.39137980" lon="13.01008970">
        <ele>640.00000</ele>
        <time>2009-07-31T10:35:12Z</time>
      </trkpt>
      <trkpt lat="43.39140670" lon="13.01004620">
        <ele>640.00000</ele>
        <time>2009-07-31T10:35:14Z</time>
      </trkpt>
      <trkpt lat="43.39143260" lon="13.01002100">
        <ele>640.00000</ele>
        <time>2009-07-31T10:35:15Z</time>
      </trkpt>
      <trkpt lat="43.39146700" lon="13.01000520">
        <ele>640.00000</ele>
        <time>2009-07-31T10:35:17Z</time>
      </trkpt>
      <trkpt lat="43.39148400" lon="13.01000370">
        <ele>640.00000</ele>
        <time>2009-07-31T10:35:17Z</time>
      </trkpt>
      <trkpt lat="43.39150210" lon="13.01000110">
        <ele>640.00000</ele>
        <time>2009-07-31T10:35:18Z</time>
      </trkpt>
      <trkpt lat="43.39152360" lon="13.01000120">
        <ele>640.00000</ele>
        <time>2009-07-31T10:35:19Z</time>
      </trkpt>
      <trkpt lat="43.39154750" lon="13.00997860">
        <ele>640.00000</ele>
        <time>2009-07-31T10:35:20Z</time>
      </trkpt>
      <trkpt lat="43.39156330" lon="13.00998610">
        <ele>640.00000</ele>
        <time>2009-07-31T10:35:21Z</time>
      </trkpt>
      <trkpt lat="43.39158510" lon="13.00997550">
        <ele>640.00000</ele>
        <time>2009-07-31T10:35:22Z</time>
      </trkpt>
      <trkpt lat="43.39159370" lon="13.00996320">
        <ele>640.00000</ele>
        <time>2009-07-31T10:35:22Z</time>
      </trkpt>
      <trkpt lat="43.39160750" lon="13.00996900">
        <ele>640.00000</ele>
        <time>2009-07-31T10:35:23Z</time>
      </trkpt>
      <trkpt lat="43.39163100" lon="13.00996500">
        <ele>640.00000</ele>
        <time>2009-07-31T10:35:24Z</time>
      </trkpt>
      <trkpt lat="43.39166610" lon="13.00996600">
        <ele>640.00000</ele>
        <time>2009-07-31T10:35:25Z</time>
      </trkpt>
      <trkpt lat="43.39169030" lon="13.00995430">
        <ele>640.00000</ele>
        <time>2009-07-31T10:35:26Z</time>
      </trkpt>
      <trkpt lat="43.39171190" lon="13.00995110">
        <ele>640.00000</ele>
        <time>2009-07-31T10:35:27Z</time>
      </trkpt>
      <trkpt lat="43.39173000" lon="13.00997590">
        <ele>640.00000</ele>
        <time>2009-07-31T10:35:28Z</time>
      </trkpt>
      <trkpt lat="43.39175350" lon="13.00997660">
        <ele>640.00000</ele>
        <time>2009-07-31T10:35:29Z</time>
      </trkpt>
      <trkpt lat="43.39177220" lon="13.00997310">
        <ele>640.00000</ele>
        <time>2009-07-31T10:35:30Z</time>
      </trkpt>
      <trkpt lat="43.39181510" lon="13.00995150">
        <ele>640.00000</ele>
        <time>2009-07-31T10:35:32Z</time>
      </trkpt>
      <trkpt lat="43.39183690" lon="13.00994910">
        <ele>640.00000</ele>
        <time>2009-07-31T10:35:33Z</time>
      </trkpt>
      <trkpt lat="43.39188950" lon="13.00991090">
        <ele>640.00000</ele>
        <time>2009-07-31T10:35:35Z</time>
      </trkpt>
      <trkpt lat="43.39191040" lon="13.00989460">
        <ele>640.00000</ele>
        <time>2009-07-31T10:35:36Z</time>
      </trkpt>
      <trkpt lat="43.39191160" lon="13.00989930">
        <ele>640.00000</ele>
        <time>2009-07-31T10:35:36Z</time>
      </trkpt>
      <trkpt lat="43.39191390" lon="13.00990740">
        <ele>640.00000</ele>
        <time>2009-07-31T10:35:36Z</time>
      </trkpt>
      <trkpt lat="43.39192540" lon="13.00989840">
        <ele>640.00000</ele>
        <time>2009-07-31T10:35:37Z</time>
      </trkpt>
      <trkpt lat="43.39192670" lon="13.00989870">
        <ele>640.00000</ele>
        <time>2009-07-31T10:35:37Z</time>
      </trkpt>
      <trkpt lat="43.39192710" lon="13.00989870">
        <ele>640.00000</ele>
        <time>2009-07-31T10:35:37Z</time>
      </trkpt>
      <trkpt lat="43.39192760" lon="13.00989850">
        <ele>640.00000</ele>
        <time>2009-07-31T10:35:37Z</time>
      </trkpt>
      <trkpt lat="43.39192750" lon="13.00989840">
        <ele>640.00000</ele>
        <time>2009-07-31T10:35:37Z</time>
      </trkpt>
      <trkpt lat="43.39192760" lon="13.00989820">
        <ele>640.00000</ele>
        <time>2009-07-31T10:35:37Z</time>
      </trkpt>
      <trkpt lat="43.39192890" lon="13.00989820">
        <ele>640.00000</ele>
        <time>2009-07-31T10:35:37Z</time>
      </trkpt>
      <trkpt lat="43.39192790" lon="13.00989780">
        <ele>640.00000</ele>
        <time>2009-07-31T10:35:37Z</time>
      </trkpt>
      <trkpt lat="43.39194200" lon="13.00989300">
        <ele>640.00000</ele>
        <time>2009-07-31T10:35:38Z</time>
      </trkpt>
      <trkpt lat="43.39195920" lon="13.00990630">
        <ele>640.00000</ele>
        <time>2009-07-31T10:35:38Z</time>
      </trkpt>
      <trkpt lat="43.39197000" lon="13.00991480">
        <ele>640.00000</ele>
        <time>2009-07-31T10:35:39Z</time>
      </trkpt>
      <trkpt lat="43.39198940" lon="13.00992130">
        <ele>640.00000</ele>
        <time>2009-07-31T10:35:40Z</time>
      </trkpt>
      <trkpt lat="43.39201070" lon="13.00991750">
        <ele>640.00000</ele>
        <time>2009-07-31T10:35:41Z</time>
      </trkpt>
      <trkpt lat="43.39203510" lon="13.00991890">
        <ele>640.00000</ele>
        <time>2009-07-31T10:35:42Z</time>
      </trkpt>
      <trkpt lat="43.39205530" lon="13.00990980">
        <ele>640.00000</ele>
        <time>2009-07-31T10:35:42Z</time>
      </trkpt>
      <trkpt lat="43.39207780" lon="13.00990580">
        <ele>640.00000</ele>
        <time>2009-07-31T10:35:43Z</time>
      </trkpt>
      <trkpt lat="43.39209840" lon="13.00990320">
        <ele>637.00000</ele>
        <time>2009-07-31T10:35:44Z</time>
      </trkpt>
      <trkpt lat="43.39211120" lon="13.00989220">
        <ele>637.00000</ele>
        <time>2009-07-31T10:35:45Z</time>
      </trkpt>
      <trkpt lat="43.39213480" lon="13.00988540">
        <ele>637.00000</ele>
        <time>2009-07-31T10:35:46Z</time>
      </trkpt>
      <trkpt lat="43.39214120" lon="13.00986940">
        <ele>637.00000</ele>
        <time>2009-07-31T10:35:46Z</time>
      </trkpt>
      <trkpt lat="43.39215120" lon="13.00985680">
        <ele>637.00000</ele>
        <time>2009-07-31T10:35:47Z</time>
      </trkpt>
      <trkpt lat="43.39216300" lon="13.00985070">
        <ele>637.00000</ele>
        <time>2009-07-31T10:35:47Z</time>
      </trkpt>
      <trkpt lat="43.39218990" lon="13.00985840">
        <ele>637.00000</ele>
        <time>2009-07-31T10:35:48Z</time>
      </trkpt>
      <trkpt lat="43.39222700" lon="13.00985940">
        <ele>637.00000</ele>
        <time>2009-07-31T10:35:50Z</time>
      </trkpt>
      <trkpt lat="43.39223870" lon="13.00987180">
        <ele>637.00000</ele>
        <time>2009-07-31T10:35:50Z</time>
      </trkpt>
      <trkpt lat="43.39225980" lon="13.00987960">
        <ele>637.00000</ele>
        <time>2009-07-31T10:35:51Z</time>
      </trkpt>
      <trkpt lat="43.39229940" lon="13.00985150">
        <ele>637.00000</ele>
        <time>2009-07-31T10:35:53Z</time>
      </trkpt>
      <trkpt lat="43.39233260" lon="13.00986720">
        <ele>637.00000</ele>
        <time>2009-07-31T10:35:55Z</time>
      </trkpt>
      <trkpt lat="43.39236010" lon="13.00984600">
        <ele>637.00000</ele>
        <time>2009-07-31T10:35:56Z</time>
      </trkpt>
      <trkpt lat="43.39238080" lon="13.00983430">
        <ele>637.00000</ele>
        <time>2009-07-31T10:35:57Z</time>
      </trkpt>
      <trkpt lat="43.39240640" lon="13.00985030">
        <ele>637.00000</ele>
        <time>2009-07-31T10:35:58Z</time>
      </trkpt>
      <trkpt lat="43.39242480" lon="13.00985160">
        <ele>637.00000</ele>
        <time>2009-07-31T10:35:59Z</time>
      </trkpt>
      <trkpt lat="43.39245040" lon="13.00985530">
        <ele>637.00000</ele>
        <time>2009-07-31T10:36:00Z</time>
      </trkpt>
      <trkpt lat="43.39247320" lon="13.00986240">
        <ele>637.00000</ele>
        <time>2009-07-31T10:36:01Z</time>
      </trkpt>
      <trkpt lat="43.39249620" lon="13.00985170">
        <ele>637.00000</ele>
        <time>2009-07-31T10:36:01Z</time>
      </trkpt>
      <trkpt lat="43.39252440" lon="13.00983850">
        <ele>637.00000</ele>
        <time>2009-07-31T10:36:03Z</time>
      </trkpt>
      <trkpt lat="43.39253410" lon="13.00984510">
        <ele>637.00000</ele>
        <time>2009-07-31T10:36:03Z</time>
      </trkpt>
      <trkpt lat="43.39254210" lon="13.00984520">
        <ele>637.00000</ele>
        <time>2009-07-31T10:36:03Z</time>
      </trkpt>
      <trkpt lat="43.39254900" lon="13.00984000">
        <ele>637.00000</ele>
        <time>2009-07-31T10:36:04Z</time>
      </trkpt>
      <trkpt lat="43.39254780" lon="13.00983670">
        <ele>637.00000</ele>
        <time>2009-07-31T10:36:04Z</time>
      </trkpt>
      <trkpt lat="43.39253920" lon="13.00983860">
        <ele>637.00000</ele>
        <time>2009-07-31T10:36:04Z</time>
      </trkpt>
      <trkpt lat="43.39254290" lon="13.00983310">
        <ele>637.00000</ele>
        <time>2009-07-31T10:36:04Z</time>
      </trkpt>
      <trkpt lat="43.39256380" lon="13.00981090">
        <ele>637.00000</ele>
        <time>2009-07-31T10:36:05Z</time>
      </trkpt>
      <trkpt lat="43.39256720" lon="13.00980460">
        <ele>637.00000</ele>
        <time>2009-07-31T10:36:06Z</time>
      </trkpt>
      <trkpt lat="43.39257210" lon="13.00980010">
        <ele>637.00000</ele>
        <time>2009-07-31T10:36:06Z</time>
      </trkpt>
      <trkpt lat="43.39257370" lon="13.00980090">
        <ele>637.00000</ele>
        <time>2009-07-31T10:36:06Z</time>
      </trkpt>
      <trkpt lat="43.39257570" lon="13.00980180">
        <ele>637.00000</ele>
        <time>2009-07-31T10:36:06Z</time>
      </trkpt>
      <trkpt lat="43.39257700" lon="13.00980210">
        <ele>637.00000</ele>
        <time>2009-07-31T10:36:06Z</time>
      </trkpt>
      <trkpt lat="43.39257980" lon="13.00980270">
        <ele>637.00000</ele>
        <time>2009-07-31T10:36:06Z</time>
      </trkpt>
      <trkpt lat="43.39258630" lon="13.00980440">
        <ele>637.00000</ele>
        <time>2009-07-31T10:36:07Z</time>
      </trkpt>
      <trkpt lat="43.39259460" lon="13.00982510">
        <ele>637.00000</ele>
        <time>2009-07-31T10:36:07Z</time>
      </trkpt>
      <trkpt lat="43.39260030" lon="13.00982560">
        <ele>637.00000</ele>
        <time>2009-07-31T10:36:07Z</time>
      </trkpt>
      <trkpt lat="43.39260580" lon="13.00983010">
        <ele>637.00000</ele>
        <time>2009-07-31T10:36:08Z</time>
      </trkpt>
      <trkpt lat="43.39261140" lon="13.00982930">
        <ele>637.00000</ele>
        <time>2009-07-31T10:36:08Z</time>
      </trkpt>
      <trkpt lat="43.39261370" lon="13.00983020">
        <ele>637.00000</ele>
        <time>2009-07-31T10:36:08Z</time>
      </trkpt>
      <trkpt lat="43.39261620" lon="13.00983070">
        <ele>637.00000</ele>
        <time>2009-07-31T10:36:08Z</time>
      </trkpt>
      <trkpt lat="43.39261760" lon="13.00983110">
        <ele>637.00000</ele>
        <time>2009-07-31T10:36:08Z</time>
      </trkpt>
      <trkpt lat="43.39261870" lon="13.00983140">
        <ele>637.00000</ele>
        <time>2009-07-31T10:36:08Z</time>
      </trkpt>
      <trkpt lat="43.39261740" lon="13.00983150">
        <ele>637.00000</ele>
        <time>2009-07-31T10:36:08Z</time>
      </trkpt>
      <trkpt lat="43.39262080" lon="13.00983390">
        <ele>637.00000</ele>
        <time>2009-07-31T10:36:08Z</time>
      </trkpt>
      <trkpt lat="43.39261620" lon="13.00983420">
        <ele>637.00000</ele>
        <time>2009-07-31T10:36:09Z</time>
      </trkpt>
      <trkpt lat="43.39262120" lon="13.00983590">
        <ele>637.00000</ele>
        <time>2009-07-31T10:36:09Z</time>
      </trkpt>
      <trkpt lat="43.39262380" lon="13.00983660">
        <ele>637.00000</ele>
        <time>2009-07-31T10:36:09Z</time>
      </trkpt>
      <trkpt lat="43.39262620" lon="13.00983680">
        <ele>637.00000</ele>
        <time>2009-07-31T10:36:09Z</time>
      </trkpt>
      <trkpt lat="43.39262780" lon="13.00983700">
        <ele>637.00000</ele>
        <time>2009-07-31T10:36:09Z</time>
      </trkpt>
      <trkpt lat="43.39262980" lon="13.00983760">
        <ele>637.00000</ele>
        <time>2009-07-31T10:36:09Z</time>
      </trkpt>
      <trkpt lat="43.39263110" lon="13.00983740">
        <ele>637.00000</ele>
        <time>2009-07-31T10:36:09Z</time>
      </trkpt>
      <trkpt lat="43.39263190" lon="13.00983700">
        <ele>637.00000</ele>
        <time>2009-07-31T10:36:09Z</time>
      </trkpt>
      <trkpt lat="43.39263120" lon="13.00983610">
        <ele>637.00000</ele>
        <time>2009-07-31T10:36:09Z</time>
      </trkpt>
      <trkpt lat="43.39263250" lon="13.00983590">
        <ele>637.00000</ele>
        <time>2009-07-31T10:36:09Z</time>
      </trkpt>
      <trkpt lat="43.39263540" lon="13.00983590">
        <ele>637.00000</ele>
        <time>2009-07-31T10:36:09Z</time>
      </trkpt>
      <trkpt lat="43.39263410" lon="13.00983560">
        <ele>637.00000</ele>
        <time>2009-07-31T10:36:09Z</time>
      </trkpt>
      <trkpt lat="43.39262970" lon="13.00983470">
        <ele>637.00000</ele>
        <time>2009-07-31T10:36:10Z</time>
      </trkpt>
      <trkpt lat="43.39261770" lon="13.00984320">
        <ele>637.00000</ele>
        <time>2009-07-31T10:36:10Z</time>
      </trkpt>
      <trkpt lat="43.39262050" lon="13.00985660">
        <ele>637.00000</ele>
        <time>2009-07-31T10:36:11Z</time>
      </trkpt>
      <trkpt lat="43.39262230" lon="13.00984460">
        <ele>637.00000</ele>
        <time>2009-07-31T10:36:11Z</time>
      </trkpt>
      <trkpt lat="43.39262280" lon="13.00984440">
        <ele>637.00000</ele>
        <time>2009-07-31T10:36:11Z</time>
      </trkpt>
      <trkpt lat="43.39262320" lon="13.00984390">
        <ele>637.00000</ele>
        <time>2009-07-31T10:36:11Z</time>
      </trkpt>
      <trkpt lat="43.39262460" lon="13.00984380">
        <ele>637.00000</ele>
        <time>2009-07-31T10:36:11Z</time>
      </trkpt>
      <trkpt lat="43.39263410" lon="13.00982860">
        <ele>637.00000</ele>
        <time>2009-07-31T10:36:12Z</time>
      </trkpt>
      <trkpt lat="43.39265140" lon="13.00982700">
        <ele>637.00000</ele>
        <time>2009-07-31T10:36:12Z</time>
      </trkpt>
      <trkpt lat="43.39266420" lon="13.00983250">
        <ele>637.00000</ele>
        <time>2009-07-31T10:36:13Z</time>
      </trkpt>
      <trkpt lat="43.39266880" lon="13.00984010">
        <ele>637.00000</ele>
        <time>2009-07-31T10:36:13Z</time>
      </trkpt>
      <trkpt lat="43.39267780" lon="13.00983910">
        <ele>637.00000</ele>
        <time>2009-07-31T10:36:13Z</time>
      </trkpt>
      <trkpt lat="43.39269750" lon="13.00983190">
        <ele>637.00000</ele>
        <time>2009-07-31T10:36:14Z</time>
      </trkpt>
      <trkpt lat="43.39271050" lon="13.00982180">
        <ele>637.00000</ele>
        <time>2009-07-31T10:36:15Z</time>
      </trkpt>
      <trkpt lat="43.39271500" lon="13.00982960">
        <ele>637.00000</ele>
        <time>2009-07-31T10:36:15Z</time>
      </trkpt>
      <trkpt lat="43.39273260" lon="13.00982130">
        <ele>637.00000</ele>
        <time>2009-07-31T10:36:16Z</time>
      </trkpt>
      <trkpt lat="43.39274810" lon="13.00981020">
        <ele>637.00000</ele>
        <time>2009-07-31T10:36:17Z</time>
      </trkpt>
      <trkpt lat="43.39278180" lon="13.00980790">
        <ele>637.00000</ele>
        <time>2009-07-31T10:36:18Z</time>
      </trkpt>
      <trkpt lat="43.39280270" lon="13.00982000">
        <ele>637.00000</ele>
        <time>2009-07-31T10:36:19Z</time>
      </trkpt>
      <trkpt lat="43.39281270" lon="13.00982610">
        <ele>637.00000</ele>
        <time>2009-07-31T10:36:19Z</time>
      </trkpt>
      <trkpt lat="43.39283470" lon="13.00982260">
        <ele>637.00000</ele>
        <time>2009-07-31T10:36:20Z</time>
      </trkpt>
      <trkpt lat="43.39284030" lon="13.00983110">
        <ele>637.00000</ele>
        <time>2009-07-31T10:36:21Z</time>
      </trkpt>
      <trkpt lat="43.39286050" lon="13.00982740">
        <ele>637.00000</ele>
        <time>2009-07-31T10:36:21Z</time>
      </trkpt>
      <trkpt lat="43.39287800" lon="13.00982160">
        <ele>637.00000</ele>
        <time>2009-07-31T10:36:22Z</time>
      </trkpt>
      <trkpt lat="43.39289620" lon="13.00981430">
        <ele>637.00000</ele>
        <time>2009-07-31T10:36:23Z</time>
      </trkpt>
      <trkpt lat="43.39291630" lon="13.00979370">
        <ele>627.00000</ele>
        <time>2009-07-31T10:36:24Z</time>
      </trkpt>
      <trkpt lat="43.39294160" lon="13.00977010">
        <ele>627.00000</ele>
        <time>2009-07-31T10:36:25Z</time>
      </trkpt>
      <trkpt lat="43.39295620" lon="13.00976370">
        <ele>627.00000</ele>
        <time>2009-07-31T10:36:26Z</time>
      </trkpt>
      <trkpt lat="43.39297820" lon="13.00976190">
        <ele>627.00000</ele>
        <time>2009-07-31T10:36:27Z</time>
      </trkpt>
      <trkpt lat="43.39301160" lon="13.00977720">
        <ele>627.00000</ele>
        <time>2009-07-31T10:36:28Z</time>
      </trkpt>
      <trkpt lat="43.39303720" lon="13.00977570">
        <ele>627.00000</ele>
        <time>2009-07-31T10:36:29Z</time>
      </trkpt>
      <trkpt lat="43.39304700" lon="13.00977130">
        <ele>627.00000</ele>
        <time>2009-07-31T10:36:29Z</time>
      </trkpt>
      <trkpt lat="43.39308560" lon="13.00975930">
        <ele>627.00000</ele>
        <time>2009-07-31T10:36:31Z</time>
      </trkpt>
      <trkpt lat="43.39311110" lon="13.00975800">
        <ele>627.00000</ele>
        <time>2009-07-31T10:36:32Z</time>
      </trkpt>
      <trkpt lat="43.39313420" lon="13.00978360">
        <ele>627.00000</ele>
        <time>2009-07-31T10:36:33Z</time>
      </trkpt>
      <trkpt lat="43.39314190" lon="13.00978980">
        <ele>627.00000</ele>
        <time>2009-07-31T10:36:34Z</time>
      </trkpt>
      <trkpt lat="43.39317110" lon="13.00978320">
        <ele>627.00000</ele>
        <time>2009-07-31T10:36:35Z</time>
      </trkpt>
      <trkpt lat="43.39320830" lon="13.00977570">
        <ele>627.00000</ele>
        <time>2009-07-31T10:36:36Z</time>
      </trkpt>
      <trkpt lat="43.39322540" lon="13.00978360">
        <ele>627.00000</ele>
        <time>2009-07-31T10:36:37Z</time>
      </trkpt>
      <trkpt lat="43.39324340" lon="13.00979600">
        <ele>627.00000</ele>
        <time>2009-07-31T10:36:38Z</time>
      </trkpt>
      <trkpt lat="43.39325960" lon="13.00980160">
        <ele>627.00000</ele>
        <time>2009-07-31T10:36:38Z</time>
      </trkpt>
      <trkpt lat="43.39328690" lon="13.00980890">
        <ele>627.00000</ele>
        <time>2009-07-31T10:36:40Z</time>
      </trkpt>
      <trkpt lat="43.39330430" lon="13.00980850">
        <ele>627.00000</ele>
        <time>2009-07-31T10:36:40Z</time>
      </trkpt>
      <trkpt lat="43.39332950" lon="13.00981100">
        <ele>627.00000</ele>
        <time>2009-07-31T10:36:41Z</time>
      </trkpt>
      <trkpt lat="43.39334400" lon="13.00982940">
        <ele>627.00000</ele>
        <time>2009-07-31T10:36:42Z</time>
      </trkpt>
      <trkpt lat="43.39336020" lon="13.00983120">
        <ele>627.00000</ele>
        <time>2009-07-31T10:36:43Z</time>
      </trkpt>
      <trkpt lat="43.39338330" lon="13.00981570">
        <ele>627.00000</ele>
        <time>2009-07-31T10:36:44Z</time>
      </trkpt>
      <trkpt lat="43.39341630" lon="13.00979600">
        <ele>627.00000</ele>
        <time>2009-07-31T10:36:45Z</time>
      </trkpt>
      <trkpt lat="43.39345520" lon="13.00978250">
        <ele>627.00000</ele>
        <time>2009-07-31T10:36:47Z</time>
      </trkpt>
      <trkpt lat="43.39347980" lon="13.00977690">
        <ele>627.00000</ele>
        <time>2009-07-31T10:36:48Z</time>
      </trkpt>
      <trkpt lat="43.39349110" lon="13.00978570">
        <ele>627.00000</ele>
        <time>2009-07-31T10:36:48Z</time>
      </trkpt>
      <trkpt lat="43.39350640" lon="13.00978430">
        <ele>627.00000</ele>
        <time>2009-07-31T10:36:49Z</time>
      </trkpt>
      <trkpt lat="43.39353700" lon="13.00975550">
        <ele>627.00000</ele>
        <time>2009-07-31T10:36:50Z</time>
      </trkpt>
      <trkpt lat="43.39355900" lon="13.00974090">
        <ele>627.00000</ele>
        <time>2009-07-31T10:36:51Z</time>
      </trkpt>
      <trkpt lat="43.39357650" lon="13.00974370">
        <ele>627.00000</ele>
        <time>2009-07-31T10:36:52Z</time>
      </trkpt>
      <trkpt lat="43.39359960" lon="13.00974270">
        <ele>627.00000</ele>
        <time>2009-07-31T10:36:53Z</time>
      </trkpt>
      <trkpt lat="43.39362600" lon="13.00972500">
        <ele>627.00000</ele>
        <time>2009-07-31T10:36:54Z</time>
      </trkpt>
      <trkpt lat="43.39364500" lon="13.00971960">
        <ele>627.00000</ele>
        <time>2009-07-31T10:36:55Z</time>
      </trkpt>
      <trkpt lat="43.39366800" lon="13.00970880">
        <ele>627.00000</ele>
        <time>2009-07-31T10:36:56Z</time>
      </trkpt>
      <trkpt lat="43.39370690" lon="13.00965990">
        <ele>627.00000</ele>
        <time>2009-07-31T10:36:58Z</time>
      </trkpt>
      <trkpt lat="43.39372100" lon="13.00963860">
        <ele>627.00000</ele>
        <time>2009-07-31T10:36:59Z</time>
      </trkpt>
      <trkpt lat="43.39374040" lon="13.00962160">
        <ele>627.00000</ele>
        <time>2009-07-31T10:37:00Z</time>
      </trkpt>
      <trkpt lat="43.39375160" lon="13.00959300">
        <ele>598.00000</ele>
        <time>2009-07-31T10:37:01Z</time>
      </trkpt>
      <trkpt lat="43.39376620" lon="13.00957420">
        <ele>633.00000</ele>
        <time>2009-07-31T10:37:02Z</time>
      </trkpt>
      <trkpt lat="43.39377610" lon="13.00954950">
        <ele>633.00000</ele>
        <time>2009-07-31T10:37:02Z</time>
      </trkpt>
      <trkpt lat="43.39377490" lon="13.00952670">
        <ele>633.00000</ele>
        <time>2009-07-31T10:37:03Z</time>
      </trkpt>
      <trkpt lat="43.39378310" lon="13.00951330">
        <ele>633.00000</ele>
        <time>2009-07-31T10:37:04Z</time>
      </trkpt>
      <trkpt lat="43.39379410" lon="13.00949750">
        <ele>633.00000</ele>
        <time>2009-07-31T10:37:04Z</time>
      </trkpt>
      <trkpt lat="43.39379850" lon="13.00948800">
        <ele>633.00000</ele>
        <time>2009-07-31T10:37:04Z</time>
      </trkpt>
      <trkpt lat="43.39380830" lon="13.00947850">
        <ele>633.00000</ele>
        <time>2009-07-31T10:37:05Z</time>
      </trkpt>
      <trkpt lat="43.39382920" lon="13.00945270">
        <ele>633.00000</ele>
        <time>2009-07-31T10:37:06Z</time>
      </trkpt>
      <trkpt lat="43.39383920" lon="13.00941230">
        <ele>633.00000</ele>
        <time>2009-07-31T10:37:07Z</time>
      </trkpt>
      <trkpt lat="43.39385920" lon="13.00939160">
        <ele>633.00000</ele>
        <time>2009-07-31T10:37:08Z</time>
      </trkpt>
      <trkpt lat="43.39389060" lon="13.00936370">
        <ele>633.00000</ele>
        <time>2009-07-31T10:37:10Z</time>
      </trkpt>
      <trkpt lat="43.39390060" lon="13.00933350">
        <ele>633.00000</ele>
        <time>2009-07-31T10:37:11Z</time>
      </trkpt>
      <trkpt lat="43.39393220" lon="13.00931380">
        <ele>633.00000</ele>
        <time>2009-07-31T10:37:12Z</time>
      </trkpt>
      <trkpt lat="43.39393770" lon="13.00929030">
        <ele>633.00000</ele>
        <time>2009-07-31T10:37:13Z</time>
      </trkpt>
      <trkpt lat="43.39396530" lon="13.00927840">
        <ele>633.00000</ele>
        <time>2009-07-31T10:37:14Z</time>
      </trkpt>
      <trkpt lat="43.39400200" lon="13.00927060">
        <ele>633.00000</ele>
        <time>2009-07-31T10:37:16Z</time>
      </trkpt>
      <trkpt lat="43.39400380" lon="13.00927990">
        <ele>633.00000</ele>
        <time>2009-07-31T10:37:16Z</time>
      </trkpt>
      <trkpt lat="43.39399850" lon="13.00928980">
        <ele>633.00000</ele>
        <time>2009-07-31T10:37:16Z</time>
      </trkpt>
      <trkpt lat="43.39399920" lon="13.00929090">
        <ele>633.00000</ele>
        <time>2009-07-31T10:37:16Z</time>
      </trkpt>
      <trkpt lat="43.39399450" lon="13.00928880">
        <ele>633.00000</ele>
        <time>2009-07-31T10:37:16Z</time>
      </trkpt>
      <trkpt lat="43.39399240" lon="13.00927130">
        <ele>633.00000</ele>
        <time>2009-07-31T10:37:17Z</time>
      </trkpt>
      <trkpt lat="43.39398840" lon="13.00927310">
        <ele>633.00000</ele>
        <time>2009-07-31T10:37:17Z</time>
      </trkpt>
      <trkpt lat="43.39398810" lon="13.00927310">
        <ele>633.00000</ele>
        <time>2009-07-31T10:37:17Z</time>
      </trkpt>
      <trkpt lat="43.39398800" lon="13.00927290">
        <ele>633.00000</ele>
        <time>2009-07-31T10:37:17Z</time>
      </trkpt>
      <trkpt lat="43.39399000" lon="13.00927360">
        <ele>633.00000</ele>
        <time>2009-07-31T10:37:17Z</time>
      </trkpt>
      <trkpt lat="43.39399960" lon="13.00926630">
        <ele>633.00000</ele>
        <time>2009-07-31T10:37:18Z</time>
      </trkpt>
      <trkpt lat="43.39401530" lon="13.00925370">
        <ele>633.00000</ele>
        <time>2009-07-31T10:37:18Z</time>
      </trkpt>
      <trkpt lat="43.39401280" lon="13.00925900">
        <ele>633.00000</ele>
        <time>2009-07-31T10:37:19Z</time>
      </trkpt>
      <trkpt lat="43.39401150" lon="13.00925880">
        <ele>633.00000</ele>
        <time>2009-07-31T10:37:19Z</time>
      </trkpt>
      <trkpt lat="43.39401150" lon="13.00925870">
        <ele>633.00000</ele>
        <time>2009-07-31T10:37:19Z</time>
      </trkpt>
      <trkpt lat="43.39401410" lon="13.00925940">
        <ele>633.00000</ele>
        <time>2009-07-31T10:37:19Z</time>
      </trkpt>
      <trkpt lat="43.39402500" lon="13.00926020">
        <ele>633.00000</ele>
        <time>2009-07-31T10:37:19Z</time>
      </trkpt>
      <trkpt lat="43.39404000" lon="13.00925480">
        <ele>633.00000</ele>
        <time>2009-07-31T10:37:20Z</time>
      </trkpt>
      <trkpt lat="43.39405650" lon="13.00924540">
        <ele>633.00000</ele>
        <time>2009-07-31T10:37:20Z</time>
      </trkpt>
      <trkpt lat="43.39407790" lon="13.00923960">
        <ele>633.00000</ele>
        <time>2009-07-31T10:37:21Z</time>
      </trkpt>
      <trkpt lat="43.39409580" lon="13.00921600">
        <ele>633.00000</ele>
        <time>2009-07-31T10:37:22Z</time>
      </trkpt>
      <trkpt lat="43.39412030" lon="13.00918720">
        <ele>633.00000</ele>
        <time>2009-07-31T10:37:24Z</time>
      </trkpt>
      <trkpt lat="43.39413130" lon="13.00917540">
        <ele>633.00000</ele>
        <time>2009-07-31T10:37:24Z</time>
      </trkpt>
      <trkpt lat="43.39414620" lon="13.00916400">
        <ele>633.00000</ele>
        <time>2009-07-31T10:37:25Z</time>
      </trkpt>
      <trkpt lat="43.39415820" lon="13.00916420">
        <ele>633.00000</ele>
        <time>2009-07-31T10:37:25Z</time>
      </trkpt>
      <trkpt lat="43.39417500" lon="13.00915110">
        <ele>633.00000</ele>
        <time>2009-07-31T10:37:26Z</time>
      </trkpt>
      <trkpt lat="43.39418580" lon="13.00916420">
        <ele>633.00000</ele>
        <time>2009-07-31T10:37:27Z</time>
      </trkpt>
      <trkpt lat="43.39419290" lon="13.00915520">
        <ele>633.00000</ele>
        <time>2009-07-31T10:37:27Z</time>
      </trkpt>
      <trkpt lat="43.39423370" lon="13.00912870">
        <ele>633.00000</ele>
        <time>2009-07-31T10:37:29Z</time>
      </trkpt>
      <trkpt lat="43.39424480" lon="13.00911820">
        <ele>633.00000</ele>
        <time>2009-07-31T10:37:29Z</time>
      </trkpt>
      <trkpt lat="43.39425230" lon="13.00909810">
        <ele>633.00000</ele>
        <time>2009-07-31T10:37:30Z</time>
      </trkpt>
      <trkpt lat="43.39427110" lon="13.00909330">
        <ele>633.00000</ele>
        <time>2009-07-31T10:37:31Z</time>
      </trkpt>
      <trkpt lat="43.39428560" lon="13.00907600">
        <ele>633.00000</ele>
        <time>2009-07-31T10:37:32Z</time>
      </trkpt>
      <trkpt lat="43.39430650" lon="13.00906270">
        <ele>633.00000</ele>
        <time>2009-07-31T10:37:33Z</time>
      </trkpt>
      <trkpt lat="43.39432600" lon="13.00905740">
        <ele>633.00000</ele>
        <time>2009-07-31T10:37:33Z</time>
      </trkpt>
      <trkpt lat="43.39433970" lon="13.00904700">
        <ele>633.00000</ele>
        <time>2009-07-31T10:37:34Z</time>
      </trkpt>
      <trkpt lat="43.39435930" lon="13.00903410">
        <ele>633.00000</ele>
        <time>2009-07-31T10:37:35Z</time>
      </trkpt>
      <trkpt lat="43.39438600" lon="13.00900830">
        <ele>633.00000</ele>
        <time>2009-07-31T10:37:36Z</time>
      </trkpt>
      <trkpt lat="43.39441840" lon="13.00899650">
        <ele>633.00000</ele>
        <time>2009-07-31T10:37:38Z</time>
      </trkpt>
      <trkpt lat="43.39443090" lon="13.00900780">
        <ele>633.00000</ele>
        <time>2009-07-31T10:37:38Z</time>
      </trkpt>
      <trkpt lat="43.39445530" lon="13.00899210">
        <ele>633.00000</ele>
        <time>2009-07-31T10:37:39Z</time>
      </trkpt>
      <trkpt lat="43.39448290" lon="13.00898700">
        <ele>633.00000</ele>
        <time>2009-07-31T10:37:40Z</time>
      </trkpt>
      <trkpt lat="43.39452220" lon="13.00897090">
        <ele>633.00000</ele>
        <time>2009-07-31T10:37:42Z</time>
      </trkpt>
      <trkpt lat="43.39455150" lon="13.00895800">
        <ele>633.00000</ele>
        <time>2009-07-31T10:37:43Z</time>
      </trkpt>
      <trkpt lat="43.39458620" lon="13.00894830">
        <ele>614.00000</ele>
        <time>2009-07-31T10:37:45Z</time>
      </trkpt>
      <trkpt lat="43.39461240" lon="13.00891610">
        <ele>614.00000</ele>
        <time>2009-07-31T10:37:46Z</time>
      </trkpt>
      <trkpt lat="43.39463020" lon="13.00887860">
        <ele>614.00000</ele>
        <time>2009-07-31T10:37:47Z</time>
      </trkpt>
      <trkpt lat="43.39464580" lon="13.00886010">
        <ele>614.00000</ele>
        <time>2009-07-31T10:37:48Z</time>
      </trkpt>
      <trkpt lat="43.39465400" lon="13.00881920">
        <ele>614.00000</ele>
        <time>2009-07-31T10:37:49Z</time>
      </trkpt>
      <trkpt lat="43.39465550" lon="13.00877930">
        <ele>614.00000</ele>
        <time>2009-07-31T10:37:51Z</time>
      </trkpt>
      <trkpt lat="43.39467020" lon="13.00877780">
        <ele>614.00000</ele>
        <time>2009-07-31T10:37:51Z</time>
      </trkpt>
      <trkpt lat="43.39468280" lon="13.00876660">
        <ele>614.00000</ele>
        <time>2009-07-31T10:37:52Z</time>
      </trkpt>
      <trkpt lat="43.39468490" lon="13.00875140">
        <ele>614.00000</ele>
        <time>2009-07-31T10:37:52Z</time>
      </trkpt>
      <trkpt lat="43.39469410" lon="13.00874610">
        <ele>651.00000</ele>
        <time>2009-07-31T10:37:53Z</time>
      </trkpt>
      <trkpt lat="43.39470690" lon="13.00874440">
        <ele>651.00000</ele>
        <time>2009-07-31T10:37:53Z</time>
      </trkpt>
      <trkpt lat="43.39471950" lon="13.00873410">
        <ele>651.00000</ele>
        <time>2009-07-31T10:37:54Z</time>
      </trkpt>
      <trkpt lat="43.39473490" lon="13.00871640">
        <ele>651.00000</ele>
        <time>2009-07-31T10:37:54Z</time>
      </trkpt>
      <trkpt lat="43.39476230" lon="13.00870380">
        <ele>651.00000</ele>
        <time>2009-07-31T10:37:56Z</time>
      </trkpt>
      <trkpt lat="43.39479260" lon="13.00870610">
        <ele>651.00000</ele>
        <time>2009-07-31T10:37:57Z</time>
      </trkpt>
      <trkpt lat="43.39481620" lon="13.00872310">
        <ele>651.00000</ele>
        <time>2009-07-31T10:37:58Z</time>
      </trkpt>
      <trkpt lat="43.39484430" lon="13.00875490">
        <ele>614.00000</ele>
        <time>2009-07-31T10:37:59Z</time>
      </trkpt>
      <trkpt lat="43.39488430" lon="13.00877900">
        <ele>614.00000</ele>
        <time>2009-07-31T10:38:01Z</time>
      </trkpt>
      <trkpt lat="43.39490660" lon="13.00878410">
        <ele>614.00000</ele>
        <time>2009-07-31T10:38:02Z</time>
      </trkpt>
      <trkpt lat="43.39494550" lon="13.00878600">
        <ele>614.00000</ele>
        <time>2009-07-31T10:38:04Z</time>
      </trkpt>
      <trkpt lat="43.39497710" lon="13.00877770">
        <ele>614.00000</ele>
        <time>2009-07-31T10:38:05Z</time>
      </trkpt>
      <trkpt lat="43.39500560" lon="13.00876930">
        <ele>614.00000</ele>
        <time>2009-07-31T10:38:06Z</time>
      </trkpt>
      <trkpt lat="43.39502280" lon="13.00875990">
        <ele>614.00000</ele>
        <time>2009-07-31T10:38:07Z</time>
      </trkpt>
      <trkpt lat="43.39503020" lon="13.00876000">
        <ele>614.00000</ele>
        <time>2009-07-31T10:38:07Z</time>
      </trkpt>
      <trkpt lat="43.39505970" lon="13.00874820">
        <ele>651.00000</ele>
        <time>2009-07-31T10:38:08Z</time>
      </trkpt>
      <trkpt lat="43.39509030" lon="13.00875480">
        <ele>614.00000</ele>
        <time>2009-07-31T10:38:10Z</time>
      </trkpt>
      <trkpt lat="43.39512760" lon="13.00875260">
        <ele>614.00000</ele>
        <time>2009-07-31T10:38:11Z</time>
      </trkpt>
      <trkpt lat="43.39516590" lon="13.00877260">
        <ele>614.00000</ele>
        <time>2009-07-31T10:38:13Z</time>
      </trkpt>
      <trkpt lat="43.39519260" lon="13.00877310">
        <ele>614.00000</ele>
        <time>2009-07-31T10:38:14Z</time>
      </trkpt>
      <trkpt lat="43.39521020" lon="13.00876090">
        <ele>614.00000</ele>
        <time>2009-07-31T10:38:15Z</time>
      </trkpt>
      <trkpt lat="43.39522600" lon="13.00875480">
        <ele>614.00000</ele>
        <time>2009-07-31T10:38:15Z</time>
      </trkpt>
      <trkpt lat="43.39524060" lon="13.00874900">
        <ele>651.00000</ele>
        <time>2009-07-31T10:38:16Z</time>
      </trkpt>
      <trkpt lat="43.39527210" lon="13.00874660">
        <ele>651.00000</ele>
        <time>2009-07-31T10:38:17Z</time>
      </trkpt>
      <trkpt lat="43.39529380" lon="13.00873950">
        <ele>651.00000</ele>
        <time>2009-07-31T10:38:18Z</time>
      </trkpt>
      <trkpt lat="43.39530290" lon="13.00874700">
        <ele>651.00000</ele>
        <time>2009-07-31T10:38:18Z</time>
      </trkpt>
      <trkpt lat="43.39531040" lon="13.00874010">
        <ele>651.00000</ele>
        <time>2009-07-31T10:38:19Z</time>
      </trkpt>
      <trkpt lat="43.39532990" lon="13.00874830">
        <ele>651.00000</ele>
        <time>2009-07-31T10:38:20Z</time>
      </trkpt>
      <trkpt lat="43.39533720" lon="13.00877280">
        <ele>614.00000</ele>
        <time>2009-07-31T10:38:20Z</time>
      </trkpt>
      <trkpt lat="43.39534740" lon="13.00877390">
        <ele>614.00000</ele>
        <time>2009-07-31T10:38:21Z</time>
      </trkpt>
      <trkpt lat="43.39536360" lon="13.00878320">
        <ele>614.00000</ele>
        <time>2009-07-31T10:38:21Z</time>
      </trkpt>
      <trkpt lat="43.39538050" lon="13.00876680">
        <ele>614.00000</ele>
        <time>2009-07-31T10:38:22Z</time>
      </trkpt>
      <trkpt lat="43.39540180" lon="13.00876570">
        <ele>614.00000</ele>
        <time>2009-07-31T10:38:23Z</time>
      </trkpt>
      <trkpt lat="43.39542490" lon="13.00876370">
        <ele>605.00000</ele>
        <time>2009-07-31T10:38:24Z</time>
      </trkpt>
      <trkpt lat="43.39542020" lon="13.00877230">
        <ele>605.00000</ele>
        <time>2009-07-31T10:38:24Z</time>
      </trkpt>
      <trkpt lat="43.39541930" lon="13.00877960">
        <ele>605.00000</ele>
        <time>2009-07-31T10:38:25Z</time>
      </trkpt>
      <trkpt lat="43.39542200" lon="13.00878900">
        <ele>605.00000</ele>
        <time>2009-07-31T10:38:25Z</time>
      </trkpt>
      <trkpt lat="43.39542470" lon="13.00879410">
        <ele>605.00000</ele>
        <time>2009-07-31T10:38:25Z</time>
      </trkpt>
      <trkpt lat="43.39543370" lon="13.00876220">
        <ele>605.00000</ele>
        <time>2009-07-31T10:38:26Z</time>
      </trkpt>
      <trkpt lat="43.39543400" lon="13.00877200">
        <ele>605.00000</ele>
        <time>2009-07-31T10:38:26Z</time>
      </trkpt>
      <trkpt lat="43.39543080" lon="13.00876910">
        <ele>605.00000</ele>
        <time>2009-07-31T10:38:26Z</time>
      </trkpt>
      <trkpt lat="43.39543050" lon="13.00876950">
        <ele>605.00000</ele>
        <time>2009-07-31T10:38:26Z</time>
      </trkpt>
      <trkpt lat="43.39543080" lon="13.00876970">
        <ele>605.00000</ele>
        <time>2009-07-31T10:38:26Z</time>
      </trkpt>
      <trkpt lat="43.39543190" lon="13.00877030">
        <ele>605.00000</ele>
        <time>2009-07-31T10:38:27Z</time>
      </trkpt>
      <trkpt lat="43.39543390" lon="13.00877080">
        <ele>605.00000</ele>
        <time>2009-07-31T10:38:27Z</time>
      </trkpt>
      <trkpt lat="43.39543430" lon="13.00877080">
        <ele>605.00000</ele>
        <time>2009-07-31T10:38:27Z</time>
      </trkpt>
      <trkpt lat="43.39543370" lon="13.00877050">
        <ele>605.00000</ele>
        <time>2009-07-31T10:38:27Z</time>
      </trkpt>
      <trkpt lat="43.39543510" lon="13.00877040">
        <ele>605.00000</ele>
        <time>2009-07-31T10:38:27Z</time>
      </trkpt>
      <trkpt lat="43.39543970" lon="13.00877160">
        <ele>605.00000</ele>
        <time>2009-07-31T10:38:27Z</time>
      </trkpt>
      <trkpt lat="43.39546500" lon="13.00877400">
        <ele>605.00000</ele>
        <time>2009-07-31T10:38:28Z</time>
      </trkpt>
      <trkpt lat="43.39546980" lon="13.00877930">
        <ele>605.00000</ele>
        <time>2009-07-31T10:38:28Z</time>
      </trkpt>
      <trkpt lat="43.39547990" lon="13.00878550">
        <ele>605.00000</ele>
        <time>2009-07-31T10:38:29Z</time>
      </trkpt>
      <trkpt lat="43.39549450" lon="13.00878740">
        <ele>605.00000</ele>
        <time>2009-07-31T10:38:29Z</time>
      </trkpt>
      <trkpt lat="43.39551880" lon="13.00879500">
        <ele>605.00000</ele>
        <time>2009-07-31T10:38:30Z</time>
      </trkpt>
      <trkpt lat="43.39552930" lon="13.00879450">
        <ele>605.00000</ele>
        <time>2009-07-31T10:38:31Z</time>
      </trkpt>
      <trkpt lat="43.39553670" lon="13.00880610">
        <ele>605.00000</ele>
        <time>2009-07-31T10:38:31Z</time>
      </trkpt>
      <trkpt lat="43.39557620" lon="13.00879850">
        <ele>605.00000</ele>
        <time>2009-07-31T10:38:33Z</time>
      </trkpt>
      <trkpt lat="43.39559260" lon="13.00880170">
        <ele>605.00000</ele>
        <time>2009-07-31T10:38:33Z</time>
      </trkpt>
      <trkpt lat="43.39560410" lon="13.00880380">
        <ele>605.00000</ele>
        <time>2009-07-31T10:38:34Z</time>
      </trkpt>
      <trkpt lat="43.39561360" lon="13.00878460">
        <ele>605.00000</ele>
        <time>2009-07-31T10:38:34Z</time>
      </trkpt>
      <trkpt lat="43.39561180" lon="13.00877860">
        <ele>605.00000</ele>
        <time>2009-07-31T10:38:35Z</time>
      </trkpt>
      <trkpt lat="43.39562020" lon="13.00877960">
        <ele>605.00000</ele>
        <time>2009-07-31T10:38:35Z</time>
      </trkpt>
      <trkpt lat="43.39561700" lon="13.00878380">
        <ele>605.00000</ele>
        <time>2009-07-31T10:38:35Z</time>
      </trkpt>
      <trkpt lat="43.39562410" lon="13.00878550">
        <ele>605.00000</ele>
        <time>2009-07-31T10:38:35Z</time>
      </trkpt>
      <trkpt lat="43.39563500" lon="13.00878780">
        <ele>605.00000</ele>
        <time>2009-07-31T10:38:36Z</time>
      </trkpt>
      <trkpt lat="43.39564350" lon="13.00878890">
        <ele>605.00000</ele>
        <time>2009-07-31T10:38:36Z</time>
      </trkpt>
      <trkpt lat="43.39566260" lon="13.00877870">
        <ele>605.00000</ele>
        <time>2009-07-31T10:38:37Z</time>
      </trkpt>
      <trkpt lat="43.39568270" lon="13.00877410">
        <ele>605.00000</ele>
        <time>2009-07-31T10:38:38Z</time>
      </trkpt>
      <trkpt lat="43.39569320" lon="13.00876880">
        <ele>605.00000</ele>
        <time>2009-07-31T10:38:38Z</time>
      </trkpt>
      <trkpt lat="43.39570820" lon="13.00875850">
        <ele>605.00000</ele>
        <time>2009-07-31T10:38:39Z</time>
      </trkpt>
      <trkpt lat="43.39572320" lon="13.00874890">
        <ele>641.00000</ele>
        <time>2009-07-31T10:38:40Z</time>
      </trkpt>
      <trkpt lat="43.39574060" lon="13.00873350">
        <ele>641.00000</ele>
        <time>2009-07-31T10:38:40Z</time>
      </trkpt>
      <trkpt lat="43.39576920" lon="13.00871600">
        <ele>641.00000</ele>
        <time>2009-07-31T10:38:42Z</time>
      </trkpt>
      <trkpt lat="43.39579260" lon="13.00869880">
        <ele>641.00000</ele>
        <time>2009-07-31T10:38:43Z</time>
      </trkpt>
      <trkpt lat="43.39581380" lon="13.00869520">
        <ele>641.00000</ele>
        <time>2009-07-31T10:38:44Z</time>
      </trkpt>
      <trkpt lat="43.39583480" lon="13.00869510">
        <ele>641.00000</ele>
        <time>2009-07-31T10:38:44Z</time>
      </trkpt>
      <trkpt lat="43.39584700" lon="13.00870890">
        <ele>641.00000</ele>
        <time>2009-07-31T10:38:45Z</time>
      </trkpt>
      <trkpt lat="43.39586000" lon="13.00870900">
        <ele>641.00000</ele>
        <time>2009-07-31T10:38:46Z</time>
      </trkpt>
      <trkpt lat="43.39587860" lon="13.00871410">
        <ele>641.00000</ele>
        <time>2009-07-31T10:38:46Z</time>
      </trkpt>
      <trkpt lat="43.39589730" lon="13.00871690">
        <ele>641.00000</ele>
        <time>2009-07-31T10:38:47Z</time>
      </trkpt>
      <trkpt lat="43.39591830" lon="13.00873150">
        <ele>641.00000</ele>
        <time>2009-07-31T10:38:48Z</time>
      </trkpt>
      <trkpt lat="43.39593070" lon="13.00874470">
        <ele>641.00000</ele>
        <time>2009-07-31T10:38:49Z</time>
      </trkpt>
      <trkpt lat="43.39594160" lon="13.00875300">
        <ele>605.00000</ele>
        <time>2009-07-31T10:38:49Z</time>
      </trkpt>
      <trkpt lat="43.39596020" lon="13.00875120">
        <ele>605.00000</ele>
        <time>2009-07-31T10:38:50Z</time>
      </trkpt>
      <trkpt lat="43.39599300" lon="13.00874280">
        <ele>641.00000</ele>
        <time>2009-07-31T10:38:51Z</time>
      </trkpt>
      <trkpt lat="43.39601600" lon="13.00874220">
        <ele>641.00000</ele>
        <time>2009-07-31T10:38:52Z</time>
      </trkpt>
      <trkpt lat="43.39603990" lon="13.00875460">
        <ele>605.00000</ele>
        <time>2009-07-31T10:38:53Z</time>
      </trkpt>
      <trkpt lat="43.39607000" lon="13.00875130">
        <ele>605.00000</ele>
        <time>2009-07-31T10:38:54Z</time>
      </trkpt>
      <trkpt lat="43.39610290" lon="13.00875100">
        <ele>605.00000</ele>
        <time>2009-07-31T10:38:56Z</time>
      </trkpt>
      <trkpt lat="43.39612370" lon="13.00875850">
        <ele>605.00000</ele>
        <time>2009-07-31T10:38:57Z</time>
      </trkpt>
      <trkpt lat="43.39614370" lon="13.00875990">
        <ele>605.00000</ele>
        <time>2009-07-31T10:38:57Z</time>
      </trkpt>
      <trkpt lat="43.39616040" lon="13.00876760">
        <ele>605.00000</ele>
        <time>2009-07-31T10:38:58Z</time>
      </trkpt>
      <trkpt lat="43.39617850" lon="13.00877900">
        <ele>605.00000</ele>
        <time>2009-07-31T10:38:59Z</time>
      </trkpt>
      <trkpt lat="43.39620470" lon="13.00879210">
        <ele>605.00000</ele>
        <time>2009-07-31T10:39:00Z</time>
      </trkpt>
      <trkpt lat="43.39623250" lon="13.00879330">
        <ele>605.00000</ele>
        <time>2009-07-31T10:39:01Z</time>
      </trkpt>
      <trkpt lat="43.39626000" lon="13.00881310">
        <ele>598.00000</ele>
        <time>2009-07-31T10:39:02Z</time>
      </trkpt>
      <trkpt lat="43.39628170" lon="13.00881650">
        <ele>598.00000</ele>
        <time>2009-07-31T10:39:03Z</time>
      </trkpt>
      <trkpt lat="43.39630190" lon="13.00882620">
        <ele>598.00000</ele>
        <time>2009-07-31T10:39:04Z</time>
      </trkpt>
      <trkpt lat="43.39632480" lon="13.00882830">
        <ele>598.00000</ele>
        <time>2009-07-31T10:39:05Z</time>
      </trkpt>
      <trkpt lat="43.39634330" lon="13.00883760">
        <ele>598.00000</ele>
        <time>2009-07-31T10:39:06Z</time>
      </trkpt>
      <trkpt lat="43.39636030" lon="13.00884540">
        <ele>598.00000</ele>
        <time>2009-07-31T10:39:07Z</time>
      </trkpt>
      <trkpt lat="43.39637860" lon="13.00885660">
        <ele>598.00000</ele>
        <time>2009-07-31T10:39:07Z</time>
      </trkpt>
      <trkpt lat="43.39638880" lon="13.00885190">
        <ele>598.00000</ele>
        <time>2009-07-31T10:39:08Z</time>
      </trkpt>
      <trkpt lat="43.39640780" lon="13.00885420">
        <ele>598.00000</ele>
        <time>2009-07-31T10:39:09Z</time>
      </trkpt>
      <trkpt lat="43.39641800" lon="13.00885480">
        <ele>598.00000</ele>
        <time>2009-07-31T10:39:09Z</time>
      </trkpt>
      <trkpt lat="43.39643030" lon="13.00885250">
        <ele>598.00000</ele>
        <time>2009-07-31T10:39:09Z</time>
      </trkpt>
      <trkpt lat="43.39645990" lon="13.00883920">
        <ele>598.00000</ele>
        <time>2009-07-31T10:39:11Z</time>
      </trkpt>
      <trkpt lat="43.39646830" lon="13.00884020">
        <ele>598.00000</ele>
        <time>2009-07-31T10:39:11Z</time>
      </trkpt>
      <trkpt lat="43.39647810" lon="13.00882750">
        <ele>598.00000</ele>
        <time>2009-07-31T10:39:12Z</time>
      </trkpt>
      <trkpt lat="43.39648170" lon="13.00881680">
        <ele>598.00000</ele>
        <time>2009-07-31T10:39:12Z</time>
      </trkpt>
      <trkpt lat="43.39648000" lon="13.00879430">
        <ele>598.00000</ele>
        <time>2009-07-31T10:39:13Z</time>
      </trkpt>
      <trkpt lat="43.39647920" lon="13.00878560">
        <ele>598.00000</ele>
        <time>2009-07-31T10:39:13Z</time>
      </trkpt>
      <trkpt lat="43.39648330" lon="13.00878050">
        <ele>598.00000</ele>
        <time>2009-07-31T10:39:13Z</time>
      </trkpt>
      <trkpt lat="43.39648200" lon="13.00878020">
        <ele>598.00000</ele>
        <time>2009-07-31T10:39:13Z</time>
      </trkpt>
      <trkpt lat="43.39648050" lon="13.00878000">
        <ele>598.00000</ele>
        <time>2009-07-31T10:39:13Z</time>
      </trkpt>
      <trkpt lat="43.39648190" lon="13.00878070">
        <ele>598.00000</ele>
        <time>2009-07-31T10:39:13Z</time>
      </trkpt>
      <trkpt lat="43.39649650" lon="13.00877040">
        <ele>598.00000</ele>
        <time>2009-07-31T10:39:14Z</time>
      </trkpt>
      <trkpt lat="43.39650660" lon="13.00874900">
        <ele>612.00000</ele>
        <time>2009-07-31T10:39:15Z</time>
      </trkpt>
      <trkpt lat="43.39650320" lon="13.00874810">
        <ele>612.00000</ele>
        <time>2009-07-31T10:39:15Z</time>
      </trkpt>
      <trkpt lat="43.39651490" lon="13.00873910">
        <ele>612.00000</ele>
        <time>2009-07-31T10:39:15Z</time>
      </trkpt>
      <trkpt lat="43.39651950" lon="13.00873520">
        <ele>612.00000</ele>
        <time>2009-07-31T10:39:15Z</time>
      </trkpt>
      <trkpt lat="43.39652080" lon="13.00873470">
        <ele>612.00000</ele>
        <time>2009-07-31T10:39:16Z</time>
      </trkpt>
      <trkpt lat="43.39652210" lon="13.00873430">
        <ele>612.00000</ele>
        <time>2009-07-31T10:39:16Z</time>
      </trkpt>
    </trkseg>
    <trkseg>
      <trkpt lat="43.39653790" lon="13.00871480">
        <ele>612.00000</ele>
        <time>2009-07-31T10:23:10Z</time>
      </trkpt>
      <trkpt lat="43.39653630" lon="13.00867250">
        <ele>612.00000</ele>
        <time>2009-07-31T10:23:11Z</time>
      </trkpt>
      <trkpt lat="43.39653890" lon="13.00864210">
        <ele>612.00000</ele>
        <time>2009-07-31T10:23:12Z</time>
      </trkpt>
      <trkpt lat="43.39653640" lon="13.00860020">
        <ele>612.00000</ele>
        <time>2009-07-31T10:23:13Z</time>
      </trkpt>
      <trkpt lat="43.39653590" lon="13.00856310">
        <ele>612.00000</ele>
        <time>2009-07-31T10:23:14Z</time>
      </trkpt>
      <trkpt lat="43.39655460" lon="13.00853400">
        <ele>612.00000</ele>
        <time>2009-07-31T10:23:15Z</time>
      </trkpt>
      <trkpt lat="43.39655010" lon="13.00850930">
        <ele>612.00000</ele>
        <time>2009-07-31T10:23:16Z</time>
      </trkpt>
      <trkpt lat="43.39654420" lon="13.00847740">
        <ele>612.00000</ele>
        <time>2009-07-31T10:23:17Z</time>
      </trkpt>
      <trkpt lat="43.39654710" lon="13.00845400">
        <ele>612.00000</ele>
        <time>2009-07-31T10:23:18Z</time>
      </trkpt>
      <trkpt lat="43.39654170" lon="13.00843460">
        <ele>612.00000</ele>
        <time>2009-07-31T10:23:18Z</time>
      </trkpt>
      <trkpt lat="43.39655190" lon="13.00841070">
        <ele>612.00000</ele>
        <time>2009-07-31T10:23:19Z</time>
      </trkpt>
      <trkpt lat="43.39656850" lon="13.00837280">
        <ele>612.00000</ele>
        <time>2009-07-31T10:23:21Z</time>
      </trkpt>
      <trkpt lat="43.39657220" lon="13.00833980">
        <ele>612.00000</ele>
        <time>2009-07-31T10:23:22Z</time>
      </trkpt>
      <trkpt lat="43.39658130" lon="13.00832010">
        <ele>612.00000</ele>
        <time>2009-07-31T10:23:22Z</time>
      </trkpt>
      <trkpt lat="43.39659590" lon="13.00829620">
        <ele>612.00000</ele>
        <time>2009-07-31T10:23:23Z</time>
      </trkpt>
      <trkpt lat="43.39659480" lon="13.00826250">
        <ele>612.00000</ele>
        <time>2009-07-31T10:23:24Z</time>
      </trkpt>
      <trkpt lat="43.39660450" lon="13.00822860">
        <ele>612.00000</ele>
        <time>2009-07-31T10:23:25Z</time>
      </trkpt>
      <trkpt lat="43.39661830" lon="13.00820070">
        <ele>612.00000</ele>
        <time>2009-07-31T10:23:26Z</time>
      </trkpt>
      <trkpt lat="43.39663280" lon="13.00817610">
        <ele>612.00000</ele>
        <time>2009-07-31T10:23:27Z</time>
      </trkpt>
      <trkpt lat="43.39664740" lon="13.00815260">
        <ele>612.00000</ele>
        <time>2009-07-31T10:23:28Z</time>
      </trkpt>
      <trkpt lat="43.39665850" lon="13.00812550">
        <ele>612.00000</ele>
        <time>2009-07-31T10:23:29Z</time>
      </trkpt>
      <trkpt lat="43.39667040" lon="13.00809660">
        <ele>612.00000</ele>
        <time>2009-07-31T10:23:30Z</time>
      </trkpt>
      <trkpt lat="43.39668460" lon="13.00804640">
        <ele>612.00000</ele>
        <time>2009-07-31T10:23:31Z</time>
      </trkpt>
      <trkpt lat="43.39667040" lon="13.00800380">
        <ele>612.00000</ele>
        <time>2009-07-31T10:23:33Z</time>
      </trkpt>
      <trkpt lat="43.39669110" lon="13.00796510">
        <ele>612.00000</ele>
        <time>2009-07-31T10:23:34Z</time>
      </trkpt>
      <trkpt lat="43.39669210" lon="13.00794030">
        <ele>612.00000</ele>
        <time>2009-07-31T10:23:35Z</time>
      </trkpt>
      <trkpt lat="43.39669510" lon="13.00791940">
        <ele>612.00000</ele>
        <time>2009-07-31T10:23:35Z</time>
      </trkpt>
      <trkpt lat="43.39668930" lon="13.00789920">
        <ele>620.00000</ele>
        <time>2009-07-31T10:23:36Z</time>
      </trkpt>
      <trkpt lat="43.39668990" lon="13.00786300">
        <ele>620.00000</ele>
        <time>2009-07-31T10:23:37Z</time>
      </trkpt>
      <trkpt lat="43.39669510" lon="13.00782990">
        <ele>620.00000</ele>
        <time>2009-07-31T10:23:38Z</time>
      </trkpt>
      <trkpt lat="43.39672340" lon="13.00778390">
        <ele>620.00000</ele>
        <time>2009-07-31T10:23:40Z</time>
      </trkpt>
      <trkpt lat="43.39672680" lon="13.00773410">
        <ele>620.00000</ele>
        <time>2009-07-31T10:23:41Z</time>
      </trkpt>
      <trkpt lat="43.39673290" lon="13.00769890">
        <ele>620.00000</ele>
        <time>2009-07-31T10:23:42Z</time>
      </trkpt>
      <trkpt lat="43.39675180" lon="13.00766750">
        <ele>620.00000</ele>
        <time>2009-07-31T10:23:44Z</time>
      </trkpt>
      <trkpt lat="43.39677290" lon="13.00762840">
        <ele>620.00000</ele>
        <time>2009-07-31T10:23:45Z</time>
      </trkpt>
      <trkpt lat="43.39678020" lon="13.00759380">
        <ele>620.00000</ele>
        <time>2009-07-31T10:23:46Z</time>
      </trkpt>
      <trkpt lat="43.39678010" lon="13.00756240">
        <ele>620.00000</ele>
        <time>2009-07-31T10:23:47Z</time>
      </trkpt>
      <trkpt lat="43.39678390" lon="13.00753040">
        <ele>620.00000</ele>
        <time>2009-07-31T10:23:48Z</time>
      </trkpt>
      <trkpt lat="43.39678240" lon="13.00749230">
        <ele>620.00000</ele>
        <time>2009-07-31T10:23:49Z</time>
      </trkpt>
      <trkpt lat="43.39681420" lon="13.00745030">
        <ele>620.00000</ele>
        <time>2009-07-31T10:23:51Z</time>
      </trkpt>
      <trkpt lat="43.39681840" lon="13.00742560">
        <ele>620.00000</ele>
        <time>2009-07-31T10:23:52Z</time>
      </trkpt>
      <trkpt lat="43.39682820" lon="13.00739770">
        <ele>620.00000</ele>
        <time>2009-07-31T10:23:52Z</time>
      </trkpt>
      <trkpt lat="43.39683760" lon="13.00736730">
        <ele>620.00000</ele>
        <time>2009-07-31T10:23:53Z</time>
      </trkpt>
      <trkpt lat="43.39683320" lon="13.00735140">
        <ele>620.00000</ele>
        <time>2009-07-31T10:23:54Z</time>
      </trkpt>
      <trkpt lat="43.39684580" lon="13.00732730">
        <ele>620.00000</ele>
        <time>2009-07-31T10:23:55Z</time>
      </trkpt>
      <trkpt lat="43.39686090" lon="13.00730140">
        <ele>620.00000</ele>
        <time>2009-07-31T10:23:56Z</time>
      </trkpt>
      <trkpt lat="43.39688260" lon="13.00727720">
        <ele>620.00000</ele>
        <time>2009-07-31T10:23:57Z</time>
      </trkpt>
      <trkpt lat="43.39689450" lon="13.00724500">
        <ele>620.00000</ele>
        <time>2009-07-31T10:23:58Z</time>
      </trkpt>
      <trkpt lat="43.39691630" lon="13.00723050">
        <ele>620.00000</ele>
        <time>2009-07-31T10:23:59Z</time>
      </trkpt>
      <trkpt lat="43.39693700" lon="13.00721440">
        <ele>620.00000</ele>
        <time>2009-07-31T10:24:00Z</time>
      </trkpt>
      <trkpt lat="43.39694730" lon="13.00718970">
        <ele>620.00000</ele>
        <time>2009-07-31T10:24:01Z</time>
      </trkpt>
      <trkpt lat="43.39695430" lon="13.00717060">
        <ele>620.00000</ele>
        <time>2009-07-31T10:24:01Z</time>
      </trkpt>
      <trkpt lat="43.39695400" lon="13.00717610">
        <ele>620.00000</ele>
        <time>2009-07-31T10:24:01Z</time>
      </trkpt>
      <trkpt lat="43.39696450" lon="13.00718020">
        <ele>620.00000</ele>
        <time>2009-07-31T10:24:02Z</time>
      </trkpt>
      <trkpt lat="43.39696360" lon="13.00717980">
        <ele>620.00000</ele>
        <time>2009-07-31T10:24:02Z</time>
      </trkpt>
      <trkpt lat="43.39696360" lon="13.00718000">
        <ele>620.00000</ele>
        <time>2009-07-31T10:24:02Z</time>
      </trkpt>
      <trkpt lat="43.39696460" lon="13.00718060">
        <ele>620.00000</ele>
        <time>2009-07-31T10:24:02Z</time>
      </trkpt>
      <trkpt lat="43.39696870" lon="13.00718180">
        <ele>620.00000</ele>
        <time>2009-07-31T10:24:02Z</time>
      </trkpt>
      <trkpt lat="43.39699070" lon="13.00716750">
        <ele>620.00000</ele>
        <time>2009-07-31T10:24:03Z</time>
      </trkpt>
      <trkpt lat="43.39699790" lon="13.00717020">
        <ele>620.00000</ele>
        <time>2009-07-31T10:24:03Z</time>
      </trkpt>
      <trkpt lat="43.39700090" lon="13.00716670">
        <ele>620.00000</ele>
        <time>2009-07-31T10:24:03Z</time>
      </trkpt>
      <trkpt lat="43.39701050" lon="13.00716830">
        <ele>620.00000</ele>
        <time>2009-07-31T10:24:04Z</time>
      </trkpt>
      <trkpt lat="43.39703620" lon="13.00716170">
        <ele>620.00000</ele>
        <time>2009-07-31T10:24:05Z</time>
      </trkpt>
      <trkpt lat="43.39706990" lon="13.00714090">
        <ele>620.00000</ele>
        <time>2009-07-31T10:24:06Z</time>
      </trkpt>
      <trkpt lat="43.39709100" lon="13.00712360">
        <ele>584.00000</ele>
        <time>2009-07-31T10:24:07Z</time>
      </trkpt>
      <trkpt lat="43.39711710" lon="13.00711400">
        <ele>584.00000</ele>
        <time>2009-07-31T10:24:08Z</time>
      </trkpt>
      <trkpt lat="43.39711860" lon="13.00711290">
        <ele>584.00000</ele>
        <time>2009-07-31T10:24:09Z</time>
      </trkpt>
      <trkpt lat="43.39711980" lon="13.00709880">
        <ele>584.00000</ele>
        <time>2009-07-31T10:24:09Z</time>
      </trkpt>
      <trkpt lat="43.39712350" lon="13.00708470">
        <ele>584.00000</ele>
        <time>2009-07-31T10:24:09Z</time>
      </trkpt>
      <trkpt lat="43.39712360" lon="13.00707320">
        <ele>581.00000</ele>
        <time>2009-07-31T10:24:10Z</time>
      </trkpt>
      <trkpt lat="43.39713500" lon="13.00705520">
        <ele>581.00000</ele>
        <time>2009-07-31T10:24:10Z</time>
      </trkpt>
      <trkpt lat="43.39713330" lon="13.00704970">
        <ele>581.00000</ele>
        <time>2009-07-31T10:24:11Z</time>
      </trkpt>
      <trkpt lat="43.39713830" lon="13.00705150">
        <ele>581.00000</ele>
        <time>2009-07-31T10:24:11Z</time>
      </trkpt>
      <trkpt lat="43.39714950" lon="13.00704620">
        <ele>581.00000</ele>
        <time>2009-07-31T10:24:11Z</time>
      </trkpt>
      <trkpt lat="43.39715980" lon="13.00706280">
        <ele>581.00000</ele>
        <time>2009-07-31T10:24:12Z</time>
      </trkpt>
      <trkpt lat="43.39717090" lon="13.00705720">
        <ele>581.00000</ele>
        <time>2009-07-31T10:24:12Z</time>
      </trkpt>
      <trkpt lat="43.39716970" lon="13.00703360">
        <ele>581.00000</ele>
        <time>2009-07-31T10:24:13Z</time>
      </trkpt>
      <trkpt lat="43.39717110" lon="13.00697930">
        <ele>581.00000</ele>
        <time>2009-07-31T10:24:15Z</time>
      </trkpt>
      <trkpt lat="43.39717590" lon="13.00694830">
        <ele>581.00000</ele>
        <time>2009-07-31T10:24:16Z</time>
      </trkpt>
      <trkpt lat="43.39718600" lon="13.00693330">
        <ele>581.00000</ele>
        <time>2009-07-31T10:24:16Z</time>
      </trkpt>
      <trkpt lat="43.39719280" lon="13.00690720">
        <ele>581.00000</ele>
        <time>2009-07-31T10:24:17Z</time>
      </trkpt>
      <trkpt lat="43.39719820" lon="13.00689970">
        <ele>581.00000</ele>
        <time>2009-07-31T10:24:17Z</time>
      </trkpt>
      <trkpt lat="43.39720850" lon="13.00690540">
        <ele>581.00000</ele>
        <time>2009-07-31T10:24:18Z</time>
      </trkpt>
      <trkpt lat="43.39721660" lon="13.00690640">
        <ele>581.00000</ele>
        <time>2009-07-31T10:24:18Z</time>
      </trkpt>
      <trkpt lat="43.39723490" lon="13.00691060">
        <ele>581.00000</ele>
        <time>2009-07-31T10:24:19Z</time>
      </trkpt>
      <trkpt lat="43.39724050" lon="13.00691970">
        <ele>581.00000</ele>
        <time>2009-07-31T10:24:19Z</time>
      </trkpt>
      <trkpt lat="43.39726070" lon="13.00690690">
        <ele>581.00000</ele>
        <time>2009-07-31T10:24:20Z</time>
      </trkpt>
      <trkpt lat="43.39725240" lon="13.00691600">
        <ele>581.00000</ele>
        <time>2009-07-31T10:24:20Z</time>
      </trkpt>
      <trkpt lat="43.39724090" lon="13.00691310">
        <ele>581.00000</ele>
        <time>2009-07-31T10:24:21Z</time>
      </trkpt>
      <trkpt lat="43.39724770" lon="13.00689790">
        <ele>581.00000</ele>
        <time>2009-07-31T10:24:21Z</time>
      </trkpt>
      <trkpt lat="43.39725930" lon="13.00686690">
        <ele>581.00000</ele>
        <time>2009-07-31T10:24:22Z</time>
      </trkpt>
      <trkpt lat="43.39725240" lon="13.00683920">
        <ele>581.00000</ele>
        <time>2009-07-31T10:24:23Z</time>
      </trkpt>
      <trkpt lat="43.39725320" lon="13.00682100">
        <ele>581.00000</ele>
        <time>2009-07-31T10:24:24Z</time>
      </trkpt>
      <trkpt lat="43.39724870" lon="13.00680730">
        <ele>581.00000</ele>
        <time>2009-07-31T10:24:24Z</time>
      </trkpt>
      <trkpt lat="43.39724410" lon="13.00680470">
        <ele>581.00000</ele>
        <time>2009-07-31T10:24:24Z</time>
      </trkpt>
      <trkpt lat="43.39722510" lon="13.00679190">
        <ele>581.00000</ele>
        <time>2009-07-31T10:24:25Z</time>
      </trkpt>
      <trkpt lat="43.39721750" lon="13.00678230">
        <ele>581.00000</ele>
        <time>2009-07-31T10:24:26Z</time>
      </trkpt>
      <trkpt lat="43.39720570" lon="13.00676640">
        <ele>581.00000</ele>
        <time>2009-07-31T10:24:26Z</time>
      </trkpt>
      <trkpt lat="43.39720630" lon="13.00675000">
        <ele>581.00000</ele>
        <time>2009-07-31T10:24:27Z</time>
      </trkpt>
      <trkpt lat="43.39719220" lon="13.00673740">
        <ele>581.00000</ele>
        <time>2009-07-31T10:24:28Z</time>
      </trkpt>
      <trkpt lat="43.39718780" lon="13.00672560">
        <ele>581.00000</ele>
        <time>2009-07-31T10:24:28Z</time>
      </trkpt>
      <trkpt lat="43.39718140" lon="13.00671030">
        <ele>581.00000</ele>
        <time>2009-07-31T10:24:28Z</time>
      </trkpt>
      <trkpt lat="43.39717060" lon="13.00669650">
        <ele>581.00000</ele>
        <time>2009-07-31T10:24:29Z</time>
      </trkpt>
      <trkpt lat="43.39716140" lon="13.00667800">
        <ele>581.00000</ele>
        <time>2009-07-31T10:24:30Z</time>
      </trkpt>
      <trkpt lat="43.39715200" lon="13.00667340">
        <ele>581.00000</ele>
        <time>2009-07-31T10:24:30Z</time>
      </trkpt>
      <trkpt lat="43.39714820" lon="13.00665510">
        <ele>581.00000</ele>
        <time>2009-07-31T10:24:31Z</time>
      </trkpt>
      <trkpt lat="43.39713130" lon="13.00661970">
        <ele>581.00000</ele>
        <time>2009-07-31T10:24:32Z</time>
      </trkpt>
      <trkpt lat="43.39712210" lon="13.00658290">
        <ele>581.00000</ele>
        <time>2009-07-31T10:24:33Z</time>
      </trkpt>
      <trkpt lat="43.39710640" lon="13.00656240">
        <ele>581.00000</ele>
        <time>2009-07-31T10:24:34Z</time>
      </trkpt>
      <trkpt lat="43.39708900" lon="13.00653850">
        <ele>581.00000</ele>
        <time>2009-07-31T10:24:35Z</time>
      </trkpt>
      <trkpt lat="43.39706750" lon="13.00651380">
        <ele>614.00000</ele>
        <time>2009-07-31T10:24:36Z</time>
      </trkpt>
      <trkpt lat="43.39706430" lon="13.00647090">
        <ele>614.00000</ele>
        <time>2009-07-31T10:24:37Z</time>
      </trkpt>
      <trkpt lat="43.39705080" lon="13.00645200">
        <ele>614.00000</ele>
        <time>2009-07-31T10:24:38Z</time>
      </trkpt>
      <trkpt lat="43.39703420" lon="13.00642590">
        <ele>614.00000</ele>
        <time>2009-07-31T10:24:39Z</time>
      </trkpt>
      <trkpt lat="43.39702810" lon="13.00639900">
        <ele>614.00000</ele>
        <time>2009-07-31T10:24:40Z</time>
      </trkpt>
      <trkpt lat="43.39700990" lon="13.00638170">
        <ele>614.00000</ele>
        <time>2009-07-31T10:24:41Z</time>
      </trkpt>
      <trkpt lat="43.39698670" lon="13.00635740">
        <ele>614.00000</ele>
        <time>2009-07-31T10:24:42Z</time>
      </trkpt>
      <trkpt lat="43.39695460" lon="13.00633820">
        <ele>614.00000</ele>
        <time>2009-07-31T10:24:43Z</time>
      </trkpt>
      <trkpt lat="43.39692790" lon="13.00631700">
        <ele>614.00000</ele>
        <time>2009-07-31T10:24:45Z</time>
      </trkpt>
      <trkpt lat="43.39691000" lon="13.00630530">
        <ele>614.00000</ele>
        <time>2009-07-31T10:24:45Z</time>
      </trkpt>
      <trkpt lat="43.39689430" lon="13.00628080">
        <ele>614.00000</ele>
        <time>2009-07-31T10:24:46Z</time>
      </trkpt>
      <trkpt lat="43.39687450" lon="13.00626580">
        <ele>614.00000</ele>
        <time>2009-07-31T10:24:47Z</time>
      </trkpt>
      <trkpt lat="43.39684000" lon="13.00625540">
        <ele>614.00000</ele>
        <time>2009-07-31T10:24:49Z</time>
      </trkpt>
      <trkpt lat="43.39680750" lon="13.00624390">
        <ele>595.00000</ele>
        <time>2009-07-31T10:24:50Z</time>
      </trkpt>
      <trkpt lat="43.39678530" lon="13.00621940">
        <ele>595.00000</ele>
        <time>2009-07-31T10:24:51Z</time>
      </trkpt>
      <trkpt lat="43.39678110" lon="13.00618100">
        <ele>595.00000</ele>
        <time>2009-07-31T10:24:52Z</time>
      </trkpt>
      <trkpt lat="43.39676620" lon="13.00614640">
        <ele>595.00000</ele>
        <time>2009-07-31T10:24:53Z</time>
      </trkpt>
      <trkpt lat="43.39675520" lon="13.00612660">
        <ele>595.00000</ele>
        <time>2009-07-31T10:24:54Z</time>
      </trkpt>
      <trkpt lat="43.39674280" lon="13.00610570">
        <ele>595.00000</ele>
        <time>2009-07-31T10:24:55Z</time>
      </trkpt>
      <trkpt lat="43.39672460" lon="13.00609030">
        <ele>595.00000</ele>
        <time>2009-07-31T10:24:56Z</time>
      </trkpt>
      <trkpt lat="43.39671120" lon="13.00607580">
        <ele>595.00000</ele>
        <time>2009-07-31T10:24:56Z</time>
      </trkpt>
      <trkpt lat="43.39669010" lon="13.00605730">
        <ele>595.00000</ele>
        <time>2009-07-31T10:24:57Z</time>
      </trkpt>
      <trkpt lat="43.39667270" lon="13.00602890">
        <ele>595.00000</ele>
        <time>2009-07-31T10:24:58Z</time>
      </trkpt>
      <trkpt lat="43.39666110" lon="13.00600680">
        <ele>595.00000</ele>
        <time>2009-07-31T10:24:59Z</time>
      </trkpt>
      <trkpt lat="43.39666050" lon="13.00597230">
        <ele>595.00000</ele>
        <time>2009-07-31T10:25:00Z</time>
      </trkpt>
      <trkpt lat="43.39664630" lon="13.00594110">
        <ele>595.00000</ele>
        <time>2009-07-31T10:25:01Z</time>
      </trkpt>
      <trkpt lat="43.39663560" lon="13.00592110">
        <ele>595.00000</ele>
        <time>2009-07-31T10:25:02Z</time>
      </trkpt>
      <trkpt lat="43.39663090" lon="13.00587880">
        <ele>595.00000</ele>
        <time>2009-07-31T10:25:03Z</time>
      </trkpt>
      <trkpt lat="43.39662780" lon="13.00584860">
        <ele>595.00000</ele>
        <time>2009-07-31T10:25:04Z</time>
      </trkpt>
      <trkpt lat="43.39662310" lon="13.00581260">
        <ele>595.00000</ele>
        <time>2009-07-31T10:25:05Z</time>
      </trkpt>
      <trkpt lat="43.39661480" lon="13.00578050">
        <ele>595.00000</ele>
        <time>2009-07-31T10:25:06Z</time>
      </trkpt>
      <trkpt lat="43.39661040" lon="13.00575030">
        <ele>595.00000</ele>
        <time>2009-07-31T10:25:07Z</time>
      </trkpt>
      <trkpt lat="43.39661170" lon="13.00572990">
        <ele>595.00000</ele>
        <time>2009-07-31T10:25:08Z</time>
      </trkpt>
      <trkpt lat="43.39661340" lon="13.00569310">
        <ele>595.00000</ele>
        <time>2009-07-31T10:25:09Z</time>
      </trkpt>
      <trkpt lat="43.39662230" lon="13.00567240">
        <ele>595.00000</ele>
        <time>2009-07-31T10:25:10Z</time>
      </trkpt>
      <trkpt lat="43.39661630" lon="13.00563770">
        <ele>595.00000</ele>
        <time>2009-07-31T10:25:11Z</time>
      </trkpt>
      <trkpt lat="43.39660320" lon="13.00562030">
        <ele>595.00000</ele>
        <time>2009-07-31T10:25:11Z</time>
      </trkpt>
      <trkpt lat="43.39658410" lon="13.00558800">
        <ele>595.00000</ele>
        <time>2009-07-31T10:25:12Z</time>
      </trkpt>
      <trkpt lat="43.39658020" lon="13.00555250">
        <ele>595.00000</ele>
        <time>2009-07-31T10:25:14Z</time>
      </trkpt>
      <trkpt lat="43.39657270" lon="13.00553530">
        <ele>595.00000</ele>
        <time>2009-07-31T10:25:14Z</time>
      </trkpt>
      <trkpt lat="43.39658550" lon="13.00552250">
        <ele>595.00000</ele>
        <time>2009-07-31T10:25:15Z</time>
      </trkpt>
      <trkpt lat="43.39658240" lon="13.00550440">
        <ele>595.00000</ele>
        <time>2009-07-31T10:25:15Z</time>
      </trkpt>
      <trkpt lat="43.39658290" lon="13.00549670">
        <ele>595.00000</ele>
        <time>2009-07-31T10:25:16Z</time>
      </trkpt>
      <trkpt lat="43.39660610" lon="13.00546830">
        <ele>595.00000</ele>
        <time>2009-07-31T10:25:17Z</time>
      </trkpt>
      <trkpt lat="43.39661910" lon="13.00544880">
        <ele>595.00000</ele>
        <time>2009-07-31T10:25:18Z</time>
      </trkpt>
      <trkpt lat="43.39663270" lon="13.00544560">
        <ele>595.00000</ele>
        <time>2009-07-31T10:25:18Z</time>
      </trkpt>
      <trkpt lat="43.39664440" lon="13.00543370">
        <ele>595.00000</ele>
        <time>2009-07-31T10:25:19Z</time>
      </trkpt>
      <trkpt lat="43.39664840" lon="13.00542860">
        <ele>595.00000</ele>
        <time>2009-07-31T10:25:19Z</time>
      </trkpt>
      <trkpt lat="43.39666320" lon="13.00542430">
        <ele>595.00000</ele>
        <time>2009-07-31T10:25:19Z</time>
      </trkpt>
      <trkpt lat="43.39667970" lon="13.00540750">
        <ele>584.00000</ele>
        <time>2009-07-31T10:25:20Z</time>
      </trkpt>
      <trkpt lat="43.39668250" lon="13.00540640">
        <ele>584.00000</ele>
        <time>2009-07-31T10:25:20Z</time>
      </trkpt>
      <trkpt lat="43.39668580" lon="13.00539280">
        <ele>584.00000</ele>
        <time>2009-07-31T10:25:21Z</time>
      </trkpt>
      <trkpt lat="43.39669380" lon="13.00539040">
        <ele>584.00000</ele>
        <time>2009-07-31T10:25:21Z</time>
      </trkpt>
      <trkpt lat="43.39670610" lon="13.00537370">
        <ele>584.00000</ele>
        <time>2009-07-31T10:25:22Z</time>
      </trkpt>
      <trkpt lat="43.39672760" lon="13.00534360">
        <ele>584.00000</ele>
        <time>2009-07-31T10:25:23Z</time>
      </trkpt>
      <trkpt lat="43.39674570" lon="13.00533070">
        <ele>584.00000</ele>
        <time>2009-07-31T10:25:24Z</time>
      </trkpt>
      <trkpt lat="43.39677710" lon="13.00530090">
        <ele>584.00000</ele>
        <time>2009-07-31T10:25:25Z</time>
      </trkpt>
      <trkpt lat="43.39678940" lon="13.00528740">
        <ele>584.00000</ele>
        <time>2009-07-31T10:25:26Z</time>
      </trkpt>
      <trkpt lat="43.39680880" lon="13.00527650">
        <ele>584.00000</ele>
        <time>2009-07-31T10:25:27Z</time>
      </trkpt>
      <trkpt lat="43.39682860" lon="13.00525580">
        <ele>584.00000</ele>
        <time>2009-07-31T10:25:28Z</time>
      </trkpt>
      <trkpt lat="43.39684070" lon="13.00522840">
        <ele>584.00000</ele>
        <time>2009-07-31T10:25:29Z</time>
      </trkpt>
      <trkpt lat="43.39685200" lon="13.00521500">
        <ele>584.00000</ele>
        <time>2009-07-31T10:25:29Z</time>
      </trkpt>
      <trkpt lat="43.39685250" lon="13.00519620">
        <ele>584.00000</ele>
        <time>2009-07-31T10:25:30Z</time>
      </trkpt>
      <trkpt lat="43.39685930" lon="13.00517080">
        <ele>584.00000</ele>
        <time>2009-07-31T10:25:31Z</time>
      </trkpt>
      <trkpt lat="43.39687620" lon="13.00514290">
        <ele>584.00000</ele>
        <time>2009-07-31T10:25:32Z</time>
      </trkpt>
      <trkpt lat="43.39688430" lon="13.00511040">
        <ele>584.00000</ele>
        <time>2009-07-31T10:25:33Z</time>
      </trkpt>
      <trkpt lat="43.39690060" lon="13.00508160">
        <ele>584.00000</ele>
        <time>2009-07-31T10:25:34Z</time>
      </trkpt>
      <trkpt lat="43.39692050" lon="13.00504720">
        <ele>584.00000</ele>
        <time>2009-07-31T10:25:35Z</time>
      </trkpt>
      <trkpt lat="43.39692550" lon="13.00502710">
        <ele>584.00000</ele>
        <time>2009-07-31T10:25:36Z</time>
      </trkpt>
      <trkpt lat="43.39692910" lon="13.00499830">
        <ele>584.00000</ele>
        <time>2009-07-31T10:25:37Z</time>
      </trkpt>
      <trkpt lat="43.39694190" lon="13.00498080">
        <ele>584.00000</ele>
        <time>2009-07-31T10:25:37Z</time>
      </trkpt>
      <trkpt lat="43.39694860" lon="13.00496630">
        <ele>584.00000</ele>
        <time>2009-07-31T10:25:38Z</time>
      </trkpt>
      <trkpt lat="43.39693640" lon="13.00496650">
        <ele>584.00000</ele>
        <time>2009-07-31T10:25:38Z</time>
      </trkpt>
      <trkpt lat="43.39694150" lon="13.00495140">
        <ele>584.00000</ele>
        <time>2009-07-31T10:25:39Z</time>
      </trkpt>
      <trkpt lat="43.39695490" lon="13.00493050">
        <ele>584.00000</ele>
        <time>2009-07-31T10:25:40Z</time>
      </trkpt>
      <trkpt lat="43.39694800" lon="13.00493360">
        <ele>584.00000</ele>
        <time>2009-07-31T10:25:40Z</time>
      </trkpt>
      <trkpt lat="43.39695850" lon="13.00491930">
        <ele>584.00000</ele>
        <time>2009-07-31T10:25:41Z</time>
      </trkpt>
      <trkpt lat="43.39697220" lon="13.00489880">
        <ele>584.00000</ele>
        <time>2009-07-31T10:25:41Z</time>
      </trkpt>
      <trkpt lat="43.39697700" lon="13.00487370">
        <ele>584.00000</ele>
        <time>2009-07-31T10:25:42Z</time>
      </trkpt>
      <trkpt lat="43.39699390" lon="13.00485660">
        <ele>584.00000</ele>
        <time>2009-07-31T10:25:43Z</time>
      </trkpt>
      <trkpt lat="43.39699300" lon="13.00484120">
        <ele>584.00000</ele>
        <time>2009-07-31T10:25:43Z</time>
      </trkpt>
      <trkpt lat="43.39700250" lon="13.00483280">
        <ele>584.00000</ele>
        <time>2009-07-31T10:25:44Z</time>
      </trkpt>
      <trkpt lat="43.39700030" lon="13.00483090">
        <ele>584.00000</ele>
        <time>2009-07-31T10:25:44Z</time>
      </trkpt>
      <trkpt lat="43.39700260" lon="13.00481740">
        <ele>584.00000</ele>
        <time>2009-07-31T10:25:44Z</time>
      </trkpt>
      <trkpt lat="43.39702290" lon="13.00481480">
        <ele>584.00000</ele>
        <time>2009-07-31T10:25:45Z</time>
      </trkpt>
      <trkpt lat="43.39705370" lon="13.00481630">
        <ele>584.00000</ele>
        <time>2009-07-31T10:25:46Z</time>
      </trkpt>
      <trkpt lat="43.39704810" lon="13.00482290">
        <ele>584.00000</ele>
        <time>2009-07-31T10:25:47Z</time>
      </trkpt>
      <trkpt lat="43.39704570" lon="13.00482380">
        <ele>584.00000</ele>
        <time>2009-07-31T10:25:47Z</time>
      </trkpt>
      <trkpt lat="43.39705020" lon="13.00482350">
        <ele>584.00000</ele>
        <time>2009-07-31T10:25:47Z</time>
      </trkpt>
      <trkpt lat="43.39705450" lon="13.00483410">
        <ele>584.00000</ele>
        <time>2009-07-31T10:25:47Z</time>
      </trkpt>
      <trkpt lat="43.39707080" lon="13.00482850">
        <ele>584.00000</ele>
        <time>2009-07-31T10:25:48Z</time>
      </trkpt>
      <trkpt lat="43.39708220" lon="13.00483910">
        <ele>584.00000</ele>
        <time>2009-07-31T10:25:49Z</time>
      </trkpt>
      <trkpt lat="43.39708920" lon="13.00485630">
        <ele>554.00000</ele>
        <time>2009-07-31T10:25:49Z</time>
      </trkpt>
      <trkpt lat="43.39710140" lon="13.00486280">
        <ele>554.00000</ele>
        <time>2009-07-31T10:25:50Z</time>
      </trkpt>
      <trkpt lat="43.39711690" lon="13.00486640">
        <ele>554.00000</ele>
        <time>2009-07-31T10:25:50Z</time>
      </trkpt>
      <trkpt lat="43.39712490" lon="13.00487780">
        <ele>554.00000</ele>
        <time>2009-07-31T10:25:51Z</time>
      </trkpt>
      <trkpt lat="43.39712570" lon="13.00488310">
        <ele>554.00000</ele>
        <time>2009-07-31T10:25:51Z</time>
      </trkpt>
      <trkpt lat="43.39712430" lon="13.00488170">
        <ele>554.00000</ele>
        <time>2009-07-31T10:25:51Z</time>
      </trkpt>
      <trkpt lat="43.39712410" lon="13.00487670">
        <ele>554.00000</ele>
        <time>2009-07-31T10:25:51Z</time>
      </trkpt>
      <trkpt lat="43.39711400" lon="13.00488230">
        <ele>554.00000</ele>
        <time>2009-07-31T10:25:52Z</time>
      </trkpt>
      <trkpt lat="43.39711370" lon="13.00488210">
        <ele>554.00000</ele>
        <time>2009-07-31T10:25:52Z</time>
      </trkpt>
      <trkpt lat="43.39711800" lon="13.00488300">
        <ele>554.00000</ele>
        <time>2009-07-31T10:25:52Z</time>
      </trkpt>
      <trkpt lat="43.39712100" lon="13.00488400">
        <ele>554.00000</ele>
        <time>2009-07-31T10:25:52Z</time>
      </trkpt>
      <trkpt lat="43.39712770" lon="13.00487080">
        <ele>554.00000</ele>
        <time>2009-07-31T10:25:52Z</time>
      </trkpt>
      <trkpt lat="43.39715400" lon="13.00484730">
        <ele>554.00000</ele>
        <time>2009-07-31T10:25:54Z</time>
      </trkpt>
      <trkpt lat="43.39717810" lon="13.00483710">
        <ele>554.00000</ele>
        <time>2009-07-31T10:25:55Z</time>
      </trkpt>
      <trkpt lat="43.39718010" lon="13.00483750">
        <ele>554.00000</ele>
        <time>2009-07-31T10:25:55Z</time>
      </trkpt>
      <trkpt lat="43.39718160" lon="13.00483770">
        <ele>554.00000</ele>
        <time>2009-07-31T10:25:55Z</time>
      </trkpt>
      <trkpt lat="43.39718220" lon="13.00483690">
        <ele>554.00000</ele>
        <time>2009-07-31T10:25:55Z</time>
      </trkpt>
      <trkpt lat="43.39716360" lon="13.00482860">
        <ele>554.00000</ele>
        <time>2009-07-31T10:25:56Z</time>
      </trkpt>
      <trkpt lat="43.39714730" lon="13.00480240">
        <ele>554.00000</ele>
        <time>2009-07-31T10:25:57Z</time>
      </trkpt>
      <trkpt lat="43.39714300" lon="13.00477210">
        <ele>554.00000</ele>
        <time>2009-07-31T10:25:57Z</time>
      </trkpt>
      <trkpt lat="43.39713520" lon="13.00475350">
        <ele>554.00000</ele>
        <time>2009-07-31T10:25:58Z</time>
      </trkpt>
      <trkpt lat="43.39712940" lon="13.00474760">
        <ele>554.00000</ele>
        <time>2009-07-31T10:25:58Z</time>
      </trkpt>
      <trkpt lat="43.39712260" lon="13.00475030">
        <ele>554.00000</ele>
        <time>2009-07-31T10:25:59Z</time>
      </trkpt>
      <trkpt lat="43.39712150" lon="13.00475010">
        <ele>554.00000</ele>
        <time>2009-07-31T10:25:59Z</time>
      </trkpt>
      <trkpt lat="43.39712040" lon="13.00475000">
        <ele>554.00000</ele>
        <time>2009-07-31T10:25:59Z</time>
      </trkpt>
      <trkpt lat="43.39712000" lon="13.00474970">
        <ele>554.00000</ele>
        <time>2009-07-31T10:25:59Z</time>
      </trkpt>
      <trkpt lat="43.39712090" lon="13.00474960">
        <ele>554.00000</ele>
        <time>2009-07-31T10:25:59Z</time>
      </trkpt>
      <trkpt lat="43.39712090" lon="13.00474950">
        <ele>554.00000</ele>
        <time>2009-07-31T10:25:59Z</time>
      </trkpt>
      <trkpt lat="43.39712070" lon="13.00474970">
        <ele>554.00000</ele>
        <time>2009-07-31T10:25:59Z</time>
      </trkpt>
      <trkpt lat="43.39712050" lon="13.00475000">
        <ele>554.00000</ele>
        <time>2009-07-31T10:25:59Z</time>
      </trkpt>
      <trkpt lat="43.39712040" lon="13.00475050">
        <ele>554.00000</ele>
        <time>2009-07-31T10:25:59Z</time>
      </trkpt>
      <trkpt lat="43.39712050" lon="13.00475080">
        <ele>554.00000</ele>
        <time>2009-07-31T10:25:59Z</time>
      </trkpt>
      <trkpt lat="43.39712040" lon="13.00475090">
        <ele>554.00000</ele>
        <time>2009-07-31T10:25:59Z</time>
      </trkpt>
      <trkpt lat="43.39712040" lon="13.00475080">
        <ele>554.00000</ele>
        <time>2009-07-31T10:25:59Z</time>
      </trkpt>
      <trkpt lat="43.39712040" lon="13.00475020">
        <ele>554.00000</ele>
        <time>2009-07-31T10:25:59Z</time>
      </trkpt>
      <trkpt lat="43.39712290" lon="13.00473530">
        <ele>554.00000</ele>
        <time>2009-07-31T10:25:59Z</time>
      </trkpt>
      <trkpt lat="43.39711500" lon="13.00471720">
        <ele>554.00000</ele>
        <time>2009-07-31T10:26:00Z</time>
      </trkpt>
      <trkpt lat="43.39711370" lon="13.00469490">
        <ele>554.00000</ele>
        <time>2009-07-31T10:26:01Z</time>
      </trkpt>
      <trkpt lat="43.39711670" lon="13.00467620">
        <ele>554.00000</ele>
        <time>2009-07-31T10:26:01Z</time>
      </trkpt>
      <trkpt lat="43.39710400" lon="13.00465590">
        <ele>554.00000</ele>
        <time>2009-07-31T10:26:02Z</time>
      </trkpt>
      <trkpt lat="43.39710240" lon="13.00459910">
        <ele>554.00000</ele>
        <time>2009-07-31T10:26:03Z</time>
      </trkpt>
      <trkpt lat="43.39710280" lon="13.00457250">
        <ele>563.00000</ele>
        <time>2009-07-31T10:26:04Z</time>
      </trkpt>
      <trkpt lat="43.39709600" lon="13.00455360">
        <ele>563.00000</ele>
        <time>2009-07-31T10:26:05Z</time>
      </trkpt>
      <trkpt lat="43.39710000" lon="13.00451620">
        <ele>563.00000</ele>
        <time>2009-07-31T10:26:06Z</time>
      </trkpt>
      <trkpt lat="43.39708930" lon="13.00449190">
        <ele>563.00000</ele>
        <time>2009-07-31T10:26:07Z</time>
      </trkpt>
      <trkpt lat="43.39707810" lon="13.00447180">
        <ele>585.00000</ele>
        <time>2009-07-31T10:26:08Z</time>
      </trkpt>
      <trkpt lat="43.39707230" lon="13.00445440">
        <ele>585.00000</ele>
        <time>2009-07-31T10:26:08Z</time>
      </trkpt>
      <trkpt lat="43.39707230" lon="13.00442490">
        <ele>585.00000</ele>
        <time>2009-07-31T10:26:09Z</time>
      </trkpt>
      <trkpt lat="43.39705820" lon="13.00440700">
        <ele>585.00000</ele>
        <time>2009-07-31T10:26:10Z</time>
      </trkpt>
      <trkpt lat="43.39707510" lon="13.00437230">
        <ele>585.00000</ele>
        <time>2009-07-31T10:26:11Z</time>
      </trkpt>
      <trkpt lat="43.39709190" lon="13.00435550">
        <ele>563.00000</ele>
        <time>2009-07-31T10:26:12Z</time>
      </trkpt>
      <trkpt lat="43.39710850" lon="13.00433170">
        <ele>563.00000</ele>
        <time>2009-07-31T10:26:13Z</time>
      </trkpt>
      <trkpt lat="43.39712630" lon="13.00432140">
        <ele>563.00000</ele>
        <time>2009-07-31T10:26:14Z</time>
      </trkpt>
      <trkpt lat="43.39714500" lon="13.00431940">
        <ele>563.00000</ele>
        <time>2009-07-31T10:26:14Z</time>
      </trkpt>
      <trkpt lat="43.39716320" lon="13.00430630">
        <ele>563.00000</ele>
        <time>2009-07-31T10:26:15Z</time>
      </trkpt>
      <trkpt lat="43.39717440" lon="13.00430380">
        <ele>563.00000</ele>
        <time>2009-07-31T10:26:16Z</time>
      </trkpt>
      <trkpt lat="43.39718080" lon="13.00429330">
        <ele>563.00000</ele>
        <time>2009-07-31T10:26:16Z</time>
      </trkpt>
      <trkpt lat="43.39718340" lon="13.00429340">
        <ele>563.00000</ele>
        <time>2009-07-31T10:26:16Z</time>
      </trkpt>
      <trkpt lat="43.39718550" lon="13.00429350">
        <ele>563.00000</ele>
        <time>2009-07-31T10:26:16Z</time>
      </trkpt>
      <trkpt lat="43.39718920" lon="13.00429400">
        <ele>563.00000</ele>
        <time>2009-07-31T10:26:16Z</time>
      </trkpt>
      <trkpt lat="43.39719690" lon="13.00429560">
        <ele>563.00000</ele>
        <time>2009-07-31T10:26:17Z</time>
      </trkpt>
      <trkpt lat="43.39720630" lon="13.00429480">
        <ele>563.00000</ele>
        <time>2009-07-31T10:26:17Z</time>
      </trkpt>
      <trkpt lat="43.39722410" lon="13.00426090">
        <ele>563.00000</ele>
        <time>2009-07-31T10:26:18Z</time>
      </trkpt>
      <trkpt lat="43.39725710" lon="13.00425310">
        <ele>563.00000</ele>
        <time>2009-07-31T10:26:20Z</time>
      </trkpt>
      <trkpt lat="43.39730260" lon="13.00424250">
        <ele>563.00000</ele>
        <time>2009-07-31T10:26:21Z</time>
      </trkpt>
      <trkpt lat="43.39733510" lon="13.00422360">
        <ele>563.00000</ele>
        <time>2009-07-31T10:26:23Z</time>
      </trkpt>
      <trkpt lat="43.39735780" lon="13.00420600">
        <ele>563.00000</ele>
        <time>2009-07-31T10:26:24Z</time>
      </trkpt>
      <trkpt lat="43.39738160" lon="13.00418000">
        <ele>563.00000</ele>
        <time>2009-07-31T10:26:25Z</time>
      </trkpt>
      <trkpt lat="43.39739370" lon="13.00417190">
        <ele>563.00000</ele>
        <time>2009-07-31T10:26:26Z</time>
      </trkpt>
      <trkpt lat="43.39742860" lon="13.00413700">
        <ele>563.00000</ele>
        <time>2009-07-31T10:26:27Z</time>
      </trkpt>
      <trkpt lat="43.39745860" lon="13.00411430">
        <ele>563.00000</ele>
        <time>2009-07-31T10:26:29Z</time>
      </trkpt>
      <trkpt lat="43.39746970" lon="13.00409840">
        <ele>563.00000</ele>
        <time>2009-07-31T10:26:29Z</time>
      </trkpt>
      <trkpt lat="43.39748530" lon="13.00408970">
        <ele>563.00000</ele>
        <time>2009-07-31T10:26:30Z</time>
      </trkpt>
      <trkpt lat="43.39751090" lon="13.00405320">
        <ele>563.00000</ele>
        <time>2009-07-31T10:26:31Z</time>
      </trkpt>
      <trkpt lat="43.39753200" lon="13.00405230">
        <ele>563.00000</ele>
        <time>2009-07-31T10:26:32Z</time>
      </trkpt>
      <trkpt lat="43.39756300" lon="13.00402800">
        <ele>563.00000</ele>
        <time>2009-07-31T10:26:34Z</time>
      </trkpt>
      <trkpt lat="43.39756410" lon="13.00402870">
        <ele>563.00000</ele>
        <time>2009-07-31T10:26:34Z</time>
      </trkpt>
      <trkpt lat="43.39759010" lon="13.00402300">
        <ele>563.00000</ele>
        <time>2009-07-31T10:26:35Z</time>
      </trkpt>
      <trkpt lat="43.39760510" lon="13.00401900">
        <ele>563.00000</ele>
        <time>2009-07-31T10:26:35Z</time>
      </trkpt>
      <trkpt lat="43.39762540" lon="13.00403030">
        <ele>563.00000</ele>
        <time>2009-07-31T10:26:36Z</time>
      </trkpt>
      <trkpt lat="43.39764330" lon="13.00404830">
        <ele>563.00000</ele>
        <time>2009-07-31T10:26:37Z</time>
      </trkpt>
      <trkpt lat="43.39766260" lon="13.00406410">
        <ele>563.00000</ele>
        <time>2009-07-31T10:26:38Z</time>
      </trkpt>
      <trkpt lat="43.39768410" lon="13.00405970">
        <ele>563.00000</ele>
        <time>2009-07-31T10:26:39Z</time>
      </trkpt>
      <trkpt lat="43.39770910" lon="13.00404290">
        <ele>563.00000</ele>
        <time>2009-07-31T10:26:40Z</time>
      </trkpt>
      <trkpt lat="43.39772870" lon="13.00404140">
        <ele>563.00000</ele>
        <time>2009-07-31T10:26:41Z</time>
      </trkpt>
      <trkpt lat="43.39775380" lon="13.00403150">
        <ele>563.00000</ele>
        <time>2009-07-31T10:26:42Z</time>
      </trkpt>
      <trkpt lat="43.39778260" lon="13.00401670">
        <ele>563.00000</ele>
        <time>2009-07-31T10:26:43Z</time>
      </trkpt>
      <trkpt lat="43.39781490" lon="13.00401400">
        <ele>563.00000</ele>
        <time>2009-07-31T10:26:44Z</time>
      </trkpt>
      <trkpt lat="43.39784940" lon="13.00399760">
        <ele>563.00000</ele>
        <time>2009-07-31T10:26:46Z</time>
      </trkpt>
      <trkpt lat="43.39786760" lon="13.00398380">
        <ele>563.00000</ele>
        <time>2009-07-31T10:26:47Z</time>
      </trkpt>
      <trkpt lat="43.39789940" lon="13.00397280">
        <ele>563.00000</ele>
        <time>2009-07-31T10:26:48Z</time>
      </trkpt>
      <trkpt lat="43.39793630" lon="13.00394290">
        <ele>559.00000</ele>
        <time>2009-07-31T10:26:50Z</time>
      </trkpt>
      <trkpt lat="43.39796130" lon="13.00392700">
        <ele>559.00000</ele>
        <time>2009-07-31T10:26:51Z</time>
      </trkpt>
      <trkpt lat="43.39797960" lon="13.00389610">
        <ele>559.00000</ele>
        <time>2009-07-31T10:26:52Z</time>
      </trkpt>
      <trkpt lat="43.39798790" lon="13.00389140">
        <ele>559.00000</ele>
        <time>2009-07-31T10:26:52Z</time>
      </trkpt>
      <trkpt lat="43.39801760" lon="13.00389190">
        <ele>559.00000</ele>
        <time>2009-07-31T10:26:54Z</time>
      </trkpt>
      <trkpt lat="43.39805460" lon="13.00388950">
        <ele>559.00000</ele>
        <time>2009-07-31T10:26:55Z</time>
      </trkpt>
      <trkpt lat="43.39807460" lon="13.00390430">
        <ele>559.00000</ele>
        <time>2009-07-31T10:26:56Z</time>
      </trkpt>
      <trkpt lat="43.39808330" lon="13.00392960">
        <ele>559.00000</ele>
        <time>2009-07-31T10:26:57Z</time>
      </trkpt>
      <trkpt lat="43.39810480" lon="13.00395110">
        <ele>559.00000</ele>
        <time>2009-07-31T10:26:58Z</time>
      </trkpt>
      <trkpt lat="43.39812930" lon="13.00396700">
        <ele>559.00000</ele>
        <time>2009-07-31T10:26:59Z</time>
      </trkpt>
      <trkpt lat="43.39814590" lon="13.00399160">
        <ele>559.00000</ele>
        <time>2009-07-31T10:27:00Z</time>
      </trkpt>
      <trkpt lat="43.39816810" lon="13.00400150">
        <ele>559.00000</ele>
        <time>2009-07-31T10:27:01Z</time>
      </trkpt>
      <trkpt lat="43.39818520" lon="13.00401140">
        <ele>559.00000</ele>
        <time>2009-07-31T10:27:02Z</time>
      </trkpt>
      <trkpt lat="43.39820710" lon="13.00401770">
        <ele>559.00000</ele>
        <time>2009-07-31T10:27:02Z</time>
      </trkpt>
      <trkpt lat="43.39823430" lon="13.00402590">
        <ele>559.00000</ele>
        <time>2009-07-31T10:27:04Z</time>
      </trkpt>
      <trkpt lat="43.39826210" lon="13.00404820">
        <ele>559.00000</ele>
        <time>2009-07-31T10:27:05Z</time>
      </trkpt>
      <trkpt lat="43.39828920" lon="13.00406750">
        <ele>559.00000</ele>
        <time>2009-07-31T10:27:06Z</time>
      </trkpt>
      <trkpt lat="43.39831840" lon="13.00408590">
        <ele>559.00000</ele>
        <time>2009-07-31T10:27:07Z</time>
      </trkpt>
      <trkpt lat="43.39835570" lon="13.00408260">
        <ele>559.00000</ele>
        <time>2009-07-31T10:27:09Z</time>
      </trkpt>
      <trkpt lat="43.39836820" lon="13.00410700">
        <ele>559.00000</ele>
        <time>2009-07-31T10:27:10Z</time>
      </trkpt>
      <trkpt lat="43.39839260" lon="13.00411470">
        <ele>559.00000</ele>
        <time>2009-07-31T10:27:11Z</time>
      </trkpt>
      <trkpt lat="43.39840400" lon="13.00415130">
        <ele>559.00000</ele>
        <time>2009-07-31T10:27:12Z</time>
      </trkpt>
      <trkpt lat="43.39841010" lon="13.00413850">
        <ele>559.00000</ele>
        <time>2009-07-31T10:27:12Z</time>
      </trkpt>
      <trkpt lat="43.39841590" lon="13.00413060">
        <ele>559.00000</ele>
        <time>2009-07-31T10:27:13Z</time>
      </trkpt>
      <trkpt lat="43.39843530" lon="13.00413630">
        <ele>559.00000</ele>
        <time>2009-07-31T10:27:13Z</time>
      </trkpt>
      <trkpt lat="43.39845310" lon="13.00415160">
        <ele>559.00000</ele>
        <time>2009-07-31T10:27:14Z</time>
      </trkpt>
      <trkpt lat="43.39847960" lon="13.00417090">
        <ele>559.00000</ele>
        <time>2009-07-31T10:27:16Z</time>
      </trkpt>
      <trkpt lat="43.39849570" lon="13.00418420">
        <ele>559.00000</ele>
        <time>2009-07-31T10:27:16Z</time>
      </trkpt>
      <trkpt lat="43.39851450" lon="13.00421580">
        <ele>559.00000</ele>
        <time>2009-07-31T10:27:17Z</time>
      </trkpt>
      <trkpt lat="43.39853630" lon="13.00423150">
        <ele>559.00000</ele>
        <time>2009-07-31T10:27:18Z</time>
      </trkpt>
      <trkpt lat="43.39857290" lon="13.00424140">
        <ele>559.00000</ele>
        <time>2009-07-31T10:27:20Z</time>
      </trkpt>
      <trkpt lat="43.39860640" lon="13.00424440">
        <ele>559.00000</ele>
        <time>2009-07-31T10:27:21Z</time>
      </trkpt>
      <trkpt lat="43.39863420" lon="13.00424050">
        <ele>559.00000</ele>
        <time>2009-07-31T10:27:22Z</time>
      </trkpt>
      <trkpt lat="43.39866240" lon="13.00424440">
        <ele>559.00000</ele>
        <time>2009-07-31T10:27:24Z</time>
      </trkpt>
      <trkpt lat="43.39868530" lon="13.00425150">
        <ele>559.00000</ele>
        <time>2009-07-31T10:27:24Z</time>
      </trkpt>
      <trkpt lat="43.39871530" lon="13.00426070">
        <ele>559.00000</ele>
        <time>2009-07-31T10:27:26Z</time>
      </trkpt>
      <trkpt lat="43.39873990" lon="13.00426530">
        <ele>559.00000</ele>
        <time>2009-07-31T10:27:27Z</time>
      </trkpt>
      <trkpt lat="43.39876280" lon="13.00427880">
        <ele>570.00000</ele>
        <time>2009-07-31T10:27:28Z</time>
      </trkpt>
      <trkpt lat="43.39878920" lon="13.00428330">
        <ele>570.00000</ele>
        <time>2009-07-31T10:27:29Z</time>
      </trkpt>
      <trkpt lat="43.39881710" lon="13.00426530">
        <ele>570.00000</ele>
        <time>2009-07-31T10:27:30Z</time>
      </trkpt>
      <trkpt lat="43.39884070" lon="13.00427740">
        <ele>570.00000</ele>
        <time>2009-07-31T10:27:31Z</time>
      </trkpt>
      <trkpt lat="43.39886260" lon="13.00427920">
        <ele>570.00000</ele>
        <time>2009-07-31T10:27:32Z</time>
      </trkpt>
      <trkpt lat="43.39889800" lon="13.00427770">
        <ele>570.00000</ele>
        <time>2009-07-31T10:27:33Z</time>
      </trkpt>
      <trkpt lat="43.39894090" lon="13.00427860">
        <ele>570.00000</ele>
        <time>2009-07-31T10:27:35Z</time>
      </trkpt>
      <trkpt lat="43.39895740" lon="13.00429520">
        <ele>570.00000</ele>
        <time>2009-07-31T10:27:36Z</time>
      </trkpt>
      <trkpt lat="43.39897870" lon="13.00430040">
        <ele>570.00000</ele>
        <time>2009-07-31T10:27:37Z</time>
      </trkpt>
      <trkpt lat="43.39899660" lon="13.00431970">
        <ele>570.00000</ele>
        <time>2009-07-31T10:27:38Z</time>
      </trkpt>
      <trkpt lat="43.39904290" lon="13.00432140">
        <ele>570.00000</ele>
        <time>2009-07-31T10:27:39Z</time>
      </trkpt>
      <trkpt lat="43.39905840" lon="13.00434120">
        <ele>570.00000</ele>
        <time>2009-07-31T10:27:40Z</time>
      </trkpt>
      <trkpt lat="43.39908740" lon="13.00434310">
        <ele>570.00000</ele>
        <time>2009-07-31T10:27:41Z</time>
      </trkpt>
      <trkpt lat="43.39911600" lon="13.00435800">
        <ele>570.00000</ele>
        <time>2009-07-31T10:27:43Z</time>
      </trkpt>
      <trkpt lat="43.39914420" lon="13.00437020">
        <ele>570.00000</ele>
        <time>2009-07-31T10:27:44Z</time>
      </trkpt>
      <trkpt lat="43.39916820" lon="13.00437550">
        <ele>570.00000</ele>
        <time>2009-07-31T10:27:45Z</time>
      </trkpt>
      <trkpt lat="43.39918560" lon="13.00438130">
        <ele>570.00000</ele>
        <time>2009-07-31T10:27:46Z</time>
      </trkpt>
      <trkpt lat="43.39919990" lon="13.00439580">
        <ele>570.00000</ele>
        <time>2009-07-31T10:27:46Z</time>
      </trkpt>
      <trkpt lat="43.39924490" lon="13.00439900">
        <ele>570.00000</ele>
        <time>2009-07-31T10:27:48Z</time>
      </trkpt>
      <trkpt lat="43.39927620" lon="13.00439410">
        <ele>570.00000</ele>
        <time>2009-07-31T10:27:49Z</time>
      </trkpt>
      <trkpt lat="43.39930310" lon="13.00437490">
        <ele>570.00000</ele>
        <time>2009-07-31T10:27:51Z</time>
      </trkpt>
      <trkpt lat="43.39933860" lon="13.00436130">
        <ele>570.00000</ele>
        <time>2009-07-31T10:27:52Z</time>
      </trkpt>
      <trkpt lat="43.39935610" lon="13.00435820">
        <ele>570.00000</ele>
        <time>2009-07-31T10:27:53Z</time>
      </trkpt>
      <trkpt lat="43.39938710" lon="13.00433540">
        <ele>570.00000</ele>
        <time>2009-07-31T10:27:54Z</time>
      </trkpt>
      <trkpt lat="43.39942560" lon="13.00430280">
        <ele>570.00000</ele>
        <time>2009-07-31T10:27:56Z</time>
      </trkpt>
      <trkpt lat="43.39945370" lon="13.00429420">
        <ele>570.00000</ele>
        <time>2009-07-31T10:27:57Z</time>
      </trkpt>
      <trkpt lat="43.39947850" lon="13.00430160">
        <ele>570.00000</ele>
        <time>2009-07-31T10:27:58Z</time>
      </trkpt>
      <trkpt lat="43.39950660" lon="13.00431270">
        <ele>570.00000</ele>
        <time>2009-07-31T10:27:59Z</time>
      </trkpt>
      <trkpt lat="43.39952940" lon="13.00431470">
        <ele>570.00000</ele>
        <time>2009-07-31T10:28:00Z</time>
      </trkpt>
      <trkpt lat="43.39954230" lon="13.00433630">
        <ele>570.00000</ele>
        <time>2009-07-31T10:28:01Z</time>
      </trkpt>
      <trkpt lat="43.39957020" lon="13.00432380">
        <ele>570.00000</ele>
        <time>2009-07-31T10:28:02Z</time>
      </trkpt>
      <trkpt lat="43.39958360" lon="13.00432650">
        <ele>570.00000</ele>
        <time>2009-07-31T10:28:03Z</time>
      </trkpt>
      <trkpt lat="43.39959680" lon="13.00432500">
        <ele>591.00000</ele>
        <time>2009-07-31T10:28:03Z</time>
      </trkpt>
      <trkpt lat="43.39962940" lon="13.00432940">
        <ele>591.00000</ele>
        <time>2009-07-31T10:28:05Z</time>
      </trkpt>
      <trkpt lat="43.39965710" lon="13.00434010">
        <ele>591.00000</ele>
        <time>2009-07-31T10:28:06Z</time>
      </trkpt>
      <trkpt lat="43.39967390" lon="13.00435750">
        <ele>591.00000</ele>
        <time>2009-07-31T10:28:07Z</time>
      </trkpt>
      <trkpt lat="43.39969710" lon="13.00436280">
        <ele>591.00000</ele>
        <time>2009-07-31T10:28:08Z</time>
      </trkpt>
      <trkpt lat="43.39971330" lon="13.00437140">
        <ele>591.00000</ele>
        <time>2009-07-31T10:28:08Z</time>
      </trkpt>
      <trkpt lat="43.39973600" lon="13.00439070">
        <ele>591.00000</ele>
        <time>2009-07-31T10:28:09Z</time>
      </trkpt>
      <trkpt lat="43.39975840" lon="13.00440350">
        <ele>591.00000</ele>
        <time>2009-07-31T10:28:10Z</time>
      </trkpt>
      <trkpt lat="43.39976770" lon="13.00443090">
        <ele>591.00000</ele>
        <time>2009-07-31T10:28:11Z</time>
      </trkpt>
      <trkpt lat="43.39978300" lon="13.00444230">
        <ele>591.00000</ele>
        <time>2009-07-31T10:28:12Z</time>
      </trkpt>
      <trkpt lat="43.39980270" lon="13.00445190">
        <ele>591.00000</ele>
        <time>2009-07-31T10:28:13Z</time>
      </trkpt>
      <trkpt lat="43.39982020" lon="13.00445120">
        <ele>591.00000</ele>
        <time>2009-07-31T10:28:13Z</time>
      </trkpt>
      <trkpt lat="43.39984730" lon="13.00445580">
        <ele>591.00000</ele>
        <time>2009-07-31T10:28:14Z</time>
      </trkpt>
      <trkpt lat="43.39987660" lon="13.00444510">
        <ele>591.00000</ele>
        <time>2009-07-31T10:28:16Z</time>
      </trkpt>
      <trkpt lat="43.39989050" lon="13.00444770">
        <ele>591.00000</ele>
        <time>2009-07-31T10:28:16Z</time>
      </trkpt>
      <trkpt lat="43.39991020" lon="13.00445900">
        <ele>591.00000</ele>
        <time>2009-07-31T10:28:17Z</time>
      </trkpt>
      <trkpt lat="43.39993890" lon="13.00446610">
        <ele>591.00000</ele>
        <time>2009-07-31T10:28:18Z</time>
      </trkpt>
      <trkpt lat="43.39995800" lon="13.00448110">
        <ele>591.00000</ele>
        <time>2009-07-31T10:28:19Z</time>
      </trkpt>
      <trkpt lat="43.39997790" lon="13.00449420">
        <ele>591.00000</ele>
        <time>2009-07-31T10:28:20Z</time>
      </trkpt>
      <trkpt lat="43.39999490" lon="13.00451670">
        <ele>591.00000</ele>
        <time>2009-07-31T10:28:21Z</time>
      </trkpt>
      <trkpt lat="43.40001980" lon="13.00453520">
        <ele>591.00000</ele>
        <time>2009-07-31T10:28:22Z</time>
      </trkpt>
      <trkpt lat="43.40003230" lon="13.00457020">
        <ele>591.00000</ele>
        <time>2009-07-31T10:28:23Z</time>
      </trkpt>
      <trkpt lat="43.40004700" lon="13.00457830">
        <ele>591.00000</ele>
        <time>2009-07-31T10:28:24Z</time>
      </trkpt>
      <trkpt lat="43.40006450" lon="13.00459910">
        <ele>555.00000</ele>
        <time>2009-07-31T10:28:25Z</time>
      </trkpt>
      <trkpt lat="43.40007780" lon="13.00461920">
        <ele>555.00000</ele>
        <time>2009-07-31T10:28:26Z</time>
      </trkpt>
      <trkpt lat="43.40009220" lon="13.00464450">
        <ele>555.00000</ele>
        <time>2009-07-31T10:28:27Z</time>
      </trkpt>
      <trkpt lat="43.40010140" lon="13.00465520">
        <ele>555.00000</ele>
        <time>2009-07-31T10:28:27Z</time>
      </trkpt>
      <trkpt lat="43.40012690" lon="13.00466710">
        <ele>555.00000</ele>
        <time>2009-07-31T10:28:28Z</time>
      </trkpt>
      <trkpt lat="43.40013570" lon="13.00468890">
        <ele>555.00000</ele>
        <time>2009-07-31T10:28:29Z</time>
      </trkpt>
      <trkpt lat="43.40015300" lon="13.00470260">
        <ele>555.00000</ele>
        <time>2009-07-31T10:28:30Z</time>
      </trkpt>
      <trkpt lat="43.40017790" lon="13.00470970">
        <ele>555.00000</ele>
        <time>2009-07-31T10:28:31Z</time>
      </trkpt>
      <trkpt lat="43.40019600" lon="13.00472550">
        <ele>555.00000</ele>
        <time>2009-07-31T10:28:31Z</time>
      </trkpt>
      <trkpt lat="43.40020070" lon="13.00474470">
        <ele>555.00000</ele>
        <time>2009-07-31T10:28:32Z</time>
      </trkpt>
      <trkpt lat="43.40022010" lon="13.00475780">
        <ele>555.00000</ele>
        <time>2009-07-31T10:28:33Z</time>
      </trkpt>
      <trkpt lat="43.40022790" lon="13.00478500">
        <ele>555.00000</ele>
        <time>2009-07-31T10:28:34Z</time>
      </trkpt>
      <trkpt lat="43.40025010" lon="13.00479660">
        <ele>555.00000</ele>
        <time>2009-07-31T10:28:35Z</time>
      </trkpt>
      <trkpt lat="43.40025680" lon="13.00479920">
        <ele>555.00000</ele>
        <time>2009-07-31T10:28:35Z</time>
      </trkpt>
      <trkpt lat="43.40028790" lon="13.00481880">
        <ele>555.00000</ele>
        <time>2009-07-31T10:28:36Z</time>
      </trkpt>
      <trkpt lat="43.40030070" lon="13.00483230">
        <ele>555.00000</ele>
        <time>2009-07-31T10:28:37Z</time>
      </trkpt>
      <trkpt lat="43.40031120" lon="13.00483630">
        <ele>555.00000</ele>
        <time>2009-07-31T10:28:37Z</time>
      </trkpt>
      <trkpt lat="43.40031980" lon="13.00485380">
        <ele>555.00000</ele>
        <time>2009-07-31T10:28:38Z</time>
      </trkpt>
      <trkpt lat="43.40032810" lon="13.00487240">
        <ele>555.00000</ele>
        <time>2009-07-31T10:28:39Z</time>
      </trkpt>
      <trkpt lat="43.40033510" lon="13.00488560">
        <ele>555.00000</ele>
        <time>2009-07-31T10:28:39Z</time>
      </trkpt>
      <trkpt lat="43.40034950" lon="13.00489920">
        <ele>555.00000</ele>
        <time>2009-07-31T10:28:40Z</time>
      </trkpt>
      <trkpt lat="43.40036590" lon="13.00491090">
        <ele>555.00000</ele>
        <time>2009-07-31T10:28:41Z</time>
      </trkpt>
      <trkpt lat="43.40037990" lon="13.00492580">
        <ele>555.00000</ele>
        <time>2009-07-31T10:28:41Z</time>
      </trkpt>
      <trkpt lat="43.40039260" lon="13.00494980">
        <ele>555.00000</ele>
        <time>2009-07-31T10:28:42Z</time>
      </trkpt>
      <trkpt lat="43.40040030" lon="13.00497220">
        <ele>555.00000</ele>
        <time>2009-07-31T10:28:43Z</time>
      </trkpt>
      <trkpt lat="43.40041740" lon="13.00498290">
        <ele>593.00000</ele>
        <time>2009-07-31T10:28:44Z</time>
      </trkpt>
      <trkpt lat="43.40043760" lon="13.00499890">
        <ele>593.00000</ele>
        <time>2009-07-31T10:28:45Z</time>
      </trkpt>
      <trkpt lat="43.40045350" lon="13.00501230">
        <ele>593.00000</ele>
        <time>2009-07-31T10:28:45Z</time>
      </trkpt>
      <trkpt lat="43.40047500" lon="13.00502830">
        <ele>593.00000</ele>
        <time>2009-07-31T10:28:46Z</time>
      </trkpt>
      <trkpt lat="43.40049750" lon="13.00505580">
        <ele>593.00000</ele>
        <time>2009-07-31T10:28:48Z</time>
      </trkpt>
      <trkpt lat="43.40051200" lon="13.00507560">
        <ele>593.00000</ele>
        <time>2009-07-31T10:28:48Z</time>
      </trkpt>
      <trkpt lat="43.40052430" lon="13.00511140">
        <ele>593.00000</ele>
        <time>2009-07-31T10:28:49Z</time>
      </trkpt>
      <trkpt lat="43.40054360" lon="13.00513290">
        <ele>593.00000</ele>
        <time>2009-07-31T10:28:50Z</time>
      </trkpt>
      <trkpt lat="43.40055430" lon="13.00514600">
        <ele>593.00000</ele>
        <time>2009-07-31T10:28:51Z</time>
      </trkpt>
      <trkpt lat="43.40055040" lon="13.00516240">
        <ele>593.00000</ele>
        <time>2009-07-31T10:28:52Z</time>
      </trkpt>
      <trkpt lat="43.40054920" lon="13.00516320">
        <ele>593.00000</ele>
        <time>2009-07-31T10:28:52Z</time>
      </trkpt>
      <trkpt lat="43.40055280" lon="13.00516400">
        <ele>593.00000</ele>
        <time>2009-07-31T10:28:52Z</time>
      </trkpt>
      <trkpt lat="43.40056770" lon="13.00517940">
        <ele>593.00000</ele>
        <time>2009-07-31T10:28:53Z</time>
      </trkpt>
      <trkpt lat="43.40058790" lon="13.00518950">
        <ele>593.00000</ele>
        <time>2009-07-31T10:28:53Z</time>
      </trkpt>
      <trkpt lat="43.40060140" lon="13.00519250">
        <ele>593.00000</ele>
        <time>2009-07-31T10:28:54Z</time>
      </trkpt>
      <trkpt lat="43.40061290" lon="13.00519850">
        <ele>593.00000</ele>
        <time>2009-07-31T10:28:54Z</time>
      </trkpt>
      <trkpt lat="43.40062020" lon="13.00520350">
        <ele>593.00000</ele>
        <time>2009-07-31T10:28:55Z</time>
      </trkpt>
      <trkpt lat="43.40064160" lon="13.00520350">
        <ele>593.00000</ele>
        <time>2009-07-31T10:28:56Z</time>
      </trkpt>
      <trkpt lat="43.40066420" lon="13.00520330">
        <ele>593.00000</ele>
        <time>2009-07-31T10:28:56Z</time>
      </trkpt>
      <trkpt lat="43.40069700" lon="13.00521200">
        <ele>593.00000</ele>
        <time>2009-07-31T10:28:58Z</time>
      </trkpt>
      <trkpt lat="43.40072140" lon="13.00521820">
        <ele>593.00000</ele>
        <time>2009-07-31T10:28:59Z</time>
      </trkpt>
      <trkpt lat="43.40073930" lon="13.00522220">
        <ele>593.00000</ele>
        <time>2009-07-31T10:29:00Z</time>
      </trkpt>
      <trkpt lat="43.40075800" lon="13.00522770">
        <ele>593.00000</ele>
        <time>2009-07-31T10:29:00Z</time>
      </trkpt>
      <trkpt lat="43.40077230" lon="13.00523370">
        <ele>593.00000</ele>
        <time>2009-07-31T10:29:01Z</time>
      </trkpt>
      <trkpt lat="43.40077190" lon="13.00523900">
        <ele>593.00000</ele>
        <time>2009-07-31T10:29:01Z</time>
      </trkpt>
      <trkpt lat="43.40078820" lon="13.00524040">
        <ele>593.00000</ele>
        <time>2009-07-31T10:29:02Z</time>
      </trkpt>
      <trkpt lat="43.40081660" lon="13.00524220">
        <ele>593.00000</ele>
        <time>2009-07-31T10:29:03Z</time>
      </trkpt>
      <trkpt lat="43.40083390" lon="13.00525310">
        <ele>593.00000</ele>
        <time>2009-07-31T10:29:04Z</time>
      </trkpt>
      <trkpt lat="43.40085650" lon="13.00526830">
        <ele>593.00000</ele>
        <time>2009-07-31T10:29:05Z</time>
      </trkpt>
      <trkpt lat="43.40087120" lon="13.00527440">
        <ele>593.00000</ele>
        <time>2009-07-31T10:29:05Z</time>
      </trkpt>
      <trkpt lat="43.40089870" lon="13.00529550">
        <ele>593.00000</ele>
        <time>2009-07-31T10:29:07Z</time>
      </trkpt>
      <trkpt lat="43.40092130" lon="13.00530030">
        <ele>593.00000</ele>
        <time>2009-07-31T10:29:07Z</time>
      </trkpt>
      <trkpt lat="43.40095610" lon="13.00530940">
        <ele>593.00000</ele>
        <time>2009-07-31T10:29:09Z</time>
      </trkpt>
      <trkpt lat="43.40096710" lon="13.00530980">
        <ele>593.00000</ele>
        <time>2009-07-31T10:29:09Z</time>
      </trkpt>
      <trkpt lat="43.40098250" lon="13.00533180">
        <ele>593.00000</ele>
        <time>2009-07-31T10:29:10Z</time>
      </trkpt>
      <trkpt lat="43.40101230" lon="13.00534180">
        <ele>593.00000</ele>
        <time>2009-07-31T10:29:11Z</time>
      </trkpt>
      <trkpt lat="43.40103470" lon="13.00535560">
        <ele>593.00000</ele>
        <time>2009-07-31T10:29:12Z</time>
      </trkpt>
      <trkpt lat="43.40105790" lon="13.00538480">
        <ele>593.00000</ele>
        <time>2009-07-31T10:29:14Z</time>
      </trkpt>
      <trkpt lat="43.40108330" lon="13.00540220">
        <ele>593.00000</ele>
        <time>2009-07-31T10:29:15Z</time>
      </trkpt>
      <trkpt lat="43.40109420" lon="13.00543310">
        <ele>557.00000</ele>
        <time>2009-07-31T10:29:16Z</time>
      </trkpt>
      <trkpt lat="43.40109250" lon="13.00544520">
        <ele>557.00000</ele>
        <time>2009-07-31T10:29:16Z</time>
      </trkpt>
      <trkpt lat="43.40109210" lon="13.00544450">
        <ele>557.00000</ele>
        <time>2009-07-31T10:29:16Z</time>
      </trkpt>
      <trkpt lat="43.40110890" lon="13.00544130">
        <ele>557.00000</ele>
        <time>2009-07-31T10:29:17Z</time>
      </trkpt>
      <trkpt lat="43.40112140" lon="13.00546190">
        <ele>557.00000</ele>
        <time>2009-07-31T10:29:18Z</time>
      </trkpt>
      <trkpt lat="43.40114150" lon="13.00548320">
        <ele>557.00000</ele>
        <time>2009-07-31T10:29:19Z</time>
      </trkpt>
      <trkpt lat="43.40117380" lon="13.00548630">
        <ele>557.00000</ele>
        <time>2009-07-31T10:29:20Z</time>
      </trkpt>
      <trkpt lat="43.40117760" lon="13.00551770">
        <ele>557.00000</ele>
        <time>2009-07-31T10:29:21Z</time>
      </trkpt>
      <trkpt lat="43.40120460" lon="13.00551800">
        <ele>557.00000</ele>
        <time>2009-07-31T10:29:22Z</time>
      </trkpt>
      <trkpt lat="43.40124130" lon="13.00551470">
        <ele>557.00000</ele>
        <time>2009-07-31T10:29:23Z</time>
      </trkpt>
      <trkpt lat="43.40128980" lon="13.00552000">
        <ele>587.00000</ele>
        <time>2009-07-31T10:29:25Z</time>
      </trkpt>
      <trkpt lat="43.40131680" lon="13.00551380">
        <ele>587.00000</ele>
        <time>2009-07-31T10:29:26Z</time>
      </trkpt>
      <trkpt lat="43.40134210" lon="13.00551760">
        <ele>587.00000</ele>
        <time>2009-07-31T10:29:27Z</time>
      </trkpt>
      <trkpt lat="43.40136820" lon="13.00552520">
        <ele>587.00000</ele>
        <time>2009-07-31T10:29:29Z</time>
      </trkpt>
      <trkpt lat="43.40137320" lon="13.00553080">
        <ele>587.00000</ele>
        <time>2009-07-31T10:29:29Z</time>
      </trkpt>
      <trkpt lat="43.40140210" lon="13.00552880">
        <ele>587.00000</ele>
        <time>2009-07-31T10:29:30Z</time>
      </trkpt>
      <trkpt lat="43.40142340" lon="13.00551320">
        <ele>587.00000</ele>
        <time>2009-07-31T10:29:31Z</time>
      </trkpt>
      <trkpt lat="43.40143650" lon="13.00551650">
        <ele>587.00000</ele>
        <time>2009-07-31T10:29:31Z</time>
      </trkpt>
      <trkpt lat="43.40144900" lon="13.00552110">
        <ele>587.00000</ele>
        <time>2009-07-31T10:29:32Z</time>
      </trkpt>
      <trkpt lat="43.40145190" lon="13.00553130">
        <ele>587.00000</ele>
        <time>2009-07-31T10:29:32Z</time>
      </trkpt>
      <trkpt lat="43.40147010" lon="13.00552360">
        <ele>587.00000</ele>
        <time>2009-07-31T10:29:33Z</time>
      </trkpt>
      <trkpt lat="43.40149030" lon="13.00552720">
        <ele>587.00000</ele>
        <time>2009-07-31T10:29:34Z</time>
      </trkpt>
      <trkpt lat="43.40149860" lon="13.00553120">
        <ele>587.00000</ele>
        <time>2009-07-31T10:29:34Z</time>
      </trkpt>
      <trkpt lat="43.40152810" lon="13.00553040">
        <ele>587.00000</ele>
        <time>2009-07-31T10:29:35Z</time>
      </trkpt>
      <trkpt lat="43.40154110" lon="13.00552450">
        <ele>587.00000</ele>
        <time>2009-07-31T10:29:36Z</time>
      </trkpt>
      <trkpt lat="43.40155560" lon="13.00552360">
        <ele>587.00000</ele>
        <time>2009-07-31T10:29:37Z</time>
      </trkpt>
      <trkpt lat="43.40157490" lon="13.00552350">
        <ele>587.00000</ele>
        <time>2009-07-31T10:29:37Z</time>
      </trkpt>
      <trkpt lat="43.40160290" lon="13.00550890">
        <ele>587.00000</ele>
        <time>2009-07-31T10:29:39Z</time>
      </trkpt>
      <trkpt lat="43.40162490" lon="13.00550870">
        <ele>587.00000</ele>
        <time>2009-07-31T10:29:39Z</time>
      </trkpt>
      <trkpt lat="43.40162530" lon="13.00552160">
        <ele>587.00000</ele>
        <time>2009-07-31T10:29:40Z</time>
      </trkpt>
      <trkpt lat="43.40164060" lon="13.00552390">
        <ele>587.00000</ele>
        <time>2009-07-31T10:29:40Z</time>
      </trkpt>
      <trkpt lat="43.40168380" lon="13.00549510">
        <ele>587.00000</ele>
        <time>2009-07-31T10:29:42Z</time>
      </trkpt>
      <trkpt lat="43.40171790" lon="13.00549350">
        <ele>587.00000</ele>
        <time>2009-07-31T10:29:44Z</time>
      </trkpt>
      <trkpt lat="43.40174370" lon="13.00548580">
        <ele>587.00000</ele>
        <time>2009-07-31T10:29:45Z</time>
      </trkpt>
      <trkpt lat="43.40176200" lon="13.00548930">
        <ele>587.00000</ele>
        <time>2009-07-31T10:29:45Z</time>
      </trkpt>
      <trkpt lat="43.40179210" lon="13.00548000">
        <ele>587.00000</ele>
        <time>2009-07-31T10:29:47Z</time>
      </trkpt>
      <trkpt lat="43.40179940" lon="13.00549870">
        <ele>587.00000</ele>
        <time>2009-07-31T10:29:47Z</time>
      </trkpt>
      <trkpt lat="43.40180560" lon="13.00552030">
        <ele>587.00000</ele>
        <time>2009-07-31T10:29:48Z</time>
      </trkpt>
      <trkpt lat="43.40182180" lon="13.00553300">
        <ele>587.00000</ele>
        <time>2009-07-31T10:29:49Z</time>
      </trkpt>
      <trkpt lat="43.40183440" lon="13.00555160">
        <ele>587.00000</ele>
        <time>2009-07-31T10:29:49Z</time>
      </trkpt>
      <trkpt lat="43.40184550" lon="13.00557630">
        <ele>587.00000</ele>
        <time>2009-07-31T10:29:50Z</time>
      </trkpt>
      <trkpt lat="43.40185750" lon="13.00559560">
        <ele>587.00000</ele>
        <time>2009-07-31T10:29:51Z</time>
      </trkpt>
      <trkpt lat="43.40186210" lon="13.00561420">
        <ele>587.00000</ele>
        <time>2009-07-31T10:29:52Z</time>
      </trkpt>
      <trkpt lat="43.40187110" lon="13.00563420">
        <ele>587.00000</ele>
        <time>2009-07-31T10:29:52Z</time>
      </trkpt>
      <trkpt lat="43.40186970" lon="13.00567000">
        <ele>587.00000</ele>
        <time>2009-07-31T10:29:53Z</time>
      </trkpt>
      <trkpt lat="43.40186460" lon="13.00570150">
        <ele>587.00000</ele>
        <time>2009-07-31T10:29:54Z</time>
      </trkpt>
      <trkpt lat="43.40186990" lon="13.00572700">
        <ele>587.00000</ele>
        <time>2009-07-31T10:29:55Z</time>
      </trkpt>
      <trkpt lat="43.40189620" lon="13.00573900">
        <ele>587.00000</ele>
        <time>2009-07-31T10:29:56Z</time>
      </trkpt>
      <trkpt lat="43.40190360" lon="13.00575800">
        <ele>587.00000</ele>
        <time>2009-07-31T10:29:57Z</time>
      </trkpt>
      <trkpt lat="43.40192080" lon="13.00577060">
        <ele>587.00000</ele>
        <time>2009-07-31T10:29:58Z</time>
      </trkpt>
      <trkpt lat="43.40193870" lon="13.00579700">
        <ele>587.00000</ele>
        <time>2009-07-31T10:29:59Z</time>
      </trkpt>
      <trkpt lat="43.40196310" lon="13.00580760">
        <ele>587.00000</ele>
        <time>2009-07-31T10:30:00Z</time>
      </trkpt>
      <trkpt lat="43.40197270" lon="13.00582470">
        <ele>587.00000</ele>
        <time>2009-07-31T10:30:00Z</time>
      </trkpt>
      <trkpt lat="43.40198900" lon="13.00583960">
        <ele>587.00000</ele>
        <time>2009-07-31T10:30:01Z</time>
      </trkpt>
      <trkpt lat="43.40201220" lon="13.00585840">
        <ele>587.00000</ele>
        <time>2009-07-31T10:30:02Z</time>
      </trkpt>
      <trkpt lat="43.40202880" lon="13.00589550">
        <ele>587.00000</ele>
        <time>2009-07-31T10:30:03Z</time>
      </trkpt>
      <trkpt lat="43.40205530" lon="13.00590580">
        <ele>587.00000</ele>
        <time>2009-07-31T10:30:05Z</time>
      </trkpt>
      <trkpt lat="43.40206380" lon="13.00593770">
        <ele>587.00000</ele>
        <time>2009-07-31T10:30:06Z</time>
      </trkpt>
      <trkpt lat="43.40208490" lon="13.00596280">
        <ele>614.00000</ele>
        <time>2009-07-31T10:30:07Z</time>
      </trkpt>
      <trkpt lat="43.40210400" lon="13.00598310">
        <ele>614.00000</ele>
        <time>2009-07-31T10:30:08Z</time>
      </trkpt>
      <trkpt lat="43.40212010" lon="13.00599600">
        <ele>614.00000</ele>
        <time>2009-07-31T10:30:08Z</time>
      </trkpt>
      <trkpt lat="43.40213650" lon="13.00601680">
        <ele>614.00000</ele>
        <time>2009-07-31T10:30:09Z</time>
      </trkpt>
      <trkpt lat="43.40215010" lon="13.00603110">
        <ele>614.00000</ele>
        <time>2009-07-31T10:30:10Z</time>
      </trkpt>
      <trkpt lat="43.40216400" lon="13.00606010">
        <ele>614.00000</ele>
        <time>2009-07-31T10:30:11Z</time>
      </trkpt>
      <trkpt lat="43.40217820" lon="13.00608710">
        <ele>614.00000</ele>
        <time>2009-07-31T10:30:12Z</time>
      </trkpt>
      <trkpt lat="43.40218100" lon="13.00612270">
        <ele>614.00000</ele>
        <time>2009-07-31T10:30:13Z</time>
      </trkpt>
      <trkpt lat="43.40219460" lon="13.00613670">
        <ele>614.00000</ele>
        <time>2009-07-31T10:30:14Z</time>
      </trkpt>
      <trkpt lat="43.40219880" lon="13.00615490">
        <ele>614.00000</ele>
        <time>2009-07-31T10:30:14Z</time>
      </trkpt>
      <trkpt lat="43.40220730" lon="13.00617460">
        <ele>614.00000</ele>
        <time>2009-07-31T10:30:15Z</time>
      </trkpt>
      <trkpt lat="43.40223270" lon="13.00619570">
        <ele>614.00000</ele>
        <time>2009-07-31T10:30:16Z</time>
      </trkpt>
      <trkpt lat="43.40224780" lon="13.00621340">
        <ele>614.00000</ele>
        <time>2009-07-31T10:30:17Z</time>
      </trkpt>
      <trkpt lat="43.40226210" lon="13.00625110">
        <ele>604.00000</ele>
        <time>2009-07-31T10:30:18Z</time>
      </trkpt>
      <trkpt lat="43.40226750" lon="13.00627470">
        <ele>604.00000</ele>
        <time>2009-07-31T10:30:19Z</time>
      </trkpt>
      <trkpt lat="43.40227740" lon="13.00629110">
        <ele>604.00000</ele>
        <time>2009-07-31T10:30:19Z</time>
      </trkpt>
      <trkpt lat="43.40228400" lon="13.00631410">
        <ele>604.00000</ele>
        <time>2009-07-31T10:30:20Z</time>
      </trkpt>
      <trkpt lat="43.40227890" lon="13.00633490">
        <ele>604.00000</ele>
        <time>2009-07-31T10:30:21Z</time>
      </trkpt>
      <trkpt lat="43.40228080" lon="13.00634880">
        <ele>604.00000</ele>
        <time>2009-07-31T10:30:21Z</time>
      </trkpt>
      <trkpt lat="43.40228700" lon="13.00636130">
        <ele>604.00000</ele>
        <time>2009-07-31T10:30:22Z</time>
      </trkpt>
      <trkpt lat="43.40229900" lon="13.00637730">
        <ele>604.00000</ele>
        <time>2009-07-31T10:30:22Z</time>
      </trkpt>
      <trkpt lat="43.40231080" lon="13.00640090">
        <ele>604.00000</ele>
        <time>2009-07-31T10:30:23Z</time>
      </trkpt>
      <trkpt lat="43.40231140" lon="13.00642920">
        <ele>604.00000</ele>
        <time>2009-07-31T10:30:24Z</time>
      </trkpt>
      <trkpt lat="43.40232660" lon="13.00645130">
        <ele>604.00000</ele>
        <time>2009-07-31T10:30:25Z</time>
      </trkpt>
      <trkpt lat="43.40234370" lon="13.00646040">
        <ele>604.00000</ele>
        <time>2009-07-31T10:30:26Z</time>
      </trkpt>
      <trkpt lat="43.40234650" lon="13.00647680">
        <ele>604.00000</ele>
        <time>2009-07-31T10:30:26Z</time>
      </trkpt>
      <trkpt lat="43.40234810" lon="13.00649100">
        <ele>604.00000</ele>
        <time>2009-07-31T10:30:26Z</time>
      </trkpt>
      <trkpt lat="43.40236110" lon="13.00649870">
        <ele>604.00000</ele>
        <time>2009-07-31T10:30:27Z</time>
      </trkpt>
      <trkpt lat="43.40236850" lon="13.00650700">
        <ele>604.00000</ele>
        <time>2009-07-31T10:30:27Z</time>
      </trkpt>
      <trkpt lat="43.40239280" lon="13.00649520">
        <ele>604.00000</ele>
        <time>2009-07-31T10:30:28Z</time>
      </trkpt>
      <trkpt lat="43.40239630" lon="13.00649530">
        <ele>604.00000</ele>
        <time>2009-07-31T10:30:29Z</time>
      </trkpt>
      <trkpt lat="43.40239510" lon="13.00649570">
        <ele>604.00000</ele>
        <time>2009-07-31T10:30:29Z</time>
      </trkpt>
      <trkpt lat="43.40239730" lon="13.00649700">
        <ele>604.00000</ele>
        <time>2009-07-31T10:30:29Z</time>
      </trkpt>
      <trkpt lat="43.40239970" lon="13.00654150">
        <ele>604.00000</ele>
        <time>2009-07-31T10:30:30Z</time>
      </trkpt>
      <trkpt lat="43.40240510" lon="13.00655910">
        <ele>604.00000</ele>
        <time>2009-07-31T10:30:31Z</time>
      </trkpt>
      <trkpt lat="43.40242340" lon="13.00658750">
        <ele>604.00000</ele>
        <time>2009-07-31T10:30:32Z</time>
      </trkpt>
      <trkpt lat="43.40245240" lon="13.00656300">
        <ele>604.00000</ele>
        <time>2009-07-31T10:30:33Z</time>
      </trkpt>
      <trkpt lat="43.40246080" lon="13.00655710">
        <ele>604.00000</ele>
        <time>2009-07-31T10:30:33Z</time>
      </trkpt>
      <trkpt lat="43.40245900" lon="13.00654800">
        <ele>604.00000</ele>
        <time>2009-07-31T10:30:34Z</time>
      </trkpt>
      <trkpt lat="43.40245250" lon="13.00652990">
        <ele>604.00000</ele>
        <time>2009-07-31T10:30:34Z</time>
      </trkpt>
      <trkpt lat="43.40244420" lon="13.00650860">
        <ele>604.00000</ele>
        <time>2009-07-31T10:30:35Z</time>
      </trkpt>
      <trkpt lat="43.40245080" lon="13.00646550">
        <ele>604.00000</ele>
        <time>2009-07-31T10:30:36Z</time>
      </trkpt>
      <trkpt lat="43.40243920" lon="13.00644670">
        <ele>604.00000</ele>
        <time>2009-07-31T10:30:37Z</time>
      </trkpt>
      <trkpt lat="43.40243800" lon="13.00641380">
        <ele>604.00000</ele>
        <time>2009-07-31T10:30:38Z</time>
      </trkpt>
      <trkpt lat="43.40246750" lon="13.00638130">
        <ele>604.00000</ele>
        <time>2009-07-31T10:30:39Z</time>
      </trkpt>
      <trkpt lat="43.40249390" lon="13.00634740">
        <ele>604.00000</ele>
        <time>2009-07-31T10:30:41Z</time>
      </trkpt>
      <trkpt lat="43.40252360" lon="13.00632420">
        <ele>604.00000</ele>
        <time>2009-07-31T10:30:42Z</time>
      </trkpt>
      <trkpt lat="43.40252950" lon="13.00628650">
        <ele>604.00000</ele>
        <time>2009-07-31T10:30:43Z</time>
      </trkpt>
      <trkpt lat="43.40252120" lon="13.00625930">
        <ele>604.00000</ele>
        <time>2009-07-31T10:30:44Z</time>
      </trkpt>
      <trkpt lat="43.40252320" lon="13.00622870">
        <ele>614.00000</ele>
        <time>2009-07-31T10:30:45Z</time>
      </trkpt>
      <trkpt lat="43.40251960" lon="13.00621880">
        <ele>614.00000</ele>
        <time>2009-07-31T10:30:45Z</time>
      </trkpt>
      <trkpt lat="43.40251260" lon="13.00620130">
        <ele>614.00000</ele>
        <time>2009-07-31T10:30:46Z</time>
      </trkpt>
      <trkpt lat="43.40250100" lon="13.00619560">
        <ele>614.00000</ele>
        <time>2009-07-31T10:30:47Z</time>
      </trkpt>
      <trkpt lat="43.40249060" lon="13.00619410">
        <ele>614.00000</ele>
        <time>2009-07-31T10:30:47Z</time>
      </trkpt>
      <trkpt lat="43.40248330" lon="13.00619270">
        <ele>614.00000</ele>
        <time>2009-07-31T10:30:47Z</time>
      </trkpt>
      <trkpt lat="43.40248600" lon="13.00619470">
        <ele>614.00000</ele>
        <time>2009-07-31T10:30:47Z</time>
      </trkpt>
      <trkpt lat="43.40248660" lon="13.00619030">
        <ele>614.00000</ele>
        <time>2009-07-31T10:30:48Z</time>
      </trkpt>
      <trkpt lat="43.40248440" lon="13.00619010">
        <ele>614.00000</ele>
        <time>2009-07-31T10:30:48Z</time>
      </trkpt>
      <trkpt lat="43.40248290" lon="13.00619020">
        <ele>614.00000</ele>
        <time>2009-07-31T10:30:48Z</time>
      </trkpt>
      <trkpt lat="43.40248580" lon="13.00619160">
        <ele>614.00000</ele>
        <time>2009-07-31T10:30:48Z</time>
      </trkpt>
      <trkpt lat="43.40248080" lon="13.00618430">
        <ele>614.00000</ele>
        <time>2009-07-31T10:30:48Z</time>
      </trkpt>
      <trkpt lat="43.40247970" lon="13.00618460">
        <ele>614.00000</ele>
        <time>2009-07-31T10:30:48Z</time>
      </trkpt>
      <trkpt lat="43.40247770" lon="13.00618620">
        <ele>614.00000</ele>
        <time>2009-07-31T10:30:48Z</time>
      </trkpt>
      <trkpt lat="43.40247920" lon="13.00618630">
        <ele>614.00000</ele>
        <time>2009-07-31T10:30:48Z</time>
      </trkpt>
      <trkpt lat="43.40248040" lon="13.00618680">
        <ele>614.00000</ele>
        <time>2009-07-31T10:30:48Z</time>
      </trkpt>
      <trkpt lat="43.40248180" lon="13.00618730">
        <ele>614.00000</ele>
        <time>2009-07-31T10:30:48Z</time>
      </trkpt>
      <trkpt lat="43.40251220" lon="13.00617290">
        <ele>614.00000</ele>
        <time>2009-07-31T10:30:50Z</time>
      </trkpt>
      <trkpt lat="43.40251410" lon="13.00618020">
        <ele>614.00000</ele>
        <time>2009-07-31T10:30:50Z</time>
      </trkpt>
      <trkpt lat="43.40250780" lon="13.00618910">
        <ele>614.00000</ele>
        <time>2009-07-31T10:30:50Z</time>
      </trkpt>
      <trkpt lat="43.40249960" lon="13.00619030">
        <ele>614.00000</ele>
        <time>2009-07-31T10:30:51Z</time>
      </trkpt>
      <trkpt lat="43.40249720" lon="13.00619000">
        <ele>614.00000</ele>
        <time>2009-07-31T10:30:51Z</time>
      </trkpt>
      <trkpt lat="43.40249720" lon="13.00619040">
        <ele>614.00000</ele>
        <time>2009-07-31T10:30:51Z</time>
      </trkpt>
      <trkpt lat="43.40249470" lon="13.00618980">
        <ele>614.00000</ele>
        <time>2009-07-31T10:30:51Z</time>
      </trkpt>
      <trkpt lat="43.40249230" lon="13.00618990">
        <ele>614.00000</ele>
        <time>2009-07-31T10:30:51Z</time>
      </trkpt>
      <trkpt lat="43.40249140" lon="13.00618970">
        <ele>614.00000</ele>
        <time>2009-07-31T10:30:51Z</time>
      </trkpt>
      <trkpt lat="43.40249070" lon="13.00618950">
        <ele>614.00000</ele>
        <time>2009-07-31T10:30:51Z</time>
      </trkpt>
      <trkpt lat="43.40249050" lon="13.00618950">
        <ele>614.00000</ele>
        <time>2009-07-31T10:30:51Z</time>
      </trkpt>
      <trkpt lat="43.40249310" lon="13.00619050">
        <ele>614.00000</ele>
        <time>2009-07-31T10:30:51Z</time>
      </trkpt>
      <trkpt lat="43.40247900" lon="13.00619550">
        <ele>614.00000</ele>
        <time>2009-07-31T10:30:52Z</time>
      </trkpt>
      <trkpt lat="43.40248730" lon="13.00619560">
        <ele>614.00000</ele>
        <time>2009-07-31T10:30:52Z</time>
      </trkpt>
      <trkpt lat="43.40249900" lon="13.00618750">
        <ele>614.00000</ele>
        <time>2009-07-31T10:30:53Z</time>
      </trkpt>
      <trkpt lat="43.40251210" lon="13.00618100">
        <ele>614.00000</ele>
        <time>2009-07-31T10:30:53Z</time>
      </trkpt>
      <trkpt lat="43.40251870" lon="13.00618760">
        <ele>614.00000</ele>
        <time>2009-07-31T10:30:53Z</time>
      </trkpt>
      <trkpt lat="43.40252460" lon="13.00619160">
        <ele>614.00000</ele>
        <time>2009-07-31T10:30:54Z</time>
      </trkpt>
      <trkpt lat="43.40253890" lon="13.00619540">
        <ele>614.00000</ele>
        <time>2009-07-31T10:30:54Z</time>
      </trkpt>
      <trkpt lat="43.40255950" lon="13.00619050">
        <ele>614.00000</ele>
        <time>2009-07-31T10:30:55Z</time>
      </trkpt>
      <trkpt lat="43.40257730" lon="13.00617250">
        <ele>614.00000</ele>
        <time>2009-07-31T10:30:56Z</time>
      </trkpt>
      <trkpt lat="43.40259350" lon="13.00616590">
        <ele>614.00000</ele>
        <time>2009-07-31T10:30:57Z</time>
      </trkpt>
      <trkpt lat="43.40259910" lon="13.00615430">
        <ele>614.00000</ele>
        <time>2009-07-31T10:30:57Z</time>
      </trkpt>
      <trkpt lat="43.40259120" lon="13.00615850">
        <ele>614.00000</ele>
        <time>2009-07-31T10:30:57Z</time>
      </trkpt>
      <trkpt lat="43.40259030" lon="13.00615580">
        <ele>614.00000</ele>
        <time>2009-07-31T10:30:58Z</time>
      </trkpt>
      <trkpt lat="43.40259000" lon="13.00615590">
        <ele>614.00000</ele>
        <time>2009-07-31T10:30:58Z</time>
      </trkpt>
      <trkpt lat="43.40258930" lon="13.00615560">
        <ele>614.00000</ele>
        <time>2009-07-31T10:30:58Z</time>
      </trkpt>
      <trkpt lat="43.40258520" lon="13.00615460">
        <ele>614.00000</ele>
        <time>2009-07-31T10:30:58Z</time>
      </trkpt>
      <trkpt lat="43.40257200" lon="13.00614950">
        <ele>614.00000</ele>
        <time>2009-07-31T10:30:58Z</time>
      </trkpt>
      <trkpt lat="43.40256050" lon="13.00614410">
        <ele>614.00000</ele>
        <time>2009-07-31T10:30:59Z</time>
      </trkpt>
      <trkpt lat="43.40255300" lon="13.00614390">
        <ele>614.00000</ele>
        <time>2009-07-31T10:30:59Z</time>
      </trkpt>
      <trkpt lat="43.40254780" lon="13.00613790">
        <ele>614.00000</ele>
        <time>2009-07-31T10:30:59Z</time>
      </trkpt>
      <trkpt lat="43.40254580" lon="13.00613780">
        <ele>614.00000</ele>
        <time>2009-07-31T10:30:59Z</time>
      </trkpt>
      <trkpt lat="43.40254480" lon="13.00613780">
        <ele>614.00000</ele>
        <time>2009-07-31T10:30:59Z</time>
      </trkpt>
      <trkpt lat="43.40254460" lon="13.00613780">
        <ele>614.00000</ele>
        <time>2009-07-31T10:30:59Z</time>
      </trkpt>
      <trkpt lat="43.40254350" lon="13.00613780">
        <ele>614.00000</ele>
        <time>2009-07-31T10:30:59Z</time>
      </trkpt>
      <trkpt lat="43.40254390" lon="13.00613770">
        <ele>614.00000</ele>
        <time>2009-07-31T10:30:59Z</time>
      </trkpt>
      <trkpt lat="43.40253950" lon="13.00613720">
        <ele>614.00000</ele>
        <time>2009-07-31T10:31:00Z</time>
      </trkpt>
      <trkpt lat="43.40253760" lon="13.00613640">
        <ele>614.00000</ele>
        <time>2009-07-31T10:31:00Z</time>
      </trkpt>
      <trkpt lat="43.40253770" lon="13.00613710">
        <ele>614.00000</ele>
        <time>2009-07-31T10:31:00Z</time>
      </trkpt>
      <trkpt lat="43.40253600" lon="13.00613740">
        <ele>614.00000</ele>
        <time>2009-07-31T10:31:00Z</time>
      </trkpt>
      <trkpt lat="43.40252630" lon="13.00614140">
        <ele>614.00000</ele>
        <time>2009-07-31T10:31:00Z</time>
      </trkpt>
      <trkpt lat="43.40252250" lon="13.00614010">
        <ele>614.00000</ele>
        <time>2009-07-31T10:31:00Z</time>
      </trkpt>
      <trkpt lat="43.40252350" lon="13.00614910">
        <ele>614.00000</ele>
        <time>2009-07-31T10:31:01Z</time>
      </trkpt>
      <trkpt lat="43.40252610" lon="13.00614540">
        <ele>614.00000</ele>
        <time>2009-07-31T10:31:01Z</time>
      </trkpt>
      <trkpt lat="43.40252660" lon="13.00614560">
        <ele>614.00000</ele>
        <time>2009-07-31T10:31:01Z</time>
      </trkpt>
      <trkpt lat="43.40252490" lon="13.00614530">
        <ele>614.00000</ele>
        <time>2009-07-31T10:31:01Z</time>
      </trkpt>
      <trkpt lat="43.40252330" lon="13.00614540">
        <ele>614.00000</ele>
        <time>2009-07-31T10:31:01Z</time>
      </trkpt>
      <trkpt lat="43.40251960" lon="13.00614430">
        <ele>614.00000</ele>
        <time>2009-07-31T10:31:01Z</time>
      </trkpt>
      <trkpt lat="43.40251570" lon="13.00614380">
        <ele>614.00000</ele>
        <time>2009-07-31T10:31:01Z</time>
      </trkpt>
      <trkpt lat="43.40251400" lon="13.00614410">
        <ele>614.00000</ele>
        <time>2009-07-31T10:31:01Z</time>
      </trkpt>
      <trkpt lat="43.40251330" lon="13.00614470">
        <ele>614.00000</ele>
        <time>2009-07-31T10:31:01Z</time>
      </trkpt>
      <trkpt lat="43.40251290" lon="13.00614550">
        <ele>614.00000</ele>
        <time>2009-07-31T10:31:01Z</time>
      </trkpt>
      <trkpt lat="43.40251270" lon="13.00614530">
        <ele>614.00000</ele>
        <time>2009-07-31T10:31:01Z</time>
      </trkpt>
      <trkpt lat="43.40251370" lon="13.00614540">
        <ele>614.00000</ele>
        <time>2009-07-31T10:31:01Z</time>
      </trkpt>
      <trkpt lat="43.40251660" lon="13.00614610">
        <ele>614.00000</ele>
        <time>2009-07-31T10:31:02Z</time>
      </trkpt>
      <trkpt lat="43.40251810" lon="13.00614630">
        <ele>614.00000</ele>
        <time>2009-07-31T10:31:02Z</time>
      </trkpt>
      <trkpt lat="43.40251840" lon="13.00614670">
        <ele>614.00000</ele>
        <time>2009-07-31T10:31:02Z</time>
      </trkpt>
      <trkpt lat="43.40251950" lon="13.00614670">
        <ele>614.00000</ele>
        <time>2009-07-31T10:31:02Z</time>
      </trkpt>
      <trkpt lat="43.40252250" lon="13.00614810">
        <ele>614.00000</ele>
        <time>2009-07-31T10:31:02Z</time>
      </trkpt>
      <trkpt lat="43.40252580" lon="13.00614950">
        <ele>614.00000</ele>
        <time>2009-07-31T10:31:02Z</time>
      </trkpt>
      <trkpt lat="43.40252650" lon="13.00615000">
        <ele>614.00000</ele>
        <time>2009-07-31T10:31:02Z</time>
      </trkpt>
      <trkpt lat="43.40252700" lon="13.00615030">
        <ele>614.00000</ele>
        <time>2009-07-31T10:31:02Z</time>
      </trkpt>
      <trkpt lat="43.40252500" lon="13.00615050">
        <ele>614.00000</ele>
        <time>2009-07-31T10:31:02Z</time>
      </trkpt>
      <trkpt lat="43.40252390" lon="13.00615090">
        <ele>614.00000</ele>
        <time>2009-07-31T10:31:02Z</time>
      </trkpt>
      <trkpt lat="43.40252470" lon="13.00615190">
        <ele>614.00000</ele>
        <time>2009-07-31T10:31:02Z</time>
      </trkpt>
      <trkpt lat="43.40252420" lon="13.00615210">
        <ele>614.00000</ele>
        <time>2009-07-31T10:31:02Z</time>
      </trkpt>
      <trkpt lat="43.40252260" lon="13.00615220">
        <ele>614.00000</ele>
        <time>2009-07-31T10:31:02Z</time>
      </trkpt>
      <trkpt lat="43.40252280" lon="13.00615310">
        <ele>614.00000</ele>
        <time>2009-07-31T10:31:02Z</time>
      </trkpt>
      <trkpt lat="43.40251520" lon="13.00616950">
        <ele>614.00000</ele>
        <time>2009-07-31T10:31:03Z</time>
      </trkpt>
      <trkpt lat="43.40250690" lon="13.00617580">
        <ele>614.00000</ele>
        <time>2009-07-31T10:31:03Z</time>
      </trkpt>
      <trkpt lat="43.40249610" lon="13.00617650">
        <ele>614.00000</ele>
        <time>2009-07-31T10:31:04Z</time>
      </trkpt>
      <trkpt lat="43.40251580" lon="13.00618290">
        <ele>614.00000</ele>
        <time>2009-07-31T10:31:04Z</time>
      </trkpt>
      <trkpt lat="43.40252060" lon="13.00618080">
        <ele>614.00000</ele>
        <time>2009-07-31T10:31:05Z</time>
      </trkpt>
      <trkpt lat="43.40251930" lon="13.00618010">
        <ele>614.00000</ele>
        <time>2009-07-31T10:31:05Z</time>
      </trkpt>
      <trkpt lat="43.40251450" lon="13.00617920">
        <ele>614.00000</ele>
        <time>2009-07-31T10:31:05Z</time>
      </trkpt>
      <trkpt lat="43.40251180" lon="13.00617890">
        <ele>614.00000</ele>
        <time>2009-07-31T10:31:05Z</time>
      </trkpt>
      <trkpt lat="43.40251000" lon="13.00617870">
        <ele>614.00000</ele>
        <time>2009-07-31T10:31:05Z</time>
      </trkpt>
      <trkpt lat="43.40250910" lon="13.00617850">
        <ele>614.00000</ele>
        <time>2009-07-31T10:31:05Z</time>
      </trkpt>
      <trkpt lat="43.40251220" lon="13.00617990">
        <ele>614.00000</ele>
        <time>2009-07-31T10:31:05Z</time>
      </trkpt>
      <trkpt lat="43.40251690" lon="13.00618210">
        <ele>614.00000</ele>
        <time>2009-07-31T10:31:05Z</time>
      </trkpt>
      <trkpt lat="43.40251880" lon="13.00618320">
        <ele>614.00000</ele>
        <time>2009-07-31T10:31:05Z</time>
      </trkpt>
      <trkpt lat="43.40251900" lon="13.00618290">
        <ele>614.00000</ele>
        <time>2009-07-31T10:31:05Z</time>
      </trkpt>
      <trkpt lat="43.40251590" lon="13.00619020">
        <ele>614.00000</ele>
        <time>2009-07-31T10:31:06Z</time>
      </trkpt>
      <trkpt lat="43.40252080" lon="13.00619560">
        <ele>614.00000</ele>
        <time>2009-07-31T10:31:06Z</time>
      </trkpt>
      <trkpt lat="43.40250930" lon="13.00621560">
        <ele>614.00000</ele>
        <time>2009-07-31T10:31:07Z</time>
      </trkpt>
      <trkpt lat="43.40252760" lon="13.00620430">
        <ele>614.00000</ele>
        <time>2009-07-31T10:31:08Z</time>
      </trkpt>
      <trkpt lat="43.40253520" lon="13.00619640">
        <ele>614.00000</ele>
        <time>2009-07-31T10:31:08Z</time>
      </trkpt>
      <trkpt lat="43.40255230" lon="13.00618910">
        <ele>614.00000</ele>
        <time>2009-07-31T10:31:09Z</time>
      </trkpt>
      <trkpt lat="43.40256570" lon="13.00618920">
        <ele>614.00000</ele>
        <time>2009-07-31T10:31:09Z</time>
      </trkpt>
      <trkpt lat="43.40257160" lon="13.00619190">
        <ele>614.00000</ele>
        <time>2009-07-31T10:31:09Z</time>
      </trkpt>
      <trkpt lat="43.40256380" lon="13.00620030">
        <ele>614.00000</ele>
        <time>2009-07-31T10:31:10Z</time>
      </trkpt>
      <trkpt lat="43.40256370" lon="13.00620430">
        <ele>614.00000</ele>
        <time>2009-07-31T10:31:10Z</time>
      </trkpt>
      <trkpt lat="43.40256700" lon="13.00619500">
        <ele>614.00000</ele>
        <time>2009-07-31T10:31:10Z</time>
      </trkpt>
      <trkpt lat="43.40257580" lon="13.00618310">
        <ele>614.00000</ele>
        <time>2009-07-31T10:31:11Z</time>
      </trkpt>
      <trkpt lat="43.40259270" lon="13.00617400">
        <ele>614.00000</ele>
        <time>2009-07-31T10:31:11Z</time>
      </trkpt>
      <trkpt lat="43.40259400" lon="13.00618810">
        <ele>614.00000</ele>
        <time>2009-07-31T10:31:12Z</time>
      </trkpt>
      <trkpt lat="43.40260350" lon="13.00619880">
        <ele>614.00000</ele>
        <time>2009-07-31T10:31:12Z</time>
      </trkpt>
      <trkpt lat="43.40261940" lon="13.00620300">
        <ele>614.00000</ele>
        <time>2009-07-31T10:31:13Z</time>
      </trkpt>
      <trkpt lat="43.40263620" lon="13.00621280">
        <ele>614.00000</ele>
        <time>2009-07-31T10:31:14Z</time>
      </trkpt>
      <trkpt lat="43.40265890" lon="13.00622240">
        <ele>614.00000</ele>
        <time>2009-07-31T10:31:15Z</time>
      </trkpt>
      <trkpt lat="43.40267340" lon="13.00622930">
        <ele>614.00000</ele>
        <time>2009-07-31T10:31:15Z</time>
      </trkpt>
      <trkpt lat="43.40269900" lon="13.00622310">
        <ele>614.00000</ele>
        <time>2009-07-31T10:31:16Z</time>
      </trkpt>
      <trkpt lat="43.40272530" lon="13.00621030">
        <ele>614.00000</ele>
        <time>2009-07-31T10:31:17Z</time>
      </trkpt>
      <trkpt lat="43.40277480" lon="13.00616210">
        <ele>614.00000</ele>
        <time>2009-07-31T10:31:20Z</time>
      </trkpt>
      <trkpt lat="43.40279820" lon="13.00616480">
        <ele>614.00000</ele>
        <time>2009-07-31T10:31:21Z</time>
      </trkpt>
      <trkpt lat="43.40280650" lon="13.00618260">
        <ele>614.00000</ele>
        <time>2009-07-31T10:31:21Z</time>
      </trkpt>
      <trkpt lat="43.40283490" lon="13.00618590">
        <ele>614.00000</ele>
        <time>2009-07-31T10:31:23Z</time>
      </trkpt>
      <trkpt lat="43.40286340" lon="13.00618410">
        <ele>614.00000</ele>
        <time>2009-07-31T10:31:24Z</time>
      </trkpt>
      <trkpt lat="43.40288590" lon="13.00619240">
        <ele>614.00000</ele>
        <time>2009-07-31T10:31:25Z</time>
      </trkpt>
      <trkpt lat="43.40290720" lon="13.00619890">
        <ele>614.00000</ele>
        <time>2009-07-31T10:31:26Z</time>
      </trkpt>
      <trkpt lat="43.40293040" lon="13.00619690">
        <ele>621.00000</ele>
        <time>2009-07-31T10:31:26Z</time>
      </trkpt>
      <trkpt lat="43.40295280" lon="13.00620770">
        <ele>621.00000</ele>
        <time>2009-07-31T10:31:27Z</time>
      </trkpt>
      <trkpt lat="43.40297930" lon="13.00621090">
        <ele>621.00000</ele>
        <time>2009-07-31T10:31:28Z</time>
      </trkpt>
      <trkpt lat="43.40299660" lon="13.00621930">
        <ele>621.00000</ele>
        <time>2009-07-31T10:31:29Z</time>
      </trkpt>
      <trkpt lat="43.40301970" lon="13.00622380">
        <ele>621.00000</ele>
        <time>2009-07-31T10:31:30Z</time>
      </trkpt>
      <trkpt lat="43.40304010" lon="13.00622850">
        <ele>621.00000</ele>
        <time>2009-07-31T10:31:31Z</time>
      </trkpt>
      <trkpt lat="43.40306140" lon="13.00623540">
        <ele>621.00000</ele>
        <time>2009-07-31T10:31:32Z</time>
      </trkpt>
      <trkpt lat="43.40309390" lon="13.00622450">
        <ele>621.00000</ele>
        <time>2009-07-31T10:31:33Z</time>
      </trkpt>
      <trkpt lat="43.40311770" lon="13.00623040">
        <ele>621.00000</ele>
        <time>2009-07-31T10:31:34Z</time>
      </trkpt>
      <trkpt lat="43.40314030" lon="13.00622870">
        <ele>621.00000</ele>
        <time>2009-07-31T10:31:35Z</time>
      </trkpt>
      <trkpt lat="43.40316600" lon="13.00620940">
        <ele>621.00000</ele>
        <time>2009-07-31T10:31:36Z</time>
      </trkpt>
      <trkpt lat="43.40319520" lon="13.00620600">
        <ele>621.00000</ele>
        <time>2009-07-31T10:31:37Z</time>
      </trkpt>
      <trkpt lat="43.40322170" lon="13.00620040">
        <ele>621.00000</ele>
        <time>2009-07-31T10:31:38Z</time>
      </trkpt>
      <trkpt lat="43.40324820" lon="13.00621190">
        <ele>621.00000</ele>
        <time>2009-07-31T10:31:40Z</time>
      </trkpt>
      <trkpt lat="43.40327080" lon="13.00621810">
        <ele>621.00000</ele>
        <time>2009-07-31T10:31:41Z</time>
      </trkpt>
      <trkpt lat="43.40329790" lon="13.00621530">
        <ele>621.00000</ele>
        <time>2009-07-31T10:31:42Z</time>
      </trkpt>
      <trkpt lat="43.40332440" lon="13.00621170">
        <ele>621.00000</ele>
        <time>2009-07-31T10:31:43Z</time>
      </trkpt>
      <trkpt lat="43.40334520" lon="13.00622030">
        <ele>621.00000</ele>
        <time>2009-07-31T10:31:44Z</time>
      </trkpt>
      <trkpt lat="43.40334410" lon="13.00621290">
        <ele>621.00000</ele>
        <time>2009-07-31T10:31:44Z</time>
      </trkpt>
      <trkpt lat="43.40336140" lon="13.00620350">
        <ele>621.00000</ele>
        <time>2009-07-31T10:31:45Z</time>
      </trkpt>
      <trkpt lat="43.40338910" lon="13.00619240">
        <ele>621.00000</ele>
        <time>2009-07-31T10:31:46Z</time>
      </trkpt>
      <trkpt lat="43.40341880" lon="13.00617580">
        <ele>621.00000</ele>
        <time>2009-07-31T10:31:47Z</time>
      </trkpt>
      <trkpt lat="43.40344500" lon="13.00616370">
        <ele>621.00000</ele>
        <time>2009-07-31T10:31:48Z</time>
      </trkpt>
      <trkpt lat="43.40346510" lon="13.00616410">
        <ele>621.00000</ele>
        <time>2009-07-31T10:31:49Z</time>
      </trkpt>
      <trkpt lat="43.40348730" lon="13.00615140">
        <ele>621.00000</ele>
        <time>2009-07-31T10:31:50Z</time>
      </trkpt>
      <trkpt lat="43.40351390" lon="13.00614570">
        <ele>621.00000</ele>
        <time>2009-07-31T10:31:51Z</time>
      </trkpt>
      <trkpt lat="43.40353810" lon="13.00613740">
        <ele>621.00000</ele>
        <time>2009-07-31T10:31:52Z</time>
      </trkpt>
      <trkpt lat="43.40356430" lon="13.00612500">
        <ele>621.00000</ele>
        <time>2009-07-31T10:31:53Z</time>
      </trkpt>
      <trkpt lat="43.40358570" lon="13.00611250">
        <ele>621.00000</ele>
        <time>2009-07-31T10:31:54Z</time>
      </trkpt>
      <trkpt lat="43.40360610" lon="13.00610620">
        <ele>621.00000</ele>
        <time>2009-07-31T10:31:55Z</time>
      </trkpt>
      <trkpt lat="43.40362490" lon="13.00609190">
        <ele>621.00000</ele>
        <time>2009-07-31T10:31:56Z</time>
      </trkpt>
      <trkpt lat="43.40364110" lon="13.00607040">
        <ele>621.00000</ele>
        <time>2009-07-31T10:31:57Z</time>
      </trkpt>
      <trkpt lat="43.40367190" lon="13.00606020">
        <ele>621.00000</ele>
        <time>2009-07-31T10:31:58Z</time>
      </trkpt>
      <trkpt lat="43.40370160" lon="13.00603790">
        <ele>621.00000</ele>
        <time>2009-07-31T10:31:59Z</time>
      </trkpt>
      <trkpt lat="43.40373700" lon="13.00602450">
        <ele>621.00000</ele>
        <time>2009-07-31T10:32:01Z</time>
      </trkpt>
      <trkpt lat="43.40376080" lon="13.00601190">
        <ele>614.00000</ele>
        <time>2009-07-31T10:32:02Z</time>
      </trkpt>
      <trkpt lat="43.40379420" lon="13.00599860">
        <ele>614.00000</ele>
        <time>2009-07-31T10:32:03Z</time>
      </trkpt>
      <trkpt lat="43.40381430" lon="13.00598320">
        <ele>614.00000</ele>
        <time>2009-07-31T10:32:04Z</time>
      </trkpt>
      <trkpt lat="43.40383420" lon="13.00596670">
        <ele>614.00000</ele>
        <time>2009-07-31T10:32:05Z</time>
      </trkpt>
      <trkpt lat="43.40385300" lon="13.00596480">
        <ele>614.00000</ele>
        <time>2009-07-31T10:32:06Z</time>
      </trkpt>
      <trkpt lat="43.40388770" lon="13.00594450">
        <ele>614.00000</ele>
        <time>2009-07-31T10:32:07Z</time>
      </trkpt>
      <trkpt lat="43.40391120" lon="13.00592660">
        <ele>614.00000</ele>
        <time>2009-07-31T10:32:08Z</time>
      </trkpt>
      <trkpt lat="43.40393260" lon="13.00591040">
        <ele>614.00000</ele>
        <time>2009-07-31T10:32:09Z</time>
      </trkpt>
      <trkpt lat="43.40396810" lon="13.00591120">
        <ele>614.00000</ele>
        <time>2009-07-31T10:32:11Z</time>
      </trkpt>
      <trkpt lat="43.40397880" lon="13.00589990">
        <ele>614.00000</ele>
        <time>2009-07-31T10:32:11Z</time>
      </trkpt>
      <trkpt lat="43.40399020" lon="13.00589730">
        <ele>614.00000</ele>
        <time>2009-07-31T10:32:12Z</time>
      </trkpt>
      <trkpt lat="43.40401280" lon="13.00587910">
        <ele>614.00000</ele>
        <time>2009-07-31T10:32:13Z</time>
      </trkpt>
      <trkpt lat="43.40404440" lon="13.00584200">
        <ele>614.00000</ele>
        <time>2009-07-31T10:32:14Z</time>
      </trkpt>
      <trkpt lat="43.40406460" lon="13.00583190">
        <ele>614.00000</ele>
        <time>2009-07-31T10:32:15Z</time>
      </trkpt>
      <trkpt lat="43.40408130" lon="13.00581640">
        <ele>614.00000</ele>
        <time>2009-07-31T10:32:16Z</time>
      </trkpt>
      <trkpt lat="43.40409630" lon="13.00579510">
        <ele>614.00000</ele>
        <time>2009-07-31T10:32:17Z</time>
      </trkpt>
      <trkpt lat="43.40411840" lon="13.00577610">
        <ele>614.00000</ele>
        <time>2009-07-31T10:32:18Z</time>
      </trkpt>
      <trkpt lat="43.40414790" lon="13.00575670">
        <ele>614.00000</ele>
        <time>2009-07-31T10:32:19Z</time>
      </trkpt>
      <trkpt lat="43.40416880" lon="13.00573040">
        <ele>614.00000</ele>
        <time>2009-07-31T10:32:20Z</time>
      </trkpt>
      <trkpt lat="43.40418520" lon="13.00571970">
        <ele>614.00000</ele>
        <time>2009-07-31T10:32:21Z</time>
      </trkpt>
      <trkpt lat="43.40420250" lon="13.00570420">
        <ele>614.00000</ele>
        <time>2009-07-31T10:32:22Z</time>
      </trkpt>
      <trkpt lat="43.40422700" lon="13.00569680">
        <ele>614.00000</ele>
        <time>2009-07-31T10:32:23Z</time>
      </trkpt>
      <trkpt lat="43.40425920" lon="13.00567490">
        <ele>614.00000</ele>
        <time>2009-07-31T10:32:24Z</time>
      </trkpt>
      <trkpt lat="43.40427850" lon="13.00565650">
        <ele>614.00000</ele>
        <time>2009-07-31T10:32:25Z</time>
      </trkpt>
      <trkpt lat="43.40430360" lon="13.00565910">
        <ele>614.00000</ele>
        <time>2009-07-31T10:32:26Z</time>
      </trkpt>
      <trkpt lat="43.40432720" lon="13.00564290">
        <ele>614.00000</ele>
        <time>2009-07-31T10:32:27Z</time>
      </trkpt>
      <trkpt lat="43.40435320" lon="13.00562450">
        <ele>614.00000</ele>
        <time>2009-07-31T10:32:29Z</time>
      </trkpt>
      <trkpt lat="43.40437280" lon="13.00562250">
        <ele>614.00000</ele>
        <time>2009-07-31T10:32:29Z</time>
      </trkpt>
      <trkpt lat="43.40439280" lon="13.00560120">
        <ele>614.00000</ele>
        <time>2009-07-31T10:32:30Z</time>
      </trkpt>
      <trkpt lat="43.40441500" lon="13.00557830">
        <ele>614.00000</ele>
        <time>2009-07-31T10:32:31Z</time>
      </trkpt>
      <trkpt lat="43.40444010" lon="13.00554480">
        <ele>614.00000</ele>
        <time>2009-07-31T10:32:33Z</time>
      </trkpt>
      <trkpt lat="43.40446740" lon="13.00551850">
        <ele>614.00000</ele>
        <time>2009-07-31T10:32:34Z</time>
      </trkpt>
      <trkpt lat="43.40449180" lon="13.00548530">
        <ele>614.00000</ele>
        <time>2009-07-31T10:32:36Z</time>
      </trkpt>
      <trkpt lat="43.40451740" lon="13.00546180">
        <ele>614.00000</ele>
        <time>2009-07-31T10:32:37Z</time>
      </trkpt>
      <trkpt lat="43.40454210" lon="13.00543500">
        <ele>614.00000</ele>
        <time>2009-07-31T10:32:38Z</time>
      </trkpt>
      <trkpt lat="43.40456870" lon="13.00541370">
        <ele>638.00000</ele>
        <time>2009-07-31T10:32:39Z</time>
      </trkpt>
      <trkpt lat="43.40458770" lon="13.00538610">
        <ele>621.00000</ele>
        <time>2009-07-31T10:32:40Z</time>
      </trkpt>
      <trkpt lat="43.40460570" lon="13.00536640">
        <ele>621.00000</ele>
        <time>2009-07-31T10:32:41Z</time>
      </trkpt>
      <trkpt lat="43.40462090" lon="13.00534990">
        <ele>621.00000</ele>
        <time>2009-07-31T10:32:42Z</time>
      </trkpt>
      <trkpt lat="43.40464970" lon="13.00531120">
        <ele>621.00000</ele>
        <time>2009-07-31T10:32:44Z</time>
      </trkpt>
      <trkpt lat="43.40466680" lon="13.00529430">
        <ele>621.00000</ele>
        <time>2009-07-31T10:32:45Z</time>
      </trkpt>
      <trkpt lat="43.40468590" lon="13.00527090">
        <ele>621.00000</ele>
        <time>2009-07-31T10:32:46Z</time>
      </trkpt>
      <trkpt lat="43.40470270" lon="13.00525080">
        <ele>621.00000</ele>
        <time>2009-07-31T10:32:46Z</time>
      </trkpt>
      <trkpt lat="43.40472800" lon="13.00522280">
        <ele>621.00000</ele>
        <time>2009-07-31T10:32:48Z</time>
      </trkpt>
      <trkpt lat="43.40474560" lon="13.00520040">
        <ele>621.00000</ele>
        <time>2009-07-31T10:32:49Z</time>
      </trkpt>
      <trkpt lat="43.40475910" lon="13.00518270">
        <ele>621.00000</ele>
        <time>2009-07-31T10:32:49Z</time>
      </trkpt>
      <trkpt lat="43.40477680" lon="13.00515510">
        <ele>621.00000</ele>
        <time>2009-07-31T10:32:51Z</time>
      </trkpt>
      <trkpt lat="43.40479880" lon="13.00513550">
        <ele>621.00000</ele>
        <time>2009-07-31T10:32:52Z</time>
      </trkpt>
      <trkpt lat="43.40481320" lon="13.00511360">
        <ele>621.00000</ele>
        <time>2009-07-31T10:32:52Z</time>
      </trkpt>
      <trkpt lat="43.40481960" lon="13.00508750">
        <ele>621.00000</ele>
        <time>2009-07-31T10:32:53Z</time>
      </trkpt>
      <trkpt lat="43.40483640" lon="13.00504690">
        <ele>621.00000</ele>
        <time>2009-07-31T10:32:55Z</time>
      </trkpt>
      <trkpt lat="43.40485770" lon="13.00501260">
        <ele>621.00000</ele>
        <time>2009-07-31T10:32:56Z</time>
      </trkpt>
      <trkpt lat="43.40486930" lon="13.00497900">
        <ele>621.00000</ele>
        <time>2009-07-31T10:32:57Z</time>
      </trkpt>
      <trkpt lat="43.40488240" lon="13.00496090">
        <ele>621.00000</ele>
        <time>2009-07-31T10:32:58Z</time>
      </trkpt>
      <trkpt lat="43.40490250" lon="13.00495580">
        <ele>621.00000</ele>
        <time>2009-07-31T10:32:59Z</time>
      </trkpt>
      <trkpt lat="43.40492080" lon="13.00491450">
        <ele>621.00000</ele>
        <time>2009-07-31T10:33:00Z</time>
      </trkpt>
      <trkpt lat="43.40493800" lon="13.00489680">
        <ele>621.00000</ele>
        <time>2009-07-31T10:33:01Z</time>
      </trkpt>
      <trkpt lat="43.40495650" lon="13.00486570">
        <ele>621.00000</ele>
        <time>2009-07-31T10:33:02Z</time>
      </trkpt>
      <trkpt lat="43.40497570" lon="13.00483740">
        <ele>621.00000</ele>
        <time>2009-07-31T10:33:03Z</time>
      </trkpt>
      <trkpt lat="43.40499400" lon="13.00481190">
        <ele>621.00000</ele>
        <time>2009-07-31T10:33:04Z</time>
      </trkpt>
      <trkpt lat="43.40501150" lon="13.00478510">
        <ele>621.00000</ele>
        <time>2009-07-31T10:33:05Z</time>
      </trkpt>
      <trkpt lat="43.40502850" lon="13.00474810">
        <ele>621.00000</ele>
        <time>2009-07-31T10:33:06Z</time>
      </trkpt>
      <trkpt lat="43.40504470" lon="13.00471220">
        <ele>621.00000</ele>
        <time>2009-07-31T10:33:08Z</time>
      </trkpt>
      <trkpt lat="43.40505900" lon="13.00468240">
        <ele>621.00000</ele>
        <time>2009-07-31T10:33:09Z</time>
      </trkpt>
      <trkpt lat="43.40506710" lon="13.00465750">
        <ele>621.00000</ele>
        <time>2009-07-31T10:33:10Z</time>
      </trkpt>
      <trkpt lat="43.40508260" lon="13.00462860">
        <ele>621.00000</ele>
        <time>2009-07-31T10:33:11Z</time>
      </trkpt>
      <trkpt lat="43.40509890" lon="13.00459940">
        <ele>621.00000</ele>
        <time>2009-07-31T10:33:12Z</time>
      </trkpt>
      <trkpt lat="43.40511510" lon="13.00457220">
        <ele>639.00000</ele>
        <time>2009-07-31T10:33:13Z</time>
      </trkpt>
      <trkpt lat="43.40513830" lon="13.00453880">
        <ele>639.00000</ele>
        <time>2009-07-31T10:33:14Z</time>
      </trkpt>
      <trkpt lat="43.40515550" lon="13.00449980">
        <ele>639.00000</ele>
        <time>2009-07-31T10:33:15Z</time>
      </trkpt>
      <trkpt lat="43.40517460" lon="13.00447220">
        <ele>639.00000</ele>
        <time>2009-07-31T10:33:16Z</time>
      </trkpt>
      <trkpt lat="43.40519390" lon="13.00444170">
        <ele>639.00000</ele>
        <time>2009-07-31T10:33:18Z</time>
      </trkpt>
      <trkpt lat="43.40520640" lon="13.00441470">
        <ele>639.00000</ele>
        <time>2009-07-31T10:33:19Z</time>
      </trkpt>
      <trkpt lat="43.40522760" lon="13.00438600">
        <ele>639.00000</ele>
        <time>2009-07-31T10:33:20Z</time>
      </trkpt>
      <trkpt lat="43.40524020" lon="13.00435580">
        <ele>639.00000</ele>
        <time>2009-07-31T10:33:21Z</time>
      </trkpt>
      <trkpt lat="43.40525410" lon="13.00433260">
        <ele>639.00000</ele>
        <time>2009-07-31T10:33:22Z</time>
      </trkpt>
      <trkpt lat="43.40526300" lon="13.00430350">
        <ele>639.00000</ele>
        <time>2009-07-31T10:33:23Z</time>
      </trkpt>
      <trkpt lat="43.40527450" lon="13.00428000">
        <ele>639.00000</ele>
        <time>2009-07-31T10:33:23Z</time>
      </trkpt>
      <trkpt lat="43.40528840" lon="13.00424840">
        <ele>639.00000</ele>
        <time>2009-07-31T10:33:24Z</time>
      </trkpt>
      <trkpt lat="43.40530630" lon="13.00422320">
        <ele>639.00000</ele>
        <time>2009-07-31T10:33:25Z</time>
      </trkpt>
      <trkpt lat="43.40532590" lon="13.00418950">
        <ele>639.00000</ele>
        <time>2009-07-31T10:33:27Z</time>
      </trkpt>
      <trkpt lat="43.40533210" lon="13.00416700">
        <ele>639.00000</ele>
        <time>2009-07-31T10:33:27Z</time>
      </trkpt>
      <trkpt lat="43.40534400" lon="13.00414730">
        <ele>639.00000</ele>
        <time>2009-07-31T10:33:28Z</time>
      </trkpt>
      <trkpt lat="43.40534770" lon="13.00411570">
        <ele>639.00000</ele>
        <time>2009-07-31T10:33:29Z</time>
      </trkpt>
      <trkpt lat="43.40535070" lon="13.00409670">
        <ele>639.00000</ele>
        <time>2009-07-31T10:33:30Z</time>
      </trkpt>
      <trkpt lat="43.40536060" lon="13.00408020">
        <ele>639.00000</ele>
        <time>2009-07-31T10:33:30Z</time>
      </trkpt>
      <trkpt lat="43.40536850" lon="13.00403380">
        <ele>639.00000</ele>
        <time>2009-07-31T10:33:32Z</time>
      </trkpt>
      <trkpt lat="43.40537300" lon="13.00398810">
        <ele>639.00000</ele>
        <time>2009-07-31T10:33:33Z</time>
      </trkpt>
      <trkpt lat="43.40538590" lon="13.00395530">
        <ele>639.00000</ele>
        <time>2009-07-31T10:33:34Z</time>
      </trkpt>
      <trkpt lat="43.40540250" lon="13.00392050">
        <ele>639.00000</ele>
        <time>2009-07-31T10:33:35Z</time>
      </trkpt>
      <trkpt lat="43.40542110" lon="13.00389770">
        <ele>618.00000</ele>
        <time>2009-07-31T10:33:36Z</time>
      </trkpt>
      <trkpt lat="43.40543280" lon="13.00385480">
        <ele>618.00000</ele>
        <time>2009-07-31T10:33:38Z</time>
      </trkpt>
      <trkpt lat="43.40544280" lon="13.00382880">
        <ele>618.00000</ele>
        <time>2009-07-31T10:33:38Z</time>
      </trkpt>
      <trkpt lat="43.40545370" lon="13.00380160">
        <ele>618.00000</ele>
        <time>2009-07-31T10:33:39Z</time>
      </trkpt>
      <trkpt lat="43.40546960" lon="13.00375940">
        <ele>618.00000</ele>
        <time>2009-07-31T10:33:41Z</time>
      </trkpt>
      <trkpt lat="43.40547970" lon="13.00371910">
        <ele>630.00000</ele>
        <time>2009-07-31T10:33:42Z</time>
      </trkpt>
      <trkpt lat="43.40548690" lon="13.00369090">
        <ele>630.00000</ele>
        <time>2009-07-31T10:33:43Z</time>
      </trkpt>
      <trkpt lat="43.40549590" lon="13.00365030">
        <ele>630.00000</ele>
        <time>2009-07-31T10:33:44Z</time>
      </trkpt>
      <trkpt lat="43.40551800" lon="13.00360930">
        <ele>630.00000</ele>
        <time>2009-07-31T10:33:46Z</time>
      </trkpt>
      <trkpt lat="43.40552400" lon="13.00358170">
        <ele>630.00000</ele>
        <time>2009-07-31T10:33:46Z</time>
      </trkpt>
      <trkpt lat="43.40552780" lon="13.00355550">
        <ele>630.00000</ele>
        <time>2009-07-31T10:33:47Z</time>
      </trkpt>
      <trkpt lat="43.40552890" lon="13.00352880">
        <ele>630.00000</ele>
        <time>2009-07-31T10:33:48Z</time>
      </trkpt>
      <trkpt lat="43.40554280" lon="13.00348650">
        <ele>630.00000</ele>
        <time>2009-07-31T10:33:49Z</time>
      </trkpt>
      <trkpt lat="43.40555220" lon="13.00345490">
        <ele>630.00000</ele>
        <time>2009-07-31T10:33:50Z</time>
      </trkpt>
      <trkpt lat="43.40555230" lon="13.00343220">
        <ele>630.00000</ele>
        <time>2009-07-31T10:33:51Z</time>
      </trkpt>
      <trkpt lat="43.40555780" lon="13.00340890">
        <ele>630.00000</ele>
        <time>2009-07-31T10:33:52Z</time>
      </trkpt>
      <trkpt lat="43.40556120" lon="13.00337230">
        <ele>630.00000</ele>
        <time>2009-07-31T10:33:53Z</time>
      </trkpt>
      <trkpt lat="43.40557230" lon="13.00333870">
        <ele>630.00000</ele>
        <time>2009-07-31T10:33:54Z</time>
      </trkpt>
      <trkpt lat="43.40557780" lon="13.00329740">
        <ele>630.00000</ele>
        <time>2009-07-31T10:33:55Z</time>
      </trkpt>
      <trkpt lat="43.40557960" lon="13.00326280">
        <ele>630.00000</ele>
        <time>2009-07-31T10:33:56Z</time>
      </trkpt>
      <trkpt lat="43.40558360" lon="13.00322280">
        <ele>630.00000</ele>
        <time>2009-07-31T10:33:57Z</time>
      </trkpt>
      <trkpt lat="43.40559140" lon="13.00317850">
        <ele>630.00000</ele>
        <time>2009-07-31T10:33:59Z</time>
      </trkpt>
      <trkpt lat="43.40559590" lon="13.00314450">
        <ele>630.00000</ele>
        <time>2009-07-31T10:34:00Z</time>
      </trkpt>
      <trkpt lat="43.40560260" lon="13.00311410">
        <ele>630.00000</ele>
        <time>2009-07-31T10:34:01Z</time>
      </trkpt>
      <trkpt lat="43.40561250" lon="13.00307560">
        <ele>630.00000</ele>
        <time>2009-07-31T10:34:02Z</time>
      </trkpt>
      <trkpt lat="43.40561600" lon="13.00304190">
        <ele>630.00000</ele>
        <time>2009-07-31T10:34:03Z</time>
      </trkpt>
      <trkpt lat="43.40562770" lon="13.00299950">
        <ele>630.00000</ele>
        <time>2009-07-31T10:34:04Z</time>
      </trkpt>
      <trkpt lat="43.40563430" lon="13.00296000">
        <ele>630.00000</ele>
        <time>2009-07-31T10:34:05Z</time>
      </trkpt>
      <trkpt lat="43.40564790" lon="13.00293570">
        <ele>630.00000</ele>
        <time>2009-07-31T10:34:06Z</time>
      </trkpt>
      <trkpt lat="43.40566210" lon="13.00290760">
        <ele>640.00000</ele>
        <time>2009-07-31T10:34:07Z</time>
      </trkpt>
      <trkpt lat="43.40567510" lon="13.00287260">
        <ele>640.00000</ele>
        <time>2009-07-31T10:34:08Z</time>
      </trkpt>
      <trkpt lat="43.40567670" lon="13.00283140">
        <ele>640.00000</ele>
        <time>2009-07-31T10:34:09Z</time>
      </trkpt>
      <trkpt lat="43.40567580" lon="13.00281040">
        <ele>640.00000</ele>
        <time>2009-07-31T10:34:10Z</time>
      </trkpt>
      <trkpt lat="43.40568780" lon="13.00277060">
        <ele>640.00000</ele>
        <time>2009-07-31T10:34:11Z</time>
      </trkpt>
      <trkpt lat="43.40569530" lon="13.00273070">
        <ele>640.00000</ele>
        <time>2009-07-31T10:34:12Z</time>
      </trkpt>
      <trkpt lat="43.40570330" lon="13.00268960">
        <ele>640.00000</ele>
        <time>2009-07-31T10:34:14Z</time>
      </trkpt>
      <trkpt lat="43.40570570" lon="13.00266510">
        <ele>640.00000</ele>
        <time>2009-07-31T10:34:14Z</time>
      </trkpt>
      <trkpt lat="43.40571210" lon="13.00263860">
        <ele>640.00000</ele>
        <time>2009-07-31T10:34:15Z</time>
      </trkpt>
      <trkpt lat="43.40571790" lon="13.00260020">
        <ele>640.00000</ele>
        <time>2009-07-31T10:34:16Z</time>
      </trkpt>
      <trkpt lat="43.40572560" lon="13.00256760">
        <ele>640.00000</ele>
        <time>2009-07-31T10:34:17Z</time>
      </trkpt>
      <trkpt lat="43.40573280" lon="13.00253170">
        <ele>640.00000</ele>
        <time>2009-07-31T10:34:18Z</time>
      </trkpt>
      <trkpt lat="43.40573500" lon="13.00248750">
        <ele>640.00000</ele>
        <time>2009-07-31T10:34:20Z</time>
      </trkpt>
      <trkpt lat="43.40573710" lon="13.00243550">
        <ele>640.00000</ele>
        <time>2009-07-31T10:34:21Z</time>
      </trkpt>
      <trkpt lat="43.40574170" lon="13.00238830">
        <ele>640.00000</ele>
        <time>2009-07-31T10:34:23Z</time>
      </trkpt>
      <trkpt lat="43.40574900" lon="13.00234870">
        <ele>640.00000</ele>
        <time>2009-07-31T10:34:24Z</time>
      </trkpt>
      <trkpt lat="43.40575820" lon="13.00231230">
        <ele>640.00000</ele>
        <time>2009-07-31T10:34:25Z</time>
      </trkpt>
      <trkpt lat="43.40576150" lon="13.00229570">
        <ele>640.00000</ele>
        <time>2009-07-31T10:34:25Z</time>
      </trkpt>
      <trkpt lat="43.40575530" lon="13.00228650">
        <ele>640.00000</ele>
        <time>2009-07-31T10:34:26Z</time>
      </trkpt>
      <trkpt lat="43.40576610" lon="13.00225920">
        <ele>640.00000</ele>
        <time>2009-07-31T10:34:27Z</time>
      </trkpt>
      <trkpt lat="43.40577080" lon="13.00222280">
        <ele>640.00000</ele>
        <time>2009-07-31T10:34:28Z</time>
      </trkpt>
      <trkpt lat="43.40577270" lon="13.00219590">
        <ele>640.00000</ele>
        <time>2009-07-31T10:34:29Z</time>
      </trkpt>
      <trkpt lat="43.40578270" lon="13.00216220">
        <ele>640.00000</ele>
        <time>2009-07-31T10:34:30Z</time>
      </trkpt>
      <trkpt lat="43.40580400" lon="13.00213190">
        <ele>640.00000</ele>
        <time>2009-07-31T10:34:31Z</time>
      </trkpt>
      <trkpt lat="43.40581520" lon="13.00208400">
        <ele>640.00000</ele>
        <time>2009-07-31T10:34:32Z</time>
      </trkpt>
      <trkpt lat="43.40582110" lon="13.00207120">
        <ele>653.00000</ele>
        <time>2009-07-31T10:34:33Z</time>
      </trkpt>
      <trkpt lat="43.40581900" lon="13.00204920">
        <ele>653.00000</ele>
        <time>2009-07-31T10:34:33Z</time>
      </trkpt>
      <trkpt lat="43.40583460" lon="13.00200610">
        <ele>653.00000</ele>
        <time>2009-07-31T10:34:35Z</time>
      </trkpt>
      <trkpt lat="43.40583580" lon="13.00197640">
        <ele>653.00000</ele>
        <time>2009-07-31T10:34:36Z</time>
      </trkpt>
      <trkpt lat="43.40585280" lon="13.00194860">
        <ele>653.00000</ele>
        <time>2009-07-31T10:34:37Z</time>
      </trkpt>
      <trkpt lat="43.40585950" lon="13.00191540">
        <ele>653.00000</ele>
        <time>2009-07-31T10:34:38Z</time>
      </trkpt>
      <trkpt lat="43.40587450" lon="13.00187980">
        <ele>653.00000</ele>
        <time>2009-07-31T10:34:39Z</time>
      </trkpt>
      <trkpt lat="43.40588560" lon="13.00185380">
        <ele>653.00000</ele>
        <time>2009-07-31T10:34:40Z</time>
      </trkpt>
      <trkpt lat="43.40589220" lon="13.00181230">
        <ele>653.00000</ele>
        <time>2009-07-31T10:34:41Z</time>
      </trkpt>
      <trkpt lat="43.40590800" lon="13.00178940">
        <ele>653.00000</ele>
        <time>2009-07-31T10:34:42Z</time>
      </trkpt>
      <trkpt lat="43.40592350" lon="13.00176110">
        <ele>653.00000</ele>
        <time>2009-07-31T10:34:43Z</time>
      </trkpt>
      <trkpt lat="43.40593020" lon="13.00173960">
        <ele>653.00000</ele>
        <time>2009-07-31T10:34:44Z</time>
      </trkpt>
      <trkpt lat="43.40594840" lon="13.00170820">
        <ele>653.00000</ele>
        <time>2009-07-31T10:34:45Z</time>
      </trkpt>
      <trkpt lat="43.40596360" lon="13.00166930">
        <ele>653.00000</ele>
        <time>2009-07-31T10:34:46Z</time>
      </trkpt>
      <trkpt lat="43.40598490" lon="13.00163980">
        <ele>653.00000</ele>
        <time>2009-07-31T10:34:47Z</time>
      </trkpt>
      <trkpt lat="43.40598670" lon="13.00162250">
        <ele>653.00000</ele>
        <time>2009-07-31T10:34:48Z</time>
      </trkpt>
      <trkpt lat="43.40598260" lon="13.00160680">
        <ele>653.00000</ele>
        <time>2009-07-31T10:34:48Z</time>
      </trkpt>
      <trkpt lat="43.40599340" lon="13.00158330">
        <ele>653.00000</ele>
        <time>2009-07-31T10:34:49Z</time>
      </trkpt>
      <trkpt lat="43.40598890" lon="13.00155830">
        <ele>653.00000</ele>
        <time>2009-07-31T10:34:50Z</time>
      </trkpt>
      <trkpt lat="43.40599370" lon="13.00153920">
        <ele>653.00000</ele>
        <time>2009-07-31T10:34:50Z</time>
      </trkpt>
      <trkpt lat="43.40598710" lon="13.00153290">
        <ele>653.00000</ele>
        <time>2009-07-31T10:34:51Z</time>
      </trkpt>
      <trkpt lat="43.40599030" lon="13.00152080">
        <ele>653.00000</ele>
        <time>2009-07-31T10:34:51Z</time>
      </trkpt>
      <trkpt lat="43.40599480" lon="13.00150990">
        <ele>653.00000</ele>
        <time>2009-07-31T10:34:52Z</time>
      </trkpt>
      <trkpt lat="43.40598630" lon="13.00149580">
        <ele>653.00000</ele>
        <time>2009-07-31T10:34:52Z</time>
      </trkpt>
      <trkpt lat="43.40598270" lon="13.00147250">
        <ele>653.00000</ele>
        <time>2009-07-31T10:34:53Z</time>
      </trkpt>
      <trkpt lat="43.40597750" lon="13.00145190">
        <ele>653.00000</ele>
        <time>2009-07-31T10:34:53Z</time>
      </trkpt>
      <trkpt lat="43.40598030" lon="13.00141800">
        <ele>653.00000</ele>
        <time>2009-07-31T10:34:54Z</time>
      </trkpt>
      <trkpt lat="43.40597780" lon="13.00139130">
        <ele>653.00000</ele>
        <time>2009-07-31T10:34:55Z</time>
      </trkpt>
      <trkpt lat="43.40597430" lon="13.00136590">
        <ele>653.00000</ele>
        <time>2009-07-31T10:34:56Z</time>
      </trkpt>
      <trkpt lat="43.40596860" lon="13.00135480">
        <ele>653.00000</ele>
        <time>2009-07-31T10:34:56Z</time>
      </trkpt>
      <trkpt lat="43.40596440" lon="13.00134540">
        <ele>653.00000</ele>
        <time>2009-07-31T10:34:57Z</time>
      </trkpt>
      <trkpt lat="43.40596480" lon="13.00132590">
        <ele>653.00000</ele>
        <time>2009-07-31T10:34:57Z</time>
      </trkpt>
      <trkpt lat="43.40595810" lon="13.00129830">
        <ele>653.00000</ele>
        <time>2009-07-31T10:34:58Z</time>
      </trkpt>
      <trkpt lat="43.40595080" lon="13.00127370">
        <ele>653.00000</ele>
        <time>2009-07-31T10:34:59Z</time>
      </trkpt>
      <trkpt lat="43.40593720" lon="13.00124180">
        <ele>666.00000</ele>
        <time>2009-07-31T10:35:00Z</time>
      </trkpt>
      <trkpt lat="43.40594600" lon="13.00120370">
        <ele>666.00000</ele>
        <time>2009-07-31T10:35:01Z</time>
      </trkpt>
      <trkpt lat="43.40594560" lon="13.00118360">
        <ele>666.00000</ele>
        <time>2009-07-31T10:35:02Z</time>
      </trkpt>
      <trkpt lat="43.40593780" lon="13.00115820">
        <ele>666.00000</ele>
        <time>2009-07-31T10:35:02Z</time>
      </trkpt>
      <trkpt lat="43.40591930" lon="13.00113410">
        <ele>666.00000</ele>
        <time>2009-07-31T10:35:03Z</time>
      </trkpt>
      <trkpt lat="43.40590890" lon="13.00112080">
        <ele>666.00000</ele>
        <time>2009-07-31T10:35:04Z</time>
      </trkpt>
      <trkpt lat="43.40590280" lon="13.00110280">
        <ele>666.00000</ele>
        <time>2009-07-31T10:35:05Z</time>
      </trkpt>
      <trkpt lat="43.40589630" lon="13.00109320">
        <ele>666.00000</ele>
        <time>2009-07-31T10:35:05Z</time>
      </trkpt>
      <trkpt lat="43.40588430" lon="13.00108320">
        <ele>666.00000</ele>
        <time>2009-07-31T10:35:06Z</time>
      </trkpt>
      <trkpt lat="43.40587610" lon="13.00107330">
        <ele>666.00000</ele>
        <time>2009-07-31T10:35:06Z</time>
      </trkpt>
      <trkpt lat="43.40586590" lon="13.00105960">
        <ele>666.00000</ele>
        <time>2009-07-31T10:35:07Z</time>
      </trkpt>
      <trkpt lat="43.40585170" lon="13.00104330">
        <ele>666.00000</ele>
        <time>2009-07-31T10:35:07Z</time>
      </trkpt>
      <trkpt lat="43.40584640" lon="13.00103420">
        <ele>666.00000</ele>
        <time>2009-07-31T10:35:08Z</time>
      </trkpt>
      <trkpt lat="43.40583550" lon="13.00102200">
        <ele>666.00000</ele>
        <time>2009-07-31T10:35:08Z</time>
      </trkpt>
      <trkpt lat="43.40582920" lon="13.00100380">
        <ele>666.00000</ele>
        <time>2009-07-31T10:35:09Z</time>
      </trkpt>
      <trkpt lat="43.40582530" lon="13.00098660">
        <ele>666.00000</ele>
        <time>2009-07-31T10:35:09Z</time>
      </trkpt>
      <trkpt lat="43.40582210" lon="13.00097000">
        <ele>666.00000</ele>
        <time>2009-07-31T10:35:10Z</time>
      </trkpt>
      <trkpt lat="43.40581630" lon="13.00095120">
        <ele>666.00000</ele>
        <time>2009-07-31T10:35:10Z</time>
      </trkpt>
      <trkpt lat="43.40580260" lon="13.00093520">
        <ele>666.00000</ele>
        <time>2009-07-31T10:35:11Z</time>
      </trkpt>
      <trkpt lat="43.40579280" lon="13.00091430">
        <ele>666.00000</ele>
        <time>2009-07-31T10:35:12Z</time>
      </trkpt>
      <trkpt lat="43.40577890" lon="13.00089090">
        <ele>666.00000</ele>
        <time>2009-07-31T10:35:13Z</time>
      </trkpt>
      <trkpt lat="43.40576710" lon="13.00086400">
        <ele>666.00000</ele>
        <time>2009-07-31T10:35:14Z</time>
      </trkpt>
      <trkpt lat="43.40575480" lon="13.00084340">
        <ele>666.00000</ele>
        <time>2009-07-31T10:35:14Z</time>
      </trkpt>
      <trkpt lat="43.40575250" lon="13.00082310">
        <ele>666.00000</ele>
        <time>2009-07-31T10:35:15Z</time>
      </trkpt>
      <trkpt lat="43.40574070" lon="13.00081390">
        <ele>666.00000</ele>
        <time>2009-07-31T10:35:16Z</time>
      </trkpt>
      <trkpt lat="43.40573500" lon="13.00078890">
        <ele>666.00000</ele>
        <time>2009-07-31T10:35:16Z</time>
      </trkpt>
      <trkpt lat="43.40573120" lon="13.00076100">
        <ele>666.00000</ele>
        <time>2009-07-31T10:35:17Z</time>
      </trkpt>
      <trkpt lat="43.40571350" lon="13.00075210">
        <ele>666.00000</ele>
        <time>2009-07-31T10:35:18Z</time>
      </trkpt>
      <trkpt lat="43.40570380" lon="13.00073220">
        <ele>666.00000</ele>
        <time>2009-07-31T10:35:19Z</time>
      </trkpt>
      <trkpt lat="43.40569060" lon="13.00071420">
        <ele>666.00000</ele>
        <time>2009-07-31T10:35:19Z</time>
      </trkpt>
      <trkpt lat="43.40568410" lon="13.00069100">
        <ele>666.00000</ele>
        <time>2009-07-31T10:35:20Z</time>
      </trkpt>
      <trkpt lat="43.40567450" lon="13.00067090">
        <ele>666.00000</ele>
        <time>2009-07-31T10:35:21Z</time>
      </trkpt>
      <trkpt lat="43.40567100" lon="13.00065080">
        <ele>666.00000</ele>
        <time>2009-07-31T10:35:21Z</time>
      </trkpt>
      <trkpt lat="43.40566000" lon="13.00063610">
        <ele>666.00000</ele>
        <time>2009-07-31T10:35:22Z</time>
      </trkpt>
      <trkpt lat="43.40565500" lon="13.00060470">
        <ele>666.00000</ele>
        <time>2009-07-31T10:35:23Z</time>
      </trkpt>
      <trkpt lat="43.40564540" lon="13.00058510">
        <ele>666.00000</ele>
        <time>2009-07-31T10:35:24Z</time>
      </trkpt>
      <trkpt lat="43.40563860" lon="13.00056190">
        <ele>666.00000</ele>
        <time>2009-07-31T10:35:24Z</time>
      </trkpt>
      <trkpt lat="43.40562530" lon="13.00054910">
        <ele>666.00000</ele>
        <time>2009-07-31T10:35:25Z</time>
      </trkpt>
      <trkpt lat="43.40561430" lon="13.00053100">
        <ele>666.00000</ele>
        <time>2009-07-31T10:35:26Z</time>
      </trkpt>
      <trkpt lat="43.40560910" lon="13.00051290">
        <ele>666.00000</ele>
        <time>2009-07-31T10:35:26Z</time>
      </trkpt>
      <trkpt lat="43.40559370" lon="13.00049270">
        <ele>666.00000</ele>
        <time>2009-07-31T10:35:27Z</time>
      </trkpt>
      <trkpt lat="43.40559620" lon="13.00047660">
        <ele>666.00000</ele>
        <time>2009-07-31T10:35:28Z</time>
      </trkpt>
      <trkpt lat="43.40558940" lon="13.00045190">
        <ele>666.00000</ele>
        <time>2009-07-31T10:35:28Z</time>
      </trkpt>
      <trkpt lat="43.40558590" lon="13.00043340">
        <ele>666.00000</ele>
        <time>2009-07-31T10:35:29Z</time>
      </trkpt>
      <trkpt lat="43.40557990" lon="13.00041330">
        <ele>673.00000</ele>
        <time>2009-07-31T10:35:30Z</time>
      </trkpt>
      <trkpt lat="43.40557360" lon="13.00038400">
        <ele>673.00000</ele>
        <time>2009-07-31T10:35:30Z</time>
      </trkpt>
      <trkpt lat="43.40556650" lon="13.00036060">
        <ele>673.00000</ele>
        <time>2009-07-31T10:35:31Z</time>
      </trkpt>
      <trkpt lat="43.40555840" lon="13.00033210">
        <ele>673.00000</ele>
        <time>2009-07-31T10:35:32Z</time>
      </trkpt>
      <trkpt lat="43.40554450" lon="13.00031500">
        <ele>673.00000</ele>
        <time>2009-07-31T10:35:33Z</time>
      </trkpt>
      <trkpt lat="43.40554180" lon="13.00029200">
        <ele>673.00000</ele>
        <time>2009-07-31T10:35:33Z</time>
      </trkpt>
      <trkpt lat="43.40552990" lon="13.00026760">
        <ele>673.00000</ele>
        <time>2009-07-31T10:35:34Z</time>
      </trkpt>
      <trkpt lat="43.40552100" lon="13.00023930">
        <ele>673.00000</ele>
        <time>2009-07-31T10:35:35Z</time>
      </trkpt>
      <trkpt lat="43.40551500" lon="13.00022180">
        <ele>673.00000</ele>
        <time>2009-07-31T10:35:36Z</time>
      </trkpt>
      <trkpt lat="43.40550790" lon="13.00019570">
        <ele>673.00000</ele>
        <time>2009-07-31T10:35:37Z</time>
      </trkpt>
      <trkpt lat="43.40550230" lon="13.00016980">
        <ele>673.00000</ele>
        <time>2009-07-31T10:35:37Z</time>
      </trkpt>
      <trkpt lat="43.40549280" lon="13.00014490">
        <ele>673.00000</ele>
        <time>2009-07-31T10:35:38Z</time>
      </trkpt>
      <trkpt lat="43.40548470" lon="13.00012350">
        <ele>673.00000</ele>
        <time>2009-07-31T10:35:39Z</time>
      </trkpt>
      <trkpt lat="43.40547060" lon="13.00009860">
        <ele>673.00000</ele>
        <time>2009-07-31T10:35:40Z</time>
      </trkpt>
      <trkpt lat="43.40546850" lon="13.00006990">
        <ele>673.00000</ele>
        <time>2009-07-31T10:35:41Z</time>
      </trkpt>
      <trkpt lat="43.40545950" lon="13.00004970">
        <ele>673.00000</ele>
        <time>2009-07-31T10:35:41Z</time>
      </trkpt>
      <trkpt lat="43.40544130" lon="13.00003230">
        <ele>673.00000</ele>
        <time>2009-07-31T10:35:42Z</time>
      </trkpt>
      <trkpt lat="43.40542900" lon="13.00000470">
        <ele>673.00000</ele>
        <time>2009-07-31T10:35:43Z</time>
      </trkpt>
      <trkpt lat="43.40542330" lon="12.99997040">
        <ele>673.00000</ele>
        <time>2009-07-31T10:35:44Z</time>
      </trkpt>
      <trkpt lat="43.40541490" lon="12.99994130">
        <ele>676.00000</ele>
        <time>2009-07-31T10:35:45Z</time>
      </trkpt>
      <trkpt lat="43.40540740" lon="12.99990810">
        <ele>676.00000</ele>
        <time>2009-07-31T10:35:46Z</time>
      </trkpt>
      <trkpt lat="43.40540100" lon="12.99988600">
        <ele>676.00000</ele>
        <time>2009-07-31T10:35:47Z</time>
      </trkpt>
      <trkpt lat="43.40538730" lon="12.99985340">
        <ele>676.00000</ele>
        <time>2009-07-31T10:35:48Z</time>
      </trkpt>
      <trkpt lat="43.40538230" lon="12.99982550">
        <ele>676.00000</ele>
        <time>2009-07-31T10:35:49Z</time>
      </trkpt>
      <trkpt lat="43.40537080" lon="12.99979190">
        <ele>676.00000</ele>
        <time>2009-07-31T10:35:50Z</time>
      </trkpt>
      <trkpt lat="43.40536470" lon="12.99976910">
        <ele>676.00000</ele>
        <time>2009-07-31T10:35:51Z</time>
      </trkpt>
      <trkpt lat="43.40536210" lon="12.99973540">
        <ele>676.00000</ele>
        <time>2009-07-31T10:35:52Z</time>
      </trkpt>
      <trkpt lat="43.40535970" lon="12.99969040">
        <ele>676.00000</ele>
        <time>2009-07-31T10:35:53Z</time>
      </trkpt>
      <trkpt lat="43.40535230" lon="12.99966260">
        <ele>676.00000</ele>
        <time>2009-07-31T10:35:54Z</time>
      </trkpt>
      <trkpt lat="43.40534650" lon="12.99963940">
        <ele>676.00000</ele>
        <time>2009-07-31T10:35:54Z</time>
      </trkpt>
      <trkpt lat="43.40534560" lon="12.99960870">
        <ele>676.00000</ele>
        <time>2009-07-31T10:35:55Z</time>
      </trkpt>
      <trkpt lat="43.40534250" lon="12.99958100">
        <ele>679.00000</ele>
        <time>2009-07-31T10:35:56Z</time>
      </trkpt>
      <trkpt lat="43.40532770" lon="12.99955350">
        <ele>679.00000</ele>
        <time>2009-07-31T10:35:57Z</time>
      </trkpt>
      <trkpt lat="43.40530540" lon="12.99952590">
        <ele>679.00000</ele>
        <time>2009-07-31T10:35:58Z</time>
      </trkpt>
      <trkpt lat="43.40528980" lon="12.99948690">
        <ele>679.00000</ele>
        <time>2009-07-31T10:36:00Z</time>
      </trkpt>
      <trkpt lat="43.40527200" lon="12.99947020">
        <ele>679.00000</ele>
        <time>2009-07-31T10:36:00Z</time>
      </trkpt>
      <trkpt lat="43.40525340" lon="12.99944090">
        <ele>679.00000</ele>
        <time>2009-07-31T10:36:02Z</time>
      </trkpt>
      <trkpt lat="43.40524730" lon="12.99939620">
        <ele>679.00000</ele>
        <time>2009-07-31T10:36:03Z</time>
      </trkpt>
      <trkpt lat="43.40523450" lon="12.99937390">
        <ele>679.00000</ele>
        <time>2009-07-31T10:36:04Z</time>
      </trkpt>
      <trkpt lat="43.40522130" lon="12.99934400">
        <ele>679.00000</ele>
        <time>2009-07-31T10:36:05Z</time>
      </trkpt>
      <trkpt lat="43.40520900" lon="12.99930850">
        <ele>679.00000</ele>
        <time>2009-07-31T10:36:06Z</time>
      </trkpt>
      <trkpt lat="43.40519980" lon="12.99927710">
        <ele>679.00000</ele>
        <time>2009-07-31T10:36:07Z</time>
      </trkpt>
      <trkpt lat="43.40519160" lon="12.99924930">
        <ele>679.00000</ele>
        <time>2009-07-31T10:36:08Z</time>
      </trkpt>
      <trkpt lat="43.40518240" lon="12.99921830">
        <ele>679.00000</ele>
        <time>2009-07-31T10:36:09Z</time>
      </trkpt>
      <trkpt lat="43.40516510" lon="12.99919400">
        <ele>679.00000</ele>
        <time>2009-07-31T10:36:10Z</time>
      </trkpt>
      <trkpt lat="43.40514710" lon="12.99915700">
        <ele>679.00000</ele>
        <time>2009-07-31T10:36:11Z</time>
      </trkpt>
      <trkpt lat="43.40513530" lon="12.99913140">
        <ele>679.00000</ele>
        <time>2009-07-31T10:36:12Z</time>
      </trkpt>
      <trkpt lat="43.40513070" lon="12.99910660">
        <ele>679.00000</ele>
        <time>2009-07-31T10:36:13Z</time>
      </trkpt>
      <trkpt lat="43.40512260" lon="12.99906930">
        <ele>679.00000</ele>
        <time>2009-07-31T10:36:14Z</time>
      </trkpt>
      <trkpt lat="43.40512060" lon="12.99902910">
        <ele>679.00000</ele>
        <time>2009-07-31T10:36:15Z</time>
      </trkpt>
      <trkpt lat="43.40510760" lon="12.99899900">
        <ele>679.00000</ele>
        <time>2009-07-31T10:36:16Z</time>
      </trkpt>
      <trkpt lat="43.40509400" lon="12.99895890">
        <ele>679.00000</ele>
        <time>2009-07-31T10:36:17Z</time>
      </trkpt>
      <trkpt lat="43.40508180" lon="12.99892100">
        <ele>679.00000</ele>
        <time>2009-07-31T10:36:18Z</time>
      </trkpt>
      <trkpt lat="43.40507420" lon="12.99889010">
        <ele>679.00000</ele>
        <time>2009-07-31T10:36:19Z</time>
      </trkpt>
      <trkpt lat="43.40505900" lon="12.99886050">
        <ele>679.00000</ele>
        <time>2009-07-31T10:36:20Z</time>
      </trkpt>
      <trkpt lat="43.40504210" lon="12.99883330">
        <ele>679.00000</ele>
        <time>2009-07-31T10:36:22Z</time>
      </trkpt>
      <trkpt lat="43.40502200" lon="12.99880820">
        <ele>679.00000</ele>
        <time>2009-07-31T10:36:23Z</time>
      </trkpt>
      <trkpt lat="43.40501180" lon="12.99877780">
        <ele>679.00000</ele>
        <time>2009-07-31T10:36:24Z</time>
      </trkpt>
      <trkpt lat="43.40499850" lon="12.99874630">
        <ele>679.00000</ele>
        <time>2009-07-31T10:36:25Z</time>
      </trkpt>
      <trkpt lat="43.40498550" lon="12.99871300">
        <ele>679.00000</ele>
        <time>2009-07-31T10:36:26Z</time>
      </trkpt>
      <trkpt lat="43.40497580" lon="12.99867520">
        <ele>679.00000</ele>
        <time>2009-07-31T10:36:27Z</time>
      </trkpt>
      <trkpt lat="43.40495850" lon="12.99864080">
        <ele>679.00000</ele>
        <time>2009-07-31T10:36:28Z</time>
      </trkpt>
      <trkpt lat="43.40494530" lon="12.99861880">
        <ele>679.00000</ele>
        <time>2009-07-31T10:36:29Z</time>
      </trkpt>
      <trkpt lat="43.40494510" lon="12.99859360">
        <ele>679.00000</ele>
        <time>2009-07-31T10:36:30Z</time>
      </trkpt>
      <trkpt lat="43.40493780" lon="12.99855460">
        <ele>679.00000</ele>
        <time>2009-07-31T10:36:31Z</time>
      </trkpt>
      <trkpt lat="43.40493520" lon="12.99851750">
        <ele>679.00000</ele>
        <time>2009-07-31T10:36:32Z</time>
      </trkpt>
      <trkpt lat="43.40493300" lon="12.99849880">
        <ele>679.00000</ele>
        <time>2009-07-31T10:36:32Z</time>
      </trkpt>
      <trkpt lat="43.40492390" lon="12.99852210">
        <ele>679.00000</ele>
        <time>2009-07-31T10:36:33Z</time>
      </trkpt>
      <trkpt lat="43.40494400" lon="12.99850870">
        <ele>679.00000</ele>
        <time>2009-07-31T10:36:34Z</time>
      </trkpt>
    </trkseg>
  </trk>
</gpx>

